<?xml version="1.0" encoding="UTF-8"?>
<gpx version="1.1" creator=" " xmlns="http://www.topografix.com/GPX/1/1" xmlns:xsi="http://www.w3.org/2001/XMLSchema-instance" xsi:schemaLocation="http://www.topografix.com/GPX/1/1 http://www.topografix.com/GPX/1/1/gpx.xsd">
<metadata>
<name>Bartholomä - Bad Wörishofen 1</name>
<desc></desc>
<link href="">
<text>  </text>
</link>
<time>2020-09-10T09:09:30Z</time>
</metadata>
<trk>
<trkseg>
<trkpt lat="48.754063" lon="9.986697">
<ele>588.331</ele>
</trkpt>
<trkpt lat="48.754063" lon="9.986697">
<ele>588.331</ele>
<time>2020-09-10T09:09:30Z</time>
</trkpt>
<trkpt lat="48.754089" lon="9.986698">
<ele>590.917</ele>
<time>2020-09-10T09:09:41Z</time>
</trkpt>
<trkpt lat="48.754089" lon="9.986703">
<ele>591.343</ele>
<time>2020-09-10T09:09:42Z</time>
</trkpt>
<trkpt lat="48.754089" lon="9.986698">
<ele>591.514</ele>
<time>2020-09-10T09:09:43Z</time>
</trkpt>
<trkpt lat="48.754089" lon="9.986697">
<ele>591.6</ele>
<time>2020-09-10T09:09:44Z</time>
</trkpt>
<trkpt lat="48.754089" lon="9.986698">
<ele>591.652</ele>
<time>2020-09-10T09:09:45Z</time>
</trkpt>
<trkpt lat="48.754074" lon="9.986695">
<ele>591.697</ele>
<time>2020-09-10T09:09:47Z</time>
</trkpt>
<trkpt lat="48.75407" lon="9.986698">
<ele>591.727</ele>
<time>2020-09-10T09:09:48Z</time>
</trkpt>
<trkpt lat="48.754066" lon="9.986703">
<ele>591.748</ele>
<time>2020-09-10T09:09:49Z</time>
</trkpt>
<trkpt lat="48.754066" lon="9.986707">
<ele>591.848</ele>
<time>2020-09-10T09:09:50Z</time>
</trkpt>
<trkpt lat="48.754066" lon="9.98671">
<ele>591.848</ele>
<time>2020-09-10T09:09:51Z</time>
</trkpt>
<trkpt lat="48.754074" lon="9.986732">
<ele>591.848</ele>
<time>2020-09-10T09:10:24Z</time>
</trkpt>
<trkpt lat="48.754066" lon="9.986738">
<ele>591.848</ele>
<time>2020-09-10T09:10:25Z</time>
</trkpt>
<trkpt lat="48.754063" lon="9.98674">
<ele>591.848</ele>
<time>2020-09-10T09:10:26Z</time>
</trkpt>
<trkpt lat="48.754063" lon="9.986741">
<ele>591.848</ele>
<time>2020-09-10T09:10:27Z</time>
</trkpt>
<trkpt lat="48.754059" lon="9.986753">
<ele>591.848</ele>
<time>2020-09-10T09:10:36Z</time>
</trkpt>
<trkpt lat="48.754059" lon="9.986757">
<ele>591.848</ele>
<time>2020-09-10T09:10:37Z</time>
</trkpt>
<trkpt lat="48.754059" lon="9.986758">
<ele>591.848</ele>
<time>2020-09-10T09:10:39Z</time>
</trkpt>
<trkpt lat="48.754047" lon="9.98678">
<ele>591.848</ele>
<time>2020-09-10T09:11:02Z</time>
</trkpt>
<trkpt lat="48.75404" lon="9.986792">
<ele>591.848</ele>
<time>2020-09-10T09:11:03Z</time>
</trkpt>
<trkpt lat="48.754032" lon="9.986806">
<ele>591.848</ele>
<time>2020-09-10T09:11:04Z</time>
</trkpt>
<trkpt lat="48.754017" lon="9.986825">
<ele>591.848</ele>
<time>2020-09-10T09:11:05Z</time>
</trkpt>
<trkpt lat="48.754002" lon="9.986848">
<ele>591.848</ele>
<time>2020-09-10T09:11:06Z</time>
</trkpt>
<trkpt lat="48.753994" lon="9.986878">
<ele>591.848</ele>
<time>2020-09-10T09:11:07Z</time>
</trkpt>
<trkpt lat="48.753975" lon="9.986915">
<ele>591.848</ele>
<time>2020-09-10T09:11:08Z</time>
</trkpt>
<trkpt lat="48.75396" lon="9.986952">
<ele>591.848</ele>
<time>2020-09-10T09:11:09Z</time>
</trkpt>
<trkpt lat="48.753944" lon="9.986992">
<ele>591.848</ele>
<time>2020-09-10T09:11:10Z</time>
</trkpt>
<trkpt lat="48.753933" lon="9.987032">
<ele>591.848</ele>
<time>2020-09-10T09:11:11Z</time>
</trkpt>
<trkpt lat="48.753918" lon="9.987075">
<ele>591.848</ele>
<time>2020-09-10T09:11:12Z</time>
</trkpt>
<trkpt lat="48.75391" lon="9.987122">
<ele>591.848</ele>
<time>2020-09-10T09:11:13Z</time>
</trkpt>
<trkpt lat="48.753902" lon="9.987166">
<ele>591.847</ele>
<time>2020-09-10T09:11:14Z</time>
</trkpt>
<trkpt lat="48.753902" lon="9.987202">
<ele>591.848</ele>
<time>2020-09-10T09:11:15Z</time>
</trkpt>
<trkpt lat="48.753899" lon="9.987231">
<ele>591.848</ele>
<time>2020-09-10T09:11:16Z</time>
</trkpt>
<trkpt lat="48.753883" lon="9.987254">
<ele>591.848</ele>
<time>2020-09-10T09:11:17Z</time>
</trkpt>
<trkpt lat="48.753864" lon="9.987277">
<ele>591.848</ele>
<time>2020-09-10T09:11:18Z</time>
</trkpt>
<trkpt lat="48.753838" lon="9.987291">
<ele>591.848</ele>
<time>2020-09-10T09:11:19Z</time>
</trkpt>
<trkpt lat="48.753807" lon="9.987305">
<ele>591.848</ele>
<time>2020-09-10T09:11:20Z</time>
</trkpt>
<trkpt lat="48.753777" lon="9.987313">
<ele>591.848</ele>
<time>2020-09-10T09:11:21Z</time>
</trkpt>
<trkpt lat="48.753742" lon="9.987315">
<ele>591.848</ele>
<time>2020-09-10T09:11:22Z</time>
</trkpt>
<trkpt lat="48.753708" lon="9.98731">
<ele>591.848</ele>
<time>2020-09-10T09:11:23Z</time>
</trkpt>
<trkpt lat="48.75367" lon="9.987309">
<ele>591.848</ele>
<time>2020-09-10T09:11:24Z</time>
</trkpt>
<trkpt lat="48.753635" lon="9.987309">
<ele>591.848</ele>
<time>2020-09-10T09:11:25Z</time>
</trkpt>
<trkpt lat="48.75359" lon="9.98731">
<ele>591.848</ele>
<time>2020-09-10T09:11:26Z</time>
</trkpt>
<trkpt lat="48.753544" lon="9.987315">
<ele>591.848</ele>
<time>2020-09-10T09:11:27Z</time>
</trkpt>
<trkpt lat="48.753498" lon="9.98732">
<ele>591.848</ele>
<time>2020-09-10T09:11:28Z</time>
</trkpt>
<trkpt lat="48.753448" lon="9.987325">
<ele>591.848</ele>
<time>2020-09-10T09:11:29Z</time>
</trkpt>
<trkpt lat="48.753399" lon="9.987336">
<ele>591.848</ele>
<time>2020-09-10T09:11:30Z</time>
</trkpt>
<trkpt lat="48.753345" lon="9.987345">
<ele>591.848</ele>
<time>2020-09-10T09:11:31Z</time>
</trkpt>
<trkpt lat="48.753288" lon="9.987352">
<ele>591.586</ele>
<time>2020-09-10T09:11:32Z</time>
</trkpt>
<trkpt lat="48.753227" lon="9.987353">
<ele>591.423</ele>
<time>2020-09-10T09:11:33Z</time>
</trkpt>
<trkpt lat="48.75317" lon="9.987355">
<ele>591.037</ele>
<time>2020-09-10T09:11:34Z</time>
</trkpt>
<trkpt lat="48.753109" lon="9.98736">
<ele>590.685</ele>
<time>2020-09-10T09:11:35Z</time>
</trkpt>
<trkpt lat="48.753044" lon="9.987367">
<ele>590.446</ele>
<time>2020-09-10T09:11:36Z</time>
</trkpt>
<trkpt lat="48.752975" lon="9.98737">
<ele>589.957</ele>
<time>2020-09-10T09:11:37Z</time>
</trkpt>
<trkpt lat="48.752911" lon="9.98737">
<ele>589.635</ele>
<time>2020-09-10T09:11:38Z</time>
</trkpt>
<trkpt lat="48.752842" lon="9.98737">
<ele>589.079</ele>
<time>2020-09-10T09:11:39Z</time>
</trkpt>
<trkpt lat="48.752773" lon="9.987363">
<ele>588.715</ele>
<time>2020-09-10T09:11:40Z</time>
</trkpt>
<trkpt lat="48.752705" lon="9.987355">
<ele>588.163</ele>
<time>2020-09-10T09:11:41Z</time>
</trkpt>
<trkpt lat="48.752636" lon="9.987345">
<ele>587.747</ele>
<time>2020-09-10T09:11:42Z</time>
</trkpt>
<trkpt lat="48.752571" lon="9.987329">
<ele>587.226</ele>
<time>2020-09-10T09:11:43Z</time>
</trkpt>
<trkpt lat="48.752514" lon="9.987315">
<ele>586.848</ele>
<time>2020-09-10T09:11:44Z</time>
</trkpt>
<trkpt lat="48.752457" lon="9.987298">
<ele>586.255</ele>
<time>2020-09-10T09:11:45Z</time>
</trkpt>
<trkpt lat="48.752399" lon="9.987287">
<ele>585.787</ele>
<time>2020-09-10T09:11:46Z</time>
</trkpt>
<trkpt lat="48.752346" lon="9.987277">
<ele>585.494</ele>
<time>2020-09-10T09:11:47Z</time>
</trkpt>
<trkpt lat="48.7523" lon="9.987271">
<ele>585.003</ele>
<time>2020-09-10T09:11:48Z</time>
</trkpt>
<trkpt lat="48.752251" lon="9.98727">
<ele>584.631</ele>
<time>2020-09-10T09:11:49Z</time>
</trkpt>
<trkpt lat="48.752216" lon="9.987277">
<ele>584.349</ele>
<time>2020-09-10T09:11:50Z</time>
</trkpt>
<trkpt lat="48.752193" lon="9.987289">
<ele>584.154</ele>
<time>2020-09-10T09:11:51Z</time>
</trkpt>
<trkpt lat="48.752178" lon="9.987309">
<ele>584.015</ele>
<time>2020-09-10T09:11:52Z</time>
</trkpt>
<trkpt lat="48.752171" lon="9.987328">
<ele>583.946</ele>
<time>2020-09-10T09:11:53Z</time>
</trkpt>
<trkpt lat="48.752171" lon="9.987338">
<ele>583.707</ele>
<time>2020-09-10T09:11:54Z</time>
</trkpt>
<trkpt lat="48.752171" lon="9.987342">
<ele>583.511</ele>
<time>2020-09-10T09:11:55Z</time>
</trkpt>
<trkpt lat="48.752171" lon="9.987344">
<ele>583.371</ele>
<time>2020-09-10T09:11:56Z</time>
</trkpt>
<trkpt lat="48.752167" lon="9.98736">
<ele>583.243</ele>
<time>2020-09-10T09:11:58Z</time>
</trkpt>
<trkpt lat="48.752163" lon="9.98738">
<ele>583.115</ele>
<time>2020-09-10T09:11:59Z</time>
</trkpt>
<trkpt lat="48.752159" lon="9.987407">
<ele>583.006</ele>
<time>2020-09-10T09:12:00Z</time>
</trkpt>
<trkpt lat="48.752159" lon="9.987449">
<ele>582.923</ele>
<time>2020-09-10T09:12:01Z</time>
</trkpt>
<trkpt lat="48.752167" lon="9.987497">
<ele>582.884</ele>
<time>2020-09-10T09:12:02Z</time>
</trkpt>
<trkpt lat="48.752182" lon="9.98755">
<ele>582.884</ele>
<time>2020-09-10T09:12:03Z</time>
</trkpt>
<trkpt lat="48.752201" lon="9.987602">
<ele>582.884</ele>
<time>2020-09-10T09:12:04Z</time>
</trkpt>
<trkpt lat="48.752216" lon="9.987652">
<ele>582.885</ele>
<time>2020-09-10T09:12:05Z</time>
</trkpt>
<trkpt lat="48.752239" lon="9.987705">
<ele>582.884</ele>
<time>2020-09-10T09:12:06Z</time>
</trkpt>
<trkpt lat="48.75227" lon="9.987763">
<ele>582.885</ele>
<time>2020-09-10T09:12:07Z</time>
</trkpt>
<trkpt lat="48.752289" lon="9.987824">
<ele>582.884</ele>
<time>2020-09-10T09:12:08Z</time>
</trkpt>
<trkpt lat="48.752312" lon="9.987888">
<ele>582.884</ele>
<time>2020-09-10T09:12:09Z</time>
</trkpt>
<trkpt lat="48.752335" lon="9.987948">
<ele>582.884</ele>
<time>2020-09-10T09:12:10Z</time>
</trkpt>
<trkpt lat="48.752361" lon="9.988012">
<ele>582.885</ele>
<time>2020-09-10T09:12:11Z</time>
</trkpt>
<trkpt lat="48.75238" lon="9.988073">
<ele>582.884</ele>
<time>2020-09-10T09:12:12Z</time>
</trkpt>
<trkpt lat="48.752399" lon="9.988138">
<ele>582.885</ele>
<time>2020-09-10T09:12:13Z</time>
</trkpt>
<trkpt lat="48.752426" lon="9.988199">
<ele>582.884</ele>
<time>2020-09-10T09:12:14Z</time>
</trkpt>
<trkpt lat="48.752449" lon="9.988264">
<ele>582.884</ele>
<time>2020-09-10T09:12:15Z</time>
</trkpt>
<trkpt lat="48.752472" lon="9.988322">
<ele>582.884</ele>
<time>2020-09-10T09:12:16Z</time>
</trkpt>
<trkpt lat="48.752491" lon="9.988385">
<ele>582.884</ele>
<time>2020-09-10T09:12:17Z</time>
</trkpt>
<trkpt lat="48.75251" lon="9.988448">
<ele>582.885</ele>
<time>2020-09-10T09:12:18Z</time>
</trkpt>
<trkpt lat="48.752533" lon="9.988511">
<ele>582.884</ele>
<time>2020-09-10T09:12:19Z</time>
</trkpt>
<trkpt lat="48.752552" lon="9.988578">
<ele>582.884</ele>
<time>2020-09-10T09:12:20Z</time>
</trkpt>
<trkpt lat="48.752571" lon="9.988647">
<ele>582.884</ele>
<time>2020-09-10T09:12:21Z</time>
</trkpt>
<trkpt lat="48.752598" lon="9.988715">
<ele>582.884</ele>
<time>2020-09-10T09:12:22Z</time>
</trkpt>
<trkpt lat="48.752617" lon="9.988784">
<ele>582.884</ele>
<time>2020-09-10T09:12:23Z</time>
</trkpt>
<trkpt lat="48.75264" lon="9.988851">
<ele>582.884</ele>
<time>2020-09-10T09:12:24Z</time>
</trkpt>
<trkpt lat="48.752663" lon="9.988916">
<ele>582.884</ele>
<time>2020-09-10T09:12:25Z</time>
</trkpt>
<trkpt lat="48.752686" lon="9.988985">
<ele>582.885</ele>
<time>2020-09-10T09:12:26Z</time>
</trkpt>
<trkpt lat="48.752705" lon="9.989052">
<ele>582.884</ele>
<time>2020-09-10T09:12:27Z</time>
</trkpt>
<trkpt lat="48.752728" lon="9.989119">
<ele>582.885</ele>
<time>2020-09-10T09:12:28Z</time>
</trkpt>
<trkpt lat="48.75275" lon="9.989188">
<ele>582.639</ele>
<time>2020-09-10T09:12:29Z</time>
</trkpt>
<trkpt lat="48.752769" lon="9.989255">
<ele>582.445</ele>
<time>2020-09-10T09:12:30Z</time>
</trkpt>
<trkpt lat="48.752792" lon="9.989324">
<ele>582.299</ele>
<time>2020-09-10T09:12:31Z</time>
</trkpt>
<trkpt lat="48.752815" lon="9.989393">
<ele>582.194</ele>
<time>2020-09-10T09:12:32Z</time>
</trkpt>
<trkpt lat="48.752834" lon="9.989462">
<ele>582.115</ele>
<time>2020-09-10T09:12:33Z</time>
</trkpt>
<trkpt lat="48.752857" lon="9.989532">
<ele>582.068</ele>
<time>2020-09-10T09:12:34Z</time>
</trkpt>
<trkpt lat="48.752876" lon="9.989601">
<ele>582.03</ele>
<time>2020-09-10T09:12:35Z</time>
</trkpt>
<trkpt lat="48.752895" lon="9.989672">
<ele>582.006</ele>
<time>2020-09-10T09:12:36Z</time>
</trkpt>
<trkpt lat="48.752914" lon="9.989741">
<ele>582.006</ele>
<time>2020-09-10T09:12:37Z</time>
</trkpt>
<trkpt lat="48.752937" lon="9.989815">
<ele>582.006</ele>
<time>2020-09-10T09:12:38Z</time>
</trkpt>
<trkpt lat="48.752956" lon="9.989888">
<ele>582.006</ele>
<time>2020-09-10T09:12:39Z</time>
</trkpt>
<trkpt lat="48.752979" lon="9.989964">
<ele>582.006</ele>
<time>2020-09-10T09:12:40Z</time>
</trkpt>
<trkpt lat="48.752995" lon="9.990039">
<ele>582.006</ele>
<time>2020-09-10T09:12:41Z</time>
</trkpt>
<trkpt lat="48.753017" lon="9.990115">
<ele>582.006</ele>
<time>2020-09-10T09:12:42Z</time>
</trkpt>
<trkpt lat="48.753033" lon="9.99019">
<ele>582.006</ele>
<time>2020-09-10T09:12:43Z</time>
</trkpt>
<trkpt lat="48.753052" lon="9.990267">
<ele>582.006</ele>
<time>2020-09-10T09:12:44Z</time>
</trkpt>
<trkpt lat="48.753071" lon="9.990345">
<ele>582.006</ele>
<time>2020-09-10T09:12:45Z</time>
</trkpt>
<trkpt lat="48.75309" lon="9.990423">
<ele>582.006</ele>
<time>2020-09-10T09:12:46Z</time>
</trkpt>
<trkpt lat="48.753109" lon="9.990499">
<ele>582.006</ele>
<time>2020-09-10T09:12:47Z</time>
</trkpt>
<trkpt lat="48.75312" lon="9.990579">
<ele>582.006</ele>
<time>2020-09-10T09:12:48Z</time>
</trkpt>
<trkpt lat="48.753139" lon="9.990659">
<ele>582.006</ele>
<time>2020-09-10T09:12:49Z</time>
</trkpt>
<trkpt lat="48.753159" lon="9.990738">
<ele>582.006</ele>
<time>2020-09-10T09:12:50Z</time>
</trkpt>
<trkpt lat="48.753181" lon="9.990816">
<ele>582.006</ele>
<time>2020-09-10T09:12:51Z</time>
</trkpt>
<trkpt lat="48.753193" lon="9.990895">
<ele>582.006</ele>
<time>2020-09-10T09:12:52Z</time>
</trkpt>
<trkpt lat="48.753208" lon="9.990977">
<ele>582.006</ele>
<time>2020-09-10T09:12:53Z</time>
</trkpt>
<trkpt lat="48.75322" lon="9.991056">
<ele>582.006</ele>
<time>2020-09-10T09:12:54Z</time>
</trkpt>
<trkpt lat="48.753235" lon="9.991135">
<ele>582.006</ele>
<time>2020-09-10T09:12:55Z</time>
</trkpt>
<trkpt lat="48.75325" lon="9.991216">
<ele>582.006</ele>
<time>2020-09-10T09:12:56Z</time>
</trkpt>
<trkpt lat="48.753265" lon="9.991297">
<ele>582.006</ele>
<time>2020-09-10T09:12:57Z</time>
</trkpt>
<trkpt lat="48.753281" lon="9.991375">
<ele>582.006</ele>
<time>2020-09-10T09:12:58Z</time>
</trkpt>
<trkpt lat="48.753292" lon="9.991453">
<ele>582.006</ele>
<time>2020-09-10T09:12:59Z</time>
</trkpt>
<trkpt lat="48.753307" lon="9.991536">
<ele>582.006</ele>
<time>2020-09-10T09:13:00Z</time>
</trkpt>
<trkpt lat="48.753319" lon="9.99162">
<ele>582.006</ele>
<time>2020-09-10T09:13:01Z</time>
</trkpt>
<trkpt lat="48.75333" lon="9.991702">
<ele>582.006</ele>
<time>2020-09-10T09:13:02Z</time>
</trkpt>
<trkpt lat="48.753342" lon="9.991785">
<ele>581.763</ele>
<time>2020-09-10T09:13:03Z</time>
</trkpt>
<trkpt lat="48.753353" lon="9.991868">
<ele>581.572</ele>
<time>2020-09-10T09:13:04Z</time>
</trkpt>
<trkpt lat="48.753368" lon="9.99195">
<ele>581.441</ele>
<time>2020-09-10T09:13:05Z</time>
</trkpt>
<trkpt lat="48.75338" lon="9.992035">
<ele>581.298</ele>
<time>2020-09-10T09:13:06Z</time>
</trkpt>
<trkpt lat="48.753384" lon="9.992119">
<ele>581.19</ele>
<time>2020-09-10T09:13:07Z</time>
</trkpt>
<trkpt lat="48.753395" lon="9.992203">
<ele>581.115</ele>
<time>2020-09-10T09:13:08Z</time>
</trkpt>
<trkpt lat="48.753407" lon="9.99229">
<ele>581.064</ele>
<time>2020-09-10T09:13:09Z</time>
</trkpt>
<trkpt lat="48.753414" lon="9.992378">
<ele>581.04</ele>
<time>2020-09-10T09:13:10Z</time>
</trkpt>
<trkpt lat="48.753426" lon="9.992463">
<ele>581.04</ele>
<time>2020-09-10T09:13:11Z</time>
</trkpt>
<trkpt lat="48.753437" lon="9.992548">
<ele>581.04</ele>
<time>2020-09-10T09:13:12Z</time>
</trkpt>
<trkpt lat="48.753445" lon="9.992635">
<ele>581.04</ele>
<time>2020-09-10T09:13:13Z</time>
</trkpt>
<trkpt lat="48.753452" lon="9.99272">
<ele>581.04</ele>
<time>2020-09-10T09:13:14Z</time>
</trkpt>
<trkpt lat="48.75346" lon="9.992805">
<ele>581.04</ele>
<time>2020-09-10T09:13:15Z</time>
</trkpt>
<trkpt lat="48.753471" lon="9.99289">
<ele>581.04</ele>
<time>2020-09-10T09:13:16Z</time>
</trkpt>
<trkpt lat="48.753475" lon="9.992975">
<ele>581.04</ele>
<time>2020-09-10T09:13:17Z</time>
</trkpt>
<trkpt lat="48.753483" lon="9.993062">
<ele>581.04</ele>
<time>2020-09-10T09:13:18Z</time>
</trkpt>
<trkpt lat="48.753483" lon="9.993147">
<ele>581.04</ele>
<time>2020-09-10T09:13:19Z</time>
</trkpt>
<trkpt lat="48.753483" lon="9.993232">
<ele>581.04</ele>
<time>2020-09-10T09:13:20Z</time>
</trkpt>
<trkpt lat="48.753475" lon="9.993317">
<ele>581.04</ele>
<time>2020-09-10T09:13:21Z</time>
</trkpt>
<trkpt lat="48.753468" lon="9.9934">
<ele>581.04</ele>
<time>2020-09-10T09:13:22Z</time>
</trkpt>
<trkpt lat="48.753456" lon="9.993479">
<ele>581.04</ele>
<time>2020-09-10T09:13:23Z</time>
</trkpt>
<trkpt lat="48.753441" lon="9.993556">
<ele>581.04</ele>
<time>2020-09-10T09:13:24Z</time>
</trkpt>
<trkpt lat="48.753422" lon="9.993636">
<ele>581.04</ele>
<time>2020-09-10T09:13:25Z</time>
</trkpt>
<trkpt lat="48.753399" lon="9.99371">
<ele>581.04</ele>
<time>2020-09-10T09:13:26Z</time>
</trkpt>
<trkpt lat="48.75338" lon="9.993783">
<ele>581.04</ele>
<time>2020-09-10T09:13:27Z</time>
</trkpt>
<trkpt lat="48.753349" lon="9.993854">
<ele>581.04</ele>
<time>2020-09-10T09:13:28Z</time>
</trkpt>
<trkpt lat="48.753323" lon="9.993918">
<ele>581.04</ele>
<time>2020-09-10T09:13:29Z</time>
</trkpt>
<trkpt lat="48.753296" lon="9.993979">
<ele>581.299</ele>
<time>2020-09-10T09:13:30Z</time>
</trkpt>
<trkpt lat="48.753262" lon="9.994042">
<ele>581.504</ele>
<time>2020-09-10T09:13:31Z</time>
</trkpt>
<trkpt lat="48.753223" lon="9.994097">
<ele>581.661</ele>
<time>2020-09-10T09:13:32Z</time>
</trkpt>
<trkpt lat="48.753185" lon="9.994148">
<ele>581.749</ele>
<time>2020-09-10T09:13:33Z</time>
</trkpt>
<trkpt lat="48.753143" lon="9.994198">
<ele>582.082</ele>
<time>2020-09-10T09:13:34Z</time>
</trkpt>
<trkpt lat="48.753098" lon="9.994247">
<ele>582.326</ele>
<time>2020-09-10T09:13:35Z</time>
</trkpt>
<trkpt lat="48.753056" lon="9.994293">
<ele>582.556</ele>
<time>2020-09-10T09:13:36Z</time>
</trkpt>
<trkpt lat="48.753021" lon="9.994342">
<ele>582.709</ele>
<time>2020-09-10T09:13:37Z</time>
</trkpt>
<trkpt lat="48.752975" lon="9.99439">
<ele>583.055</ele>
<time>2020-09-10T09:13:38Z</time>
</trkpt>
<trkpt lat="48.752934" lon="9.994434">
<ele>583.326</ele>
<time>2020-09-10T09:13:39Z</time>
</trkpt>
<trkpt lat="48.752892" lon="9.994476">
<ele>583.539</ele>
<time>2020-09-10T09:13:40Z</time>
</trkpt>
<trkpt lat="48.752853" lon="9.99452">
<ele>583.693</ele>
<time>2020-09-10T09:13:41Z</time>
</trkpt>
<trkpt lat="48.752811" lon="9.994566">
<ele>583.838</ele>
<time>2020-09-10T09:13:42Z</time>
</trkpt>
<trkpt lat="48.752769" lon="9.994612">
<ele>583.891</ele>
<time>2020-09-10T09:13:43Z</time>
</trkpt>
<trkpt lat="48.752728" lon="9.99466">
<ele>583.916</ele>
<time>2020-09-10T09:13:44Z</time>
</trkpt>
<trkpt lat="48.752693" lon="9.99471">
<ele>583.939</ele>
<time>2020-09-10T09:13:45Z</time>
</trkpt>
<trkpt lat="48.752651" lon="9.994759">
<ele>583.939</ele>
<time>2020-09-10T09:13:46Z</time>
</trkpt>
<trkpt lat="48.752609" lon="9.994803">
<ele>583.939</ele>
<time>2020-09-10T09:13:47Z</time>
</trkpt>
<trkpt lat="48.752567" lon="9.994853">
<ele>583.939</ele>
<time>2020-09-10T09:13:48Z</time>
</trkpt>
<trkpt lat="48.752529" lon="9.994902">
<ele>584.21</ele>
<time>2020-09-10T09:13:49Z</time>
</trkpt>
<trkpt lat="48.752487" lon="9.994949">
<ele>584.419</ele>
<time>2020-09-10T09:13:50Z</time>
</trkpt>
<trkpt lat="48.752445" lon="9.995">
<ele>584.581</ele>
<time>2020-09-10T09:13:51Z</time>
</trkpt>
<trkpt lat="48.752403" lon="9.99505">
<ele>584.699</ele>
<time>2020-09-10T09:13:52Z</time>
</trkpt>
<trkpt lat="48.752365" lon="9.995096">
<ele>584.782</ele>
<time>2020-09-10T09:13:53Z</time>
</trkpt>
<trkpt lat="48.752323" lon="9.995149">
<ele>584.837</ele>
<time>2020-09-10T09:13:54Z</time>
</trkpt>
<trkpt lat="48.752277" lon="9.995203">
<ele>584.879</ele>
<time>2020-09-10T09:13:55Z</time>
</trkpt>
<trkpt lat="48.752239" lon="9.995257">
<ele>585.12</ele>
<time>2020-09-10T09:13:56Z</time>
</trkpt>
<trkpt lat="48.752201" lon="9.99531">
<ele>585.302</ele>
<time>2020-09-10T09:13:57Z</time>
</trkpt>
<trkpt lat="48.752155" lon="9.99536">
<ele>585.449</ele>
<time>2020-09-10T09:13:58Z</time>
</trkpt>
<trkpt lat="48.752117" lon="9.995408">
<ele>585.566</ele>
<time>2020-09-10T09:13:59Z</time>
</trkpt>
<trkpt lat="48.752075" lon="9.995457">
<ele>585.657</ele>
<time>2020-09-10T09:14:00Z</time>
</trkpt>
<trkpt lat="48.752041" lon="9.995504">
<ele>585.722</ele>
<time>2020-09-10T09:14:01Z</time>
</trkpt>
<trkpt lat="48.751999" lon="9.99555">
<ele>585.763</ele>
<time>2020-09-10T09:14:02Z</time>
</trkpt>
<trkpt lat="48.751957" lon="9.995597">
<ele>585.784</ele>
<time>2020-09-10T09:14:03Z</time>
</trkpt>
<trkpt lat="48.751919" lon="9.995641">
<ele>585.784</ele>
<time>2020-09-10T09:14:04Z</time>
</trkpt>
<trkpt lat="48.751881" lon="9.995683">
<ele>585.784</ele>
<time>2020-09-10T09:14:05Z</time>
</trkpt>
<trkpt lat="48.751842" lon="9.995733">
<ele>586.017</ele>
<time>2020-09-10T09:14:06Z</time>
</trkpt>
<trkpt lat="48.751797" lon="9.995782">
<ele>586.216</ele>
<time>2020-09-10T09:14:07Z</time>
</trkpt>
<trkpt lat="48.751751" lon="9.995833">
<ele>586.379</ele>
<time>2020-09-10T09:14:08Z</time>
</trkpt>
<trkpt lat="48.751709" lon="9.995888">
<ele>586.511</ele>
<time>2020-09-10T09:14:09Z</time>
</trkpt>
<trkpt lat="48.751663" lon="9.995947">
<ele>586.611</ele>
<time>2020-09-10T09:14:10Z</time>
</trkpt>
<trkpt lat="48.751621" lon="9.996003">
<ele>586.682</ele>
<time>2020-09-10T09:14:11Z</time>
</trkpt>
<trkpt lat="48.751579" lon="9.996056">
<ele>586.73</ele>
<time>2020-09-10T09:14:12Z</time>
</trkpt>
<trkpt lat="48.751534" lon="9.99611">
<ele>586.75</ele>
<time>2020-09-10T09:14:13Z</time>
</trkpt>
<trkpt lat="48.751488" lon="9.996165">
<ele>586.989</ele>
<time>2020-09-10T09:14:14Z</time>
</trkpt>
<trkpt lat="48.751446" lon="9.996219">
<ele>587.156</ele>
<time>2020-09-10T09:14:15Z</time>
</trkpt>
<trkpt lat="48.7514" lon="9.996271">
<ele>587.325</ele>
<time>2020-09-10T09:14:16Z</time>
</trkpt>
<trkpt lat="48.751358" lon="9.996325">
<ele>587.461</ele>
<time>2020-09-10T09:14:17Z</time>
</trkpt>
<trkpt lat="48.751312" lon="9.99638">
<ele>587.567</ele>
<time>2020-09-10T09:14:18Z</time>
</trkpt>
<trkpt lat="48.751266" lon="9.996433">
<ele>587.644</ele>
<time>2020-09-10T09:14:19Z</time>
</trkpt>
<trkpt lat="48.751228" lon="9.996487">
<ele>587.694</ele>
<time>2020-09-10T09:14:20Z</time>
</trkpt>
<trkpt lat="48.751179" lon="9.99654">
<ele>587.717</ele>
<time>2020-09-10T09:14:21Z</time>
</trkpt>
<trkpt lat="48.751137" lon="9.996593">
<ele>587.717</ele>
<time>2020-09-10T09:14:22Z</time>
</trkpt>
<trkpt lat="48.751099" lon="9.996647">
<ele>587.957</ele>
<time>2020-09-10T09:14:23Z</time>
</trkpt>
<trkpt lat="48.751057" lon="9.996698">
<ele>588.146</ele>
<time>2020-09-10T09:14:24Z</time>
</trkpt>
<trkpt lat="48.751011" lon="9.996752">
<ele>588.278</ele>
<time>2020-09-10T09:14:25Z</time>
</trkpt>
<trkpt lat="48.750965" lon="9.996803">
<ele>588.42</ele>
<time>2020-09-10T09:14:26Z</time>
</trkpt>
<trkpt lat="48.750923" lon="9.996859">
<ele>588.53</ele>
<time>2020-09-10T09:14:27Z</time>
</trkpt>
<trkpt lat="48.750877" lon="9.996913">
<ele>588.602</ele>
<time>2020-09-10T09:14:28Z</time>
</trkpt>
<trkpt lat="48.750835" lon="9.996966">
<ele>588.872</ele>
<time>2020-09-10T09:14:29Z</time>
</trkpt>
<trkpt lat="48.75079" lon="9.997022">
<ele>589.08</ele>
<time>2020-09-10T09:14:30Z</time>
</trkpt>
<trkpt lat="48.750744" lon="9.997076">
<ele>589.27</ele>
<time>2020-09-10T09:14:31Z</time>
</trkpt>
<trkpt lat="48.750706" lon="9.99713">
<ele>589.379</ele>
<time>2020-09-10T09:14:32Z</time>
</trkpt>
<trkpt lat="48.750671" lon="9.997183">
<ele>589.452</ele>
<time>2020-09-10T09:14:33Z</time>
</trkpt>
<trkpt lat="48.750637" lon="9.997233">
<ele>589.499</ele>
<time>2020-09-10T09:14:34Z</time>
</trkpt>
<trkpt lat="48.750599" lon="9.997277">
<ele>589.537</ele>
<time>2020-09-10T09:14:35Z</time>
</trkpt>
<trkpt lat="48.750561" lon="9.99732">
<ele>589.562</ele>
<time>2020-09-10T09:14:36Z</time>
</trkpt>
<trkpt lat="48.750526" lon="9.997361">
<ele>589.939</ele>
<time>2020-09-10T09:14:37Z</time>
</trkpt>
<trkpt lat="48.750488" lon="9.997401">
<ele>590.232</ele>
<time>2020-09-10T09:14:38Z</time>
</trkpt>
<trkpt lat="48.750454" lon="9.997443">
<ele>590.464</ele>
<time>2020-09-10T09:14:39Z</time>
</trkpt>
<trkpt lat="48.75042" lon="9.997483">
<ele>590.642</ele>
<time>2020-09-10T09:14:40Z</time>
</trkpt>
<trkpt lat="48.750381" lon="9.997524">
<ele>590.763</ele>
<time>2020-09-10T09:14:41Z</time>
</trkpt>
<trkpt lat="48.750347" lon="9.997568">
<ele>590.839</ele>
<time>2020-09-10T09:14:42Z</time>
</trkpt>
<trkpt lat="48.750309" lon="9.997613">
<ele>590.874</ele>
<time>2020-09-10T09:14:43Z</time>
</trkpt>
<trkpt lat="48.750271" lon="9.997657">
<ele>590.881</ele>
<time>2020-09-10T09:14:44Z</time>
</trkpt>
<trkpt lat="48.750237" lon="9.997698">
<ele>590.881</ele>
<time>2020-09-10T09:14:45Z</time>
</trkpt>
<trkpt lat="48.750198" lon="9.997735">
<ele>590.881</ele>
<time>2020-09-10T09:14:46Z</time>
</trkpt>
<trkpt lat="48.750153" lon="9.997771">
<ele>590.881</ele>
<time>2020-09-10T09:14:47Z</time>
</trkpt>
<trkpt lat="48.750114" lon="9.997805">
<ele>590.881</ele>
<time>2020-09-10T09:14:48Z</time>
</trkpt>
<trkpt lat="48.750069" lon="9.997836">
<ele>590.881</ele>
<time>2020-09-10T09:14:49Z</time>
</trkpt>
<trkpt lat="48.750023" lon="9.997867">
<ele>590.881</ele>
<time>2020-09-10T09:14:50Z</time>
</trkpt>
<trkpt lat="48.749977" lon="9.997893">
<ele>590.881</ele>
<time>2020-09-10T09:14:51Z</time>
</trkpt>
<trkpt lat="48.749928" lon="9.99792">
<ele>590.881</ele>
<time>2020-09-10T09:14:52Z</time>
</trkpt>
<trkpt lat="48.749882" lon="9.997947">
<ele>590.881</ele>
<time>2020-09-10T09:14:53Z</time>
</trkpt>
<trkpt lat="48.749836" lon="9.997971">
<ele>590.881</ele>
<time>2020-09-10T09:14:54Z</time>
</trkpt>
<trkpt lat="48.749786" lon="9.997988">
<ele>590.881</ele>
<time>2020-09-10T09:14:55Z</time>
</trkpt>
<trkpt lat="48.749733" lon="9.998007">
<ele>590.881</ele>
<time>2020-09-10T09:14:56Z</time>
</trkpt>
<trkpt lat="48.749687" lon="9.998027">
<ele>590.881</ele>
<time>2020-09-10T09:14:57Z</time>
</trkpt>
<trkpt lat="48.749634" lon="9.998046">
<ele>590.881</ele>
<time>2020-09-10T09:14:58Z</time>
</trkpt>
<trkpt lat="48.749584" lon="9.99807">
<ele>590.881</ele>
<time>2020-09-10T09:14:59Z</time>
</trkpt>
<trkpt lat="48.749531" lon="9.99809">
<ele>590.881</ele>
<time>2020-09-10T09:15:00Z</time>
</trkpt>
<trkpt lat="48.749485" lon="9.998112">
<ele>590.881</ele>
<time>2020-09-10T09:15:01Z</time>
</trkpt>
<trkpt lat="48.749435" lon="9.99813">
<ele>590.881</ele>
<time>2020-09-10T09:15:02Z</time>
</trkpt>
<trkpt lat="48.749382" lon="9.99815">
<ele>590.881</ele>
<time>2020-09-10T09:15:03Z</time>
</trkpt>
<trkpt lat="48.749332" lon="9.998172">
<ele>590.881</ele>
<time>2020-09-10T09:15:04Z</time>
</trkpt>
<trkpt lat="48.749279" lon="9.998192">
<ele>590.881</ele>
<time>2020-09-10T09:15:05Z</time>
</trkpt>
<trkpt lat="48.749229" lon="9.998212">
<ele>590.881</ele>
<time>2020-09-10T09:15:06Z</time>
</trkpt>
<trkpt lat="48.749172" lon="9.99823">
<ele>590.881</ele>
<time>2020-09-10T09:15:07Z</time>
</trkpt>
<trkpt lat="48.749123" lon="9.99825">
<ele>590.881</ele>
<time>2020-09-10T09:15:08Z</time>
</trkpt>
<trkpt lat="48.749073" lon="9.998268">
<ele>590.881</ele>
<time>2020-09-10T09:15:09Z</time>
</trkpt>
<trkpt lat="48.74902" lon="9.998287">
<ele>590.881</ele>
<time>2020-09-10T09:15:10Z</time>
</trkpt>
<trkpt lat="48.74897" lon="9.998305">
<ele>590.881</ele>
<time>2020-09-10T09:15:11Z</time>
</trkpt>
<trkpt lat="48.748917" lon="9.998326">
<ele>590.881</ele>
<time>2020-09-10T09:15:12Z</time>
</trkpt>
<trkpt lat="48.748867" lon="9.998348">
<ele>590.881</ele>
<time>2020-09-10T09:15:13Z</time>
</trkpt>
<trkpt lat="48.748817" lon="9.998371">
<ele>590.881</ele>
<time>2020-09-10T09:15:14Z</time>
</trkpt>
<trkpt lat="48.748768" lon="9.998393">
<ele>590.881</ele>
<time>2020-09-10T09:15:15Z</time>
</trkpt>
<trkpt lat="48.748718" lon="9.998413">
<ele>590.881</ele>
<time>2020-09-10T09:15:16Z</time>
</trkpt>
<trkpt lat="48.748661" lon="9.998435">
<ele>590.881</ele>
<time>2020-09-10T09:15:17Z</time>
</trkpt>
<trkpt lat="48.748611" lon="9.998455">
<ele>590.881</ele>
<time>2020-09-10T09:15:18Z</time>
</trkpt>
<trkpt lat="48.748558" lon="9.998475">
<ele>590.881</ele>
<time>2020-09-10T09:15:19Z</time>
</trkpt>
<trkpt lat="48.748508" lon="9.998497">
<ele>590.881</ele>
<time>2020-09-10T09:15:20Z</time>
</trkpt>
<trkpt lat="48.748455" lon="9.998518">
<ele>590.881</ele>
<time>2020-09-10T09:15:21Z</time>
</trkpt>
<trkpt lat="48.748402" lon="9.998542">
<ele>590.881</ele>
<time>2020-09-10T09:15:22Z</time>
</trkpt>
<trkpt lat="48.748352" lon="9.998567">
<ele>590.881</ele>
<time>2020-09-10T09:15:23Z</time>
</trkpt>
<trkpt lat="48.748295" lon="9.99859">
<ele>590.881</ele>
<time>2020-09-10T09:15:24Z</time>
</trkpt>
<trkpt lat="48.748241" lon="9.998613">
<ele>590.881</ele>
<time>2020-09-10T09:15:25Z</time>
</trkpt>
<trkpt lat="48.748192" lon="9.998638">
<ele>590.622</ele>
<time>2020-09-10T09:15:26Z</time>
</trkpt>
<trkpt lat="48.748138" lon="9.998664">
<ele>590.406</ele>
<time>2020-09-10T09:15:27Z</time>
</trkpt>
<trkpt lat="48.748085" lon="9.998689">
<ele>590.229</ele>
<time>2020-09-10T09:15:28Z</time>
</trkpt>
<trkpt lat="48.748032" lon="9.998713">
<ele>590.088</ele>
<time>2020-09-10T09:15:29Z</time>
</trkpt>
<trkpt lat="48.747974" lon="9.998737">
<ele>589.979</ele>
<time>2020-09-10T09:15:30Z</time>
</trkpt>
<trkpt lat="48.747925" lon="9.99876">
<ele>589.901</ele>
<time>2020-09-10T09:15:31Z</time>
</trkpt>
<trkpt lat="48.747868" lon="9.998785">
<ele>589.85</ele>
<time>2020-09-10T09:15:32Z</time>
</trkpt>
<trkpt lat="48.747814" lon="9.998811">
<ele>589.826</ele>
<time>2020-09-10T09:15:33Z</time>
</trkpt>
<trkpt lat="48.747761" lon="9.998836">
<ele>589.826</ele>
<time>2020-09-10T09:15:34Z</time>
</trkpt>
<trkpt lat="48.747707" lon="9.99886">
<ele>589.826</ele>
<time>2020-09-10T09:15:35Z</time>
</trkpt>
<trkpt lat="48.747654" lon="9.998883">
<ele>589.826</ele>
<time>2020-09-10T09:15:36Z</time>
</trkpt>
<trkpt lat="48.747601" lon="9.998909">
<ele>589.826</ele>
<time>2020-09-10T09:15:37Z</time>
</trkpt>
<trkpt lat="48.747543" lon="9.998935">
<ele>589.826</ele>
<time>2020-09-10T09:15:38Z</time>
</trkpt>
<trkpt lat="48.74749" lon="9.99896">
<ele>589.826</ele>
<time>2020-09-10T09:15:39Z</time>
</trkpt>
<trkpt lat="48.74744" lon="9.998985">
<ele>589.826</ele>
<time>2020-09-10T09:15:40Z</time>
</trkpt>
<trkpt lat="48.747383" lon="9.999012">
<ele>589.826</ele>
<time>2020-09-10T09:15:41Z</time>
</trkpt>
<trkpt lat="48.747326" lon="9.999037">
<ele>589.826</ele>
<time>2020-09-10T09:15:42Z</time>
</trkpt>
<trkpt lat="48.747272" lon="9.999062">
<ele>589.826</ele>
<time>2020-09-10T09:15:43Z</time>
</trkpt>
<trkpt lat="48.747215" lon="9.999088">
<ele>589.826</ele>
<time>2020-09-10T09:15:44Z</time>
</trkpt>
<trkpt lat="48.747158" lon="9.999115">
<ele>589.826</ele>
<time>2020-09-10T09:15:45Z</time>
</trkpt>
<trkpt lat="48.747105" lon="9.99914">
<ele>589.826</ele>
<time>2020-09-10T09:15:46Z</time>
</trkpt>
<trkpt lat="48.747051" lon="9.999165">
<ele>589.826</ele>
<time>2020-09-10T09:15:47Z</time>
</trkpt>
<trkpt lat="48.74699" lon="9.999188">
<ele>589.826</ele>
<time>2020-09-10T09:15:48Z</time>
</trkpt>
<trkpt lat="48.746941" lon="9.999211">
<ele>589.826</ele>
<time>2020-09-10T09:15:49Z</time>
</trkpt>
<trkpt lat="48.746887" lon="9.999235">
<ele>589.826</ele>
<time>2020-09-10T09:15:50Z</time>
</trkpt>
<trkpt lat="48.746834" lon="9.999257">
<ele>589.552</ele>
<time>2020-09-10T09:15:51Z</time>
</trkpt>
<trkpt lat="48.74678" lon="9.999278">
<ele>589.336</ele>
<time>2020-09-10T09:15:52Z</time>
</trkpt>
<trkpt lat="48.746727" lon="9.9993">
<ele>589.169</ele>
<time>2020-09-10T09:15:53Z</time>
</trkpt>
<trkpt lat="48.746677" lon="9.99932">
<ele>589.04</ele>
<time>2020-09-10T09:15:54Z</time>
</trkpt>
<trkpt lat="48.746628" lon="9.999341">
<ele>588.951</ele>
<time>2020-09-10T09:15:55Z</time>
</trkpt>
<trkpt lat="48.746571" lon="9.999367">
<ele>588.859</ele>
<time>2020-09-10T09:15:56Z</time>
</trkpt>
<trkpt lat="48.746521" lon="9.99939">
<ele>588.799</ele>
<time>2020-09-10T09:15:57Z</time>
</trkpt>
<trkpt lat="48.746468" lon="9.999413">
<ele>588.771</ele>
<time>2020-09-10T09:15:58Z</time>
</trkpt>
<trkpt lat="48.746418" lon="9.999438">
<ele>588.771</ele>
<time>2020-09-10T09:15:59Z</time>
</trkpt>
<trkpt lat="48.746365" lon="9.999462">
<ele>588.771</ele>
<time>2020-09-10T09:16:00Z</time>
</trkpt>
<trkpt lat="48.746307" lon="9.999485">
<ele>588.771</ele>
<time>2020-09-10T09:16:01Z</time>
</trkpt>
<trkpt lat="48.746258" lon="9.999507">
<ele>588.771</ele>
<time>2020-09-10T09:16:02Z</time>
</trkpt>
<trkpt lat="48.746208" lon="9.99953">
<ele>588.771</ele>
<time>2020-09-10T09:16:03Z</time>
</trkpt>
<trkpt lat="48.746151" lon="9.999553">
<ele>588.771</ele>
<time>2020-09-10T09:16:04Z</time>
</trkpt>
<trkpt lat="48.746098" lon="9.999576">
<ele>588.771</ele>
<time>2020-09-10T09:16:05Z</time>
</trkpt>
<trkpt lat="48.746044" lon="9.999599">
<ele>588.771</ele>
<time>2020-09-10T09:16:06Z</time>
</trkpt>
<trkpt lat="48.745995" lon="9.999621">
<ele>588.771</ele>
<time>2020-09-10T09:16:07Z</time>
</trkpt>
<trkpt lat="48.745945" lon="9.999646">
<ele>588.771</ele>
<time>2020-09-10T09:16:08Z</time>
</trkpt>
<trkpt lat="48.745888" lon="9.999674">
<ele>588.771</ele>
<time>2020-09-10T09:16:09Z</time>
</trkpt>
<trkpt lat="48.745838" lon="9.999701">
<ele>588.771</ele>
<time>2020-09-10T09:16:10Z</time>
</trkpt>
<trkpt lat="48.745785" lon="9.999733">
<ele>588.771</ele>
<time>2020-09-10T09:16:11Z</time>
</trkpt>
<trkpt lat="48.745735" lon="9.999768">
<ele>588.771</ele>
<time>2020-09-10T09:16:12Z</time>
</trkpt>
<trkpt lat="48.745686" lon="9.999805">
<ele>588.771</ele>
<time>2020-09-10T09:16:13Z</time>
</trkpt>
<trkpt lat="48.745636" lon="9.999844">
<ele>588.771</ele>
<time>2020-09-10T09:16:14Z</time>
</trkpt>
<trkpt lat="48.745586" lon="9.999884">
<ele>588.771</ele>
<time>2020-09-10T09:16:15Z</time>
</trkpt>
<trkpt lat="48.745537" lon="9.999925">
<ele>588.771</ele>
<time>2020-09-10T09:16:16Z</time>
</trkpt>
<trkpt lat="48.745491" lon="9.999967">
<ele>588.771</ele>
<time>2020-09-10T09:16:17Z</time>
</trkpt>
<trkpt lat="48.745441" lon="10.00001">
<ele>588.771</ele>
<time>2020-09-10T09:16:18Z</time>
</trkpt>
<trkpt lat="48.745392" lon="10.000051">
<ele>588.771</ele>
<time>2020-09-10T09:16:19Z</time>
</trkpt>
<trkpt lat="48.745342" lon="10.000095">
<ele>588.771</ele>
<time>2020-09-10T09:16:20Z</time>
</trkpt>
<trkpt lat="48.745296" lon="10.000138">
<ele>588.771</ele>
<time>2020-09-10T09:16:21Z</time>
</trkpt>
<trkpt lat="48.745247" lon="10.00018">
<ele>588.771</ele>
<time>2020-09-10T09:16:22Z</time>
</trkpt>
<trkpt lat="48.745197" lon="10.000223">
<ele>588.771</ele>
<time>2020-09-10T09:16:23Z</time>
</trkpt>
<trkpt lat="48.745152" lon="10.000265">
<ele>588.536</ele>
<time>2020-09-10T09:16:24Z</time>
</trkpt>
<trkpt lat="48.745102" lon="10.000308">
<ele>588.368</ele>
<time>2020-09-10T09:16:25Z</time>
</trkpt>
<trkpt lat="48.745052" lon="10.00035">
<ele>588.196</ele>
<time>2020-09-10T09:16:26Z</time>
</trkpt>
<trkpt lat="48.745003" lon="10.000393">
<ele>588.058</ele>
<time>2020-09-10T09:16:27Z</time>
</trkpt>
<trkpt lat="48.744957" lon="10.000437">
<ele>587.952</ele>
<time>2020-09-10T09:16:28Z</time>
</trkpt>
<trkpt lat="48.744907" lon="10.000479">
<ele>587.876</ele>
<time>2020-09-10T09:16:29Z</time>
</trkpt>
<trkpt lat="48.744862" lon="10.000518">
<ele>587.828</ele>
<time>2020-09-10T09:16:30Z</time>
</trkpt>
<trkpt lat="48.744812" lon="10.00056">
<ele>587.805</ele>
<time>2020-09-10T09:16:31Z</time>
</trkpt>
<trkpt lat="48.744762" lon="10.000602">
<ele>587.805</ele>
<time>2020-09-10T09:16:32Z</time>
</trkpt>
<trkpt lat="48.744713" lon="10.000646">
<ele>587.805</ele>
<time>2020-09-10T09:16:33Z</time>
</trkpt>
<trkpt lat="48.744667" lon="10.000689">
<ele>587.805</ele>
<time>2020-09-10T09:16:34Z</time>
</trkpt>
<trkpt lat="48.744617" lon="10.00073">
<ele>587.805</ele>
<time>2020-09-10T09:16:35Z</time>
</trkpt>
<trkpt lat="48.744568" lon="10.000773">
<ele>587.805</ele>
<time>2020-09-10T09:16:36Z</time>
</trkpt>
<trkpt lat="48.744518" lon="10.000818">
<ele>587.805</ele>
<time>2020-09-10T09:16:37Z</time>
</trkpt>
<trkpt lat="48.744473" lon="10.000864">
<ele>587.805</ele>
<time>2020-09-10T09:16:38Z</time>
</trkpt>
<trkpt lat="48.744419" lon="10.000906">
<ele>587.805</ele>
<time>2020-09-10T09:16:39Z</time>
</trkpt>
<trkpt lat="48.74437" lon="10.00095">
<ele>587.805</ele>
<time>2020-09-10T09:16:40Z</time>
</trkpt>
<trkpt lat="48.74432" lon="10.000994">
<ele>587.805</ele>
<time>2020-09-10T09:16:41Z</time>
</trkpt>
<trkpt lat="48.74427" lon="10.001039">
<ele>587.578</ele>
<time>2020-09-10T09:16:42Z</time>
</trkpt>
<trkpt lat="48.744217" lon="10.001081">
<ele>587.401</ele>
<time>2020-09-10T09:16:43Z</time>
</trkpt>
<trkpt lat="48.744167" lon="10.001126">
<ele>587.263</ele>
<time>2020-09-10T09:16:44Z</time>
</trkpt>
<trkpt lat="48.744118" lon="10.00117">
<ele>587.169</ele>
<time>2020-09-10T09:16:45Z</time>
</trkpt>
<trkpt lat="48.744064" lon="10.001213">
<ele>587.067</ele>
<time>2020-09-10T09:16:46Z</time>
</trkpt>
<trkpt lat="48.744015" lon="10.001256">
<ele>586.994</ele>
<time>2020-09-10T09:16:47Z</time>
</trkpt>
<trkpt lat="48.743961" lon="10.0013">
<ele>586.948</ele>
<time>2020-09-10T09:16:48Z</time>
</trkpt>
<trkpt lat="48.743916" lon="10.001344">
<ele>586.925</ele>
<time>2020-09-10T09:16:49Z</time>
</trkpt>
<trkpt lat="48.743862" lon="10.001387">
<ele>586.926</ele>
<time>2020-09-10T09:16:50Z</time>
</trkpt>
<trkpt lat="48.743813" lon="10.00143">
<ele>586.926</ele>
<time>2020-09-10T09:16:51Z</time>
</trkpt>
<trkpt lat="48.743763" lon="10.001473">
<ele>586.926</ele>
<time>2020-09-10T09:16:52Z</time>
</trkpt>
<trkpt lat="48.74371" lon="10.001518">
<ele>586.925</ele>
<time>2020-09-10T09:16:53Z</time>
</trkpt>
<trkpt lat="48.743656" lon="10.001565">
<ele>586.925</ele>
<time>2020-09-10T09:16:54Z</time>
</trkpt>
<trkpt lat="48.743603" lon="10.00161">
<ele>586.926</ele>
<time>2020-09-10T09:16:55Z</time>
</trkpt>
<trkpt lat="48.743553" lon="10.001657">
<ele>586.925</ele>
<time>2020-09-10T09:16:56Z</time>
</trkpt>
<trkpt lat="48.7435" lon="10.001705">
<ele>586.925</ele>
<time>2020-09-10T09:16:57Z</time>
</trkpt>
<trkpt lat="48.74345" lon="10.001752">
<ele>586.926</ele>
<time>2020-09-10T09:16:58Z</time>
</trkpt>
<trkpt lat="48.743401" lon="10.001797">
<ele>586.925</ele>
<time>2020-09-10T09:16:59Z</time>
</trkpt>
<trkpt lat="48.743351" lon="10.001842">
<ele>586.925</ele>
<time>2020-09-10T09:17:00Z</time>
</trkpt>
<trkpt lat="48.743301" lon="10.001886">
<ele>586.925</ele>
<time>2020-09-10T09:17:01Z</time>
</trkpt>
<trkpt lat="48.743248" lon="10.00193">
<ele>586.925</ele>
<time>2020-09-10T09:17:02Z</time>
</trkpt>
<trkpt lat="48.743202" lon="10.001974">
<ele>586.925</ele>
<time>2020-09-10T09:17:03Z</time>
</trkpt>
<trkpt lat="48.743149" lon="10.002013">
<ele>586.925</ele>
<time>2020-09-10T09:17:04Z</time>
</trkpt>
<trkpt lat="48.743099" lon="10.002055">
<ele>586.713</ele>
<time>2020-09-10T09:17:05Z</time>
</trkpt>
<trkpt lat="48.743046" lon="10.002098">
<ele>586.51</ele>
<time>2020-09-10T09:17:06Z</time>
</trkpt>
<trkpt lat="48.743" lon="10.002144">
<ele>586.342</ele>
<time>2020-09-10T09:17:07Z</time>
</trkpt>
<trkpt lat="48.742947" lon="10.00219">
<ele>586.208</ele>
<time>2020-09-10T09:17:08Z</time>
</trkpt>
<trkpt lat="48.742901" lon="10.002236">
<ele>586.104</ele>
<time>2020-09-10T09:17:09Z</time>
</trkpt>
<trkpt lat="48.742851" lon="10.002285">
<ele>586.03</ele>
<time>2020-09-10T09:17:10Z</time>
</trkpt>
<trkpt lat="48.742802" lon="10.002333">
<ele>585.982</ele>
<time>2020-09-10T09:17:11Z</time>
</trkpt>
<trkpt lat="48.742752" lon="10.002381">
<ele>585.959</ele>
<time>2020-09-10T09:17:12Z</time>
</trkpt>
<trkpt lat="48.742706" lon="10.002431">
<ele>585.959</ele>
<time>2020-09-10T09:17:13Z</time>
</trkpt>
<trkpt lat="48.742657" lon="10.002483">
<ele>585.959</ele>
<time>2020-09-10T09:17:14Z</time>
</trkpt>
<trkpt lat="48.742607" lon="10.002536">
<ele>585.959</ele>
<time>2020-09-10T09:17:15Z</time>
</trkpt>
<trkpt lat="48.742561" lon="10.00259">
<ele>585.959</ele>
<time>2020-09-10T09:17:16Z</time>
</trkpt>
<trkpt lat="48.742516" lon="10.002643">
<ele>585.959</ele>
<time>2020-09-10T09:17:17Z</time>
</trkpt>
<trkpt lat="48.742462" lon="10.002697">
<ele>585.959</ele>
<time>2020-09-10T09:17:18Z</time>
</trkpt>
<trkpt lat="48.742416" lon="10.002751">
<ele>585.959</ele>
<time>2020-09-10T09:17:19Z</time>
</trkpt>
<trkpt lat="48.742367" lon="10.002805">
<ele>585.695</ele>
<time>2020-09-10T09:17:20Z</time>
</trkpt>
<trkpt lat="48.742321" lon="10.002856">
<ele>585.49</ele>
<time>2020-09-10T09:17:21Z</time>
</trkpt>
<trkpt lat="48.742271" lon="10.002909">
<ele>585.334</ele>
<time>2020-09-10T09:17:22Z</time>
</trkpt>
<trkpt lat="48.742226" lon="10.00296">
<ele>585.218</ele>
<time>2020-09-10T09:17:23Z</time>
</trkpt>
<trkpt lat="48.74218" lon="10.003014">
<ele>585.134</ele>
<time>2020-09-10T09:17:24Z</time>
</trkpt>
<trkpt lat="48.74213" lon="10.003066">
<ele>585.074</ele>
<time>2020-09-10T09:17:25Z</time>
</trkpt>
<trkpt lat="48.742085" lon="10.003119">
<ele>585.019</ele>
<time>2020-09-10T09:17:26Z</time>
</trkpt>
<trkpt lat="48.742035" lon="10.003172">
<ele>584.993</ele>
<time>2020-09-10T09:17:27Z</time>
</trkpt>
<trkpt lat="48.741989" lon="10.003227">
<ele>584.993</ele>
<time>2020-09-10T09:17:28Z</time>
</trkpt>
<trkpt lat="48.74194" lon="10.00328">
<ele>584.993</ele>
<time>2020-09-10T09:17:29Z</time>
</trkpt>
<trkpt lat="48.741894" lon="10.003336">
<ele>584.993</ele>
<time>2020-09-10T09:17:30Z</time>
</trkpt>
<trkpt lat="48.74184" lon="10.003392">
<ele>584.993</ele>
<time>2020-09-10T09:17:31Z</time>
</trkpt>
<trkpt lat="48.741795" lon="10.003447">
<ele>584.993</ele>
<time>2020-09-10T09:17:32Z</time>
</trkpt>
<trkpt lat="48.741745" lon="10.003502">
<ele>584.993</ele>
<time>2020-09-10T09:17:33Z</time>
</trkpt>
<trkpt lat="48.741699" lon="10.003556">
<ele>584.993</ele>
<time>2020-09-10T09:17:34Z</time>
</trkpt>
<trkpt lat="48.74165" lon="10.003612">
<ele>584.993</ele>
<time>2020-09-10T09:17:35Z</time>
</trkpt>
<trkpt lat="48.741604" lon="10.003665">
<ele>584.993</ele>
<time>2020-09-10T09:17:36Z</time>
</trkpt>
<trkpt lat="48.741554" lon="10.003719">
<ele>584.993</ele>
<time>2020-09-10T09:17:37Z</time>
</trkpt>
<trkpt lat="48.741512" lon="10.003775">
<ele>584.993</ele>
<time>2020-09-10T09:17:38Z</time>
</trkpt>
<trkpt lat="48.741467" lon="10.003828">
<ele>584.993</ele>
<time>2020-09-10T09:17:39Z</time>
</trkpt>
<trkpt lat="48.741417" lon="10.003881">
<ele>584.993</ele>
<time>2020-09-10T09:17:40Z</time>
</trkpt>
<trkpt lat="48.741375" lon="10.003935">
<ele>584.993</ele>
<time>2020-09-10T09:17:41Z</time>
</trkpt>
<trkpt lat="48.741329" lon="10.003986">
<ele>584.993</ele>
<time>2020-09-10T09:17:42Z</time>
</trkpt>
<trkpt lat="48.741283" lon="10.004038">
<ele>584.993</ele>
<time>2020-09-10T09:17:43Z</time>
</trkpt>
<trkpt lat="48.741234" lon="10.00409">
<ele>584.993</ele>
<time>2020-09-10T09:17:44Z</time>
</trkpt>
<trkpt lat="48.741188" lon="10.004143">
<ele>584.993</ele>
<time>2020-09-10T09:17:45Z</time>
</trkpt>
<trkpt lat="48.741142" lon="10.004195">
<ele>584.736</ele>
<time>2020-09-10T09:17:46Z</time>
</trkpt>
<trkpt lat="48.741093" lon="10.004248">
<ele>584.52</ele>
<time>2020-09-10T09:17:47Z</time>
</trkpt>
<trkpt lat="48.741051" lon="10.0043">
<ele>584.343</ele>
<time>2020-09-10T09:17:48Z</time>
</trkpt>
<trkpt lat="48.741001" lon="10.004354">
<ele>584.202</ele>
<time>2020-09-10T09:17:49Z</time>
</trkpt>
<trkpt lat="48.740959" lon="10.004405">
<ele>584.092</ele>
<time>2020-09-10T09:17:50Z</time>
</trkpt>
<trkpt lat="48.74091" lon="10.004458">
<ele>584.014</ele>
<time>2020-09-10T09:17:51Z</time>
</trkpt>
<trkpt lat="48.74086" lon="10.004512">
<ele>583.963</ele>
<time>2020-09-10T09:17:52Z</time>
</trkpt>
<trkpt lat="48.740814" lon="10.004565">
<ele>583.939</ele>
<time>2020-09-10T09:17:53Z</time>
</trkpt>
<trkpt lat="48.740765" lon="10.004621">
<ele>583.939</ele>
<time>2020-09-10T09:17:54Z</time>
</trkpt>
<trkpt lat="48.740719" lon="10.004673">
<ele>583.939</ele>
<time>2020-09-10T09:17:55Z</time>
</trkpt>
<trkpt lat="48.740669" lon="10.004727">
<ele>583.939</ele>
<time>2020-09-10T09:17:56Z</time>
</trkpt>
<trkpt lat="48.740623" lon="10.004782">
<ele>583.939</ele>
<time>2020-09-10T09:17:57Z</time>
</trkpt>
<trkpt lat="48.740574" lon="10.004836">
<ele>583.938</ele>
<time>2020-09-10T09:17:58Z</time>
</trkpt>
<trkpt lat="48.740528" lon="10.004891">
<ele>583.938</ele>
<time>2020-09-10T09:17:59Z</time>
</trkpt>
<trkpt lat="48.740479" lon="10.004947">
<ele>583.938</ele>
<time>2020-09-10T09:18:00Z</time>
</trkpt>
<trkpt lat="48.740437" lon="10.005">
<ele>583.939</ele>
<time>2020-09-10T09:18:01Z</time>
</trkpt>
<trkpt lat="48.740383" lon="10.005054">
<ele>583.939</ele>
<time>2020-09-10T09:18:02Z</time>
</trkpt>
<trkpt lat="48.740337" lon="10.005107">
<ele>583.939</ele>
<time>2020-09-10T09:18:03Z</time>
</trkpt>
<trkpt lat="48.740292" lon="10.00516">
<ele>583.939</ele>
<time>2020-09-10T09:18:04Z</time>
</trkpt>
<trkpt lat="48.740242" lon="10.005214">
<ele>583.939</ele>
<time>2020-09-10T09:18:05Z</time>
</trkpt>
<trkpt lat="48.740196" lon="10.005266">
<ele>583.939</ele>
<time>2020-09-10T09:18:06Z</time>
</trkpt>
<trkpt lat="48.74015" lon="10.005321">
<ele>583.939</ele>
<time>2020-09-10T09:18:07Z</time>
</trkpt>
<trkpt lat="48.740105" lon="10.005375">
<ele>583.659</ele>
<time>2020-09-10T09:18:08Z</time>
</trkpt>
<trkpt lat="48.740059" lon="10.005428">
<ele>583.442</ele>
<time>2020-09-10T09:18:09Z</time>
</trkpt>
<trkpt lat="48.740013" lon="10.005482">
<ele>583.277</ele>
<time>2020-09-10T09:18:10Z</time>
</trkpt>
<trkpt lat="48.739964" lon="10.005536">
<ele>583.155</ele>
<time>2020-09-10T09:18:11Z</time>
</trkpt>
<trkpt lat="48.739918" lon="10.005592">
<ele>583.072</ele>
<time>2020-09-10T09:18:12Z</time>
</trkpt>
<trkpt lat="48.739872" lon="10.005645">
<ele>583.02</ele>
<time>2020-09-10T09:18:13Z</time>
</trkpt>
<trkpt lat="48.739822" lon="10.005697">
<ele>582.995</ele>
<time>2020-09-10T09:18:14Z</time>
</trkpt>
<trkpt lat="48.73978" lon="10.00575">
<ele>582.972</ele>
<time>2020-09-10T09:18:15Z</time>
</trkpt>
<trkpt lat="48.739735" lon="10.005802">
<ele>582.972</ele>
<time>2020-09-10T09:18:16Z</time>
</trkpt>
<trkpt lat="48.739685" lon="10.005855">
<ele>582.972</ele>
<time>2020-09-10T09:18:17Z</time>
</trkpt>
<trkpt lat="48.739643" lon="10.005909">
<ele>582.972</ele>
<time>2020-09-10T09:18:18Z</time>
</trkpt>
<trkpt lat="48.739594" lon="10.00596">
<ele>582.972</ele>
<time>2020-09-10T09:18:19Z</time>
</trkpt>
<trkpt lat="48.739552" lon="10.006014">
<ele>582.972</ele>
<time>2020-09-10T09:18:20Z</time>
</trkpt>
<trkpt lat="48.739502" lon="10.006063">
<ele>582.972</ele>
<time>2020-09-10T09:18:21Z</time>
</trkpt>
<trkpt lat="48.73946" lon="10.006114">
<ele>582.972</ele>
<time>2020-09-10T09:18:22Z</time>
</trkpt>
<trkpt lat="48.739414" lon="10.006163">
<ele>582.972</ele>
<time>2020-09-10T09:18:23Z</time>
</trkpt>
<trkpt lat="48.739368" lon="10.006215">
<ele>582.972</ele>
<time>2020-09-10T09:18:24Z</time>
</trkpt>
<trkpt lat="48.739326" lon="10.006267">
<ele>582.972</ele>
<time>2020-09-10T09:18:25Z</time>
</trkpt>
<trkpt lat="48.739277" lon="10.006317">
<ele>582.76</ele>
<time>2020-09-10T09:18:26Z</time>
</trkpt>
<trkpt lat="48.739231" lon="10.006368">
<ele>582.581</ele>
<time>2020-09-10T09:18:27Z</time>
</trkpt>
<trkpt lat="48.739189" lon="10.006422">
<ele>582.432</ele>
<time>2020-09-10T09:18:28Z</time>
</trkpt>
<trkpt lat="48.73914" lon="10.006473">
<ele>582.313</ele>
<time>2020-09-10T09:18:29Z</time>
</trkpt>
<trkpt lat="48.739098" lon="10.006525">
<ele>582.221</ele>
<time>2020-09-10T09:18:30Z</time>
</trkpt>
<trkpt lat="48.739048" lon="10.006578">
<ele>582.156</ele>
<time>2020-09-10T09:18:31Z</time>
</trkpt>
<trkpt lat="48.739002" lon="10.00663">
<ele>582.114</ele>
<time>2020-09-10T09:18:32Z</time>
</trkpt>
<trkpt lat="48.73896" lon="10.006681">
<ele>582.094</ele>
<time>2020-09-10T09:18:33Z</time>
</trkpt>
<trkpt lat="48.738914" lon="10.006734">
<ele>582.094</ele>
<time>2020-09-10T09:18:34Z</time>
</trkpt>
<trkpt lat="48.738873" lon="10.006783">
<ele>582.094</ele>
<time>2020-09-10T09:18:35Z</time>
</trkpt>
<trkpt lat="48.738827" lon="10.006835">
<ele>582.094</ele>
<time>2020-09-10T09:18:36Z</time>
</trkpt>
<trkpt lat="48.738781" lon="10.006886">
<ele>582.094</ele>
<time>2020-09-10T09:18:37Z</time>
</trkpt>
<trkpt lat="48.738739" lon="10.006938">
<ele>582.094</ele>
<time>2020-09-10T09:18:38Z</time>
</trkpt>
<trkpt lat="48.738693" lon="10.006991">
<ele>582.094</ele>
<time>2020-09-10T09:18:39Z</time>
</trkpt>
<trkpt lat="48.738644" lon="10.007043">
<ele>582.094</ele>
<time>2020-09-10T09:18:40Z</time>
</trkpt>
<trkpt lat="48.738598" lon="10.007095">
<ele>582.094</ele>
<time>2020-09-10T09:18:41Z</time>
</trkpt>
<trkpt lat="48.738552" lon="10.007145">
<ele>582.094</ele>
<time>2020-09-10T09:18:42Z</time>
</trkpt>
<trkpt lat="48.738506" lon="10.007198">
<ele>582.094</ele>
<time>2020-09-10T09:18:43Z</time>
</trkpt>
<trkpt lat="48.738461" lon="10.007252">
<ele>582.094</ele>
<time>2020-09-10T09:18:44Z</time>
</trkpt>
<trkpt lat="48.738415" lon="10.007304">
<ele>582.094</ele>
<time>2020-09-10T09:18:45Z</time>
</trkpt>
<trkpt lat="48.738369" lon="10.007355">
<ele>582.094</ele>
<time>2020-09-10T09:18:46Z</time>
</trkpt>
<trkpt lat="48.738323" lon="10.007409">
<ele>582.094</ele>
<time>2020-09-10T09:18:47Z</time>
</trkpt>
<trkpt lat="48.738281" lon="10.00746">
<ele>582.094</ele>
<time>2020-09-10T09:18:48Z</time>
</trkpt>
<trkpt lat="48.738232" lon="10.007513">
<ele>582.094</ele>
<time>2020-09-10T09:18:49Z</time>
</trkpt>
<trkpt lat="48.738186" lon="10.007566">
<ele>582.094</ele>
<time>2020-09-10T09:18:50Z</time>
</trkpt>
<trkpt lat="48.738144" lon="10.00762">
<ele>582.094</ele>
<time>2020-09-10T09:18:51Z</time>
</trkpt>
<trkpt lat="48.738094" lon="10.007671">
<ele>582.094</ele>
<time>2020-09-10T09:18:52Z</time>
</trkpt>
<trkpt lat="48.738052" lon="10.007722">
<ele>582.094</ele>
<time>2020-09-10T09:18:53Z</time>
</trkpt>
<trkpt lat="48.738003" lon="10.007775">
<ele>582.094</ele>
<time>2020-09-10T09:18:54Z</time>
</trkpt>
<trkpt lat="48.737957" lon="10.007826">
<ele>582.094</ele>
<time>2020-09-10T09:18:55Z</time>
</trkpt>
<trkpt lat="48.737911" lon="10.00788">
<ele>582.094</ele>
<time>2020-09-10T09:18:56Z</time>
</trkpt>
<trkpt lat="48.737862" lon="10.007933">
<ele>582.094</ele>
<time>2020-09-10T09:18:57Z</time>
</trkpt>
<trkpt lat="48.737816" lon="10.007987">
<ele>582.094</ele>
<time>2020-09-10T09:18:58Z</time>
</trkpt>
<trkpt lat="48.73777" lon="10.008041">
<ele>582.094</ele>
<time>2020-09-10T09:18:59Z</time>
</trkpt>
<trkpt lat="48.737728" lon="10.008097">
<ele>582.094</ele>
<time>2020-09-10T09:19:00Z</time>
</trkpt>
<trkpt lat="48.737679" lon="10.008152">
<ele>582.094</ele>
<time>2020-09-10T09:19:01Z</time>
</trkpt>
<trkpt lat="48.737637" lon="10.008208">
<ele>582.094</ele>
<time>2020-09-10T09:19:02Z</time>
</trkpt>
<trkpt lat="48.737591" lon="10.008268">
<ele>582.094</ele>
<time>2020-09-10T09:19:03Z</time>
</trkpt>
<trkpt lat="48.737549" lon="10.00833">
<ele>582.094</ele>
<time>2020-09-10T09:19:04Z</time>
</trkpt>
<trkpt lat="48.737503" lon="10.008395">
<ele>582.094</ele>
<time>2020-09-10T09:19:05Z</time>
</trkpt>
<trkpt lat="48.737465" lon="10.008463">
<ele>581.857</ele>
<time>2020-09-10T09:19:06Z</time>
</trkpt>
<trkpt lat="48.737419" lon="10.008536">
<ele>581.657</ele>
<time>2020-09-10T09:19:07Z</time>
</trkpt>
<trkpt lat="48.737377" lon="10.008614">
<ele>581.525</ele>
<time>2020-09-10T09:19:08Z</time>
</trkpt>
<trkpt lat="48.737331" lon="10.008694">
<ele>581.138</ele>
<time>2020-09-10T09:19:09Z</time>
</trkpt>
<trkpt lat="48.737286" lon="10.008773">
<ele>580.828</ele>
<time>2020-09-10T09:19:10Z</time>
</trkpt>
<trkpt lat="48.73724" lon="10.008857">
<ele>580.591</ele>
<time>2020-09-10T09:19:11Z</time>
</trkpt>
<trkpt lat="48.73719" lon="10.008943">
<ele>580.444</ele>
<time>2020-09-10T09:19:12Z</time>
</trkpt>
<trkpt lat="48.737141" lon="10.009032">
<ele>580.063</ele>
<time>2020-09-10T09:19:13Z</time>
</trkpt>
<trkpt lat="48.737091" lon="10.009122">
<ele>579.785</ele>
<time>2020-09-10T09:19:14Z</time>
</trkpt>
<trkpt lat="48.737038" lon="10.009215">
<ele>579.612</ele>
<time>2020-09-10T09:19:15Z</time>
</trkpt>
<trkpt lat="48.736984" lon="10.00931">
<ele>579.225</ele>
<time>2020-09-10T09:19:16Z</time>
</trkpt>
<trkpt lat="48.736935" lon="10.009407">
<ele>578.937</ele>
<time>2020-09-10T09:19:17Z</time>
</trkpt>
<trkpt lat="48.736881" lon="10.009503">
<ele>578.751</ele>
<time>2020-09-10T09:19:18Z</time>
</trkpt>
<trkpt lat="48.736824" lon="10.009601">
<ele>578.264</ele>
<time>2020-09-10T09:19:19Z</time>
</trkpt>
<trkpt lat="48.736771" lon="10.009699">
<ele>577.891</ele>
<time>2020-09-10T09:19:20Z</time>
</trkpt>
<trkpt lat="48.736717" lon="10.009798">
<ele>577.663</ele>
<time>2020-09-10T09:19:21Z</time>
</trkpt>
<trkpt lat="48.73666" lon="10.0099">
<ele>577.197</ele>
<time>2020-09-10T09:19:22Z</time>
</trkpt>
<trkpt lat="48.736607" lon="10.010005">
<ele>576.841</ele>
<time>2020-09-10T09:19:23Z</time>
</trkpt>
<trkpt lat="48.736549" lon="10.010108">
<ele>576.621</ele>
<time>2020-09-10T09:19:24Z</time>
</trkpt>
<trkpt lat="48.736492" lon="10.010214">
<ele>576.164</ele>
<time>2020-09-10T09:19:25Z</time>
</trkpt>
<trkpt lat="48.736427" lon="10.01032">
<ele>575.799</ele>
<time>2020-09-10T09:19:26Z</time>
</trkpt>
<trkpt lat="48.73637" lon="10.010427">
<ele>575.252</ele>
<time>2020-09-10T09:19:27Z</time>
</trkpt>
<trkpt lat="48.736313" lon="10.010535">
<ele>574.823</ele>
<time>2020-09-10T09:19:28Z</time>
</trkpt>
<trkpt lat="48.736252" lon="10.010642">
<ele>574.499</ele>
<time>2020-09-10T09:19:29Z</time>
</trkpt>
<trkpt lat="48.736191" lon="10.010749">
<ele>574.31</ele>
<time>2020-09-10T09:19:30Z</time>
</trkpt>
<trkpt lat="48.73613" lon="10.010855">
<ele>573.889</ele>
<time>2020-09-10T09:19:31Z</time>
</trkpt>
<trkpt lat="48.736069" lon="10.010963">
<ele>573.575</ele>
<time>2020-09-10T09:19:32Z</time>
</trkpt>
<trkpt lat="48.736012" lon="10.011071">
<ele>573.348</ele>
<time>2020-09-10T09:19:33Z</time>
</trkpt>
<trkpt lat="48.73595" lon="10.011176">
<ele>573.01</ele>
<time>2020-09-10T09:19:34Z</time>
</trkpt>
<trkpt lat="48.735893" lon="10.011283">
<ele>572.758</ele>
<time>2020-09-10T09:19:35Z</time>
</trkpt>
<trkpt lat="48.735832" lon="10.01139">
<ele>572.532</ele>
<time>2020-09-10T09:19:36Z</time>
</trkpt>
<trkpt lat="48.735771" lon="10.011498">
<ele>572.114</ele>
<time>2020-09-10T09:19:37Z</time>
</trkpt>
<trkpt lat="48.73571" lon="10.011605">
<ele>571.83</ele>
<time>2020-09-10T09:19:38Z</time>
</trkpt>
<trkpt lat="48.735645" lon="10.011713">
<ele>571.346</ele>
<time>2020-09-10T09:19:39Z</time>
</trkpt>
<trkpt lat="48.735584" lon="10.011822">
<ele>570.963</ele>
<time>2020-09-10T09:19:40Z</time>
</trkpt>
<trkpt lat="48.735523" lon="10.011929">
<ele>570.717</ele>
<time>2020-09-10T09:19:41Z</time>
</trkpt>
<trkpt lat="48.735466" lon="10.012037">
<ele>570.154</ele>
<time>2020-09-10T09:19:42Z</time>
</trkpt>
<trkpt lat="48.735405" lon="10.012146">
<ele>569.842</ele>
<time>2020-09-10T09:19:43Z</time>
</trkpt>
<trkpt lat="48.735348" lon="10.012257">
<ele>569.673</ele>
<time>2020-09-10T09:19:44Z</time>
</trkpt>
<trkpt lat="48.735287" lon="10.012365">
<ele>569.291</ele>
<time>2020-09-10T09:19:45Z</time>
</trkpt>
<trkpt lat="48.735229" lon="10.012473">
<ele>568.968</ele>
<time>2020-09-10T09:19:46Z</time>
</trkpt>
<trkpt lat="48.735172" lon="10.012577">
<ele>568.738</ele>
<time>2020-09-10T09:19:47Z</time>
</trkpt>
<trkpt lat="48.735119" lon="10.012678">
<ele>568.585</ele>
<time>2020-09-10T09:19:48Z</time>
</trkpt>
<trkpt lat="48.735058" lon="10.012778">
<ele>568.225</ele>
<time>2020-09-10T09:19:49Z</time>
</trkpt>
<trkpt lat="48.735004" lon="10.012878">
<ele>567.958</ele>
<time>2020-09-10T09:19:50Z</time>
</trkpt>
<trkpt lat="48.734947" lon="10.012977">
<ele>567.75</ele>
<time>2020-09-10T09:19:51Z</time>
</trkpt>
<trkpt lat="48.734894" lon="10.013079">
<ele>567.621</ele>
<time>2020-09-10T09:19:52Z</time>
</trkpt>
<trkpt lat="48.734833" lon="10.013179">
<ele>567.225</ele>
<time>2020-09-10T09:19:53Z</time>
</trkpt>
<trkpt lat="48.734779" lon="10.013277">
<ele>566.959</ele>
<time>2020-09-10T09:19:54Z</time>
</trkpt>
<trkpt lat="48.734726" lon="10.013375">
<ele>566.763</ele>
<time>2020-09-10T09:19:55Z</time>
</trkpt>
<trkpt lat="48.734665" lon="10.013474">
<ele>566.589</ele>
<time>2020-09-10T09:19:56Z</time>
</trkpt>
<trkpt lat="48.734608" lon="10.013572">
<ele>566.233</ele>
<time>2020-09-10T09:19:57Z</time>
</trkpt>
<trkpt lat="48.734554" lon="10.01367">
<ele>565.949</ele>
<time>2020-09-10T09:19:58Z</time>
</trkpt>
<trkpt lat="48.734497" lon="10.013768">
<ele>565.73</ele>
<time>2020-09-10T09:19:59Z</time>
</trkpt>
<trkpt lat="48.734436" lon="10.013864">
<ele>565.6</ele>
<time>2020-09-10T09:20:00Z</time>
</trkpt>
<trkpt lat="48.734379" lon="10.013958">
<ele>565.162</ele>
<time>2020-09-10T09:20:01Z</time>
</trkpt>
<trkpt lat="48.734318" lon="10.01405">
<ele>564.903</ele>
<time>2020-09-10T09:20:02Z</time>
</trkpt>
<trkpt lat="48.734253" lon="10.014138">
<ele>564.722</ele>
<time>2020-09-10T09:20:03Z</time>
</trkpt>
<trkpt lat="48.734192" lon="10.014225">
<ele>564.609</ele>
<time>2020-09-10T09:20:04Z</time>
</trkpt>
<trkpt lat="48.734127" lon="10.014301">
<ele>564.528</ele>
<time>2020-09-10T09:20:05Z</time>
</trkpt>
<trkpt lat="48.734062" lon="10.014373">
<ele>564.213</ele>
<time>2020-09-10T09:20:06Z</time>
</trkpt>
<trkpt lat="48.734001" lon="10.014446">
<ele>563.966</ele>
<time>2020-09-10T09:20:07Z</time>
</trkpt>
<trkpt lat="48.733936" lon="10.014522">
<ele>563.779</ele>
<time>2020-09-10T09:20:08Z</time>
</trkpt>
<trkpt lat="48.733875" lon="10.014599">
<ele>563.675</ele>
<time>2020-09-10T09:20:09Z</time>
</trkpt>
<trkpt lat="48.733814" lon="10.014675">
<ele>563.333</ele>
<time>2020-09-10T09:20:10Z</time>
</trkpt>
<trkpt lat="48.733753" lon="10.01475">
<ele>563.055</ele>
<time>2020-09-10T09:20:11Z</time>
</trkpt>
<trkpt lat="48.733688" lon="10.014825">
<ele>562.839</ele>
<time>2020-09-10T09:20:12Z</time>
</trkpt>
<trkpt lat="48.733627" lon="10.014898">
<ele>562.68</ele>
<time>2020-09-10T09:20:13Z</time>
</trkpt>
<trkpt lat="48.733566" lon="10.01497">
<ele>562.58</ele>
<time>2020-09-10T09:20:14Z</time>
</trkpt>
<trkpt lat="48.733509" lon="10.015041">
<ele>562.519</ele>
<time>2020-09-10T09:20:15Z</time>
</trkpt>
<trkpt lat="48.733452" lon="10.015115">
<ele>562.465</ele>
<time>2020-09-10T09:20:16Z</time>
</trkpt>
<trkpt lat="48.733391" lon="10.015186">
<ele>562.206</ele>
<time>2020-09-10T09:20:17Z</time>
</trkpt>
<trkpt lat="48.733334" lon="10.01526">
<ele>561.932</ele>
<time>2020-09-10T09:20:18Z</time>
</trkpt>
<trkpt lat="48.733273" lon="10.015332">
<ele>561.763</ele>
<time>2020-09-10T09:20:19Z</time>
</trkpt>
<trkpt lat="48.733219" lon="10.015404">
<ele>561.637</ele>
<time>2020-09-10T09:20:20Z</time>
</trkpt>
<trkpt lat="48.733162" lon="10.015471">
<ele>561.551</ele>
<time>2020-09-10T09:20:21Z</time>
</trkpt>
<trkpt lat="48.733109" lon="10.015538">
<ele>561.499</ele>
<time>2020-09-10T09:20:22Z</time>
</trkpt>
<trkpt lat="48.733059" lon="10.015601">
<ele>561.477</ele>
<time>2020-09-10T09:20:23Z</time>
</trkpt>
<trkpt lat="48.733009" lon="10.015666">
<ele>561.474</ele>
<time>2020-09-10T09:20:24Z</time>
</trkpt>
<trkpt lat="48.732967" lon="10.015728">
<ele>561.474</ele>
<time>2020-09-10T09:20:25Z</time>
</trkpt>
<trkpt lat="48.732925" lon="10.015788">
<ele>561.474</ele>
<time>2020-09-10T09:20:26Z</time>
</trkpt>
<trkpt lat="48.732883" lon="10.015846">
<ele>561.474</ele>
<time>2020-09-10T09:20:27Z</time>
</trkpt>
<trkpt lat="48.732849" lon="10.015903">
<ele>561.474</ele>
<time>2020-09-10T09:20:28Z</time>
</trkpt>
<trkpt lat="48.732815" lon="10.01596">
<ele>561.75</ele>
<time>2020-09-10T09:20:29Z</time>
</trkpt>
<trkpt lat="48.732788" lon="10.016008">
<ele>561.972</ele>
<time>2020-09-10T09:20:30Z</time>
</trkpt>
<trkpt lat="48.732769" lon="10.016053">
<ele>562.146</ele>
<time>2020-09-10T09:20:31Z</time>
</trkpt>
<trkpt lat="48.732742" lon="10.016104">
<ele>562.256</ele>
<time>2020-09-10T09:20:32Z</time>
</trkpt>
<trkpt lat="48.732719" lon="10.016148">
<ele>562.577</ele>
<time>2020-09-10T09:20:33Z</time>
</trkpt>
<trkpt lat="48.732704" lon="10.016191">
<ele>562.828</ele>
<time>2020-09-10T09:20:34Z</time>
</trkpt>
<trkpt lat="48.732685" lon="10.016235">
<ele>563.027</ele>
<time>2020-09-10T09:20:35Z</time>
</trkpt>
<trkpt lat="48.732666" lon="10.016285">
<ele>563.424</ele>
<time>2020-09-10T09:20:36Z</time>
</trkpt>
<trkpt lat="48.732643" lon="10.016332">
<ele>563.734</ele>
<time>2020-09-10T09:20:37Z</time>
</trkpt>
<trkpt lat="48.732628" lon="10.016374">
<ele>563.958</ele>
<time>2020-09-10T09:20:38Z</time>
</trkpt>
<trkpt lat="48.732613" lon="10.016416">
<ele>564.369</ele>
<time>2020-09-10T09:20:39Z</time>
</trkpt>
<trkpt lat="48.732594" lon="10.016459">
<ele>564.676</ele>
<time>2020-09-10T09:20:40Z</time>
</trkpt>
<trkpt lat="48.732578" lon="10.016503">
<ele>564.881</ele>
<time>2020-09-10T09:20:41Z</time>
</trkpt>
<trkpt lat="48.732567" lon="10.01654">
<ele>565.293</ele>
<time>2020-09-10T09:20:42Z</time>
</trkpt>
<trkpt lat="48.732548" lon="10.01659">
<ele>565.609</ele>
<time>2020-09-10T09:20:43Z</time>
</trkpt>
<trkpt lat="48.732536" lon="10.016638">
<ele>565.838</ele>
<time>2020-09-10T09:20:44Z</time>
</trkpt>
<trkpt lat="48.732521" lon="10.016682">
<ele>565.995</ele>
<time>2020-09-10T09:20:45Z</time>
</trkpt>
<trkpt lat="48.732506" lon="10.016732">
<ele>566.135</ele>
<time>2020-09-10T09:20:46Z</time>
</trkpt>
<trkpt lat="48.732483" lon="10.016778">
<ele>566.483</ele>
<time>2020-09-10T09:20:47Z</time>
</trkpt>
<trkpt lat="48.73246" lon="10.016824">
<ele>566.754</ele>
<time>2020-09-10T09:20:48Z</time>
</trkpt>
<trkpt lat="48.732445" lon="10.01687">
<ele>566.923</ele>
<time>2020-09-10T09:20:49Z</time>
</trkpt>
<trkpt lat="48.732426" lon="10.016913">
<ele>567.403</ele>
<time>2020-09-10T09:20:50Z</time>
</trkpt>
<trkpt lat="48.73241" lon="10.016953">
<ele>567.669</ele>
<time>2020-09-10T09:20:51Z</time>
</trkpt>
<trkpt lat="48.732388" lon="10.016998">
<ele>567.847</ele>
<time>2020-09-10T09:20:52Z</time>
</trkpt>
<trkpt lat="48.732368" lon="10.017053">
<ele>568.247</ele>
<time>2020-09-10T09:20:53Z</time>
</trkpt>
<trkpt lat="48.732349" lon="10.017101">
<ele>568.51</ele>
<time>2020-09-10T09:20:54Z</time>
</trkpt>
<trkpt lat="48.732327" lon="10.017149">
<ele>568.71</ele>
<time>2020-09-10T09:20:55Z</time>
</trkpt>
<trkpt lat="48.732307" lon="10.017197">
<ele>569.151</ele>
<time>2020-09-10T09:20:56Z</time>
</trkpt>
<trkpt lat="48.732296" lon="10.017237">
<ele>569.484</ele>
<time>2020-09-10T09:20:57Z</time>
</trkpt>
<trkpt lat="48.732277" lon="10.017275">
<ele>569.723</ele>
<time>2020-09-10T09:20:58Z</time>
</trkpt>
<trkpt lat="48.732254" lon="10.017322">
<ele>569.869</ele>
<time>2020-09-10T09:20:59Z</time>
</trkpt>
<trkpt lat="48.732235" lon="10.017373">
<ele>570.226</ele>
<time>2020-09-10T09:21:00Z</time>
</trkpt>
<trkpt lat="48.73222" lon="10.017422">
<ele>570.497</ele>
<time>2020-09-10T09:21:01Z</time>
</trkpt>
<trkpt lat="48.732204" lon="10.017471">
<ele>570.721</ele>
<time>2020-09-10T09:21:02Z</time>
</trkpt>
<trkpt lat="48.732185" lon="10.017518">
<ele>570.852</ele>
<time>2020-09-10T09:21:03Z</time>
</trkpt>
<trkpt lat="48.732166" lon="10.017564">
<ele>571.206</ele>
<time>2020-09-10T09:21:04Z</time>
</trkpt>
<trkpt lat="48.732143" lon="10.017612">
<ele>571.46</ele>
<time>2020-09-10T09:21:05Z</time>
</trkpt>
<trkpt lat="48.732124" lon="10.017662">
<ele>571.663</ele>
<time>2020-09-10T09:21:06Z</time>
</trkpt>
<trkpt lat="48.732105" lon="10.017707">
<ele>572.057</ele>
<time>2020-09-10T09:21:07Z</time>
</trkpt>
<trkpt lat="48.73209" lon="10.017753">
<ele>572.361</ele>
<time>2020-09-10T09:21:08Z</time>
</trkpt>
<trkpt lat="48.732067" lon="10.017797">
<ele>572.606</ele>
<time>2020-09-10T09:21:09Z</time>
</trkpt>
<trkpt lat="48.732056" lon="10.017832">
<ele>572.756</ele>
<time>2020-09-10T09:21:10Z</time>
</trkpt>
<trkpt lat="48.732037" lon="10.017874">
<ele>573.141</ele>
<time>2020-09-10T09:21:11Z</time>
</trkpt>
<trkpt lat="48.732021" lon="10.017914">
<ele>573.497</ele>
<time>2020-09-10T09:21:12Z</time>
</trkpt>
<trkpt lat="48.732002" lon="10.017963">
<ele>573.664</ele>
<time>2020-09-10T09:21:13Z</time>
</trkpt>
<trkpt lat="48.731991" lon="10.018012">
<ele>574.035</ele>
<time>2020-09-10T09:21:14Z</time>
</trkpt>
<trkpt lat="48.731979" lon="10.018057">
<ele>574.323</ele>
<time>2020-09-10T09:21:15Z</time>
</trkpt>
<trkpt lat="48.731956" lon="10.018106">
<ele>574.59</ele>
<time>2020-09-10T09:21:16Z</time>
</trkpt>
<trkpt lat="48.731934" lon="10.018155">
<ele>574.799</ele>
<time>2020-09-10T09:21:17Z</time>
</trkpt>
<trkpt lat="48.731911" lon="10.018207">
<ele>574.923</ele>
<time>2020-09-10T09:21:18Z</time>
</trkpt>
<trkpt lat="48.731888" lon="10.018257">
<ele>575.267</ele>
<time>2020-09-10T09:21:19Z</time>
</trkpt>
<trkpt lat="48.731865" lon="10.018313">
<ele>575.5</ele>
<time>2020-09-10T09:21:20Z</time>
</trkpt>
<trkpt lat="48.731838" lon="10.018362">
<ele>575.93</ele>
<time>2020-09-10T09:21:21Z</time>
</trkpt>
<trkpt lat="48.731819" lon="10.018404">
<ele>576.318</ele>
<time>2020-09-10T09:21:22Z</time>
</trkpt>
<trkpt lat="48.731796" lon="10.018443">
<ele>576.544</ele>
<time>2020-09-10T09:21:23Z</time>
</trkpt>
<trkpt lat="48.73177" lon="10.01849">
<ele>576.671</ele>
<time>2020-09-10T09:21:24Z</time>
</trkpt>
<trkpt lat="48.73175" lon="10.018532">
<ele>577.038</ele>
<time>2020-09-10T09:21:25Z</time>
</trkpt>
<trkpt lat="48.731731" lon="10.018574">
<ele>577.336</ele>
<time>2020-09-10T09:21:26Z</time>
</trkpt>
<trkpt lat="48.731709" lon="10.018617">
<ele>577.548</ele>
<time>2020-09-10T09:21:27Z</time>
</trkpt>
<trkpt lat="48.731682" lon="10.01865">
<ele>577.686</ele>
<time>2020-09-10T09:21:28Z</time>
</trkpt>
<trkpt lat="48.731659" lon="10.018697">
<ele>578.08</ele>
<time>2020-09-10T09:21:29Z</time>
</trkpt>
<trkpt lat="48.731628" lon="10.018745">
<ele>578.407</ele>
<time>2020-09-10T09:21:30Z</time>
</trkpt>
<trkpt lat="48.731602" lon="10.018798">
<ele>578.652</ele>
<time>2020-09-10T09:21:31Z</time>
</trkpt>
<trkpt lat="48.731567" lon="10.018842">
<ele>578.832</ele>
<time>2020-09-10T09:21:32Z</time>
</trkpt>
<trkpt lat="48.731537" lon="10.018892">
<ele>578.97</ele>
<time>2020-09-10T09:21:33Z</time>
</trkpt>
<trkpt lat="48.731503" lon="10.01894">
<ele>579.034</ele>
<time>2020-09-10T09:21:34Z</time>
</trkpt>
<trkpt lat="48.731472" lon="10.018985">
<ele>579.08</ele>
<time>2020-09-10T09:21:35Z</time>
</trkpt>
<trkpt lat="48.731441" lon="10.019032">
<ele>579.108</ele>
<time>2020-09-10T09:21:36Z</time>
</trkpt>
<trkpt lat="48.731415" lon="10.019072">
<ele>579.108</ele>
<time>2020-09-10T09:21:37Z</time>
</trkpt>
<trkpt lat="48.731392" lon="10.019114">
<ele>579.108</ele>
<time>2020-09-10T09:21:38Z</time>
</trkpt>
<trkpt lat="48.731365" lon="10.019158">
<ele>579.37</ele>
<time>2020-09-10T09:21:39Z</time>
</trkpt>
<trkpt lat="48.731339" lon="10.019197">
<ele>579.577</ele>
<time>2020-09-10T09:21:40Z</time>
</trkpt>
<trkpt lat="48.731312" lon="10.01925">
<ele>579.739</ele>
<time>2020-09-10T09:21:41Z</time>
</trkpt>
<trkpt lat="48.731289" lon="10.019299">
<ele>579.857</ele>
<time>2020-09-10T09:21:42Z</time>
</trkpt>
<trkpt lat="48.731258" lon="10.019348">
<ele>579.948</ele>
<time>2020-09-10T09:21:43Z</time>
</trkpt>
<trkpt lat="48.731232" lon="10.019399">
<ele>580.004</ele>
<time>2020-09-10T09:21:44Z</time>
</trkpt>
<trkpt lat="48.731201" lon="10.019445">
<ele>580.048</ele>
<time>2020-09-10T09:21:45Z</time>
</trkpt>
<trkpt lat="48.731174" lon="10.019491">
<ele>580.074</ele>
<time>2020-09-10T09:21:46Z</time>
</trkpt>
<trkpt lat="48.73114" lon="10.019538">
<ele>580.074</ele>
<time>2020-09-10T09:21:47Z</time>
</trkpt>
<trkpt lat="48.731106" lon="10.019591">
<ele>580.074</ele>
<time>2020-09-10T09:21:48Z</time>
</trkpt>
<trkpt lat="48.731075" lon="10.019631">
<ele>580.074</ele>
<time>2020-09-10T09:21:49Z</time>
</trkpt>
<trkpt lat="48.731049" lon="10.019671">
<ele>580.074</ele>
<time>2020-09-10T09:21:50Z</time>
</trkpt>
<trkpt lat="48.731022" lon="10.019715">
<ele>580.074</ele>
<time>2020-09-10T09:21:51Z</time>
</trkpt>
<trkpt lat="48.730999" lon="10.019755">
<ele>580.074</ele>
<time>2020-09-10T09:21:52Z</time>
</trkpt>
<trkpt lat="48.730976" lon="10.019794">
<ele>580.074</ele>
<time>2020-09-10T09:21:53Z</time>
</trkpt>
<trkpt lat="48.730946" lon="10.019841">
<ele>580.074</ele>
<time>2020-09-10T09:21:54Z</time>
</trkpt>
<trkpt lat="48.730915" lon="10.019887">
<ele>580.074</ele>
<time>2020-09-10T09:21:55Z</time>
</trkpt>
<trkpt lat="48.730892" lon="10.019939">
<ele>580.074</ele>
<time>2020-09-10T09:21:56Z</time>
</trkpt>
<trkpt lat="48.730862" lon="10.019986">
<ele>580.074</ele>
<time>2020-09-10T09:21:57Z</time>
</trkpt>
<trkpt lat="48.730831" lon="10.020035">
<ele>580.074</ele>
<time>2020-09-10T09:21:58Z</time>
</trkpt>
<trkpt lat="48.730804" lon="10.020076">
<ele>580.074</ele>
<time>2020-09-10T09:21:59Z</time>
</trkpt>
<trkpt lat="48.730782" lon="10.02012">
<ele>580.074</ele>
<time>2020-09-10T09:22:00Z</time>
</trkpt>
<trkpt lat="48.730751" lon="10.020166">
<ele>580.074</ele>
<time>2020-09-10T09:22:01Z</time>
</trkpt>
<trkpt lat="48.730721" lon="10.020215">
<ele>580.074</ele>
<time>2020-09-10T09:22:02Z</time>
</trkpt>
<trkpt lat="48.730686" lon="10.020268">
<ele>580.074</ele>
<time>2020-09-10T09:22:03Z</time>
</trkpt>
<trkpt lat="48.730656" lon="10.020313">
<ele>580.074</ele>
<time>2020-09-10T09:22:04Z</time>
</trkpt>
<trkpt lat="48.730625" lon="10.020357">
<ele>580.074</ele>
<time>2020-09-10T09:22:05Z</time>
</trkpt>
<trkpt lat="48.730591" lon="10.0204">
<ele>580.074</ele>
<time>2020-09-10T09:22:06Z</time>
</trkpt>
<trkpt lat="48.730556" lon="10.020447">
<ele>580.074</ele>
<time>2020-09-10T09:22:07Z</time>
</trkpt>
<trkpt lat="48.730526" lon="10.020491">
<ele>580.074</ele>
<time>2020-09-10T09:22:08Z</time>
</trkpt>
<trkpt lat="48.730492" lon="10.02054">
<ele>580.074</ele>
<time>2020-09-10T09:22:09Z</time>
</trkpt>
<trkpt lat="48.730457" lon="10.020598">
<ele>580.074</ele>
<time>2020-09-10T09:22:10Z</time>
</trkpt>
<trkpt lat="48.730419" lon="10.020658">
<ele>580.074</ele>
<time>2020-09-10T09:22:11Z</time>
</trkpt>
<trkpt lat="48.730377" lon="10.020721">
<ele>580.074</ele>
<time>2020-09-10T09:22:12Z</time>
</trkpt>
<trkpt lat="48.730343" lon="10.020784">
<ele>580.074</ele>
<time>2020-09-10T09:22:13Z</time>
</trkpt>
<trkpt lat="48.730301" lon="10.020844">
<ele>580.074</ele>
<time>2020-09-10T09:22:14Z</time>
</trkpt>
<trkpt lat="48.730263" lon="10.020899">
<ele>580.074</ele>
<time>2020-09-10T09:22:15Z</time>
</trkpt>
<trkpt lat="48.730217" lon="10.020951">
<ele>580.074</ele>
<time>2020-09-10T09:22:16Z</time>
</trkpt>
<trkpt lat="48.730171" lon="10.021007">
<ele>579.751</ele>
<time>2020-09-10T09:22:17Z</time>
</trkpt>
<trkpt lat="48.730125" lon="10.021058">
<ele>579.512</ele>
<time>2020-09-10T09:22:18Z</time>
</trkpt>
<trkpt lat="48.730072" lon="10.021111">
<ele>579.327</ele>
<time>2020-09-10T09:22:19Z</time>
</trkpt>
<trkpt lat="48.730015" lon="10.021158">
<ele>579.218</ele>
<time>2020-09-10T09:22:20Z</time>
</trkpt>
<trkpt lat="48.729961" lon="10.0212">
<ele>578.877</ele>
<time>2020-09-10T09:22:21Z</time>
</trkpt>
<trkpt lat="48.7299" lon="10.021236">
<ele>578.629</ele>
<time>2020-09-10T09:22:22Z</time>
</trkpt>
<trkpt lat="48.729839" lon="10.021272">
<ele>578.46</ele>
<time>2020-09-10T09:22:23Z</time>
</trkpt>
<trkpt lat="48.729774" lon="10.021303">
<ele>578.351</ele>
<time>2020-09-10T09:22:24Z</time>
</trkpt>
<trkpt lat="48.72971" lon="10.021333">
<ele>578.281</ele>
<time>2020-09-10T09:22:25Z</time>
</trkpt>
<trkpt lat="48.729641" lon="10.021358">
<ele>577.967</ele>
<time>2020-09-10T09:22:26Z</time>
</trkpt>
<trkpt lat="48.729572" lon="10.021377">
<ele>577.724</ele>
<time>2020-09-10T09:22:27Z</time>
</trkpt>
<trkpt lat="48.729504" lon="10.021396">
<ele>577.541</ele>
<time>2020-09-10T09:22:28Z</time>
</trkpt>
<trkpt lat="48.729435" lon="10.021413">
<ele>577.411</ele>
<time>2020-09-10T09:22:29Z</time>
</trkpt>
<trkpt lat="48.72937" lon="10.021434">
<ele>577.314</ele>
<time>2020-09-10T09:22:30Z</time>
</trkpt>
<trkpt lat="48.729301" lon="10.021453">
<ele>577.244</ele>
<time>2020-09-10T09:22:31Z</time>
</trkpt>
<trkpt lat="48.729237" lon="10.021475">
<ele>577.198</ele>
<time>2020-09-10T09:22:32Z</time>
</trkpt>
<trkpt lat="48.729172" lon="10.021494">
<ele>577.176</ele>
<time>2020-09-10T09:22:33Z</time>
</trkpt>
<trkpt lat="48.729111" lon="10.021511">
<ele>577.176</ele>
<time>2020-09-10T09:22:34Z</time>
</trkpt>
<trkpt lat="48.729053" lon="10.021528">
<ele>577.176</ele>
<time>2020-09-10T09:22:35Z</time>
</trkpt>
<trkpt lat="48.728992" lon="10.021543">
<ele>577.176</ele>
<time>2020-09-10T09:22:36Z</time>
</trkpt>
<trkpt lat="48.728935" lon="10.021559">
<ele>577.176</ele>
<time>2020-09-10T09:22:37Z</time>
</trkpt>
<trkpt lat="48.728882" lon="10.021575">
<ele>577.176</ele>
<time>2020-09-10T09:22:38Z</time>
</trkpt>
<trkpt lat="48.728825" lon="10.021591">
<ele>577.176</ele>
<time>2020-09-10T09:22:39Z</time>
</trkpt>
<trkpt lat="48.728767" lon="10.021609">
<ele>577.176</ele>
<time>2020-09-10T09:22:40Z</time>
</trkpt>
<trkpt lat="48.728714" lon="10.02163">
<ele>577.176</ele>
<time>2020-09-10T09:22:41Z</time>
</trkpt>
<trkpt lat="48.728657" lon="10.021648">
<ele>577.176</ele>
<time>2020-09-10T09:22:42Z</time>
</trkpt>
<trkpt lat="48.728603" lon="10.021665">
<ele>577.176</ele>
<time>2020-09-10T09:22:43Z</time>
</trkpt>
<trkpt lat="48.728542" lon="10.021681">
<ele>577.176</ele>
<time>2020-09-10T09:22:44Z</time>
</trkpt>
<trkpt lat="48.728489" lon="10.021698">
<ele>577.176</ele>
<time>2020-09-10T09:22:45Z</time>
</trkpt>
<trkpt lat="48.728436" lon="10.021714">
<ele>577.176</ele>
<time>2020-09-10T09:22:46Z</time>
</trkpt>
<trkpt lat="48.728382" lon="10.021731">
<ele>577.176</ele>
<time>2020-09-10T09:22:47Z</time>
</trkpt>
<trkpt lat="48.728329" lon="10.021749">
<ele>577.176</ele>
<time>2020-09-10T09:22:48Z</time>
</trkpt>
<trkpt lat="48.728275" lon="10.021771">
<ele>577.419</ele>
<time>2020-09-10T09:22:49Z</time>
</trkpt>
<trkpt lat="48.728226" lon="10.021793">
<ele>577.609</ele>
<time>2020-09-10T09:22:50Z</time>
</trkpt>
<trkpt lat="48.72818" lon="10.021811">
<ele>577.754</ele>
<time>2020-09-10T09:22:51Z</time>
</trkpt>
<trkpt lat="48.728134" lon="10.021833">
<ele>577.864</ele>
<time>2020-09-10T09:22:52Z</time>
</trkpt>
<trkpt lat="48.728088" lon="10.021856">
<ele>577.94</ele>
<time>2020-09-10T09:22:53Z</time>
</trkpt>
<trkpt lat="48.728046" lon="10.021878">
<ele>577.988</ele>
<time>2020-09-10T09:22:54Z</time>
</trkpt>
<trkpt lat="48.728001" lon="10.021903">
<ele>578.029</ele>
<time>2020-09-10T09:22:55Z</time>
</trkpt>
<trkpt lat="48.727955" lon="10.02193">
<ele>578.054</ele>
<time>2020-09-10T09:22:56Z</time>
</trkpt>
<trkpt lat="48.727913" lon="10.021949">
<ele>578.054</ele>
<time>2020-09-10T09:22:57Z</time>
</trkpt>
<trkpt lat="48.727863" lon="10.021972">
<ele>578.055</ele>
<time>2020-09-10T09:22:58Z</time>
</trkpt>
<trkpt lat="48.727821" lon="10.021995">
<ele>578.055</ele>
<time>2020-09-10T09:22:59Z</time>
</trkpt>
<trkpt lat="48.727776" lon="10.022028">
<ele>577.815</ele>
<time>2020-09-10T09:23:00Z</time>
</trkpt>
<trkpt lat="48.727734" lon="10.022056">
<ele>577.627</ele>
<time>2020-09-10T09:23:01Z</time>
</trkpt>
<trkpt lat="48.727688" lon="10.022083">
<ele>577.484</ele>
<time>2020-09-10T09:23:02Z</time>
</trkpt>
<trkpt lat="48.727646" lon="10.02211">
<ele>577.378</ele>
<time>2020-09-10T09:23:03Z</time>
</trkpt>
<trkpt lat="48.7276" lon="10.02214">
<ele>577.304</ele>
<time>2020-09-10T09:23:04Z</time>
</trkpt>
<trkpt lat="48.727558" lon="10.022163">
<ele>577.249</ele>
<time>2020-09-10T09:23:05Z</time>
</trkpt>
<trkpt lat="48.727505" lon="10.022195">
<ele>577.2</ele>
<time>2020-09-10T09:23:06Z</time>
</trkpt>
<trkpt lat="48.727463" lon="10.022228">
<ele>577.176</ele>
<time>2020-09-10T09:23:07Z</time>
</trkpt>
<trkpt lat="48.727413" lon="10.022262">
<ele>577.176</ele>
<time>2020-09-10T09:23:08Z</time>
</trkpt>
<trkpt lat="48.727364" lon="10.022302">
<ele>577.176</ele>
<time>2020-09-10T09:23:09Z</time>
</trkpt>
<trkpt lat="48.72731" lon="10.022342">
<ele>577.176</ele>
<time>2020-09-10T09:23:10Z</time>
</trkpt>
<trkpt lat="48.727261" lon="10.022385">
<ele>577.176</ele>
<time>2020-09-10T09:23:11Z</time>
</trkpt>
<trkpt lat="48.727211" lon="10.022425">
<ele>577.176</ele>
<time>2020-09-10T09:23:12Z</time>
</trkpt>
<trkpt lat="48.727158" lon="10.022471">
<ele>577.176</ele>
<time>2020-09-10T09:23:13Z</time>
</trkpt>
<trkpt lat="48.727108" lon="10.022516">
<ele>577.176</ele>
<time>2020-09-10T09:23:14Z</time>
</trkpt>
<trkpt lat="48.727062" lon="10.02256">
<ele>577.176</ele>
<time>2020-09-10T09:23:15Z</time>
</trkpt>
<trkpt lat="48.727013" lon="10.0226">
<ele>577.176</ele>
<time>2020-09-10T09:23:16Z</time>
</trkpt>
<trkpt lat="48.726967" lon="10.022645">
<ele>577.176</ele>
<time>2020-09-10T09:23:17Z</time>
</trkpt>
<trkpt lat="48.726921" lon="10.022693">
<ele>577.176</ele>
<time>2020-09-10T09:23:18Z</time>
</trkpt>
<trkpt lat="48.726875" lon="10.022741">
<ele>577.176</ele>
<time>2020-09-10T09:23:19Z</time>
</trkpt>
<trkpt lat="48.726837" lon="10.02279">
<ele>577.176</ele>
<time>2020-09-10T09:23:20Z</time>
</trkpt>
<trkpt lat="48.726799" lon="10.022841">
<ele>577.176</ele>
<time>2020-09-10T09:23:21Z</time>
</trkpt>
<trkpt lat="48.726757" lon="10.022887">
<ele>577.176</ele>
<time>2020-09-10T09:23:22Z</time>
</trkpt>
<trkpt lat="48.726719" lon="10.02293">
<ele>577.176</ele>
<time>2020-09-10T09:23:23Z</time>
</trkpt>
<trkpt lat="48.726677" lon="10.022977">
<ele>577.176</ele>
<time>2020-09-10T09:23:24Z</time>
</trkpt>
<trkpt lat="48.726643" lon="10.023024">
<ele>577.176</ele>
<time>2020-09-10T09:23:25Z</time>
</trkpt>
<trkpt lat="48.726604" lon="10.023067">
<ele>577.176</ele>
<time>2020-09-10T09:23:26Z</time>
</trkpt>
<trkpt lat="48.726566" lon="10.023115">
<ele>577.176</ele>
<time>2020-09-10T09:23:27Z</time>
</trkpt>
<trkpt lat="48.726528" lon="10.023153">
<ele>577.176</ele>
<time>2020-09-10T09:23:28Z</time>
</trkpt>
<trkpt lat="48.726494" lon="10.023195">
<ele>577.176</ele>
<time>2020-09-10T09:23:29Z</time>
</trkpt>
<trkpt lat="48.726456" lon="10.023225">
<ele>577.176</ele>
<time>2020-09-10T09:23:30Z</time>
</trkpt>
<trkpt lat="48.726418" lon="10.023263">
<ele>577.401</ele>
<time>2020-09-10T09:23:31Z</time>
</trkpt>
<trkpt lat="48.726387" lon="10.023315">
<ele>577.581</ele>
<time>2020-09-10T09:23:32Z</time>
</trkpt>
<trkpt lat="48.726353" lon="10.023358">
<ele>577.721</ele>
<time>2020-09-10T09:23:33Z</time>
</trkpt>
<trkpt lat="48.726318" lon="10.0234">
<ele>577.83</ele>
<time>2020-09-10T09:23:34Z</time>
</trkpt>
<trkpt lat="48.726284" lon="10.023452">
<ele>577.903</ele>
<time>2020-09-10T09:23:35Z</time>
</trkpt>
<trkpt lat="48.72625" lon="10.023493">
<ele>577.982</ele>
<time>2020-09-10T09:23:36Z</time>
</trkpt>
<trkpt lat="48.726215" lon="10.023533">
<ele>578.031</ele>
<time>2020-09-10T09:23:37Z</time>
</trkpt>
<trkpt lat="48.726177" lon="10.023572">
<ele>578.054</ele>
<time>2020-09-10T09:23:38Z</time>
</trkpt>
<trkpt lat="48.726139" lon="10.023612">
<ele>578.054</ele>
<time>2020-09-10T09:23:39Z</time>
</trkpt>
<trkpt lat="48.726101" lon="10.023652">
<ele>578.317</ele>
<time>2020-09-10T09:23:40Z</time>
</trkpt>
<trkpt lat="48.726063" lon="10.023686">
<ele>578.523</ele>
<time>2020-09-10T09:23:41Z</time>
</trkpt>
<trkpt lat="48.726028" lon="10.023726">
<ele>578.681</ele>
<time>2020-09-10T09:23:42Z</time>
</trkpt>
<trkpt lat="48.725986" lon="10.023766">
<ele>578.793</ele>
<time>2020-09-10T09:23:43Z</time>
</trkpt>
<trkpt lat="48.725948" lon="10.023803">
<ele>578.882</ele>
<time>2020-09-10T09:23:44Z</time>
</trkpt>
<trkpt lat="48.72591" lon="10.023845">
<ele>578.942</ele>
<time>2020-09-10T09:23:45Z</time>
</trkpt>
<trkpt lat="48.725876" lon="10.023897">
<ele>578.995</ele>
<time>2020-09-10T09:23:46Z</time>
</trkpt>
<trkpt lat="48.725842" lon="10.023947">
<ele>579.02</ele>
<time>2020-09-10T09:23:47Z</time>
</trkpt>
<trkpt lat="48.725811" lon="10.023995">
<ele>579.02</ele>
<time>2020-09-10T09:23:48Z</time>
</trkpt>
<trkpt lat="48.725777" lon="10.024044">
<ele>579.315</ele>
<time>2020-09-10T09:23:49Z</time>
</trkpt>
<trkpt lat="48.725739" lon="10.024083">
<ele>579.545</ele>
<time>2020-09-10T09:23:50Z</time>
</trkpt>
<trkpt lat="48.7257" lon="10.024134">
<ele>579.718</ele>
<time>2020-09-10T09:23:51Z</time>
</trkpt>
<trkpt lat="48.725662" lon="10.024183">
<ele>579.852</ele>
<time>2020-09-10T09:23:52Z</time>
</trkpt>
<trkpt lat="48.725624" lon="10.024221">
<ele>579.942</ele>
<time>2020-09-10T09:23:53Z</time>
</trkpt>
<trkpt lat="48.725586" lon="10.024268">
<ele>579.997</ele>
<time>2020-09-10T09:23:54Z</time>
</trkpt>
<trkpt lat="48.725548" lon="10.024312">
<ele>580.045</ele>
<time>2020-09-10T09:23:55Z</time>
</trkpt>
<trkpt lat="48.725513" lon="10.024362">
<ele>580.074</ele>
<time>2020-09-10T09:23:56Z</time>
</trkpt>
<trkpt lat="48.725479" lon="10.024408">
<ele>580.074</ele>
<time>2020-09-10T09:23:57Z</time>
</trkpt>
<trkpt lat="48.725445" lon="10.024462">
<ele>580.074</ele>
<time>2020-09-10T09:23:58Z</time>
</trkpt>
<trkpt lat="48.725407" lon="10.024518">
<ele>580.345</ele>
<time>2020-09-10T09:23:59Z</time>
</trkpt>
<trkpt lat="48.725376" lon="10.024574">
<ele>580.557</ele>
<time>2020-09-10T09:24:00Z</time>
</trkpt>
<trkpt lat="48.725342" lon="10.024624">
<ele>580.724</ele>
<time>2020-09-10T09:24:01Z</time>
</trkpt>
<trkpt lat="48.725307" lon="10.024673">
<ele>580.84</ele>
<time>2020-09-10T09:24:02Z</time>
</trkpt>
<trkpt lat="48.725273" lon="10.024723">
<ele>580.922</ele>
<time>2020-09-10T09:24:03Z</time>
</trkpt>
<trkpt lat="48.725243" lon="10.024778">
<ele>580.973</ele>
<time>2020-09-10T09:24:04Z</time>
</trkpt>
<trkpt lat="48.725204" lon="10.02483">
<ele>581.015</ele>
<time>2020-09-10T09:24:05Z</time>
</trkpt>
<trkpt lat="48.72517" lon="10.02488">
<ele>581.04</ele>
<time>2020-09-10T09:24:06Z</time>
</trkpt>
<trkpt lat="48.725132" lon="10.024926">
<ele>581.04</ele>
<time>2020-09-10T09:24:07Z</time>
</trkpt>
<trkpt lat="48.725098" lon="10.024974">
<ele>581.319</ele>
<time>2020-09-10T09:24:08Z</time>
</trkpt>
<trkpt lat="48.725056" lon="10.025023">
<ele>581.537</ele>
<time>2020-09-10T09:24:09Z</time>
</trkpt>
<trkpt lat="48.725021" lon="10.025073">
<ele>581.698</ele>
<time>2020-09-10T09:24:10Z</time>
</trkpt>
<trkpt lat="48.724983" lon="10.025124">
<ele>581.821</ele>
<time>2020-09-10T09:24:11Z</time>
</trkpt>
<trkpt lat="48.724945" lon="10.025175">
<ele>581.902</ele>
<time>2020-09-10T09:24:12Z</time>
</trkpt>
<trkpt lat="48.724911" lon="10.025224">
<ele>581.954</ele>
<time>2020-09-10T09:24:13Z</time>
</trkpt>
<trkpt lat="48.724873" lon="10.025268">
<ele>581.983</ele>
<time>2020-09-10T09:24:14Z</time>
</trkpt>
<trkpt lat="48.724838" lon="10.025316">
<ele>582.006</ele>
<time>2020-09-10T09:24:15Z</time>
</trkpt>
<trkpt lat="48.7248" lon="10.025367">
<ele>582.006</ele>
<time>2020-09-10T09:24:16Z</time>
</trkpt>
<trkpt lat="48.724762" lon="10.025418">
<ele>582.006</ele>
<time>2020-09-10T09:24:17Z</time>
</trkpt>
<trkpt lat="48.724724" lon="10.025463">
<ele>582.006</ele>
<time>2020-09-10T09:24:18Z</time>
</trkpt>
<trkpt lat="48.724689" lon="10.025512">
<ele>582.006</ele>
<time>2020-09-10T09:24:19Z</time>
</trkpt>
<trkpt lat="48.724651" lon="10.025555">
<ele>582.006</ele>
<time>2020-09-10T09:24:20Z</time>
</trkpt>
<trkpt lat="48.724617" lon="10.025601">
<ele>582.006</ele>
<time>2020-09-10T09:24:21Z</time>
</trkpt>
<trkpt lat="48.724586" lon="10.025648">
<ele>582.006</ele>
<time>2020-09-10T09:24:22Z</time>
</trkpt>
<trkpt lat="48.724552" lon="10.0257">
<ele>582.006</ele>
<time>2020-09-10T09:24:23Z</time>
</trkpt>
<trkpt lat="48.724514" lon="10.025753">
<ele>582.006</ele>
<time>2020-09-10T09:24:24Z</time>
</trkpt>
<trkpt lat="48.72448" lon="10.025802">
<ele>582.2</ele>
<time>2020-09-10T09:24:25Z</time>
</trkpt>
<trkpt lat="48.724445" lon="10.025846">
<ele>582.386</ele>
<time>2020-09-10T09:24:26Z</time>
</trkpt>
<trkpt lat="48.724407" lon="10.025891">
<ele>582.539</ele>
<time>2020-09-10T09:24:27Z</time>
</trkpt>
<trkpt lat="48.724369" lon="10.025938">
<ele>582.661</ele>
<time>2020-09-10T09:24:28Z</time>
</trkpt>
<trkpt lat="48.724331" lon="10.025984">
<ele>582.755</ele>
<time>2020-09-10T09:24:29Z</time>
</trkpt>
<trkpt lat="48.724297" lon="10.026033">
<ele>582.822</ele>
<time>2020-09-10T09:24:30Z</time>
</trkpt>
<trkpt lat="48.724262" lon="10.026087">
<ele>582.863</ele>
<time>2020-09-10T09:24:31Z</time>
</trkpt>
<trkpt lat="48.724224" lon="10.026134">
<ele>582.884</ele>
<time>2020-09-10T09:24:32Z</time>
</trkpt>
<trkpt lat="48.724182" lon="10.026187">
<ele>582.64</ele>
<time>2020-09-10T09:24:33Z</time>
</trkpt>
<trkpt lat="48.724144" lon="10.026245">
<ele>582.444</ele>
<time>2020-09-10T09:24:34Z</time>
</trkpt>
<trkpt lat="48.724106" lon="10.026297">
<ele>582.315</ele>
<time>2020-09-10T09:24:35Z</time>
</trkpt>
<trkpt lat="48.724072" lon="10.026346">
<ele>582.175</ele>
<time>2020-09-10T09:24:36Z</time>
</trkpt>
<trkpt lat="48.724033" lon="10.026403">
<ele>582.066</ele>
<time>2020-09-10T09:24:37Z</time>
</trkpt>
<trkpt lat="48.723991" lon="10.026458">
<ele>581.991</ele>
<time>2020-09-10T09:24:38Z</time>
</trkpt>
<trkpt lat="48.723949" lon="10.02652">
<ele>581.942</ele>
<time>2020-09-10T09:24:39Z</time>
</trkpt>
<trkpt lat="48.723907" lon="10.026586">
<ele>581.918</ele>
<time>2020-09-10T09:24:40Z</time>
</trkpt>
<trkpt lat="48.723866" lon="10.026652">
<ele>581.918</ele>
<time>2020-09-10T09:24:41Z</time>
</trkpt>
<trkpt lat="48.72382" lon="10.02672">
<ele>581.684</ele>
<time>2020-09-10T09:24:42Z</time>
</trkpt>
<trkpt lat="48.723778" lon="10.02678">
<ele>581.498</ele>
<time>2020-09-10T09:24:43Z</time>
</trkpt>
<trkpt lat="48.723736" lon="10.02684">
<ele>581.363</ele>
<time>2020-09-10T09:24:44Z</time>
</trkpt>
<trkpt lat="48.72369" lon="10.026903">
<ele>581.276</ele>
<time>2020-09-10T09:24:45Z</time>
</trkpt>
<trkpt lat="48.723648" lon="10.026967">
<ele>581.177</ele>
<time>2020-09-10T09:24:46Z</time>
</trkpt>
<trkpt lat="48.723602" lon="10.027034">
<ele>581.107</ele>
<time>2020-09-10T09:24:47Z</time>
</trkpt>
<trkpt lat="48.723553" lon="10.027097">
<ele>581.062</ele>
<time>2020-09-10T09:24:48Z</time>
</trkpt>
<trkpt lat="48.723511" lon="10.027151">
<ele>581.04</ele>
<time>2020-09-10T09:24:49Z</time>
</trkpt>
<trkpt lat="48.723465" lon="10.02721">
<ele>581.04</ele>
<time>2020-09-10T09:24:50Z</time>
</trkpt>
<trkpt lat="48.723423" lon="10.027282">
<ele>581.04</ele>
<time>2020-09-10T09:24:51Z</time>
</trkpt>
<trkpt lat="48.723385" lon="10.027349">
<ele>581.04</ele>
<time>2020-09-10T09:24:52Z</time>
</trkpt>
<trkpt lat="48.723343" lon="10.027407">
<ele>581.04</ele>
<time>2020-09-10T09:24:53Z</time>
</trkpt>
<trkpt lat="48.723301" lon="10.02747">
<ele>581.04</ele>
<time>2020-09-10T09:24:54Z</time>
</trkpt>
<trkpt lat="48.723255" lon="10.02753">
<ele>581.04</ele>
<time>2020-09-10T09:24:55Z</time>
</trkpt>
<trkpt lat="48.723213" lon="10.027594">
<ele>581.04</ele>
<time>2020-09-10T09:24:56Z</time>
</trkpt>
<trkpt lat="48.723167" lon="10.027654">
<ele>581.04</ele>
<time>2020-09-10T09:24:57Z</time>
</trkpt>
<trkpt lat="48.723125" lon="10.027717">
<ele>580.76</ele>
<time>2020-09-10T09:24:58Z</time>
</trkpt>
<trkpt lat="48.723083" lon="10.027783">
<ele>580.544</ele>
<time>2020-09-10T09:24:59Z</time>
</trkpt>
<trkpt lat="48.723038" lon="10.027851">
<ele>580.379</ele>
<time>2020-09-10T09:25:00Z</time>
</trkpt>
<trkpt lat="48.722996" lon="10.02792">
<ele>580.256</ele>
<time>2020-09-10T09:25:01Z</time>
</trkpt>
<trkpt lat="48.722954" lon="10.027987">
<ele>580.172</ele>
<time>2020-09-10T09:25:02Z</time>
</trkpt>
<trkpt lat="48.722912" lon="10.028049">
<ele>580.121</ele>
<time>2020-09-10T09:25:03Z</time>
</trkpt>
<trkpt lat="48.72287" lon="10.028104">
<ele>580.097</ele>
<time>2020-09-10T09:25:04Z</time>
</trkpt>
<trkpt lat="48.722832" lon="10.028147">
<ele>580.074</ele>
<time>2020-09-10T09:25:05Z</time>
</trkpt>
<trkpt lat="48.722794" lon="10.028198">
<ele>580.074</ele>
<time>2020-09-10T09:25:06Z</time>
</trkpt>
<trkpt lat="48.722759" lon="10.028254">
<ele>580.074</ele>
<time>2020-09-10T09:25:07Z</time>
</trkpt>
<trkpt lat="48.722721" lon="10.028308">
<ele>580.074</ele>
<time>2020-09-10T09:25:08Z</time>
</trkpt>
<trkpt lat="48.722687" lon="10.028364">
<ele>580.074</ele>
<time>2020-09-10T09:25:09Z</time>
</trkpt>
<trkpt lat="48.722652" lon="10.028419">
<ele>580.074</ele>
<time>2020-09-10T09:25:10Z</time>
</trkpt>
<trkpt lat="48.722618" lon="10.028468">
<ele>580.074</ele>
<time>2020-09-10T09:25:11Z</time>
</trkpt>
<trkpt lat="48.722584" lon="10.028519">
<ele>580.074</ele>
<time>2020-09-10T09:25:12Z</time>
</trkpt>
<trkpt lat="48.722549" lon="10.028573">
<ele>580.074</ele>
<time>2020-09-10T09:25:13Z</time>
</trkpt>
<trkpt lat="48.722515" lon="10.028625">
<ele>580.074</ele>
<time>2020-09-10T09:25:14Z</time>
</trkpt>
<trkpt lat="48.722477" lon="10.028682">
<ele>580.074</ele>
<time>2020-09-10T09:25:15Z</time>
</trkpt>
<trkpt lat="48.722443" lon="10.02873">
<ele>580.308</ele>
<time>2020-09-10T09:25:16Z</time>
</trkpt>
<trkpt lat="48.722408" lon="10.028773">
<ele>580.506</ele>
<time>2020-09-10T09:25:17Z</time>
</trkpt>
<trkpt lat="48.722374" lon="10.028827">
<ele>580.669</ele>
<time>2020-09-10T09:25:18Z</time>
</trkpt>
<trkpt lat="48.722343" lon="10.02888">
<ele>580.799</ele>
<time>2020-09-10T09:25:19Z</time>
</trkpt>
<trkpt lat="48.722309" lon="10.028923">
<ele>580.898</ele>
<time>2020-09-10T09:25:20Z</time>
</trkpt>
<trkpt lat="48.722275" lon="10.028972">
<ele>580.97</ele>
<time>2020-09-10T09:25:21Z</time>
</trkpt>
<trkpt lat="48.722233" lon="10.029022">
<ele>581.017</ele>
<time>2020-09-10T09:25:22Z</time>
</trkpt>
<trkpt lat="48.722198" lon="10.029072">
<ele>581.04</ele>
<time>2020-09-10T09:25:23Z</time>
</trkpt>
<trkpt lat="48.722157" lon="10.029133">
<ele>581.303</ele>
<time>2020-09-10T09:25:24Z</time>
</trkpt>
<trkpt lat="48.722118" lon="10.029187">
<ele>581.487</ele>
<time>2020-09-10T09:25:25Z</time>
</trkpt>
<trkpt lat="48.72208" lon="10.029242">
<ele>581.678</ele>
<time>2020-09-10T09:25:26Z</time>
</trkpt>
<trkpt lat="48.722046" lon="10.029302">
<ele>581.83</ele>
<time>2020-09-10T09:25:27Z</time>
</trkpt>
<trkpt lat="48.722004" lon="10.029355">
<ele>581.941</ele>
<time>2020-09-10T09:25:28Z</time>
</trkpt>
<trkpt lat="48.721973" lon="10.029408">
<ele>582.016</ele>
<time>2020-09-10T09:25:29Z</time>
</trkpt>
<trkpt lat="48.721935" lon="10.029465">
<ele>582.069</ele>
<time>2020-09-10T09:25:30Z</time>
</trkpt>
<trkpt lat="48.721905" lon="10.029514">
<ele>582.094</ele>
<time>2020-09-10T09:25:31Z</time>
</trkpt>
<trkpt lat="48.721867" lon="10.029563">
<ele>582.094</ele>
<time>2020-09-10T09:25:32Z</time>
</trkpt>
<trkpt lat="48.721832" lon="10.029612">
<ele>582.094</ele>
<time>2020-09-10T09:25:33Z</time>
</trkpt>
<trkpt lat="48.721794" lon="10.029661">
<ele>582.094</ele>
<time>2020-09-10T09:25:34Z</time>
</trkpt>
<trkpt lat="48.72176" lon="10.029716">
<ele>582.094</ele>
<time>2020-09-10T09:25:35Z</time>
</trkpt>
<trkpt lat="48.721725" lon="10.029774">
<ele>582.094</ele>
<time>2020-09-10T09:25:36Z</time>
</trkpt>
<trkpt lat="48.721691" lon="10.02983">
<ele>582.094</ele>
<time>2020-09-10T09:25:37Z</time>
</trkpt>
<trkpt lat="48.721657" lon="10.029888">
<ele>582.094</ele>
<time>2020-09-10T09:25:38Z</time>
</trkpt>
<trkpt lat="48.721622" lon="10.029946">
<ele>582.094</ele>
<time>2020-09-10T09:25:39Z</time>
</trkpt>
<trkpt lat="48.721584" lon="10.030008">
<ele>582.094</ele>
<time>2020-09-10T09:25:40Z</time>
</trkpt>
<trkpt lat="48.721546" lon="10.030066">
<ele>582.094</ele>
<time>2020-09-10T09:25:41Z</time>
</trkpt>
<trkpt lat="48.721504" lon="10.030128">
<ele>582.094</ele>
<time>2020-09-10T09:25:42Z</time>
</trkpt>
<trkpt lat="48.721466" lon="10.030185">
<ele>582.094</ele>
<time>2020-09-10T09:25:43Z</time>
</trkpt>
<trkpt lat="48.721428" lon="10.030243">
<ele>582.094</ele>
<time>2020-09-10T09:25:44Z</time>
</trkpt>
<trkpt lat="48.721394" lon="10.030304">
<ele>582.094</ele>
<time>2020-09-10T09:25:45Z</time>
</trkpt>
<trkpt lat="48.721355" lon="10.030363">
<ele>582.094</ele>
<time>2020-09-10T09:25:46Z</time>
</trkpt>
<trkpt lat="48.721317" lon="10.030421">
<ele>582.094</ele>
<time>2020-09-10T09:25:47Z</time>
</trkpt>
<trkpt lat="48.721279" lon="10.030483">
<ele>582.094</ele>
<time>2020-09-10T09:25:48Z</time>
</trkpt>
<trkpt lat="48.721237" lon="10.030545">
<ele>582.094</ele>
<time>2020-09-10T09:25:49Z</time>
</trkpt>
<trkpt lat="48.721199" lon="10.030606">
<ele>582.094</ele>
<time>2020-09-10T09:25:50Z</time>
</trkpt>
<trkpt lat="48.721157" lon="10.030666">
<ele>582.094</ele>
<time>2020-09-10T09:25:51Z</time>
</trkpt>
<trkpt lat="48.721115" lon="10.030729">
<ele>582.094</ele>
<time>2020-09-10T09:25:52Z</time>
</trkpt>
<trkpt lat="48.721073" lon="10.030795">
<ele>582.094</ele>
<time>2020-09-10T09:25:53Z</time>
</trkpt>
<trkpt lat="48.721035" lon="10.03086">
<ele>582.094</ele>
<time>2020-09-10T09:25:54Z</time>
</trkpt>
<trkpt lat="48.720997" lon="10.030927">
<ele>582.094</ele>
<time>2020-09-10T09:25:55Z</time>
</trkpt>
<trkpt lat="48.720951" lon="10.030995">
<ele>582.094</ele>
<time>2020-09-10T09:25:56Z</time>
</trkpt>
<trkpt lat="48.720909" lon="10.03106">
<ele>582.094</ele>
<time>2020-09-10T09:25:57Z</time>
</trkpt>
<trkpt lat="48.720871" lon="10.031127">
<ele>581.785</ele>
<time>2020-09-10T09:25:58Z</time>
</trkpt>
<trkpt lat="48.720829" lon="10.031195">
<ele>581.547</ele>
<time>2020-09-10T09:25:59Z</time>
</trkpt>
<trkpt lat="48.720787" lon="10.031261">
<ele>581.368</ele>
<time>2020-09-10T09:26:00Z</time>
</trkpt>
<trkpt lat="48.720745" lon="10.03133">
<ele>581.24</ele>
<time>2020-09-10T09:26:01Z</time>
</trkpt>
<trkpt lat="48.720703" lon="10.0314">
<ele>581.15</ele>
<time>2020-09-10T09:26:02Z</time>
</trkpt>
<trkpt lat="48.720661" lon="10.031468">
<ele>581.095</ele>
<time>2020-09-10T09:26:03Z</time>
</trkpt>
<trkpt lat="48.720619" lon="10.031536">
<ele>581.064</ele>
<time>2020-09-10T09:26:04Z</time>
</trkpt>
<trkpt lat="48.720581" lon="10.031605">
<ele>581.04</ele>
<time>2020-09-10T09:26:05Z</time>
</trkpt>
<trkpt lat="48.720539" lon="10.031672">
<ele>581.04</ele>
<time>2020-09-10T09:26:06Z</time>
</trkpt>
<trkpt lat="48.720501" lon="10.031737">
<ele>581.04</ele>
<time>2020-09-10T09:26:07Z</time>
</trkpt>
<trkpt lat="48.720463" lon="10.0318">
<ele>581.04</ele>
<time>2020-09-10T09:26:08Z</time>
</trkpt>
<trkpt lat="48.720421" lon="10.031861">
<ele>581.04</ele>
<time>2020-09-10T09:26:09Z</time>
</trkpt>
<trkpt lat="48.720387" lon="10.031921">
<ele>581.04</ele>
<time>2020-09-10T09:26:10Z</time>
</trkpt>
<trkpt lat="48.720345" lon="10.031981">
<ele>581.04</ele>
<time>2020-09-10T09:26:11Z</time>
</trkpt>
<trkpt lat="48.72031" lon="10.032041">
<ele>581.04</ele>
<time>2020-09-10T09:26:12Z</time>
</trkpt>
<trkpt lat="48.720272" lon="10.032095">
<ele>581.04</ele>
<time>2020-09-10T09:26:13Z</time>
</trkpt>
<trkpt lat="48.720234" lon="10.032146">
<ele>581.04</ele>
<time>2020-09-10T09:26:14Z</time>
</trkpt>
<trkpt lat="48.720203" lon="10.032203">
<ele>581.04</ele>
<time>2020-09-10T09:26:15Z</time>
</trkpt>
<trkpt lat="48.720169" lon="10.032253">
<ele>581.04</ele>
<time>2020-09-10T09:26:16Z</time>
</trkpt>
<trkpt lat="48.720135" lon="10.032305">
<ele>581.04</ele>
<time>2020-09-10T09:26:17Z</time>
</trkpt>
<trkpt lat="48.720104" lon="10.032353">
<ele>581.285</ele>
<time>2020-09-10T09:26:18Z</time>
</trkpt>
<trkpt lat="48.72007" lon="10.032395">
<ele>581.477</ele>
<time>2020-09-10T09:26:19Z</time>
</trkpt>
<trkpt lat="48.720039" lon="10.032438">
<ele>581.627</ele>
<time>2020-09-10T09:26:20Z</time>
</trkpt>
<trkpt lat="48.720009" lon="10.032481">
<ele>581.741</ele>
<time>2020-09-10T09:26:21Z</time>
</trkpt>
<trkpt lat="48.719978" lon="10.032523">
<ele>581.82</ele>
<time>2020-09-10T09:26:22Z</time>
</trkpt>
<trkpt lat="48.719948" lon="10.032563">
<ele>581.869</ele>
<time>2020-09-10T09:26:23Z</time>
</trkpt>
<trkpt lat="48.719913" lon="10.032603">
<ele>581.897</ele>
<time>2020-09-10T09:26:24Z</time>
</trkpt>
<trkpt lat="48.719879" lon="10.032642">
<ele>581.918</ele>
<time>2020-09-10T09:26:25Z</time>
</trkpt>
<trkpt lat="48.719845" lon="10.032681">
<ele>581.918</ele>
<time>2020-09-10T09:26:26Z</time>
</trkpt>
<trkpt lat="48.719814" lon="10.032723">
<ele>581.918</ele>
<time>2020-09-10T09:26:27Z</time>
</trkpt>
<trkpt lat="48.719776" lon="10.03276">
<ele>581.918</ele>
<time>2020-09-10T09:26:28Z</time>
</trkpt>
<trkpt lat="48.719746" lon="10.0328">
<ele>581.919</ele>
<time>2020-09-10T09:26:29Z</time>
</trkpt>
<trkpt lat="48.719711" lon="10.032842">
<ele>581.918</ele>
<time>2020-09-10T09:26:30Z</time>
</trkpt>
<trkpt lat="48.719677" lon="10.032882">
<ele>581.918</ele>
<time>2020-09-10T09:26:31Z</time>
</trkpt>
<trkpt lat="48.719639" lon="10.032922">
<ele>581.918</ele>
<time>2020-09-10T09:26:32Z</time>
</trkpt>
<trkpt lat="48.719604" lon="10.032961">
<ele>581.918</ele>
<time>2020-09-10T09:26:33Z</time>
</trkpt>
<trkpt lat="48.719566" lon="10.033002">
<ele>581.918</ele>
<time>2020-09-10T09:26:34Z</time>
</trkpt>
<trkpt lat="48.719528" lon="10.033043">
<ele>581.918</ele>
<time>2020-09-10T09:26:35Z</time>
</trkpt>
<trkpt lat="48.719486" lon="10.03308">
<ele>581.918</ele>
<time>2020-09-10T09:26:36Z</time>
</trkpt>
<trkpt lat="48.719444" lon="10.033113">
<ele>581.918</ele>
<time>2020-09-10T09:26:37Z</time>
</trkpt>
<trkpt lat="48.719406" lon="10.03316">
<ele>581.918</ele>
<time>2020-09-10T09:26:38Z</time>
</trkpt>
<trkpt lat="48.719364" lon="10.033203">
<ele>581.918</ele>
<time>2020-09-10T09:26:39Z</time>
</trkpt>
<trkpt lat="48.719318" lon="10.033248">
<ele>581.918</ele>
<time>2020-09-10T09:26:40Z</time>
</trkpt>
<trkpt lat="48.719276" lon="10.033292">
<ele>581.918</ele>
<time>2020-09-10T09:26:41Z</time>
</trkpt>
<trkpt lat="48.719238" lon="10.033336">
<ele>581.918</ele>
<time>2020-09-10T09:26:42Z</time>
</trkpt>
<trkpt lat="48.719193" lon="10.033381">
<ele>581.918</ele>
<time>2020-09-10T09:26:43Z</time>
</trkpt>
<trkpt lat="48.719147" lon="10.033426">
<ele>581.918</ele>
<time>2020-09-10T09:26:44Z</time>
</trkpt>
<trkpt lat="48.719105" lon="10.033477">
<ele>581.918</ele>
<time>2020-09-10T09:26:45Z</time>
</trkpt>
<trkpt lat="48.719059" lon="10.03353">
<ele>581.918</ele>
<time>2020-09-10T09:26:46Z</time>
</trkpt>
<trkpt lat="48.719017" lon="10.033572">
<ele>581.918</ele>
<time>2020-09-10T09:26:47Z</time>
</trkpt>
<trkpt lat="48.718971" lon="10.033619">
<ele>581.918</ele>
<time>2020-09-10T09:26:48Z</time>
</trkpt>
<trkpt lat="48.718925" lon="10.033669">
<ele>581.918</ele>
<time>2020-09-10T09:26:49Z</time>
</trkpt>
<trkpt lat="48.71888" lon="10.033711">
<ele>581.918</ele>
<time>2020-09-10T09:26:50Z</time>
</trkpt>
<trkpt lat="48.718834" lon="10.033753">
<ele>581.918</ele>
<time>2020-09-10T09:26:51Z</time>
</trkpt>
<trkpt lat="48.718792" lon="10.033798">
<ele>581.918</ele>
<time>2020-09-10T09:26:52Z</time>
</trkpt>
<trkpt lat="48.718754" lon="10.033841">
<ele>581.918</ele>
<time>2020-09-10T09:26:53Z</time>
</trkpt>
<trkpt lat="48.718712" lon="10.033882">
<ele>581.918</ele>
<time>2020-09-10T09:26:54Z</time>
</trkpt>
<trkpt lat="48.71867" lon="10.03392">
<ele>581.918</ele>
<time>2020-09-10T09:26:55Z</time>
</trkpt>
<trkpt lat="48.718628" lon="10.033952">
<ele>581.918</ele>
<time>2020-09-10T09:26:56Z</time>
</trkpt>
<trkpt lat="48.718594" lon="10.033983">
<ele>581.918</ele>
<time>2020-09-10T09:26:57Z</time>
</trkpt>
<trkpt lat="48.718555" lon="10.03402">
<ele>582.186</ele>
<time>2020-09-10T09:26:58Z</time>
</trkpt>
<trkpt lat="48.718513" lon="10.034057">
<ele>582.4</ele>
<time>2020-09-10T09:26:59Z</time>
</trkpt>
<trkpt lat="48.718479" lon="10.034088">
<ele>582.569</ele>
<time>2020-09-10T09:27:00Z</time>
</trkpt>
<trkpt lat="48.718441" lon="10.034128">
<ele>582.691</ele>
<time>2020-09-10T09:27:01Z</time>
</trkpt>
<trkpt lat="48.718399" lon="10.034168">
<ele>582.777</ele>
<time>2020-09-10T09:27:02Z</time>
</trkpt>
<trkpt lat="48.718365" lon="10.034211">
<ele>582.832</ele>
<time>2020-09-10T09:27:03Z</time>
</trkpt>
<trkpt lat="48.71833" lon="10.034248">
<ele>582.862</ele>
<time>2020-09-10T09:27:04Z</time>
</trkpt>
<trkpt lat="48.718292" lon="10.034282">
<ele>582.885</ele>
<time>2020-09-10T09:27:05Z</time>
</trkpt>
<trkpt lat="48.718254" lon="10.034312">
<ele>583.117</ele>
<time>2020-09-10T09:27:06Z</time>
</trkpt>
<trkpt lat="48.718216" lon="10.034344">
<ele>583.314</ele>
<time>2020-09-10T09:27:07Z</time>
</trkpt>
<trkpt lat="48.718174" lon="10.034371">
<ele>583.476</ele>
<time>2020-09-10T09:27:08Z</time>
</trkpt>
<trkpt lat="48.718136" lon="10.034417">
<ele>583.602</ele>
<time>2020-09-10T09:27:09Z</time>
</trkpt>
<trkpt lat="48.718102" lon="10.034454">
<ele>583.705</ele>
<time>2020-09-10T09:27:10Z</time>
</trkpt>
<trkpt lat="48.718067" lon="10.034487">
<ele>583.767</ele>
<time>2020-09-10T09:27:11Z</time>
</trkpt>
<trkpt lat="48.718037" lon="10.03452">
<ele>584.058</ele>
<time>2020-09-10T09:27:12Z</time>
</trkpt>
<trkpt lat="48.717999" lon="10.034547">
<ele>584.278</ele>
<time>2020-09-10T09:27:13Z</time>
</trkpt>
<trkpt lat="48.717964" lon="10.03458">
<ele>584.439</ele>
<time>2020-09-10T09:27:14Z</time>
</trkpt>
<trkpt lat="48.717926" lon="10.034614">
<ele>584.542</ele>
<time>2020-09-10T09:27:15Z</time>
</trkpt>
<trkpt lat="48.717892" lon="10.034643">
<ele>584.653</ele>
<time>2020-09-10T09:27:16Z</time>
</trkpt>
<trkpt lat="48.717857" lon="10.034672">
<ele>584.732</ele>
<time>2020-09-10T09:27:17Z</time>
</trkpt>
<trkpt lat="48.717827" lon="10.034706">
<ele>584.787</ele>
<time>2020-09-10T09:27:18Z</time>
</trkpt>
<trkpt lat="48.717796" lon="10.034754">
<ele>585.032</ele>
<time>2020-09-10T09:27:19Z</time>
</trkpt>
<trkpt lat="48.717758" lon="10.034781">
<ele>585.258</ele>
<time>2020-09-10T09:27:20Z</time>
</trkpt>
<trkpt lat="48.717724" lon="10.034808">
<ele>585.4</ele>
<time>2020-09-10T09:27:21Z</time>
</trkpt>
<trkpt lat="48.717686" lon="10.034837">
<ele>585.507</ele>
<time>2020-09-10T09:27:22Z</time>
</trkpt>
<trkpt lat="48.717651" lon="10.034865">
<ele>585.582</ele>
<time>2020-09-10T09:27:23Z</time>
</trkpt>
<trkpt lat="48.717617" lon="10.034908">
<ele>585.635</ele>
<time>2020-09-10T09:27:24Z</time>
</trkpt>
<trkpt lat="48.717579" lon="10.034943">
<ele>585.672</ele>
<time>2020-09-10T09:27:25Z</time>
</trkpt>
<trkpt lat="48.717541" lon="10.034976">
<ele>585.696</ele>
<time>2020-09-10T09:27:26Z</time>
</trkpt>
<trkpt lat="48.717503" lon="10.035008">
<ele>585.696</ele>
<time>2020-09-10T09:27:27Z</time>
</trkpt>
<trkpt lat="48.717464" lon="10.035039">
<ele>585.696</ele>
<time>2020-09-10T09:27:28Z</time>
</trkpt>
<trkpt lat="48.717419" lon="10.035073">
<ele>585.696</ele>
<time>2020-09-10T09:27:29Z</time>
</trkpt>
<trkpt lat="48.717381" lon="10.035113">
<ele>585.696</ele>
<time>2020-09-10T09:27:30Z</time>
</trkpt>
<trkpt lat="48.717335" lon="10.035151">
<ele>585.696</ele>
<time>2020-09-10T09:27:31Z</time>
</trkpt>
<trkpt lat="48.717293" lon="10.035193">
<ele>585.696</ele>
<time>2020-09-10T09:27:32Z</time>
</trkpt>
<trkpt lat="48.717247" lon="10.035232">
<ele>585.696</ele>
<time>2020-09-10T09:27:33Z</time>
</trkpt>
<trkpt lat="48.717201" lon="10.035276">
<ele>585.696</ele>
<time>2020-09-10T09:27:34Z</time>
</trkpt>
<trkpt lat="48.717159" lon="10.035316">
<ele>585.696</ele>
<time>2020-09-10T09:27:35Z</time>
</trkpt>
<trkpt lat="48.717117" lon="10.03535">
<ele>585.696</ele>
<time>2020-09-10T09:27:36Z</time>
</trkpt>
<trkpt lat="48.717072" lon="10.035387">
<ele>585.696</ele>
<time>2020-09-10T09:27:37Z</time>
</trkpt>
<trkpt lat="48.717026" lon="10.035423">
<ele>585.696</ele>
<time>2020-09-10T09:27:38Z</time>
</trkpt>
<trkpt lat="48.716976" lon="10.035455">
<ele>585.696</ele>
<time>2020-09-10T09:27:39Z</time>
</trkpt>
<trkpt lat="48.716927" lon="10.035485">
<ele>585.696</ele>
<time>2020-09-10T09:27:40Z</time>
</trkpt>
<trkpt lat="48.716877" lon="10.035515">
<ele>585.696</ele>
<time>2020-09-10T09:27:41Z</time>
</trkpt>
<trkpt lat="48.716831" lon="10.035548">
<ele>585.696</ele>
<time>2020-09-10T09:27:42Z</time>
</trkpt>
<trkpt lat="48.716778" lon="10.035577">
<ele>585.696</ele>
<time>2020-09-10T09:27:43Z</time>
</trkpt>
<trkpt lat="48.716732" lon="10.035608">
<ele>585.696</ele>
<time>2020-09-10T09:27:44Z</time>
</trkpt>
<trkpt lat="48.716682" lon="10.035638">
<ele>585.696</ele>
<time>2020-09-10T09:27:45Z</time>
</trkpt>
<trkpt lat="48.716629" lon="10.035666">
<ele>585.696</ele>
<time>2020-09-10T09:27:46Z</time>
</trkpt>
<trkpt lat="48.716576" lon="10.03569">
<ele>585.696</ele>
<time>2020-09-10T09:27:47Z</time>
</trkpt>
<trkpt lat="48.716526" lon="10.035725">
<ele>585.696</ele>
<time>2020-09-10T09:27:48Z</time>
</trkpt>
<trkpt lat="48.716473" lon="10.035758">
<ele>585.696</ele>
<time>2020-09-10T09:27:49Z</time>
</trkpt>
<trkpt lat="48.716423" lon="10.035791">
<ele>585.696</ele>
<time>2020-09-10T09:27:50Z</time>
</trkpt>
<trkpt lat="48.71637" lon="10.035825">
<ele>585.437</ele>
<time>2020-09-10T09:27:51Z</time>
</trkpt>
<trkpt lat="48.716312" lon="10.035856">
<ele>585.235</ele>
<time>2020-09-10T09:27:52Z</time>
</trkpt>
<trkpt lat="48.716259" lon="10.035892">
<ele>585.082</ele>
<time>2020-09-10T09:27:53Z</time>
</trkpt>
<trkpt lat="48.716209" lon="10.035925">
<ele>584.967</ele>
<time>2020-09-10T09:27:54Z</time>
</trkpt>
<trkpt lat="48.716152" lon="10.035958">
<ele>584.886</ele>
<time>2020-09-10T09:27:55Z</time>
</trkpt>
<trkpt lat="48.716099" lon="10.035988">
<ele>584.568</ele>
<time>2020-09-10T09:27:56Z</time>
</trkpt>
<trkpt lat="48.716045" lon="10.036021">
<ele>584.319</ele>
<time>2020-09-10T09:27:57Z</time>
</trkpt>
<trkpt lat="48.715984" lon="10.036058">
<ele>584.132</ele>
<time>2020-09-10T09:27:58Z</time>
</trkpt>
<trkpt lat="48.715927" lon="10.036091">
<ele>584.002</ele>
<time>2020-09-10T09:27:59Z</time>
</trkpt>
<trkpt lat="48.715866" lon="10.036124">
<ele>583.902</ele>
<time>2020-09-10T09:28:00Z</time>
</trkpt>
<trkpt lat="48.715813" lon="10.036156">
<ele>583.83</ele>
<time>2020-09-10T09:28:01Z</time>
</trkpt>
<trkpt lat="48.715755" lon="10.036187">
<ele>583.784</ele>
<time>2020-09-10T09:28:02Z</time>
</trkpt>
<trkpt lat="48.715694" lon="10.036229">
<ele>583.763</ele>
<time>2020-09-10T09:28:03Z</time>
</trkpt>
<trkpt lat="48.715633" lon="10.036279">
<ele>583.522</ele>
<time>2020-09-10T09:28:04Z</time>
</trkpt>
<trkpt lat="48.715572" lon="10.036327">
<ele>583.356</ele>
<time>2020-09-10T09:28:05Z</time>
</trkpt>
<trkpt lat="48.715504" lon="10.036378">
<ele>583.181</ele>
<time>2020-09-10T09:28:06Z</time>
</trkpt>
<trkpt lat="48.715439" lon="10.036425">
<ele>583.057</ele>
<time>2020-09-10T09:28:07Z</time>
</trkpt>
<trkpt lat="48.715378" lon="10.036469">
<ele>582.699</ele>
<time>2020-09-10T09:28:08Z</time>
</trkpt>
<trkpt lat="48.715309" lon="10.036513">
<ele>582.416</ele>
<time>2020-09-10T09:28:09Z</time>
</trkpt>
<trkpt lat="48.715248" lon="10.036565">
<ele>582.213</ele>
<time>2020-09-10T09:28:10Z</time>
</trkpt>
<trkpt lat="48.715183" lon="10.036616">
<ele>582.096</ele>
<time>2020-09-10T09:28:11Z</time>
</trkpt>
<trkpt lat="48.715122" lon="10.036672">
<ele>581.715</ele>
<time>2020-09-10T09:28:12Z</time>
</trkpt>
<trkpt lat="48.715057" lon="10.036734">
<ele>581.478</ele>
<time>2020-09-10T09:28:13Z</time>
</trkpt>
<trkpt lat="48.714993" lon="10.036795">
<ele>581.315</ele>
<time>2020-09-10T09:28:14Z</time>
</trkpt>
<trkpt lat="48.714935" lon="10.036854">
<ele>581.194</ele>
<time>2020-09-10T09:28:15Z</time>
</trkpt>
<trkpt lat="48.714874" lon="10.036919">
<ele>580.854</ele>
<time>2020-09-10T09:28:16Z</time>
</trkpt>
<trkpt lat="48.714813" lon="10.036982">
<ele>580.585</ele>
<time>2020-09-10T09:28:17Z</time>
</trkpt>
<trkpt lat="48.714752" lon="10.037048">
<ele>580.411</ele>
<time>2020-09-10T09:28:18Z</time>
</trkpt>
<trkpt lat="48.714687" lon="10.037126">
<ele>580.008</ele>
<time>2020-09-10T09:28:19Z</time>
</trkpt>
<trkpt lat="48.714626" lon="10.037205">
<ele>579.702</ele>
<time>2020-09-10T09:28:20Z</time>
</trkpt>
<trkpt lat="48.714565" lon="10.037283">
<ele>579.502</ele>
<time>2020-09-10T09:28:21Z</time>
</trkpt>
<trkpt lat="48.714504" lon="10.037369">
<ele>579.041</ele>
<time>2020-09-10T09:28:22Z</time>
</trkpt>
<trkpt lat="48.714443" lon="10.037458">
<ele>578.683</ele>
<time>2020-09-10T09:28:23Z</time>
</trkpt>
<trkpt lat="48.714382" lon="10.037552">
<ele>578.474</ele>
<time>2020-09-10T09:28:24Z</time>
</trkpt>
<trkpt lat="48.714321" lon="10.037639">
<ele>578.034</ele>
<time>2020-09-10T09:28:25Z</time>
</trkpt>
<trkpt lat="48.714264" lon="10.037733">
<ele>577.689</ele>
<time>2020-09-10T09:28:26Z</time>
</trkpt>
<trkpt lat="48.714211" lon="10.037824">
<ele>577.141</ele>
<time>2020-09-10T09:28:27Z</time>
</trkpt>
<trkpt lat="48.714153" lon="10.037915">
<ele>576.702</ele>
<time>2020-09-10T09:28:28Z</time>
</trkpt>
<trkpt lat="48.714096" lon="10.038005">
<ele>576.371</ele>
<time>2020-09-10T09:28:29Z</time>
</trkpt>
<trkpt lat="48.714043" lon="10.038102">
<ele>576.179</ele>
<time>2020-09-10T09:28:30Z</time>
</trkpt>
<trkpt lat="48.713993" lon="10.038202">
<ele>575.756</ele>
<time>2020-09-10T09:28:31Z</time>
</trkpt>
<trkpt lat="48.713943" lon="10.038301">
<ele>575.435</ele>
<time>2020-09-10T09:28:32Z</time>
</trkpt>
<trkpt lat="48.713894" lon="10.038398">
<ele>575.198</ele>
<time>2020-09-10T09:28:33Z</time>
</trkpt>
<trkpt lat="48.713844" lon="10.038491">
<ele>574.855</ele>
<time>2020-09-10T09:28:34Z</time>
</trkpt>
<trkpt lat="48.713795" lon="10.038593">
<ele>574.6</ele>
<time>2020-09-10T09:28:35Z</time>
</trkpt>
<trkpt lat="48.713741" lon="10.038693">
<ele>574.364</ele>
<time>2020-09-10T09:28:36Z</time>
</trkpt>
<trkpt lat="48.713696" lon="10.038802">
<ele>574.184</ele>
<time>2020-09-10T09:28:37Z</time>
</trkpt>
<trkpt lat="48.713638" lon="10.038907">
<ele>574.076</ele>
<time>2020-09-10T09:28:38Z</time>
</trkpt>
<trkpt lat="48.713593" lon="10.039005">
<ele>573.741</ele>
<time>2020-09-10T09:28:39Z</time>
</trkpt>
<trkpt lat="48.713539" lon="10.039106">
<ele>573.476</ele>
<time>2020-09-10T09:28:40Z</time>
</trkpt>
<trkpt lat="48.713493" lon="10.039202">
<ele>573.277</ele>
<time>2020-09-10T09:28:41Z</time>
</trkpt>
<trkpt lat="48.713444" lon="10.039303">
<ele>573.094</ele>
<time>2020-09-10T09:28:42Z</time>
</trkpt>
<trkpt lat="48.71339" lon="10.0394">
<ele>573.007</ele>
<time>2020-09-10T09:28:43Z</time>
</trkpt>
<trkpt lat="48.713345" lon="10.039498">
<ele>572.951</ele>
<time>2020-09-10T09:28:44Z</time>
</trkpt>
<trkpt lat="48.713306" lon="10.039573">
<ele>572.906</ele>
<time>2020-09-10T09:28:45Z</time>
</trkpt>
<trkpt lat="48.713261" lon="10.039665">
<ele>572.875</ele>
<time>2020-09-10T09:28:46Z</time>
</trkpt>
<trkpt lat="48.713223" lon="10.039751">
<ele>572.875</ele>
<time>2020-09-10T09:28:47Z</time>
</trkpt>
<trkpt lat="48.713181" lon="10.039832">
<ele>572.875</ele>
<time>2020-09-10T09:28:48Z</time>
</trkpt>
<trkpt lat="48.713139" lon="10.03991">
<ele>572.875</ele>
<time>2020-09-10T09:28:49Z</time>
</trkpt>
<trkpt lat="48.7131" lon="10.039993">
<ele>572.876</ele>
<time>2020-09-10T09:28:50Z</time>
</trkpt>
<trkpt lat="48.713058" lon="10.040075">
<ele>572.875</ele>
<time>2020-09-10T09:28:51Z</time>
</trkpt>
<trkpt lat="48.71302" lon="10.040152">
<ele>572.875</ele>
<time>2020-09-10T09:28:52Z</time>
</trkpt>
<trkpt lat="48.712986" lon="10.040231">
<ele>572.875</ele>
<time>2020-09-10T09:28:53Z</time>
</trkpt>
<trkpt lat="48.712952" lon="10.040303">
<ele>572.876</ele>
<time>2020-09-10T09:28:54Z</time>
</trkpt>
<trkpt lat="48.712921" lon="10.040375">
<ele>572.876</ele>
<time>2020-09-10T09:28:55Z</time>
</trkpt>
<trkpt lat="48.712883" lon="10.040443">
<ele>572.875</ele>
<time>2020-09-10T09:28:56Z</time>
</trkpt>
<trkpt lat="48.712845" lon="10.040513">
<ele>572.875</ele>
<time>2020-09-10T09:28:57Z</time>
</trkpt>
<trkpt lat="48.712814" lon="10.040579">
<ele>572.875</ele>
<time>2020-09-10T09:28:58Z</time>
</trkpt>
<trkpt lat="48.71278" lon="10.040646">
<ele>572.875</ele>
<time>2020-09-10T09:28:59Z</time>
</trkpt>
<trkpt lat="48.712746" lon="10.040717">
<ele>572.875</ele>
<time>2020-09-10T09:29:00Z</time>
</trkpt>
<trkpt lat="48.712715" lon="10.04079">
<ele>572.875</ele>
<time>2020-09-10T09:29:01Z</time>
</trkpt>
<trkpt lat="48.712681" lon="10.040859">
<ele>572.875</ele>
<time>2020-09-10T09:29:02Z</time>
</trkpt>
<trkpt lat="48.71265" lon="10.040924">
<ele>572.875</ele>
<time>2020-09-10T09:29:03Z</time>
</trkpt>
<trkpt lat="48.71262" lon="10.040987">
<ele>572.875</ele>
<time>2020-09-10T09:29:04Z</time>
</trkpt>
<trkpt lat="48.712589" lon="10.041048">
<ele>572.875</ele>
<time>2020-09-10T09:29:05Z</time>
</trkpt>
<trkpt lat="48.712555" lon="10.041112">
<ele>572.875</ele>
<time>2020-09-10T09:29:06Z</time>
</trkpt>
<trkpt lat="48.712521" lon="10.041168">
<ele>573.158</ele>
<time>2020-09-10T09:29:07Z</time>
</trkpt>
<trkpt lat="48.71249" lon="10.041232">
<ele>573.376</ele>
<time>2020-09-10T09:29:08Z</time>
</trkpt>
<trkpt lat="48.71246" lon="10.041297">
<ele>573.547</ele>
<time>2020-09-10T09:29:09Z</time>
</trkpt>
<trkpt lat="48.712425" lon="10.041364">
<ele>573.676</ele>
<time>2020-09-10T09:29:10Z</time>
</trkpt>
<trkpt lat="48.712391" lon="10.041429">
<ele>573.763</ele>
<time>2020-09-10T09:29:11Z</time>
</trkpt>
<trkpt lat="48.712364" lon="10.041493">
<ele>573.813</ele>
<time>2020-09-10T09:29:12Z</time>
</trkpt>
<trkpt lat="48.71233" lon="10.041558">
<ele>573.837</ele>
<time>2020-09-10T09:29:13Z</time>
</trkpt>
<trkpt lat="48.712299" lon="10.041622">
<ele>573.841</ele>
<time>2020-09-10T09:29:14Z</time>
</trkpt>
<trkpt lat="48.712265" lon="10.041687">
<ele>573.841</ele>
<time>2020-09-10T09:29:15Z</time>
</trkpt>
<trkpt lat="48.712234" lon="10.041752">
<ele>573.841</ele>
<time>2020-09-10T09:29:16Z</time>
</trkpt>
<trkpt lat="48.7122" lon="10.041815">
<ele>573.841</ele>
<time>2020-09-10T09:29:17Z</time>
</trkpt>
<trkpt lat="48.71217" lon="10.041882">
<ele>573.841</ele>
<time>2020-09-10T09:29:18Z</time>
</trkpt>
<trkpt lat="48.712139" lon="10.041946">
<ele>573.841</ele>
<time>2020-09-10T09:29:19Z</time>
</trkpt>
<trkpt lat="48.712105" lon="10.042011">
<ele>573.841</ele>
<time>2020-09-10T09:29:20Z</time>
</trkpt>
<trkpt lat="48.712074" lon="10.042082">
<ele>573.841</ele>
<time>2020-09-10T09:29:21Z</time>
</trkpt>
<trkpt lat="48.71204" lon="10.042148">
<ele>573.841</ele>
<time>2020-09-10T09:29:22Z</time>
</trkpt>
<trkpt lat="48.712009" lon="10.042218">
<ele>573.841</ele>
<time>2020-09-10T09:29:23Z</time>
</trkpt>
<trkpt lat="48.711971" lon="10.042288">
<ele>573.841</ele>
<time>2020-09-10T09:29:24Z</time>
</trkpt>
<trkpt lat="48.711937" lon="10.042363">
<ele>573.841</ele>
<time>2020-09-10T09:29:25Z</time>
</trkpt>
<trkpt lat="48.711903" lon="10.04243">
<ele>573.841</ele>
<time>2020-09-10T09:29:26Z</time>
</trkpt>
<trkpt lat="48.711868" lon="10.042495">
<ele>573.841</ele>
<time>2020-09-10T09:29:27Z</time>
</trkpt>
<trkpt lat="48.711834" lon="10.042563">
<ele>573.841</ele>
<time>2020-09-10T09:29:28Z</time>
</trkpt>
<trkpt lat="48.711803" lon="10.042628">
<ele>573.841</ele>
<time>2020-09-10T09:29:29Z</time>
</trkpt>
<trkpt lat="48.711769" lon="10.042697">
<ele>573.841</ele>
<time>2020-09-10T09:29:30Z</time>
</trkpt>
<trkpt lat="48.711739" lon="10.042762">
<ele>573.841</ele>
<time>2020-09-10T09:29:31Z</time>
</trkpt>
<trkpt lat="48.711708" lon="10.042825">
<ele>573.841</ele>
<time>2020-09-10T09:29:32Z</time>
</trkpt>
<trkpt lat="48.711678" lon="10.042889">
<ele>573.841</ele>
<time>2020-09-10T09:29:33Z</time>
</trkpt>
<trkpt lat="48.711647" lon="10.04295">
<ele>573.841</ele>
<time>2020-09-10T09:29:34Z</time>
</trkpt>
<trkpt lat="48.711617" lon="10.043016">
<ele>573.841</ele>
<time>2020-09-10T09:29:35Z</time>
</trkpt>
<trkpt lat="48.711582" lon="10.04309">
<ele>573.841</ele>
<time>2020-09-10T09:29:36Z</time>
</trkpt>
<trkpt lat="48.711544" lon="10.043161">
<ele>573.548</ele>
<time>2020-09-10T09:29:37Z</time>
</trkpt>
<trkpt lat="48.71151" lon="10.043231">
<ele>573.325</ele>
<time>2020-09-10T09:29:38Z</time>
</trkpt>
<trkpt lat="48.711475" lon="10.043304">
<ele>573.153</ele>
<time>2020-09-10T09:29:39Z</time>
</trkpt>
<trkpt lat="48.711437" lon="10.043384">
<ele>573.027</ele>
<time>2020-09-10T09:29:40Z</time>
</trkpt>
<trkpt lat="48.711403" lon="10.043448">
<ele>572.946</ele>
<time>2020-09-10T09:29:41Z</time>
</trkpt>
<trkpt lat="48.711361" lon="10.043515">
<ele>572.897</ele>
<time>2020-09-10T09:29:42Z</time>
</trkpt>
<trkpt lat="48.711327" lon="10.043587">
<ele>572.875</ele>
<time>2020-09-10T09:29:43Z</time>
</trkpt>
<trkpt lat="48.711292" lon="10.04366">
<ele>572.875</ele>
<time>2020-09-10T09:29:44Z</time>
</trkpt>
<trkpt lat="48.711258" lon="10.043736">
<ele>572.876</ele>
<time>2020-09-10T09:29:45Z</time>
</trkpt>
<trkpt lat="48.71122" lon="10.043807">
<ele>572.875</ele>
<time>2020-09-10T09:29:46Z</time>
</trkpt>
<trkpt lat="48.711182" lon="10.043887">
<ele>572.876</ele>
<time>2020-09-10T09:29:47Z</time>
</trkpt>
<trkpt lat="48.711151" lon="10.043956">
<ele>572.875</ele>
<time>2020-09-10T09:29:48Z</time>
</trkpt>
<trkpt lat="48.711121" lon="10.044025">
<ele>572.876</ele>
<time>2020-09-10T09:29:49Z</time>
</trkpt>
<trkpt lat="48.711086" lon="10.044095">
<ele>572.875</ele>
<time>2020-09-10T09:29:50Z</time>
</trkpt>
<trkpt lat="48.711052" lon="10.04416">
<ele>572.875</ele>
<time>2020-09-10T09:29:51Z</time>
</trkpt>
<trkpt lat="48.711014" lon="10.044232">
<ele>572.876</ele>
<time>2020-09-10T09:29:52Z</time>
</trkpt>
<trkpt lat="48.710979" lon="10.044297">
<ele>572.876</ele>
<time>2020-09-10T09:29:53Z</time>
</trkpt>
<trkpt lat="48.710945" lon="10.044369">
<ele>572.622</ele>
<time>2020-09-10T09:29:54Z</time>
</trkpt>
<trkpt lat="48.710915" lon="10.044438">
<ele>572.44</ele>
<time>2020-09-10T09:29:55Z</time>
</trkpt>
<trkpt lat="48.71088" lon="10.044509">
<ele>572.246</ele>
<time>2020-09-10T09:29:56Z</time>
</trkpt>
<trkpt lat="48.710846" lon="10.044582">
<ele>572.098</ele>
<time>2020-09-10T09:29:57Z</time>
</trkpt>
<trkpt lat="48.710823" lon="10.044643">
<ele>571.985</ele>
<time>2020-09-10T09:29:58Z</time>
</trkpt>
<trkpt lat="48.710789" lon="10.044715">
<ele>571.902</ele>
<time>2020-09-10T09:29:59Z</time>
</trkpt>
<trkpt lat="48.710754" lon="10.044782">
<ele>571.849</ele>
<time>2020-09-10T09:30:00Z</time>
</trkpt>
<trkpt lat="48.710716" lon="10.044848">
<ele>571.822</ele>
<time>2020-09-10T09:30:01Z</time>
</trkpt>
<trkpt lat="48.710686" lon="10.044917">
<ele>571.823</ele>
<time>2020-09-10T09:30:02Z</time>
</trkpt>
<trkpt lat="48.710651" lon="10.044983">
<ele>571.823</ele>
<time>2020-09-10T09:30:03Z</time>
</trkpt>
<trkpt lat="48.710617" lon="10.045055">
<ele>571.822</ele>
<time>2020-09-10T09:30:04Z</time>
</trkpt>
<trkpt lat="48.710583" lon="10.045127">
<ele>571.822</ele>
<time>2020-09-10T09:30:05Z</time>
</trkpt>
<trkpt lat="48.710548" lon="10.045195">
<ele>571.583</ele>
<time>2020-09-10T09:30:06Z</time>
</trkpt>
<trkpt lat="48.710514" lon="10.045263">
<ele>571.39</ele>
<time>2020-09-10T09:30:07Z</time>
</trkpt>
<trkpt lat="48.710484" lon="10.045333">
<ele>571.228</ele>
<time>2020-09-10T09:30:08Z</time>
</trkpt>
<trkpt lat="48.710449" lon="10.045403">
<ele>571.097</ele>
<time>2020-09-10T09:30:09Z</time>
</trkpt>
<trkpt lat="48.710419" lon="10.045473">
<ele>570.996</ele>
<time>2020-09-10T09:30:10Z</time>
</trkpt>
<trkpt lat="48.710377" lon="10.045542">
<ele>570.926</ele>
<time>2020-09-10T09:30:11Z</time>
</trkpt>
<trkpt lat="48.710335" lon="10.045603">
<ele>570.88</ele>
<time>2020-09-10T09:30:12Z</time>
</trkpt>
<trkpt lat="48.710289" lon="10.04567">
<ele>570.857</ele>
<time>2020-09-10T09:30:13Z</time>
</trkpt>
<trkpt lat="48.710247" lon="10.045752">
<ele>570.857</ele>
<time>2020-09-10T09:30:14Z</time>
</trkpt>
<trkpt lat="48.710205" lon="10.045838">
<ele>570.857</ele>
<time>2020-09-10T09:30:15Z</time>
</trkpt>
<trkpt lat="48.710159" lon="10.045927">
<ele>570.858</ele>
<time>2020-09-10T09:30:16Z</time>
</trkpt>
<trkpt lat="48.710117" lon="10.04601">
<ele>570.857</ele>
<time>2020-09-10T09:30:17Z</time>
</trkpt>
<trkpt lat="48.710075" lon="10.046083">
<ele>570.857</ele>
<time>2020-09-10T09:30:18Z</time>
</trkpt>
<trkpt lat="48.710033" lon="10.046145">
<ele>570.858</ele>
<time>2020-09-10T09:30:19Z</time>
</trkpt>
<trkpt lat="48.709995" lon="10.046213">
<ele>570.858</ele>
<time>2020-09-10T09:30:20Z</time>
</trkpt>
<trkpt lat="48.709953" lon="10.04628">
<ele>570.857</ele>
<time>2020-09-10T09:30:21Z</time>
</trkpt>
<trkpt lat="48.709919" lon="10.046347">
<ele>570.857</ele>
<time>2020-09-10T09:30:22Z</time>
</trkpt>
<trkpt lat="48.709881" lon="10.046413">
<ele>570.858</ele>
<time>2020-09-10T09:30:23Z</time>
</trkpt>
<trkpt lat="48.709843" lon="10.046474">
<ele>570.857</ele>
<time>2020-09-10T09:30:24Z</time>
</trkpt>
<trkpt lat="48.709805" lon="10.046533">
<ele>570.857</ele>
<time>2020-09-10T09:30:25Z</time>
</trkpt>
<trkpt lat="48.709766" lon="10.046587">
<ele>570.858</ele>
<time>2020-09-10T09:30:26Z</time>
</trkpt>
<trkpt lat="48.709732" lon="10.046637">
<ele>570.857</ele>
<time>2020-09-10T09:30:27Z</time>
</trkpt>
<trkpt lat="48.709698" lon="10.046686">
<ele>570.857</ele>
<time>2020-09-10T09:30:28Z</time>
</trkpt>
<trkpt lat="48.709663" lon="10.046735">
<ele>570.857</ele>
<time>2020-09-10T09:30:29Z</time>
</trkpt>
<trkpt lat="48.709633" lon="10.046782">
<ele>571.131</ele>
<time>2020-09-10T09:30:30Z</time>
</trkpt>
<trkpt lat="48.709602" lon="10.046828">
<ele>571.347</ele>
<time>2020-09-10T09:30:31Z</time>
</trkpt>
<trkpt lat="48.709572" lon="10.046874">
<ele>571.524</ele>
<time>2020-09-10T09:30:32Z</time>
</trkpt>
<trkpt lat="48.709541" lon="10.04692">
<ele>571.654</ele>
<time>2020-09-10T09:30:33Z</time>
</trkpt>
<trkpt lat="48.709511" lon="10.046967">
<ele>571.747</ele>
<time>2020-09-10T09:30:34Z</time>
</trkpt>
<trkpt lat="48.70948" lon="10.047012">
<ele>571.818</ele>
<time>2020-09-10T09:30:35Z</time>
</trkpt>
<trkpt lat="48.709454" lon="10.047054">
<ele>571.88</ele>
<time>2020-09-10T09:30:36Z</time>
</trkpt>
<trkpt lat="48.709423" lon="10.047096">
<ele>571.91</ele>
<time>2020-09-10T09:30:37Z</time>
</trkpt>
<trkpt lat="48.709396" lon="10.04714">
<ele>571.91</ele>
<time>2020-09-10T09:30:38Z</time>
</trkpt>
<trkpt lat="48.709366" lon="10.047182">
<ele>571.91</ele>
<time>2020-09-10T09:30:39Z</time>
</trkpt>
<trkpt lat="48.709335" lon="10.047225">
<ele>571.91</ele>
<time>2020-09-10T09:30:40Z</time>
</trkpt>
<trkpt lat="48.709309" lon="10.047268">
<ele>572.186</ele>
<time>2020-09-10T09:30:41Z</time>
</trkpt>
<trkpt lat="48.709278" lon="10.047314">
<ele>572.405</ele>
<time>2020-09-10T09:30:42Z</time>
</trkpt>
<trkpt lat="48.709251" lon="10.047357">
<ele>572.576</ele>
<time>2020-09-10T09:30:43Z</time>
</trkpt>
<trkpt lat="48.709221" lon="10.0474">
<ele>572.701</ele>
<time>2020-09-10T09:30:44Z</time>
</trkpt>
<trkpt lat="48.70919" lon="10.047443">
<ele>572.789</ele>
<time>2020-09-10T09:30:45Z</time>
</trkpt>
<trkpt lat="48.70916" lon="10.047488">
<ele>572.879</ele>
<time>2020-09-10T09:30:46Z</time>
</trkpt>
<trkpt lat="48.709133" lon="10.047532">
<ele>572.937</ele>
<time>2020-09-10T09:30:47Z</time>
</trkpt>
<trkpt lat="48.709106" lon="10.047575">
<ele>572.963</ele>
<time>2020-09-10T09:30:48Z</time>
</trkpt>
<trkpt lat="48.709072" lon="10.047618">
<ele>573.233</ele>
<time>2020-09-10T09:30:49Z</time>
</trkpt>
<trkpt lat="48.709045" lon="10.047662">
<ele>573.441</ele>
<time>2020-09-10T09:30:50Z</time>
</trkpt>
<trkpt lat="48.709015" lon="10.047704">
<ele>573.606</ele>
<time>2020-09-10T09:30:51Z</time>
</trkpt>
<trkpt lat="48.708984" lon="10.047747">
<ele>573.723</ele>
<time>2020-09-10T09:30:52Z</time>
</trkpt>
<trkpt lat="48.708958" lon="10.047788">
<ele>573.806</ele>
<time>2020-09-10T09:30:53Z</time>
</trkpt>
<trkpt lat="48.708927" lon="10.047832">
<ele>573.858</ele>
<time>2020-09-10T09:30:54Z</time>
</trkpt>
<trkpt lat="48.7089" lon="10.047875">
<ele>573.902</ele>
<time>2020-09-10T09:30:55Z</time>
</trkpt>
<trkpt lat="48.70887" lon="10.047918">
<ele>573.928</ele>
<time>2020-09-10T09:30:56Z</time>
</trkpt>
<trkpt lat="48.708843" lon="10.047959">
<ele>573.929</ele>
<time>2020-09-10T09:30:57Z</time>
</trkpt>
<trkpt lat="48.708813" lon="10.048001">
<ele>573.928</ele>
<time>2020-09-10T09:30:58Z</time>
</trkpt>
<trkpt lat="48.708782" lon="10.048048">
<ele>573.929</ele>
<time>2020-09-10T09:30:59Z</time>
</trkpt>
<trkpt lat="48.708755" lon="10.048096">
<ele>574.407</ele>
<time>2020-09-10T09:31:00Z</time>
</trkpt>
<trkpt lat="48.708721" lon="10.048138">
<ele>574.783</ele>
<time>2020-09-10T09:31:01Z</time>
</trkpt>
<trkpt lat="48.708691" lon="10.048183">
<ele>575.067</ele>
<time>2020-09-10T09:31:02Z</time>
</trkpt>
<trkpt lat="48.70866" lon="10.04823">
<ele>575.28</ele>
<time>2020-09-10T09:31:03Z</time>
</trkpt>
<trkpt lat="48.70863" lon="10.048275">
<ele>575.435</ele>
<time>2020-09-10T09:31:04Z</time>
</trkpt>
<trkpt lat="48.708603" lon="10.04832">
<ele>575.547</ele>
<time>2020-09-10T09:31:05Z</time>
</trkpt>
<trkpt lat="48.708572" lon="10.048366">
<ele>575.64</ele>
<time>2020-09-10T09:31:06Z</time>
</trkpt>
<trkpt lat="48.708542" lon="10.048412">
<ele>575.684</ele>
<time>2020-09-10T09:31:07Z</time>
</trkpt>
<trkpt lat="48.708511" lon="10.048455">
<ele>575.684</ele>
<time>2020-09-10T09:31:08Z</time>
</trkpt>
<trkpt lat="48.708485" lon="10.048498">
<ele>575.684</ele>
<time>2020-09-10T09:31:09Z</time>
</trkpt>
<trkpt lat="48.708454" lon="10.048542">
<ele>575.684</ele>
<time>2020-09-10T09:31:10Z</time>
</trkpt>
<trkpt lat="48.708424" lon="10.048585">
<ele>575.684</ele>
<time>2020-09-10T09:31:11Z</time>
</trkpt>
<trkpt lat="48.708393" lon="10.048626">
<ele>575.931</ele>
<time>2020-09-10T09:31:12Z</time>
</trkpt>
<trkpt lat="48.708363" lon="10.04867">
<ele>576.123</ele>
<time>2020-09-10T09:31:13Z</time>
</trkpt>
<trkpt lat="48.708336" lon="10.048716">
<ele>576.275</ele>
<time>2020-09-10T09:31:14Z</time>
</trkpt>
<trkpt lat="48.708305" lon="10.048761">
<ele>576.379</ele>
<time>2020-09-10T09:31:15Z</time>
</trkpt>
<trkpt lat="48.708275" lon="10.048805">
<ele>576.493</ele>
<time>2020-09-10T09:31:16Z</time>
</trkpt>
<trkpt lat="48.708244" lon="10.04885">
<ele>576.574</ele>
<time>2020-09-10T09:31:17Z</time>
</trkpt>
<trkpt lat="48.708214" lon="10.048895">
<ele>576.625</ele>
<time>2020-09-10T09:31:18Z</time>
</trkpt>
<trkpt lat="48.708187" lon="10.048938">
<ele>576.649</ele>
<time>2020-09-10T09:31:19Z</time>
</trkpt>
<trkpt lat="48.708157" lon="10.048982">
<ele>576.65</ele>
<time>2020-09-10T09:31:20Z</time>
</trkpt>
<trkpt lat="48.70813" lon="10.049024">
<ele>576.902</ele>
<time>2020-09-10T09:31:21Z</time>
</trkpt>
<trkpt lat="48.708099" lon="10.049067">
<ele>577.103</ele>
<time>2020-09-10T09:31:22Z</time>
</trkpt>
<trkpt lat="48.708069" lon="10.049111">
<ele>577.255</ele>
<time>2020-09-10T09:31:23Z</time>
</trkpt>
<trkpt lat="48.708042" lon="10.049153">
<ele>577.371</ele>
<time>2020-09-10T09:31:24Z</time>
</trkpt>
<trkpt lat="48.708015" lon="10.049195">
<ele>577.451</ele>
<time>2020-09-10T09:31:25Z</time>
</trkpt>
<trkpt lat="48.707989" lon="10.049237">
<ele>577.535</ele>
<time>2020-09-10T09:31:26Z</time>
</trkpt>
<trkpt lat="48.707958" lon="10.04928">
<ele>577.59</ele>
<time>2020-09-10T09:31:27Z</time>
</trkpt>
<trkpt lat="48.707932" lon="10.049321">
<ele>577.615</ele>
<time>2020-09-10T09:31:28Z</time>
</trkpt>
<trkpt lat="48.707901" lon="10.049361">
<ele>577.883</ele>
<time>2020-09-10T09:31:29Z</time>
</trkpt>
<trkpt lat="48.707874" lon="10.049405">
<ele>578.096</ele>
<time>2020-09-10T09:31:30Z</time>
</trkpt>
<trkpt lat="48.707848" lon="10.049447">
<ele>578.256</ele>
<time>2020-09-10T09:31:31Z</time>
</trkpt>
<trkpt lat="48.707821" lon="10.04949">
<ele>578.372</ele>
<time>2020-09-10T09:31:32Z</time>
</trkpt>
<trkpt lat="48.70779" lon="10.049535">
<ele>578.455</ele>
<time>2020-09-10T09:31:33Z</time>
</trkpt>
<trkpt lat="48.70776" lon="10.049582">
<ele>578.512</ele>
<time>2020-09-10T09:31:34Z</time>
</trkpt>
<trkpt lat="48.707729" lon="10.049625">
<ele>578.554</ele>
<time>2020-09-10T09:31:35Z</time>
</trkpt>
<trkpt lat="48.707699" lon="10.049669">
<ele>578.581</ele>
<time>2020-09-10T09:31:36Z</time>
</trkpt>
<trkpt lat="48.707668" lon="10.049713">
<ele>578.581</ele>
<time>2020-09-10T09:31:37Z</time>
</trkpt>
<trkpt lat="48.707638" lon="10.049757">
<ele>578.581</ele>
<time>2020-09-10T09:31:38Z</time>
</trkpt>
<trkpt lat="48.707607" lon="10.0498">
<ele>578.581</ele>
<time>2020-09-10T09:31:39Z</time>
</trkpt>
<trkpt lat="48.707581" lon="10.049845">
<ele>578.581</ele>
<time>2020-09-10T09:31:40Z</time>
</trkpt>
<trkpt lat="48.70755" lon="10.04989">
<ele>578.581</ele>
<time>2020-09-10T09:31:41Z</time>
</trkpt>
<trkpt lat="48.707516" lon="10.049935">
<ele>578.581</ele>
<time>2020-09-10T09:31:42Z</time>
</trkpt>
<trkpt lat="48.707485" lon="10.049979">
<ele>578.581</ele>
<time>2020-09-10T09:31:43Z</time>
</trkpt>
<trkpt lat="48.707455" lon="10.050027">
<ele>578.581</ele>
<time>2020-09-10T09:31:44Z</time>
</trkpt>
<trkpt lat="48.707424" lon="10.050076">
<ele>578.581</ele>
<time>2020-09-10T09:31:45Z</time>
</trkpt>
<trkpt lat="48.707394" lon="10.050121">
<ele>578.581</ele>
<time>2020-09-10T09:31:46Z</time>
</trkpt>
<trkpt lat="48.707363" lon="10.050166">
<ele>578.901</ele>
<time>2020-09-10T09:31:47Z</time>
</trkpt>
<trkpt lat="48.707333" lon="10.050212">
<ele>579.144</ele>
<time>2020-09-10T09:31:48Z</time>
</trkpt>
<trkpt lat="48.707302" lon="10.050256">
<ele>579.327</ele>
<time>2020-09-10T09:31:49Z</time>
</trkpt>
<trkpt lat="48.707272" lon="10.050303">
<ele>579.459</ele>
<time>2020-09-10T09:31:50Z</time>
</trkpt>
<trkpt lat="48.707237" lon="10.050348">
<ele>579.546</ele>
<time>2020-09-10T09:31:51Z</time>
</trkpt>
<trkpt lat="48.707203" lon="10.050395">
<ele>579.603</ele>
<time>2020-09-10T09:31:52Z</time>
</trkpt>
<trkpt lat="48.707165" lon="10.05044">
<ele>579.635</ele>
<time>2020-09-10T09:31:53Z</time>
</trkpt>
<trkpt lat="48.70713" lon="10.050484">
<ele>579.635</ele>
<time>2020-09-10T09:31:54Z</time>
</trkpt>
<trkpt lat="48.707096" lon="10.050529">
<ele>579.635</ele>
<time>2020-09-10T09:31:55Z</time>
</trkpt>
<trkpt lat="48.707058" lon="10.050571">
<ele>579.635</ele>
<time>2020-09-10T09:31:56Z</time>
</trkpt>
<trkpt lat="48.707024" lon="10.050613">
<ele>579.635</ele>
<time>2020-09-10T09:31:57Z</time>
</trkpt>
<trkpt lat="48.706989" lon="10.050652">
<ele>579.635</ele>
<time>2020-09-10T09:31:58Z</time>
</trkpt>
<trkpt lat="48.706947" lon="10.050692">
<ele>579.635</ele>
<time>2020-09-10T09:31:59Z</time>
</trkpt>
<trkpt lat="48.706909" lon="10.050732">
<ele>579.635</ele>
<time>2020-09-10T09:32:00Z</time>
</trkpt>
<trkpt lat="48.706867" lon="10.050769">
<ele>579.635</ele>
<time>2020-09-10T09:32:01Z</time>
</trkpt>
<trkpt lat="48.706825" lon="10.050803">
<ele>579.635</ele>
<time>2020-09-10T09:32:02Z</time>
</trkpt>
<trkpt lat="48.706783" lon="10.050838">
<ele>579.877</ele>
<time>2020-09-10T09:32:03Z</time>
</trkpt>
<trkpt lat="48.706741" lon="10.050872">
<ele>580.071</ele>
<time>2020-09-10T09:32:04Z</time>
</trkpt>
<trkpt lat="48.706696" lon="10.050907">
<ele>580.203</ele>
<time>2020-09-10T09:32:05Z</time>
</trkpt>
<trkpt lat="48.706654" lon="10.050941">
<ele>580.345</ele>
<time>2020-09-10T09:32:06Z</time>
</trkpt>
<trkpt lat="48.706608" lon="10.050975">
<ele>580.45</ele>
<time>2020-09-10T09:32:07Z</time>
</trkpt>
<trkpt lat="48.706562" lon="10.051006">
<ele>580.529</ele>
<time>2020-09-10T09:32:08Z</time>
</trkpt>
<trkpt lat="48.706516" lon="10.051042">
<ele>580.578</ele>
<time>2020-09-10T09:32:09Z</time>
</trkpt>
<trkpt lat="48.706467" lon="10.051075">
<ele>580.601</ele>
<time>2020-09-10T09:32:10Z</time>
</trkpt>
<trkpt lat="48.706421" lon="10.051108">
<ele>580.601</ele>
<time>2020-09-10T09:32:11Z</time>
</trkpt>
<trkpt lat="48.706371" lon="10.051144">
<ele>580.601</ele>
<time>2020-09-10T09:32:12Z</time>
</trkpt>
<trkpt lat="48.706326" lon="10.051177">
<ele>580.601</ele>
<time>2020-09-10T09:32:13Z</time>
</trkpt>
<trkpt lat="48.706272" lon="10.051213">
<ele>580.601</ele>
<time>2020-09-10T09:32:14Z</time>
</trkpt>
<trkpt lat="48.706226" lon="10.05125">
<ele>580.601</ele>
<time>2020-09-10T09:32:15Z</time>
</trkpt>
<trkpt lat="48.706173" lon="10.051287">
<ele>580.36</ele>
<time>2020-09-10T09:32:16Z</time>
</trkpt>
<trkpt lat="48.70612" lon="10.051327">
<ele>580.16</ele>
<time>2020-09-10T09:32:17Z</time>
</trkpt>
<trkpt lat="48.706062" lon="10.051367">
<ele>579.996</ele>
<time>2020-09-10T09:32:18Z</time>
</trkpt>
<trkpt lat="48.706009" lon="10.051406">
<ele>579.895</ele>
<time>2020-09-10T09:32:19Z</time>
</trkpt>
<trkpt lat="48.705948" lon="10.051452">
<ele>579.563</ele>
<time>2020-09-10T09:32:20Z</time>
</trkpt>
<trkpt lat="48.705894" lon="10.051498">
<ele>579.302</ele>
<time>2020-09-10T09:32:21Z</time>
</trkpt>
<trkpt lat="48.705833" lon="10.051544">
<ele>579.106</ele>
<time>2020-09-10T09:32:22Z</time>
</trkpt>
<trkpt lat="48.705772" lon="10.051588">
<ele>578.992</ele>
<time>2020-09-10T09:32:23Z</time>
</trkpt>
<trkpt lat="48.705711" lon="10.051634">
<ele>578.651</ele>
<time>2020-09-10T09:32:24Z</time>
</trkpt>
<trkpt lat="48.705647" lon="10.051679">
<ele>578.416</ele>
<time>2020-09-10T09:32:25Z</time>
</trkpt>
<trkpt lat="48.705582" lon="10.051726">
<ele>578.195</ele>
<time>2020-09-10T09:32:26Z</time>
</trkpt>
<trkpt lat="48.705517" lon="10.051777">
<ele>578.052</ele>
<time>2020-09-10T09:32:27Z</time>
</trkpt>
<trkpt lat="48.705452" lon="10.051826">
<ele>577.7</ele>
<time>2020-09-10T09:32:28Z</time>
</trkpt>
<trkpt lat="48.705383" lon="10.051877">
<ele>577.422</ele>
<time>2020-09-10T09:32:29Z</time>
</trkpt>
<trkpt lat="48.705315" lon="10.051926">
<ele>577.246</ele>
<time>2020-09-10T09:32:30Z</time>
</trkpt>
<trkpt lat="48.705246" lon="10.051975">
<ele>576.818</ele>
<time>2020-09-10T09:32:31Z</time>
</trkpt>
<trkpt lat="48.705177" lon="10.052025">
<ele>576.424</ele>
<time>2020-09-10T09:32:32Z</time>
</trkpt>
<trkpt lat="48.705105" lon="10.052076">
<ele>576.203</ele>
<time>2020-09-10T09:32:33Z</time>
</trkpt>
<trkpt lat="48.705032" lon="10.052131">
<ele>576.087</ele>
<time>2020-09-10T09:32:34Z</time>
</trkpt>
<trkpt lat="48.704964" lon="10.052185">
<ele>575.747</ele>
<time>2020-09-10T09:32:35Z</time>
</trkpt>
<trkpt lat="48.704891" lon="10.05224">
<ele>575.471</ele>
<time>2020-09-10T09:32:36Z</time>
</trkpt>
<trkpt lat="48.704819" lon="10.052297">
<ele>575.262</ele>
<time>2020-09-10T09:32:37Z</time>
</trkpt>
<trkpt lat="48.704742" lon="10.052355">
<ele>575.134</ele>
<time>2020-09-10T09:32:38Z</time>
</trkpt>
<trkpt lat="48.704674" lon="10.052412">
<ele>574.794</ele>
<time>2020-09-10T09:32:39Z</time>
</trkpt>
<trkpt lat="48.704597" lon="10.052468">
<ele>574.524</ele>
<time>2020-09-10T09:32:40Z</time>
</trkpt>
<trkpt lat="48.704521" lon="10.052525">
<ele>574.35</ele>
<time>2020-09-10T09:32:41Z</time>
</trkpt>
<trkpt lat="48.704445" lon="10.05258">
<ele>573.949</ele>
<time>2020-09-10T09:32:42Z</time>
</trkpt>
<trkpt lat="48.704369" lon="10.052633">
<ele>573.652</ele>
<time>2020-09-10T09:32:43Z</time>
</trkpt>
<trkpt lat="48.704292" lon="10.052689">
<ele>573.191</ele>
<time>2020-09-10T09:32:44Z</time>
</trkpt>
<trkpt lat="48.704216" lon="10.052747">
<ele>572.852</ele>
<time>2020-09-10T09:32:45Z</time>
</trkpt>
<trkpt lat="48.70414" lon="10.052805">
<ele>572.558</ele>
<time>2020-09-10T09:32:46Z</time>
</trkpt>
<trkpt lat="48.70406" lon="10.052865">
<ele>572.076</ele>
<time>2020-09-10T09:32:47Z</time>
</trkpt>
<trkpt lat="48.703987" lon="10.052925">
<ele>571.701</ele>
<time>2020-09-10T09:32:48Z</time>
</trkpt>
<trkpt lat="48.703911" lon="10.052981">
<ele>571.422</ele>
<time>2020-09-10T09:32:49Z</time>
</trkpt>
<trkpt lat="48.703831" lon="10.053037">
<ele>571.263</ele>
<time>2020-09-10T09:32:50Z</time>
</trkpt>
<trkpt lat="48.703758" lon="10.053092">
<ele>570.859</ele>
<time>2020-09-10T09:32:51Z</time>
</trkpt>
<trkpt lat="48.703678" lon="10.053149">
<ele>570.517</ele>
<time>2020-09-10T09:32:52Z</time>
</trkpt>
<trkpt lat="48.703598" lon="10.053208">
<ele>570.039</ele>
<time>2020-09-10T09:32:53Z</time>
</trkpt>
<trkpt lat="48.703522" lon="10.053267">
<ele>569.698</ele>
<time>2020-09-10T09:32:54Z</time>
</trkpt>
<trkpt lat="48.703442" lon="10.053323">
<ele>569.453</ele>
<time>2020-09-10T09:32:55Z</time>
</trkpt>
<trkpt lat="48.703365" lon="10.053382">
<ele>568.971</ele>
<time>2020-09-10T09:32:56Z</time>
</trkpt>
<trkpt lat="48.703281" lon="10.053442">
<ele>568.636</ele>
<time>2020-09-10T09:32:57Z</time>
</trkpt>
<trkpt lat="48.703201" lon="10.053503">
<ele>568.087</ele>
<time>2020-09-10T09:32:58Z</time>
</trkpt>
<trkpt lat="48.703117" lon="10.053564">
<ele>567.677</ele>
<time>2020-09-10T09:32:59Z</time>
</trkpt>
<trkpt lat="48.703033" lon="10.053627">
<ele>567.417</ele>
<time>2020-09-10T09:33:00Z</time>
</trkpt>
<trkpt lat="48.702946" lon="10.05369">
<ele>566.953</ele>
<time>2020-09-10T09:33:01Z</time>
</trkpt>
<trkpt lat="48.702862" lon="10.053755">
<ele>566.27</ele>
<time>2020-09-10T09:33:02Z</time>
</trkpt>
<trkpt lat="48.702782" lon="10.053818">
<ele>565.805</ele>
<time>2020-09-10T09:33:03Z</time>
</trkpt>
<trkpt lat="48.702694" lon="10.053882">
<ele>565.197</ele>
<time>2020-09-10T09:33:04Z</time>
</trkpt>
<trkpt lat="48.70261" lon="10.053944">
<ele>564.492</ele>
<time>2020-09-10T09:33:05Z</time>
</trkpt>
<trkpt lat="48.702522" lon="10.054008">
<ele>563.935</ele>
<time>2020-09-10T09:33:06Z</time>
</trkpt>
<trkpt lat="48.702431" lon="10.054077">
<ele>563.276</ele>
<time>2020-09-10T09:33:07Z</time>
</trkpt>
<trkpt lat="48.702339" lon="10.054149">
<ele>562.521</ele>
<time>2020-09-10T09:33:08Z</time>
</trkpt>
<trkpt lat="48.702248" lon="10.05422">
<ele>561.615</ele>
<time>2020-09-10T09:33:09Z</time>
</trkpt>
<trkpt lat="48.702164" lon="10.054289">
<ele>560.611</ele>
<time>2020-09-10T09:33:10Z</time>
</trkpt>
<trkpt lat="48.702072" lon="10.054357">
<ele>559.917</ele>
<time>2020-09-10T09:33:11Z</time>
</trkpt>
<trkpt lat="48.701981" lon="10.054425">
<ele>559.144</ele>
<time>2020-09-10T09:33:12Z</time>
</trkpt>
<trkpt lat="48.701889" lon="10.054497">
<ele>558.199</ele>
<time>2020-09-10T09:33:13Z</time>
</trkpt>
<trkpt lat="48.701794" lon="10.054568">
<ele>557.456</ele>
<time>2020-09-10T09:33:14Z</time>
</trkpt>
<trkpt lat="48.701694" lon="10.054642">
<ele>556.553</ele>
<time>2020-09-10T09:33:15Z</time>
</trkpt>
<trkpt lat="48.701599" lon="10.054712">
<ele>555.614</ele>
<time>2020-09-10T09:33:16Z</time>
</trkpt>
<trkpt lat="48.701492" lon="10.05477">
<ele>554.672</ele>
<time>2020-09-10T09:33:17Z</time>
</trkpt>
<trkpt lat="48.701385" lon="10.054815">
<ele>553.71</ele>
<time>2020-09-10T09:33:18Z</time>
</trkpt>
<trkpt lat="48.701271" lon="10.054845">
<ele>552.74</ele>
<time>2020-09-10T09:33:19Z</time>
</trkpt>
<trkpt lat="48.701153" lon="10.05486">
<ele>551.796</ele>
<time>2020-09-10T09:33:20Z</time>
</trkpt>
<trkpt lat="48.701035" lon="10.054854">
<ele>550.849</ele>
<time>2020-09-10T09:33:21Z</time>
</trkpt>
<trkpt lat="48.700912" lon="10.054833">
<ele>549.84</ele>
<time>2020-09-10T09:33:22Z</time>
</trkpt>
<trkpt lat="48.70079" lon="10.054795">
<ele>548.813</ele>
<time>2020-09-10T09:33:23Z</time>
</trkpt>
<trkpt lat="48.700668" lon="10.054742">
<ele>547.756</ele>
<time>2020-09-10T09:33:24Z</time>
</trkpt>
<trkpt lat="48.70055" lon="10.054675">
<ele>546.497</ele>
<time>2020-09-10T09:33:25Z</time>
</trkpt>
<trkpt lat="48.700432" lon="10.054597">
<ele>545.501</ele>
<time>2020-09-10T09:33:26Z</time>
</trkpt>
<trkpt lat="48.70031" lon="10.054515">
<ele>544.241</ele>
<time>2020-09-10T09:33:27Z</time>
</trkpt>
<trkpt lat="48.700191" lon="10.054437">
<ele>542.927</ele>
<time>2020-09-10T09:33:28Z</time>
</trkpt>
<trkpt lat="48.700073" lon="10.05436">
<ele>542.046</ele>
<time>2020-09-10T09:33:29Z</time>
</trkpt>
<trkpt lat="48.699955" lon="10.054287">
<ele>541.07</ele>
<time>2020-09-10T09:33:30Z</time>
</trkpt>
<trkpt lat="48.699844" lon="10.054215">
<ele>540.096</ele>
<time>2020-09-10T09:33:31Z</time>
</trkpt>
<trkpt lat="48.699734" lon="10.054142">
<ele>539.146</ele>
<time>2020-09-10T09:33:32Z</time>
</trkpt>
<trkpt lat="48.699623" lon="10.054071">
<ele>538.092</ele>
<time>2020-09-10T09:33:33Z</time>
</trkpt>
<trkpt lat="48.699516" lon="10.054006">
<ele>537.012</ele>
<time>2020-09-10T09:33:34Z</time>
</trkpt>
<trkpt lat="48.699409" lon="10.053942">
<ele>536.181</ele>
<time>2020-09-10T09:33:35Z</time>
</trkpt>
<trkpt lat="48.699299" lon="10.053888">
<ele>535.221</ele>
<time>2020-09-10T09:33:36Z</time>
</trkpt>
<trkpt lat="48.699192" lon="10.053846">
<ele>534.18</ele>
<time>2020-09-10T09:33:37Z</time>
</trkpt>
<trkpt lat="48.699081" lon="10.05382">
<ele>533.156</ele>
<time>2020-09-10T09:33:38Z</time>
</trkpt>
<trkpt lat="48.698967" lon="10.053807">
<ele>532.106</ele>
<time>2020-09-10T09:33:39Z</time>
</trkpt>
<trkpt lat="48.69886" lon="10.053805">
<ele>531.074</ele>
<time>2020-09-10T09:33:40Z</time>
</trkpt>
<trkpt lat="48.698746" lon="10.053811">
<ele>530.06</ele>
<time>2020-09-10T09:33:41Z</time>
</trkpt>
<trkpt lat="48.698639" lon="10.05382">
<ele>529.066</ele>
<time>2020-09-10T09:33:42Z</time>
</trkpt>
<trkpt lat="48.698528" lon="10.053826">
<ele>528.061</ele>
<time>2020-09-10T09:33:43Z</time>
</trkpt>
<trkpt lat="48.698418" lon="10.053828">
<ele>527.039</ele>
<time>2020-09-10T09:33:44Z</time>
</trkpt>
<trkpt lat="48.698311" lon="10.053828">
<ele>526.014</ele>
<time>2020-09-10T09:33:45Z</time>
</trkpt>
<trkpt lat="48.698196" lon="10.05383">
<ele>525.213</ele>
<time>2020-09-10T09:33:46Z</time>
</trkpt>
<trkpt lat="48.698086" lon="10.053834">
<ele>524.343</ele>
<time>2020-09-10T09:33:47Z</time>
</trkpt>
<trkpt lat="48.697979" lon="10.053841">
<ele>523.419</ele>
<time>2020-09-10T09:33:48Z</time>
</trkpt>
<trkpt lat="48.697868" lon="10.053844">
<ele>522.469</ele>
<time>2020-09-10T09:33:49Z</time>
</trkpt>
<trkpt lat="48.697762" lon="10.053848">
<ele>521.172</ele>
<time>2020-09-10T09:33:50Z</time>
</trkpt>
<trkpt lat="48.697647" lon="10.053855">
<ele>520.29</ele>
<time>2020-09-10T09:33:51Z</time>
</trkpt>
<trkpt lat="48.69754" lon="10.053865">
<ele>519.329</ele>
<time>2020-09-10T09:33:52Z</time>
</trkpt>
<trkpt lat="48.69743" lon="10.053888">
<ele>518.21</ele>
<time>2020-09-10T09:33:53Z</time>
</trkpt>
<trkpt lat="48.697319" lon="10.053928">
<ele>517.382</ele>
<time>2020-09-10T09:33:54Z</time>
</trkpt>
<trkpt lat="48.697208" lon="10.053983">
<ele>516.422</ele>
<time>2020-09-10T09:33:55Z</time>
</trkpt>
<trkpt lat="48.697102" lon="10.05405">
<ele>515.412</ele>
<time>2020-09-10T09:33:56Z</time>
</trkpt>
<trkpt lat="48.696995" lon="10.054123">
<ele>514.363</ele>
<time>2020-09-10T09:33:57Z</time>
</trkpt>
<trkpt lat="48.69688" lon="10.054196">
<ele>513.324</ele>
<time>2020-09-10T09:33:58Z</time>
</trkpt>
<trkpt lat="48.696777" lon="10.054265">
<ele>512.257</ele>
<time>2020-09-10T09:33:59Z</time>
</trkpt>
<trkpt lat="48.696671" lon="10.054333">
<ele>511.213</ele>
<time>2020-09-10T09:34:00Z</time>
</trkpt>
<trkpt lat="48.696564" lon="10.054406">
<ele>510.2</ele>
<time>2020-09-10T09:34:01Z</time>
</trkpt>
<trkpt lat="48.696461" lon="10.05448">
<ele>509.165</ele>
<time>2020-09-10T09:34:02Z</time>
</trkpt>
<trkpt lat="48.696358" lon="10.054553">
<ele>508.114</ele>
<time>2020-09-10T09:34:03Z</time>
</trkpt>
<trkpt lat="48.696262" lon="10.054626">
<ele>507.08</ele>
<time>2020-09-10T09:34:04Z</time>
</trkpt>
<trkpt lat="48.696163" lon="10.054702">
<ele>506.075</ele>
<time>2020-09-10T09:34:05Z</time>
</trkpt>
<trkpt lat="48.696068" lon="10.054773">
<ele>505.091</ele>
<time>2020-09-10T09:34:06Z</time>
</trkpt>
<trkpt lat="48.695976" lon="10.054838">
<ele>504.034</ele>
<time>2020-09-10T09:34:07Z</time>
</trkpt>
<trkpt lat="48.695885" lon="10.054907">
<ele>503.026</ele>
<time>2020-09-10T09:34:08Z</time>
</trkpt>
<trkpt lat="48.695786" lon="10.054987">
<ele>501.911</ele>
<time>2020-09-10T09:34:09Z</time>
</trkpt>
<trkpt lat="48.69569" lon="10.055061">
<ele>501.145</ele>
<time>2020-09-10T09:34:10Z</time>
</trkpt>
<trkpt lat="48.695595" lon="10.055135">
<ele>500.265</ele>
<time>2020-09-10T09:34:11Z</time>
</trkpt>
<trkpt lat="48.695499" lon="10.055202">
<ele>499.354</ele>
<time>2020-09-10T09:34:12Z</time>
</trkpt>
<trkpt lat="48.6954" lon="10.055273">
<ele>498.414</ele>
<time>2020-09-10T09:34:13Z</time>
</trkpt>
<trkpt lat="48.695309" lon="10.055345">
<ele>497.461</ele>
<time>2020-09-10T09:34:14Z</time>
</trkpt>
<trkpt lat="48.695213" lon="10.055422">
<ele>496.479</ele>
<time>2020-09-10T09:34:15Z</time>
</trkpt>
<trkpt lat="48.695122" lon="10.055495">
<ele>495.729</ele>
<time>2020-09-10T09:34:16Z</time>
</trkpt>
<trkpt lat="48.695026" lon="10.055573">
<ele>494.903</ele>
<time>2020-09-10T09:34:17Z</time>
</trkpt>
<trkpt lat="48.694927" lon="10.055655">
<ele>493.963</ele>
<time>2020-09-10T09:34:18Z</time>
</trkpt>
<trkpt lat="48.694836" lon="10.055735">
<ele>492.966</ele>
<time>2020-09-10T09:34:19Z</time>
</trkpt>
<trkpt lat="48.694736" lon="10.055823">
<ele>492.302</ele>
<time>2020-09-10T09:34:20Z</time>
</trkpt>
<trkpt lat="48.694637" lon="10.055906">
<ele>491.522</ele>
<time>2020-09-10T09:34:21Z</time>
</trkpt>
<trkpt lat="48.694542" lon="10.055988">
<ele>490.683</ele>
<time>2020-09-10T09:34:22Z</time>
</trkpt>
<trkpt lat="48.694447" lon="10.056068">
<ele>489.655</ele>
<time>2020-09-10T09:34:23Z</time>
</trkpt>
<trkpt lat="48.694351" lon="10.056147">
<ele>489.132</ele>
<time>2020-09-10T09:34:24Z</time>
</trkpt>
<trkpt lat="48.69426" lon="10.056223">
<ele>488.407</ele>
<time>2020-09-10T09:34:25Z</time>
</trkpt>
<trkpt lat="48.694172" lon="10.0563">
<ele>487.851</ele>
<time>2020-09-10T09:34:26Z</time>
</trkpt>
<trkpt lat="48.694084" lon="10.056372">
<ele>487.201</ele>
<time>2020-09-10T09:34:27Z</time>
</trkpt>
<trkpt lat="48.694" lon="10.056443">
<ele>486.719</ele>
<time>2020-09-10T09:34:28Z</time>
</trkpt>
<trkpt lat="48.69392" lon="10.056512">
<ele>486.419</ele>
<time>2020-09-10T09:34:29Z</time>
</trkpt>
<trkpt lat="48.693848" lon="10.056579">
<ele>485.951</ele>
<time>2020-09-10T09:34:30Z</time>
</trkpt>
<trkpt lat="48.693771" lon="10.056643">
<ele>485.603</ele>
<time>2020-09-10T09:34:31Z</time>
</trkpt>
<trkpt lat="48.693695" lon="10.05671">
<ele>485.34</ele>
<time>2020-09-10T09:34:32Z</time>
</trkpt>
<trkpt lat="48.693623" lon="10.056775">
<ele>485.145</ele>
<time>2020-09-10T09:34:33Z</time>
</trkpt>
<trkpt lat="48.693554" lon="10.056836">
<ele>484.826</ele>
<time>2020-09-10T09:34:34Z</time>
</trkpt>
<trkpt lat="48.693489" lon="10.056893">
<ele>484.581</ele>
<time>2020-09-10T09:34:35Z</time>
</trkpt>
<trkpt lat="48.69342" lon="10.056952">
<ele>484.355</ele>
<time>2020-09-10T09:34:36Z</time>
</trkpt>
<trkpt lat="48.693352" lon="10.05701">
<ele>484.201</ele>
<time>2020-09-10T09:34:37Z</time>
</trkpt>
<trkpt lat="48.693291" lon="10.057067">
<ele>483.862</ele>
<time>2020-09-10T09:34:38Z</time>
</trkpt>
<trkpt lat="48.69323" lon="10.057123">
<ele>483.591</ele>
<time>2020-09-10T09:34:39Z</time>
</trkpt>
<trkpt lat="48.693176" lon="10.05718">
<ele>483.378</ele>
<time>2020-09-10T09:34:40Z</time>
</trkpt>
<trkpt lat="48.693119" lon="10.057237">
<ele>483.245</ele>
<time>2020-09-10T09:34:41Z</time>
</trkpt>
<trkpt lat="48.693062" lon="10.057293">
<ele>482.869</ele>
<time>2020-09-10T09:34:42Z</time>
</trkpt>
<trkpt lat="48.693001" lon="10.057354">
<ele>482.639</ele>
<time>2020-09-10T09:34:43Z</time>
</trkpt>
<trkpt lat="48.692947" lon="10.057412">
<ele>482.471</ele>
<time>2020-09-10T09:34:44Z</time>
</trkpt>
<trkpt lat="48.69289" lon="10.057471">
<ele>482.348</ele>
<time>2020-09-10T09:34:45Z</time>
</trkpt>
<trkpt lat="48.692833" lon="10.057533">
<ele>482.243</ele>
<time>2020-09-10T09:34:46Z</time>
</trkpt>
<trkpt lat="48.692776" lon="10.057593">
<ele>482.169</ele>
<time>2020-09-10T09:34:47Z</time>
</trkpt>
<trkpt lat="48.692722" lon="10.057656">
<ele>482.124</ele>
<time>2020-09-10T09:34:48Z</time>
</trkpt>
<trkpt lat="48.692669" lon="10.05772">
<ele>481.846</ele>
<time>2020-09-10T09:34:49Z</time>
</trkpt>
<trkpt lat="48.692612" lon="10.057781">
<ele>481.578</ele>
<time>2020-09-10T09:34:50Z</time>
</trkpt>
<trkpt lat="48.692554" lon="10.057844">
<ele>481.405</ele>
<time>2020-09-10T09:34:51Z</time>
</trkpt>
<trkpt lat="48.692501" lon="10.057909">
<ele>481.276</ele>
<time>2020-09-10T09:34:52Z</time>
</trkpt>
<trkpt lat="48.692444" lon="10.057968">
<ele>481.19</ele>
<time>2020-09-10T09:34:53Z</time>
</trkpt>
<trkpt lat="48.692387" lon="10.05803">
<ele>481.131</ele>
<time>2020-09-10T09:34:54Z</time>
</trkpt>
<trkpt lat="48.692333" lon="10.058093">
<ele>481.086</ele>
<time>2020-09-10T09:34:55Z</time>
</trkpt>
<trkpt lat="48.69228" lon="10.058158">
<ele>480.824</ele>
<time>2020-09-10T09:34:56Z</time>
</trkpt>
<trkpt lat="48.692219" lon="10.05822">
<ele>480.628</ele>
<time>2020-09-10T09:34:57Z</time>
</trkpt>
<trkpt lat="48.692165" lon="10.058278">
<ele>480.468</ele>
<time>2020-09-10T09:34:58Z</time>
</trkpt>
<trkpt lat="48.692112" lon="10.058333">
<ele>480.34</ele>
<time>2020-09-10T09:34:59Z</time>
</trkpt>
<trkpt lat="48.692055" lon="10.058383">
<ele>480.241</ele>
<time>2020-09-10T09:35:00Z</time>
</trkpt>
<trkpt lat="48.692001" lon="10.058434">
<ele>480.169</ele>
<time>2020-09-10T09:35:01Z</time>
</trkpt>
<trkpt lat="48.691952" lon="10.05849">
<ele>480.122</ele>
<time>2020-09-10T09:35:02Z</time>
</trkpt>
<trkpt lat="48.691902" lon="10.058546">
<ele>480.1</ele>
<time>2020-09-10T09:35:03Z</time>
</trkpt>
<trkpt lat="48.69186" lon="10.05861">
<ele>480.1</ele>
<time>2020-09-10T09:35:04Z</time>
</trkpt>
<trkpt lat="48.691833" lon="10.058681">
<ele>480.1</ele>
<time>2020-09-10T09:35:05Z</time>
</trkpt>
<trkpt lat="48.691818" lon="10.05876">
<ele>480.1</ele>
<time>2020-09-10T09:35:06Z</time>
</trkpt>
<trkpt lat="48.691799" lon="10.058846">
<ele>480.1</ele>
<time>2020-09-10T09:35:07Z</time>
</trkpt>
<trkpt lat="48.691788" lon="10.058933">
<ele>480.1</ele>
<time>2020-09-10T09:35:08Z</time>
</trkpt>
<trkpt lat="48.691776" lon="10.059026">
<ele>480.1</ele>
<time>2020-09-10T09:35:09Z</time>
</trkpt>
<trkpt lat="48.691761" lon="10.059118">
<ele>480.1</ele>
<time>2020-09-10T09:35:10Z</time>
</trkpt>
<trkpt lat="48.691753" lon="10.05921">
<ele>479.82</ele>
<time>2020-09-10T09:35:11Z</time>
</trkpt>
<trkpt lat="48.691746" lon="10.059305">
<ele>479.6</ele>
<time>2020-09-10T09:35:12Z</time>
</trkpt>
<trkpt lat="48.691738" lon="10.059397">
<ele>479.432</ele>
<time>2020-09-10T09:35:13Z</time>
</trkpt>
<trkpt lat="48.691738" lon="10.05949">
<ele>479.309</ele>
<time>2020-09-10T09:35:14Z</time>
</trkpt>
<trkpt lat="48.691738" lon="10.059584">
<ele>479.227</ele>
<time>2020-09-10T09:35:15Z</time>
</trkpt>
<trkpt lat="48.691738" lon="10.059677">
<ele>479.139</ele>
<time>2020-09-10T09:35:16Z</time>
</trkpt>
<trkpt lat="48.691738" lon="10.059772">
<ele>479.084</ele>
<time>2020-09-10T09:35:17Z</time>
</trkpt>
<trkpt lat="48.69175" lon="10.059865">
<ele>479.056</ele>
<time>2020-09-10T09:35:18Z</time>
</trkpt>
<trkpt lat="48.691757" lon="10.05996">
<ele>479.056</ele>
<time>2020-09-10T09:35:19Z</time>
</trkpt>
<trkpt lat="48.691769" lon="10.060052">
<ele>479.056</ele>
<time>2020-09-10T09:35:20Z</time>
</trkpt>
<trkpt lat="48.691784" lon="10.060144">
<ele>479.056</ele>
<time>2020-09-10T09:35:21Z</time>
</trkpt>
<trkpt lat="48.691795" lon="10.060233">
<ele>479.056</ele>
<time>2020-09-10T09:35:22Z</time>
</trkpt>
<trkpt lat="48.691811" lon="10.060328">
<ele>479.056</ele>
<time>2020-09-10T09:35:23Z</time>
</trkpt>
<trkpt lat="48.691818" lon="10.060421">
<ele>478.845</ele>
<time>2020-09-10T09:35:24Z</time>
</trkpt>
<trkpt lat="48.69183" lon="10.060513">
<ele>478.694</ele>
<time>2020-09-10T09:35:25Z</time>
</trkpt>
<trkpt lat="48.691841" lon="10.060607">
<ele>478.539</ele>
<time>2020-09-10T09:35:26Z</time>
</trkpt>
<trkpt lat="48.691853" lon="10.060699">
<ele>478.416</ele>
<time>2020-09-10T09:35:27Z</time>
</trkpt>
<trkpt lat="48.691864" lon="10.060788">
<ele>478.32</ele>
<time>2020-09-10T09:35:28Z</time>
</trkpt>
<trkpt lat="48.691883" lon="10.060878">
<ele>478.252</ele>
<time>2020-09-10T09:35:29Z</time>
</trkpt>
<trkpt lat="48.691898" lon="10.060966">
<ele>478.207</ele>
<time>2020-09-10T09:35:30Z</time>
</trkpt>
<trkpt lat="48.691914" lon="10.061055">
<ele>478.187</ele>
<time>2020-09-10T09:35:31Z</time>
</trkpt>
<trkpt lat="48.691929" lon="10.061144">
<ele>478.187</ele>
<time>2020-09-10T09:35:32Z</time>
</trkpt>
<trkpt lat="48.691948" lon="10.061232">
<ele>478.187</ele>
<time>2020-09-10T09:35:33Z</time>
</trkpt>
<trkpt lat="48.691963" lon="10.061318">
<ele>478.187</ele>
<time>2020-09-10T09:35:34Z</time>
</trkpt>
<trkpt lat="48.691975" lon="10.061405">
<ele>478.186</ele>
<time>2020-09-10T09:35:35Z</time>
</trkpt>
<trkpt lat="48.69199" lon="10.06149">
<ele>478.186</ele>
<time>2020-09-10T09:35:36Z</time>
</trkpt>
<trkpt lat="48.691998" lon="10.061577">
<ele>478.187</ele>
<time>2020-09-10T09:35:37Z</time>
</trkpt>
<trkpt lat="48.692013" lon="10.061664">
<ele>478.187</ele>
<time>2020-09-10T09:35:38Z</time>
</trkpt>
<trkpt lat="48.692024" lon="10.061749">
<ele>477.92</ele>
<time>2020-09-10T09:35:39Z</time>
</trkpt>
<trkpt lat="48.692047" lon="10.061837">
<ele>477.713</ele>
<time>2020-09-10T09:35:40Z</time>
</trkpt>
<trkpt lat="48.692059" lon="10.061927">
<ele>477.549</ele>
<time>2020-09-10T09:35:41Z</time>
</trkpt>
<trkpt lat="48.692066" lon="10.062016">
<ele>477.43</ele>
<time>2020-09-10T09:35:42Z</time>
</trkpt>
<trkpt lat="48.692081" lon="10.06211">
<ele>477.351</ele>
<time>2020-09-10T09:35:43Z</time>
</trkpt>
<trkpt lat="48.692085" lon="10.0622">
<ele>477.297</ele>
<time>2020-09-10T09:35:44Z</time>
</trkpt>
<trkpt lat="48.692093" lon="10.062294">
<ele>477.256</ele>
<time>2020-09-10T09:35:45Z</time>
</trkpt>
<trkpt lat="48.692097" lon="10.062385">
<ele>477.23</ele>
<time>2020-09-10T09:35:46Z</time>
</trkpt>
<trkpt lat="48.692101" lon="10.062474">
<ele>477.23</ele>
<time>2020-09-10T09:35:47Z</time>
</trkpt>
<trkpt lat="48.692104" lon="10.062563">
<ele>477.23</ele>
<time>2020-09-10T09:35:48Z</time>
</trkpt>
<trkpt lat="48.692112" lon="10.06265">
<ele>477.23</ele>
<time>2020-09-10T09:35:49Z</time>
</trkpt>
<trkpt lat="48.692116" lon="10.062737">
<ele>477.23</ele>
<time>2020-09-10T09:35:50Z</time>
</trkpt>
<trkpt lat="48.69212" lon="10.062823">
<ele>477.23</ele>
<time>2020-09-10T09:35:51Z</time>
</trkpt>
<trkpt lat="48.69212" lon="10.06291">
<ele>477.23</ele>
<time>2020-09-10T09:35:52Z</time>
</trkpt>
<trkpt lat="48.69212" lon="10.062996">
<ele>477.23</ele>
<time>2020-09-10T09:35:53Z</time>
</trkpt>
<trkpt lat="48.692123" lon="10.063082">
<ele>477.23</ele>
<time>2020-09-10T09:35:54Z</time>
</trkpt>
<trkpt lat="48.692127" lon="10.063167">
<ele>477.23</ele>
<time>2020-09-10T09:35:55Z</time>
</trkpt>
<trkpt lat="48.692135" lon="10.063248">
<ele>477.23</ele>
<time>2020-09-10T09:35:56Z</time>
</trkpt>
<trkpt lat="48.692142" lon="10.06333">
<ele>477.23</ele>
<time>2020-09-10T09:35:57Z</time>
</trkpt>
<trkpt lat="48.69215" lon="10.063411">
<ele>477.23</ele>
<time>2020-09-10T09:35:58Z</time>
</trkpt>
<trkpt lat="48.692154" lon="10.063488">
<ele>477.23</ele>
<time>2020-09-10T09:35:59Z</time>
</trkpt>
<trkpt lat="48.692162" lon="10.063565">
<ele>476.976</ele>
<time>2020-09-10T09:36:00Z</time>
</trkpt>
<trkpt lat="48.692173" lon="10.063643">
<ele>476.775</ele>
<time>2020-09-10T09:36:01Z</time>
</trkpt>
<trkpt lat="48.692184" lon="10.063722">
<ele>476.619</ele>
<time>2020-09-10T09:36:02Z</time>
</trkpt>
<trkpt lat="48.692188" lon="10.0638">
<ele>476.502</ele>
<time>2020-09-10T09:36:03Z</time>
</trkpt>
<trkpt lat="48.6922" lon="10.063878">
<ele>476.417</ele>
<time>2020-09-10T09:36:04Z</time>
</trkpt>
<trkpt lat="48.692211" lon="10.063955">
<ele>476.355</ele>
<time>2020-09-10T09:36:05Z</time>
</trkpt>
<trkpt lat="48.692219" lon="10.064027">
<ele>476.3</ele>
<time>2020-09-10T09:36:06Z</time>
</trkpt>
<trkpt lat="48.692226" lon="10.0641">
<ele>476.274</ele>
<time>2020-09-10T09:36:07Z</time>
</trkpt>
<trkpt lat="48.692234" lon="10.064176">
<ele>476.274</ele>
<time>2020-09-10T09:36:08Z</time>
</trkpt>
<trkpt lat="48.692245" lon="10.064251">
<ele>476.274</ele>
<time>2020-09-10T09:36:09Z</time>
</trkpt>
<trkpt lat="48.692253" lon="10.06433">
<ele>476.274</ele>
<time>2020-09-10T09:36:10Z</time>
</trkpt>
<trkpt lat="48.692257" lon="10.064408">
<ele>476.274</ele>
<time>2020-09-10T09:36:11Z</time>
</trkpt>
<trkpt lat="48.692265" lon="10.064487">
<ele>476.274</ele>
<time>2020-09-10T09:36:12Z</time>
</trkpt>
<trkpt lat="48.692272" lon="10.064565">
<ele>476.274</ele>
<time>2020-09-10T09:36:13Z</time>
</trkpt>
<trkpt lat="48.692284" lon="10.064645">
<ele>476.274</ele>
<time>2020-09-10T09:36:14Z</time>
</trkpt>
<trkpt lat="48.692287" lon="10.064727">
<ele>476.274</ele>
<time>2020-09-10T09:36:15Z</time>
</trkpt>
<trkpt lat="48.692299" lon="10.06481">
<ele>476.274</ele>
<time>2020-09-10T09:36:16Z</time>
</trkpt>
<trkpt lat="48.69231" lon="10.064894">
<ele>476.274</ele>
<time>2020-09-10T09:36:17Z</time>
</trkpt>
<trkpt lat="48.692322" lon="10.064979">
<ele>476.274</ele>
<time>2020-09-10T09:36:18Z</time>
</trkpt>
<trkpt lat="48.692333" lon="10.065062">
<ele>476.274</ele>
<time>2020-09-10T09:36:19Z</time>
</trkpt>
<trkpt lat="48.692341" lon="10.065144">
<ele>476.274</ele>
<time>2020-09-10T09:36:20Z</time>
</trkpt>
<trkpt lat="48.692348" lon="10.065225">
<ele>475.996</ele>
<time>2020-09-10T09:36:21Z</time>
</trkpt>
<trkpt lat="48.69236" lon="10.065303">
<ele>475.781</ele>
<time>2020-09-10T09:36:22Z</time>
</trkpt>
<trkpt lat="48.692375" lon="10.065385">
<ele>475.617</ele>
<time>2020-09-10T09:36:23Z</time>
</trkpt>
<trkpt lat="48.692387" lon="10.065467">
<ele>475.495</ele>
<time>2020-09-10T09:36:24Z</time>
</trkpt>
<trkpt lat="48.692402" lon="10.065545">
<ele>475.407</ele>
<time>2020-09-10T09:36:25Z</time>
</trkpt>
<trkpt lat="48.692417" lon="10.065621">
<ele>475.318</ele>
<time>2020-09-10T09:36:26Z</time>
</trkpt>
<trkpt lat="48.69244" lon="10.065701">
<ele>475.259</ele>
<time>2020-09-10T09:36:27Z</time>
</trkpt>
<trkpt lat="48.692455" lon="10.065775">
<ele>475.231</ele>
<time>2020-09-10T09:36:28Z</time>
</trkpt>
<trkpt lat="48.692478" lon="10.065851">
<ele>475.231</ele>
<time>2020-09-10T09:36:29Z</time>
</trkpt>
<trkpt lat="48.692497" lon="10.065928">
<ele>475.231</ele>
<time>2020-09-10T09:36:30Z</time>
</trkpt>
<trkpt lat="48.692516" lon="10.066003">
<ele>475.231</ele>
<time>2020-09-10T09:36:31Z</time>
</trkpt>
<trkpt lat="48.692543" lon="10.06608">
<ele>475.231</ele>
<time>2020-09-10T09:36:32Z</time>
</trkpt>
<trkpt lat="48.692562" lon="10.066154">
<ele>475.231</ele>
<time>2020-09-10T09:36:33Z</time>
</trkpt>
<trkpt lat="48.692585" lon="10.066227">
<ele>475.231</ele>
<time>2020-09-10T09:36:34Z</time>
</trkpt>
<trkpt lat="48.692612" lon="10.0663">
<ele>475.231</ele>
<time>2020-09-10T09:36:35Z</time>
</trkpt>
<trkpt lat="48.692638" lon="10.06637">
<ele>475.231</ele>
<time>2020-09-10T09:36:36Z</time>
</trkpt>
<trkpt lat="48.692669" lon="10.066441">
<ele>475.231</ele>
<time>2020-09-10T09:36:37Z</time>
</trkpt>
<trkpt lat="48.692696" lon="10.06651">
<ele>475.231</ele>
<time>2020-09-10T09:36:38Z</time>
</trkpt>
<trkpt lat="48.692719" lon="10.066583">
<ele>474.962</ele>
<time>2020-09-10T09:36:39Z</time>
</trkpt>
<trkpt lat="48.692745" lon="10.066658">
<ele>474.752</ele>
<time>2020-09-10T09:36:40Z</time>
</trkpt>
<trkpt lat="48.692772" lon="10.06673">
<ele>474.592</ele>
<time>2020-09-10T09:36:41Z</time>
</trkpt>
<trkpt lat="48.692806" lon="10.066801">
<ele>474.475</ele>
<time>2020-09-10T09:36:42Z</time>
</trkpt>
<trkpt lat="48.692833" lon="10.066874">
<ele>474.393</ele>
<time>2020-09-10T09:36:43Z</time>
</trkpt>
<trkpt lat="48.692863" lon="10.066945">
<ele>474.342</ele>
<time>2020-09-10T09:36:44Z</time>
</trkpt>
<trkpt lat="48.692894" lon="10.06702">
<ele>474.301</ele>
<time>2020-09-10T09:36:45Z</time>
</trkpt>
<trkpt lat="48.692921" lon="10.067094">
<ele>474.275</ele>
<time>2020-09-10T09:36:46Z</time>
</trkpt>
<trkpt lat="48.692955" lon="10.067165">
<ele>474.275</ele>
<time>2020-09-10T09:36:47Z</time>
</trkpt>
<trkpt lat="48.692982" lon="10.067237">
<ele>474.275</ele>
<time>2020-09-10T09:36:48Z</time>
</trkpt>
<trkpt lat="48.693008" lon="10.067306">
<ele>474.275</ele>
<time>2020-09-10T09:36:49Z</time>
</trkpt>
<trkpt lat="48.693035" lon="10.067373">
<ele>474.275</ele>
<time>2020-09-10T09:36:50Z</time>
</trkpt>
<trkpt lat="48.693066" lon="10.067435">
<ele>474.275</ele>
<time>2020-09-10T09:36:51Z</time>
</trkpt>
<trkpt lat="48.693085" lon="10.067496">
<ele>474.275</ele>
<time>2020-09-10T09:36:52Z</time>
</trkpt>
<trkpt lat="48.693104" lon="10.067558">
<ele>474.067</ele>
<time>2020-09-10T09:36:53Z</time>
</trkpt>
<trkpt lat="48.69313" lon="10.06762">
<ele>473.901</ele>
<time>2020-09-10T09:36:54Z</time>
</trkpt>
<trkpt lat="48.693153" lon="10.067685">
<ele>473.782</ele>
<time>2020-09-10T09:36:55Z</time>
</trkpt>
<trkpt lat="48.69318" lon="10.06775">
<ele>473.652</ele>
<time>2020-09-10T09:36:56Z</time>
</trkpt>
<trkpt lat="48.693203" lon="10.067815">
<ele>473.549</ele>
<time>2020-09-10T09:36:57Z</time>
</trkpt>
<trkpt lat="48.69323" lon="10.06788">
<ele>473.476</ele>
<time>2020-09-10T09:36:58Z</time>
</trkpt>
<trkpt lat="48.693256" lon="10.067946">
<ele>473.427</ele>
<time>2020-09-10T09:36:59Z</time>
</trkpt>
<trkpt lat="48.693283" lon="10.068015">
<ele>473.405</ele>
<time>2020-09-10T09:37:00Z</time>
</trkpt>
<trkpt lat="48.693306" lon="10.068081">
<ele>473.405</ele>
<time>2020-09-10T09:37:01Z</time>
</trkpt>
<trkpt lat="48.693329" lon="10.06815">
<ele>473.405</ele>
<time>2020-09-10T09:37:02Z</time>
</trkpt>
<trkpt lat="48.693359" lon="10.068215">
<ele>473.406</ele>
<time>2020-09-10T09:37:03Z</time>
</trkpt>
<trkpt lat="48.693382" lon="10.068284">
<ele>473.405</ele>
<time>2020-09-10T09:37:04Z</time>
</trkpt>
<trkpt lat="48.693409" lon="10.068352">
<ele>473.405</ele>
<time>2020-09-10T09:37:05Z</time>
</trkpt>
<trkpt lat="48.693436" lon="10.068419">
<ele>473.406</ele>
<time>2020-09-10T09:37:06Z</time>
</trkpt>
<trkpt lat="48.693459" lon="10.068487">
<ele>473.405</ele>
<time>2020-09-10T09:37:07Z</time>
</trkpt>
<trkpt lat="48.693489" lon="10.068552">
<ele>473.405</ele>
<time>2020-09-10T09:37:08Z</time>
</trkpt>
<trkpt lat="48.693512" lon="10.068615">
<ele>473.406</ele>
<time>2020-09-10T09:37:09Z</time>
</trkpt>
<trkpt lat="48.693535" lon="10.068682">
<ele>473.406</ele>
<time>2020-09-10T09:37:10Z</time>
</trkpt>
<trkpt lat="48.693562" lon="10.068741">
<ele>473.405</ele>
<time>2020-09-10T09:37:11Z</time>
</trkpt>
<trkpt lat="48.693588" lon="10.068798">
<ele>473.405</ele>
<time>2020-09-10T09:37:12Z</time>
</trkpt>
<trkpt lat="48.693604" lon="10.068853">
<ele>473.614</ele>
<time>2020-09-10T09:37:13Z</time>
</trkpt>
<trkpt lat="48.693604" lon="10.068913">
<ele>473.781</ele>
<time>2020-09-10T09:37:14Z</time>
</trkpt>
<trkpt lat="48.693596" lon="10.068969">
<ele>473.901</ele>
<time>2020-09-10T09:37:15Z</time>
</trkpt>
<trkpt lat="48.693577" lon="10.069019">
<ele>474.027</ele>
<time>2020-09-10T09:37:16Z</time>
</trkpt>
<trkpt lat="48.693554" lon="10.069068">
<ele>474.127</ele>
<time>2020-09-10T09:37:17Z</time>
</trkpt>
<trkpt lat="48.693527" lon="10.069122">
<ele>474.2</ele>
<time>2020-09-10T09:37:18Z</time>
</trkpt>
<trkpt lat="48.693512" lon="10.06919">
<ele>474.243</ele>
<time>2020-09-10T09:37:19Z</time>
</trkpt>
<trkpt lat="48.693508" lon="10.06927">
<ele>474.029</ele>
<time>2020-09-10T09:37:20Z</time>
</trkpt>
<trkpt lat="48.693512" lon="10.069359">
<ele>473.835</ele>
<time>2020-09-10T09:37:21Z</time>
</trkpt>
<trkpt lat="48.69352" lon="10.069443">
<ele>473.689</ele>
<time>2020-09-10T09:37:22Z</time>
</trkpt>
<trkpt lat="48.693523" lon="10.069531">
<ele>473.586</ele>
<time>2020-09-10T09:37:23Z</time>
</trkpt>
<trkpt lat="48.693523" lon="10.069621">
<ele>473.533</ele>
<time>2020-09-10T09:37:24Z</time>
</trkpt>
<trkpt lat="48.693523" lon="10.069712">
<ele>473.239</ele>
<time>2020-09-10T09:37:25Z</time>
</trkpt>
<trkpt lat="48.693523" lon="10.069798">
<ele>472.992</ele>
<time>2020-09-10T09:37:26Z</time>
</trkpt>
<trkpt lat="48.693523" lon="10.069885">
<ele>472.815</ele>
<time>2020-09-10T09:37:27Z</time>
</trkpt>
<trkpt lat="48.693523" lon="10.069968">
<ele>472.69</ele>
<time>2020-09-10T09:37:28Z</time>
</trkpt>
<trkpt lat="48.693527" lon="10.070052">
<ele>472.593</ele>
<time>2020-09-10T09:37:29Z</time>
</trkpt>
<trkpt lat="48.693527" lon="10.070133">
<ele>472.519</ele>
<time>2020-09-10T09:37:30Z</time>
</trkpt>
<trkpt lat="48.693527" lon="10.070216">
<ele>472.473</ele>
<time>2020-09-10T09:37:31Z</time>
</trkpt>
<trkpt lat="48.693523" lon="10.070298">
<ele>472.45</ele>
<time>2020-09-10T09:37:32Z</time>
</trkpt>
<trkpt lat="48.693523" lon="10.070378">
<ele>472.45</ele>
<time>2020-09-10T09:37:33Z</time>
</trkpt>
<trkpt lat="48.693523" lon="10.070457">
<ele>472.45</ele>
<time>2020-09-10T09:37:34Z</time>
</trkpt>
<trkpt lat="48.693527" lon="10.070535">
<ele>472.45</ele>
<time>2020-09-10T09:37:35Z</time>
</trkpt>
<trkpt lat="48.693531" lon="10.070616">
<ele>472.45</ele>
<time>2020-09-10T09:37:36Z</time>
</trkpt>
<trkpt lat="48.693535" lon="10.070693">
<ele>472.45</ele>
<time>2020-09-10T09:37:37Z</time>
</trkpt>
<trkpt lat="48.693539" lon="10.070771">
<ele>472.45</ele>
<time>2020-09-10T09:37:38Z</time>
</trkpt>
<trkpt lat="48.693539" lon="10.070852">
<ele>472.45</ele>
<time>2020-09-10T09:37:39Z</time>
</trkpt>
<trkpt lat="48.693542" lon="10.070932">
<ele>472.45</ele>
<time>2020-09-10T09:37:40Z</time>
</trkpt>
<trkpt lat="48.693539" lon="10.07101">
<ele>472.45</ele>
<time>2020-09-10T09:37:41Z</time>
</trkpt>
<trkpt lat="48.693535" lon="10.071083">
<ele>472.45</ele>
<time>2020-09-10T09:37:42Z</time>
</trkpt>
<trkpt lat="48.693531" lon="10.071161">
<ele>472.45</ele>
<time>2020-09-10T09:37:43Z</time>
</trkpt>
<trkpt lat="48.693531" lon="10.07124">
<ele>472.45</ele>
<time>2020-09-10T09:37:44Z</time>
</trkpt>
<trkpt lat="48.693523" lon="10.071316">
<ele>472.45</ele>
<time>2020-09-10T09:37:45Z</time>
</trkpt>
<trkpt lat="48.693516" lon="10.071388">
<ele>472.45</ele>
<time>2020-09-10T09:37:46Z</time>
</trkpt>
<trkpt lat="48.693504" lon="10.071462">
<ele>472.45</ele>
<time>2020-09-10T09:37:47Z</time>
</trkpt>
<trkpt lat="48.693489" lon="10.071535">
<ele>472.174</ele>
<time>2020-09-10T09:37:48Z</time>
</trkpt>
<trkpt lat="48.693474" lon="10.071603">
<ele>471.959</ele>
<time>2020-09-10T09:37:49Z</time>
</trkpt>
<trkpt lat="48.693459" lon="10.07167">
<ele>471.796</ele>
<time>2020-09-10T09:37:50Z</time>
</trkpt>
<trkpt lat="48.693443" lon="10.071736">
<ele>471.679</ele>
<time>2020-09-10T09:37:51Z</time>
</trkpt>
<trkpt lat="48.693424" lon="10.071806">
<ele>471.594</ele>
<time>2020-09-10T09:37:52Z</time>
</trkpt>
<trkpt lat="48.693405" lon="10.071873">
<ele>471.541</ele>
<time>2020-09-10T09:37:53Z</time>
</trkpt>
<trkpt lat="48.69339" lon="10.071942">
<ele>471.516</ele>
<time>2020-09-10T09:37:54Z</time>
</trkpt>
<trkpt lat="48.693375" lon="10.07201">
<ele>471.494</ele>
<time>2020-09-10T09:37:55Z</time>
</trkpt>
<trkpt lat="48.693359" lon="10.072081">
<ele>471.494</ele>
<time>2020-09-10T09:37:56Z</time>
</trkpt>
<trkpt lat="48.693344" lon="10.072153">
<ele>471.494</ele>
<time>2020-09-10T09:37:57Z</time>
</trkpt>
<trkpt lat="48.693333" lon="10.072228">
<ele>471.494</ele>
<time>2020-09-10T09:37:58Z</time>
</trkpt>
<trkpt lat="48.693325" lon="10.072303">
<ele>471.494</ele>
<time>2020-09-10T09:37:59Z</time>
</trkpt>
<trkpt lat="48.693317" lon="10.072376">
<ele>471.494</ele>
<time>2020-09-10T09:38:00Z</time>
</trkpt>
<trkpt lat="48.69331" lon="10.072452">
<ele>471.494</ele>
<time>2020-09-10T09:38:01Z</time>
</trkpt>
<trkpt lat="48.693306" lon="10.072527">
<ele>471.494</ele>
<time>2020-09-10T09:38:02Z</time>
</trkpt>
<trkpt lat="48.693302" lon="10.072602">
<ele>471.494</ele>
<time>2020-09-10T09:38:03Z</time>
</trkpt>
<trkpt lat="48.693295" lon="10.072677">
<ele>471.494</ele>
<time>2020-09-10T09:38:04Z</time>
</trkpt>
<trkpt lat="48.693295" lon="10.072751">
<ele>471.494</ele>
<time>2020-09-10T09:38:05Z</time>
</trkpt>
<trkpt lat="48.693295" lon="10.072826">
<ele>471.494</ele>
<time>2020-09-10T09:38:06Z</time>
</trkpt>
<trkpt lat="48.693291" lon="10.072904">
<ele>471.494</ele>
<time>2020-09-10T09:38:07Z</time>
</trkpt>
<trkpt lat="48.693291" lon="10.07298">
<ele>471.494</ele>
<time>2020-09-10T09:38:08Z</time>
</trkpt>
<trkpt lat="48.693291" lon="10.073052">
<ele>471.494</ele>
<time>2020-09-10T09:38:09Z</time>
</trkpt>
<trkpt lat="48.693291" lon="10.07312">
<ele>471.494</ele>
<time>2020-09-10T09:38:10Z</time>
</trkpt>
<trkpt lat="48.693295" lon="10.073187">
<ele>471.494</ele>
<time>2020-09-10T09:38:11Z</time>
</trkpt>
<trkpt lat="48.693295" lon="10.073247">
<ele>471.494</ele>
<time>2020-09-10T09:38:12Z</time>
</trkpt>
<trkpt lat="48.693295" lon="10.073306">
<ele>471.494</ele>
<time>2020-09-10T09:38:13Z</time>
</trkpt>
<trkpt lat="48.693298" lon="10.073367">
<ele>471.494</ele>
<time>2020-09-10T09:38:14Z</time>
</trkpt>
<trkpt lat="48.693302" lon="10.073432">
<ele>471.494</ele>
<time>2020-09-10T09:38:15Z</time>
</trkpt>
<trkpt lat="48.69331" lon="10.073497">
<ele>471.494</ele>
<time>2020-09-10T09:38:16Z</time>
</trkpt>
<trkpt lat="48.69331" lon="10.07356">
<ele>471.494</ele>
<time>2020-09-10T09:38:17Z</time>
</trkpt>
<trkpt lat="48.693314" lon="10.07363">
<ele>471.216</ele>
<time>2020-09-10T09:38:18Z</time>
</trkpt>
<trkpt lat="48.693317" lon="10.073693">
<ele>470.998</ele>
<time>2020-09-10T09:38:19Z</time>
</trkpt>
<trkpt lat="48.693321" lon="10.07376">
<ele>470.83</ele>
<time>2020-09-10T09:38:20Z</time>
</trkpt>
<trkpt lat="48.693329" lon="10.073832">
<ele>470.712</ele>
<time>2020-09-10T09:38:21Z</time>
</trkpt>
<trkpt lat="48.693329" lon="10.0739">
<ele>470.633</ele>
<time>2020-09-10T09:38:22Z</time>
</trkpt>
<trkpt lat="48.69334" lon="10.07397">
<ele>470.584</ele>
<time>2020-09-10T09:38:23Z</time>
</trkpt>
<trkpt lat="48.693356" lon="10.074035">
<ele>470.56</ele>
<time>2020-09-10T09:38:24Z</time>
</trkpt>
<trkpt lat="48.693367" lon="10.0741">
<ele>470.538</ele>
<time>2020-09-10T09:38:25Z</time>
</trkpt>
<trkpt lat="48.693378" lon="10.074163">
<ele>470.538</ele>
<time>2020-09-10T09:38:26Z</time>
</trkpt>
<trkpt lat="48.693386" lon="10.07423">
<ele>470.538</ele>
<time>2020-09-10T09:38:27Z</time>
</trkpt>
<trkpt lat="48.69339" lon="10.074299">
<ele>470.538</ele>
<time>2020-09-10T09:38:28Z</time>
</trkpt>
<trkpt lat="48.693394" lon="10.074364">
<ele>470.538</ele>
<time>2020-09-10T09:38:29Z</time>
</trkpt>
<trkpt lat="48.69339" lon="10.074431">
<ele>470.538</ele>
<time>2020-09-10T09:38:30Z</time>
</trkpt>
<trkpt lat="48.69339" lon="10.074502">
<ele>470.538</ele>
<time>2020-09-10T09:38:31Z</time>
</trkpt>
<trkpt lat="48.69339" lon="10.07457">
<ele>470.784</ele>
<time>2020-09-10T09:38:32Z</time>
</trkpt>
<trkpt lat="48.69339" lon="10.074638">
<ele>470.977</ele>
<time>2020-09-10T09:38:33Z</time>
</trkpt>
<trkpt lat="48.693394" lon="10.074703">
<ele>471.129</ele>
<time>2020-09-10T09:38:34Z</time>
</trkpt>
<trkpt lat="48.693394" lon="10.074768">
<ele>471.229</ele>
<time>2020-09-10T09:38:35Z</time>
</trkpt>
<trkpt lat="48.693394" lon="10.074835">
<ele>471.34</ele>
<time>2020-09-10T09:38:36Z</time>
</trkpt>
<trkpt lat="48.693394" lon="10.074904">
<ele>471.42</ele>
<time>2020-09-10T09:38:37Z</time>
</trkpt>
<trkpt lat="48.693398" lon="10.07498">
<ele>471.469</ele>
<time>2020-09-10T09:38:38Z</time>
</trkpt>
<trkpt lat="48.693398" lon="10.075057">
<ele>471.494</ele>
<time>2020-09-10T09:38:39Z</time>
</trkpt>
<trkpt lat="48.693401" lon="10.075139">
<ele>471.494</ele>
<time>2020-09-10T09:38:40Z</time>
</trkpt>
<trkpt lat="48.693401" lon="10.075221">
<ele>471.494</ele>
<time>2020-09-10T09:38:41Z</time>
</trkpt>
<trkpt lat="48.693398" lon="10.075305">
<ele>471.494</ele>
<time>2020-09-10T09:38:42Z</time>
</trkpt>
<trkpt lat="48.693401" lon="10.075385">
<ele>471.494</ele>
<time>2020-09-10T09:38:43Z</time>
</trkpt>
<trkpt lat="48.693401" lon="10.075466">
<ele>471.494</ele>
<time>2020-09-10T09:38:44Z</time>
</trkpt>
<trkpt lat="48.693401" lon="10.075548">
<ele>471.494</ele>
<time>2020-09-10T09:38:45Z</time>
</trkpt>
<trkpt lat="48.693401" lon="10.07563">
<ele>471.494</ele>
<time>2020-09-10T09:38:46Z</time>
</trkpt>
<trkpt lat="48.693398" lon="10.075711">
<ele>471.494</ele>
<time>2020-09-10T09:38:47Z</time>
</trkpt>
<trkpt lat="48.693394" lon="10.07579">
<ele>471.494</ele>
<time>2020-09-10T09:38:48Z</time>
</trkpt>
<trkpt lat="48.693394" lon="10.075869">
<ele>471.494</ele>
<time>2020-09-10T09:38:49Z</time>
</trkpt>
<trkpt lat="48.69339" lon="10.075948">
<ele>471.494</ele>
<time>2020-09-10T09:38:50Z</time>
</trkpt>
<trkpt lat="48.693382" lon="10.076023">
<ele>471.494</ele>
<time>2020-09-10T09:38:51Z</time>
</trkpt>
<trkpt lat="48.693367" lon="10.076093">
<ele>471.494</ele>
<time>2020-09-10T09:38:52Z</time>
</trkpt>
<trkpt lat="48.693348" lon="10.076161">
<ele>471.494</ele>
<time>2020-09-10T09:38:53Z</time>
</trkpt>
<trkpt lat="48.693325" lon="10.076221">
<ele>471.494</ele>
<time>2020-09-10T09:38:54Z</time>
</trkpt>
<trkpt lat="48.693295" lon="10.076273">
<ele>471.494</ele>
<time>2020-09-10T09:38:55Z</time>
</trkpt>
<trkpt lat="48.693256" lon="10.076317">
<ele>471.494</ele>
<time>2020-09-10T09:38:56Z</time>
</trkpt>
<trkpt lat="48.693214" lon="10.076352">
<ele>471.494</ele>
<time>2020-09-10T09:38:57Z</time>
</trkpt>
<trkpt lat="48.693172" lon="10.076382">
<ele>471.2</ele>
<time>2020-09-10T09:38:58Z</time>
</trkpt>
<trkpt lat="48.69313" lon="10.076413">
<ele>470.966</ele>
<time>2020-09-10T09:38:59Z</time>
</trkpt>
<trkpt lat="48.6931" lon="10.07645">
<ele>470.787</ele>
<time>2020-09-10T09:39:00Z</time>
</trkpt>
<trkpt lat="48.693066" lon="10.076497">
<ele>470.653</ele>
<time>2020-09-10T09:39:01Z</time>
</trkpt>
<trkpt lat="48.693039" lon="10.076545">
<ele>470.56</ele>
<time>2020-09-10T09:39:02Z</time>
</trkpt>
<trkpt lat="48.69302" lon="10.076598">
<ele>470.508</ele>
<time>2020-09-10T09:39:03Z</time>
</trkpt>
<trkpt lat="48.693001" lon="10.076656">
<ele>470.476</ele>
<time>2020-09-10T09:39:04Z</time>
</trkpt>
<trkpt lat="48.692989" lon="10.076718">
<ele>470.451</ele>
<time>2020-09-10T09:39:05Z</time>
</trkpt>
<trkpt lat="48.692978" lon="10.076788">
<ele>470.451</ele>
<time>2020-09-10T09:39:06Z</time>
</trkpt>
<trkpt lat="48.69297" lon="10.076859">
<ele>470.451</ele>
<time>2020-09-10T09:39:07Z</time>
</trkpt>
<trkpt lat="48.692974" lon="10.076932">
<ele>470.451</ele>
<time>2020-09-10T09:39:08Z</time>
</trkpt>
<trkpt lat="48.692989" lon="10.077002">
<ele>470.451</ele>
<time>2020-09-10T09:39:09Z</time>
</trkpt>
<trkpt lat="48.693012" lon="10.077066">
<ele>470.451</ele>
<time>2020-09-10T09:39:10Z</time>
</trkpt>
<trkpt lat="48.693047" lon="10.077119">
<ele>470.451</ele>
<time>2020-09-10T09:39:11Z</time>
</trkpt>
<trkpt lat="48.693085" lon="10.077168">
<ele>470.451</ele>
<time>2020-09-10T09:39:12Z</time>
</trkpt>
<trkpt lat="48.693115" lon="10.077224">
<ele>470.451</ele>
<time>2020-09-10T09:39:13Z</time>
</trkpt>
<trkpt lat="48.693138" lon="10.077287">
<ele>470.451</ele>
<time>2020-09-10T09:39:14Z</time>
</trkpt>
<trkpt lat="48.69315" lon="10.077355">
<ele>470.451</ele>
<time>2020-09-10T09:39:15Z</time>
</trkpt>
<trkpt lat="48.69315" lon="10.077429">
<ele>470.451</ele>
<time>2020-09-10T09:39:16Z</time>
</trkpt>
<trkpt lat="48.693146" lon="10.077505">
<ele>470.451</ele>
<time>2020-09-10T09:39:17Z</time>
</trkpt>
<trkpt lat="48.693134" lon="10.077579">
<ele>470.451</ele>
<time>2020-09-10T09:39:18Z</time>
</trkpt>
<trkpt lat="48.693127" lon="10.07765">
<ele>470.451</ele>
<time>2020-09-10T09:39:19Z</time>
</trkpt>
<trkpt lat="48.693111" lon="10.077723">
<ele>470.214</ele>
<time>2020-09-10T09:39:20Z</time>
</trkpt>
<trkpt lat="48.6931" lon="10.077795">
<ele>470.029</ele>
<time>2020-09-10T09:39:21Z</time>
</trkpt>
<trkpt lat="48.693077" lon="10.077865">
<ele>469.888</ele>
<time>2020-09-10T09:39:22Z</time>
</trkpt>
<trkpt lat="48.693058" lon="10.077936">
<ele>469.784</ele>
<time>2020-09-10T09:39:23Z</time>
</trkpt>
<trkpt lat="48.693035" lon="10.078008">
<ele>469.709</ele>
<time>2020-09-10T09:39:24Z</time>
</trkpt>
<trkpt lat="48.693016" lon="10.078083">
<ele>469.655</ele>
<time>2020-09-10T09:39:25Z</time>
</trkpt>
<trkpt lat="48.692993" lon="10.078156">
<ele>469.605</ele>
<time>2020-09-10T09:39:26Z</time>
</trkpt>
<trkpt lat="48.69297" lon="10.078232">
<ele>469.582</ele>
<time>2020-09-10T09:39:27Z</time>
</trkpt>
<trkpt lat="48.692947" lon="10.078299">
<ele>469.582</ele>
<time>2020-09-10T09:39:28Z</time>
</trkpt>
<trkpt lat="48.692917" lon="10.078359">
<ele>469.582</ele>
<time>2020-09-10T09:39:29Z</time>
</trkpt>
<trkpt lat="48.692883" lon="10.078416">
<ele>469.582</ele>
<time>2020-09-10T09:39:30Z</time>
</trkpt>
<trkpt lat="48.692848" lon="10.078466">
<ele>469.582</ele>
<time>2020-09-10T09:39:31Z</time>
</trkpt>
<trkpt lat="48.692814" lon="10.078521">
<ele>469.582</ele>
<time>2020-09-10T09:39:32Z</time>
</trkpt>
<trkpt lat="48.692795" lon="10.078586">
<ele>469.582</ele>
<time>2020-09-10T09:39:33Z</time>
</trkpt>
<trkpt lat="48.692787" lon="10.078653">
<ele>469.582</ele>
<time>2020-09-10T09:39:34Z</time>
</trkpt>
<trkpt lat="48.692791" lon="10.078718">
<ele>469.582</ele>
<time>2020-09-10T09:39:35Z</time>
</trkpt>
<trkpt lat="48.692776" lon="10.078778">
<ele>469.582</ele>
<time>2020-09-10T09:39:36Z</time>
</trkpt>
<trkpt lat="48.692757" lon="10.078835">
<ele>469.582</ele>
<time>2020-09-10T09:39:37Z</time>
</trkpt>
<trkpt lat="48.692726" lon="10.078897">
<ele>469.582</ele>
<time>2020-09-10T09:39:38Z</time>
</trkpt>
<trkpt lat="48.692699" lon="10.07896">
<ele>469.582</ele>
<time>2020-09-10T09:39:39Z</time>
</trkpt>
<trkpt lat="48.692665" lon="10.079027">
<ele>469.316</ele>
<time>2020-09-10T09:39:40Z</time>
</trkpt>
<trkpt lat="48.692631" lon="10.079092">
<ele>469.105</ele>
<time>2020-09-10T09:39:41Z</time>
</trkpt>
<trkpt lat="48.692596" lon="10.07916">
<ele>468.977</ele>
<time>2020-09-10T09:39:42Z</time>
</trkpt>
<trkpt lat="48.692562" lon="10.079218">
<ele>468.595</ele>
<time>2020-09-10T09:39:43Z</time>
</trkpt>
<trkpt lat="48.692539" lon="10.079284">
<ele>468.354</ele>
<time>2020-09-10T09:39:44Z</time>
</trkpt>
<trkpt lat="48.692524" lon="10.079356">
<ele>467.932</ele>
<time>2020-09-10T09:39:45Z</time>
</trkpt>
<trkpt lat="48.69252" lon="10.079426">
<ele>467.576</ele>
<time>2020-09-10T09:39:46Z</time>
</trkpt>
<trkpt lat="48.692516" lon="10.079494">
<ele>467.303</ele>
<time>2020-09-10T09:39:47Z</time>
</trkpt>
<trkpt lat="48.69252" lon="10.079564">
<ele>467.113</ele>
<time>2020-09-10T09:39:48Z</time>
</trkpt>
<trkpt lat="48.692532" lon="10.079615">
<ele>466.968</ele>
<time>2020-09-10T09:39:49Z</time>
</trkpt>
<trkpt lat="48.692543" lon="10.079692">
<ele>466.873</ele>
<time>2020-09-10T09:39:50Z</time>
</trkpt>
<trkpt lat="48.692535" lon="10.079755">
<ele>466.824</ele>
<time>2020-09-10T09:39:51Z</time>
</trkpt>
<trkpt lat="48.69252" lon="10.079811">
<ele>466.802</ele>
<time>2020-09-10T09:39:52Z</time>
</trkpt>
<trkpt lat="48.692505" lon="10.079877">
<ele>467.014</ele>
<time>2020-09-10T09:39:53Z</time>
</trkpt>
<trkpt lat="48.692478" lon="10.079931">
<ele>467.188</ele>
<time>2020-09-10T09:39:54Z</time>
</trkpt>
<trkpt lat="48.692459" lon="10.07998">
<ele>467.307</ele>
<time>2020-09-10T09:39:55Z</time>
</trkpt>
<trkpt lat="48.692436" lon="10.080031">
<ele>467.434</ele>
<time>2020-09-10T09:39:56Z</time>
</trkpt>
<trkpt lat="48.692413" lon="10.080088">
<ele>467.528</ele>
<time>2020-09-10T09:39:57Z</time>
</trkpt>
<trkpt lat="48.69241" lon="10.080145">
<ele>467.859</ele>
<time>2020-09-10T09:39:58Z</time>
</trkpt>
<trkpt lat="48.692406" lon="10.080205">
<ele>468.148</ele>
<time>2020-09-10T09:39:59Z</time>
</trkpt>
<trkpt lat="48.692398" lon="10.080265">
<ele>468.361</ele>
<time>2020-09-10T09:40:00Z</time>
</trkpt>
<trkpt lat="48.692375" lon="10.080317">
<ele>468.578</ele>
<time>2020-09-10T09:40:01Z</time>
</trkpt>
<trkpt lat="48.692345" lon="10.080363">
<ele>468.683</ele>
<time>2020-09-10T09:40:02Z</time>
</trkpt>
<trkpt lat="48.69231" lon="10.08041">
<ele>468.74</ele>
<time>2020-09-10T09:40:03Z</time>
</trkpt>
<trkpt lat="48.692272" lon="10.080459">
<ele>468.774</ele>
<time>2020-09-10T09:40:04Z</time>
</trkpt>
<trkpt lat="48.692238" lon="10.080506">
<ele>468.58</ele>
<time>2020-09-10T09:40:05Z</time>
</trkpt>
<trkpt lat="48.692204" lon="10.080559">
<ele>468.535</ele>
<time>2020-09-10T09:40:06Z</time>
</trkpt>
<trkpt lat="48.692173" lon="10.080607">
<ele>468.319</ele>
<time>2020-09-10T09:40:07Z</time>
</trkpt>
<trkpt lat="48.692135" lon="10.080653">
<ele>468.145</ele>
<time>2020-09-10T09:40:08Z</time>
</trkpt>
<trkpt lat="48.692101" lon="10.080706">
<ele>468.009</ele>
<time>2020-09-10T09:40:09Z</time>
</trkpt>
<trkpt lat="48.692062" lon="10.080758">
<ele>467.908</ele>
<time>2020-09-10T09:40:10Z</time>
</trkpt>
<trkpt lat="48.692024" lon="10.080811">
<ele>467.832</ele>
<time>2020-09-10T09:40:11Z</time>
</trkpt>
<trkpt lat="48.69199" lon="10.080865">
<ele>467.783</ele>
<time>2020-09-10T09:40:12Z</time>
</trkpt>
<trkpt lat="48.691952" lon="10.080923">
<ele>467.758</ele>
<time>2020-09-10T09:40:13Z</time>
</trkpt>
<trkpt lat="48.691914" lon="10.080978">
<ele>467.758</ele>
<time>2020-09-10T09:40:14Z</time>
</trkpt>
<trkpt lat="48.691872" lon="10.081037">
<ele>467.758</ele>
<time>2020-09-10T09:40:15Z</time>
</trkpt>
<trkpt lat="48.691833" lon="10.081098">
<ele>467.758</ele>
<time>2020-09-10T09:40:16Z</time>
</trkpt>
<trkpt lat="48.691795" lon="10.081161">
<ele>467.758</ele>
<time>2020-09-10T09:40:17Z</time>
</trkpt>
<trkpt lat="48.691761" lon="10.081219">
<ele>467.758</ele>
<time>2020-09-10T09:40:18Z</time>
</trkpt>
<trkpt lat="48.691723" lon="10.081275">
<ele>467.758</ele>
<time>2020-09-10T09:40:19Z</time>
</trkpt>
<trkpt lat="48.691689" lon="10.081333">
<ele>467.521</ele>
<time>2020-09-10T09:40:20Z</time>
</trkpt>
<trkpt lat="48.69165" lon="10.081393">
<ele>467.34</ele>
<time>2020-09-10T09:40:21Z</time>
</trkpt>
<trkpt lat="48.691616" lon="10.081453">
<ele>467.197</ele>
<time>2020-09-10T09:40:22Z</time>
</trkpt>
<trkpt lat="48.691582" lon="10.081513">
<ele>467.095</ele>
<time>2020-09-10T09:40:23Z</time>
</trkpt>
<trkpt lat="48.691555" lon="10.081577">
<ele>467.019</ele>
<time>2020-09-10T09:40:24Z</time>
</trkpt>
<trkpt lat="48.691525" lon="10.08164">
<ele>466.963</ele>
<time>2020-09-10T09:40:25Z</time>
</trkpt>
<trkpt lat="48.691494" lon="10.081703">
<ele>466.913</ele>
<time>2020-09-10T09:40:26Z</time>
</trkpt>
<trkpt lat="48.691463" lon="10.081766">
<ele>466.889</ele>
<time>2020-09-10T09:40:27Z</time>
</trkpt>
<trkpt lat="48.691437" lon="10.081831">
<ele>466.889</ele>
<time>2020-09-10T09:40:28Z</time>
</trkpt>
<trkpt lat="48.691406" lon="10.081898">
<ele>466.889</ele>
<time>2020-09-10T09:40:29Z</time>
</trkpt>
<trkpt lat="48.69138" lon="10.081968">
<ele>466.889</ele>
<time>2020-09-10T09:40:30Z</time>
</trkpt>
<trkpt lat="48.691353" lon="10.082038">
<ele>466.889</ele>
<time>2020-09-10T09:40:31Z</time>
</trkpt>
<trkpt lat="48.69133" lon="10.082111">
<ele>466.889</ele>
<time>2020-09-10T09:40:32Z</time>
</trkpt>
<trkpt lat="48.691303" lon="10.082183">
<ele>466.889</ele>
<time>2020-09-10T09:40:33Z</time>
</trkpt>
<trkpt lat="48.691277" lon="10.082256">
<ele>466.889</ele>
<time>2020-09-10T09:40:34Z</time>
</trkpt>
<trkpt lat="48.691254" lon="10.082335">
<ele>466.889</ele>
<time>2020-09-10T09:40:35Z</time>
</trkpt>
<trkpt lat="48.691235" lon="10.082414">
<ele>466.889</ele>
<time>2020-09-10T09:40:36Z</time>
</trkpt>
<trkpt lat="48.691208" lon="10.082493">
<ele>466.889</ele>
<time>2020-09-10T09:40:37Z</time>
</trkpt>
<trkpt lat="48.691189" lon="10.082579">
<ele>466.889</ele>
<time>2020-09-10T09:40:38Z</time>
</trkpt>
<trkpt lat="48.69117" lon="10.082662">
<ele>466.889</ele>
<time>2020-09-10T09:40:39Z</time>
</trkpt>
<trkpt lat="48.691151" lon="10.082748">
<ele>466.889</ele>
<time>2020-09-10T09:40:40Z</time>
</trkpt>
<trkpt lat="48.691135" lon="10.082838">
<ele>466.889</ele>
<time>2020-09-10T09:40:41Z</time>
</trkpt>
<trkpt lat="48.691116" lon="10.082923">
<ele>466.889</ele>
<time>2020-09-10T09:40:42Z</time>
</trkpt>
<trkpt lat="48.691105" lon="10.083011">
<ele>466.889</ele>
<time>2020-09-10T09:40:43Z</time>
</trkpt>
<trkpt lat="48.691086" lon="10.083097">
<ele>466.889</ele>
<time>2020-09-10T09:40:44Z</time>
</trkpt>
<trkpt lat="48.691078" lon="10.083183">
<ele>466.889</ele>
<time>2020-09-10T09:40:45Z</time>
</trkpt>
<trkpt lat="48.691063" lon="10.08327">
<ele>466.889</ele>
<time>2020-09-10T09:40:46Z</time>
</trkpt>
<trkpt lat="48.691048" lon="10.083357">
<ele>466.889</ele>
<time>2020-09-10T09:40:47Z</time>
</trkpt>
<trkpt lat="48.69104" lon="10.083444">
<ele>466.889</ele>
<time>2020-09-10T09:40:48Z</time>
</trkpt>
<trkpt lat="48.691029" lon="10.08353">
<ele>466.889</ele>
<time>2020-09-10T09:40:49Z</time>
</trkpt>
<trkpt lat="48.691017" lon="10.083616">
<ele>466.889</ele>
<time>2020-09-10T09:40:50Z</time>
</trkpt>
<trkpt lat="48.69101" lon="10.083704">
<ele>466.889</ele>
<time>2020-09-10T09:40:51Z</time>
</trkpt>
<trkpt lat="48.690994" lon="10.08379">
<ele>466.889</ele>
<time>2020-09-10T09:40:52Z</time>
</trkpt>
<trkpt lat="48.690979" lon="10.083879">
<ele>466.889</ele>
<time>2020-09-10T09:40:53Z</time>
</trkpt>
<trkpt lat="48.690968" lon="10.083963">
<ele>466.889</ele>
<time>2020-09-10T09:40:54Z</time>
</trkpt>
<trkpt lat="48.690948" lon="10.084047">
<ele>466.889</ele>
<time>2020-09-10T09:40:55Z</time>
</trkpt>
<trkpt lat="48.690929" lon="10.084126">
<ele>466.889</ele>
<time>2020-09-10T09:40:56Z</time>
</trkpt>
<trkpt lat="48.69091" lon="10.084207">
<ele>466.889</ele>
<time>2020-09-10T09:40:57Z</time>
</trkpt>
<trkpt lat="48.690884" lon="10.084287">
<ele>466.889</ele>
<time>2020-09-10T09:40:58Z</time>
</trkpt>
<trkpt lat="48.690857" lon="10.084364">
<ele>466.889</ele>
<time>2020-09-10T09:40:59Z</time>
</trkpt>
<trkpt lat="48.69083" lon="10.084438">
<ele>466.889</ele>
<time>2020-09-10T09:41:00Z</time>
</trkpt>
<trkpt lat="48.690804" lon="10.084513">
<ele>466.889</ele>
<time>2020-09-10T09:41:01Z</time>
</trkpt>
<trkpt lat="48.690777" lon="10.084585">
<ele>466.889</ele>
<time>2020-09-10T09:41:02Z</time>
</trkpt>
<trkpt lat="48.690746" lon="10.084657">
<ele>466.889</ele>
<time>2020-09-10T09:41:03Z</time>
</trkpt>
<trkpt lat="48.690716" lon="10.084726">
<ele>466.889</ele>
<time>2020-09-10T09:41:04Z</time>
</trkpt>
<trkpt lat="48.690681" lon="10.084797">
<ele>466.889</ele>
<time>2020-09-10T09:41:05Z</time>
</trkpt>
<trkpt lat="48.690651" lon="10.084865">
<ele>466.889</ele>
<time>2020-09-10T09:41:06Z</time>
</trkpt>
<trkpt lat="48.690617" lon="10.084935">
<ele>466.889</ele>
<time>2020-09-10T09:41:07Z</time>
</trkpt>
<trkpt lat="48.690586" lon="10.085005">
<ele>466.889</ele>
<time>2020-09-10T09:41:08Z</time>
</trkpt>
<trkpt lat="48.690552" lon="10.085073">
<ele>466.889</ele>
<time>2020-09-10T09:41:09Z</time>
</trkpt>
<trkpt lat="48.690521" lon="10.085143">
<ele>466.889</ele>
<time>2020-09-10T09:41:10Z</time>
</trkpt>
<trkpt lat="48.690491" lon="10.085213">
<ele>466.889</ele>
<time>2020-09-10T09:41:11Z</time>
</trkpt>
<trkpt lat="48.69046" lon="10.085285">
<ele>466.889</ele>
<time>2020-09-10T09:41:12Z</time>
</trkpt>
<trkpt lat="48.690426" lon="10.085353">
<ele>466.889</ele>
<time>2020-09-10T09:41:13Z</time>
</trkpt>
<trkpt lat="48.690392" lon="10.085423">
<ele>466.889</ele>
<time>2020-09-10T09:41:14Z</time>
</trkpt>
<trkpt lat="48.690361" lon="10.085493">
<ele>466.889</ele>
<time>2020-09-10T09:41:15Z</time>
</trkpt>
<trkpt lat="48.690327" lon="10.085562">
<ele>466.889</ele>
<time>2020-09-10T09:41:16Z</time>
</trkpt>
<trkpt lat="48.690292" lon="10.085629">
<ele>466.889</ele>
<time>2020-09-10T09:41:17Z</time>
</trkpt>
<trkpt lat="48.690258" lon="10.085696">
<ele>466.889</ele>
<time>2020-09-10T09:41:18Z</time>
</trkpt>
<trkpt lat="48.690224" lon="10.085761">
<ele>466.889</ele>
<time>2020-09-10T09:41:19Z</time>
</trkpt>
<trkpt lat="48.690186" lon="10.085827">
<ele>466.889</ele>
<time>2020-09-10T09:41:20Z</time>
</trkpt>
<trkpt lat="48.690151" lon="10.085892">
<ele>466.889</ele>
<time>2020-09-10T09:41:21Z</time>
</trkpt>
<trkpt lat="48.690113" lon="10.085957">
<ele>466.889</ele>
<time>2020-09-10T09:41:22Z</time>
</trkpt>
<trkpt lat="48.690075" lon="10.086021">
<ele>466.889</ele>
<time>2020-09-10T09:41:23Z</time>
</trkpt>
<trkpt lat="48.690037" lon="10.086083">
<ele>466.889</ele>
<time>2020-09-10T09:41:24Z</time>
</trkpt>
<trkpt lat="48.689999" lon="10.086143">
<ele>466.889</ele>
<time>2020-09-10T09:41:25Z</time>
</trkpt>
<trkpt lat="48.689957" lon="10.086207">
<ele>466.889</ele>
<time>2020-09-10T09:41:26Z</time>
</trkpt>
<trkpt lat="48.689911" lon="10.08627">
<ele>466.889</ele>
<time>2020-09-10T09:41:27Z</time>
</trkpt>
<trkpt lat="48.689869" lon="10.086335">
<ele>466.889</ele>
<time>2020-09-10T09:41:28Z</time>
</trkpt>
<trkpt lat="48.689823" lon="10.086402">
<ele>466.592</ele>
<time>2020-09-10T09:41:29Z</time>
</trkpt>
<trkpt lat="48.689777" lon="10.086467">
<ele>466.361</ele>
<time>2020-09-10T09:41:30Z</time>
</trkpt>
<trkpt lat="48.689732" lon="10.086534">
<ele>466.187</ele>
<time>2020-09-10T09:41:31Z</time>
</trkpt>
<trkpt lat="48.68969" lon="10.086603">
<ele>466.058</ele>
<time>2020-09-10T09:41:32Z</time>
</trkpt>
<trkpt lat="48.689644" lon="10.08667">
<ele>465.975</ele>
<time>2020-09-10T09:41:33Z</time>
</trkpt>
<trkpt lat="48.689602" lon="10.086737">
<ele>465.919</ele>
<time>2020-09-10T09:41:34Z</time>
</trkpt>
<trkpt lat="48.689552" lon="10.086802">
<ele>465.875</ele>
<time>2020-09-10T09:41:35Z</time>
</trkpt>
<trkpt lat="48.689514" lon="10.086868">
<ele>465.847</ele>
<time>2020-09-10T09:41:36Z</time>
</trkpt>
<trkpt lat="48.689472" lon="10.086937">
<ele>465.847</ele>
<time>2020-09-10T09:41:37Z</time>
</trkpt>
<trkpt lat="48.689434" lon="10.087007">
<ele>465.847</ele>
<time>2020-09-10T09:41:38Z</time>
</trkpt>
<trkpt lat="48.689392" lon="10.087079">
<ele>465.847</ele>
<time>2020-09-10T09:41:39Z</time>
</trkpt>
<trkpt lat="48.689354" lon="10.087149">
<ele>465.847</ele>
<time>2020-09-10T09:41:40Z</time>
</trkpt>
<trkpt lat="48.689316" lon="10.08722">
<ele>465.847</ele>
<time>2020-09-10T09:41:41Z</time>
</trkpt>
<trkpt lat="48.689278" lon="10.087291">
<ele>465.847</ele>
<time>2020-09-10T09:41:42Z</time>
</trkpt>
<trkpt lat="48.689243" lon="10.087361">
<ele>465.847</ele>
<time>2020-09-10T09:41:43Z</time>
</trkpt>
<trkpt lat="48.689205" lon="10.087435">
<ele>465.847</ele>
<time>2020-09-10T09:41:44Z</time>
</trkpt>
<trkpt lat="48.689175" lon="10.087504">
<ele>465.847</ele>
<time>2020-09-10T09:41:45Z</time>
</trkpt>
<trkpt lat="48.68914" lon="10.087571">
<ele>465.847</ele>
<time>2020-09-10T09:41:46Z</time>
</trkpt>
<trkpt lat="48.689106" lon="10.087639">
<ele>465.847</ele>
<time>2020-09-10T09:41:47Z</time>
</trkpt>
<trkpt lat="48.689072" lon="10.087702">
<ele>465.847</ele>
<time>2020-09-10T09:41:48Z</time>
</trkpt>
<trkpt lat="48.689041" lon="10.087764">
<ele>465.847</ele>
<time>2020-09-10T09:41:49Z</time>
</trkpt>
<trkpt lat="48.689007" lon="10.087825">
<ele>465.847</ele>
<time>2020-09-10T09:41:50Z</time>
</trkpt>
<trkpt lat="48.68898" lon="10.087886">
<ele>465.847</ele>
<time>2020-09-10T09:41:51Z</time>
</trkpt>
<trkpt lat="48.68895" lon="10.087947">
<ele>465.847</ele>
<time>2020-09-10T09:41:52Z</time>
</trkpt>
<trkpt lat="48.688923" lon="10.088003">
<ele>466.058</ele>
<time>2020-09-10T09:41:53Z</time>
</trkpt>
<trkpt lat="48.688892" lon="10.088059">
<ele>466.226</ele>
<time>2020-09-10T09:41:54Z</time>
</trkpt>
<trkpt lat="48.688862" lon="10.088115">
<ele>466.346</ele>
<time>2020-09-10T09:41:55Z</time>
</trkpt>
<trkpt lat="48.688835" lon="10.08817">
<ele>466.473</ele>
<time>2020-09-10T09:41:56Z</time>
</trkpt>
<trkpt lat="48.688808" lon="10.088223">
<ele>466.573</ele>
<time>2020-09-10T09:41:57Z</time>
</trkpt>
<trkpt lat="48.688778" lon="10.088278">
<ele>466.64</ele>
<time>2020-09-10T09:41:58Z</time>
</trkpt>
<trkpt lat="48.688747" lon="10.088335">
<ele>466.941</ele>
<time>2020-09-10T09:41:59Z</time>
</trkpt>
<trkpt lat="48.688721" lon="10.08839">
<ele>467.18</ele>
<time>2020-09-10T09:42:00Z</time>
</trkpt>
<trkpt lat="48.68869" lon="10.088445">
<ele>467.408</ele>
<time>2020-09-10T09:42:01Z</time>
</trkpt>
<trkpt lat="48.68866" lon="10.088498">
<ele>467.54</ele>
<time>2020-09-10T09:42:02Z</time>
</trkpt>
<trkpt lat="48.688633" lon="10.088548">
<ele>467.611</ele>
<time>2020-09-10T09:42:03Z</time>
</trkpt>
<trkpt lat="48.688599" lon="10.0886">
<ele>467.928</ele>
<time>2020-09-10T09:42:04Z</time>
</trkpt>
<trkpt lat="48.688568" lon="10.088652">
<ele>468.163</ele>
<time>2020-09-10T09:42:05Z</time>
</trkpt>
<trkpt lat="48.688534" lon="10.088701">
<ele>468.375</ele>
<time>2020-09-10T09:42:06Z</time>
</trkpt>
<trkpt lat="48.688503" lon="10.088754">
<ele>468.508</ele>
<time>2020-09-10T09:42:07Z</time>
</trkpt>
<trkpt lat="48.688469" lon="10.088805">
<ele>468.885</ele>
<time>2020-09-10T09:42:08Z</time>
</trkpt>
<trkpt lat="48.688438" lon="10.088856">
<ele>469.185</ele>
<time>2020-09-10T09:42:09Z</time>
</trkpt>
<trkpt lat="48.688404" lon="10.088902">
<ele>469.418</ele>
<time>2020-09-10T09:42:10Z</time>
</trkpt>
<trkpt lat="48.688374" lon="10.088948">
<ele>469.557</ele>
<time>2020-09-10T09:42:11Z</time>
</trkpt>
<trkpt lat="48.688335" lon="10.088994">
<ele>469.963</ele>
<time>2020-09-10T09:42:12Z</time>
</trkpt>
<trkpt lat="48.688305" lon="10.089036">
<ele>470.225</ele>
<time>2020-09-10T09:42:13Z</time>
</trkpt>
<trkpt lat="48.688274" lon="10.08908">
<ele>470.4</ele>
<time>2020-09-10T09:42:14Z</time>
</trkpt>
<trkpt lat="48.68824" lon="10.089122">
<ele>470.528</ele>
<time>2020-09-10T09:42:15Z</time>
</trkpt>
<trkpt lat="48.68821" lon="10.089164">
<ele>470.639</ele>
<time>2020-09-10T09:42:16Z</time>
</trkpt>
<trkpt lat="48.688175" lon="10.089207">
<ele>470.721</ele>
<time>2020-09-10T09:42:17Z</time>
</trkpt>
<trkpt lat="48.688145" lon="10.089252">
<ele>470.773</ele>
<time>2020-09-10T09:42:18Z</time>
</trkpt>
<trkpt lat="48.688107" lon="10.089295">
<ele>470.799</ele>
<time>2020-09-10T09:42:19Z</time>
</trkpt>
<trkpt lat="48.688072" lon="10.08934">
<ele>470.799</ele>
<time>2020-09-10T09:42:20Z</time>
</trkpt>
<trkpt lat="48.688034" lon="10.089388">
<ele>470.799</ele>
<time>2020-09-10T09:42:21Z</time>
</trkpt>
<trkpt lat="48.687996" lon="10.089432">
<ele>470.799</ele>
<time>2020-09-10T09:42:22Z</time>
</trkpt>
<trkpt lat="48.687958" lon="10.08948">
<ele>471.043</ele>
<time>2020-09-10T09:42:23Z</time>
</trkpt>
<trkpt lat="48.687923" lon="10.089528">
<ele>471.235</ele>
<time>2020-09-10T09:42:24Z</time>
</trkpt>
<trkpt lat="48.687885" lon="10.089577">
<ele>471.362</ele>
<time>2020-09-10T09:42:25Z</time>
</trkpt>
<trkpt lat="48.687851" lon="10.089626">
<ele>471.5</ele>
<time>2020-09-10T09:42:26Z</time>
</trkpt>
<trkpt lat="48.687817" lon="10.089677">
<ele>471.606</ele>
<time>2020-09-10T09:42:27Z</time>
</trkpt>
<trkpt lat="48.687782" lon="10.089725">
<ele>471.682</ele>
<time>2020-09-10T09:42:28Z</time>
</trkpt>
<trkpt lat="48.687744" lon="10.089769">
<ele>471.73</ele>
<time>2020-09-10T09:42:29Z</time>
</trkpt>
<trkpt lat="48.687706" lon="10.089817">
<ele>471.754</ele>
<time>2020-09-10T09:42:30Z</time>
</trkpt>
<trkpt lat="48.687675" lon="10.089866">
<ele>471.754</ele>
<time>2020-09-10T09:42:31Z</time>
</trkpt>
<trkpt lat="48.687641" lon="10.089913">
<ele>471.754</ele>
<time>2020-09-10T09:42:32Z</time>
</trkpt>
<trkpt lat="48.687607" lon="10.089955">
<ele>471.754</ele>
<time>2020-09-10T09:42:33Z</time>
</trkpt>
<trkpt lat="48.687576" lon="10.089998">
<ele>471.754</ele>
<time>2020-09-10T09:42:34Z</time>
</trkpt>
<trkpt lat="48.687542" lon="10.090042">
<ele>471.754</ele>
<time>2020-09-10T09:42:35Z</time>
</trkpt>
<trkpt lat="48.687504" lon="10.090085">
<ele>471.754</ele>
<time>2020-09-10T09:42:36Z</time>
</trkpt>
<trkpt lat="48.687466" lon="10.090123">
<ele>471.754</ele>
<time>2020-09-10T09:42:37Z</time>
</trkpt>
<trkpt lat="48.687428" lon="10.090167">
<ele>471.754</ele>
<time>2020-09-10T09:42:38Z</time>
</trkpt>
<trkpt lat="48.687393" lon="10.090209">
<ele>471.754</ele>
<time>2020-09-10T09:42:39Z</time>
</trkpt>
<trkpt lat="48.687363" lon="10.09025">
<ele>471.754</ele>
<time>2020-09-10T09:42:40Z</time>
</trkpt>
<trkpt lat="48.687328" lon="10.090286">
<ele>471.754</ele>
<time>2020-09-10T09:42:41Z</time>
</trkpt>
<trkpt lat="48.687294" lon="10.090324">
<ele>471.754</ele>
<time>2020-09-10T09:42:42Z</time>
</trkpt>
<trkpt lat="48.687256" lon="10.090364">
<ele>471.754</ele>
<time>2020-09-10T09:42:43Z</time>
</trkpt>
<trkpt lat="48.687218" lon="10.090404">
<ele>471.754</ele>
<time>2020-09-10T09:42:44Z</time>
</trkpt>
<trkpt lat="48.687183" lon="10.090446">
<ele>471.754</ele>
<time>2020-09-10T09:42:45Z</time>
</trkpt>
<trkpt lat="48.687149" lon="10.090494">
<ele>471.754</ele>
<time>2020-09-10T09:42:46Z</time>
</trkpt>
<trkpt lat="48.687111" lon="10.09054">
<ele>471.754</ele>
<time>2020-09-10T09:42:47Z</time>
</trkpt>
<trkpt lat="48.687073" lon="10.09058">
<ele>472.036</ele>
<time>2020-09-10T09:42:48Z</time>
</trkpt>
<trkpt lat="48.687035" lon="10.090618">
<ele>472.253</ele>
<time>2020-09-10T09:42:49Z</time>
</trkpt>
<trkpt lat="48.686996" lon="10.090657">
<ele>472.412</ele>
<time>2020-09-10T09:42:50Z</time>
</trkpt>
<trkpt lat="48.686954" lon="10.090695">
<ele>472.529</ele>
<time>2020-09-10T09:42:51Z</time>
</trkpt>
<trkpt lat="48.686913" lon="10.090734">
<ele>472.609</ele>
<time>2020-09-10T09:42:52Z</time>
</trkpt>
<trkpt lat="48.686874" lon="10.090771">
<ele>472.66</ele>
<time>2020-09-10T09:42:53Z</time>
</trkpt>
<trkpt lat="48.68684" lon="10.09081">
<ele>472.688</ele>
<time>2020-09-10T09:42:54Z</time>
</trkpt>
<trkpt lat="48.686802" lon="10.090848">
<ele>472.711</ele>
<time>2020-09-10T09:42:55Z</time>
</trkpt>
<trkpt lat="48.686768" lon="10.090888">
<ele>472.711</ele>
<time>2020-09-10T09:42:56Z</time>
</trkpt>
<trkpt lat="48.686733" lon="10.090925">
<ele>472.991</ele>
<time>2020-09-10T09:42:57Z</time>
</trkpt>
<trkpt lat="48.686699" lon="10.090963">
<ele>473.205</ele>
<time>2020-09-10T09:42:58Z</time>
</trkpt>
<trkpt lat="48.686665" lon="10.091003">
<ele>473.371</ele>
<time>2020-09-10T09:42:59Z</time>
</trkpt>
<trkpt lat="48.68663" lon="10.091043">
<ele>473.496</ele>
<time>2020-09-10T09:43:00Z</time>
</trkpt>
<trkpt lat="48.686596" lon="10.091082">
<ele>473.584</ele>
<time>2020-09-10T09:43:01Z</time>
</trkpt>
<trkpt lat="48.686562" lon="10.091121">
<ele>473.637</ele>
<time>2020-09-10T09:43:02Z</time>
</trkpt>
<trkpt lat="48.686531" lon="10.091156">
<ele>473.662</ele>
<time>2020-09-10T09:43:03Z</time>
</trkpt>
<trkpt lat="48.686493" lon="10.091195">
<ele>473.666</ele>
<time>2020-09-10T09:43:04Z</time>
</trkpt>
<trkpt lat="48.686459" lon="10.091235">
<ele>473.666</ele>
<time>2020-09-10T09:43:05Z</time>
</trkpt>
<trkpt lat="48.686424" lon="10.091277">
<ele>473.9</ele>
<time>2020-09-10T09:43:06Z</time>
</trkpt>
<trkpt lat="48.68639" lon="10.091318">
<ele>474.095</ele>
<time>2020-09-10T09:43:07Z</time>
</trkpt>
<trkpt lat="48.686356" lon="10.091357">
<ele>474.257</ele>
<time>2020-09-10T09:43:08Z</time>
</trkpt>
<trkpt lat="48.686325" lon="10.091399">
<ele>474.385</ele>
<time>2020-09-10T09:43:09Z</time>
</trkpt>
<trkpt lat="48.686291" lon="10.091436">
<ele>474.485</ele>
<time>2020-09-10T09:43:10Z</time>
</trkpt>
<trkpt lat="48.686256" lon="10.091475">
<ele>474.556</ele>
<time>2020-09-10T09:43:11Z</time>
</trkpt>
<trkpt lat="48.686222" lon="10.091512">
<ele>474.6</ele>
<time>2020-09-10T09:43:12Z</time>
</trkpt>
<trkpt lat="48.686188" lon="10.091548">
<ele>474.622</ele>
<time>2020-09-10T09:43:13Z</time>
</trkpt>
<trkpt lat="48.686153" lon="10.091585">
<ele>474.622</ele>
<time>2020-09-10T09:43:14Z</time>
</trkpt>
<trkpt lat="48.686115" lon="10.091623">
<ele>474.622</ele>
<time>2020-09-10T09:43:15Z</time>
</trkpt>
<trkpt lat="48.686081" lon="10.091661">
<ele>474.857</ele>
<time>2020-09-10T09:43:16Z</time>
</trkpt>
<trkpt lat="48.686043" lon="10.091701">
<ele>475.053</ele>
<time>2020-09-10T09:43:17Z</time>
</trkpt>
<trkpt lat="48.686005" lon="10.091741">
<ele>475.216</ele>
<time>2020-09-10T09:43:18Z</time>
</trkpt>
<trkpt lat="48.68597" lon="10.091779">
<ele>475.344</ele>
<time>2020-09-10T09:43:19Z</time>
</trkpt>
<trkpt lat="48.685932" lon="10.091818">
<ele>475.441</ele>
<time>2020-09-10T09:43:20Z</time>
</trkpt>
<trkpt lat="48.685894" lon="10.091858">
<ele>475.512</ele>
<time>2020-09-10T09:43:21Z</time>
</trkpt>
<trkpt lat="48.68586" lon="10.091902">
<ele>475.556</ele>
<time>2020-09-10T09:43:22Z</time>
</trkpt>
<trkpt lat="48.685822" lon="10.091944">
<ele>475.578</ele>
<time>2020-09-10T09:43:23Z</time>
</trkpt>
<trkpt lat="48.685791" lon="10.091984">
<ele>475.578</ele>
<time>2020-09-10T09:43:24Z</time>
</trkpt>
<trkpt lat="48.685753" lon="10.092026">
<ele>475.579</ele>
<time>2020-09-10T09:43:25Z</time>
</trkpt>
<trkpt lat="48.685715" lon="10.092063">
<ele>475.578</ele>
<time>2020-09-10T09:43:26Z</time>
</trkpt>
<trkpt lat="48.685677" lon="10.092101">
<ele>475.578</ele>
<time>2020-09-10T09:43:27Z</time>
</trkpt>
<trkpt lat="48.685642" lon="10.092141">
<ele>475.578</ele>
<time>2020-09-10T09:43:28Z</time>
</trkpt>
<trkpt lat="48.6856" lon="10.09218">
<ele>475.578</ele>
<time>2020-09-10T09:43:29Z</time>
</trkpt>
<trkpt lat="48.68557" lon="10.092222">
<ele>475.578</ele>
<time>2020-09-10T09:43:30Z</time>
</trkpt>
<trkpt lat="48.685532" lon="10.092263">
<ele>475.578</ele>
<time>2020-09-10T09:43:31Z</time>
</trkpt>
<trkpt lat="48.685493" lon="10.09231">
<ele>475.578</ele>
<time>2020-09-10T09:43:32Z</time>
</trkpt>
<trkpt lat="48.685455" lon="10.092355">
<ele>475.578</ele>
<time>2020-09-10T09:43:33Z</time>
</trkpt>
<trkpt lat="48.685425" lon="10.092405">
<ele>475.578</ele>
<time>2020-09-10T09:43:34Z</time>
</trkpt>
<trkpt lat="48.68539" lon="10.092453">
<ele>475.578</ele>
<time>2020-09-10T09:43:35Z</time>
</trkpt>
<trkpt lat="48.685356" lon="10.092497">
<ele>475.578</ele>
<time>2020-09-10T09:43:36Z</time>
</trkpt>
<trkpt lat="48.685322" lon="10.092539">
<ele>475.578</ele>
<time>2020-09-10T09:43:37Z</time>
</trkpt>
<trkpt lat="48.685291" lon="10.092583">
<ele>475.578</ele>
<time>2020-09-10T09:43:38Z</time>
</trkpt>
<trkpt lat="48.685261" lon="10.092631">
<ele>475.578</ele>
<time>2020-09-10T09:43:39Z</time>
</trkpt>
<trkpt lat="48.685234" lon="10.092682">
<ele>475.578</ele>
<time>2020-09-10T09:43:40Z</time>
</trkpt>
<trkpt lat="48.685204" lon="10.092738">
<ele>475.578</ele>
<time>2020-09-10T09:43:41Z</time>
</trkpt>
<trkpt lat="48.685169" lon="10.092791">
<ele>475.578</ele>
<time>2020-09-10T09:43:42Z</time>
</trkpt>
<trkpt lat="48.685139" lon="10.09284">
<ele>475.578</ele>
<time>2020-09-10T09:43:43Z</time>
</trkpt>
<trkpt lat="48.685108" lon="10.092898">
<ele>475.579</ele>
<time>2020-09-10T09:43:44Z</time>
</trkpt>
<trkpt lat="48.685074" lon="10.09296">
<ele>475.578</ele>
<time>2020-09-10T09:43:45Z</time>
</trkpt>
<trkpt lat="48.685043" lon="10.093017">
<ele>475.578</ele>
<time>2020-09-10T09:43:46Z</time>
</trkpt>
<trkpt lat="48.685013" lon="10.093071">
<ele>475.578</ele>
<time>2020-09-10T09:43:47Z</time>
</trkpt>
<trkpt lat="48.684982" lon="10.093127">
<ele>475.578</ele>
<time>2020-09-10T09:43:48Z</time>
</trkpt>
<trkpt lat="48.684956" lon="10.09318">
<ele>475.578</ele>
<time>2020-09-10T09:43:49Z</time>
</trkpt>
<trkpt lat="48.684925" lon="10.093232">
<ele>475.578</ele>
<time>2020-09-10T09:43:50Z</time>
</trkpt>
<trkpt lat="48.684895" lon="10.093282">
<ele>475.578</ele>
<time>2020-09-10T09:43:51Z</time>
</trkpt>
<trkpt lat="48.68486" lon="10.093339">
<ele>475.798</ele>
<time>2020-09-10T09:43:52Z</time>
</trkpt>
<trkpt lat="48.684826" lon="10.093398">
<ele>475.974</ele>
<time>2020-09-10T09:43:53Z</time>
</trkpt>
<trkpt lat="48.684795" lon="10.09347">
<ele>476.117</ele>
<time>2020-09-10T09:43:54Z</time>
</trkpt>
<trkpt lat="48.684761" lon="10.093534">
<ele>476.21</ele>
<time>2020-09-10T09:43:55Z</time>
</trkpt>
<trkpt lat="48.684731" lon="10.093599">
<ele>476.262</ele>
<time>2020-09-10T09:43:56Z</time>
</trkpt>
<trkpt lat="48.6847" lon="10.093666">
<ele>476.01</ele>
<time>2020-09-10T09:43:57Z</time>
</trkpt>
<trkpt lat="48.684666" lon="10.093735">
<ele>475.801</ele>
<time>2020-09-10T09:43:58Z</time>
</trkpt>
<trkpt lat="48.684628" lon="10.093804">
<ele>475.635</ele>
<time>2020-09-10T09:43:59Z</time>
</trkpt>
<trkpt lat="48.684593" lon="10.093871">
<ele>475.5</ele>
<time>2020-09-10T09:44:00Z</time>
</trkpt>
<trkpt lat="48.684559" lon="10.093937">
<ele>475.405</ele>
<time>2020-09-10T09:44:01Z</time>
</trkpt>
<trkpt lat="48.684528" lon="10.094002">
<ele>475.347</ele>
<time>2020-09-10T09:44:02Z</time>
</trkpt>
<trkpt lat="48.684494" lon="10.094064">
<ele>475.318</ele>
<time>2020-09-10T09:44:03Z</time>
</trkpt>
<trkpt lat="48.684456" lon="10.094121">
<ele>475.318</ele>
<time>2020-09-10T09:44:04Z</time>
</trkpt>
<trkpt lat="48.684418" lon="10.09418">
<ele>475.318</ele>
<time>2020-09-10T09:44:05Z</time>
</trkpt>
<trkpt lat="48.684383" lon="10.09424">
<ele>475.318</ele>
<time>2020-09-10T09:44:06Z</time>
</trkpt>
<trkpt lat="48.684345" lon="10.0943">
<ele>475.037</ele>
<time>2020-09-10T09:44:07Z</time>
</trkpt>
<trkpt lat="48.684311" lon="10.094363">
<ele>474.816</ele>
<time>2020-09-10T09:44:08Z</time>
</trkpt>
<trkpt lat="48.684273" lon="10.09443">
<ele>474.647</ele>
<time>2020-09-10T09:44:09Z</time>
</trkpt>
<trkpt lat="48.684238" lon="10.0945">
<ele>474.524</ele>
<time>2020-09-10T09:44:10Z</time>
</trkpt>
<trkpt lat="48.6842" lon="10.094569">
<ele>474.44</ele>
<time>2020-09-10T09:44:11Z</time>
</trkpt>
<trkpt lat="48.684166" lon="10.094645">
<ele>474.39</ele>
<time>2020-09-10T09:44:12Z</time>
</trkpt>
<trkpt lat="48.684124" lon="10.09472">
<ele>474.142</ele>
<time>2020-09-10T09:44:13Z</time>
</trkpt>
<trkpt lat="48.684086" lon="10.094798">
<ele>473.961</ele>
<time>2020-09-10T09:44:14Z</time>
</trkpt>
<trkpt lat="48.684044" lon="10.094881">
<ele>473.844</ele>
<time>2020-09-10T09:44:15Z</time>
</trkpt>
<trkpt lat="48.684002" lon="10.094965">
<ele>473.431</ele>
<time>2020-09-10T09:44:16Z</time>
</trkpt>
<trkpt lat="48.683964" lon="10.09505">
<ele>473.1</ele>
<time>2020-09-10T09:44:17Z</time>
</trkpt>
<trkpt lat="48.683922" lon="10.095135">
<ele>472.843</ele>
<time>2020-09-10T09:44:18Z</time>
</trkpt>
<trkpt lat="48.683876" lon="10.095221">
<ele>472.652</ele>
<time>2020-09-10T09:44:19Z</time>
</trkpt>
<trkpt lat="48.683834" lon="10.095306">
<ele>472.544</ele>
<time>2020-09-10T09:44:20Z</time>
</trkpt>
<trkpt lat="48.683784" lon="10.095395">
<ele>472.21</ele>
<time>2020-09-10T09:44:21Z</time>
</trkpt>
<trkpt lat="48.683743" lon="10.095483">
<ele>471.954</ele>
<time>2020-09-10T09:44:22Z</time>
</trkpt>
<trkpt lat="48.683697" lon="10.095572">
<ele>471.768</ele>
<time>2020-09-10T09:44:23Z</time>
</trkpt>
<trkpt lat="48.683647" lon="10.095658">
<ele>471.667</ele>
<time>2020-09-10T09:44:24Z</time>
</trkpt>
<trkpt lat="48.683605" lon="10.095737">
<ele>471.348</ele>
<time>2020-09-10T09:44:25Z</time>
</trkpt>
<trkpt lat="48.683559" lon="10.095812">
<ele>471.069</ele>
<time>2020-09-10T09:44:26Z</time>
</trkpt>
<trkpt lat="48.683514" lon="10.095891">
<ele>470.856</ele>
<time>2020-09-10T09:44:27Z</time>
</trkpt>
<trkpt lat="48.683472" lon="10.09597">
<ele>470.701</ele>
<time>2020-09-10T09:44:28Z</time>
</trkpt>
<trkpt lat="48.683426" lon="10.096052">
<ele>470.615</ele>
<time>2020-09-10T09:44:29Z</time>
</trkpt>
<trkpt lat="48.683384" lon="10.096136">
<ele>470.323</ele>
<time>2020-09-10T09:44:30Z</time>
</trkpt>
<trkpt lat="48.683346" lon="10.096218">
<ele>470.092</ele>
<time>2020-09-10T09:44:31Z</time>
</trkpt>
<trkpt lat="48.6833" lon="10.0963">
<ele>469.918</ele>
<time>2020-09-10T09:44:32Z</time>
</trkpt>
<trkpt lat="48.683258" lon="10.096378">
<ele>469.784</ele>
<time>2020-09-10T09:44:33Z</time>
</trkpt>
<trkpt lat="48.68322" lon="10.096455">
<ele>469.708</ele>
<time>2020-09-10T09:44:34Z</time>
</trkpt>
<trkpt lat="48.683178" lon="10.096534">
<ele>469.654</ele>
<time>2020-09-10T09:44:35Z</time>
</trkpt>
<trkpt lat="48.683136" lon="10.096608">
<ele>469.605</ele>
<time>2020-09-10T09:44:36Z</time>
</trkpt>
<trkpt lat="48.683094" lon="10.096688">
<ele>469.582</ele>
<time>2020-09-10T09:44:37Z</time>
</trkpt>
<trkpt lat="48.68306" lon="10.09677">
<ele>469.582</ele>
<time>2020-09-10T09:44:38Z</time>
</trkpt>
<trkpt lat="48.683018" lon="10.09685">
<ele>469.582</ele>
<time>2020-09-10T09:44:39Z</time>
</trkpt>
<trkpt lat="48.68298" lon="10.096932">
<ele>469.582</ele>
<time>2020-09-10T09:44:40Z</time>
</trkpt>
<trkpt lat="48.682941" lon="10.09701">
<ele>469.582</ele>
<time>2020-09-10T09:44:41Z</time>
</trkpt>
<trkpt lat="48.682899" lon="10.097087">
<ele>469.582</ele>
<time>2020-09-10T09:44:42Z</time>
</trkpt>
<trkpt lat="48.682861" lon="10.097161">
<ele>469.582</ele>
<time>2020-09-10T09:44:43Z</time>
</trkpt>
<trkpt lat="48.682823" lon="10.097239">
<ele>469.582</ele>
<time>2020-09-10T09:44:44Z</time>
</trkpt>
<trkpt lat="48.682785" lon="10.097316">
<ele>469.582</ele>
<time>2020-09-10T09:44:45Z</time>
</trkpt>
<trkpt lat="48.682747" lon="10.097393">
<ele>469.582</ele>
<time>2020-09-10T09:44:46Z</time>
</trkpt>
<trkpt lat="48.682709" lon="10.097473">
<ele>469.582</ele>
<time>2020-09-10T09:44:47Z</time>
</trkpt>
<trkpt lat="48.682671" lon="10.097552">
<ele>469.305</ele>
<time>2020-09-10T09:44:48Z</time>
</trkpt>
<trkpt lat="48.682636" lon="10.09763">
<ele>469.09</ele>
<time>2020-09-10T09:44:49Z</time>
</trkpt>
<trkpt lat="48.682602" lon="10.097707">
<ele>468.929</ele>
<time>2020-09-10T09:44:50Z</time>
</trkpt>
<trkpt lat="48.682564" lon="10.097783">
<ele>468.81</ele>
<time>2020-09-10T09:44:51Z</time>
</trkpt>
<trkpt lat="48.682526" lon="10.09786">
<ele>468.725</ele>
<time>2020-09-10T09:44:52Z</time>
</trkpt>
<trkpt lat="48.682484" lon="10.097939">
<ele>468.685</ele>
<time>2020-09-10T09:44:53Z</time>
</trkpt>
<trkpt lat="48.682449" lon="10.098015">
<ele>468.399</ele>
<time>2020-09-10T09:44:54Z</time>
</trkpt>
<trkpt lat="48.682411" lon="10.098091">
<ele>468.192</ele>
<time>2020-09-10T09:44:55Z</time>
</trkpt>
<trkpt lat="48.682373" lon="10.098166">
<ele>468.006</ele>
<time>2020-09-10T09:44:56Z</time>
</trkpt>
<trkpt lat="48.682343" lon="10.098242">
<ele>467.857</ele>
<time>2020-09-10T09:44:57Z</time>
</trkpt>
<trkpt lat="48.682304" lon="10.098318">
<ele>467.757</ele>
<time>2020-09-10T09:44:58Z</time>
</trkpt>
<trkpt lat="48.682266" lon="10.098395">
<ele>467.438</ele>
<time>2020-09-10T09:44:59Z</time>
</trkpt>
<trkpt lat="48.682232" lon="10.09847">
<ele>467.187</ele>
<time>2020-09-10T09:45:00Z</time>
</trkpt>
<trkpt lat="48.682194" lon="10.098545">
<ele>467.03</ele>
<time>2020-09-10T09:45:01Z</time>
</trkpt>
<trkpt lat="48.682159" lon="10.098617">
<ele>466.603</ele>
<time>2020-09-10T09:45:02Z</time>
</trkpt>
<trkpt lat="48.682117" lon="10.098688">
<ele>466.321</ele>
<time>2020-09-10T09:45:03Z</time>
</trkpt>
<trkpt lat="48.682079" lon="10.098755">
<ele>466.152</ele>
<time>2020-09-10T09:45:04Z</time>
</trkpt>
<trkpt lat="48.682034" lon="10.098816">
<ele>465.773</ele>
<time>2020-09-10T09:45:05Z</time>
</trkpt>
<trkpt lat="48.681984" lon="10.098875">
<ele>465.456</ele>
<time>2020-09-10T09:45:06Z</time>
</trkpt>
<trkpt lat="48.681931" lon="10.098929">
<ele>465.248</ele>
<time>2020-09-10T09:45:07Z</time>
</trkpt>
<trkpt lat="48.681881" lon="10.098984">
<ele>464.83</ele>
<time>2020-09-10T09:45:08Z</time>
</trkpt>
<trkpt lat="48.681824" lon="10.099033">
<ele>464.549</ele>
<time>2020-09-10T09:45:09Z</time>
</trkpt>
<trkpt lat="48.68177" lon="10.09908">
<ele>464.09</ele>
<time>2020-09-10T09:45:10Z</time>
</trkpt>
<trkpt lat="48.681717" lon="10.099126">
<ele>463.773</ele>
<time>2020-09-10T09:45:11Z</time>
</trkpt>
<trkpt lat="48.68166" lon="10.099166">
<ele>463.252</ele>
<time>2020-09-10T09:45:12Z</time>
</trkpt>
<trkpt lat="48.681606" lon="10.099208">
<ele>462.855</ele>
<time>2020-09-10T09:45:13Z</time>
</trkpt>
<trkpt lat="48.681557" lon="10.09925">
<ele>462.331</ele>
<time>2020-09-10T09:45:14Z</time>
</trkpt>
<trkpt lat="48.681507" lon="10.09929">
<ele>461.937</ele>
<time>2020-09-10T09:45:15Z</time>
</trkpt>
<trkpt lat="48.681461" lon="10.09933">
<ele>461.351</ele>
<time>2020-09-10T09:45:16Z</time>
</trkpt>
<trkpt lat="48.681423" lon="10.09938">
<ele>460.936</ele>
<time>2020-09-10T09:45:17Z</time>
</trkpt>
<trkpt lat="48.681393" lon="10.09944">
<ele>460.338</ele>
<time>2020-09-10T09:45:18Z</time>
</trkpt>
<trkpt lat="48.68137" lon="10.099513">
<ele>459.871</ele>
<time>2020-09-10T09:45:19Z</time>
</trkpt>
<trkpt lat="48.681358" lon="10.099593">
<ele>459.568</ele>
<time>2020-09-10T09:45:20Z</time>
</trkpt>
<trkpt lat="48.681343" lon="10.099684">
<ele>459.053</ele>
<time>2020-09-10T09:45:21Z</time>
</trkpt>
<trkpt lat="48.681332" lon="10.099775">
<ele>458.67</ele>
<time>2020-09-10T09:45:22Z</time>
</trkpt>
<trkpt lat="48.681316" lon="10.099865">
<ele>458.388</ele>
<time>2020-09-10T09:45:23Z</time>
</trkpt>
<trkpt lat="48.681305" lon="10.099958">
<ele>458.231</ele>
<time>2020-09-10T09:45:24Z</time>
</trkpt>
<trkpt lat="48.681293" lon="10.100055">
<ele>457.896</ele>
<time>2020-09-10T09:45:25Z</time>
</trkpt>
<trkpt lat="48.681282" lon="10.100152">
<ele>457.627</ele>
<time>2020-09-10T09:45:26Z</time>
</trkpt>
<trkpt lat="48.681267" lon="10.10025">
<ele>457.432</ele>
<time>2020-09-10T09:45:27Z</time>
</trkpt>
<trkpt lat="48.681255" lon="10.100349">
<ele>457.312</ele>
<time>2020-09-10T09:45:28Z</time>
</trkpt>
<trkpt lat="48.681244" lon="10.100451">
<ele>456.914</ele>
<time>2020-09-10T09:45:29Z</time>
</trkpt>
<trkpt lat="48.681232" lon="10.100554">
<ele>456.592</ele>
<time>2020-09-10T09:45:30Z</time>
</trkpt>
<trkpt lat="48.681221" lon="10.100654">
<ele>456.343</ele>
<time>2020-09-10T09:45:31Z</time>
</trkpt>
<trkpt lat="48.681206" lon="10.100754">
<ele>456.162</ele>
<time>2020-09-10T09:45:32Z</time>
</trkpt>
<trkpt lat="48.681198" lon="10.100853">
<ele>456.017</ele>
<time>2020-09-10T09:45:33Z</time>
</trkpt>
<trkpt lat="48.681187" lon="10.100953">
<ele>455.964</ele>
<time>2020-09-10T09:45:34Z</time>
</trkpt>
<trkpt lat="48.681168" lon="10.101051">
<ele>455.705</ele>
<time>2020-09-10T09:45:35Z</time>
</trkpt>
<trkpt lat="48.68116" lon="10.10115">
<ele>455.49</ele>
<time>2020-09-10T09:45:36Z</time>
</trkpt>
<trkpt lat="48.681149" lon="10.101244">
<ele>455.342</ele>
<time>2020-09-10T09:45:37Z</time>
</trkpt>
<trkpt lat="48.681133" lon="10.101336">
<ele>455.222</ele>
<time>2020-09-10T09:45:38Z</time>
</trkpt>
<trkpt lat="48.681126" lon="10.101426">
<ele>455.129</ele>
<time>2020-09-10T09:45:39Z</time>
</trkpt>
<trkpt lat="48.681118" lon="10.101515">
<ele>455.062</ele>
<time>2020-09-10T09:45:40Z</time>
</trkpt>
<trkpt lat="48.681103" lon="10.101598">
<ele>455.018</ele>
<time>2020-09-10T09:45:41Z</time>
</trkpt>
<trkpt lat="48.681095" lon="10.101682">
<ele>454.997</ele>
<time>2020-09-10T09:45:42Z</time>
</trkpt>
<trkpt lat="48.681084" lon="10.101764">
<ele>454.997</ele>
<time>2020-09-10T09:45:43Z</time>
</trkpt>
<trkpt lat="48.681072" lon="10.101845">
<ele>454.997</ele>
<time>2020-09-10T09:45:44Z</time>
</trkpt>
<trkpt lat="48.681065" lon="10.101925">
<ele>454.997</ele>
<time>2020-09-10T09:45:45Z</time>
</trkpt>
<trkpt lat="48.681053" lon="10.102005">
<ele>454.997</ele>
<time>2020-09-10T09:45:46Z</time>
</trkpt>
<trkpt lat="48.681042" lon="10.102084">
<ele>454.997</ele>
<time>2020-09-10T09:45:47Z</time>
</trkpt>
<trkpt lat="48.68103" lon="10.10216">
<ele>454.997</ele>
<time>2020-09-10T09:45:48Z</time>
</trkpt>
<trkpt lat="48.681023" lon="10.102235">
<ele>454.997</ele>
<time>2020-09-10T09:45:49Z</time>
</trkpt>
<trkpt lat="48.681011" lon="10.102304">
<ele>454.997</ele>
<time>2020-09-10T09:45:50Z</time>
</trkpt>
<trkpt lat="48.681004" lon="10.102373">
<ele>454.997</ele>
<time>2020-09-10T09:45:51Z</time>
</trkpt>
<trkpt lat="48.680996" lon="10.102438">
<ele>454.761</ele>
<time>2020-09-10T09:45:52Z</time>
</trkpt>
<trkpt lat="48.680988" lon="10.102505">
<ele>454.572</ele>
<time>2020-09-10T09:45:53Z</time>
</trkpt>
<trkpt lat="48.680981" lon="10.102572">
<ele>454.425</ele>
<time>2020-09-10T09:45:54Z</time>
</trkpt>
<trkpt lat="48.680984" lon="10.102638">
<ele>454.32</ele>
<time>2020-09-10T09:45:55Z</time>
</trkpt>
<trkpt lat="48.680984" lon="10.102707">
<ele>454.207</ele>
<time>2020-09-10T09:45:56Z</time>
</trkpt>
<trkpt lat="48.680988" lon="10.102777">
<ele>454.122</ele>
<time>2020-09-10T09:45:57Z</time>
</trkpt>
<trkpt lat="48.680984" lon="10.102842">
<ele>454.068</ele>
<time>2020-09-10T09:45:58Z</time>
</trkpt>
<trkpt lat="48.680973" lon="10.102901">
<ele>454.043</ele>
<time>2020-09-10T09:45:59Z</time>
</trkpt>
<trkpt lat="48.680958" lon="10.10296">
<ele>454.043</ele>
<time>2020-09-10T09:46:00Z</time>
</trkpt>
<trkpt lat="48.680939" lon="10.103008">
<ele>454.043</ele>
<time>2020-09-10T09:46:01Z</time>
</trkpt>
<trkpt lat="48.680916" lon="10.103054">
<ele>454.043</ele>
<time>2020-09-10T09:46:02Z</time>
</trkpt>
<trkpt lat="48.680897" lon="10.1031">
<ele>454.043</ele>
<time>2020-09-10T09:46:03Z</time>
</trkpt>
<trkpt lat="48.680878" lon="10.103155">
<ele>454.043</ele>
<time>2020-09-10T09:46:04Z</time>
</trkpt>
<trkpt lat="48.680866" lon="10.103201">
<ele>454.043</ele>
<time>2020-09-10T09:46:05Z</time>
</trkpt>
<trkpt lat="48.680851" lon="10.103247">
<ele>454.043</ele>
<time>2020-09-10T09:46:06Z</time>
</trkpt>
<trkpt lat="48.680843" lon="10.103289">
<ele>454.043</ele>
<time>2020-09-10T09:46:07Z</time>
</trkpt>
<trkpt lat="48.68084" lon="10.103332">
<ele>454.043</ele>
<time>2020-09-10T09:46:08Z</time>
</trkpt>
<trkpt lat="48.680828" lon="10.10338">
<ele>454.043</ele>
<time>2020-09-10T09:46:09Z</time>
</trkpt>
<trkpt lat="48.680817" lon="10.103432">
<ele>453.766</ele>
<time>2020-09-10T09:46:10Z</time>
</trkpt>
<trkpt lat="48.680801" lon="10.103494">
<ele>453.541</ele>
<time>2020-09-10T09:46:11Z</time>
</trkpt>
<trkpt lat="48.680782" lon="10.103559">
<ele>453.364</ele>
<time>2020-09-10T09:46:12Z</time>
</trkpt>
<trkpt lat="48.680759" lon="10.103626">
<ele>453.229</ele>
<time>2020-09-10T09:46:13Z</time>
</trkpt>
<trkpt lat="48.680733" lon="10.103693">
<ele>453.133</ele>
<time>2020-09-10T09:46:14Z</time>
</trkpt>
<trkpt lat="48.680706" lon="10.103762">
<ele>453.072</ele>
<time>2020-09-10T09:46:15Z</time>
</trkpt>
<trkpt lat="48.680676" lon="10.103828">
<ele>453.023</ele>
<time>2020-09-10T09:46:16Z</time>
</trkpt>
<trkpt lat="48.680645" lon="10.103893">
<ele>453.002</ele>
<time>2020-09-10T09:46:17Z</time>
</trkpt>
<trkpt lat="48.680618" lon="10.103958">
<ele>453.002</ele>
<time>2020-09-10T09:46:18Z</time>
</trkpt>
<trkpt lat="48.680592" lon="10.104018">
<ele>453.002</ele>
<time>2020-09-10T09:46:19Z</time>
</trkpt>
<trkpt lat="48.680569" lon="10.104073">
<ele>453.002</ele>
<time>2020-09-10T09:46:20Z</time>
</trkpt>
<trkpt lat="48.680546" lon="10.104121">
<ele>452.782</ele>
<time>2020-09-10T09:46:21Z</time>
</trkpt>
<trkpt lat="48.680519" lon="10.104167">
<ele>452.61</ele>
<time>2020-09-10T09:46:22Z</time>
</trkpt>
<trkpt lat="48.6805" lon="10.104213">
<ele>452.477</ele>
<time>2020-09-10T09:46:23Z</time>
</trkpt>
<trkpt lat="48.680477" lon="10.104259">
<ele>452.372</ele>
<time>2020-09-10T09:46:24Z</time>
</trkpt>
<trkpt lat="48.680454" lon="10.104309">
<ele>452.294</ele>
<time>2020-09-10T09:46:25Z</time>
</trkpt>
<trkpt lat="48.680435" lon="10.10436">
<ele>452.214</ele>
<time>2020-09-10T09:46:26Z</time>
</trkpt>
<trkpt lat="48.680416" lon="10.104408">
<ele>452.16</ele>
<time>2020-09-10T09:46:27Z</time>
</trkpt>
<trkpt lat="48.680389" lon="10.104458">
<ele>452.134</ele>
<time>2020-09-10T09:46:28Z</time>
</trkpt>
<trkpt lat="48.680367" lon="10.104506">
<ele>452.134</ele>
<time>2020-09-10T09:46:29Z</time>
</trkpt>
<trkpt lat="48.680344" lon="10.104558">
<ele>452.134</ele>
<time>2020-09-10T09:46:30Z</time>
</trkpt>
<trkpt lat="48.680325" lon="10.104615">
<ele>452.134</ele>
<time>2020-09-10T09:46:31Z</time>
</trkpt>
<trkpt lat="48.680313" lon="10.104678">
<ele>452.134</ele>
<time>2020-09-10T09:46:32Z</time>
</trkpt>
<trkpt lat="48.680305" lon="10.104745">
<ele>452.134</ele>
<time>2020-09-10T09:46:33Z</time>
</trkpt>
<trkpt lat="48.680298" lon="10.104815">
<ele>452.134</ele>
<time>2020-09-10T09:46:34Z</time>
</trkpt>
<trkpt lat="48.680294" lon="10.104885">
<ele>452.134</ele>
<time>2020-09-10T09:46:35Z</time>
</trkpt>
<trkpt lat="48.680294" lon="10.104953">
<ele>452.134</ele>
<time>2020-09-10T09:46:36Z</time>
</trkpt>
<trkpt lat="48.680298" lon="10.105023">
<ele>452.134</ele>
<time>2020-09-10T09:46:37Z</time>
</trkpt>
<trkpt lat="48.680302" lon="10.105093">
<ele>452.134</ele>
<time>2020-09-10T09:46:38Z</time>
</trkpt>
<trkpt lat="48.680305" lon="10.105166">
<ele>452.134</ele>
<time>2020-09-10T09:46:39Z</time>
</trkpt>
<trkpt lat="48.680302" lon="10.105238">
<ele>452.134</ele>
<time>2020-09-10T09:46:40Z</time>
</trkpt>
<trkpt lat="48.680298" lon="10.10531">
<ele>452.134</ele>
<time>2020-09-10T09:46:41Z</time>
</trkpt>
<trkpt lat="48.680298" lon="10.105378">
<ele>452.134</ele>
<time>2020-09-10T09:46:42Z</time>
</trkpt>
<trkpt lat="48.680294" lon="10.10545">
<ele>451.873</ele>
<time>2020-09-10T09:46:43Z</time>
</trkpt>
<trkpt lat="48.68029" lon="10.105522">
<ele>451.667</ele>
<time>2020-09-10T09:46:44Z</time>
</trkpt>
<trkpt lat="48.680286" lon="10.10559">
<ele>451.527</ele>
<time>2020-09-10T09:46:45Z</time>
</trkpt>
<trkpt lat="48.680286" lon="10.105659">
<ele>451.376</ele>
<time>2020-09-10T09:46:46Z</time>
</trkpt>
<trkpt lat="48.680283" lon="10.105728">
<ele>451.261</ele>
<time>2020-09-10T09:46:47Z</time>
</trkpt>
<trkpt lat="48.680279" lon="10.105799">
<ele>451.175</ele>
<time>2020-09-10T09:46:48Z</time>
</trkpt>
<trkpt lat="48.680275" lon="10.105866">
<ele>451.12</ele>
<time>2020-09-10T09:46:49Z</time>
</trkpt>
<trkpt lat="48.680275" lon="10.105931">
<ele>451.093</ele>
<time>2020-09-10T09:46:51Z</time>
</trkpt>
<trkpt lat="48.680267" lon="10.106071">
<ele>451.093</ele>
<time>2020-09-10T09:46:52Z</time>
</trkpt>
<trkpt lat="48.680264" lon="10.10614">
<ele>451.093</ele>
<time>2020-09-10T09:46:53Z</time>
</trkpt>
<trkpt lat="48.680256" lon="10.106215">
<ele>451.093</ele>
<time>2020-09-10T09:46:54Z</time>
</trkpt>
<trkpt lat="48.680256" lon="10.10629">
<ele>451.093</ele>
<time>2020-09-10T09:46:55Z</time>
</trkpt>
<trkpt lat="48.680256" lon="10.106366">
<ele>451.093</ele>
<time>2020-09-10T09:46:56Z</time>
</trkpt>
<trkpt lat="48.680252" lon="10.106443">
<ele>451.094</ele>
<time>2020-09-10T09:46:57Z</time>
</trkpt>
<trkpt lat="48.680248" lon="10.106522">
<ele>451.093</ele>
<time>2020-09-10T09:46:58Z</time>
</trkpt>
<trkpt lat="48.680244" lon="10.1066">
<ele>451.093</ele>
<time>2020-09-10T09:46:59Z</time>
</trkpt>
<trkpt lat="48.680241" lon="10.106677">
<ele>451.093</ele>
<time>2020-09-10T09:47:00Z</time>
</trkpt>
<trkpt lat="48.680237" lon="10.106751">
<ele>451.093</ele>
<time>2020-09-10T09:47:01Z</time>
</trkpt>
<trkpt lat="48.680229" lon="10.106828">
<ele>451.093</ele>
<time>2020-09-10T09:47:02Z</time>
</trkpt>
<trkpt lat="48.680225" lon="10.106907">
<ele>451.093</ele>
<time>2020-09-10T09:47:03Z</time>
</trkpt>
<trkpt lat="48.680222" lon="10.106983">
<ele>451.093</ele>
<time>2020-09-10T09:47:04Z</time>
</trkpt>
<trkpt lat="48.680222" lon="10.107063">
<ele>451.093</ele>
<time>2020-09-10T09:47:05Z</time>
</trkpt>
<trkpt lat="48.680218" lon="10.107141">
<ele>451.093</ele>
<time>2020-09-10T09:47:06Z</time>
</trkpt>
<trkpt lat="48.680214" lon="10.107222">
<ele>451.093</ele>
<time>2020-09-10T09:47:07Z</time>
</trkpt>
<trkpt lat="48.68021" lon="10.107302">
<ele>451.093</ele>
<time>2020-09-10T09:47:08Z</time>
</trkpt>
<trkpt lat="48.680206" lon="10.10738">
<ele>451.093</ele>
<time>2020-09-10T09:47:09Z</time>
</trkpt>
<trkpt lat="48.680202" lon="10.107458">
<ele>451.093</ele>
<time>2020-09-10T09:47:10Z</time>
</trkpt>
<trkpt lat="48.680199" lon="10.107538">
<ele>451.094</ele>
<time>2020-09-10T09:47:11Z</time>
</trkpt>
<trkpt lat="48.680191" lon="10.107617">
<ele>451.093</ele>
<time>2020-09-10T09:47:12Z</time>
</trkpt>
<trkpt lat="48.680191" lon="10.107698">
<ele>451.093</ele>
<time>2020-09-10T09:47:13Z</time>
</trkpt>
<trkpt lat="48.680187" lon="10.10778">
<ele>451.094</ele>
<time>2020-09-10T09:47:14Z</time>
</trkpt>
<trkpt lat="48.680183" lon="10.107862">
<ele>451.093</ele>
<time>2020-09-10T09:47:15Z</time>
</trkpt>
<trkpt lat="48.680183" lon="10.107944">
<ele>451.094</ele>
<time>2020-09-10T09:47:16Z</time>
</trkpt>
<trkpt lat="48.68018" lon="10.108024">
<ele>451.093</ele>
<time>2020-09-10T09:47:17Z</time>
</trkpt>
<trkpt lat="48.680176" lon="10.108104">
<ele>451.094</ele>
<time>2020-09-10T09:47:18Z</time>
</trkpt>
<trkpt lat="48.680172" lon="10.108183">
<ele>451.093</ele>
<time>2020-09-10T09:47:19Z</time>
</trkpt>
<trkpt lat="48.680168" lon="10.108265">
<ele>451.093</ele>
<time>2020-09-10T09:47:20Z</time>
</trkpt>
<trkpt lat="48.680164" lon="10.108347">
<ele>451.093</ele>
<time>2020-09-10T09:47:21Z</time>
</trkpt>
<trkpt lat="48.680161" lon="10.108428">
<ele>450.849</ele>
<time>2020-09-10T09:47:22Z</time>
</trkpt>
<trkpt lat="48.680157" lon="10.10851">
<ele>450.657</ele>
<time>2020-09-10T09:47:23Z</time>
</trkpt>
<trkpt lat="48.680157" lon="10.108594">
<ele>450.505</ele>
<time>2020-09-10T09:47:24Z</time>
</trkpt>
<trkpt lat="48.680157" lon="10.108673">
<ele>450.403</ele>
<time>2020-09-10T09:47:25Z</time>
</trkpt>
<trkpt lat="48.680157" lon="10.108753">
<ele>450.293</ele>
<time>2020-09-10T09:47:26Z</time>
</trkpt>
<trkpt lat="48.680153" lon="10.108832">
<ele>450.215</ele>
<time>2020-09-10T09:47:27Z</time>
</trkpt>
<trkpt lat="48.680149" lon="10.108912">
<ele>450.164</ele>
<time>2020-09-10T09:47:28Z</time>
</trkpt>
<trkpt lat="48.680145" lon="10.108992">
<ele>450.14</ele>
<time>2020-09-10T09:47:29Z</time>
</trkpt>
<trkpt lat="48.680141" lon="10.109074">
<ele>450.14</ele>
<time>2020-09-10T09:47:30Z</time>
</trkpt>
<trkpt lat="48.680138" lon="10.109155">
<ele>450.14</ele>
<time>2020-09-10T09:47:31Z</time>
</trkpt>
<trkpt lat="48.680138" lon="10.109237">
<ele>450.14</ele>
<time>2020-09-10T09:47:32Z</time>
</trkpt>
<trkpt lat="48.680134" lon="10.109319">
<ele>450.14</ele>
<time>2020-09-10T09:47:33Z</time>
</trkpt>
<trkpt lat="48.680134" lon="10.1094">
<ele>450.14</ele>
<time>2020-09-10T09:47:34Z</time>
</trkpt>
<trkpt lat="48.68013" lon="10.10948">
<ele>450.14</ele>
<time>2020-09-10T09:47:35Z</time>
</trkpt>
<trkpt lat="48.680122" lon="10.109562">
<ele>450.14</ele>
<time>2020-09-10T09:47:36Z</time>
</trkpt>
<trkpt lat="48.680122" lon="10.109641">
<ele>450.14</ele>
<time>2020-09-10T09:47:37Z</time>
</trkpt>
<trkpt lat="48.680122" lon="10.109723">
<ele>450.14</ele>
<time>2020-09-10T09:47:38Z</time>
</trkpt>
<trkpt lat="48.680119" lon="10.109805">
<ele>450.14</ele>
<time>2020-09-10T09:47:39Z</time>
</trkpt>
<trkpt lat="48.680115" lon="10.109888">
<ele>450.14</ele>
<time>2020-09-10T09:47:40Z</time>
</trkpt>
<trkpt lat="48.680111" lon="10.10997">
<ele>450.14</ele>
<time>2020-09-10T09:47:41Z</time>
</trkpt>
<trkpt lat="48.680107" lon="10.110054">
<ele>450.14</ele>
<time>2020-09-10T09:47:42Z</time>
</trkpt>
<trkpt lat="48.680103" lon="10.110137">
<ele>450.14</ele>
<time>2020-09-10T09:47:43Z</time>
</trkpt>
<trkpt lat="48.680096" lon="10.110218">
<ele>450.14</ele>
<time>2020-09-10T09:47:44Z</time>
</trkpt>
<trkpt lat="48.680092" lon="10.110299">
<ele>450.14</ele>
<time>2020-09-10T09:47:45Z</time>
</trkpt>
<trkpt lat="48.680092" lon="10.11038">
<ele>450.14</ele>
<time>2020-09-10T09:47:46Z</time>
</trkpt>
<trkpt lat="48.680088" lon="10.110462">
<ele>450.14</ele>
<time>2020-09-10T09:47:47Z</time>
</trkpt>
<trkpt lat="48.680088" lon="10.110542">
<ele>450.14</ele>
<time>2020-09-10T09:47:48Z</time>
</trkpt>
<trkpt lat="48.680084" lon="10.110623">
<ele>449.874</ele>
<time>2020-09-10T09:47:49Z</time>
</trkpt>
<trkpt lat="48.680084" lon="10.110705">
<ele>449.665</ele>
<time>2020-09-10T09:47:50Z</time>
</trkpt>
<trkpt lat="48.68008" lon="10.110785">
<ele>449.505</ele>
<time>2020-09-10T09:47:51Z</time>
</trkpt>
<trkpt lat="48.680077" lon="10.110865">
<ele>449.387</ele>
<time>2020-09-10T09:47:52Z</time>
</trkpt>
<trkpt lat="48.680073" lon="10.110945">
<ele>449.305</ele>
<time>2020-09-10T09:47:53Z</time>
</trkpt>
<trkpt lat="48.680069" lon="10.111024">
<ele>449.254</ele>
<time>2020-09-10T09:47:54Z</time>
</trkpt>
<trkpt lat="48.680065" lon="10.111101">
<ele>449.213</ele>
<time>2020-09-10T09:47:55Z</time>
</trkpt>
<trkpt lat="48.680061" lon="10.111183">
<ele>449.186</ele>
<time>2020-09-10T09:47:56Z</time>
</trkpt>
<trkpt lat="48.680058" lon="10.111263">
<ele>449.186</ele>
<time>2020-09-10T09:47:57Z</time>
</trkpt>
<trkpt lat="48.680058" lon="10.111344">
<ele>449.186</ele>
<time>2020-09-10T09:47:58Z</time>
</trkpt>
<trkpt lat="48.680054" lon="10.111424">
<ele>449.186</ele>
<time>2020-09-10T09:47:59Z</time>
</trkpt>
<trkpt lat="48.680054" lon="10.111504">
<ele>449.186</ele>
<time>2020-09-10T09:48:00Z</time>
</trkpt>
<trkpt lat="48.680054" lon="10.111584">
<ele>449.186</ele>
<time>2020-09-10T09:48:01Z</time>
</trkpt>
<trkpt lat="48.680054" lon="10.11166">
<ele>449.186</ele>
<time>2020-09-10T09:48:02Z</time>
</trkpt>
<trkpt lat="48.68005" lon="10.111738">
<ele>449.186</ele>
<time>2020-09-10T09:48:03Z</time>
</trkpt>
<trkpt lat="48.68005" lon="10.111816">
<ele>449.186</ele>
<time>2020-09-10T09:48:04Z</time>
</trkpt>
<trkpt lat="48.680046" lon="10.111892">
<ele>449.186</ele>
<time>2020-09-10T09:48:05Z</time>
</trkpt>
<trkpt lat="48.680042" lon="10.11197">
<ele>449.186</ele>
<time>2020-09-10T09:48:06Z</time>
</trkpt>
<trkpt lat="48.680038" lon="10.112046">
<ele>449.186</ele>
<time>2020-09-10T09:48:07Z</time>
</trkpt>
<trkpt lat="48.680035" lon="10.112123">
<ele>449.186</ele>
<time>2020-09-10T09:48:08Z</time>
</trkpt>
<trkpt lat="48.680027" lon="10.112202">
<ele>449.186</ele>
<time>2020-09-10T09:48:09Z</time>
</trkpt>
<trkpt lat="48.680027" lon="10.11228">
<ele>449.186</ele>
<time>2020-09-10T09:48:10Z</time>
</trkpt>
<trkpt lat="48.680023" lon="10.112356">
<ele>449.186</ele>
<time>2020-09-10T09:48:11Z</time>
</trkpt>
<trkpt lat="48.680019" lon="10.112433">
<ele>449.186</ele>
<time>2020-09-10T09:48:12Z</time>
</trkpt>
<trkpt lat="48.680016" lon="10.112512">
<ele>449.186</ele>
<time>2020-09-10T09:48:13Z</time>
</trkpt>
<trkpt lat="48.680012" lon="10.112592">
<ele>449.186</ele>
<time>2020-09-10T09:48:14Z</time>
</trkpt>
<trkpt lat="48.680012" lon="10.11267">
<ele>449.186</ele>
<time>2020-09-10T09:48:15Z</time>
</trkpt>
<trkpt lat="48.680008" lon="10.112746">
<ele>449.186</ele>
<time>2020-09-10T09:48:16Z</time>
</trkpt>
<trkpt lat="48.680004" lon="10.112825">
<ele>449.186</ele>
<time>2020-09-10T09:48:17Z</time>
</trkpt>
<trkpt lat="48.68" lon="10.112904">
<ele>449.186</ele>
<time>2020-09-10T09:48:18Z</time>
</trkpt>
<trkpt lat="48.679993" lon="10.11298">
<ele>449.186</ele>
<time>2020-09-10T09:48:19Z</time>
</trkpt>
<trkpt lat="48.679993" lon="10.113056">
<ele>449.186</ele>
<time>2020-09-10T09:48:20Z</time>
</trkpt>
<trkpt lat="48.679989" lon="10.113135">
<ele>449.186</ele>
<time>2020-09-10T09:48:21Z</time>
</trkpt>
<trkpt lat="48.679989" lon="10.113214">
<ele>449.186</ele>
<time>2020-09-10T09:48:22Z</time>
</trkpt>
<trkpt lat="48.679985" lon="10.113292">
<ele>449.186</ele>
<time>2020-09-10T09:48:23Z</time>
</trkpt>
<trkpt lat="48.679985" lon="10.113368">
<ele>449.186</ele>
<time>2020-09-10T09:48:24Z</time>
</trkpt>
<trkpt lat="48.679981" lon="10.113446">
<ele>449.186</ele>
<time>2020-09-10T09:48:25Z</time>
</trkpt>
<trkpt lat="48.679977" lon="10.113525">
<ele>449.186</ele>
<time>2020-09-10T09:48:26Z</time>
</trkpt>
<trkpt lat="48.679974" lon="10.113604">
<ele>449.186</ele>
<time>2020-09-10T09:48:27Z</time>
</trkpt>
<trkpt lat="48.67997" lon="10.11368">
<ele>449.186</ele>
<time>2020-09-10T09:48:28Z</time>
</trkpt>
<trkpt lat="48.679966" lon="10.113758">
<ele>449.186</ele>
<time>2020-09-10T09:48:29Z</time>
</trkpt>
<trkpt lat="48.679962" lon="10.113838">
<ele>449.186</ele>
<time>2020-09-10T09:48:30Z</time>
</trkpt>
<trkpt lat="48.679962" lon="10.113918">
<ele>449.186</ele>
<time>2020-09-10T09:48:31Z</time>
</trkpt>
<trkpt lat="48.679958" lon="10.113998">
<ele>449.186</ele>
<time>2020-09-10T09:48:32Z</time>
</trkpt>
<trkpt lat="48.679958" lon="10.11408">
<ele>449.186</ele>
<time>2020-09-10T09:48:33Z</time>
</trkpt>
<trkpt lat="48.679951" lon="10.114161">
<ele>449.186</ele>
<time>2020-09-10T09:48:34Z</time>
</trkpt>
<trkpt lat="48.679947" lon="10.114242">
<ele>449.186</ele>
<time>2020-09-10T09:48:35Z</time>
</trkpt>
<trkpt lat="48.679943" lon="10.114322">
<ele>449.186</ele>
<time>2020-09-10T09:48:36Z</time>
</trkpt>
<trkpt lat="48.679943" lon="10.114404">
<ele>449.186</ele>
<time>2020-09-10T09:48:37Z</time>
</trkpt>
<trkpt lat="48.679943" lon="10.114483">
<ele>449.186</ele>
<time>2020-09-10T09:48:38Z</time>
</trkpt>
<trkpt lat="48.679939" lon="10.114562">
<ele>449.186</ele>
<time>2020-09-10T09:48:39Z</time>
</trkpt>
<trkpt lat="48.679935" lon="10.114644">
<ele>449.186</ele>
<time>2020-09-10T09:48:40Z</time>
</trkpt>
<trkpt lat="48.679935" lon="10.114721">
<ele>449.186</ele>
<time>2020-09-10T09:48:41Z</time>
</trkpt>
<trkpt lat="48.679935" lon="10.114799">
<ele>449.186</ele>
<time>2020-09-10T09:48:42Z</time>
</trkpt>
<trkpt lat="48.679932" lon="10.11488">
<ele>449.186</ele>
<time>2020-09-10T09:48:43Z</time>
</trkpt>
<trkpt lat="48.679928" lon="10.114961">
<ele>449.186</ele>
<time>2020-09-10T09:48:44Z</time>
</trkpt>
<trkpt lat="48.679928" lon="10.11504">
<ele>449.019</ele>
<time>2020-09-10T09:48:45Z</time>
</trkpt>
<trkpt lat="48.679924" lon="10.11512">
<ele>448.873</ele>
<time>2020-09-10T09:48:46Z</time>
</trkpt>
<trkpt lat="48.67992" lon="10.1152">
<ele>448.763</ele>
<time>2020-09-10T09:48:47Z</time>
</trkpt>
<trkpt lat="48.679916" lon="10.115278">
<ele>448.683</ele>
<time>2020-09-10T09:48:48Z</time>
</trkpt>
<trkpt lat="48.679916" lon="10.115356">
<ele>448.63</ele>
<time>2020-09-10T09:48:49Z</time>
</trkpt>
<trkpt lat="48.679913" lon="10.115435">
<ele>448.594</ele>
<time>2020-09-10T09:48:50Z</time>
</trkpt>
<trkpt lat="48.679905" lon="10.115512">
<ele>448.582</ele>
<time>2020-09-10T09:48:51Z</time>
</trkpt>
<trkpt lat="48.679901" lon="10.11559">
<ele>448.579</ele>
<time>2020-09-10T09:48:52Z</time>
</trkpt>
<trkpt lat="48.679897" lon="10.115664">
<ele>448.579</ele>
<time>2020-09-10T09:48:53Z</time>
</trkpt>
<trkpt lat="48.679897" lon="10.11574">
<ele>448.579</ele>
<time>2020-09-10T09:48:54Z</time>
</trkpt>
<trkpt lat="48.679893" lon="10.115818">
<ele>448.579</ele>
<time>2020-09-10T09:48:55Z</time>
</trkpt>
<trkpt lat="48.67989" lon="10.115897">
<ele>448.579</ele>
<time>2020-09-10T09:48:56Z</time>
</trkpt>
<trkpt lat="48.67989" lon="10.115976">
<ele>448.579</ele>
<time>2020-09-10T09:48:57Z</time>
</trkpt>
<trkpt lat="48.67989" lon="10.116058">
<ele>448.579</ele>
<time>2020-09-10T09:48:58Z</time>
</trkpt>
<trkpt lat="48.679893" lon="10.11614">
<ele>448.579</ele>
<time>2020-09-10T09:48:59Z</time>
</trkpt>
<trkpt lat="48.679897" lon="10.116221">
<ele>448.579</ele>
<time>2020-09-10T09:49:00Z</time>
</trkpt>
<trkpt lat="48.679897" lon="10.116306">
<ele>448.579</ele>
<time>2020-09-10T09:49:01Z</time>
</trkpt>
<trkpt lat="48.679897" lon="10.116391">
<ele>448.579</ele>
<time>2020-09-10T09:49:02Z</time>
</trkpt>
<trkpt lat="48.679897" lon="10.116477">
<ele>448.579</ele>
<time>2020-09-10T09:49:03Z</time>
</trkpt>
<trkpt lat="48.679905" lon="10.11656">
<ele>448.579</ele>
<time>2020-09-10T09:49:04Z</time>
</trkpt>
<trkpt lat="48.679909" lon="10.116643">
<ele>448.579</ele>
<time>2020-09-10T09:49:05Z</time>
</trkpt>
<trkpt lat="48.679913" lon="10.116727">
<ele>448.579</ele>
<time>2020-09-10T09:49:06Z</time>
</trkpt>
<trkpt lat="48.67992" lon="10.116809">
<ele>448.579</ele>
<time>2020-09-10T09:49:07Z</time>
</trkpt>
<trkpt lat="48.679924" lon="10.11689">
<ele>448.579</ele>
<time>2020-09-10T09:49:08Z</time>
</trkpt>
<trkpt lat="48.679928" lon="10.116972">
<ele>448.579</ele>
<time>2020-09-10T09:49:09Z</time>
</trkpt>
<trkpt lat="48.679932" lon="10.117053">
<ele>448.579</ele>
<time>2020-09-10T09:49:10Z</time>
</trkpt>
<trkpt lat="48.679939" lon="10.117135">
<ele>448.579</ele>
<time>2020-09-10T09:49:11Z</time>
</trkpt>
<trkpt lat="48.679943" lon="10.117215">
<ele>448.579</ele>
<time>2020-09-10T09:49:12Z</time>
</trkpt>
<trkpt lat="48.679947" lon="10.117292">
<ele>448.343</ele>
<time>2020-09-10T09:49:13Z</time>
</trkpt>
<trkpt lat="48.679951" lon="10.117372">
<ele>448.156</ele>
<time>2020-09-10T09:49:14Z</time>
</trkpt>
<trkpt lat="48.679951" lon="10.117448">
<ele>448.025</ele>
<time>2020-09-10T09:49:15Z</time>
</trkpt>
<trkpt lat="48.679951" lon="10.117527">
<ele>447.886</ele>
<time>2020-09-10T09:49:16Z</time>
</trkpt>
<trkpt lat="48.679951" lon="10.117607">
<ele>447.779</ele>
<time>2020-09-10T09:49:17Z</time>
</trkpt>
<trkpt lat="48.679955" lon="10.117684">
<ele>447.701</ele>
<time>2020-09-10T09:49:18Z</time>
</trkpt>
<trkpt lat="48.679955" lon="10.117764">
<ele>447.65</ele>
<time>2020-09-10T09:49:19Z</time>
</trkpt>
<trkpt lat="48.679958" lon="10.117842">
<ele>447.625</ele>
<time>2020-09-10T09:49:20Z</time>
</trkpt>
<trkpt lat="48.679955" lon="10.117917">
<ele>447.626</ele>
<time>2020-09-10T09:49:21Z</time>
</trkpt>
<trkpt lat="48.679955" lon="10.117994">
<ele>447.625</ele>
<time>2020-09-10T09:49:22Z</time>
</trkpt>
<trkpt lat="48.679951" lon="10.118073">
<ele>447.625</ele>
<time>2020-09-10T09:49:23Z</time>
</trkpt>
<trkpt lat="48.679951" lon="10.118152">
<ele>447.625</ele>
<time>2020-09-10T09:49:24Z</time>
</trkpt>
<trkpt lat="48.679951" lon="10.118232">
<ele>447.625</ele>
<time>2020-09-10T09:49:25Z</time>
</trkpt>
<trkpt lat="48.679947" lon="10.11831">
<ele>447.625</ele>
<time>2020-09-10T09:49:26Z</time>
</trkpt>
<trkpt lat="48.679943" lon="10.118388">
<ele>447.625</ele>
<time>2020-09-10T09:49:27Z</time>
</trkpt>
<trkpt lat="48.679947" lon="10.118464">
<ele>447.625</ele>
<time>2020-09-10T09:49:28Z</time>
</trkpt>
<trkpt lat="48.679951" lon="10.118539">
<ele>447.626</ele>
<time>2020-09-10T09:49:29Z</time>
</trkpt>
<trkpt lat="48.679958" lon="10.118613">
<ele>447.626</ele>
<time>2020-09-10T09:49:30Z</time>
</trkpt>
<trkpt lat="48.679962" lon="10.118687">
<ele>447.625</ele>
<time>2020-09-10T09:49:31Z</time>
</trkpt>
<trkpt lat="48.679962" lon="10.118759">
<ele>447.625</ele>
<time>2020-09-10T09:49:32Z</time>
</trkpt>
<trkpt lat="48.679962" lon="10.118834">
<ele>447.625</ele>
<time>2020-09-10T09:49:33Z</time>
</trkpt>
<trkpt lat="48.679962" lon="10.118899">
<ele>447.625</ele>
<time>2020-09-10T09:49:34Z</time>
</trkpt>
<trkpt lat="48.679962" lon="10.118965">
<ele>447.625</ele>
<time>2020-09-10T09:49:35Z</time>
</trkpt>
<trkpt lat="48.679958" lon="10.119032">
<ele>447.379</ele>
<time>2020-09-10T09:49:36Z</time>
</trkpt>
<trkpt lat="48.679951" lon="10.119088">
<ele>447.173</ele>
<time>2020-09-10T09:49:37Z</time>
</trkpt>
<trkpt lat="48.679947" lon="10.119137">
<ele>447.003</ele>
<time>2020-09-10T09:49:38Z</time>
</trkpt>
<trkpt lat="48.679943" lon="10.119176">
<ele>446.864</ele>
<time>2020-09-10T09:49:39Z</time>
</trkpt>
<trkpt lat="48.679943" lon="10.11922">
<ele>446.755</ele>
<time>2020-09-10T09:49:40Z</time>
</trkpt>
<trkpt lat="48.679939" lon="10.119253">
<ele>446.672</ele>
<time>2020-09-10T09:49:41Z</time>
</trkpt>
<trkpt lat="48.679935" lon="10.119285">
<ele>446.613</ele>
<time>2020-09-10T09:49:42Z</time>
</trkpt>
<trkpt lat="48.679932" lon="10.119312">
<ele>446.585</ele>
<time>2020-09-10T09:49:43Z</time>
</trkpt>
<trkpt lat="48.679928" lon="10.119331">
<ele>446.585</ele>
<time>2020-09-10T09:49:44Z</time>
</trkpt>
<trkpt lat="48.679928" lon="10.119338">
<ele>446.585</ele>
<time>2020-09-10T09:49:45Z</time>
</trkpt>
<trkpt lat="48.679924" lon="10.11934">
<ele>446.585</ele>
<time>2020-09-10T09:49:46Z</time>
</trkpt>
<trkpt lat="48.679924" lon="10.119342">
<ele>446.585</ele>
<time>2020-09-10T09:49:48Z</time>
</trkpt>
<trkpt lat="48.679913" lon="10.119349">
<ele>446.585</ele>
<time>2020-09-10T09:49:58Z</time>
</trkpt>
<trkpt lat="48.679909" lon="10.119349">
<ele>446.585</ele>
<time>2020-09-10T09:49:59Z</time>
</trkpt>
<trkpt lat="48.679897" lon="10.119349">
<ele>446.585</ele>
<time>2020-09-10T09:50:00Z</time>
</trkpt>
<trkpt lat="48.679886" lon="10.119349">
<ele>446.585</ele>
<time>2020-09-10T09:50:01Z</time>
</trkpt>
<trkpt lat="48.679878" lon="10.119347">
<ele>446.585</ele>
<time>2020-09-10T09:50:02Z</time>
</trkpt>
<trkpt lat="48.679871" lon="10.119346">
<ele>446.585</ele>
<time>2020-09-10T09:50:03Z</time>
</trkpt>
<trkpt lat="48.679867" lon="10.119346">
<ele>446.585</ele>
<time>2020-09-10T09:50:04Z</time>
</trkpt>
<trkpt lat="48.679863" lon="10.119344">
<ele>446.585</ele>
<time>2020-09-10T09:50:05Z</time>
</trkpt>
<trkpt lat="48.679844" lon="10.119342">
<ele>446.585</ele>
<time>2020-09-10T09:50:06Z</time>
</trkpt>
<trkpt lat="48.679821" lon="10.119344">
<ele>446.585</ele>
<time>2020-09-10T09:50:07Z</time>
</trkpt>
<trkpt lat="48.679798" lon="10.119344">
<ele>446.585</ele>
<time>2020-09-10T09:50:08Z</time>
</trkpt>
<trkpt lat="48.679764" lon="10.119344">
<ele>446.585</ele>
<time>2020-09-10T09:50:09Z</time>
</trkpt>
<trkpt lat="48.679733" lon="10.119344">
<ele>446.585</ele>
<time>2020-09-10T09:50:10Z</time>
</trkpt>
<trkpt lat="48.679699" lon="10.119342">
<ele>446.585</ele>
<time>2020-09-10T09:50:11Z</time>
</trkpt>
<trkpt lat="48.679668" lon="10.119344">
<ele>446.585</ele>
<time>2020-09-10T09:50:12Z</time>
</trkpt>
<trkpt lat="48.679634" lon="10.119354">
<ele>446.585</ele>
<time>2020-09-10T09:50:13Z</time>
</trkpt>
<trkpt lat="48.679607" lon="10.119385">
<ele>446.585</ele>
<time>2020-09-10T09:50:14Z</time>
</trkpt>
<trkpt lat="48.679592" lon="10.11943">
<ele>446.585</ele>
<time>2020-09-10T09:50:15Z</time>
</trkpt>
<trkpt lat="48.679588" lon="10.119484">
<ele>446.585</ele>
<time>2020-09-10T09:50:16Z</time>
</trkpt>
<trkpt lat="48.679585" lon="10.119538">
<ele>446.585</ele>
<time>2020-09-10T09:50:17Z</time>
</trkpt>
<trkpt lat="48.679581" lon="10.119595">
<ele>446.585</ele>
<time>2020-09-10T09:50:18Z</time>
</trkpt>
<trkpt lat="48.679577" lon="10.119648">
<ele>446.585</ele>
<time>2020-09-10T09:50:19Z</time>
</trkpt>
<trkpt lat="48.679573" lon="10.119703">
<ele>446.343</ele>
<time>2020-09-10T09:50:20Z</time>
</trkpt>
<trkpt lat="48.679573" lon="10.119759">
<ele>446.158</ele>
<time>2020-09-10T09:50:21Z</time>
</trkpt>
<trkpt lat="48.679573" lon="10.119815">
<ele>446.019</ele>
<time>2020-09-10T09:50:22Z</time>
</trkpt>
<trkpt lat="48.679569" lon="10.119872">
<ele>445.92</ele>
<time>2020-09-10T09:50:23Z</time>
</trkpt>
<trkpt lat="48.679569" lon="10.119928">
<ele>445.844</ele>
<time>2020-09-10T09:50:24Z</time>
</trkpt>
<trkpt lat="48.679565" lon="10.119985">
<ele>445.791</ele>
<time>2020-09-10T09:50:25Z</time>
</trkpt>
<trkpt lat="48.679562" lon="10.120044">
<ele>445.742</ele>
<time>2020-09-10T09:50:26Z</time>
</trkpt>
<trkpt lat="48.679558" lon="10.120098">
<ele>445.718</ele>
<time>2020-09-10T09:50:27Z</time>
</trkpt>
<trkpt lat="48.679554" lon="10.120156">
<ele>445.718</ele>
<time>2020-09-10T09:50:28Z</time>
</trkpt>
<trkpt lat="48.679554" lon="10.120212">
<ele>445.718</ele>
<time>2020-09-10T09:50:29Z</time>
</trkpt>
<trkpt lat="48.679554" lon="10.12027">
<ele>445.718</ele>
<time>2020-09-10T09:50:30Z</time>
</trkpt>
<trkpt lat="48.679554" lon="10.120324">
<ele>445.718</ele>
<time>2020-09-10T09:50:31Z</time>
</trkpt>
<trkpt lat="48.679546" lon="10.120381">
<ele>445.718</ele>
<time>2020-09-10T09:50:32Z</time>
</trkpt>
<trkpt lat="48.679546" lon="10.120437">
<ele>445.718</ele>
<time>2020-09-10T09:50:33Z</time>
</trkpt>
<trkpt lat="48.679543" lon="10.120494">
<ele>445.718</ele>
<time>2020-09-10T09:50:34Z</time>
</trkpt>
<trkpt lat="48.679543" lon="10.12055">
<ele>445.718</ele>
<time>2020-09-10T09:50:35Z</time>
</trkpt>
<trkpt lat="48.679543" lon="10.120606">
<ele>445.718</ele>
<time>2020-09-10T09:50:36Z</time>
</trkpt>
<trkpt lat="48.679539" lon="10.120666">
<ele>445.718</ele>
<time>2020-09-10T09:50:37Z</time>
</trkpt>
<trkpt lat="48.679539" lon="10.120725">
<ele>445.718</ele>
<time>2020-09-10T09:50:38Z</time>
</trkpt>
<trkpt lat="48.679539" lon="10.120785">
<ele>445.718</ele>
<time>2020-09-10T09:50:39Z</time>
</trkpt>
<trkpt lat="48.679539" lon="10.120846">
<ele>445.718</ele>
<time>2020-09-10T09:50:40Z</time>
</trkpt>
<trkpt lat="48.679535" lon="10.120907">
<ele>445.718</ele>
<time>2020-09-10T09:50:41Z</time>
</trkpt>
<trkpt lat="48.679535" lon="10.12097">
<ele>445.718</ele>
<time>2020-09-10T09:50:42Z</time>
</trkpt>
<trkpt lat="48.679535" lon="10.121032">
<ele>445.718</ele>
<time>2020-09-10T09:50:43Z</time>
</trkpt>
<trkpt lat="48.679531" lon="10.121093">
<ele>445.718</ele>
<time>2020-09-10T09:50:44Z</time>
</trkpt>
<trkpt lat="48.679531" lon="10.121157">
<ele>445.718</ele>
<time>2020-09-10T09:50:45Z</time>
</trkpt>
<trkpt lat="48.679531" lon="10.121222">
<ele>445.718</ele>
<time>2020-09-10T09:50:46Z</time>
</trkpt>
<trkpt lat="48.679527" lon="10.121286">
<ele>445.718</ele>
<time>2020-09-10T09:50:47Z</time>
</trkpt>
<trkpt lat="48.679527" lon="10.121353">
<ele>445.718</ele>
<time>2020-09-10T09:50:48Z</time>
</trkpt>
<trkpt lat="48.679523" lon="10.121422">
<ele>445.718</ele>
<time>2020-09-10T09:50:49Z</time>
</trkpt>
<trkpt lat="48.67952" lon="10.12149">
<ele>445.718</ele>
<time>2020-09-10T09:50:50Z</time>
</trkpt>
<trkpt lat="48.67952" lon="10.121558">
<ele>445.718</ele>
<time>2020-09-10T09:50:51Z</time>
</trkpt>
<trkpt lat="48.679516" lon="10.121627">
<ele>445.718</ele>
<time>2020-09-10T09:50:52Z</time>
</trkpt>
<trkpt lat="48.679508" lon="10.121692">
<ele>445.718</ele>
<time>2020-09-10T09:50:53Z</time>
</trkpt>
<trkpt lat="48.679504" lon="10.121759">
<ele>445.718</ele>
<time>2020-09-10T09:50:54Z</time>
</trkpt>
<trkpt lat="48.679504" lon="10.12183">
<ele>445.718</ele>
<time>2020-09-10T09:50:55Z</time>
</trkpt>
<trkpt lat="48.679504" lon="10.1219">
<ele>445.718</ele>
<time>2020-09-10T09:50:56Z</time>
</trkpt>
<trkpt lat="48.679501" lon="10.12197">
<ele>445.718</ele>
<time>2020-09-10T09:50:57Z</time>
</trkpt>
<trkpt lat="48.679497" lon="10.12204">
<ele>445.718</ele>
<time>2020-09-10T09:50:58Z</time>
</trkpt>
<trkpt lat="48.679493" lon="10.122111">
<ele>445.718</ele>
<time>2020-09-10T09:50:59Z</time>
</trkpt>
<trkpt lat="48.679489" lon="10.122182">
<ele>445.718</ele>
<time>2020-09-10T09:51:00Z</time>
</trkpt>
<trkpt lat="48.679489" lon="10.122252">
<ele>445.718</ele>
<time>2020-09-10T09:51:01Z</time>
</trkpt>
<trkpt lat="48.679485" lon="10.122323">
<ele>445.718</ele>
<time>2020-09-10T09:51:02Z</time>
</trkpt>
<trkpt lat="48.679482" lon="10.122396">
<ele>445.478</ele>
<time>2020-09-10T09:51:03Z</time>
</trkpt>
<trkpt lat="48.679478" lon="10.122472">
<ele>445.289</ele>
<time>2020-09-10T09:51:04Z</time>
</trkpt>
<trkpt lat="48.679474" lon="10.122545">
<ele>445.16</ele>
<time>2020-09-10T09:51:05Z</time>
</trkpt>
<trkpt lat="48.67947" lon="10.122621">
<ele>445.02</ele>
<time>2020-09-10T09:51:06Z</time>
</trkpt>
<trkpt lat="48.67947" lon="10.122696">
<ele>444.913</ele>
<time>2020-09-10T09:51:07Z</time>
</trkpt>
<trkpt lat="48.679466" lon="10.122773">
<ele>444.836</ele>
<time>2020-09-10T09:51:08Z</time>
</trkpt>
<trkpt lat="48.679462" lon="10.12285">
<ele>444.788</ele>
<time>2020-09-10T09:51:09Z</time>
</trkpt>
<trkpt lat="48.679462" lon="10.122931">
<ele>444.765</ele>
<time>2020-09-10T09:51:10Z</time>
</trkpt>
<trkpt lat="48.679462" lon="10.12301">
<ele>444.765</ele>
<time>2020-09-10T09:51:11Z</time>
</trkpt>
<trkpt lat="48.679462" lon="10.123092">
<ele>444.765</ele>
<time>2020-09-10T09:51:12Z</time>
</trkpt>
<trkpt lat="48.679462" lon="10.123172">
<ele>444.765</ele>
<time>2020-09-10T09:51:13Z</time>
</trkpt>
<trkpt lat="48.679459" lon="10.123255">
<ele>444.765</ele>
<time>2020-09-10T09:51:14Z</time>
</trkpt>
<trkpt lat="48.679459" lon="10.123337">
<ele>444.765</ele>
<time>2020-09-10T09:51:15Z</time>
</trkpt>
<trkpt lat="48.679459" lon="10.123419">
<ele>444.765</ele>
<time>2020-09-10T09:51:16Z</time>
</trkpt>
<trkpt lat="48.679455" lon="10.123502">
<ele>444.765</ele>
<time>2020-09-10T09:51:17Z</time>
</trkpt>
<trkpt lat="48.679455" lon="10.123582">
<ele>444.765</ele>
<time>2020-09-10T09:51:18Z</time>
</trkpt>
<trkpt lat="48.679451" lon="10.123666">
<ele>444.765</ele>
<time>2020-09-10T09:51:19Z</time>
</trkpt>
<trkpt lat="48.679451" lon="10.123747">
<ele>444.765</ele>
<time>2020-09-10T09:51:20Z</time>
</trkpt>
<trkpt lat="48.679451" lon="10.123829">
<ele>444.765</ele>
<time>2020-09-10T09:51:21Z</time>
</trkpt>
<trkpt lat="48.679451" lon="10.123911">
<ele>444.765</ele>
<time>2020-09-10T09:51:22Z</time>
</trkpt>
<trkpt lat="48.679451" lon="10.123993">
<ele>444.765</ele>
<time>2020-09-10T09:51:23Z</time>
</trkpt>
<trkpt lat="48.679451" lon="10.124075">
<ele>444.765</ele>
<time>2020-09-10T09:51:24Z</time>
</trkpt>
<trkpt lat="48.679451" lon="10.124156">
<ele>444.765</ele>
<time>2020-09-10T09:51:25Z</time>
</trkpt>
<trkpt lat="48.679451" lon="10.124238">
<ele>444.765</ele>
<time>2020-09-10T09:51:26Z</time>
</trkpt>
<trkpt lat="48.679451" lon="10.124318">
<ele>444.765</ele>
<time>2020-09-10T09:51:27Z</time>
</trkpt>
<trkpt lat="48.679451" lon="10.124398">
<ele>444.765</ele>
<time>2020-09-10T09:51:28Z</time>
</trkpt>
<trkpt lat="48.679451" lon="10.124481">
<ele>444.765</ele>
<time>2020-09-10T09:51:29Z</time>
</trkpt>
<trkpt lat="48.679455" lon="10.124562">
<ele>444.765</ele>
<time>2020-09-10T09:51:30Z</time>
</trkpt>
<trkpt lat="48.679455" lon="10.124643">
<ele>444.765</ele>
<time>2020-09-10T09:51:31Z</time>
</trkpt>
<trkpt lat="48.679459" lon="10.124726">
<ele>444.765</ele>
<time>2020-09-10T09:51:32Z</time>
</trkpt>
<trkpt lat="48.679459" lon="10.12481">
<ele>444.765</ele>
<time>2020-09-10T09:51:33Z</time>
</trkpt>
<trkpt lat="48.679459" lon="10.124891">
<ele>444.765</ele>
<time>2020-09-10T09:51:34Z</time>
</trkpt>
<trkpt lat="48.679459" lon="10.124975">
<ele>444.765</ele>
<time>2020-09-10T09:51:35Z</time>
</trkpt>
<trkpt lat="48.679459" lon="10.125057">
<ele>444.765</ele>
<time>2020-09-10T09:51:36Z</time>
</trkpt>
<trkpt lat="48.679459" lon="10.12514">
<ele>444.765</ele>
<time>2020-09-10T09:51:37Z</time>
</trkpt>
<trkpt lat="48.679459" lon="10.125223">
<ele>444.765</ele>
<time>2020-09-10T09:51:38Z</time>
</trkpt>
<trkpt lat="48.679466" lon="10.125308">
<ele>444.765</ele>
<time>2020-09-10T09:51:39Z</time>
</trkpt>
<trkpt lat="48.67947" lon="10.125392">
<ele>444.765</ele>
<time>2020-09-10T09:51:40Z</time>
</trkpt>
<trkpt lat="48.679474" lon="10.125474">
<ele>444.765</ele>
<time>2020-09-10T09:51:41Z</time>
</trkpt>
<trkpt lat="48.679478" lon="10.125555">
<ele>444.765</ele>
<time>2020-09-10T09:51:42Z</time>
</trkpt>
<trkpt lat="48.679478" lon="10.125635">
<ele>444.765</ele>
<time>2020-09-10T09:51:43Z</time>
</trkpt>
<trkpt lat="48.679478" lon="10.125717">
<ele>444.765</ele>
<time>2020-09-10T09:51:44Z</time>
</trkpt>
<trkpt lat="48.679478" lon="10.125794">
<ele>444.765</ele>
<time>2020-09-10T09:51:45Z</time>
</trkpt>
<trkpt lat="48.679482" lon="10.125876">
<ele>444.765</ele>
<time>2020-09-10T09:51:46Z</time>
</trkpt>
<trkpt lat="48.679482" lon="10.125957">
<ele>444.484</ele>
<time>2020-09-10T09:51:47Z</time>
</trkpt>
<trkpt lat="48.679482" lon="10.126035">
<ele>444.264</ele>
<time>2020-09-10T09:51:48Z</time>
</trkpt>
<trkpt lat="48.679485" lon="10.126115">
<ele>444.098</ele>
<time>2020-09-10T09:51:49Z</time>
</trkpt>
<trkpt lat="48.679485" lon="10.126193">
<ele>443.976</ele>
<time>2020-09-10T09:51:50Z</time>
</trkpt>
<trkpt lat="48.679489" lon="10.126275">
<ele>443.891</ele>
<time>2020-09-10T09:51:51Z</time>
</trkpt>
<trkpt lat="48.679493" lon="10.126355">
<ele>443.84</ele>
<time>2020-09-10T09:51:52Z</time>
</trkpt>
<trkpt lat="48.679497" lon="10.126437">
<ele>443.812</ele>
<time>2020-09-10T09:51:53Z</time>
</trkpt>
<trkpt lat="48.679501" lon="10.126517">
<ele>443.812</ele>
<time>2020-09-10T09:51:54Z</time>
</trkpt>
<trkpt lat="48.679501" lon="10.126598">
<ele>443.812</ele>
<time>2020-09-10T09:51:55Z</time>
</trkpt>
<trkpt lat="48.679504" lon="10.12668">
<ele>443.812</ele>
<time>2020-09-10T09:51:56Z</time>
</trkpt>
<trkpt lat="48.679504" lon="10.12676">
<ele>443.812</ele>
<time>2020-09-10T09:51:57Z</time>
</trkpt>
<trkpt lat="48.679508" lon="10.126837">
<ele>443.812</ele>
<time>2020-09-10T09:51:58Z</time>
</trkpt>
<trkpt lat="48.679516" lon="10.126915">
<ele>443.812</ele>
<time>2020-09-10T09:51:59Z</time>
</trkpt>
<trkpt lat="48.679516" lon="10.126995">
<ele>443.812</ele>
<time>2020-09-10T09:52:00Z</time>
</trkpt>
<trkpt lat="48.679508" lon="10.127073">
<ele>443.812</ele>
<time>2020-09-10T09:52:01Z</time>
</trkpt>
<trkpt lat="48.679497" lon="10.127148">
<ele>443.812</ele>
<time>2020-09-10T09:52:02Z</time>
</trkpt>
<trkpt lat="48.679482" lon="10.127221">
<ele>443.812</ele>
<time>2020-09-10T09:52:03Z</time>
</trkpt>
<trkpt lat="48.67947" lon="10.127296">
<ele>443.812</ele>
<time>2020-09-10T09:52:04Z</time>
</trkpt>
<trkpt lat="48.67947" lon="10.127375">
<ele>443.812</ele>
<time>2020-09-10T09:52:05Z</time>
</trkpt>
<trkpt lat="48.679485" lon="10.127454">
<ele>443.812</ele>
<time>2020-09-10T09:52:06Z</time>
</trkpt>
<trkpt lat="48.679504" lon="10.127525">
<ele>443.812</ele>
<time>2020-09-10T09:52:07Z</time>
</trkpt>
<trkpt lat="48.679523" lon="10.127597">
<ele>443.812</ele>
<time>2020-09-10T09:52:08Z</time>
</trkpt>
<trkpt lat="48.679539" lon="10.127667">
<ele>443.812</ele>
<time>2020-09-10T09:52:09Z</time>
</trkpt>
<trkpt lat="48.67955" lon="10.12774">
<ele>443.812</ele>
<time>2020-09-10T09:52:10Z</time>
</trkpt>
<trkpt lat="48.679562" lon="10.127813">
<ele>443.812</ele>
<time>2020-09-10T09:52:11Z</time>
</trkpt>
<trkpt lat="48.679569" lon="10.127888">
<ele>443.812</ele>
<time>2020-09-10T09:52:12Z</time>
</trkpt>
<trkpt lat="48.679577" lon="10.12796">
<ele>443.812</ele>
<time>2020-09-10T09:52:13Z</time>
</trkpt>
<trkpt lat="48.679588" lon="10.128034">
<ele>443.812</ele>
<time>2020-09-10T09:52:14Z</time>
</trkpt>
<trkpt lat="48.6796" lon="10.12811">
<ele>443.812</ele>
<time>2020-09-10T09:52:15Z</time>
</trkpt>
<trkpt lat="48.679607" lon="10.12819">
<ele>443.812</ele>
<time>2020-09-10T09:52:16Z</time>
</trkpt>
<trkpt lat="48.679615" lon="10.12827">
<ele>443.812</ele>
<time>2020-09-10T09:52:17Z</time>
</trkpt>
<trkpt lat="48.679619" lon="10.12835">
<ele>443.812</ele>
<time>2020-09-10T09:52:18Z</time>
</trkpt>
<trkpt lat="48.679619" lon="10.12843">
<ele>443.812</ele>
<time>2020-09-10T09:52:19Z</time>
</trkpt>
<trkpt lat="48.679623" lon="10.128508">
<ele>443.812</ele>
<time>2020-09-10T09:52:20Z</time>
</trkpt>
<trkpt lat="48.67963" lon="10.128589">
<ele>443.812</ele>
<time>2020-09-10T09:52:21Z</time>
</trkpt>
<trkpt lat="48.679634" lon="10.128669">
<ele>443.812</ele>
<time>2020-09-10T09:52:22Z</time>
</trkpt>
<trkpt lat="48.679634" lon="10.128752">
<ele>443.812</ele>
<time>2020-09-10T09:52:23Z</time>
</trkpt>
<trkpt lat="48.679638" lon="10.128835">
<ele>443.812</ele>
<time>2020-09-10T09:52:24Z</time>
</trkpt>
<trkpt lat="48.679642" lon="10.128919">
<ele>443.812</ele>
<time>2020-09-10T09:52:25Z</time>
</trkpt>
<trkpt lat="48.679642" lon="10.128998">
<ele>443.812</ele>
<time>2020-09-10T09:52:26Z</time>
</trkpt>
<trkpt lat="48.679646" lon="10.129077">
<ele>443.812</ele>
<time>2020-09-10T09:52:27Z</time>
</trkpt>
<trkpt lat="48.679649" lon="10.129155">
<ele>443.812</ele>
<time>2020-09-10T09:52:28Z</time>
</trkpt>
<trkpt lat="48.679657" lon="10.12924">
<ele>443.812</ele>
<time>2020-09-10T09:52:29Z</time>
</trkpt>
<trkpt lat="48.679653" lon="10.129325">
<ele>443.812</ele>
<time>2020-09-10T09:52:30Z</time>
</trkpt>
<trkpt lat="48.679649" lon="10.129405">
<ele>443.812</ele>
<time>2020-09-10T09:52:31Z</time>
</trkpt>
<trkpt lat="48.679638" lon="10.129486">
<ele>443.812</ele>
<time>2020-09-10T09:52:32Z</time>
</trkpt>
<trkpt lat="48.679626" lon="10.129561">
<ele>443.812</ele>
<time>2020-09-10T09:52:33Z</time>
</trkpt>
<trkpt lat="48.679607" lon="10.129632">
<ele>443.812</ele>
<time>2020-09-10T09:52:34Z</time>
</trkpt>
<trkpt lat="48.679585" lon="10.129697">
<ele>443.812</ele>
<time>2020-09-10T09:52:35Z</time>
</trkpt>
<trkpt lat="48.679558" lon="10.129757">
<ele>443.812</ele>
<time>2020-09-10T09:52:36Z</time>
</trkpt>
<trkpt lat="48.679523" lon="10.129813">
<ele>443.812</ele>
<time>2020-09-10T09:52:37Z</time>
</trkpt>
<trkpt lat="48.679482" lon="10.129865">
<ele>443.812</ele>
<time>2020-09-10T09:52:38Z</time>
</trkpt>
<trkpt lat="48.679451" lon="10.129913">
<ele>443.812</ele>
<time>2020-09-10T09:52:39Z</time>
</trkpt>
<trkpt lat="48.679424" lon="10.129973">
<ele>443.812</ele>
<time>2020-09-10T09:52:40Z</time>
</trkpt>
<trkpt lat="48.679405" lon="10.130043">
<ele>443.812</ele>
<time>2020-09-10T09:52:41Z</time>
</trkpt>
<trkpt lat="48.679394" lon="10.130116">
<ele>443.812</ele>
<time>2020-09-10T09:52:42Z</time>
</trkpt>
<trkpt lat="48.679382" lon="10.130194">
<ele>443.812</ele>
<time>2020-09-10T09:52:43Z</time>
</trkpt>
<trkpt lat="48.679375" lon="10.13028">
<ele>443.812</ele>
<time>2020-09-10T09:52:44Z</time>
</trkpt>
<trkpt lat="48.679375" lon="10.130365">
<ele>443.812</ele>
<time>2020-09-10T09:52:45Z</time>
</trkpt>
<trkpt lat="48.679367" lon="10.13045">
<ele>443.812</ele>
<time>2020-09-10T09:52:46Z</time>
</trkpt>
<trkpt lat="48.679363" lon="10.130535">
<ele>443.812</ele>
<time>2020-09-10T09:52:47Z</time>
</trkpt>
<trkpt lat="48.679356" lon="10.130618">
<ele>443.812</ele>
<time>2020-09-10T09:52:48Z</time>
</trkpt>
<trkpt lat="48.679344" lon="10.130703">
<ele>443.812</ele>
<time>2020-09-10T09:52:49Z</time>
</trkpt>
<trkpt lat="48.679337" lon="10.130787">
<ele>443.549</ele>
<time>2020-09-10T09:52:50Z</time>
</trkpt>
<trkpt lat="48.679329" lon="10.130865">
<ele>443.349</ele>
<time>2020-09-10T09:52:51Z</time>
</trkpt>
<trkpt lat="48.679321" lon="10.130943">
<ele>443.199</ele>
<time>2020-09-10T09:52:52Z</time>
</trkpt>
<trkpt lat="48.67931" lon="10.131023">
<ele>443.084</ele>
<time>2020-09-10T09:52:53Z</time>
</trkpt>
<trkpt lat="48.679291" lon="10.131104">
<ele>443</ele>
<time>2020-09-10T09:52:54Z</time>
</trkpt>
<trkpt lat="48.679276" lon="10.131179">
<ele>442.939</ele>
<time>2020-09-10T09:52:55Z</time>
</trkpt>
<trkpt lat="48.67926" lon="10.131256">
<ele>442.885</ele>
<time>2020-09-10T09:52:56Z</time>
</trkpt>
<trkpt lat="48.679245" lon="10.131333">
<ele>442.859</ele>
<time>2020-09-10T09:52:57Z</time>
</trkpt>
<trkpt lat="48.679222" lon="10.131405">
<ele>442.859</ele>
<time>2020-09-10T09:52:58Z</time>
</trkpt>
<trkpt lat="48.679203" lon="10.131474">
<ele>442.858</ele>
<time>2020-09-10T09:52:59Z</time>
</trkpt>
<trkpt lat="48.67918" lon="10.131545">
<ele>442.858</ele>
<time>2020-09-10T09:53:00Z</time>
</trkpt>
<trkpt lat="48.679153" lon="10.13161">
<ele>442.859</ele>
<time>2020-09-10T09:53:01Z</time>
</trkpt>
<trkpt lat="48.679134" lon="10.131677">
<ele>442.858</ele>
<time>2020-09-10T09:53:02Z</time>
</trkpt>
<trkpt lat="48.679111" lon="10.131744">
<ele>442.858</ele>
<time>2020-09-10T09:53:03Z</time>
</trkpt>
<trkpt lat="48.679096" lon="10.131816">
<ele>442.859</ele>
<time>2020-09-10T09:53:04Z</time>
</trkpt>
<trkpt lat="48.679085" lon="10.131898">
<ele>442.858</ele>
<time>2020-09-10T09:53:05Z</time>
</trkpt>
<trkpt lat="48.679081" lon="10.131979">
<ele>442.858</ele>
<time>2020-09-10T09:53:06Z</time>
</trkpt>
<trkpt lat="48.679081" lon="10.132056">
<ele>442.859</ele>
<time>2020-09-10T09:53:07Z</time>
</trkpt>
<trkpt lat="48.679089" lon="10.132134">
<ele>442.858</ele>
<time>2020-09-10T09:53:08Z</time>
</trkpt>
<trkpt lat="48.6791" lon="10.132216">
<ele>442.859</ele>
<time>2020-09-10T09:53:09Z</time>
</trkpt>
<trkpt lat="48.679108" lon="10.132299">
<ele>442.858</ele>
<time>2020-09-10T09:53:10Z</time>
</trkpt>
<trkpt lat="48.679111" lon="10.132383">
<ele>442.858</ele>
<time>2020-09-10T09:53:11Z</time>
</trkpt>
<trkpt lat="48.679115" lon="10.13247">
<ele>442.859</ele>
<time>2020-09-10T09:53:12Z</time>
</trkpt>
<trkpt lat="48.679123" lon="10.132555">
<ele>442.858</ele>
<time>2020-09-10T09:53:13Z</time>
</trkpt>
<trkpt lat="48.679123" lon="10.132642">
<ele>442.644</ele>
<time>2020-09-10T09:53:14Z</time>
</trkpt>
<trkpt lat="48.679123" lon="10.132729">
<ele>442.492</ele>
<time>2020-09-10T09:53:15Z</time>
</trkpt>
<trkpt lat="48.679127" lon="10.132815">
<ele>442.338</ele>
<time>2020-09-10T09:53:16Z</time>
</trkpt>
<trkpt lat="48.679127" lon="10.132901">
<ele>442.217</ele>
<time>2020-09-10T09:53:17Z</time>
</trkpt>
<trkpt lat="48.679127" lon="10.132989">
<ele>442.123</ele>
<time>2020-09-10T09:53:18Z</time>
</trkpt>
<trkpt lat="48.679127" lon="10.133075">
<ele>442.056</ele>
<time>2020-09-10T09:53:19Z</time>
</trkpt>
<trkpt lat="48.679127" lon="10.133162">
<ele>442.013</ele>
<time>2020-09-10T09:53:20Z</time>
</trkpt>
<trkpt lat="48.679127" lon="10.133246">
<ele>441.992</ele>
<time>2020-09-10T09:53:21Z</time>
</trkpt>
<trkpt lat="48.679127" lon="10.133332">
<ele>441.992</ele>
<time>2020-09-10T09:53:22Z</time>
</trkpt>
<trkpt lat="48.679127" lon="10.133414">
<ele>441.992</ele>
<time>2020-09-10T09:53:23Z</time>
</trkpt>
<trkpt lat="48.679127" lon="10.1335">
<ele>441.992</ele>
<time>2020-09-10T09:53:24Z</time>
</trkpt>
<trkpt lat="48.679131" lon="10.133585">
<ele>441.992</ele>
<time>2020-09-10T09:53:25Z</time>
</trkpt>
<trkpt lat="48.679138" lon="10.13367">
<ele>441.992</ele>
<time>2020-09-10T09:53:26Z</time>
</trkpt>
<trkpt lat="48.679142" lon="10.13375">
<ele>441.992</ele>
<time>2020-09-10T09:53:27Z</time>
</trkpt>
<trkpt lat="48.679142" lon="10.133829">
<ele>441.992</ele>
<time>2020-09-10T09:53:28Z</time>
</trkpt>
<trkpt lat="48.679146" lon="10.133906">
<ele>441.992</ele>
<time>2020-09-10T09:53:29Z</time>
</trkpt>
<trkpt lat="48.679146" lon="10.133982">
<ele>441.992</ele>
<time>2020-09-10T09:53:30Z</time>
</trkpt>
<trkpt lat="48.679146" lon="10.134049">
<ele>441.992</ele>
<time>2020-09-10T09:53:31Z</time>
</trkpt>
<trkpt lat="48.67915" lon="10.134118">
<ele>441.992</ele>
<time>2020-09-10T09:53:32Z</time>
</trkpt>
<trkpt lat="48.679157" lon="10.134185">
<ele>441.992</ele>
<time>2020-09-10T09:53:33Z</time>
</trkpt>
<trkpt lat="48.679165" lon="10.134248">
<ele>441.992</ele>
<time>2020-09-10T09:53:34Z</time>
</trkpt>
<trkpt lat="48.67918" lon="10.134312">
<ele>441.992</ele>
<time>2020-09-10T09:53:35Z</time>
</trkpt>
<trkpt lat="48.679195" lon="10.134372">
<ele>441.992</ele>
<time>2020-09-10T09:53:36Z</time>
</trkpt>
<trkpt lat="48.679218" lon="10.13443">
<ele>441.992</ele>
<time>2020-09-10T09:53:37Z</time>
</trkpt>
<trkpt lat="48.679234" lon="10.134491">
<ele>441.992</ele>
<time>2020-09-10T09:53:38Z</time>
</trkpt>
<trkpt lat="48.679241" lon="10.134555">
<ele>441.992</ele>
<time>2020-09-10T09:53:39Z</time>
</trkpt>
<trkpt lat="48.679237" lon="10.13462">
<ele>441.992</ele>
<time>2020-09-10T09:53:40Z</time>
</trkpt>
<trkpt lat="48.679237" lon="10.134686">
<ele>441.992</ele>
<time>2020-09-10T09:53:41Z</time>
</trkpt>
<trkpt lat="48.679234" lon="10.134748">
<ele>441.992</ele>
<time>2020-09-10T09:53:42Z</time>
</trkpt>
<trkpt lat="48.679234" lon="10.134815">
<ele>441.992</ele>
<time>2020-09-10T09:53:43Z</time>
</trkpt>
<trkpt lat="48.679234" lon="10.13488">
<ele>441.992</ele>
<time>2020-09-10T09:53:44Z</time>
</trkpt>
<trkpt lat="48.67923" lon="10.134946">
<ele>441.992</ele>
<time>2020-09-10T09:53:45Z</time>
</trkpt>
<trkpt lat="48.67923" lon="10.135016">
<ele>441.992</ele>
<time>2020-09-10T09:53:46Z</time>
</trkpt>
<trkpt lat="48.67923" lon="10.135086">
<ele>441.992</ele>
<time>2020-09-10T09:53:47Z</time>
</trkpt>
<trkpt lat="48.679226" lon="10.135155">
<ele>441.992</ele>
<time>2020-09-10T09:53:48Z</time>
</trkpt>
<trkpt lat="48.67923" lon="10.135224">
<ele>441.992</ele>
<time>2020-09-10T09:53:49Z</time>
</trkpt>
<trkpt lat="48.67923" lon="10.135291">
<ele>441.992</ele>
<time>2020-09-10T09:53:50Z</time>
</trkpt>
<trkpt lat="48.67923" lon="10.135357">
<ele>441.992</ele>
<time>2020-09-10T09:53:51Z</time>
</trkpt>
<trkpt lat="48.679226" lon="10.135422">
<ele>441.992</ele>
<time>2020-09-10T09:53:52Z</time>
</trkpt>
<trkpt lat="48.679226" lon="10.13549">
<ele>441.992</ele>
<time>2020-09-10T09:53:53Z</time>
</trkpt>
<trkpt lat="48.679222" lon="10.135562">
<ele>441.992</ele>
<time>2020-09-10T09:53:54Z</time>
</trkpt>
<trkpt lat="48.679222" lon="10.135633">
<ele>441.992</ele>
<time>2020-09-10T09:53:55Z</time>
</trkpt>
<trkpt lat="48.679226" lon="10.135705">
<ele>441.992</ele>
<time>2020-09-10T09:53:56Z</time>
</trkpt>
<trkpt lat="48.679226" lon="10.135774">
<ele>441.992</ele>
<time>2020-09-10T09:53:57Z</time>
</trkpt>
<trkpt lat="48.679222" lon="10.135843">
<ele>441.992</ele>
<time>2020-09-10T09:53:58Z</time>
</trkpt>
<trkpt lat="48.679222" lon="10.135916">
<ele>441.992</ele>
<time>2020-09-10T09:53:59Z</time>
</trkpt>
<trkpt lat="48.679218" lon="10.135985">
<ele>441.992</ele>
<time>2020-09-10T09:54:00Z</time>
</trkpt>
<trkpt lat="48.679218" lon="10.136057">
<ele>441.992</ele>
<time>2020-09-10T09:54:01Z</time>
</trkpt>
<trkpt lat="48.679218" lon="10.136129">
<ele>441.992</ele>
<time>2020-09-10T09:54:02Z</time>
</trkpt>
<trkpt lat="48.679222" lon="10.136201">
<ele>441.992</ele>
<time>2020-09-10T09:54:03Z</time>
</trkpt>
<trkpt lat="48.679222" lon="10.13627">
<ele>441.992</ele>
<time>2020-09-10T09:54:04Z</time>
</trkpt>
<trkpt lat="48.679226" lon="10.13634">
<ele>441.992</ele>
<time>2020-09-10T09:54:05Z</time>
</trkpt>
<trkpt lat="48.679226" lon="10.136408">
<ele>441.992</ele>
<time>2020-09-10T09:54:06Z</time>
</trkpt>
<trkpt lat="48.679222" lon="10.136476">
<ele>441.992</ele>
<time>2020-09-10T09:54:07Z</time>
</trkpt>
<trkpt lat="48.679222" lon="10.136543">
<ele>441.992</ele>
<time>2020-09-10T09:54:08Z</time>
</trkpt>
<trkpt lat="48.679218" lon="10.136612">
<ele>441.992</ele>
<time>2020-09-10T09:54:09Z</time>
</trkpt>
<trkpt lat="48.679218" lon="10.136683">
<ele>441.992</ele>
<time>2020-09-10T09:54:10Z</time>
</trkpt>
<trkpt lat="48.679218" lon="10.136752">
<ele>441.992</ele>
<time>2020-09-10T09:54:11Z</time>
</trkpt>
<trkpt lat="48.679214" lon="10.136823">
<ele>441.746</ele>
<time>2020-09-10T09:54:12Z</time>
</trkpt>
<trkpt lat="48.679211" lon="10.136898">
<ele>441.553</ele>
<time>2020-09-10T09:54:13Z</time>
</trkpt>
<trkpt lat="48.679211" lon="10.136971">
<ele>441.4</ele>
<time>2020-09-10T09:54:14Z</time>
</trkpt>
<trkpt lat="48.679211" lon="10.13705">
<ele>441.298</ele>
<time>2020-09-10T09:54:15Z</time>
</trkpt>
<trkpt lat="48.679211" lon="10.137122">
<ele>441.189</ele>
<time>2020-09-10T09:54:16Z</time>
</trkpt>
<trkpt lat="48.679207" lon="10.137192">
<ele>441.112</ele>
<time>2020-09-10T09:54:17Z</time>
</trkpt>
<trkpt lat="48.679203" lon="10.137259">
<ele>441.063</ele>
<time>2020-09-10T09:54:18Z</time>
</trkpt>
<trkpt lat="48.679195" lon="10.137323">
<ele>441.039</ele>
<time>2020-09-10T09:54:19Z</time>
</trkpt>
<trkpt lat="48.679188" lon="10.137384">
<ele>441.039</ele>
<time>2020-09-10T09:54:20Z</time>
</trkpt>
<trkpt lat="48.67918" lon="10.137448">
<ele>441.039</ele>
<time>2020-09-10T09:54:21Z</time>
</trkpt>
<trkpt lat="48.67918" lon="10.137508">
<ele>441.039</ele>
<time>2020-09-10T09:54:22Z</time>
</trkpt>
<trkpt lat="48.67918" lon="10.13757">
<ele>441.039</ele>
<time>2020-09-10T09:54:23Z</time>
</trkpt>
<trkpt lat="48.679184" lon="10.137631">
<ele>441.039</ele>
<time>2020-09-10T09:54:24Z</time>
</trkpt>
<trkpt lat="48.679184" lon="10.137685">
<ele>441.039</ele>
<time>2020-09-10T09:54:25Z</time>
</trkpt>
<trkpt lat="48.679188" lon="10.137734">
<ele>441.039</ele>
<time>2020-09-10T09:54:26Z</time>
</trkpt>
<trkpt lat="48.679188" lon="10.137787">
<ele>441.039</ele>
<time>2020-09-10T09:54:27Z</time>
</trkpt>
<trkpt lat="48.679184" lon="10.137841">
<ele>441.039</ele>
<time>2020-09-10T09:54:28Z</time>
</trkpt>
<trkpt lat="48.679184" lon="10.137894">
<ele>441.039</ele>
<time>2020-09-10T09:54:29Z</time>
</trkpt>
<trkpt lat="48.67918" lon="10.137943">
<ele>441.039</ele>
<time>2020-09-10T09:54:30Z</time>
</trkpt>
<trkpt lat="48.679184" lon="10.137997">
<ele>441.039</ele>
<time>2020-09-10T09:54:31Z</time>
</trkpt>
<trkpt lat="48.67918" lon="10.138048">
<ele>441.039</ele>
<time>2020-09-10T09:54:32Z</time>
</trkpt>
<trkpt lat="48.679184" lon="10.138099">
<ele>441.039</ele>
<time>2020-09-10T09:54:33Z</time>
</trkpt>
<trkpt lat="48.679184" lon="10.138153">
<ele>441.039</ele>
<time>2020-09-10T09:54:34Z</time>
</trkpt>
<trkpt lat="48.67918" lon="10.138214">
<ele>441.039</ele>
<time>2020-09-10T09:54:35Z</time>
</trkpt>
<trkpt lat="48.67918" lon="10.138279">
<ele>441.039</ele>
<time>2020-09-10T09:54:36Z</time>
</trkpt>
<trkpt lat="48.679169" lon="10.13834">
<ele>441.039</ele>
<time>2020-09-10T09:54:37Z</time>
</trkpt>
<trkpt lat="48.679169" lon="10.138402">
<ele>441.039</ele>
<time>2020-09-10T09:54:38Z</time>
</trkpt>
<trkpt lat="48.679173" lon="10.138463">
<ele>441.039</ele>
<time>2020-09-10T09:54:39Z</time>
</trkpt>
<trkpt lat="48.679169" lon="10.138525">
<ele>441.039</ele>
<time>2020-09-10T09:54:40Z</time>
</trkpt>
<trkpt lat="48.679157" lon="10.13858">
<ele>441.039</ele>
<time>2020-09-10T09:54:41Z</time>
</trkpt>
<trkpt lat="48.679138" lon="10.138627">
<ele>441.039</ele>
<time>2020-09-10T09:54:42Z</time>
</trkpt>
<trkpt lat="48.679111" lon="10.138652">
<ele>441.039</ele>
<time>2020-09-10T09:54:43Z</time>
</trkpt>
<trkpt lat="48.679073" lon="10.138673">
<ele>441.039</ele>
<time>2020-09-10T09:54:44Z</time>
</trkpt>
<trkpt lat="48.679028" lon="10.138692">
<ele>441.039</ele>
<time>2020-09-10T09:54:45Z</time>
</trkpt>
<trkpt lat="48.678982" lon="10.138702">
<ele>441.039</ele>
<time>2020-09-10T09:54:46Z</time>
</trkpt>
<trkpt lat="48.67894" lon="10.13871">
<ele>441.039</ele>
<time>2020-09-10T09:54:47Z</time>
</trkpt>
<trkpt lat="48.678894" lon="10.13872">
<ele>441.039</ele>
<time>2020-09-10T09:54:48Z</time>
</trkpt>
<trkpt lat="48.678852" lon="10.138732">
<ele>441.039</ele>
<time>2020-09-10T09:54:49Z</time>
</trkpt>
<trkpt lat="48.678806" lon="10.138741">
<ele>441.039</ele>
<time>2020-09-10T09:54:50Z</time>
</trkpt>
<trkpt lat="48.678761" lon="10.138746">
<ele>441.039</ele>
<time>2020-09-10T09:54:51Z</time>
</trkpt>
<trkpt lat="48.678719" lon="10.13875">
<ele>441.039</ele>
<time>2020-09-10T09:54:52Z</time>
</trkpt>
<trkpt lat="48.678669" lon="10.138752">
<ele>441.039</ele>
<time>2020-09-10T09:54:53Z</time>
</trkpt>
<trkpt lat="48.678623" lon="10.138755">
<ele>441.039</ele>
<time>2020-09-10T09:54:54Z</time>
</trkpt>
<trkpt lat="48.67857" lon="10.138759">
<ele>441.039</ele>
<time>2020-09-10T09:54:55Z</time>
</trkpt>
<trkpt lat="48.678524" lon="10.138761">
<ele>441.039</ele>
<time>2020-09-10T09:54:56Z</time>
</trkpt>
<trkpt lat="48.678474" lon="10.138767">
<ele>441.039</ele>
<time>2020-09-10T09:54:57Z</time>
</trkpt>
<trkpt lat="48.678429" lon="10.13877">
<ele>441.039</ele>
<time>2020-09-10T09:54:58Z</time>
</trkpt>
<trkpt lat="48.678379" lon="10.138773">
<ele>441.039</ele>
<time>2020-09-10T09:54:59Z</time>
</trkpt>
<trkpt lat="48.678329" lon="10.13878">
<ele>441.039</ele>
<time>2020-09-10T09:55:00Z</time>
</trkpt>
<trkpt lat="48.67828" lon="10.138792">
<ele>441.039</ele>
<time>2020-09-10T09:55:01Z</time>
</trkpt>
<trkpt lat="48.67823" lon="10.138803">
<ele>441.039</ele>
<time>2020-09-10T09:55:02Z</time>
</trkpt>
<trkpt lat="48.678181" lon="10.138815">
<ele>441.039</ele>
<time>2020-09-10T09:55:03Z</time>
</trkpt>
<trkpt lat="48.678131" lon="10.138828">
<ele>441.039</ele>
<time>2020-09-10T09:55:04Z</time>
</trkpt>
<trkpt lat="48.678074" lon="10.138839">
<ele>441.039</ele>
<time>2020-09-10T09:55:05Z</time>
</trkpt>
<trkpt lat="48.678024" lon="10.138846">
<ele>441.039</ele>
<time>2020-09-10T09:55:06Z</time>
</trkpt>
<trkpt lat="48.677971" lon="10.138853">
<ele>441.039</ele>
<time>2020-09-10T09:55:07Z</time>
</trkpt>
<trkpt lat="48.677917" lon="10.13886">
<ele>441.039</ele>
<time>2020-09-10T09:55:08Z</time>
</trkpt>
<trkpt lat="48.677864" lon="10.138866">
<ele>441.039</ele>
<time>2020-09-10T09:55:09Z</time>
</trkpt>
<trkpt lat="48.677811" lon="10.138874">
<ele>441.039</ele>
<time>2020-09-10T09:55:10Z</time>
</trkpt>
<trkpt lat="48.677757" lon="10.138877">
<ele>441.039</ele>
<time>2020-09-10T09:55:11Z</time>
</trkpt>
<trkpt lat="48.677711" lon="10.138883">
<ele>441.039</ele>
<time>2020-09-10T09:55:12Z</time>
</trkpt>
<trkpt lat="48.677658" lon="10.138891">
<ele>441.039</ele>
<time>2020-09-10T09:55:13Z</time>
</trkpt>
<trkpt lat="48.677612" lon="10.138904">
<ele>441.039</ele>
<time>2020-09-10T09:55:14Z</time>
</trkpt>
<trkpt lat="48.67757" lon="10.138924">
<ele>441.039</ele>
<time>2020-09-10T09:55:15Z</time>
</trkpt>
<trkpt lat="48.677532" lon="10.138958">
<ele>441.039</ele>
<time>2020-09-10T09:55:16Z</time>
</trkpt>
<trkpt lat="48.677505" lon="10.13901">
<ele>441.039</ele>
<time>2020-09-10T09:55:17Z</time>
</trkpt>
<trkpt lat="48.677483" lon="10.139073">
<ele>441.039</ele>
<time>2020-09-10T09:55:18Z</time>
</trkpt>
<trkpt lat="48.677471" lon="10.139144">
<ele>441.039</ele>
<time>2020-09-10T09:55:19Z</time>
</trkpt>
<trkpt lat="48.677467" lon="10.139215">
<ele>441.039</ele>
<time>2020-09-10T09:55:20Z</time>
</trkpt>
<trkpt lat="48.677467" lon="10.13929">
<ele>441.039</ele>
<time>2020-09-10T09:55:21Z</time>
</trkpt>
<trkpt lat="48.677467" lon="10.139368">
<ele>441.039</ele>
<time>2020-09-10T09:55:22Z</time>
</trkpt>
<trkpt lat="48.677471" lon="10.139446">
<ele>441.039</ele>
<time>2020-09-10T09:55:23Z</time>
</trkpt>
<trkpt lat="48.677475" lon="10.139524">
<ele>441.039</ele>
<time>2020-09-10T09:55:24Z</time>
</trkpt>
<trkpt lat="48.677479" lon="10.139602">
<ele>441.039</ele>
<time>2020-09-10T09:55:25Z</time>
</trkpt>
<trkpt lat="48.677479" lon="10.139678">
<ele>441.039</ele>
<time>2020-09-10T09:55:26Z</time>
</trkpt>
<trkpt lat="48.677479" lon="10.139756">
<ele>441.039</ele>
<time>2020-09-10T09:55:27Z</time>
</trkpt>
<trkpt lat="48.677483" lon="10.139835">
<ele>441.039</ele>
<time>2020-09-10T09:55:28Z</time>
</trkpt>
<trkpt lat="48.677483" lon="10.139912">
<ele>441.039</ele>
<time>2020-09-10T09:55:29Z</time>
</trkpt>
<trkpt lat="48.677483" lon="10.139989">
<ele>441.039</ele>
<time>2020-09-10T09:55:30Z</time>
</trkpt>
<trkpt lat="48.677483" lon="10.140064">
<ele>441.039</ele>
<time>2020-09-10T09:55:31Z</time>
</trkpt>
<trkpt lat="48.677483" lon="10.140143">
<ele>441.039</ele>
<time>2020-09-10T09:55:32Z</time>
</trkpt>
<trkpt lat="48.677483" lon="10.140222">
<ele>441.039</ele>
<time>2020-09-10T09:55:33Z</time>
</trkpt>
<trkpt lat="48.677483" lon="10.140299">
<ele>441.039</ele>
<time>2020-09-10T09:55:34Z</time>
</trkpt>
<trkpt lat="48.677483" lon="10.140376">
<ele>441.039</ele>
<time>2020-09-10T09:55:35Z</time>
</trkpt>
<trkpt lat="48.677486" lon="10.140456">
<ele>441.039</ele>
<time>2020-09-10T09:55:36Z</time>
</trkpt>
<trkpt lat="48.677486" lon="10.140538">
<ele>441.039</ele>
<time>2020-09-10T09:55:37Z</time>
</trkpt>
<trkpt lat="48.677486" lon="10.140615">
<ele>441.039</ele>
<time>2020-09-10T09:55:38Z</time>
</trkpt>
<trkpt lat="48.677483" lon="10.14069">
<ele>441.039</ele>
<time>2020-09-10T09:55:39Z</time>
</trkpt>
<trkpt lat="48.677475" lon="10.140765">
<ele>441.039</ele>
<time>2020-09-10T09:55:40Z</time>
</trkpt>
<trkpt lat="48.677471" lon="10.140843">
<ele>441.039</ele>
<time>2020-09-10T09:55:41Z</time>
</trkpt>
<trkpt lat="48.677467" lon="10.140924">
<ele>441.039</ele>
<time>2020-09-10T09:55:42Z</time>
</trkpt>
<trkpt lat="48.677464" lon="10.141003">
<ele>441.039</ele>
<time>2020-09-10T09:55:43Z</time>
</trkpt>
<trkpt lat="48.67746" lon="10.141082">
<ele>441.039</ele>
<time>2020-09-10T09:55:44Z</time>
</trkpt>
<trkpt lat="48.67746" lon="10.14116">
<ele>441.039</ele>
<time>2020-09-10T09:55:45Z</time>
</trkpt>
<trkpt lat="48.67746" lon="10.141238">
<ele>441.039</ele>
<time>2020-09-10T09:55:46Z</time>
</trkpt>
<trkpt lat="48.67746" lon="10.141315">
<ele>441.039</ele>
<time>2020-09-10T09:55:47Z</time>
</trkpt>
<trkpt lat="48.67746" lon="10.14139">
<ele>441.039</ele>
<time>2020-09-10T09:55:48Z</time>
</trkpt>
<trkpt lat="48.677464" lon="10.141465">
<ele>441.039</ele>
<time>2020-09-10T09:55:49Z</time>
</trkpt>
<trkpt lat="48.677464" lon="10.141539">
<ele>441.039</ele>
<time>2020-09-10T09:55:50Z</time>
</trkpt>
<trkpt lat="48.677471" lon="10.14161">
<ele>441.039</ele>
<time>2020-09-10T09:55:51Z</time>
</trkpt>
<trkpt lat="48.677475" lon="10.141684">
<ele>441.039</ele>
<time>2020-09-10T09:55:52Z</time>
</trkpt>
<trkpt lat="48.677483" lon="10.141755">
<ele>441.039</ele>
<time>2020-09-10T09:55:53Z</time>
</trkpt>
<trkpt lat="48.677479" lon="10.141832">
<ele>441.039</ele>
<time>2020-09-10T09:55:54Z</time>
</trkpt>
<trkpt lat="48.677483" lon="10.141912">
<ele>441.039</ele>
<time>2020-09-10T09:55:55Z</time>
</trkpt>
<trkpt lat="48.677479" lon="10.141994">
<ele>441.039</ele>
<time>2020-09-10T09:55:56Z</time>
</trkpt>
<trkpt lat="48.677479" lon="10.142072">
<ele>441.039</ele>
<time>2020-09-10T09:55:57Z</time>
</trkpt>
<trkpt lat="48.677483" lon="10.142153">
<ele>441.039</ele>
<time>2020-09-10T09:55:58Z</time>
</trkpt>
<trkpt lat="48.677483" lon="10.142237">
<ele>441.039</ele>
<time>2020-09-10T09:55:59Z</time>
</trkpt>
<trkpt lat="48.677483" lon="10.142315">
<ele>441.039</ele>
<time>2020-09-10T09:56:00Z</time>
</trkpt>
<trkpt lat="48.677486" lon="10.142393">
<ele>441.039</ele>
<time>2020-09-10T09:56:01Z</time>
</trkpt>
<trkpt lat="48.677494" lon="10.142477">
<ele>440.77</ele>
<time>2020-09-10T09:56:02Z</time>
</trkpt>
<trkpt lat="48.677502" lon="10.142558">
<ele>440.56</ele>
<time>2020-09-10T09:56:03Z</time>
</trkpt>
<trkpt lat="48.677509" lon="10.14264">
<ele>440.398</ele>
<time>2020-09-10T09:56:04Z</time>
</trkpt>
<trkpt lat="48.677517" lon="10.142723">
<ele>440.287</ele>
<time>2020-09-10T09:56:05Z</time>
</trkpt>
<trkpt lat="48.677525" lon="10.142807">
<ele>440.168</ele>
<time>2020-09-10T09:56:06Z</time>
</trkpt>
<trkpt lat="48.677528" lon="10.142888">
<ele>440.081</ele>
<time>2020-09-10T09:56:07Z</time>
</trkpt>
<trkpt lat="48.677536" lon="10.14297">
<ele>440.025</ele>
<time>2020-09-10T09:56:08Z</time>
</trkpt>
<trkpt lat="48.677544" lon="10.143052">
<ele>439.999</ele>
<time>2020-09-10T09:56:09Z</time>
</trkpt>
<trkpt lat="48.677551" lon="10.143131">
<ele>439.999</ele>
<time>2020-09-10T09:56:10Z</time>
</trkpt>
<trkpt lat="48.677559" lon="10.143211">
<ele>439.999</ele>
<time>2020-09-10T09:56:11Z</time>
</trkpt>
<trkpt lat="48.67757" lon="10.143291">
<ele>439.999</ele>
<time>2020-09-10T09:56:12Z</time>
</trkpt>
<trkpt lat="48.677574" lon="10.143368">
<ele>439.999</ele>
<time>2020-09-10T09:56:13Z</time>
</trkpt>
<trkpt lat="48.677582" lon="10.143445">
<ele>439.999</ele>
<time>2020-09-10T09:56:14Z</time>
</trkpt>
<trkpt lat="48.677586" lon="10.143518">
<ele>439.999</ele>
<time>2020-09-10T09:56:15Z</time>
</trkpt>
<trkpt lat="48.677593" lon="10.143595">
<ele>439.999</ele>
<time>2020-09-10T09:56:16Z</time>
</trkpt>
<trkpt lat="48.677597" lon="10.143668">
<ele>439.999</ele>
<time>2020-09-10T09:56:17Z</time>
</trkpt>
<trkpt lat="48.677605" lon="10.143741">
<ele>439.999</ele>
<time>2020-09-10T09:56:18Z</time>
</trkpt>
<trkpt lat="48.677612" lon="10.143814">
<ele>439.999</ele>
<time>2020-09-10T09:56:19Z</time>
</trkpt>
<trkpt lat="48.67762" lon="10.143886">
<ele>439.999</ele>
<time>2020-09-10T09:56:20Z</time>
</trkpt>
<trkpt lat="48.677628" lon="10.143959">
<ele>439.999</ele>
<time>2020-09-10T09:56:21Z</time>
</trkpt>
<trkpt lat="48.677635" lon="10.144028">
<ele>439.999</ele>
<time>2020-09-10T09:56:22Z</time>
</trkpt>
<trkpt lat="48.677647" lon="10.144097">
<ele>439.999</ele>
<time>2020-09-10T09:56:23Z</time>
</trkpt>
<trkpt lat="48.677658" lon="10.144167">
<ele>439.791</ele>
<time>2020-09-10T09:56:24Z</time>
</trkpt>
<trkpt lat="48.677673" lon="10.144243">
<ele>439.64</ele>
<time>2020-09-10T09:56:25Z</time>
</trkpt>
<trkpt lat="48.677677" lon="10.144321">
<ele>439.484</ele>
<time>2020-09-10T09:56:26Z</time>
</trkpt>
<trkpt lat="48.677689" lon="10.144401">
<ele>439.36</ele>
<time>2020-09-10T09:56:27Z</time>
</trkpt>
<trkpt lat="48.677696" lon="10.144479">
<ele>439.264</ele>
<time>2020-09-10T09:56:28Z</time>
</trkpt>
<trkpt lat="48.677704" lon="10.144556">
<ele>439.196</ele>
<time>2020-09-10T09:56:29Z</time>
</trkpt>
<trkpt lat="48.677704" lon="10.144633">
<ele>439.153</ele>
<time>2020-09-10T09:56:30Z</time>
</trkpt>
<trkpt lat="48.677704" lon="10.144709">
<ele>439.133</ele>
<time>2020-09-10T09:56:31Z</time>
</trkpt>
<trkpt lat="48.677704" lon="10.144791">
<ele>439.133</ele>
<time>2020-09-10T09:56:32Z</time>
</trkpt>
<trkpt lat="48.677708" lon="10.144868">
<ele>439.133</ele>
<time>2020-09-10T09:56:33Z</time>
</trkpt>
<trkpt lat="48.677708" lon="10.144946">
<ele>439.133</ele>
<time>2020-09-10T09:56:34Z</time>
</trkpt>
<trkpt lat="48.677711" lon="10.145027">
<ele>439.133</ele>
<time>2020-09-10T09:56:35Z</time>
</trkpt>
<trkpt lat="48.677715" lon="10.145107">
<ele>439.133</ele>
<time>2020-09-10T09:56:36Z</time>
</trkpt>
<trkpt lat="48.677719" lon="10.145183">
<ele>439.133</ele>
<time>2020-09-10T09:56:37Z</time>
</trkpt>
<trkpt lat="48.677723" lon="10.14526">
<ele>439.133</ele>
<time>2020-09-10T09:56:38Z</time>
</trkpt>
<trkpt lat="48.677727" lon="10.145338">
<ele>439.133</ele>
<time>2020-09-10T09:56:39Z</time>
</trkpt>
<trkpt lat="48.677734" lon="10.145417">
<ele>439.133</ele>
<time>2020-09-10T09:56:40Z</time>
</trkpt>
<trkpt lat="48.677734" lon="10.145493">
<ele>439.133</ele>
<time>2020-09-10T09:56:41Z</time>
</trkpt>
<trkpt lat="48.677738" lon="10.145568">
<ele>439.133</ele>
<time>2020-09-10T09:56:42Z</time>
</trkpt>
<trkpt lat="48.677742" lon="10.145643">
<ele>439.133</ele>
<time>2020-09-10T09:56:43Z</time>
</trkpt>
<trkpt lat="48.677746" lon="10.145717">
<ele>439.133</ele>
<time>2020-09-10T09:56:44Z</time>
</trkpt>
<trkpt lat="48.677746" lon="10.145786">
<ele>439.133</ele>
<time>2020-09-10T09:56:45Z</time>
</trkpt>
<trkpt lat="48.67775" lon="10.145862">
<ele>439.133</ele>
<time>2020-09-10T09:56:46Z</time>
</trkpt>
<trkpt lat="48.677757" lon="10.145939">
<ele>439.133</ele>
<time>2020-09-10T09:56:47Z</time>
</trkpt>
<trkpt lat="48.677765" lon="10.146013">
<ele>439.133</ele>
<time>2020-09-10T09:56:48Z</time>
</trkpt>
<trkpt lat="48.677769" lon="10.146085">
<ele>439.133</ele>
<time>2020-09-10T09:56:49Z</time>
</trkpt>
<trkpt lat="48.677776" lon="10.14616">
<ele>439.133</ele>
<time>2020-09-10T09:56:50Z</time>
</trkpt>
<trkpt lat="48.67778" lon="10.146234">
<ele>439.133</ele>
<time>2020-09-10T09:56:51Z</time>
</trkpt>
<trkpt lat="48.677788" lon="10.146303">
<ele>439.133</ele>
<time>2020-09-10T09:56:52Z</time>
</trkpt>
<trkpt lat="48.677792" lon="10.146379">
<ele>439.133</ele>
<time>2020-09-10T09:56:53Z</time>
</trkpt>
<trkpt lat="48.677799" lon="10.146454">
<ele>439.133</ele>
<time>2020-09-10T09:56:54Z</time>
</trkpt>
<trkpt lat="48.677811" lon="10.146523">
<ele>439.133</ele>
<time>2020-09-10T09:56:55Z</time>
</trkpt>
<trkpt lat="48.677822" lon="10.146592">
<ele>439.133</ele>
<time>2020-09-10T09:56:56Z</time>
</trkpt>
<trkpt lat="48.677837" lon="10.146666">
<ele>439.133</ele>
<time>2020-09-10T09:56:57Z</time>
</trkpt>
<trkpt lat="48.677849" lon="10.146739">
<ele>439.133</ele>
<time>2020-09-10T09:56:58Z</time>
</trkpt>
<trkpt lat="48.677856" lon="10.146809">
<ele>439.133</ele>
<time>2020-09-10T09:56:59Z</time>
</trkpt>
<trkpt lat="48.677872" lon="10.146882">
<ele>439.133</ele>
<time>2020-09-10T09:57:00Z</time>
</trkpt>
<trkpt lat="48.677879" lon="10.146953">
<ele>439.133</ele>
<time>2020-09-10T09:57:01Z</time>
</trkpt>
<trkpt lat="48.677891" lon="10.147022">
<ele>439.133</ele>
<time>2020-09-10T09:57:02Z</time>
</trkpt>
<trkpt lat="48.677898" lon="10.14708">
<ele>439.133</ele>
<time>2020-09-10T09:57:03Z</time>
</trkpt>
<trkpt lat="48.677906" lon="10.147133">
<ele>439.133</ele>
<time>2020-09-10T09:57:04Z</time>
</trkpt>
<trkpt lat="48.67791" lon="10.147187">
<ele>439.133</ele>
<time>2020-09-10T09:57:05Z</time>
</trkpt>
<trkpt lat="48.67791" lon="10.147243">
<ele>439.133</ele>
<time>2020-09-10T09:57:06Z</time>
</trkpt>
<trkpt lat="48.677906" lon="10.147297">
<ele>439.133</ele>
<time>2020-09-10T09:57:07Z</time>
</trkpt>
<trkpt lat="48.677895" lon="10.147345">
<ele>439.133</ele>
<time>2020-09-10T09:57:08Z</time>
</trkpt>
<trkpt lat="48.677879" lon="10.14739">
<ele>439.359</ele>
<time>2020-09-10T09:57:09Z</time>
</trkpt>
<trkpt lat="48.677876" lon="10.147445">
<ele>439.547</ele>
<time>2020-09-10T09:57:10Z</time>
</trkpt>
<trkpt lat="48.677872" lon="10.147507">
<ele>439.705</ele>
<time>2020-09-10T09:57:11Z</time>
</trkpt>
<trkpt lat="48.677872" lon="10.147569">
<ele>439.816</ele>
<time>2020-09-10T09:57:12Z</time>
</trkpt>
<trkpt lat="48.677876" lon="10.147635">
<ele>439.89</ele>
<time>2020-09-10T09:57:13Z</time>
</trkpt>
<trkpt lat="48.677876" lon="10.147696">
<ele>439.937</ele>
<time>2020-09-10T09:57:14Z</time>
</trkpt>
<trkpt lat="48.677883" lon="10.147757">
<ele>439.976</ele>
<time>2020-09-10T09:57:15Z</time>
</trkpt>
<trkpt lat="48.677891" lon="10.147817">
<ele>439.999</ele>
<time>2020-09-10T09:57:16Z</time>
</trkpt>
<trkpt lat="48.677898" lon="10.147879">
<ele>440.322</ele>
<time>2020-09-10T09:57:17Z</time>
</trkpt>
<trkpt lat="48.677906" lon="10.147942">
<ele>440.556</ele>
<time>2020-09-10T09:57:18Z</time>
</trkpt>
<trkpt lat="48.67791" lon="10.148005">
<ele>440.732</ele>
<time>2020-09-10T09:57:19Z</time>
</trkpt>
<trkpt lat="48.677917" lon="10.148069">
<ele>440.864</ele>
<time>2020-09-10T09:57:20Z</time>
</trkpt>
<trkpt lat="48.677929" lon="10.148135">
<ele>440.949</ele>
<time>2020-09-10T09:57:21Z</time>
</trkpt>
<trkpt lat="48.67794" lon="10.1482">
<ele>441.008</ele>
<time>2020-09-10T09:57:22Z</time>
</trkpt>
<trkpt lat="48.677952" lon="10.148264">
<ele>441.033</ele>
<time>2020-09-10T09:57:23Z</time>
</trkpt>
<trkpt lat="48.677967" lon="10.148327">
<ele>441.039</ele>
<time>2020-09-10T09:57:24Z</time>
</trkpt>
<trkpt lat="48.677979" lon="10.148392">
<ele>441.039</ele>
<time>2020-09-10T09:57:25Z</time>
</trkpt>
<trkpt lat="48.677994" lon="10.148457">
<ele>441.039</ele>
<time>2020-09-10T09:57:26Z</time>
</trkpt>
<trkpt lat="48.678001" lon="10.148523">
<ele>441.039</ele>
<time>2020-09-10T09:57:27Z</time>
</trkpt>
<trkpt lat="48.678009" lon="10.14859">
<ele>441.039</ele>
<time>2020-09-10T09:57:28Z</time>
</trkpt>
<trkpt lat="48.678024" lon="10.148657">
<ele>441.039</ele>
<time>2020-09-10T09:57:29Z</time>
</trkpt>
<trkpt lat="48.678036" lon="10.148727">
<ele>441.039</ele>
<time>2020-09-10T09:57:30Z</time>
</trkpt>
<trkpt lat="48.678055" lon="10.148793">
<ele>441.039</ele>
<time>2020-09-10T09:57:31Z</time>
</trkpt>
<trkpt lat="48.67807" lon="10.148857">
<ele>441.039</ele>
<time>2020-09-10T09:57:32Z</time>
</trkpt>
<trkpt lat="48.678085" lon="10.148916">
<ele>441.039</ele>
<time>2020-09-10T09:57:33Z</time>
</trkpt>
<trkpt lat="48.678104" lon="10.148971">
<ele>441.039</ele>
<time>2020-09-10T09:57:34Z</time>
</trkpt>
<trkpt lat="48.678131" lon="10.149008">
<ele>441.039</ele>
<time>2020-09-10T09:57:35Z</time>
</trkpt>
<trkpt lat="48.678158" lon="10.149023">
<ele>441.039</ele>
<time>2020-09-10T09:57:36Z</time>
</trkpt>
<trkpt lat="48.6782" lon="10.14902">
<ele>441.039</ele>
<time>2020-09-10T09:57:37Z</time>
</trkpt>
<trkpt lat="48.678238" lon="10.149004">
<ele>440.752</ele>
<time>2020-09-10T09:57:38Z</time>
</trkpt>
<trkpt lat="48.67828" lon="10.14898">
<ele>440.516</ele>
<time>2020-09-10T09:57:39Z</time>
</trkpt>
<trkpt lat="48.678326" lon="10.148956">
<ele>440.365</ele>
<time>2020-09-10T09:57:40Z</time>
</trkpt>
<trkpt lat="48.678364" lon="10.148938">
<ele>439.984</ele>
<time>2020-09-10T09:57:41Z</time>
</trkpt>
<trkpt lat="48.678402" lon="10.148931">
<ele>439.692</ele>
<time>2020-09-10T09:57:42Z</time>
</trkpt>
<trkpt lat="48.678436" lon="10.148927">
<ele>439.492</ele>
<time>2020-09-10T09:57:43Z</time>
</trkpt>
<trkpt lat="48.678467" lon="10.148922">
<ele>439.358</ele>
<time>2020-09-10T09:57:44Z</time>
</trkpt>
<trkpt lat="48.678493" lon="10.148915">
<ele>439.278</ele>
<time>2020-09-10T09:57:45Z</time>
</trkpt>
<trkpt lat="48.678528" lon="10.14892">
<ele>439.209</ele>
<time>2020-09-10T09:57:46Z</time>
</trkpt>
<trkpt lat="48.678555" lon="10.148936">
<ele>439.159</ele>
<time>2020-09-10T09:57:47Z</time>
</trkpt>
<trkpt lat="48.678581" lon="10.148964">
<ele>438.919</ele>
<time>2020-09-10T09:57:48Z</time>
</trkpt>
<trkpt lat="48.678593" lon="10.148997">
<ele>438.673</ele>
<time>2020-09-10T09:57:49Z</time>
</trkpt>
<trkpt lat="48.678596" lon="10.149035">
<ele>438.501</ele>
<time>2020-09-10T09:57:50Z</time>
</trkpt>
<trkpt lat="48.678604" lon="10.149081">
<ele>438.371</ele>
<time>2020-09-10T09:57:51Z</time>
</trkpt>
<trkpt lat="48.678604" lon="10.14913">
<ele>438.278</ele>
<time>2020-09-10T09:57:52Z</time>
</trkpt>
<trkpt lat="48.678604" lon="10.149179">
<ele>438.225</ele>
<time>2020-09-10T09:57:53Z</time>
</trkpt>
<trkpt lat="48.6786" lon="10.149232">
<ele>438.201</ele>
<time>2020-09-10T09:57:54Z</time>
</trkpt>
<trkpt lat="48.678608" lon="10.14929">
<ele>438.18</ele>
<time>2020-09-10T09:57:55Z</time>
</trkpt>
<trkpt lat="48.6786" lon="10.149352">
<ele>438.18</ele>
<time>2020-09-10T09:57:56Z</time>
</trkpt>
<trkpt lat="48.678596" lon="10.14941">
<ele>438.18</ele>
<time>2020-09-10T09:57:57Z</time>
</trkpt>
<trkpt lat="48.678593" lon="10.149468">
<ele>438.18</ele>
<time>2020-09-10T09:57:58Z</time>
</trkpt>
<trkpt lat="48.678593" lon="10.149527">
<ele>438.18</ele>
<time>2020-09-10T09:57:59Z</time>
</trkpt>
<trkpt lat="48.678593" lon="10.14959">
<ele>438.18</ele>
<time>2020-09-10T09:58:00Z</time>
</trkpt>
<trkpt lat="48.678593" lon="10.149655">
<ele>438.18</ele>
<time>2020-09-10T09:58:01Z</time>
</trkpt>
<trkpt lat="48.6786" lon="10.149723">
<ele>438.18</ele>
<time>2020-09-10T09:58:02Z</time>
</trkpt>
<trkpt lat="48.678596" lon="10.14979">
<ele>438.18</ele>
<time>2020-09-10T09:58:03Z</time>
</trkpt>
<trkpt lat="48.678593" lon="10.149853">
<ele>438.18</ele>
<time>2020-09-10T09:58:04Z</time>
</trkpt>
<trkpt lat="48.678623" lon="10.149923">
<ele>438.18</ele>
<time>2020-09-10T09:58:05Z</time>
</trkpt>
<trkpt lat="48.678623" lon="10.149997">
<ele>438.18</ele>
<time>2020-09-10T09:58:06Z</time>
</trkpt>
<trkpt lat="48.678619" lon="10.150072">
<ele>438.18</ele>
<time>2020-09-10T09:58:07Z</time>
</trkpt>
<trkpt lat="48.678604" lon="10.150146">
<ele>438.18</ele>
<time>2020-09-10T09:58:08Z</time>
</trkpt>
<trkpt lat="48.678589" lon="10.150219">
<ele>438.18</ele>
<time>2020-09-10T09:58:09Z</time>
</trkpt>
<trkpt lat="48.678574" lon="10.150289">
<ele>438.18</ele>
<time>2020-09-10T09:58:10Z</time>
</trkpt>
<trkpt lat="48.678562" lon="10.15036">
<ele>438.18</ele>
<time>2020-09-10T09:58:11Z</time>
</trkpt>
<trkpt lat="48.678555" lon="10.150431">
<ele>438.18</ele>
<time>2020-09-10T09:58:12Z</time>
</trkpt>
<trkpt lat="48.678635" lon="10.15049">
<ele>438.18</ele>
<time>2020-09-10T09:58:13Z</time>
</trkpt>
<trkpt lat="48.678642" lon="10.150555">
<ele>437.912</ele>
<time>2020-09-10T09:58:14Z</time>
</trkpt>
<trkpt lat="48.678623" lon="10.150623">
<ele>437.723</ele>
<time>2020-09-10T09:58:15Z</time>
</trkpt>
<trkpt lat="48.678596" lon="10.150693">
<ele>437.538</ele>
<time>2020-09-10T09:58:16Z</time>
</trkpt>
<trkpt lat="48.678581" lon="10.150765">
<ele>437.393</ele>
<time>2020-09-10T09:58:17Z</time>
</trkpt>
<trkpt lat="48.678562" lon="10.150839">
<ele>437.283</ele>
<time>2020-09-10T09:58:18Z</time>
</trkpt>
<trkpt lat="48.678543" lon="10.1509">
<ele>437.209</ele>
<time>2020-09-10T09:58:19Z</time>
</trkpt>
<trkpt lat="48.678528" lon="10.150963">
<ele>437.162</ele>
<time>2020-09-10T09:58:20Z</time>
</trkpt>
<trkpt lat="48.678501" lon="10.151033">
<ele>437.141</ele>
<time>2020-09-10T09:58:21Z</time>
</trkpt>
<trkpt lat="48.678482" lon="10.151101">
<ele>437.141</ele>
<time>2020-09-10T09:58:22Z</time>
</trkpt>
<trkpt lat="48.678463" lon="10.151172">
<ele>437.141</ele>
<time>2020-09-10T09:58:23Z</time>
</trkpt>
<trkpt lat="48.678444" lon="10.151239">
<ele>437.141</ele>
<time>2020-09-10T09:58:24Z</time>
</trkpt>
<trkpt lat="48.678421" lon="10.151304">
<ele>437.141</ele>
<time>2020-09-10T09:58:25Z</time>
</trkpt>
<trkpt lat="48.678406" lon="10.151361">
<ele>437.141</ele>
<time>2020-09-10T09:58:26Z</time>
</trkpt>
<trkpt lat="48.678387" lon="10.151415">
<ele>437.141</ele>
<time>2020-09-10T09:58:27Z</time>
</trkpt>
<trkpt lat="48.678364" lon="10.151472">
<ele>437.141</ele>
<time>2020-09-10T09:58:28Z</time>
</trkpt>
<trkpt lat="48.678349" lon="10.151533">
<ele>437.141</ele>
<time>2020-09-10T09:58:29Z</time>
</trkpt>
<trkpt lat="48.678329" lon="10.151591">
<ele>437.141</ele>
<time>2020-09-10T09:58:30Z</time>
</trkpt>
<trkpt lat="48.678307" lon="10.15165">
<ele>437.141</ele>
<time>2020-09-10T09:58:31Z</time>
</trkpt>
<trkpt lat="48.678295" lon="10.151711">
<ele>437.141</ele>
<time>2020-09-10T09:58:32Z</time>
</trkpt>
<trkpt lat="48.678276" lon="10.151765">
<ele>437.141</ele>
<time>2020-09-10T09:58:33Z</time>
</trkpt>
<trkpt lat="48.678265" lon="10.151814">
<ele>437.141</ele>
<time>2020-09-10T09:58:34Z</time>
</trkpt>
<trkpt lat="48.678253" lon="10.151842">
<ele>437.141</ele>
<time>2020-09-10T09:58:35Z</time>
</trkpt>
<trkpt lat="48.678234" lon="10.151859">
<ele>437.141</ele>
<time>2020-09-10T09:58:36Z</time>
</trkpt>
<trkpt lat="48.678215" lon="10.151875">
<ele>437.141</ele>
<time>2020-09-10T09:58:37Z</time>
</trkpt>
<trkpt lat="48.6782" lon="10.151892">
<ele>437.141</ele>
<time>2020-09-10T09:58:38Z</time>
</trkpt>
<trkpt lat="48.678185" lon="10.151914">
<ele>437.141</ele>
<time>2020-09-10T09:58:39Z</time>
</trkpt>
<trkpt lat="48.678169" lon="10.151935">
<ele>437.141</ele>
<time>2020-09-10T09:58:40Z</time>
</trkpt>
<trkpt lat="48.678158" lon="10.15196">
<ele>437.141</ele>
<time>2020-09-10T09:58:41Z</time>
</trkpt>
<trkpt lat="48.678146" lon="10.151985">
<ele>437.141</ele>
<time>2020-09-10T09:58:42Z</time>
</trkpt>
<trkpt lat="48.678135" lon="10.152008">
<ele>437.141</ele>
<time>2020-09-10T09:58:43Z</time>
</trkpt>
<trkpt lat="48.678135" lon="10.152027">
<ele>437.141</ele>
<time>2020-09-10T09:58:44Z</time>
</trkpt>
<trkpt lat="48.678131" lon="10.152025">
<ele>437.141</ele>
<time>2020-09-10T09:58:45Z</time>
</trkpt>
<trkpt lat="48.678127" lon="10.152023">
<ele>437.141</ele>
<time>2020-09-10T09:58:46Z</time>
</trkpt>
<trkpt lat="48.678123" lon="10.152027">
<ele>437.141</ele>
<time>2020-09-10T09:58:47Z</time>
</trkpt>
<trkpt lat="48.678093" lon="10.152083">
<ele>437.141</ele>
<time>2020-09-10T10:04:29Z</time>
</trkpt>
<trkpt lat="48.678097" lon="10.152094">
<ele>437.141</ele>
<time>2020-09-10T10:04:30Z</time>
</trkpt>
<trkpt lat="48.678104" lon="10.152101">
<ele>437.141</ele>
<time>2020-09-10T10:04:31Z</time>
</trkpt>
<trkpt lat="48.678108" lon="10.15211">
<ele>437.141</ele>
<time>2020-09-10T10:04:32Z</time>
</trkpt>
<trkpt lat="48.678123" lon="10.152125">
<ele>437.141</ele>
<time>2020-09-10T10:04:33Z</time>
</trkpt>
<trkpt lat="48.678135" lon="10.152146">
<ele>437.141</ele>
<time>2020-09-10T10:04:34Z</time>
</trkpt>
<trkpt lat="48.678139" lon="10.152184">
<ele>437.141</ele>
<time>2020-09-10T10:04:35Z</time>
</trkpt>
<trkpt lat="48.678139" lon="10.15223">
<ele>437.141</ele>
<time>2020-09-10T10:04:36Z</time>
</trkpt>
<trkpt lat="48.678135" lon="10.152272">
<ele>437.141</ele>
<time>2020-09-10T10:04:37Z</time>
</trkpt>
<trkpt lat="48.678139" lon="10.152331">
<ele>437.141</ele>
<time>2020-09-10T10:04:38Z</time>
</trkpt>
<trkpt lat="48.678135" lon="10.152415">
<ele>437.141</ele>
<time>2020-09-10T10:04:39Z</time>
</trkpt>
<trkpt lat="48.678131" lon="10.1525">
<ele>437.141</ele>
<time>2020-09-10T10:04:40Z</time>
</trkpt>
<trkpt lat="48.67812" lon="10.152585">
<ele>437.141</ele>
<time>2020-09-10T10:04:41Z</time>
</trkpt>
<trkpt lat="48.678112" lon="10.152663">
<ele>437.141</ele>
<time>2020-09-10T10:04:42Z</time>
</trkpt>
<trkpt lat="48.678112" lon="10.152723">
<ele>437.141</ele>
<time>2020-09-10T10:04:43Z</time>
</trkpt>
<trkpt lat="48.678104" lon="10.152764">
<ele>437.141</ele>
<time>2020-09-10T10:04:44Z</time>
</trkpt>
<trkpt lat="48.678093" lon="10.152785">
<ele>437.141</ele>
<time>2020-09-10T10:04:45Z</time>
</trkpt>
<trkpt lat="48.678074" lon="10.152792">
<ele>437.141</ele>
<time>2020-09-10T10:04:46Z</time>
</trkpt>
<trkpt lat="48.678047" lon="10.15279">
<ele>437.141</ele>
<time>2020-09-10T10:04:47Z</time>
</trkpt>
<trkpt lat="48.67802" lon="10.152783">
<ele>437.141</ele>
<time>2020-09-10T10:04:48Z</time>
</trkpt>
<trkpt lat="48.677994" lon="10.152785">
<ele>437.141</ele>
<time>2020-09-10T10:04:49Z</time>
</trkpt>
<trkpt lat="48.677963" lon="10.152779">
<ele>437.141</ele>
<time>2020-09-10T10:04:50Z</time>
</trkpt>
<trkpt lat="48.677921" lon="10.152777">
<ele>437.141</ele>
<time>2020-09-10T10:04:51Z</time>
</trkpt>
<trkpt lat="48.677876" lon="10.15277">
<ele>437.141</ele>
<time>2020-09-10T10:04:52Z</time>
</trkpt>
<trkpt lat="48.677822" lon="10.152783">
<ele>437.141</ele>
<time>2020-09-10T10:04:53Z</time>
</trkpt>
<trkpt lat="48.677773" lon="10.152792">
<ele>437.141</ele>
<time>2020-09-10T10:04:54Z</time>
</trkpt>
<trkpt lat="48.677719" lon="10.1528">
<ele>437.141</ele>
<time>2020-09-10T10:04:55Z</time>
</trkpt>
<trkpt lat="48.677673" lon="10.152802">
<ele>437.141</ele>
<time>2020-09-10T10:04:56Z</time>
</trkpt>
<trkpt lat="48.677631" lon="10.152794">
<ele>437.141</ele>
<time>2020-09-10T10:04:57Z</time>
</trkpt>
<trkpt lat="48.677582" lon="10.152783">
<ele>437.141</ele>
<time>2020-09-10T10:04:58Z</time>
</trkpt>
<trkpt lat="48.677532" lon="10.152777">
<ele>437.141</ele>
<time>2020-09-10T10:04:59Z</time>
</trkpt>
<trkpt lat="48.677483" lon="10.152764">
<ele>437.141</ele>
<time>2020-09-10T10:05:00Z</time>
</trkpt>
<trkpt lat="48.677433" lon="10.152755">
<ele>437.141</ele>
<time>2020-09-10T10:05:01Z</time>
</trkpt>
<trkpt lat="48.677383" lon="10.152741">
<ele>437.141</ele>
<time>2020-09-10T10:05:02Z</time>
</trkpt>
<trkpt lat="48.67733" lon="10.152727">
<ele>437.141</ele>
<time>2020-09-10T10:05:03Z</time>
</trkpt>
<trkpt lat="48.677284" lon="10.152706">
<ele>437.141</ele>
<time>2020-09-10T10:05:04Z</time>
</trkpt>
<trkpt lat="48.677231" lon="10.152683">
<ele>437.141</ele>
<time>2020-09-10T10:05:05Z</time>
</trkpt>
<trkpt lat="48.677177" lon="10.152672">
<ele>437.141</ele>
<time>2020-09-10T10:05:06Z</time>
</trkpt>
<trkpt lat="48.677128" lon="10.152656">
<ele>437.141</ele>
<time>2020-09-10T10:05:07Z</time>
</trkpt>
<trkpt lat="48.677082" lon="10.152643">
<ele>437.141</ele>
<time>2020-09-10T10:05:08Z</time>
</trkpt>
<trkpt lat="48.677029" lon="10.152635">
<ele>437.141</ele>
<time>2020-09-10T10:05:09Z</time>
</trkpt>
<trkpt lat="48.676983" lon="10.15262">
<ele>437.141</ele>
<time>2020-09-10T10:05:10Z</time>
</trkpt>
<trkpt lat="48.676937" lon="10.15261">
<ele>437.141</ele>
<time>2020-09-10T10:05:11Z</time>
</trkpt>
<trkpt lat="48.676891" lon="10.152601">
<ele>436.871</ele>
<time>2020-09-10T10:05:12Z</time>
</trkpt>
<trkpt lat="48.676846" lon="10.152585">
<ele>436.66</ele>
<time>2020-09-10T10:05:13Z</time>
</trkpt>
<trkpt lat="48.676796" lon="10.152572">
<ele>436.492</ele>
<time>2020-09-10T10:05:14Z</time>
</trkpt>
<trkpt lat="48.676743" lon="10.152563">
<ele>436.364</ele>
<time>2020-09-10T10:05:15Z</time>
</trkpt>
<trkpt lat="48.676693" lon="10.152561">
<ele>436.279</ele>
<time>2020-09-10T10:05:16Z</time>
</trkpt>
<trkpt lat="48.67664" lon="10.152556">
<ele>436.19</ele>
<time>2020-09-10T10:05:17Z</time>
</trkpt>
<trkpt lat="48.676594" lon="10.152549">
<ele>436.128</ele>
<time>2020-09-10T10:05:18Z</time>
</trkpt>
<trkpt lat="48.67654" lon="10.152538">
<ele>436.101</ele>
<time>2020-09-10T10:05:19Z</time>
</trkpt>
<trkpt lat="48.676502" lon="10.152532">
<ele>436.101</ele>
<time>2020-09-10T10:05:20Z</time>
</trkpt>
<trkpt lat="48.676453" lon="10.152518">
<ele>436.101</ele>
<time>2020-09-10T10:05:21Z</time>
</trkpt>
<trkpt lat="48.676407" lon="10.152514">
<ele>436.101</ele>
<time>2020-09-10T10:05:22Z</time>
</trkpt>
<trkpt lat="48.676365" lon="10.152503">
<ele>436.101</ele>
<time>2020-09-10T10:05:23Z</time>
</trkpt>
<trkpt lat="48.676327" lon="10.152493">
<ele>436.101</ele>
<time>2020-09-10T10:05:24Z</time>
</trkpt>
<trkpt lat="48.676285" lon="10.152482">
<ele>436.101</ele>
<time>2020-09-10T10:05:25Z</time>
</trkpt>
<trkpt lat="48.676243" lon="10.152467">
<ele>436.101</ele>
<time>2020-09-10T10:05:26Z</time>
</trkpt>
<trkpt lat="48.676205" lon="10.152445">
<ele>436.101</ele>
<time>2020-09-10T10:05:27Z</time>
</trkpt>
<trkpt lat="48.676159" lon="10.152425">
<ele>436.101</ele>
<time>2020-09-10T10:05:28Z</time>
</trkpt>
<trkpt lat="48.676113" lon="10.152404">
<ele>436.101</ele>
<time>2020-09-10T10:05:29Z</time>
</trkpt>
<trkpt lat="48.676067" lon="10.15239">
<ele>436.101</ele>
<time>2020-09-10T10:05:30Z</time>
</trkpt>
<trkpt lat="48.676022" lon="10.15238">
<ele>436.102</ele>
<time>2020-09-10T10:05:31Z</time>
</trkpt>
<trkpt lat="48.67598" lon="10.152369">
<ele>436.102</ele>
<time>2020-09-10T10:05:32Z</time>
</trkpt>
<trkpt lat="48.67593" lon="10.152358">
<ele>436.101</ele>
<time>2020-09-10T10:05:33Z</time>
</trkpt>
<trkpt lat="48.675884" lon="10.152349">
<ele>436.101</ele>
<time>2020-09-10T10:05:34Z</time>
</trkpt>
<trkpt lat="48.675838" lon="10.152342">
<ele>436.101</ele>
<time>2020-09-10T10:05:35Z</time>
</trkpt>
<trkpt lat="48.675789" lon="10.152331">
<ele>436.101</ele>
<time>2020-09-10T10:05:36Z</time>
</trkpt>
<trkpt lat="48.675743" lon="10.152323">
<ele>436.101</ele>
<time>2020-09-10T10:05:37Z</time>
</trkpt>
<trkpt lat="48.675694" lon="10.152313">
<ele>436.101</ele>
<time>2020-09-10T10:05:38Z</time>
</trkpt>
<trkpt lat="48.675648" lon="10.1523">
<ele>436.101</ele>
<time>2020-09-10T10:05:39Z</time>
</trkpt>
<trkpt lat="48.675606" lon="10.15228">
<ele>436.101</ele>
<time>2020-09-10T10:05:40Z</time>
</trkpt>
<trkpt lat="48.67556" lon="10.152262">
<ele>435.822</ele>
<time>2020-09-10T10:05:41Z</time>
</trkpt>
<trkpt lat="48.675522" lon="10.152245">
<ele>435.604</ele>
<time>2020-09-10T10:05:42Z</time>
</trkpt>
<trkpt lat="48.675472" lon="10.152235">
<ele>435.436</ele>
<time>2020-09-10T10:05:43Z</time>
</trkpt>
<trkpt lat="48.675426" lon="10.152232">
<ele>435.311</ele>
<time>2020-09-10T10:05:44Z</time>
</trkpt>
<trkpt lat="48.675373" lon="10.152228">
<ele>435.218</ele>
<time>2020-09-10T10:05:45Z</time>
</trkpt>
<trkpt lat="48.675331" lon="10.152222">
<ele>435.152</ele>
<time>2020-09-10T10:05:46Z</time>
</trkpt>
<trkpt lat="48.675282" lon="10.152213">
<ele>435.091</ele>
<time>2020-09-10T10:05:47Z</time>
</trkpt>
<trkpt lat="48.675236" lon="10.152208">
<ele>435.062</ele>
<time>2020-09-10T10:05:48Z</time>
</trkpt>
<trkpt lat="48.67519" lon="10.152199">
<ele>435.062</ele>
<time>2020-09-10T10:05:49Z</time>
</trkpt>
<trkpt lat="48.67514" lon="10.152192">
<ele>435.062</ele>
<time>2020-09-10T10:05:50Z</time>
</trkpt>
<trkpt lat="48.675095" lon="10.152184">
<ele>435.062</ele>
<time>2020-09-10T10:05:51Z</time>
</trkpt>
<trkpt lat="48.675049" lon="10.15217">
<ele>435.062</ele>
<time>2020-09-10T10:05:52Z</time>
</trkpt>
<trkpt lat="48.675007" lon="10.152159">
<ele>435.062</ele>
<time>2020-09-10T10:05:53Z</time>
</trkpt>
<trkpt lat="48.674961" lon="10.152143">
<ele>435.062</ele>
<time>2020-09-10T10:05:54Z</time>
</trkpt>
<trkpt lat="48.674915" lon="10.152132">
<ele>435.062</ele>
<time>2020-09-10T10:05:55Z</time>
</trkpt>
<trkpt lat="48.674873" lon="10.152135">
<ele>435.062</ele>
<time>2020-09-10T10:05:56Z</time>
</trkpt>
<trkpt lat="48.674828" lon="10.15213">
<ele>435.062</ele>
<time>2020-09-10T10:05:57Z</time>
</trkpt>
<trkpt lat="48.674782" lon="10.152119">
<ele>435.062</ele>
<time>2020-09-10T10:05:58Z</time>
</trkpt>
<trkpt lat="48.674744" lon="10.152104">
<ele>435.062</ele>
<time>2020-09-10T10:05:59Z</time>
</trkpt>
<trkpt lat="48.674709" lon="10.152075">
<ele>435.062</ele>
<time>2020-09-10T10:06:00Z</time>
</trkpt>
<trkpt lat="48.674683" lon="10.152041">
<ele>435.062</ele>
<time>2020-09-10T10:06:01Z</time>
</trkpt>
<trkpt lat="48.674671" lon="10.152004">
<ele>435.062</ele>
<time>2020-09-10T10:06:02Z</time>
</trkpt>
<trkpt lat="48.674656" lon="10.151954">
<ele>435.062</ele>
<time>2020-09-10T10:06:03Z</time>
</trkpt>
<trkpt lat="48.674652" lon="10.151891">
<ele>435.062</ele>
<time>2020-09-10T10:06:04Z</time>
</trkpt>
<trkpt lat="48.674656" lon="10.151817">
<ele>435.062</ele>
<time>2020-09-10T10:06:05Z</time>
</trkpt>
<trkpt lat="48.674664" lon="10.151747">
<ele>435.062</ele>
<time>2020-09-10T10:06:06Z</time>
</trkpt>
<trkpt lat="48.674675" lon="10.151679">
<ele>435.062</ele>
<time>2020-09-10T10:06:07Z</time>
</trkpt>
<trkpt lat="48.674679" lon="10.151608">
<ele>435.062</ele>
<time>2020-09-10T10:06:08Z</time>
</trkpt>
<trkpt lat="48.67469" lon="10.151539">
<ele>435.062</ele>
<time>2020-09-10T10:06:09Z</time>
</trkpt>
<trkpt lat="48.674702" lon="10.151466">
<ele>435.062</ele>
<time>2020-09-10T10:06:10Z</time>
</trkpt>
<trkpt lat="48.674698" lon="10.151393">
<ele>435.062</ele>
<time>2020-09-10T10:06:11Z</time>
</trkpt>
<trkpt lat="48.674679" lon="10.151323">
<ele>435.062</ele>
<time>2020-09-10T10:06:12Z</time>
</trkpt>
<trkpt lat="48.674652" lon="10.151263">
<ele>435.062</ele>
<time>2020-09-10T10:06:13Z</time>
</trkpt>
<trkpt lat="48.674614" lon="10.151215">
<ele>435.062</ele>
<time>2020-09-10T10:06:14Z</time>
</trkpt>
<trkpt lat="48.674572" lon="10.151183">
<ele>435.062</ele>
<time>2020-09-10T10:06:15Z</time>
</trkpt>
<trkpt lat="48.674522" lon="10.151165">
<ele>435.062</ele>
<time>2020-09-10T10:06:16Z</time>
</trkpt>
<trkpt lat="48.674477" lon="10.151157">
<ele>435.062</ele>
<time>2020-09-10T10:06:17Z</time>
</trkpt>
<trkpt lat="48.674431" lon="10.151149">
<ele>435.062</ele>
<time>2020-09-10T10:06:18Z</time>
</trkpt>
<trkpt lat="48.674381" lon="10.151136">
<ele>435.062</ele>
<time>2020-09-10T10:06:19Z</time>
</trkpt>
<trkpt lat="48.674335" lon="10.151125">
<ele>435.062</ele>
<time>2020-09-10T10:06:20Z</time>
</trkpt>
<trkpt lat="48.67429" lon="10.15111">
<ele>435.062</ele>
<time>2020-09-10T10:06:21Z</time>
</trkpt>
<trkpt lat="48.674236" lon="10.151098">
<ele>435.062</ele>
<time>2020-09-10T10:06:22Z</time>
</trkpt>
<trkpt lat="48.674179" lon="10.151092">
<ele>435.062</ele>
<time>2020-09-10T10:06:23Z</time>
</trkpt>
<trkpt lat="48.674126" lon="10.15108">
<ele>435.062</ele>
<time>2020-09-10T10:06:24Z</time>
</trkpt>
<trkpt lat="48.674068" lon="10.151072">
<ele>435.062</ele>
<time>2020-09-10T10:06:25Z</time>
</trkpt>
<trkpt lat="48.674015" lon="10.151059">
<ele>435.062</ele>
<time>2020-09-10T10:06:26Z</time>
</trkpt>
<trkpt lat="48.673962" lon="10.151047">
<ele>435.062</ele>
<time>2020-09-10T10:06:27Z</time>
</trkpt>
<trkpt lat="48.673908" lon="10.151036">
<ele>435.062</ele>
<time>2020-09-10T10:06:28Z</time>
</trkpt>
<trkpt lat="48.673855" lon="10.151024">
<ele>435.062</ele>
<time>2020-09-10T10:06:29Z</time>
</trkpt>
<trkpt lat="48.673805" lon="10.151017">
<ele>435.062</ele>
<time>2020-09-10T10:06:30Z</time>
</trkpt>
<trkpt lat="48.673748" lon="10.151015">
<ele>435.062</ele>
<time>2020-09-10T10:06:31Z</time>
</trkpt>
<trkpt lat="48.673695" lon="10.151002">
<ele>435.062</ele>
<time>2020-09-10T10:06:32Z</time>
</trkpt>
<trkpt lat="48.673641" lon="10.150986">
<ele>435.062</ele>
<time>2020-09-10T10:06:33Z</time>
</trkpt>
<trkpt lat="48.673592" lon="10.150973">
<ele>435.062</ele>
<time>2020-09-10T10:06:34Z</time>
</trkpt>
<trkpt lat="48.673538" lon="10.150963">
<ele>435.062</ele>
<time>2020-09-10T10:06:35Z</time>
</trkpt>
<trkpt lat="48.673481" lon="10.150962">
<ele>435.062</ele>
<time>2020-09-10T10:06:36Z</time>
</trkpt>
<trkpt lat="48.673428" lon="10.150954">
<ele>435.062</ele>
<time>2020-09-10T10:06:37Z</time>
</trkpt>
<trkpt lat="48.673374" lon="10.150944">
<ele>435.062</ele>
<time>2020-09-10T10:06:38Z</time>
</trkpt>
<trkpt lat="48.673325" lon="10.150929">
<ele>435.062</ele>
<time>2020-09-10T10:06:39Z</time>
</trkpt>
<trkpt lat="48.673271" lon="10.150921">
<ele>435.062</ele>
<time>2020-09-10T10:06:40Z</time>
</trkpt>
<trkpt lat="48.673218" lon="10.150907">
<ele>435.062</ele>
<time>2020-09-10T10:06:41Z</time>
</trkpt>
<trkpt lat="48.673172" lon="10.150889">
<ele>435.062</ele>
<time>2020-09-10T10:06:42Z</time>
</trkpt>
<trkpt lat="48.673119" lon="10.15088">
<ele>435.062</ele>
<time>2020-09-10T10:06:43Z</time>
</trkpt>
<trkpt lat="48.673065" lon="10.150868">
<ele>435.062</ele>
<time>2020-09-10T10:06:44Z</time>
</trkpt>
<trkpt lat="48.673012" lon="10.150856">
<ele>435.062</ele>
<time>2020-09-10T10:06:45Z</time>
</trkpt>
<trkpt lat="48.672958" lon="10.150846">
<ele>435.062</ele>
<time>2020-09-10T10:06:46Z</time>
</trkpt>
<trkpt lat="48.672905" lon="10.150833">
<ele>435.062</ele>
<time>2020-09-10T10:06:47Z</time>
</trkpt>
<trkpt lat="48.672848" lon="10.150818">
<ele>435.062</ele>
<time>2020-09-10T10:06:48Z</time>
</trkpt>
<trkpt lat="48.672791" lon="10.150802">
<ele>435.062</ele>
<time>2020-09-10T10:06:49Z</time>
</trkpt>
<trkpt lat="48.672737" lon="10.150788">
<ele>435.062</ele>
<time>2020-09-10T10:06:50Z</time>
</trkpt>
<trkpt lat="48.672684" lon="10.150775">
<ele>435.062</ele>
<time>2020-09-10T10:06:51Z</time>
</trkpt>
<trkpt lat="48.672626" lon="10.150762">
<ele>435.062</ele>
<time>2020-09-10T10:06:52Z</time>
</trkpt>
<trkpt lat="48.672573" lon="10.150749">
<ele>435.062</ele>
<time>2020-09-10T10:06:53Z</time>
</trkpt>
<trkpt lat="48.672523" lon="10.150739">
<ele>435.062</ele>
<time>2020-09-10T10:06:54Z</time>
</trkpt>
<trkpt lat="48.672462" lon="10.150728">
<ele>435.062</ele>
<time>2020-09-10T10:06:55Z</time>
</trkpt>
<trkpt lat="48.672409" lon="10.150715">
<ele>435.062</ele>
<time>2020-09-10T10:06:56Z</time>
</trkpt>
<trkpt lat="48.672356" lon="10.150699">
<ele>434.83</ele>
<time>2020-09-10T10:06:57Z</time>
</trkpt>
<trkpt lat="48.672298" lon="10.150678">
<ele>434.635</ele>
<time>2020-09-10T10:06:58Z</time>
</trkpt>
<trkpt lat="48.672245" lon="10.150661">
<ele>434.473</ele>
<time>2020-09-10T10:06:59Z</time>
</trkpt>
<trkpt lat="48.672188" lon="10.15065">
<ele>434.346</ele>
<time>2020-09-10T10:07:00Z</time>
</trkpt>
<trkpt lat="48.672131" lon="10.150637">
<ele>434.246</ele>
<time>2020-09-10T10:07:01Z</time>
</trkpt>
<trkpt lat="48.672073" lon="10.150627">
<ele>434.188</ele>
<time>2020-09-10T10:07:02Z</time>
</trkpt>
<trkpt lat="48.67202" lon="10.150613">
<ele>433.926</ele>
<time>2020-09-10T10:07:03Z</time>
</trkpt>
<trkpt lat="48.671967" lon="10.150597">
<ele>433.723</ele>
<time>2020-09-10T10:07:04Z</time>
</trkpt>
<trkpt lat="48.671909" lon="10.150585">
<ele>433.578</ele>
<time>2020-09-10T10:07:05Z</time>
</trkpt>
<trkpt lat="48.671856" lon="10.150573">
<ele>433.484</ele>
<time>2020-09-10T10:07:06Z</time>
</trkpt>
<trkpt lat="48.671806" lon="10.15055">
<ele>433.384</ele>
<time>2020-09-10T10:07:07Z</time>
</trkpt>
<trkpt lat="48.671753" lon="10.150525">
<ele>433.314</ele>
<time>2020-09-10T10:07:08Z</time>
</trkpt>
<trkpt lat="48.671703" lon="10.1505">
<ele>433.267</ele>
<time>2020-09-10T10:07:09Z</time>
</trkpt>
<trkpt lat="48.67165" lon="10.150473">
<ele>433.244</ele>
<time>2020-09-10T10:07:10Z</time>
</trkpt>
<trkpt lat="48.6716" lon="10.15045">
<ele>433.244</ele>
<time>2020-09-10T10:07:11Z</time>
</trkpt>
<trkpt lat="48.671547" lon="10.150429">
<ele>433.244</ele>
<time>2020-09-10T10:07:12Z</time>
</trkpt>
<trkpt lat="48.67149" lon="10.150407">
<ele>433.244</ele>
<time>2020-09-10T10:07:13Z</time>
</trkpt>
<trkpt lat="48.67144" lon="10.15038">
<ele>433.244</ele>
<time>2020-09-10T10:07:14Z</time>
</trkpt>
<trkpt lat="48.671387" lon="10.150362">
<ele>433.244</ele>
<time>2020-09-10T10:07:15Z</time>
</trkpt>
<trkpt lat="48.671333" lon="10.150347">
<ele>433.244</ele>
<time>2020-09-10T10:07:16Z</time>
</trkpt>
<trkpt lat="48.671284" lon="10.15033">
<ele>433.244</ele>
<time>2020-09-10T10:07:17Z</time>
</trkpt>
<trkpt lat="48.67123" lon="10.150315">
<ele>433.244</ele>
<time>2020-09-10T10:07:18Z</time>
</trkpt>
<trkpt lat="48.671181" lon="10.150301">
<ele>433.244</ele>
<time>2020-09-10T10:07:19Z</time>
</trkpt>
<trkpt lat="48.671131" lon="10.15029">
<ele>433.244</ele>
<time>2020-09-10T10:07:20Z</time>
</trkpt>
<trkpt lat="48.671082" lon="10.150273">
<ele>433.244</ele>
<time>2020-09-10T10:07:21Z</time>
</trkpt>
<trkpt lat="48.671028" lon="10.15026">
<ele>433.244</ele>
<time>2020-09-10T10:07:22Z</time>
</trkpt>
<trkpt lat="48.670979" lon="10.15025">
<ele>433.244</ele>
<time>2020-09-10T10:07:23Z</time>
</trkpt>
<trkpt lat="48.670933" lon="10.150233">
<ele>433.244</ele>
<time>2020-09-10T10:07:24Z</time>
</trkpt>
<trkpt lat="48.670883" lon="10.150219">
<ele>433.244</ele>
<time>2020-09-10T10:07:25Z</time>
</trkpt>
<trkpt lat="48.670834" lon="10.150205">
<ele>433.244</ele>
<time>2020-09-10T10:07:26Z</time>
</trkpt>
<trkpt lat="48.67078" lon="10.150193">
<ele>433.244</ele>
<time>2020-09-10T10:07:27Z</time>
</trkpt>
<trkpt lat="48.670727" lon="10.150179">
<ele>433.244</ele>
<time>2020-09-10T10:07:28Z</time>
</trkpt>
<trkpt lat="48.67067" lon="10.150165">
<ele>433.244</ele>
<time>2020-09-10T10:07:29Z</time>
</trkpt>
<trkpt lat="48.670612" lon="10.15016">
<ele>433.244</ele>
<time>2020-09-10T10:07:30Z</time>
</trkpt>
<trkpt lat="48.670555" lon="10.15016">
<ele>433.244</ele>
<time>2020-09-10T10:07:31Z</time>
</trkpt>
<trkpt lat="48.670502" lon="10.150154">
<ele>433.244</ele>
<time>2020-09-10T10:07:32Z</time>
</trkpt>
<trkpt lat="48.670444" lon="10.150144">
<ele>433.244</ele>
<time>2020-09-10T10:07:33Z</time>
</trkpt>
<trkpt lat="48.670391" lon="10.150135">
<ele>433.244</ele>
<time>2020-09-10T10:07:34Z</time>
</trkpt>
<trkpt lat="48.670341" lon="10.150125">
<ele>433.244</ele>
<time>2020-09-10T10:07:35Z</time>
</trkpt>
<trkpt lat="48.670292" lon="10.150115">
<ele>433.244</ele>
<time>2020-09-10T10:07:36Z</time>
</trkpt>
<trkpt lat="48.670246" lon="10.1501">
<ele>433.244</ele>
<time>2020-09-10T10:07:37Z</time>
</trkpt>
<trkpt lat="48.6702" lon="10.150088">
<ele>433.244</ele>
<time>2020-09-10T10:07:38Z</time>
</trkpt>
<trkpt lat="48.670158" lon="10.150073">
<ele>433.244</ele>
<time>2020-09-10T10:07:39Z</time>
</trkpt>
<trkpt lat="48.670116" lon="10.150064">
<ele>433.244</ele>
<time>2020-09-10T10:07:40Z</time>
</trkpt>
<trkpt lat="48.670078" lon="10.150057">
<ele>433.244</ele>
<time>2020-09-10T10:07:41Z</time>
</trkpt>
<trkpt lat="48.670044" lon="10.150051">
<ele>433.244</ele>
<time>2020-09-10T10:07:42Z</time>
</trkpt>
<trkpt lat="48.67001" lon="10.150045">
<ele>433.244</ele>
<time>2020-09-10T10:07:43Z</time>
</trkpt>
<trkpt lat="48.669983" lon="10.150035">
<ele>433.244</ele>
<time>2020-09-10T10:07:44Z</time>
</trkpt>
<trkpt lat="48.669952" lon="10.150024">
<ele>433.244</ele>
<time>2020-09-10T10:07:45Z</time>
</trkpt>
<trkpt lat="48.669918" lon="10.150016">
<ele>433.244</ele>
<time>2020-09-10T10:07:46Z</time>
</trkpt>
<trkpt lat="48.66988" lon="10.150002">
<ele>433.244</ele>
<time>2020-09-10T10:07:47Z</time>
</trkpt>
<trkpt lat="48.669838" lon="10.149988">
<ele>433.244</ele>
<time>2020-09-10T10:07:48Z</time>
</trkpt>
<trkpt lat="48.669796" lon="10.149977">
<ele>433.244</ele>
<time>2020-09-10T10:07:49Z</time>
</trkpt>
<trkpt lat="48.669758" lon="10.149965">
<ele>433.244</ele>
<time>2020-09-10T10:07:50Z</time>
</trkpt>
<trkpt lat="48.669716" lon="10.149951">
<ele>433.244</ele>
<time>2020-09-10T10:07:51Z</time>
</trkpt>
<trkpt lat="48.669674" lon="10.149937">
<ele>433.244</ele>
<time>2020-09-10T10:07:52Z</time>
</trkpt>
<trkpt lat="48.669632" lon="10.149926">
<ele>433.244</ele>
<time>2020-09-10T10:07:53Z</time>
</trkpt>
<trkpt lat="48.66959" lon="10.14992">
<ele>433.244</ele>
<time>2020-09-10T10:07:54Z</time>
</trkpt>
<trkpt lat="48.669552" lon="10.149913">
<ele>433.244</ele>
<time>2020-09-10T10:07:55Z</time>
</trkpt>
<trkpt lat="48.669506" lon="10.149905">
<ele>433.244</ele>
<time>2020-09-10T10:07:56Z</time>
</trkpt>
<trkpt lat="48.669464" lon="10.149895">
<ele>433.244</ele>
<time>2020-09-10T10:07:57Z</time>
</trkpt>
<trkpt lat="48.669418" lon="10.149883">
<ele>433.244</ele>
<time>2020-09-10T10:07:58Z</time>
</trkpt>
<trkpt lat="48.669373" lon="10.149874">
<ele>433.244</ele>
<time>2020-09-10T10:07:59Z</time>
</trkpt>
<trkpt lat="48.669331" lon="10.149863">
<ele>433.244</ele>
<time>2020-09-10T10:08:00Z</time>
</trkpt>
<trkpt lat="48.669285" lon="10.14985">
<ele>433.244</ele>
<time>2020-09-10T10:08:01Z</time>
</trkpt>
<trkpt lat="48.669235" lon="10.149836">
<ele>433.244</ele>
<time>2020-09-10T10:08:02Z</time>
</trkpt>
<trkpt lat="48.669193" lon="10.14982">
<ele>433.244</ele>
<time>2020-09-10T10:08:03Z</time>
</trkpt>
<trkpt lat="48.669144" lon="10.149806">
<ele>433.244</ele>
<time>2020-09-10T10:08:04Z</time>
</trkpt>
<trkpt lat="48.669098" lon="10.149796">
<ele>433.244</ele>
<time>2020-09-10T10:08:05Z</time>
</trkpt>
<trkpt lat="48.669044" lon="10.149781">
<ele>433.244</ele>
<time>2020-09-10T10:08:06Z</time>
</trkpt>
<trkpt lat="48.668995" lon="10.149772">
<ele>433.244</ele>
<time>2020-09-10T10:08:07Z</time>
</trkpt>
<trkpt lat="48.668945" lon="10.149758">
<ele>433.244</ele>
<time>2020-09-10T10:08:08Z</time>
</trkpt>
<trkpt lat="48.668903" lon="10.149739">
<ele>433.244</ele>
<time>2020-09-10T10:08:09Z</time>
</trkpt>
<trkpt lat="48.668858" lon="10.149727">
<ele>433.244</ele>
<time>2020-09-10T10:08:10Z</time>
</trkpt>
<trkpt lat="48.668808" lon="10.149734">
<ele>433.244</ele>
<time>2020-09-10T10:08:11Z</time>
</trkpt>
<trkpt lat="48.668758" lon="10.149735">
<ele>433.244</ele>
<time>2020-09-10T10:08:12Z</time>
</trkpt>
<trkpt lat="48.668705" lon="10.149738">
<ele>433.244</ele>
<time>2020-09-10T10:08:13Z</time>
</trkpt>
<trkpt lat="48.668652" lon="10.149732">
<ele>433.244</ele>
<time>2020-09-10T10:08:14Z</time>
</trkpt>
<trkpt lat="48.668606" lon="10.14972">
<ele>433.244</ele>
<time>2020-09-10T10:08:15Z</time>
</trkpt>
<trkpt lat="48.668552" lon="10.149703">
<ele>433.244</ele>
<time>2020-09-10T10:08:16Z</time>
</trkpt>
<trkpt lat="48.668507" lon="10.149689">
<ele>433.244</ele>
<time>2020-09-10T10:08:17Z</time>
</trkpt>
<trkpt lat="48.668453" lon="10.149674">
<ele>433.244</ele>
<time>2020-09-10T10:08:18Z</time>
</trkpt>
<trkpt lat="48.668404" lon="10.149662">
<ele>433.244</ele>
<time>2020-09-10T10:08:19Z</time>
</trkpt>
<trkpt lat="48.668354" lon="10.149652">
<ele>433.244</ele>
<time>2020-09-10T10:08:20Z</time>
</trkpt>
<trkpt lat="48.668304" lon="10.149638">
<ele>433.244</ele>
<time>2020-09-10T10:08:21Z</time>
</trkpt>
<trkpt lat="48.668255" lon="10.149624">
<ele>433.244</ele>
<time>2020-09-10T10:08:22Z</time>
</trkpt>
<trkpt lat="48.668205" lon="10.149609">
<ele>433.244</ele>
<time>2020-09-10T10:08:23Z</time>
</trkpt>
<trkpt lat="48.668156" lon="10.149595">
<ele>433.244</ele>
<time>2020-09-10T10:08:24Z</time>
</trkpt>
<trkpt lat="48.668106" lon="10.149585">
<ele>433.244</ele>
<time>2020-09-10T10:08:25Z</time>
</trkpt>
<trkpt lat="48.668056" lon="10.149573">
<ele>433.244</ele>
<time>2020-09-10T10:08:26Z</time>
</trkpt>
<trkpt lat="48.668007" lon="10.14956">
<ele>433.244</ele>
<time>2020-09-10T10:08:27Z</time>
</trkpt>
<trkpt lat="48.667961" lon="10.149547">
<ele>433.244</ele>
<time>2020-09-10T10:08:28Z</time>
</trkpt>
<trkpt lat="48.667908" lon="10.149535">
<ele>433.244</ele>
<time>2020-09-10T10:08:29Z</time>
</trkpt>
<trkpt lat="48.667866" lon="10.149527">
<ele>433.244</ele>
<time>2020-09-10T10:08:30Z</time>
</trkpt>
<trkpt lat="48.667816" lon="10.149524">
<ele>433.244</ele>
<time>2020-09-10T10:08:31Z</time>
</trkpt>
<trkpt lat="48.667767" lon="10.14952">
<ele>433.244</ele>
<time>2020-09-10T10:08:32Z</time>
</trkpt>
<trkpt lat="48.667725" lon="10.149517">
<ele>433.244</ele>
<time>2020-09-10T10:08:33Z</time>
</trkpt>
<trkpt lat="48.667679" lon="10.149517">
<ele>433.244</ele>
<time>2020-09-10T10:08:34Z</time>
</trkpt>
<trkpt lat="48.667633" lon="10.149522">
<ele>433.452</ele>
<time>2020-09-10T10:08:35Z</time>
</trkpt>
<trkpt lat="48.667583" lon="10.149533">
<ele>433.601</ele>
<time>2020-09-10T10:08:36Z</time>
</trkpt>
<trkpt lat="48.667538" lon="10.149547">
<ele>433.757</ele>
<time>2020-09-10T10:08:37Z</time>
</trkpt>
<trkpt lat="48.667484" lon="10.149562">
<ele>433.883</ele>
<time>2020-09-10T10:08:38Z</time>
</trkpt>
<trkpt lat="48.667439" lon="10.149576">
<ele>433.979</ele>
<time>2020-09-10T10:08:39Z</time>
</trkpt>
<trkpt lat="48.667389" lon="10.149595">
<ele>434.047</ele>
<time>2020-09-10T10:08:40Z</time>
</trkpt>
<trkpt lat="48.667339" lon="10.149613">
<ele>434.09</ele>
<time>2020-09-10T10:08:41Z</time>
</trkpt>
<trkpt lat="48.667286" lon="10.149636">
<ele>434.11</ele>
<time>2020-09-10T10:08:42Z</time>
</trkpt>
<trkpt lat="48.66724" lon="10.149667">
<ele>434.11</ele>
<time>2020-09-10T10:08:43Z</time>
</trkpt>
<trkpt lat="48.667191" lon="10.149702">
<ele>434.11</ele>
<time>2020-09-10T10:08:44Z</time>
</trkpt>
<trkpt lat="48.667145" lon="10.149739">
<ele>433.895</ele>
<time>2020-09-10T10:08:45Z</time>
</trkpt>
<trkpt lat="48.667099" lon="10.149781">
<ele>433.744</ele>
<time>2020-09-10T10:08:46Z</time>
</trkpt>
<trkpt lat="48.667057" lon="10.149823">
<ele>433.591</ele>
<time>2020-09-10T10:08:47Z</time>
</trkpt>
<trkpt lat="48.667015" lon="10.149872">
<ele>433.47</ele>
<time>2020-09-10T10:08:48Z</time>
</trkpt>
<trkpt lat="48.666977" lon="10.149925">
<ele>433.377</ele>
<time>2020-09-10T10:08:49Z</time>
</trkpt>
<trkpt lat="48.666931" lon="10.149981">
<ele>433.309</ele>
<time>2020-09-10T10:08:50Z</time>
</trkpt>
<trkpt lat="48.666889" lon="10.150033">
<ele>433.265</ele>
<time>2020-09-10T10:08:51Z</time>
</trkpt>
<trkpt lat="48.666851" lon="10.150088">
<ele>433.244</ele>
<time>2020-09-10T10:08:52Z</time>
</trkpt>
<trkpt lat="48.666805" lon="10.150152">
<ele>433.244</ele>
<time>2020-09-10T10:08:53Z</time>
</trkpt>
<trkpt lat="48.666763" lon="10.15021">
<ele>433.244</ele>
<time>2020-09-10T10:08:54Z</time>
</trkpt>
<trkpt lat="48.666725" lon="10.150273">
<ele>433.244</ele>
<time>2020-09-10T10:08:55Z</time>
</trkpt>
<trkpt lat="48.666687" lon="10.150334">
<ele>433.244</ele>
<time>2020-09-10T10:08:56Z</time>
</trkpt>
<trkpt lat="48.666645" lon="10.150395">
<ele>433.244</ele>
<time>2020-09-10T10:08:57Z</time>
</trkpt>
<trkpt lat="48.666603" lon="10.150456">
<ele>433.244</ele>
<time>2020-09-10T10:08:58Z</time>
</trkpt>
<trkpt lat="48.666565" lon="10.150518">
<ele>433.244</ele>
<time>2020-09-10T10:08:59Z</time>
</trkpt>
<trkpt lat="48.666523" lon="10.150579">
<ele>433.244</ele>
<time>2020-09-10T10:09:00Z</time>
</trkpt>
<trkpt lat="48.666485" lon="10.150648">
<ele>432.986</ele>
<time>2020-09-10T10:09:01Z</time>
</trkpt>
<trkpt lat="48.666447" lon="10.15072">
<ele>432.782</ele>
<time>2020-09-10T10:09:02Z</time>
</trkpt>
<trkpt lat="48.666412" lon="10.150788">
<ele>432.626</ele>
<time>2020-09-10T10:09:03Z</time>
</trkpt>
<trkpt lat="48.666378" lon="10.150856">
<ele>432.509</ele>
<time>2020-09-10T10:09:04Z</time>
</trkpt>
<trkpt lat="48.666344" lon="10.150915">
<ele>432.429</ele>
<time>2020-09-10T10:09:05Z</time>
</trkpt>
<trkpt lat="48.666306" lon="10.150977">
<ele>432.37</ele>
<time>2020-09-10T10:09:06Z</time>
</trkpt>
<trkpt lat="48.666271" lon="10.151038">
<ele>432.317</ele>
<time>2020-09-10T10:09:07Z</time>
</trkpt>
<trkpt lat="48.666237" lon="10.151101">
<ele>432.292</ele>
<time>2020-09-10T10:09:08Z</time>
</trkpt>
<trkpt lat="48.666203" lon="10.151172">
<ele>432.292</ele>
<time>2020-09-10T10:09:09Z</time>
</trkpt>
<trkpt lat="48.666168" lon="10.151243">
<ele>432.292</ele>
<time>2020-09-10T10:09:10Z</time>
</trkpt>
<trkpt lat="48.66613" lon="10.15131">
<ele>432.292</ele>
<time>2020-09-10T10:09:11Z</time>
</trkpt>
<trkpt lat="48.666088" lon="10.151377">
<ele>432.292</ele>
<time>2020-09-10T10:09:12Z</time>
</trkpt>
<trkpt lat="48.666042" lon="10.151444">
<ele>432.292</ele>
<time>2020-09-10T10:09:13Z</time>
</trkpt>
<trkpt lat="48.666" lon="10.151513">
<ele>432.292</ele>
<time>2020-09-10T10:09:14Z</time>
</trkpt>
<trkpt lat="48.665955" lon="10.151583">
<ele>432.292</ele>
<time>2020-09-10T10:09:15Z</time>
</trkpt>
<trkpt lat="48.665905" lon="10.151654">
<ele>432.075</ele>
<time>2020-09-10T10:09:16Z</time>
</trkpt>
<trkpt lat="48.665855" lon="10.151725">
<ele>431.87</ele>
<time>2020-09-10T10:09:17Z</time>
</trkpt>
<trkpt lat="48.66581" lon="10.151794">
<ele>431.705</ele>
<time>2020-09-10T10:09:18Z</time>
</trkpt>
<trkpt lat="48.665756" lon="10.151861">
<ele>431.596</ele>
<time>2020-09-10T10:09:19Z</time>
</trkpt>
<trkpt lat="48.665707" lon="10.151927">
<ele>431.273</ele>
<time>2020-09-10T10:09:20Z</time>
</trkpt>
<trkpt lat="48.665653" lon="10.151992">
<ele>431.02</ele>
<time>2020-09-10T10:09:21Z</time>
</trkpt>
<trkpt lat="48.6656" lon="10.152057">
<ele>430.826</ele>
<time>2020-09-10T10:09:22Z</time>
</trkpt>
<trkpt lat="48.66555" lon="10.152123">
<ele>430.689</ele>
<time>2020-09-10T10:09:23Z</time>
</trkpt>
<trkpt lat="48.665501" lon="10.152188">
<ele>430.582</ele>
<time>2020-09-10T10:09:24Z</time>
</trkpt>
<trkpt lat="48.665455" lon="10.152251">
<ele>430.536</ele>
<time>2020-09-10T10:09:25Z</time>
</trkpt>
<trkpt lat="48.665398" lon="10.152313">
<ele>430.498</ele>
<time>2020-09-10T10:09:26Z</time>
</trkpt>
<trkpt lat="48.665352" lon="10.15237">
<ele>430.474</ele>
<time>2020-09-10T10:09:27Z</time>
</trkpt>
<trkpt lat="48.665298" lon="10.152427">
<ele>430.474</ele>
<time>2020-09-10T10:09:28Z</time>
</trkpt>
<trkpt lat="48.665253" lon="10.152484">
<ele>430.474</ele>
<time>2020-09-10T10:09:29Z</time>
</trkpt>
<trkpt lat="48.665199" lon="10.152538">
<ele>430.474</ele>
<time>2020-09-10T10:09:30Z</time>
</trkpt>
<trkpt lat="48.66515" lon="10.152593">
<ele>430.474</ele>
<time>2020-09-10T10:09:31Z</time>
</trkpt>
<trkpt lat="48.665096" lon="10.152647">
<ele>430.474</ele>
<time>2020-09-10T10:09:32Z</time>
</trkpt>
<trkpt lat="48.665051" lon="10.152697">
<ele>430.474</ele>
<time>2020-09-10T10:09:33Z</time>
</trkpt>
<trkpt lat="48.664997" lon="10.15275">
<ele>430.474</ele>
<time>2020-09-10T10:09:34Z</time>
</trkpt>
<trkpt lat="48.664948" lon="10.152803">
<ele>430.474</ele>
<time>2020-09-10T10:09:35Z</time>
</trkpt>
<trkpt lat="48.664898" lon="10.152855">
<ele>430.474</ele>
<time>2020-09-10T10:09:36Z</time>
</trkpt>
<trkpt lat="48.664848" lon="10.152902">
<ele>430.474</ele>
<time>2020-09-10T10:09:37Z</time>
</trkpt>
<trkpt lat="48.664799" lon="10.152946">
<ele>430.474</ele>
<time>2020-09-10T10:09:38Z</time>
</trkpt>
<trkpt lat="48.664749" lon="10.152991">
<ele>430.474</ele>
<time>2020-09-10T10:09:39Z</time>
</trkpt>
<trkpt lat="48.6647" lon="10.153035">
<ele>430.474</ele>
<time>2020-09-10T10:09:40Z</time>
</trkpt>
<trkpt lat="48.66465" lon="10.15308">
<ele>430.474</ele>
<time>2020-09-10T10:09:41Z</time>
</trkpt>
<trkpt lat="48.664604" lon="10.153123">
<ele>430.474</ele>
<time>2020-09-10T10:09:42Z</time>
</trkpt>
<trkpt lat="48.664555" lon="10.153169">
<ele>430.474</ele>
<time>2020-09-10T10:09:43Z</time>
</trkpt>
<trkpt lat="48.664505" lon="10.153212">
<ele>430.239</ele>
<time>2020-09-10T10:09:44Z</time>
</trkpt>
<trkpt lat="48.664455" lon="10.153256">
<ele>430.051</ele>
<time>2020-09-10T10:09:45Z</time>
</trkpt>
<trkpt lat="48.664406" lon="10.153303">
<ele>429.921</ele>
<time>2020-09-10T10:09:46Z</time>
</trkpt>
<trkpt lat="48.664352" lon="10.153349">
<ele>429.779</ele>
<time>2020-09-10T10:09:47Z</time>
</trkpt>
<trkpt lat="48.664307" lon="10.153393">
<ele>429.672</ele>
<time>2020-09-10T10:09:48Z</time>
</trkpt>
<trkpt lat="48.664257" lon="10.15344">
<ele>429.594</ele>
<time>2020-09-10T10:09:49Z</time>
</trkpt>
<trkpt lat="48.664207" lon="10.153487">
<ele>429.545</ele>
<time>2020-09-10T10:09:50Z</time>
</trkpt>
<trkpt lat="48.664158" lon="10.15353">
<ele>429.522</ele>
<time>2020-09-10T10:09:51Z</time>
</trkpt>
<trkpt lat="48.664112" lon="10.153573">
<ele>429.522</ele>
<time>2020-09-10T10:09:52Z</time>
</trkpt>
<trkpt lat="48.664062" lon="10.153615">
<ele>429.522</ele>
<time>2020-09-10T10:09:53Z</time>
</trkpt>
<trkpt lat="48.664017" lon="10.153655">
<ele>429.522</ele>
<time>2020-09-10T10:09:54Z</time>
</trkpt>
<trkpt lat="48.663967" lon="10.153693">
<ele>429.522</ele>
<time>2020-09-10T10:09:55Z</time>
</trkpt>
<trkpt lat="48.663921" lon="10.153735">
<ele>429.522</ele>
<time>2020-09-10T10:09:56Z</time>
</trkpt>
<trkpt lat="48.663872" lon="10.153774">
<ele>429.522</ele>
<time>2020-09-10T10:09:57Z</time>
</trkpt>
<trkpt lat="48.663822" lon="10.153814">
<ele>429.522</ele>
<time>2020-09-10T10:09:58Z</time>
</trkpt>
<trkpt lat="48.663776" lon="10.153854">
<ele>429.522</ele>
<time>2020-09-10T10:09:59Z</time>
</trkpt>
<trkpt lat="48.663727" lon="10.153898">
<ele>429.522</ele>
<time>2020-09-10T10:10:00Z</time>
</trkpt>
<trkpt lat="48.663685" lon="10.15394">
<ele>429.522</ele>
<time>2020-09-10T10:10:01Z</time>
</trkpt>
<trkpt lat="48.663635" lon="10.15398">
<ele>429.522</ele>
<time>2020-09-10T10:10:02Z</time>
</trkpt>
<trkpt lat="48.663593" lon="10.154019">
<ele>429.522</ele>
<time>2020-09-10T10:10:03Z</time>
</trkpt>
<trkpt lat="48.663544" lon="10.154058">
<ele>429.522</ele>
<time>2020-09-10T10:10:04Z</time>
</trkpt>
<trkpt lat="48.663498" lon="10.154099">
<ele>429.522</ele>
<time>2020-09-10T10:10:05Z</time>
</trkpt>
<trkpt lat="48.663456" lon="10.154135">
<ele>429.522</ele>
<time>2020-09-10T10:10:06Z</time>
</trkpt>
<trkpt lat="48.663406" lon="10.15417">
<ele>429.522</ele>
<time>2020-09-10T10:10:07Z</time>
</trkpt>
<trkpt lat="48.663361" lon="10.154205">
<ele>429.522</ele>
<time>2020-09-10T10:10:08Z</time>
</trkpt>
<trkpt lat="48.663311" lon="10.154242">
<ele>429.522</ele>
<time>2020-09-10T10:10:09Z</time>
</trkpt>
<trkpt lat="48.663261" lon="10.154279">
<ele>429.522</ele>
<time>2020-09-10T10:10:10Z</time>
</trkpt>
<trkpt lat="48.663216" lon="10.154322">
<ele>429.522</ele>
<time>2020-09-10T10:10:11Z</time>
</trkpt>
<trkpt lat="48.66317" lon="10.154369">
<ele>429.522</ele>
<time>2020-09-10T10:10:12Z</time>
</trkpt>
<trkpt lat="48.663124" lon="10.154422">
<ele>429.522</ele>
<time>2020-09-10T10:10:13Z</time>
</trkpt>
<trkpt lat="48.663078" lon="10.154474">
<ele>429.522</ele>
<time>2020-09-10T10:10:14Z</time>
</trkpt>
<trkpt lat="48.663036" lon="10.154529">
<ele>429.522</ele>
<time>2020-09-10T10:10:15Z</time>
</trkpt>
<trkpt lat="48.662987" lon="10.154578">
<ele>429.522</ele>
<time>2020-09-10T10:10:16Z</time>
</trkpt>
<trkpt lat="48.662941" lon="10.154629">
<ele>429.522</ele>
<time>2020-09-10T10:10:17Z</time>
</trkpt>
<trkpt lat="48.662891" lon="10.154675">
<ele>429.522</ele>
<time>2020-09-10T10:10:18Z</time>
</trkpt>
<trkpt lat="48.662846" lon="10.154725">
<ele>429.522</ele>
<time>2020-09-10T10:10:19Z</time>
</trkpt>
<trkpt lat="48.662796" lon="10.154772">
<ele>429.522</ele>
<time>2020-09-10T10:10:20Z</time>
</trkpt>
<trkpt lat="48.66275" lon="10.154819">
<ele>429.522</ele>
<time>2020-09-10T10:10:21Z</time>
</trkpt>
<trkpt lat="48.662704" lon="10.154865">
<ele>429.522</ele>
<time>2020-09-10T10:10:22Z</time>
</trkpt>
<trkpt lat="48.662659" lon="10.154914">
<ele>429.522</ele>
<time>2020-09-10T10:10:23Z</time>
</trkpt>
<trkpt lat="48.662613" lon="10.154958">
<ele>429.522</ele>
<time>2020-09-10T10:10:24Z</time>
</trkpt>
<trkpt lat="48.662563" lon="10.155004">
<ele>429.522</ele>
<time>2020-09-10T10:10:25Z</time>
</trkpt>
<trkpt lat="48.662518" lon="10.155048">
<ele>429.522</ele>
<time>2020-09-10T10:10:26Z</time>
</trkpt>
<trkpt lat="48.662472" lon="10.15509">
<ele>429.522</ele>
<time>2020-09-10T10:10:27Z</time>
</trkpt>
<trkpt lat="48.662422" lon="10.155133">
<ele>429.522</ele>
<time>2020-09-10T10:10:28Z</time>
</trkpt>
<trkpt lat="48.662376" lon="10.155178">
<ele>429.522</ele>
<time>2020-09-10T10:10:29Z</time>
</trkpt>
<trkpt lat="48.662331" lon="10.155222">
<ele>429.522</ele>
<time>2020-09-10T10:10:30Z</time>
</trkpt>
<trkpt lat="48.662289" lon="10.155265">
<ele>429.522</ele>
<time>2020-09-10T10:10:31Z</time>
</trkpt>
<trkpt lat="48.662239" lon="10.155306">
<ele>429.522</ele>
<time>2020-09-10T10:10:32Z</time>
</trkpt>
<trkpt lat="48.662193" lon="10.155346">
<ele>429.522</ele>
<time>2020-09-10T10:10:33Z</time>
</trkpt>
<trkpt lat="48.662151" lon="10.15539">
<ele>429.522</ele>
<time>2020-09-10T10:10:34Z</time>
</trkpt>
<trkpt lat="48.662102" lon="10.155437">
<ele>429.522</ele>
<time>2020-09-10T10:10:35Z</time>
</trkpt>
<trkpt lat="48.662056" lon="10.155483">
<ele>429.522</ele>
<time>2020-09-10T10:10:36Z</time>
</trkpt>
<trkpt lat="48.662006" lon="10.155526">
<ele>429.522</ele>
<time>2020-09-10T10:10:37Z</time>
</trkpt>
<trkpt lat="48.661961" lon="10.15557">
<ele>429.522</ele>
<time>2020-09-10T10:10:38Z</time>
</trkpt>
<trkpt lat="48.661911" lon="10.155612">
<ele>429.522</ele>
<time>2020-09-10T10:10:39Z</time>
</trkpt>
<trkpt lat="48.661861" lon="10.15565">
<ele>429.522</ele>
<time>2020-09-10T10:10:40Z</time>
</trkpt>
<trkpt lat="48.661812" lon="10.155688">
<ele>429.522</ele>
<time>2020-09-10T10:10:41Z</time>
</trkpt>
<trkpt lat="48.661766" lon="10.155725">
<ele>429.522</ele>
<time>2020-09-10T10:10:42Z</time>
</trkpt>
<trkpt lat="48.661713" lon="10.155757">
<ele>429.522</ele>
<time>2020-09-10T10:10:43Z</time>
</trkpt>
<trkpt lat="48.661667" lon="10.155787">
<ele>429.522</ele>
<time>2020-09-10T10:10:44Z</time>
</trkpt>
<trkpt lat="48.661613" lon="10.155817">
<ele>429.522</ele>
<time>2020-09-10T10:10:45Z</time>
</trkpt>
<trkpt lat="48.661564" lon="10.155849">
<ele>429.522</ele>
<time>2020-09-10T10:10:46Z</time>
</trkpt>
<trkpt lat="48.66151" lon="10.15588">
<ele>429.522</ele>
<time>2020-09-10T10:10:47Z</time>
</trkpt>
<trkpt lat="48.661457" lon="10.155915">
<ele>429.522</ele>
<time>2020-09-10T10:10:48Z</time>
</trkpt>
<trkpt lat="48.661407" lon="10.155951">
<ele>429.522</ele>
<time>2020-09-10T10:10:49Z</time>
</trkpt>
<trkpt lat="48.661354" lon="10.155991">
<ele>429.522</ele>
<time>2020-09-10T10:10:50Z</time>
</trkpt>
<trkpt lat="48.661301" lon="10.156029">
<ele>429.522</ele>
<time>2020-09-10T10:10:51Z</time>
</trkpt>
<trkpt lat="48.661247" lon="10.156065">
<ele>429.522</ele>
<time>2020-09-10T10:10:52Z</time>
</trkpt>
<trkpt lat="48.661198" lon="10.156102">
<ele>429.522</ele>
<time>2020-09-10T10:10:53Z</time>
</trkpt>
<trkpt lat="48.661144" lon="10.156137">
<ele>429.522</ele>
<time>2020-09-10T10:10:54Z</time>
</trkpt>
<trkpt lat="48.661091" lon="10.156167">
<ele>429.522</ele>
<time>2020-09-10T10:10:55Z</time>
</trkpt>
<trkpt lat="48.661041" lon="10.156197">
<ele>429.522</ele>
<time>2020-09-10T10:10:56Z</time>
</trkpt>
<trkpt lat="48.660988" lon="10.156228">
<ele>429.522</ele>
<time>2020-09-10T10:10:57Z</time>
</trkpt>
<trkpt lat="48.660934" lon="10.15626">
<ele>429.522</ele>
<time>2020-09-10T10:10:58Z</time>
</trkpt>
<trkpt lat="48.660881" lon="10.15629">
<ele>429.522</ele>
<time>2020-09-10T10:10:59Z</time>
</trkpt>
<trkpt lat="48.660828" lon="10.156322">
<ele>429.522</ele>
<time>2020-09-10T10:11:00Z</time>
</trkpt>
<trkpt lat="48.660778" lon="10.15635">
<ele>429.266</ele>
<time>2020-09-10T10:11:01Z</time>
</trkpt>
<trkpt lat="48.660725" lon="10.156382">
<ele>429.063</ele>
<time>2020-09-10T10:11:02Z</time>
</trkpt>
<trkpt lat="48.660667" lon="10.156414">
<ele>428.907</ele>
<time>2020-09-10T10:11:03Z</time>
</trkpt>
<trkpt lat="48.660614" lon="10.156442">
<ele>428.793</ele>
<time>2020-09-10T10:11:04Z</time>
</trkpt>
<trkpt lat="48.660561" lon="10.156468">
<ele>428.71</ele>
<time>2020-09-10T10:11:05Z</time>
</trkpt>
<trkpt lat="48.660503" lon="10.156498">
<ele>428.65</ele>
<time>2020-09-10T10:11:06Z</time>
</trkpt>
<trkpt lat="48.660454" lon="10.156531">
<ele>428.595</ele>
<time>2020-09-10T10:11:07Z</time>
</trkpt>
<trkpt lat="48.6604" lon="10.156569">
<ele>428.57</ele>
<time>2020-09-10T10:11:08Z</time>
</trkpt>
<trkpt lat="48.660343" lon="10.156607">
<ele>428.57</ele>
<time>2020-09-10T10:11:09Z</time>
</trkpt>
<trkpt lat="48.660294" lon="10.156645">
<ele>428.57</ele>
<time>2020-09-10T10:11:10Z</time>
</trkpt>
<trkpt lat="48.66024" lon="10.156682">
<ele>428.57</ele>
<time>2020-09-10T10:11:11Z</time>
</trkpt>
<trkpt lat="48.660187" lon="10.156716">
<ele>428.57</ele>
<time>2020-09-10T10:11:12Z</time>
</trkpt>
<trkpt lat="48.660141" lon="10.156755">
<ele>428.57</ele>
<time>2020-09-10T10:11:13Z</time>
</trkpt>
<trkpt lat="48.660088" lon="10.156794">
<ele>428.57</ele>
<time>2020-09-10T10:11:14Z</time>
</trkpt>
<trkpt lat="48.660042" lon="10.15683">
<ele>428.57</ele>
<time>2020-09-10T10:11:15Z</time>
</trkpt>
<trkpt lat="48.659992" lon="10.156871">
<ele>428.57</ele>
<time>2020-09-10T10:11:16Z</time>
</trkpt>
<trkpt lat="48.659946" lon="10.156911">
<ele>428.57</ele>
<time>2020-09-10T10:11:17Z</time>
</trkpt>
<trkpt lat="48.659901" lon="10.156959">
<ele>428.57</ele>
<time>2020-09-10T10:11:18Z</time>
</trkpt>
<trkpt lat="48.659851" lon="10.157009">
<ele>428.57</ele>
<time>2020-09-10T10:11:19Z</time>
</trkpt>
<trkpt lat="48.659809" lon="10.157058">
<ele>428.57</ele>
<time>2020-09-10T10:11:20Z</time>
</trkpt>
<trkpt lat="48.659763" lon="10.15711">
<ele>428.57</ele>
<time>2020-09-10T10:11:21Z</time>
</trkpt>
<trkpt lat="48.659714" lon="10.15716">
<ele>428.57</ele>
<time>2020-09-10T10:11:22Z</time>
</trkpt>
<trkpt lat="48.659672" lon="10.157212">
<ele>428.57</ele>
<time>2020-09-10T10:11:23Z</time>
</trkpt>
<trkpt lat="48.659626" lon="10.157263">
<ele>428.57</ele>
<time>2020-09-10T10:11:24Z</time>
</trkpt>
<trkpt lat="48.659584" lon="10.157311">
<ele>428.339</ele>
<time>2020-09-10T10:11:25Z</time>
</trkpt>
<trkpt lat="48.659542" lon="10.157359">
<ele>428.175</ele>
<time>2020-09-10T10:11:26Z</time>
</trkpt>
<trkpt lat="48.659496" lon="10.157405">
<ele>428.008</ele>
<time>2020-09-10T10:11:27Z</time>
</trkpt>
<trkpt lat="48.659454" lon="10.157455">
<ele>427.872</ele>
<time>2020-09-10T10:11:28Z</time>
</trkpt>
<trkpt lat="48.659409" lon="10.157503">
<ele>427.769</ele>
<time>2020-09-10T10:11:29Z</time>
</trkpt>
<trkpt lat="48.659359" lon="10.157552">
<ele>427.693</ele>
<time>2020-09-10T10:11:30Z</time>
</trkpt>
<trkpt lat="48.659313" lon="10.157597">
<ele>427.643</ele>
<time>2020-09-10T10:11:31Z</time>
</trkpt>
<trkpt lat="48.659264" lon="10.15764">
<ele>427.619</ele>
<time>2020-09-10T10:11:32Z</time>
</trkpt>
<trkpt lat="48.659214" lon="10.157677">
<ele>427.619</ele>
<time>2020-09-10T10:11:33Z</time>
</trkpt>
<trkpt lat="48.659161" lon="10.157707">
<ele>427.619</ele>
<time>2020-09-10T10:11:34Z</time>
</trkpt>
<trkpt lat="48.659111" lon="10.157734">
<ele>427.619</ele>
<time>2020-09-10T10:11:35Z</time>
</trkpt>
<trkpt lat="48.659058" lon="10.157755">
<ele>427.619</ele>
<time>2020-09-10T10:11:36Z</time>
</trkpt>
<trkpt lat="48.659" lon="10.157775">
<ele>427.619</ele>
<time>2020-09-10T10:11:37Z</time>
</trkpt>
<trkpt lat="48.658951" lon="10.157791">
<ele>427.619</ele>
<time>2020-09-10T10:11:38Z</time>
</trkpt>
<trkpt lat="48.658897" lon="10.157805">
<ele>427.619</ele>
<time>2020-09-10T10:11:39Z</time>
</trkpt>
<trkpt lat="48.65884" lon="10.157816">
<ele>427.885</ele>
<time>2020-09-10T10:11:40Z</time>
</trkpt>
<trkpt lat="48.658787" lon="10.157826">
<ele>428.092</ele>
<time>2020-09-10T10:11:41Z</time>
</trkpt>
<trkpt lat="48.658737" lon="10.157835">
<ele>428.249</ele>
<time>2020-09-10T10:11:42Z</time>
</trkpt>
<trkpt lat="48.65868" lon="10.157844">
<ele>428.366</ele>
<time>2020-09-10T10:11:43Z</time>
</trkpt>
<trkpt lat="48.658623" lon="10.157851">
<ele>428.447</ele>
<time>2020-09-10T10:11:44Z</time>
</trkpt>
<trkpt lat="48.658569" lon="10.157858">
<ele>428.502</ele>
<time>2020-09-10T10:11:45Z</time>
</trkpt>
<trkpt lat="48.658508" lon="10.157868">
<ele>428.544</ele>
<time>2020-09-10T10:11:46Z</time>
</trkpt>
<trkpt lat="48.658451" lon="10.157872">
<ele>428.57</ele>
<time>2020-09-10T10:11:47Z</time>
</trkpt>
<trkpt lat="48.658398" lon="10.157875">
<ele>428.57</ele>
<time>2020-09-10T10:11:48Z</time>
</trkpt>
<trkpt lat="48.658344" lon="10.157882">
<ele>428.57</ele>
<time>2020-09-10T10:11:49Z</time>
</trkpt>
<trkpt lat="48.658287" lon="10.157889">
<ele>428.57</ele>
<time>2020-09-10T10:11:50Z</time>
</trkpt>
<trkpt lat="48.658234" lon="10.157897">
<ele>428.57</ele>
<time>2020-09-10T10:11:51Z</time>
</trkpt>
<trkpt lat="48.658176" lon="10.157902">
<ele>428.57</ele>
<time>2020-09-10T10:11:52Z</time>
</trkpt>
<trkpt lat="48.658119" lon="10.157908">
<ele>428.57</ele>
<time>2020-09-10T10:11:53Z</time>
</trkpt>
<trkpt lat="48.658062" lon="10.157912">
<ele>428.57</ele>
<time>2020-09-10T10:11:54Z</time>
</trkpt>
<trkpt lat="48.658009" lon="10.157916">
<ele>428.57</ele>
<time>2020-09-10T10:11:55Z</time>
</trkpt>
<trkpt lat="48.657955" lon="10.157923">
<ele>428.57</ele>
<time>2020-09-10T10:11:56Z</time>
</trkpt>
<trkpt lat="48.657898" lon="10.15793">
<ele>428.57</ele>
<time>2020-09-10T10:11:57Z</time>
</trkpt>
<trkpt lat="48.657848" lon="10.157935">
<ele>428.57</ele>
<time>2020-09-10T10:11:58Z</time>
</trkpt>
<trkpt lat="48.657791" lon="10.157938">
<ele>428.57</ele>
<time>2020-09-10T10:11:59Z</time>
</trkpt>
<trkpt lat="48.657738" lon="10.157942">
<ele>428.57</ele>
<time>2020-09-10T10:12:00Z</time>
</trkpt>
<trkpt lat="48.657681" lon="10.157947">
<ele>428.57</ele>
<time>2020-09-10T10:12:01Z</time>
</trkpt>
<trkpt lat="48.657631" lon="10.15795">
<ele>428.57</ele>
<time>2020-09-10T10:12:02Z</time>
</trkpt>
<trkpt lat="48.657574" lon="10.157956">
<ele>428.57</ele>
<time>2020-09-10T10:12:03Z</time>
</trkpt>
<trkpt lat="48.65752" lon="10.157963">
<ele>428.57</ele>
<time>2020-09-10T10:12:04Z</time>
</trkpt>
<trkpt lat="48.657467" lon="10.157967">
<ele>428.57</ele>
<time>2020-09-10T10:12:05Z</time>
</trkpt>
<trkpt lat="48.65741" lon="10.15797">
<ele>428.57</ele>
<time>2020-09-10T10:12:06Z</time>
</trkpt>
<trkpt lat="48.657356" lon="10.157977">
<ele>428.57</ele>
<time>2020-09-10T10:12:07Z</time>
</trkpt>
<trkpt lat="48.657303" lon="10.157979">
<ele>428.57</ele>
<time>2020-09-10T10:12:08Z</time>
</trkpt>
<trkpt lat="48.657242" lon="10.157982">
<ele>428.57</ele>
<time>2020-09-10T10:12:09Z</time>
</trkpt>
<trkpt lat="48.657185" lon="10.157984">
<ele>428.57</ele>
<time>2020-09-10T10:12:10Z</time>
</trkpt>
<trkpt lat="48.657135" lon="10.15799">
<ele>428.57</ele>
<time>2020-09-10T10:12:11Z</time>
</trkpt>
<trkpt lat="48.657078" lon="10.157998">
<ele>428.57</ele>
<time>2020-09-10T10:12:12Z</time>
</trkpt>
<trkpt lat="48.657028" lon="10.158009">
<ele>428.57</ele>
<time>2020-09-10T10:12:13Z</time>
</trkpt>
<trkpt lat="48.656975" lon="10.158023">
<ele>428.57</ele>
<time>2020-09-10T10:12:14Z</time>
</trkpt>
<trkpt lat="48.656921" lon="10.15804">
<ele>428.57</ele>
<time>2020-09-10T10:12:15Z</time>
</trkpt>
<trkpt lat="48.656868" lon="10.15806">
<ele>428.57</ele>
<time>2020-09-10T10:12:16Z</time>
</trkpt>
<trkpt lat="48.656815" lon="10.15808">
<ele>428.57</ele>
<time>2020-09-10T10:12:17Z</time>
</trkpt>
<trkpt lat="48.656765" lon="10.158101">
<ele>428.57</ele>
<time>2020-09-10T10:12:18Z</time>
</trkpt>
<trkpt lat="48.656712" lon="10.15812">
<ele>428.57</ele>
<time>2020-09-10T10:12:19Z</time>
</trkpt>
<trkpt lat="48.656662" lon="10.158138">
<ele>428.57</ele>
<time>2020-09-10T10:12:20Z</time>
</trkpt>
<trkpt lat="48.656612" lon="10.158157">
<ele>428.57</ele>
<time>2020-09-10T10:12:21Z</time>
</trkpt>
<trkpt lat="48.656563" lon="10.158175">
<ele>428.57</ele>
<time>2020-09-10T10:12:22Z</time>
</trkpt>
<trkpt lat="48.656517" lon="10.158194">
<ele>428.57</ele>
<time>2020-09-10T10:12:23Z</time>
</trkpt>
<trkpt lat="48.656471" lon="10.15821">
<ele>428.57</ele>
<time>2020-09-10T10:12:24Z</time>
</trkpt>
<trkpt lat="48.656425" lon="10.158229">
<ele>428.57</ele>
<time>2020-09-10T10:12:25Z</time>
</trkpt>
<trkpt lat="48.656387" lon="10.158245">
<ele>428.57</ele>
<time>2020-09-10T10:12:26Z</time>
</trkpt>
<trkpt lat="48.656345" lon="10.158262">
<ele>428.57</ele>
<time>2020-09-10T10:12:27Z</time>
</trkpt>
<trkpt lat="48.656303" lon="10.158278">
<ele>428.57</ele>
<time>2020-09-10T10:12:28Z</time>
</trkpt>
<trkpt lat="48.656265" lon="10.158296">
<ele>428.57</ele>
<time>2020-09-10T10:12:29Z</time>
</trkpt>
<trkpt lat="48.656231" lon="10.158312">
<ele>428.57</ele>
<time>2020-09-10T10:12:30Z</time>
</trkpt>
<trkpt lat="48.6562" lon="10.158323">
<ele>428.57</ele>
<time>2020-09-10T10:12:31Z</time>
</trkpt>
<trkpt lat="48.656174" lon="10.158334">
<ele>428.57</ele>
<time>2020-09-10T10:12:32Z</time>
</trkpt>
<trkpt lat="48.656147" lon="10.158341">
<ele>428.57</ele>
<time>2020-09-10T10:12:33Z</time>
</trkpt>
<trkpt lat="48.656128" lon="10.15835">
<ele>428.57</ele>
<time>2020-09-10T10:12:34Z</time>
</trkpt>
<trkpt lat="48.656113" lon="10.158357">
<ele>428.57</ele>
<time>2020-09-10T10:12:35Z</time>
</trkpt>
<trkpt lat="48.656097" lon="10.158363">
<ele>428.57</ele>
<time>2020-09-10T10:12:36Z</time>
</trkpt>
<trkpt lat="48.656078" lon="10.15837">
<ele>428.57</ele>
<time>2020-09-10T10:12:37Z</time>
</trkpt>
<trkpt lat="48.656063" lon="10.158377">
<ele>428.57</ele>
<time>2020-09-10T10:12:38Z</time>
</trkpt>
<trkpt lat="48.656052" lon="10.158381">
<ele>428.57</ele>
<time>2020-09-10T10:12:39Z</time>
</trkpt>
<trkpt lat="48.656033" lon="10.158386">
<ele>428.57</ele>
<time>2020-09-10T10:12:40Z</time>
</trkpt>
<trkpt lat="48.656021" lon="10.158395">
<ele>428.57</ele>
<time>2020-09-10T10:12:41Z</time>
</trkpt>
<trkpt lat="48.656006" lon="10.158402">
<ele>428.57</ele>
<time>2020-09-10T10:12:42Z</time>
</trkpt>
<trkpt lat="48.655998" lon="10.158406">
<ele>428.345</ele>
<time>2020-09-10T10:12:43Z</time>
</trkpt>
<trkpt lat="48.655998" lon="10.158404">
<ele>428.179</ele>
<time>2020-09-10T10:12:44Z</time>
</trkpt>
<trkpt lat="48.655998" lon="10.158406">
<ele>428.039</ele>
<time>2020-09-10T10:12:45Z</time>
</trkpt>
<trkpt lat="48.655968" lon="10.158417">
<ele>427.922</ele>
<time>2020-09-10T10:13:01Z</time>
</trkpt>
<trkpt lat="48.655952" lon="10.158422">
<ele>427.8</ele>
<time>2020-09-10T10:13:02Z</time>
</trkpt>
<trkpt lat="48.655933" lon="10.158428">
<ele>427.713</ele>
<time>2020-09-10T10:13:03Z</time>
</trkpt>
<trkpt lat="48.655907" lon="10.15844">
<ele>427.65</ele>
<time>2020-09-10T10:13:04Z</time>
</trkpt>
<trkpt lat="48.655869" lon="10.158453">
<ele>427.619</ele>
<time>2020-09-10T10:13:05Z</time>
</trkpt>
<trkpt lat="48.65583" lon="10.158468">
<ele>427.619</ele>
<time>2020-09-10T10:13:06Z</time>
</trkpt>
<trkpt lat="48.655785" lon="10.158484">
<ele>427.619</ele>
<time>2020-09-10T10:13:07Z</time>
</trkpt>
<trkpt lat="48.655739" lon="10.158501">
<ele>427.619</ele>
<time>2020-09-10T10:13:08Z</time>
</trkpt>
<trkpt lat="48.655697" lon="10.158515">
<ele>427.619</ele>
<time>2020-09-10T10:13:09Z</time>
</trkpt>
<trkpt lat="48.655651" lon="10.158533">
<ele>427.619</ele>
<time>2020-09-10T10:13:10Z</time>
</trkpt>
<trkpt lat="48.655605" lon="10.158553">
<ele>427.619</ele>
<time>2020-09-10T10:13:11Z</time>
</trkpt>
<trkpt lat="48.655556" lon="10.15857">
<ele>427.619</ele>
<time>2020-09-10T10:13:12Z</time>
</trkpt>
<trkpt lat="48.65551" lon="10.158585">
<ele>427.619</ele>
<time>2020-09-10T10:13:13Z</time>
</trkpt>
<trkpt lat="48.655457" lon="10.1586">
<ele>427.619</ele>
<time>2020-09-10T10:13:14Z</time>
</trkpt>
<trkpt lat="48.655407" lon="10.158608">
<ele>427.619</ele>
<time>2020-09-10T10:13:15Z</time>
</trkpt>
<trkpt lat="48.655354" lon="10.158618">
<ele>427.619</ele>
<time>2020-09-10T10:13:16Z</time>
</trkpt>
<trkpt lat="48.655304" lon="10.158625">
<ele>427.619</ele>
<time>2020-09-10T10:13:17Z</time>
</trkpt>
<trkpt lat="48.655251" lon="10.158631">
<ele>427.619</ele>
<time>2020-09-10T10:13:18Z</time>
</trkpt>
<trkpt lat="48.655201" lon="10.158637">
<ele>427.619</ele>
<time>2020-09-10T10:13:19Z</time>
</trkpt>
<trkpt lat="48.655148" lon="10.158639">
<ele>427.619</ele>
<time>2020-09-10T10:13:20Z</time>
</trkpt>
<trkpt lat="48.655094" lon="10.158639">
<ele>427.619</ele>
<time>2020-09-10T10:13:21Z</time>
</trkpt>
<trkpt lat="48.655045" lon="10.158639">
<ele>427.619</ele>
<time>2020-09-10T10:13:22Z</time>
</trkpt>
<trkpt lat="48.654991" lon="10.15864">
<ele>427.619</ele>
<time>2020-09-10T10:13:23Z</time>
</trkpt>
<trkpt lat="48.654942" lon="10.158644">
<ele>427.619</ele>
<time>2020-09-10T10:13:24Z</time>
</trkpt>
<trkpt lat="48.654892" lon="10.158648">
<ele>427.619</ele>
<time>2020-09-10T10:13:25Z</time>
</trkpt>
<trkpt lat="48.654839" lon="10.158658">
<ele>427.619</ele>
<time>2020-09-10T10:13:26Z</time>
</trkpt>
<trkpt lat="48.654789" lon="10.158664">
<ele>427.619</ele>
<time>2020-09-10T10:13:27Z</time>
</trkpt>
<trkpt lat="48.654736" lon="10.158662">
<ele>427.619</ele>
<time>2020-09-10T10:13:28Z</time>
</trkpt>
<trkpt lat="48.654686" lon="10.158656">
<ele>427.619</ele>
<time>2020-09-10T10:13:29Z</time>
</trkpt>
<trkpt lat="48.654636" lon="10.158648">
<ele>427.619</ele>
<time>2020-09-10T10:13:30Z</time>
</trkpt>
<trkpt lat="48.654587" lon="10.158642">
<ele>427.619</ele>
<time>2020-09-10T10:13:31Z</time>
</trkpt>
<trkpt lat="48.654537" lon="10.158633">
<ele>427.619</ele>
<time>2020-09-10T10:13:32Z</time>
</trkpt>
<trkpt lat="48.654484" lon="10.158623">
<ele>427.619</ele>
<time>2020-09-10T10:13:33Z</time>
</trkpt>
<trkpt lat="48.654434" lon="10.158618">
<ele>427.619</ele>
<time>2020-09-10T10:13:34Z</time>
</trkpt>
<trkpt lat="48.654381" lon="10.158614">
<ele>427.619</ele>
<time>2020-09-10T10:13:35Z</time>
</trkpt>
<trkpt lat="48.654327" lon="10.15861">
<ele>427.619</ele>
<time>2020-09-10T10:13:36Z</time>
</trkpt>
<trkpt lat="48.654278" lon="10.158608">
<ele>427.619</ele>
<time>2020-09-10T10:13:37Z</time>
</trkpt>
<trkpt lat="48.654232" lon="10.158604">
<ele>427.619</ele>
<time>2020-09-10T10:13:38Z</time>
</trkpt>
<trkpt lat="48.654182" lon="10.158597">
<ele>427.619</ele>
<time>2020-09-10T10:13:39Z</time>
</trkpt>
<trkpt lat="48.654129" lon="10.158588">
<ele>427.619</ele>
<time>2020-09-10T10:13:40Z</time>
</trkpt>
<trkpt lat="48.654076" lon="10.158582">
<ele>427.619</ele>
<time>2020-09-10T10:13:41Z</time>
</trkpt>
<trkpt lat="48.654015" lon="10.158575">
<ele>427.619</ele>
<time>2020-09-10T10:13:42Z</time>
</trkpt>
<trkpt lat="48.653957" lon="10.158572">
<ele>427.619</ele>
<time>2020-09-10T10:13:43Z</time>
</trkpt>
<trkpt lat="48.6539" lon="10.158566">
<ele>427.619</ele>
<time>2020-09-10T10:13:44Z</time>
</trkpt>
<trkpt lat="48.653843" lon="10.15856">
<ele>427.619</ele>
<time>2020-09-10T10:13:45Z</time>
</trkpt>
<trkpt lat="48.653782" lon="10.158555">
<ele>427.619</ele>
<time>2020-09-10T10:13:46Z</time>
</trkpt>
<trkpt lat="48.653725" lon="10.158548">
<ele>427.619</ele>
<time>2020-09-10T10:13:47Z</time>
</trkpt>
<trkpt lat="48.653667" lon="10.158543">
<ele>427.618</ele>
<time>2020-09-10T10:13:48Z</time>
</trkpt>
<trkpt lat="48.65361" lon="10.158535">
<ele>427.619</ele>
<time>2020-09-10T10:13:49Z</time>
</trkpt>
<trkpt lat="48.653553" lon="10.158532">
<ele>427.619</ele>
<time>2020-09-10T10:13:50Z</time>
</trkpt>
<trkpt lat="48.653492" lon="10.158528">
<ele>427.619</ele>
<time>2020-09-10T10:13:51Z</time>
</trkpt>
<trkpt lat="48.653435" lon="10.158524">
<ele>427.619</ele>
<time>2020-09-10T10:13:52Z</time>
</trkpt>
<trkpt lat="48.653378" lon="10.15852">
<ele>427.619</ele>
<time>2020-09-10T10:13:53Z</time>
</trkpt>
<trkpt lat="48.65332" lon="10.158517">
<ele>427.619</ele>
<time>2020-09-10T10:13:54Z</time>
</trkpt>
<trkpt lat="48.653263" lon="10.158513">
<ele>427.619</ele>
<time>2020-09-10T10:13:55Z</time>
</trkpt>
<trkpt lat="48.653206" lon="10.158513">
<ele>427.619</ele>
<time>2020-09-10T10:13:56Z</time>
</trkpt>
<trkpt lat="48.653149" lon="10.158509">
<ele>427.619</ele>
<time>2020-09-10T10:13:57Z</time>
</trkpt>
<trkpt lat="48.653095" lon="10.158505">
<ele>427.619</ele>
<time>2020-09-10T10:13:58Z</time>
</trkpt>
<trkpt lat="48.653038" lon="10.158504">
<ele>427.619</ele>
<time>2020-09-10T10:13:59Z</time>
</trkpt>
<trkpt lat="48.652981" lon="10.158502">
<ele>427.619</ele>
<time>2020-09-10T10:14:00Z</time>
</trkpt>
<trkpt lat="48.652927" lon="10.158505">
<ele>427.619</ele>
<time>2020-09-10T10:14:01Z</time>
</trkpt>
<trkpt lat="48.65287" lon="10.158507">
<ele>427.619</ele>
<time>2020-09-10T10:14:02Z</time>
</trkpt>
<trkpt lat="48.652817" lon="10.158507">
<ele>427.619</ele>
<time>2020-09-10T10:14:03Z</time>
</trkpt>
<trkpt lat="48.652763" lon="10.158511">
<ele>427.619</ele>
<time>2020-09-10T10:14:04Z</time>
</trkpt>
<trkpt lat="48.65271" lon="10.158518">
<ele>427.619</ele>
<time>2020-09-10T10:14:05Z</time>
</trkpt>
<trkpt lat="48.652657" lon="10.158525">
<ele>427.619</ele>
<time>2020-09-10T10:14:06Z</time>
</trkpt>
<trkpt lat="48.652607" lon="10.158533">
<ele>427.619</ele>
<time>2020-09-10T10:14:07Z</time>
</trkpt>
<trkpt lat="48.652554" lon="10.158545">
<ele>427.619</ele>
<time>2020-09-10T10:14:08Z</time>
</trkpt>
<trkpt lat="48.6525" lon="10.158557">
<ele>427.619</ele>
<time>2020-09-10T10:14:09Z</time>
</trkpt>
<trkpt lat="48.652447" lon="10.158568">
<ele>427.619</ele>
<time>2020-09-10T10:14:10Z</time>
</trkpt>
<trkpt lat="48.652393" lon="10.158583">
<ele>427.619</ele>
<time>2020-09-10T10:14:11Z</time>
</trkpt>
<trkpt lat="48.652344" lon="10.158597">
<ele>427.619</ele>
<time>2020-09-10T10:14:12Z</time>
</trkpt>
<trkpt lat="48.65229" lon="10.158612">
<ele>427.619</ele>
<time>2020-09-10T10:14:13Z</time>
</trkpt>
<trkpt lat="48.652245" lon="10.158627">
<ele>427.619</ele>
<time>2020-09-10T10:14:14Z</time>
</trkpt>
<trkpt lat="48.652195" lon="10.15864">
<ele>427.619</ele>
<time>2020-09-10T10:14:15Z</time>
</trkpt>
<trkpt lat="48.652153" lon="10.158653">
<ele>427.619</ele>
<time>2020-09-10T10:14:16Z</time>
</trkpt>
<trkpt lat="48.652103" lon="10.158665">
<ele>427.619</ele>
<time>2020-09-10T10:14:17Z</time>
</trkpt>
<trkpt lat="48.652058" lon="10.158679">
<ele>427.619</ele>
<time>2020-09-10T10:14:18Z</time>
</trkpt>
<trkpt lat="48.652016" lon="10.158693">
<ele>427.619</ele>
<time>2020-09-10T10:14:19Z</time>
</trkpt>
<trkpt lat="48.65197" lon="10.158712">
<ele>427.619</ele>
<time>2020-09-10T10:14:20Z</time>
</trkpt>
<trkpt lat="48.651924" lon="10.158729">
<ele>427.619</ele>
<time>2020-09-10T10:14:21Z</time>
</trkpt>
<trkpt lat="48.651882" lon="10.158744">
<ele>427.619</ele>
<time>2020-09-10T10:14:22Z</time>
</trkpt>
<trkpt lat="48.651833" lon="10.15876">
<ele>427.619</ele>
<time>2020-09-10T10:14:23Z</time>
</trkpt>
<trkpt lat="48.651791" lon="10.158773">
<ele>427.619</ele>
<time>2020-09-10T10:14:24Z</time>
</trkpt>
<trkpt lat="48.651741" lon="10.158792">
<ele>427.619</ele>
<time>2020-09-10T10:14:25Z</time>
</trkpt>
<trkpt lat="48.651695" lon="10.158811">
<ele>427.619</ele>
<time>2020-09-10T10:14:26Z</time>
</trkpt>
<trkpt lat="48.651642" lon="10.158828">
<ele>427.619</ele>
<time>2020-09-10T10:14:27Z</time>
</trkpt>
<trkpt lat="48.651596" lon="10.158847">
<ele>427.619</ele>
<time>2020-09-10T10:14:28Z</time>
</trkpt>
<trkpt lat="48.651543" lon="10.158859">
<ele>427.619</ele>
<time>2020-09-10T10:14:29Z</time>
</trkpt>
<trkpt lat="48.651493" lon="10.15888">
<ele>427.619</ele>
<time>2020-09-10T10:14:30Z</time>
</trkpt>
<trkpt lat="48.651443" lon="10.158901">
<ele>427.619</ele>
<time>2020-09-10T10:14:31Z</time>
</trkpt>
<trkpt lat="48.651398" lon="10.158924">
<ele>427.619</ele>
<time>2020-09-10T10:14:32Z</time>
</trkpt>
<trkpt lat="48.651344" lon="10.158938">
<ele>427.619</ele>
<time>2020-09-10T10:14:33Z</time>
</trkpt>
<trkpt lat="48.651295" lon="10.158954">
<ele>427.619</ele>
<time>2020-09-10T10:14:34Z</time>
</trkpt>
<trkpt lat="48.651245" lon="10.158973">
<ele>427.619</ele>
<time>2020-09-10T10:14:35Z</time>
</trkpt>
<trkpt lat="48.651196" lon="10.158989">
<ele>427.619</ele>
<time>2020-09-10T10:14:36Z</time>
</trkpt>
<trkpt lat="48.651146" lon="10.159005">
<ele>427.619</ele>
<time>2020-09-10T10:14:37Z</time>
</trkpt>
<trkpt lat="48.6511" lon="10.159022">
<ele>427.619</ele>
<time>2020-09-10T10:14:38Z</time>
</trkpt>
<trkpt lat="48.651051" lon="10.159041">
<ele>427.619</ele>
<time>2020-09-10T10:14:39Z</time>
</trkpt>
<trkpt lat="48.650997" lon="10.15906">
<ele>427.619</ele>
<time>2020-09-10T10:14:40Z</time>
</trkpt>
<trkpt lat="48.650948" lon="10.159083">
<ele>427.619</ele>
<time>2020-09-10T10:14:41Z</time>
</trkpt>
<trkpt lat="48.650894" lon="10.159108">
<ele>427.619</ele>
<time>2020-09-10T10:14:42Z</time>
</trkpt>
<trkpt lat="48.650848" lon="10.159135">
<ele>427.619</ele>
<time>2020-09-10T10:14:43Z</time>
</trkpt>
<trkpt lat="48.650795" lon="10.159161">
<ele>427.619</ele>
<time>2020-09-10T10:14:44Z</time>
</trkpt>
<trkpt lat="48.650749" lon="10.159185">
<ele>427.619</ele>
<time>2020-09-10T10:14:45Z</time>
</trkpt>
<trkpt lat="48.6507" lon="10.159208">
<ele>427.619</ele>
<time>2020-09-10T10:14:46Z</time>
</trkpt>
<trkpt lat="48.650654" lon="10.159234">
<ele>427.619</ele>
<time>2020-09-10T10:14:47Z</time>
</trkpt>
<trkpt lat="48.650604" lon="10.159253">
<ele>427.619</ele>
<time>2020-09-10T10:14:48Z</time>
</trkpt>
<trkpt lat="48.650555" lon="10.159274">
<ele>427.619</ele>
<time>2020-09-10T10:14:49Z</time>
</trkpt>
<trkpt lat="48.650505" lon="10.159291">
<ele>427.619</ele>
<time>2020-09-10T10:14:50Z</time>
</trkpt>
<trkpt lat="48.650455" lon="10.159313">
<ele>427.619</ele>
<time>2020-09-10T10:14:51Z</time>
</trkpt>
<trkpt lat="48.650406" lon="10.159335">
<ele>427.619</ele>
<time>2020-09-10T10:14:52Z</time>
</trkpt>
<trkpt lat="48.650356" lon="10.159353">
<ele>427.619</ele>
<time>2020-09-10T10:14:53Z</time>
</trkpt>
<trkpt lat="48.650303" lon="10.159373">
<ele>427.619</ele>
<time>2020-09-10T10:14:54Z</time>
</trkpt>
<trkpt lat="48.650253" lon="10.159391">
<ele>427.619</ele>
<time>2020-09-10T10:14:55Z</time>
</trkpt>
<trkpt lat="48.6502" lon="10.159407">
<ele>427.619</ele>
<time>2020-09-10T10:14:56Z</time>
</trkpt>
<trkpt lat="48.65015" lon="10.15942">
<ele>427.618</ele>
<time>2020-09-10T10:14:57Z</time>
</trkpt>
<trkpt lat="48.650093" lon="10.15943">
<ele>427.619</ele>
<time>2020-09-10T10:14:58Z</time>
</trkpt>
<trkpt lat="48.65004" lon="10.159446">
<ele>427.618</ele>
<time>2020-09-10T10:14:59Z</time>
</trkpt>
<trkpt lat="48.64999" lon="10.159463">
<ele>427.619</ele>
<time>2020-09-10T10:15:00Z</time>
</trkpt>
<trkpt lat="48.649937" lon="10.159482">
<ele>427.619</ele>
<time>2020-09-10T10:15:01Z</time>
</trkpt>
<trkpt lat="48.649883" lon="10.159502">
<ele>427.619</ele>
<time>2020-09-10T10:15:02Z</time>
</trkpt>
<trkpt lat="48.649834" lon="10.159521">
<ele>427.619</ele>
<time>2020-09-10T10:15:03Z</time>
</trkpt>
<trkpt lat="48.64978" lon="10.15954">
<ele>427.619</ele>
<time>2020-09-10T10:15:04Z</time>
</trkpt>
<trkpt lat="48.649734" lon="10.159558">
<ele>427.619</ele>
<time>2020-09-10T10:15:05Z</time>
</trkpt>
<trkpt lat="48.649677" lon="10.159576">
<ele>427.619</ele>
<time>2020-09-10T10:15:06Z</time>
</trkpt>
<trkpt lat="48.649628" lon="10.159595">
<ele>427.619</ele>
<time>2020-09-10T10:15:07Z</time>
</trkpt>
<trkpt lat="48.649574" lon="10.159614">
<ele>427.619</ele>
<time>2020-09-10T10:15:08Z</time>
</trkpt>
<trkpt lat="48.649517" lon="10.159634">
<ele>427.619</ele>
<time>2020-09-10T10:15:09Z</time>
</trkpt>
<trkpt lat="48.649464" lon="10.159656">
<ele>427.619</ele>
<time>2020-09-10T10:15:10Z</time>
</trkpt>
<trkpt lat="48.64941" lon="10.159678">
<ele>427.619</ele>
<time>2020-09-10T10:15:11Z</time>
</trkpt>
<trkpt lat="48.649353" lon="10.159698">
<ele>427.619</ele>
<time>2020-09-10T10:15:12Z</time>
</trkpt>
<trkpt lat="48.6493" lon="10.159717">
<ele>427.619</ele>
<time>2020-09-10T10:15:13Z</time>
</trkpt>
<trkpt lat="48.649246" lon="10.159733">
<ele>427.619</ele>
<time>2020-09-10T10:15:14Z</time>
</trkpt>
<trkpt lat="48.649189" lon="10.159748">
<ele>427.619</ele>
<time>2020-09-10T10:15:15Z</time>
</trkpt>
<trkpt lat="48.649132" lon="10.159763">
<ele>427.619</ele>
<time>2020-09-10T10:15:16Z</time>
</trkpt>
<trkpt lat="48.649078" lon="10.159781">
<ele>427.619</ele>
<time>2020-09-10T10:15:17Z</time>
</trkpt>
<trkpt lat="48.649021" lon="10.159801">
<ele>427.619</ele>
<time>2020-09-10T10:15:18Z</time>
</trkpt>
<trkpt lat="48.648968" lon="10.159827">
<ele>427.619</ele>
<time>2020-09-10T10:15:19Z</time>
</trkpt>
<trkpt lat="48.648914" lon="10.159859">
<ele>427.619</ele>
<time>2020-09-10T10:15:20Z</time>
</trkpt>
<trkpt lat="48.648861" lon="10.159892">
<ele>427.619</ele>
<time>2020-09-10T10:15:21Z</time>
</trkpt>
<trkpt lat="48.648811" lon="10.159926">
<ele>427.619</ele>
<time>2020-09-10T10:15:22Z</time>
</trkpt>
<trkpt lat="48.648758" lon="10.15996">
<ele>427.619</ele>
<time>2020-09-10T10:15:23Z</time>
</trkpt>
<trkpt lat="48.648701" lon="10.15999">
<ele>427.619</ele>
<time>2020-09-10T10:15:24Z</time>
</trkpt>
<trkpt lat="48.648647" lon="10.160015">
<ele>427.619</ele>
<time>2020-09-10T10:15:25Z</time>
</trkpt>
<trkpt lat="48.648594" lon="10.160033">
<ele>427.383</ele>
<time>2020-09-10T10:15:26Z</time>
</trkpt>
<trkpt lat="48.648533" lon="10.160053">
<ele>427.197</ele>
<time>2020-09-10T10:15:27Z</time>
</trkpt>
<trkpt lat="48.648479" lon="10.160073">
<ele>427.059</ele>
<time>2020-09-10T10:15:28Z</time>
</trkpt>
<trkpt lat="48.648422" lon="10.160093">
<ele>426.952</ele>
<time>2020-09-10T10:15:29Z</time>
</trkpt>
<trkpt lat="48.648365" lon="10.160111">
<ele>426.879</ele>
<time>2020-09-10T10:15:30Z</time>
</trkpt>
<trkpt lat="48.648308" lon="10.160131">
<ele>426.825</ele>
<time>2020-09-10T10:15:31Z</time>
</trkpt>
<trkpt lat="48.648254" lon="10.160148">
<ele>426.776</ele>
<time>2020-09-10T10:15:32Z</time>
</trkpt>
<trkpt lat="48.648205" lon="10.160169">
<ele>426.753</ele>
<time>2020-09-10T10:15:33Z</time>
</trkpt>
<trkpt lat="48.648148" lon="10.160185">
<ele>426.753</ele>
<time>2020-09-10T10:15:34Z</time>
</trkpt>
<trkpt lat="48.648094" lon="10.160202">
<ele>426.753</ele>
<time>2020-09-10T10:15:35Z</time>
</trkpt>
<trkpt lat="48.648045" lon="10.160216">
<ele>426.753</ele>
<time>2020-09-10T10:15:36Z</time>
</trkpt>
<trkpt lat="48.647991" lon="10.160232">
<ele>426.753</ele>
<time>2020-09-10T10:15:37Z</time>
</trkpt>
<trkpt lat="48.647938" lon="10.160249">
<ele>426.753</ele>
<time>2020-09-10T10:15:38Z</time>
</trkpt>
<trkpt lat="48.647881" lon="10.160261">
<ele>426.753</ele>
<time>2020-09-10T10:15:39Z</time>
</trkpt>
<trkpt lat="48.647831" lon="10.160274">
<ele>426.753</ele>
<time>2020-09-10T10:15:40Z</time>
</trkpt>
<trkpt lat="48.647781" lon="10.16029">
<ele>426.753</ele>
<time>2020-09-10T10:15:41Z</time>
</trkpt>
<trkpt lat="48.64772" lon="10.160303">
<ele>426.753</ele>
<time>2020-09-10T10:15:42Z</time>
</trkpt>
<trkpt lat="48.647667" lon="10.160318">
<ele>426.753</ele>
<time>2020-09-10T10:15:43Z</time>
</trkpt>
<trkpt lat="48.64761" lon="10.160328">
<ele>426.753</ele>
<time>2020-09-10T10:15:44Z</time>
</trkpt>
<trkpt lat="48.647549" lon="10.160342">
<ele>426.381</ele>
<time>2020-09-10T10:15:45Z</time>
</trkpt>
<trkpt lat="48.647484" lon="10.160358">
<ele>426.093</ele>
<time>2020-09-10T10:15:46Z</time>
</trkpt>
<trkpt lat="48.647415" lon="10.160377">
<ele>425.874</ele>
<time>2020-09-10T10:15:47Z</time>
</trkpt>
<trkpt lat="48.64735" lon="10.160397">
<ele>425.716</ele>
<time>2020-09-10T10:15:48Z</time>
</trkpt>
<trkpt lat="48.647282" lon="10.160416">
<ele>425.609</ele>
<time>2020-09-10T10:15:49Z</time>
</trkpt>
<trkpt lat="48.647217" lon="10.16043">
<ele>425.555</ele>
<time>2020-09-10T10:15:50Z</time>
</trkpt>
<trkpt lat="48.647152" lon="10.160443">
<ele>425.29</ele>
<time>2020-09-10T10:15:51Z</time>
</trkpt>
<trkpt lat="48.647087" lon="10.160457">
<ele>425.077</ele>
<time>2020-09-10T10:15:52Z</time>
</trkpt>
<trkpt lat="48.647022" lon="10.160466">
<ele>424.931</ele>
<time>2020-09-10T10:15:53Z</time>
</trkpt>
<trkpt lat="48.646961" lon="10.160479">
<ele>424.814</ele>
<time>2020-09-10T10:15:54Z</time>
</trkpt>
<trkpt lat="48.646896" lon="10.160492">
<ele>424.723</ele>
<time>2020-09-10T10:15:55Z</time>
</trkpt>
<trkpt lat="48.646832" lon="10.160505">
<ele>424.655</ele>
<time>2020-09-10T10:15:56Z</time>
</trkpt>
<trkpt lat="48.646767" lon="10.160514">
<ele>424.612</ele>
<time>2020-09-10T10:15:57Z</time>
</trkpt>
<trkpt lat="48.646706" lon="10.160521">
<ele>424.59</ele>
<time>2020-09-10T10:15:58Z</time>
</trkpt>
<trkpt lat="48.646641" lon="10.160527">
<ele>424.59</ele>
<time>2020-09-10T10:15:59Z</time>
</trkpt>
<trkpt lat="48.64658" lon="10.160533">
<ele>424.59</ele>
<time>2020-09-10T10:16:00Z</time>
</trkpt>
<trkpt lat="48.646523" lon="10.16054">
<ele>424.59</ele>
<time>2020-09-10T10:16:01Z</time>
</trkpt>
<trkpt lat="48.646461" lon="10.160546">
<ele>424.59</ele>
<time>2020-09-10T10:16:02Z</time>
</trkpt>
<trkpt lat="48.6464" lon="10.160555">
<ele>424.59</ele>
<time>2020-09-10T10:16:03Z</time>
</trkpt>
<trkpt lat="48.646343" lon="10.160563">
<ele>424.59</ele>
<time>2020-09-10T10:16:04Z</time>
</trkpt>
<trkpt lat="48.646282" lon="10.160573">
<ele>424.59</ele>
<time>2020-09-10T10:16:05Z</time>
</trkpt>
<trkpt lat="48.646221" lon="10.160582">
<ele>424.59</ele>
<time>2020-09-10T10:16:06Z</time>
</trkpt>
<trkpt lat="48.64616" lon="10.16059">
<ele>424.59</ele>
<time>2020-09-10T10:16:07Z</time>
</trkpt>
<trkpt lat="48.646103" lon="10.160597">
<ele>424.59</ele>
<time>2020-09-10T10:16:08Z</time>
</trkpt>
<trkpt lat="48.646042" lon="10.160604">
<ele>424.59</ele>
<time>2020-09-10T10:16:09Z</time>
</trkpt>
<trkpt lat="48.645985" lon="10.16061">
<ele>424.59</ele>
<time>2020-09-10T10:16:10Z</time>
</trkpt>
<trkpt lat="48.645924" lon="10.160619">
<ele>424.59</ele>
<time>2020-09-10T10:16:11Z</time>
</trkpt>
<trkpt lat="48.645863" lon="10.160622">
<ele>424.59</ele>
<time>2020-09-10T10:16:12Z</time>
</trkpt>
<trkpt lat="48.645809" lon="10.160628">
<ele>424.59</ele>
<time>2020-09-10T10:16:13Z</time>
</trkpt>
<trkpt lat="48.645752" lon="10.160631">
<ele>424.59</ele>
<time>2020-09-10T10:16:14Z</time>
</trkpt>
<trkpt lat="48.645695" lon="10.160633">
<ele>424.59</ele>
<time>2020-09-10T10:16:15Z</time>
</trkpt>
<trkpt lat="48.645634" lon="10.160633">
<ele>424.59</ele>
<time>2020-09-10T10:16:16Z</time>
</trkpt>
<trkpt lat="48.645576" lon="10.160628">
<ele>424.59</ele>
<time>2020-09-10T10:16:17Z</time>
</trkpt>
<trkpt lat="48.645519" lon="10.160622">
<ele>424.59</ele>
<time>2020-09-10T10:16:18Z</time>
</trkpt>
<trkpt lat="48.645466" lon="10.16061">
<ele>424.59</ele>
<time>2020-09-10T10:16:19Z</time>
</trkpt>
<trkpt lat="48.645405" lon="10.160597">
<ele>424.59</ele>
<time>2020-09-10T10:16:20Z</time>
</trkpt>
<trkpt lat="48.645348" lon="10.160583">
<ele>424.59</ele>
<time>2020-09-10T10:16:21Z</time>
</trkpt>
<trkpt lat="48.64529" lon="10.160564">
<ele>424.59</ele>
<time>2020-09-10T10:16:22Z</time>
</trkpt>
<trkpt lat="48.645237" lon="10.160546">
<ele>424.59</ele>
<time>2020-09-10T10:16:23Z</time>
</trkpt>
<trkpt lat="48.645176" lon="10.160527">
<ele>424.59</ele>
<time>2020-09-10T10:16:24Z</time>
</trkpt>
<trkpt lat="48.645123" lon="10.160501">
<ele>424.59</ele>
<time>2020-09-10T10:16:25Z</time>
</trkpt>
<trkpt lat="48.645069" lon="10.160475">
<ele>424.59</ele>
<time>2020-09-10T10:16:26Z</time>
</trkpt>
<trkpt lat="48.645016" lon="10.160448">
<ele>424.59</ele>
<time>2020-09-10T10:16:27Z</time>
</trkpt>
<trkpt lat="48.644966" lon="10.160419">
<ele>424.59</ele>
<time>2020-09-10T10:16:28Z</time>
</trkpt>
<trkpt lat="48.644917" lon="10.160387">
<ele>424.59</ele>
<time>2020-09-10T10:16:29Z</time>
</trkpt>
<trkpt lat="48.644871" lon="10.160353">
<ele>424.59</ele>
<time>2020-09-10T10:16:30Z</time>
</trkpt>
<trkpt lat="48.644821" lon="10.160319">
<ele>424.59</ele>
<time>2020-09-10T10:16:31Z</time>
</trkpt>
<trkpt lat="48.644779" lon="10.160285">
<ele>424.366</ele>
<time>2020-09-10T10:16:32Z</time>
</trkpt>
<trkpt lat="48.644733" lon="10.160247">
<ele>424.173</ele>
<time>2020-09-10T10:16:33Z</time>
</trkpt>
<trkpt lat="48.644691" lon="10.160205">
<ele>424.014</ele>
<time>2020-09-10T10:16:34Z</time>
</trkpt>
<trkpt lat="48.644653" lon="10.16016">
<ele>423.883</ele>
<time>2020-09-10T10:16:35Z</time>
</trkpt>
<trkpt lat="48.644611" lon="10.160114">
<ele>423.783</ele>
<time>2020-09-10T10:16:36Z</time>
</trkpt>
<trkpt lat="48.644566" lon="10.160067">
<ele>423.708</ele>
<time>2020-09-10T10:16:37Z</time>
</trkpt>
<trkpt lat="48.644524" lon="10.160015">
<ele>423.661</ele>
<time>2020-09-10T10:16:38Z</time>
</trkpt>
<trkpt lat="48.644482" lon="10.159966">
<ele>423.639</ele>
<time>2020-09-10T10:16:39Z</time>
</trkpt>
<trkpt lat="48.64444" lon="10.15991">
<ele>423.639</ele>
<time>2020-09-10T10:16:40Z</time>
</trkpt>
<trkpt lat="48.644398" lon="10.159855">
<ele>423.639</ele>
<time>2020-09-10T10:16:41Z</time>
</trkpt>
<trkpt lat="48.64436" lon="10.1598">
<ele>423.639</ele>
<time>2020-09-10T10:16:42Z</time>
</trkpt>
<trkpt lat="48.644321" lon="10.159748">
<ele>423.639</ele>
<time>2020-09-10T10:16:43Z</time>
</trkpt>
<trkpt lat="48.644287" lon="10.159695">
<ele>423.639</ele>
<time>2020-09-10T10:16:44Z</time>
</trkpt>
<trkpt lat="48.644253" lon="10.159638">
<ele>423.639</ele>
<time>2020-09-10T10:16:45Z</time>
</trkpt>
<trkpt lat="48.644226" lon="10.159584">
<ele>423.639</ele>
<time>2020-09-10T10:16:46Z</time>
</trkpt>
<trkpt lat="48.644196" lon="10.159527">
<ele>423.639</ele>
<time>2020-09-10T10:16:47Z</time>
</trkpt>
<trkpt lat="48.644165" lon="10.159469">
<ele>423.639</ele>
<time>2020-09-10T10:16:48Z</time>
</trkpt>
<trkpt lat="48.644142" lon="10.159409">
<ele>423.639</ele>
<time>2020-09-10T10:16:49Z</time>
</trkpt>
<trkpt lat="48.644115" lon="10.159348">
<ele>423.639</ele>
<time>2020-09-10T10:16:50Z</time>
</trkpt>
<trkpt lat="48.644093" lon="10.159288">
<ele>423.639</ele>
<time>2020-09-10T10:16:51Z</time>
</trkpt>
<trkpt lat="48.644066" lon="10.159228">
<ele>423.639</ele>
<time>2020-09-10T10:16:52Z</time>
</trkpt>
<trkpt lat="48.644043" lon="10.159169">
<ele>423.639</ele>
<time>2020-09-10T10:16:53Z</time>
</trkpt>
<trkpt lat="48.644024" lon="10.159108">
<ele>423.639</ele>
<time>2020-09-10T10:16:54Z</time>
</trkpt>
<trkpt lat="48.644001" lon="10.159048">
<ele>423.639</ele>
<time>2020-09-10T10:16:55Z</time>
</trkpt>
<trkpt lat="48.643978" lon="10.158989">
<ele>423.639</ele>
<time>2020-09-10T10:16:56Z</time>
</trkpt>
<trkpt lat="48.643959" lon="10.158928">
<ele>423.639</ele>
<time>2020-09-10T10:16:57Z</time>
</trkpt>
<trkpt lat="48.643936" lon="10.158865">
<ele>423.639</ele>
<time>2020-09-10T10:16:58Z</time>
</trkpt>
<trkpt lat="48.643917" lon="10.1588">
<ele>423.639</ele>
<time>2020-09-10T10:16:59Z</time>
</trkpt>
<trkpt lat="48.643898" lon="10.158738">
<ele>423.639</ele>
<time>2020-09-10T10:17:00Z</time>
</trkpt>
<trkpt lat="48.643879" lon="10.158675">
<ele>423.639</ele>
<time>2020-09-10T10:17:01Z</time>
</trkpt>
<trkpt lat="48.643864" lon="10.158612">
<ele>423.639</ele>
<time>2020-09-10T10:17:02Z</time>
</trkpt>
<trkpt lat="48.643848" lon="10.158548">
<ele>423.639</ele>
<time>2020-09-10T10:17:03Z</time>
</trkpt>
<trkpt lat="48.643837" lon="10.158484">
<ele>423.639</ele>
<time>2020-09-10T10:17:04Z</time>
</trkpt>
<trkpt lat="48.643822" lon="10.158423">
<ele>423.639</ele>
<time>2020-09-10T10:17:05Z</time>
</trkpt>
<trkpt lat="48.643806" lon="10.158363">
<ele>423.639</ele>
<time>2020-09-10T10:17:06Z</time>
</trkpt>
<trkpt lat="48.643791" lon="10.158305">
<ele>423.639</ele>
<time>2020-09-10T10:17:07Z</time>
</trkpt>
<trkpt lat="48.643772" lon="10.158247">
<ele>423.639</ele>
<time>2020-09-10T10:17:08Z</time>
</trkpt>
<trkpt lat="48.643757" lon="10.158194">
<ele>423.639</ele>
<time>2020-09-10T10:17:09Z</time>
</trkpt>
<trkpt lat="48.643742" lon="10.158143">
<ele>423.639</ele>
<time>2020-09-10T10:17:10Z</time>
</trkpt>
<trkpt lat="48.643715" lon="10.158105">
<ele>423.639</ele>
<time>2020-09-10T10:17:11Z</time>
</trkpt>
<trkpt lat="48.643688" lon="10.15808">
<ele>423.639</ele>
<time>2020-09-10T10:17:12Z</time>
</trkpt>
<trkpt lat="48.643661" lon="10.158067">
<ele>423.639</ele>
<time>2020-09-10T10:17:13Z</time>
</trkpt>
<trkpt lat="48.643635" lon="10.158063">
<ele>423.639</ele>
<time>2020-09-10T10:17:14Z</time>
</trkpt>
<trkpt lat="48.643612" lon="10.158063">
<ele>423.639</ele>
<time>2020-09-10T10:17:15Z</time>
</trkpt>
<trkpt lat="48.643589" lon="10.158065">
<ele>423.639</ele>
<time>2020-09-10T10:17:16Z</time>
</trkpt>
<trkpt lat="48.643574" lon="10.158067">
<ele>423.639</ele>
<time>2020-09-10T10:17:17Z</time>
</trkpt>
<trkpt lat="48.643566" lon="10.15807">
<ele>423.639</ele>
<time>2020-09-10T10:17:18Z</time>
</trkpt>
<trkpt lat="48.643562" lon="10.158072">
<ele>423.639</ele>
<time>2020-09-10T10:17:19Z</time>
</trkpt>
<trkpt lat="48.643562" lon="10.158069">
<ele>423.639</ele>
<time>2020-09-10T10:17:20Z</time>
</trkpt>
<trkpt lat="48.643559" lon="10.158069">
<ele>423.639</ele>
<time>2020-09-10T10:17:21Z</time>
</trkpt>
<trkpt lat="48.643547" lon="10.158076">
<ele>423.639</ele>
<time>2020-09-10T10:18:15Z</time>
</trkpt>
<trkpt lat="48.643532" lon="10.158078">
<ele>423.639</ele>
<time>2020-09-10T10:18:16Z</time>
</trkpt>
<trkpt lat="48.643513" lon="10.15808">
<ele>423.639</ele>
<time>2020-09-10T10:18:17Z</time>
</trkpt>
<trkpt lat="48.64349" lon="10.158082">
<ele>423.639</ele>
<time>2020-09-10T10:18:18Z</time>
</trkpt>
<trkpt lat="48.643467" lon="10.158082">
<ele>423.639</ele>
<time>2020-09-10T10:18:19Z</time>
</trkpt>
<trkpt lat="48.643448" lon="10.158082">
<ele>423.639</ele>
<time>2020-09-10T10:18:20Z</time>
</trkpt>
<trkpt lat="48.643425" lon="10.158082">
<ele>423.639</ele>
<time>2020-09-10T10:18:21Z</time>
</trkpt>
<trkpt lat="48.643414" lon="10.15808">
<ele>423.639</ele>
<time>2020-09-10T10:18:22Z</time>
</trkpt>
<trkpt lat="48.643394" lon="10.158078">
<ele>423.639</ele>
<time>2020-09-10T10:18:23Z</time>
</trkpt>
<trkpt lat="48.643383" lon="10.158076">
<ele>423.639</ele>
<time>2020-09-10T10:18:24Z</time>
</trkpt>
<trkpt lat="48.643372" lon="10.158078">
<ele>423.639</ele>
<time>2020-09-10T10:18:25Z</time>
</trkpt>
<trkpt lat="48.643356" lon="10.15808">
<ele>423.639</ele>
<time>2020-09-10T10:18:26Z</time>
</trkpt>
<trkpt lat="48.643341" lon="10.158078">
<ele>423.639</ele>
<time>2020-09-10T10:18:27Z</time>
</trkpt>
<trkpt lat="48.643322" lon="10.158082">
<ele>423.639</ele>
<time>2020-09-10T10:18:28Z</time>
</trkpt>
<trkpt lat="48.643303" lon="10.158087">
<ele>423.639</ele>
<time>2020-09-10T10:18:29Z</time>
</trkpt>
<trkpt lat="48.64328" lon="10.158092">
<ele>423.639</ele>
<time>2020-09-10T10:18:30Z</time>
</trkpt>
<trkpt lat="48.643253" lon="10.158092">
<ele>423.639</ele>
<time>2020-09-10T10:18:31Z</time>
</trkpt>
<trkpt lat="48.643223" lon="10.158091">
<ele>423.639</ele>
<time>2020-09-10T10:18:32Z</time>
</trkpt>
<trkpt lat="48.643196" lon="10.158087">
<ele>423.639</ele>
<time>2020-09-10T10:18:33Z</time>
</trkpt>
<trkpt lat="48.643166" lon="10.15808">
<ele>423.639</ele>
<time>2020-09-10T10:18:34Z</time>
</trkpt>
<trkpt lat="48.643135" lon="10.158072">
<ele>423.639</ele>
<time>2020-09-10T10:18:35Z</time>
</trkpt>
<trkpt lat="48.643105" lon="10.158058">
<ele>423.639</ele>
<time>2020-09-10T10:18:36Z</time>
</trkpt>
<trkpt lat="48.64307" lon="10.158042">
<ele>423.639</ele>
<time>2020-09-10T10:18:37Z</time>
</trkpt>
<trkpt lat="48.643036" lon="10.158025">
<ele>423.639</ele>
<time>2020-09-10T10:18:38Z</time>
</trkpt>
<trkpt lat="48.643002" lon="10.158009">
<ele>423.639</ele>
<time>2020-09-10T10:18:39Z</time>
</trkpt>
<trkpt lat="48.642971" lon="10.157991">
<ele>423.639</ele>
<time>2020-09-10T10:18:40Z</time>
</trkpt>
<trkpt lat="48.642941" lon="10.157973">
<ele>423.639</ele>
<time>2020-09-10T10:18:41Z</time>
</trkpt>
<trkpt lat="48.64291" lon="10.157956">
<ele>423.639</ele>
<time>2020-09-10T10:18:42Z</time>
</trkpt>
<trkpt lat="48.642879" lon="10.15794">
<ele>423.639</ele>
<time>2020-09-10T10:18:43Z</time>
</trkpt>
<trkpt lat="48.642845" lon="10.15792">
<ele>423.639</ele>
<time>2020-09-10T10:18:44Z</time>
</trkpt>
<trkpt lat="48.642811" lon="10.1579">
<ele>423.639</ele>
<time>2020-09-10T10:18:45Z</time>
</trkpt>
<trkpt lat="48.642773" lon="10.157882">
<ele>423.639</ele>
<time>2020-09-10T10:18:46Z</time>
</trkpt>
<trkpt lat="48.642731" lon="10.157865">
<ele>423.639</ele>
<time>2020-09-10T10:18:47Z</time>
</trkpt>
<trkpt lat="48.642689" lon="10.157847">
<ele>423.639</ele>
<time>2020-09-10T10:18:48Z</time>
</trkpt>
<trkpt lat="48.642639" lon="10.157828">
<ele>423.639</ele>
<time>2020-09-10T10:18:49Z</time>
</trkpt>
<trkpt lat="48.642597" lon="10.157808">
<ele>423.639</ele>
<time>2020-09-10T10:18:50Z</time>
</trkpt>
<trkpt lat="48.642548" lon="10.15779">
<ele>423.639</ele>
<time>2020-09-10T10:18:51Z</time>
</trkpt>
<trkpt lat="48.642502" lon="10.157772">
<ele>423.639</ele>
<time>2020-09-10T10:18:52Z</time>
</trkpt>
<trkpt lat="48.642452" lon="10.157755">
<ele>423.639</ele>
<time>2020-09-10T10:18:53Z</time>
</trkpt>
<trkpt lat="48.642403" lon="10.157741">
<ele>423.639</ele>
<time>2020-09-10T10:18:54Z</time>
</trkpt>
<trkpt lat="48.642353" lon="10.157725">
<ele>423.639</ele>
<time>2020-09-10T10:18:55Z</time>
</trkpt>
<trkpt lat="48.642303" lon="10.157705">
<ele>423.639</ele>
<time>2020-09-10T10:18:56Z</time>
</trkpt>
<trkpt lat="48.642246" lon="10.157688">
<ele>423.639</ele>
<time>2020-09-10T10:18:57Z</time>
</trkpt>
<trkpt lat="48.642197" lon="10.157672">
<ele>423.639</ele>
<time>2020-09-10T10:18:58Z</time>
</trkpt>
<trkpt lat="48.642143" lon="10.157655">
<ele>423.639</ele>
<time>2020-09-10T10:18:59Z</time>
</trkpt>
<trkpt lat="48.642094" lon="10.15764">
<ele>423.639</ele>
<time>2020-09-10T10:19:00Z</time>
</trkpt>
<trkpt lat="48.642044" lon="10.157627">
<ele>423.639</ele>
<time>2020-09-10T10:19:01Z</time>
</trkpt>
<trkpt lat="48.641998" lon="10.157615">
<ele>423.639</ele>
<time>2020-09-10T10:19:02Z</time>
</trkpt>
<trkpt lat="48.641949" lon="10.157608">
<ele>423.639</ele>
<time>2020-09-10T10:19:03Z</time>
</trkpt>
<trkpt lat="48.641899" lon="10.157603">
<ele>423.639</ele>
<time>2020-09-10T10:19:04Z</time>
</trkpt>
<trkpt lat="48.64185" lon="10.157603">
<ele>423.639</ele>
<time>2020-09-10T10:19:05Z</time>
</trkpt>
<trkpt lat="48.641804" lon="10.157617">
<ele>423.639</ele>
<time>2020-09-10T10:19:06Z</time>
</trkpt>
<trkpt lat="48.641762" lon="10.157644">
<ele>423.639</ele>
<time>2020-09-10T10:19:07Z</time>
</trkpt>
<trkpt lat="48.641727" lon="10.157692">
<ele>423.639</ele>
<time>2020-09-10T10:19:08Z</time>
</trkpt>
<trkpt lat="48.641697" lon="10.157748">
<ele>423.639</ele>
<time>2020-09-10T10:19:09Z</time>
</trkpt>
<trkpt lat="48.641674" lon="10.157813">
<ele>423.639</ele>
<time>2020-09-10T10:19:10Z</time>
</trkpt>
<trkpt lat="48.641655" lon="10.157882">
<ele>423.639</ele>
<time>2020-09-10T10:19:11Z</time>
</trkpt>
<trkpt lat="48.641644" lon="10.157954">
<ele>423.639</ele>
<time>2020-09-10T10:19:12Z</time>
</trkpt>
<trkpt lat="48.641636" lon="10.158031">
<ele>423.639</ele>
<time>2020-09-10T10:19:13Z</time>
</trkpt>
<trkpt lat="48.641632" lon="10.158112">
<ele>423.639</ele>
<time>2020-09-10T10:19:14Z</time>
</trkpt>
<trkpt lat="48.641628" lon="10.158192">
<ele>423.639</ele>
<time>2020-09-10T10:19:15Z</time>
</trkpt>
<trkpt lat="48.641624" lon="10.158273">
<ele>423.639</ele>
<time>2020-09-10T10:19:16Z</time>
</trkpt>
<trkpt lat="48.641621" lon="10.158354">
<ele>423.639</ele>
<time>2020-09-10T10:19:17Z</time>
</trkpt>
<trkpt lat="48.641621" lon="10.158434">
<ele>423.639</ele>
<time>2020-09-10T10:19:18Z</time>
</trkpt>
<trkpt lat="48.641624" lon="10.158515">
<ele>423.639</ele>
<time>2020-09-10T10:19:19Z</time>
</trkpt>
<trkpt lat="48.641628" lon="10.158597">
<ele>423.639</ele>
<time>2020-09-10T10:19:20Z</time>
</trkpt>
<trkpt lat="48.641636" lon="10.158679">
<ele>423.639</ele>
<time>2020-09-10T10:19:21Z</time>
</trkpt>
<trkpt lat="48.641644" lon="10.15876">
<ele>423.639</ele>
<time>2020-09-10T10:19:22Z</time>
</trkpt>
<trkpt lat="48.641647" lon="10.158842">
<ele>423.639</ele>
<time>2020-09-10T10:19:23Z</time>
</trkpt>
<trkpt lat="48.641655" lon="10.15892">
<ele>423.639</ele>
<time>2020-09-10T10:19:24Z</time>
</trkpt>
<trkpt lat="48.641663" lon="10.158998">
<ele>423.639</ele>
<time>2020-09-10T10:19:25Z</time>
</trkpt>
<trkpt lat="48.641666" lon="10.159079">
<ele>423.639</ele>
<time>2020-09-10T10:19:26Z</time>
</trkpt>
<trkpt lat="48.64167" lon="10.159161">
<ele>423.639</ele>
<time>2020-09-10T10:19:27Z</time>
</trkpt>
<trkpt lat="48.641674" lon="10.159242">
<ele>423.639</ele>
<time>2020-09-10T10:19:28Z</time>
</trkpt>
<trkpt lat="48.641678" lon="10.159327">
<ele>423.639</ele>
<time>2020-09-10T10:19:29Z</time>
</trkpt>
<trkpt lat="48.641685" lon="10.159412">
<ele>423.639</ele>
<time>2020-09-10T10:19:30Z</time>
</trkpt>
<trkpt lat="48.641689" lon="10.1595">
<ele>423.639</ele>
<time>2020-09-10T10:19:31Z</time>
</trkpt>
<trkpt lat="48.641697" lon="10.159588">
<ele>423.639</ele>
<time>2020-09-10T10:19:32Z</time>
</trkpt>
<trkpt lat="48.641705" lon="10.159677">
<ele>423.639</ele>
<time>2020-09-10T10:19:33Z</time>
</trkpt>
<trkpt lat="48.641712" lon="10.159763">
<ele>423.639</ele>
<time>2020-09-10T10:19:34Z</time>
</trkpt>
<trkpt lat="48.64172" lon="10.15985">
<ele>423.639</ele>
<time>2020-09-10T10:19:35Z</time>
</trkpt>
<trkpt lat="48.641724" lon="10.159935">
<ele>423.639</ele>
<time>2020-09-10T10:19:36Z</time>
</trkpt>
<trkpt lat="48.641731" lon="10.160022">
<ele>423.639</ele>
<time>2020-09-10T10:19:37Z</time>
</trkpt>
<trkpt lat="48.641739" lon="10.160107">
<ele>423.639</ele>
<time>2020-09-10T10:19:38Z</time>
</trkpt>
<trkpt lat="48.641747" lon="10.160193">
<ele>423.639</ele>
<time>2020-09-10T10:19:39Z</time>
</trkpt>
<trkpt lat="48.64175" lon="10.160282">
<ele>423.639</ele>
<time>2020-09-10T10:19:40Z</time>
</trkpt>
<trkpt lat="48.641754" lon="10.160372">
<ele>423.639</ele>
<time>2020-09-10T10:19:41Z</time>
</trkpt>
<trkpt lat="48.641758" lon="10.160463">
<ele>423.639</ele>
<time>2020-09-10T10:19:42Z</time>
</trkpt>
<trkpt lat="48.641766" lon="10.160555">
<ele>423.639</ele>
<time>2020-09-10T10:19:43Z</time>
</trkpt>
<trkpt lat="48.641769" lon="10.160646">
<ele>423.639</ele>
<time>2020-09-10T10:19:44Z</time>
</trkpt>
<trkpt lat="48.641777" lon="10.160738">
<ele>423.639</ele>
<time>2020-09-10T10:19:45Z</time>
</trkpt>
<trkpt lat="48.641785" lon="10.160829">
<ele>423.639</ele>
<time>2020-09-10T10:19:46Z</time>
</trkpt>
<trkpt lat="48.641788" lon="10.16092">
<ele>423.639</ele>
<time>2020-09-10T10:19:47Z</time>
</trkpt>
<trkpt lat="48.641796" lon="10.161012">
<ele>423.639</ele>
<time>2020-09-10T10:19:48Z</time>
</trkpt>
<trkpt lat="48.6418" lon="10.161101">
<ele>423.639</ele>
<time>2020-09-10T10:19:49Z</time>
</trkpt>
<trkpt lat="48.641808" lon="10.161195">
<ele>423.639</ele>
<time>2020-09-10T10:19:50Z</time>
</trkpt>
<trkpt lat="48.641815" lon="10.161288">
<ele>423.639</ele>
<time>2020-09-10T10:19:51Z</time>
</trkpt>
<trkpt lat="48.641819" lon="10.161384">
<ele>423.639</ele>
<time>2020-09-10T10:19:52Z</time>
</trkpt>
<trkpt lat="48.641819" lon="10.161478">
<ele>423.639</ele>
<time>2020-09-10T10:19:53Z</time>
</trkpt>
<trkpt lat="48.641827" lon="10.161573">
<ele>423.639</ele>
<time>2020-09-10T10:19:54Z</time>
</trkpt>
<trkpt lat="48.641834" lon="10.161667">
<ele>423.639</ele>
<time>2020-09-10T10:19:55Z</time>
</trkpt>
<trkpt lat="48.641842" lon="10.16176">
<ele>423.639</ele>
<time>2020-09-10T10:19:56Z</time>
</trkpt>
<trkpt lat="48.64185" lon="10.161855">
<ele>423.639</ele>
<time>2020-09-10T10:19:57Z</time>
</trkpt>
<trkpt lat="48.641853" lon="10.161948">
<ele>423.639</ele>
<time>2020-09-10T10:19:58Z</time>
</trkpt>
<trkpt lat="48.641861" lon="10.16204">
<ele>423.639</ele>
<time>2020-09-10T10:19:59Z</time>
</trkpt>
<trkpt lat="48.641869" lon="10.162127">
<ele>423.639</ele>
<time>2020-09-10T10:20:00Z</time>
</trkpt>
<trkpt lat="48.641876" lon="10.162215">
<ele>423.639</ele>
<time>2020-09-10T10:20:01Z</time>
</trkpt>
<trkpt lat="48.64188" lon="10.162302">
<ele>423.639</ele>
<time>2020-09-10T10:20:02Z</time>
</trkpt>
<trkpt lat="48.64188" lon="10.162392">
<ele>423.639</ele>
<time>2020-09-10T10:20:03Z</time>
</trkpt>
<trkpt lat="48.641865" lon="10.162474">
<ele>423.639</ele>
<time>2020-09-10T10:20:04Z</time>
</trkpt>
<trkpt lat="48.641838" lon="10.162542">
<ele>423.639</ele>
<time>2020-09-10T10:20:05Z</time>
</trkpt>
<trkpt lat="48.641796" lon="10.162592">
<ele>423.639</ele>
<time>2020-09-10T10:20:06Z</time>
</trkpt>
<trkpt lat="48.64175" lon="10.162617">
<ele>423.639</ele>
<time>2020-09-10T10:20:07Z</time>
</trkpt>
<trkpt lat="48.641693" lon="10.162621">
<ele>423.639</ele>
<time>2020-09-10T10:20:08Z</time>
</trkpt>
<trkpt lat="48.64164" lon="10.162617">
<ele>423.639</ele>
<time>2020-09-10T10:20:09Z</time>
</trkpt>
<trkpt lat="48.641586" lon="10.16261">
<ele>423.639</ele>
<time>2020-09-10T10:20:10Z</time>
</trkpt>
<trkpt lat="48.641529" lon="10.162614">
<ele>423.639</ele>
<time>2020-09-10T10:20:11Z</time>
</trkpt>
<trkpt lat="48.641479" lon="10.162616">
<ele>423.639</ele>
<time>2020-09-10T10:20:12Z</time>
</trkpt>
<trkpt lat="48.641426" lon="10.162608">
<ele>423.639</ele>
<time>2020-09-10T10:20:13Z</time>
</trkpt>
<trkpt lat="48.64138" lon="10.162603">
<ele>423.639</ele>
<time>2020-09-10T10:20:14Z</time>
</trkpt>
<trkpt lat="48.641327" lon="10.162601">
<ele>423.639</ele>
<time>2020-09-10T10:20:15Z</time>
</trkpt>
<trkpt lat="48.64127" lon="10.162599">
<ele>423.639</ele>
<time>2020-09-10T10:20:16Z</time>
</trkpt>
<trkpt lat="48.641212" lon="10.162597">
<ele>423.639</ele>
<time>2020-09-10T10:20:17Z</time>
</trkpt>
<trkpt lat="48.641151" lon="10.162595">
<ele>423.639</ele>
<time>2020-09-10T10:20:18Z</time>
</trkpt>
<trkpt lat="48.64109" lon="10.162593">
<ele>423.639</ele>
<time>2020-09-10T10:20:19Z</time>
</trkpt>
<trkpt lat="48.641029" lon="10.16259">
<ele>423.639</ele>
<time>2020-09-10T10:20:20Z</time>
</trkpt>
<trkpt lat="48.640968" lon="10.162584">
<ele>423.639</ele>
<time>2020-09-10T10:20:21Z</time>
</trkpt>
<trkpt lat="48.640903" lon="10.16258">
<ele>423.639</ele>
<time>2020-09-10T10:20:22Z</time>
</trkpt>
<trkpt lat="48.640846" lon="10.162574">
<ele>423.639</ele>
<time>2020-09-10T10:20:23Z</time>
</trkpt>
<trkpt lat="48.640785" lon="10.162568">
<ele>423.639</ele>
<time>2020-09-10T10:20:24Z</time>
</trkpt>
<trkpt lat="48.640728" lon="10.162567">
<ele>423.639</ele>
<time>2020-09-10T10:20:25Z</time>
</trkpt>
<trkpt lat="48.640671" lon="10.162565">
<ele>423.639</ele>
<time>2020-09-10T10:20:26Z</time>
</trkpt>
<trkpt lat="48.640614" lon="10.162561">
<ele>423.639</ele>
<time>2020-09-10T10:20:27Z</time>
</trkpt>
<trkpt lat="48.64056" lon="10.162557">
<ele>423.639</ele>
<time>2020-09-10T10:20:28Z</time>
</trkpt>
<trkpt lat="48.640514" lon="10.162551">
<ele>423.639</ele>
<time>2020-09-10T10:20:29Z</time>
</trkpt>
<trkpt lat="48.640469" lon="10.162551">
<ele>423.639</ele>
<time>2020-09-10T10:20:30Z</time>
</trkpt>
<trkpt lat="48.640419" lon="10.162551">
<ele>423.639</ele>
<time>2020-09-10T10:20:31Z</time>
</trkpt>
<trkpt lat="48.640385" lon="10.162553">
<ele>423.639</ele>
<time>2020-09-10T10:20:32Z</time>
</trkpt>
<trkpt lat="48.640343" lon="10.162551">
<ele>423.639</ele>
<time>2020-09-10T10:20:33Z</time>
</trkpt>
<trkpt lat="48.640305" lon="10.162548">
<ele>423.639</ele>
<time>2020-09-10T10:20:34Z</time>
</trkpt>
<trkpt lat="48.640266" lon="10.162546">
<ele>423.639</ele>
<time>2020-09-10T10:20:35Z</time>
</trkpt>
<trkpt lat="48.640228" lon="10.162543">
<ele>423.639</ele>
<time>2020-09-10T10:20:36Z</time>
</trkpt>
<trkpt lat="48.64019" lon="10.16254">
<ele>423.639</ele>
<time>2020-09-10T10:20:37Z</time>
</trkpt>
<trkpt lat="48.640148" lon="10.16254">
<ele>423.639</ele>
<time>2020-09-10T10:20:38Z</time>
</trkpt>
<trkpt lat="48.640106" lon="10.162539">
<ele>423.639</ele>
<time>2020-09-10T10:20:39Z</time>
</trkpt>
<trkpt lat="48.640057" lon="10.162535">
<ele>423.639</ele>
<time>2020-09-10T10:20:40Z</time>
</trkpt>
<trkpt lat="48.640011" lon="10.162532">
<ele>423.639</ele>
<time>2020-09-10T10:20:41Z</time>
</trkpt>
<trkpt lat="48.639957" lon="10.162527">
<ele>423.639</ele>
<time>2020-09-10T10:20:42Z</time>
</trkpt>
<trkpt lat="48.639904" lon="10.162519">
<ele>423.639</ele>
<time>2020-09-10T10:20:43Z</time>
</trkpt>
<trkpt lat="48.639847" lon="10.162515">
<ele>423.639</ele>
<time>2020-09-10T10:20:44Z</time>
</trkpt>
<trkpt lat="48.639793" lon="10.162507">
<ele>423.639</ele>
<time>2020-09-10T10:20:45Z</time>
</trkpt>
<trkpt lat="48.639732" lon="10.1625">
<ele>423.639</ele>
<time>2020-09-10T10:20:46Z</time>
</trkpt>
<trkpt lat="48.639679" lon="10.162492">
<ele>423.639</ele>
<time>2020-09-10T10:20:47Z</time>
</trkpt>
<trkpt lat="48.639622" lon="10.162483">
<ele>423.639</ele>
<time>2020-09-10T10:20:48Z</time>
</trkpt>
<trkpt lat="48.639568" lon="10.162477">
<ele>423.639</ele>
<time>2020-09-10T10:20:49Z</time>
</trkpt>
<trkpt lat="48.639507" lon="10.162474">
<ele>423.639</ele>
<time>2020-09-10T10:20:50Z</time>
</trkpt>
<trkpt lat="48.639454" lon="10.162465">
<ele>423.639</ele>
<time>2020-09-10T10:20:51Z</time>
</trkpt>
<trkpt lat="48.639404" lon="10.162461">
<ele>423.639</ele>
<time>2020-09-10T10:20:52Z</time>
</trkpt>
<trkpt lat="48.639347" lon="10.162458">
<ele>423.639</ele>
<time>2020-09-10T10:20:53Z</time>
</trkpt>
<trkpt lat="48.639294" lon="10.162454">
<ele>423.639</ele>
<time>2020-09-10T10:20:54Z</time>
</trkpt>
<trkpt lat="48.63924" lon="10.162446">
<ele>423.639</ele>
<time>2020-09-10T10:20:55Z</time>
</trkpt>
<trkpt lat="48.639187" lon="10.16244">
<ele>423.639</ele>
<time>2020-09-10T10:20:56Z</time>
</trkpt>
<trkpt lat="48.639137" lon="10.162434">
<ele>423.639</ele>
<time>2020-09-10T10:20:57Z</time>
</trkpt>
<trkpt lat="48.63908" lon="10.162429">
<ele>423.373</ele>
<time>2020-09-10T10:20:58Z</time>
</trkpt>
<trkpt lat="48.639027" lon="10.162425">
<ele>423.165</ele>
<time>2020-09-10T10:20:59Z</time>
</trkpt>
<trkpt lat="48.638977" lon="10.16242">
<ele>423.005</ele>
<time>2020-09-10T10:21:00Z</time>
</trkpt>
<trkpt lat="48.638924" lon="10.162415">
<ele>422.888</ele>
<time>2020-09-10T10:21:01Z</time>
</trkpt>
<trkpt lat="48.63887" lon="10.162407">
<ele>422.807</ele>
<time>2020-09-10T10:21:02Z</time>
</trkpt>
<trkpt lat="48.638817" lon="10.162398">
<ele>422.756</ele>
<time>2020-09-10T10:21:03Z</time>
</trkpt>
<trkpt lat="48.638767" lon="10.162394">
<ele>422.714</ele>
<time>2020-09-10T10:21:04Z</time>
</trkpt>
<trkpt lat="48.638718" lon="10.16239">
<ele>422.688</ele>
<time>2020-09-10T10:21:05Z</time>
</trkpt>
<trkpt lat="48.63866" lon="10.162383">
<ele>422.688</ele>
<time>2020-09-10T10:21:06Z</time>
</trkpt>
<trkpt lat="48.638603" lon="10.162378">
<ele>422.688</ele>
<time>2020-09-10T10:21:07Z</time>
</trkpt>
<trkpt lat="48.63855" lon="10.162372">
<ele>422.688</ele>
<time>2020-09-10T10:21:08Z</time>
</trkpt>
<trkpt lat="48.638493" lon="10.162364">
<ele>422.688</ele>
<time>2020-09-10T10:21:09Z</time>
</trkpt>
<trkpt lat="48.638435" lon="10.162355">
<ele>422.688</ele>
<time>2020-09-10T10:21:10Z</time>
</trkpt>
<trkpt lat="48.638382" lon="10.162347">
<ele>422.688</ele>
<time>2020-09-10T10:21:11Z</time>
</trkpt>
<trkpt lat="48.638325" lon="10.162338">
<ele>422.688</ele>
<time>2020-09-10T10:21:12Z</time>
</trkpt>
<trkpt lat="48.638264" lon="10.162331">
<ele>422.688</ele>
<time>2020-09-10T10:21:13Z</time>
</trkpt>
<trkpt lat="48.638206" lon="10.162322">
<ele>422.688</ele>
<time>2020-09-10T10:21:14Z</time>
</trkpt>
<trkpt lat="48.638149" lon="10.162312">
<ele>422.688</ele>
<time>2020-09-10T10:21:15Z</time>
</trkpt>
<trkpt lat="48.638088" lon="10.162303">
<ele>422.688</ele>
<time>2020-09-10T10:21:16Z</time>
</trkpt>
<trkpt lat="48.638035" lon="10.162293">
<ele>422.688</ele>
<time>2020-09-10T10:21:17Z</time>
</trkpt>
<trkpt lat="48.63797" lon="10.162285">
<ele>422.688</ele>
<time>2020-09-10T10:21:18Z</time>
</trkpt>
<trkpt lat="48.637917" lon="10.162278">
<ele>422.688</ele>
<time>2020-09-10T10:21:19Z</time>
</trkpt>
<trkpt lat="48.637863" lon="10.162271">
<ele>422.688</ele>
<time>2020-09-10T10:21:20Z</time>
</trkpt>
<trkpt lat="48.637806" lon="10.162267">
<ele>422.688</ele>
<time>2020-09-10T10:21:21Z</time>
</trkpt>
<trkpt lat="48.637753" lon="10.16226">
<ele>422.688</ele>
<time>2020-09-10T10:21:22Z</time>
</trkpt>
<trkpt lat="48.637695" lon="10.162253">
<ele>422.688</ele>
<time>2020-09-10T10:21:23Z</time>
</trkpt>
<trkpt lat="48.637646" lon="10.162247">
<ele>422.688</ele>
<time>2020-09-10T10:21:24Z</time>
</trkpt>
<trkpt lat="48.637585" lon="10.162238">
<ele>422.688</ele>
<time>2020-09-10T10:21:25Z</time>
</trkpt>
<trkpt lat="48.637531" lon="10.16223">
<ele>422.688</ele>
<time>2020-09-10T10:21:26Z</time>
</trkpt>
<trkpt lat="48.637482" lon="10.162222">
<ele>422.688</ele>
<time>2020-09-10T10:21:27Z</time>
</trkpt>
<trkpt lat="48.637421" lon="10.162211">
<ele>422.688</ele>
<time>2020-09-10T10:21:28Z</time>
</trkpt>
<trkpt lat="48.637367" lon="10.162203">
<ele>422.688</ele>
<time>2020-09-10T10:21:29Z</time>
</trkpt>
<trkpt lat="48.63731" lon="10.162195">
<ele>422.688</ele>
<time>2020-09-10T10:21:30Z</time>
</trkpt>
<trkpt lat="48.637253" lon="10.162185">
<ele>422.688</ele>
<time>2020-09-10T10:21:31Z</time>
</trkpt>
<trkpt lat="48.637196" lon="10.162176">
<ele>422.688</ele>
<time>2020-09-10T10:21:32Z</time>
</trkpt>
<trkpt lat="48.637138" lon="10.162169">
<ele>422.688</ele>
<time>2020-09-10T10:21:33Z</time>
</trkpt>
<trkpt lat="48.637081" lon="10.162162">
<ele>422.688</ele>
<time>2020-09-10T10:21:34Z</time>
</trkpt>
<trkpt lat="48.637024" lon="10.162153">
<ele>422.688</ele>
<time>2020-09-10T10:21:35Z</time>
</trkpt>
<trkpt lat="48.636971" lon="10.162147">
<ele>422.688</ele>
<time>2020-09-10T10:21:36Z</time>
</trkpt>
<trkpt lat="48.636917" lon="10.16214">
<ele>422.688</ele>
<time>2020-09-10T10:21:37Z</time>
</trkpt>
<trkpt lat="48.63686" lon="10.162131">
<ele>422.688</ele>
<time>2020-09-10T10:21:38Z</time>
</trkpt>
<trkpt lat="48.636803" lon="10.162126">
<ele>422.688</ele>
<time>2020-09-10T10:21:39Z</time>
</trkpt>
<trkpt lat="48.636749" lon="10.16212">
<ele>422.688</ele>
<time>2020-09-10T10:21:40Z</time>
</trkpt>
<trkpt lat="48.636696" lon="10.162115">
<ele>422.688</ele>
<time>2020-09-10T10:21:41Z</time>
</trkpt>
<trkpt lat="48.636639" lon="10.162108">
<ele>422.688</ele>
<time>2020-09-10T10:21:42Z</time>
</trkpt>
<trkpt lat="48.636585" lon="10.1621">
<ele>422.688</ele>
<time>2020-09-10T10:21:43Z</time>
</trkpt>
<trkpt lat="48.636532" lon="10.16209">
<ele>422.688</ele>
<time>2020-09-10T10:21:44Z</time>
</trkpt>
<trkpt lat="48.636478" lon="10.162084">
<ele>422.688</ele>
<time>2020-09-10T10:21:45Z</time>
</trkpt>
<trkpt lat="48.636429" lon="10.162077">
<ele>422.688</ele>
<time>2020-09-10T10:21:46Z</time>
</trkpt>
<trkpt lat="48.636372" lon="10.16207">
<ele>422.688</ele>
<time>2020-09-10T10:21:47Z</time>
</trkpt>
<trkpt lat="48.636318" lon="10.162065">
<ele>422.688</ele>
<time>2020-09-10T10:21:48Z</time>
</trkpt>
<trkpt lat="48.636269" lon="10.162057">
<ele>422.688</ele>
<time>2020-09-10T10:21:49Z</time>
</trkpt>
<trkpt lat="48.636211" lon="10.162048">
<ele>422.688</ele>
<time>2020-09-10T10:21:50Z</time>
</trkpt>
<trkpt lat="48.636158" lon="10.162042">
<ele>422.688</ele>
<time>2020-09-10T10:21:51Z</time>
</trkpt>
<trkpt lat="48.636101" lon="10.162033">
<ele>422.688</ele>
<time>2020-09-10T10:21:52Z</time>
</trkpt>
<trkpt lat="48.636047" lon="10.162024">
<ele>422.454</ele>
<time>2020-09-10T10:21:53Z</time>
</trkpt>
<trkpt lat="48.63599" lon="10.162017">
<ele>422.289</ele>
<time>2020-09-10T10:21:54Z</time>
</trkpt>
<trkpt lat="48.635937" lon="10.162012">
<ele>422.119</ele>
<time>2020-09-10T10:21:55Z</time>
</trkpt>
<trkpt lat="48.63588" lon="10.162006">
<ele>421.984</ele>
<time>2020-09-10T10:21:56Z</time>
</trkpt>
<trkpt lat="48.635818" lon="10.161998">
<ele>421.881</ele>
<time>2020-09-10T10:21:57Z</time>
</trkpt>
<trkpt lat="48.635765" lon="10.161991">
<ele>421.807</ele>
<time>2020-09-10T10:21:58Z</time>
</trkpt>
<trkpt lat="48.635708" lon="10.161983">
<ele>421.759</ele>
<time>2020-09-10T10:21:59Z</time>
</trkpt>
<trkpt lat="48.635654" lon="10.161977">
<ele>421.737</ele>
<time>2020-09-10T10:22:00Z</time>
</trkpt>
<trkpt lat="48.635593" lon="10.161968">
<ele>421.737</ele>
<time>2020-09-10T10:22:01Z</time>
</trkpt>
<trkpt lat="48.635536" lon="10.161962">
<ele>421.737</ele>
<time>2020-09-10T10:22:02Z</time>
</trkpt>
<trkpt lat="48.635483" lon="10.161952">
<ele>421.737</ele>
<time>2020-09-10T10:22:03Z</time>
</trkpt>
<trkpt lat="48.635429" lon="10.16194">
<ele>421.737</ele>
<time>2020-09-10T10:22:04Z</time>
</trkpt>
<trkpt lat="48.635372" lon="10.161928">
<ele>421.737</ele>
<time>2020-09-10T10:22:05Z</time>
</trkpt>
<trkpt lat="48.635319" lon="10.16192">
<ele>421.737</ele>
<time>2020-09-10T10:22:06Z</time>
</trkpt>
<trkpt lat="48.635262" lon="10.16191">
<ele>421.737</ele>
<time>2020-09-10T10:22:07Z</time>
</trkpt>
<trkpt lat="48.635204" lon="10.1619">
<ele>421.737</ele>
<time>2020-09-10T10:22:08Z</time>
</trkpt>
<trkpt lat="48.635151" lon="10.16189">
<ele>421.737</ele>
<time>2020-09-10T10:22:09Z</time>
</trkpt>
<trkpt lat="48.635101" lon="10.16188">
<ele>421.737</ele>
<time>2020-09-10T10:22:10Z</time>
</trkpt>
<trkpt lat="48.635048" lon="10.161872">
<ele>421.737</ele>
<time>2020-09-10T10:22:11Z</time>
</trkpt>
<trkpt lat="48.635002" lon="10.161863">
<ele>421.737</ele>
<time>2020-09-10T10:22:12Z</time>
</trkpt>
<trkpt lat="48.634956" lon="10.161853">
<ele>421.737</ele>
<time>2020-09-10T10:22:13Z</time>
</trkpt>
<trkpt lat="48.634907" lon="10.161839">
<ele>421.737</ele>
<time>2020-09-10T10:22:14Z</time>
</trkpt>
<trkpt lat="48.634865" lon="10.161825">
<ele>421.737</ele>
<time>2020-09-10T10:22:15Z</time>
</trkpt>
<trkpt lat="48.634808" lon="10.161814">
<ele>421.737</ele>
<time>2020-09-10T10:22:16Z</time>
</trkpt>
<trkpt lat="48.634754" lon="10.161797">
<ele>421.487</ele>
<time>2020-09-10T10:22:17Z</time>
</trkpt>
<trkpt lat="48.634701" lon="10.161783">
<ele>421.527</ele>
<time>2020-09-10T10:22:18Z</time>
</trkpt>
<trkpt lat="48.634644" lon="10.161772">
<ele>421.564</ele>
<time>2020-09-10T10:22:19Z</time>
</trkpt>
<trkpt lat="48.634594" lon="10.16176">
<ele>421.597</ele>
<time>2020-09-10T10:22:20Z</time>
</trkpt>
<trkpt lat="48.634541" lon="10.161748">
<ele>421.628</ele>
<time>2020-09-10T10:22:21Z</time>
</trkpt>
<trkpt lat="48.634483" lon="10.161736">
<ele>421.654</ele>
<time>2020-09-10T10:22:22Z</time>
</trkpt>
<trkpt lat="48.634426" lon="10.16172">
<ele>421.677</ele>
<time>2020-09-10T10:22:23Z</time>
</trkpt>
<trkpt lat="48.634377" lon="10.161702">
<ele>421.665</ele>
<time>2020-09-10T10:22:24Z</time>
</trkpt>
<trkpt lat="48.634319" lon="10.161683">
<ele>421.489</ele>
<time>2020-09-10T10:22:25Z</time>
</trkpt>
<trkpt lat="48.63427" lon="10.161665">
<ele>421.339</ele>
<time>2020-09-10T10:22:26Z</time>
</trkpt>
<trkpt lat="48.634216" lon="10.161648">
<ele>421.203</ele>
<time>2020-09-10T10:22:27Z</time>
</trkpt>
<trkpt lat="48.634163" lon="10.161629">
<ele>421.088</ele>
<time>2020-09-10T10:22:28Z</time>
</trkpt>
<trkpt lat="48.634113" lon="10.161606">
<ele>420.999</ele>
<time>2020-09-10T10:22:29Z</time>
</trkpt>
<trkpt lat="48.634064" lon="10.161583">
<ele>420.934</ele>
<time>2020-09-10T10:22:30Z</time>
</trkpt>
<trkpt lat="48.634014" lon="10.16156">
<ele>420.892</ele>
<time>2020-09-10T10:22:31Z</time>
</trkpt>
<trkpt lat="48.633968" lon="10.161533">
<ele>420.871</ele>
<time>2020-09-10T10:22:32Z</time>
</trkpt>
<trkpt lat="48.633926" lon="10.161505">
<ele>420.871</ele>
<time>2020-09-10T10:22:33Z</time>
</trkpt>
<trkpt lat="48.633884" lon="10.161475">
<ele>420.872</ele>
<time>2020-09-10T10:22:34Z</time>
</trkpt>
<trkpt lat="48.633846" lon="10.161442">
<ele>420.871</ele>
<time>2020-09-10T10:22:35Z</time>
</trkpt>
<trkpt lat="48.633812" lon="10.161402">
<ele>420.872</ele>
<time>2020-09-10T10:22:36Z</time>
</trkpt>
<trkpt lat="48.633781" lon="10.161361">
<ele>420.871</ele>
<time>2020-09-10T10:22:37Z</time>
</trkpt>
<trkpt lat="48.633747" lon="10.161321">
<ele>420.872</ele>
<time>2020-09-10T10:22:38Z</time>
</trkpt>
<trkpt lat="48.633717" lon="10.161293">
<ele>420.872</ele>
<time>2020-09-10T10:22:39Z</time>
</trkpt>
<trkpt lat="48.633686" lon="10.161288">
<ele>420.872</ele>
<time>2020-09-10T10:22:40Z</time>
</trkpt>
<trkpt lat="48.633663" lon="10.161304">
<ele>420.871</ele>
<time>2020-09-10T10:22:41Z</time>
</trkpt>
<trkpt lat="48.633644" lon="10.161338">
<ele>420.871</ele>
<time>2020-09-10T10:22:42Z</time>
</trkpt>
<trkpt lat="48.633617" lon="10.161368">
<ele>420.871</ele>
<time>2020-09-10T10:22:43Z</time>
</trkpt>
<trkpt lat="48.633583" lon="10.161397">
<ele>420.872</ele>
<time>2020-09-10T10:22:44Z</time>
</trkpt>
<trkpt lat="48.633537" lon="10.161418">
<ele>420.871</ele>
<time>2020-09-10T10:22:45Z</time>
</trkpt>
<trkpt lat="48.633495" lon="10.161433">
<ele>420.872</ele>
<time>2020-09-10T10:22:46Z</time>
</trkpt>
<trkpt lat="48.633442" lon="10.161445">
<ele>420.872</ele>
<time>2020-09-10T10:22:47Z</time>
</trkpt>
<trkpt lat="48.633392" lon="10.161453">
<ele>420.871</ele>
<time>2020-09-10T10:22:48Z</time>
</trkpt>
<trkpt lat="48.633343" lon="10.16146">
<ele>420.872</ele>
<time>2020-09-10T10:22:49Z</time>
</trkpt>
<trkpt lat="48.633289" lon="10.161468">
<ele>420.871</ele>
<time>2020-09-10T10:22:50Z</time>
</trkpt>
<trkpt lat="48.633236" lon="10.161473">
<ele>420.871</ele>
<time>2020-09-10T10:22:51Z</time>
</trkpt>
<trkpt lat="48.633179" lon="10.16148">
<ele>420.871</ele>
<time>2020-09-10T10:22:52Z</time>
</trkpt>
<trkpt lat="48.633129" lon="10.161487">
<ele>420.871</ele>
<time>2020-09-10T10:22:53Z</time>
</trkpt>
<trkpt lat="48.63308" lon="10.161495">
<ele>420.871</ele>
<time>2020-09-10T10:22:54Z</time>
</trkpt>
<trkpt lat="48.633022" lon="10.161503">
<ele>420.871</ele>
<time>2020-09-10T10:22:55Z</time>
</trkpt>
<trkpt lat="48.632969" lon="10.161513">
<ele>420.872</ele>
<time>2020-09-10T10:22:56Z</time>
</trkpt>
<trkpt lat="48.632912" lon="10.161518">
<ele>420.871</ele>
<time>2020-09-10T10:22:57Z</time>
</trkpt>
<trkpt lat="48.632858" lon="10.161524">
<ele>420.872</ele>
<time>2020-09-10T10:22:58Z</time>
</trkpt>
<trkpt lat="48.632805" lon="10.161529">
<ele>420.871</ele>
<time>2020-09-10T10:22:59Z</time>
</trkpt>
<trkpt lat="48.632748" lon="10.161535">
<ele>420.872</ele>
<time>2020-09-10T10:23:00Z</time>
</trkpt>
<trkpt lat="48.63269" lon="10.16154">
<ele>420.872</ele>
<time>2020-09-10T10:23:01Z</time>
</trkpt>
<trkpt lat="48.632637" lon="10.161551">
<ele>420.872</ele>
<time>2020-09-10T10:23:02Z</time>
</trkpt>
<trkpt lat="48.632587" lon="10.161567">
<ele>420.872</ele>
<time>2020-09-10T10:23:03Z</time>
</trkpt>
<trkpt lat="48.63253" lon="10.161585">
<ele>420.871</ele>
<time>2020-09-10T10:23:04Z</time>
</trkpt>
<trkpt lat="48.632473" lon="10.161602">
<ele>420.872</ele>
<time>2020-09-10T10:23:05Z</time>
</trkpt>
<trkpt lat="48.63242" lon="10.16162">
<ele>420.872</ele>
<time>2020-09-10T10:23:06Z</time>
</trkpt>
<trkpt lat="48.632366" lon="10.161635">
<ele>420.872</ele>
<time>2020-09-10T10:23:07Z</time>
</trkpt>
<trkpt lat="48.632313" lon="10.161648">
<ele>420.871</ele>
<time>2020-09-10T10:23:08Z</time>
</trkpt>
<trkpt lat="48.632263" lon="10.161663">
<ele>420.871</ele>
<time>2020-09-10T10:23:09Z</time>
</trkpt>
<trkpt lat="48.632206" lon="10.161675">
<ele>420.872</ele>
<time>2020-09-10T10:23:10Z</time>
</trkpt>
<trkpt lat="48.632156" lon="10.161687">
<ele>420.872</ele>
<time>2020-09-10T10:23:11Z</time>
</trkpt>
<trkpt lat="48.632103" lon="10.161698">
<ele>420.872</ele>
<time>2020-09-10T10:23:12Z</time>
</trkpt>
<trkpt lat="48.632046" lon="10.161712">
<ele>420.872</ele>
<time>2020-09-10T10:23:13Z</time>
</trkpt>
<trkpt lat="48.631992" lon="10.161725">
<ele>420.871</ele>
<time>2020-09-10T10:23:14Z</time>
</trkpt>
<trkpt lat="48.631939" lon="10.16174">
<ele>420.872</ele>
<time>2020-09-10T10:23:15Z</time>
</trkpt>
<trkpt lat="48.631889" lon="10.161758">
<ele>420.872</ele>
<time>2020-09-10T10:23:16Z</time>
</trkpt>
<trkpt lat="48.63184" lon="10.161778">
<ele>420.872</ele>
<time>2020-09-10T10:23:17Z</time>
</trkpt>
<trkpt lat="48.631786" lon="10.161797">
<ele>420.872</ele>
<time>2020-09-10T10:23:18Z</time>
</trkpt>
<trkpt lat="48.631741" lon="10.161815">
<ele>420.872</ele>
<time>2020-09-10T10:23:19Z</time>
</trkpt>
<trkpt lat="48.631691" lon="10.16183">
<ele>420.872</ele>
<time>2020-09-10T10:23:20Z</time>
</trkpt>
<trkpt lat="48.631645" lon="10.161845">
<ele>420.872</ele>
<time>2020-09-10T10:23:21Z</time>
</trkpt>
<trkpt lat="48.631592" lon="10.161859">
<ele>420.871</ele>
<time>2020-09-10T10:23:22Z</time>
</trkpt>
<trkpt lat="48.631546" lon="10.161872">
<ele>420.871</ele>
<time>2020-09-10T10:23:23Z</time>
</trkpt>
<trkpt lat="48.631493" lon="10.161882">
<ele>420.872</ele>
<time>2020-09-10T10:23:24Z</time>
</trkpt>
<trkpt lat="48.631443" lon="10.16189">
<ele>420.871</ele>
<time>2020-09-10T10:23:25Z</time>
</trkpt>
<trkpt lat="48.631393" lon="10.1619">
<ele>420.872</ele>
<time>2020-09-10T10:23:26Z</time>
</trkpt>
<trkpt lat="48.631348" lon="10.161907">
<ele>420.872</ele>
<time>2020-09-10T10:23:27Z</time>
</trkpt>
<trkpt lat="48.631294" lon="10.16191">
<ele>420.606</ele>
<time>2020-09-10T10:23:28Z</time>
</trkpt>
<trkpt lat="48.631252" lon="10.16191">
<ele>420.402</ele>
<time>2020-09-10T10:23:29Z</time>
</trkpt>
<trkpt lat="48.63121" lon="10.161908">
<ele>420.246</ele>
<time>2020-09-10T10:23:30Z</time>
</trkpt>
<trkpt lat="48.631168" lon="10.161908">
<ele>420.131</ele>
<time>2020-09-10T10:23:31Z</time>
</trkpt>
<trkpt lat="48.631126" lon="10.161905">
<ele>420.049</ele>
<time>2020-09-10T10:23:32Z</time>
</trkpt>
<trkpt lat="48.631088" lon="10.1619">
<ele>419.992</ele>
<time>2020-09-10T10:23:33Z</time>
</trkpt>
<trkpt lat="48.63105" lon="10.16189">
<ele>419.949</ele>
<time>2020-09-10T10:23:34Z</time>
</trkpt>
<trkpt lat="48.631012" lon="10.16188">
<ele>419.921</ele>
<time>2020-09-10T10:23:35Z</time>
</trkpt>
<trkpt lat="48.630978" lon="10.16187">
<ele>419.921</ele>
<time>2020-09-10T10:23:36Z</time>
</trkpt>
<trkpt lat="48.630947" lon="10.161859">
<ele>419.92</ele>
<time>2020-09-10T10:23:37Z</time>
</trkpt>
<trkpt lat="48.630913" lon="10.161849">
<ele>419.92</ele>
<time>2020-09-10T10:23:38Z</time>
</trkpt>
<trkpt lat="48.630882" lon="10.16184">
<ele>419.921</ele>
<time>2020-09-10T10:23:39Z</time>
</trkpt>
<trkpt lat="48.630852" lon="10.16183">
<ele>419.921</ele>
<time>2020-09-10T10:23:40Z</time>
</trkpt>
<trkpt lat="48.630817" lon="10.161821">
<ele>419.921</ele>
<time>2020-09-10T10:23:41Z</time>
</trkpt>
<trkpt lat="48.630779" lon="10.161819">
<ele>420.155</ele>
<time>2020-09-10T10:23:42Z</time>
</trkpt>
<trkpt lat="48.630733" lon="10.161825">
<ele>420.349</ele>
<time>2020-09-10T10:23:43Z</time>
</trkpt>
<trkpt lat="48.630695" lon="10.161832">
<ele>420.481</ele>
<time>2020-09-10T10:23:44Z</time>
</trkpt>
<trkpt lat="48.63065" lon="10.16184">
<ele>420.628</ele>
<time>2020-09-10T10:23:45Z</time>
</trkpt>
<trkpt lat="48.630592" lon="10.161849">
<ele>420.736</ele>
<time>2020-09-10T10:23:46Z</time>
</trkpt>
<trkpt lat="48.630535" lon="10.161857">
<ele>420.812</ele>
<time>2020-09-10T10:23:47Z</time>
</trkpt>
<trkpt lat="48.63047" lon="10.161863">
<ele>420.853</ele>
<time>2020-09-10T10:23:48Z</time>
</trkpt>
<trkpt lat="48.630405" lon="10.161868">
<ele>420.872</ele>
<time>2020-09-10T10:23:49Z</time>
</trkpt>
<trkpt lat="48.630341" lon="10.161875">
<ele>420.872</ele>
<time>2020-09-10T10:23:50Z</time>
</trkpt>
<trkpt lat="48.630283" lon="10.161883">
<ele>420.872</ele>
<time>2020-09-10T10:23:51Z</time>
</trkpt>
<trkpt lat="48.630226" lon="10.161886">
<ele>420.872</ele>
<time>2020-09-10T10:23:52Z</time>
</trkpt>
<trkpt lat="48.630169" lon="10.161888">
<ele>420.872</ele>
<time>2020-09-10T10:23:53Z</time>
</trkpt>
<trkpt lat="48.630116" lon="10.161893">
<ele>420.872</ele>
<time>2020-09-10T10:23:54Z</time>
</trkpt>
<trkpt lat="48.630062" lon="10.161897">
<ele>420.872</ele>
<time>2020-09-10T10:23:55Z</time>
</trkpt>
<trkpt lat="48.630016" lon="10.161901">
<ele>420.871</ele>
<time>2020-09-10T10:23:56Z</time>
</trkpt>
<trkpt lat="48.629963" lon="10.161907">
<ele>420.872</ele>
<time>2020-09-10T10:23:57Z</time>
</trkpt>
<trkpt lat="48.629917" lon="10.161908">
<ele>420.872</ele>
<time>2020-09-10T10:23:58Z</time>
</trkpt>
<trkpt lat="48.629868" lon="10.161908">
<ele>420.872</ele>
<time>2020-09-10T10:23:59Z</time>
</trkpt>
<trkpt lat="48.629822" lon="10.161908">
<ele>420.871</ele>
<time>2020-09-10T10:24:00Z</time>
</trkpt>
<trkpt lat="48.629772" lon="10.161903">
<ele>420.634</ele>
<time>2020-09-10T10:24:01Z</time>
</trkpt>
<trkpt lat="48.629726" lon="10.161893">
<ele>420.443</ele>
<time>2020-09-10T10:24:02Z</time>
</trkpt>
<trkpt lat="48.629684" lon="10.161877">
<ele>420.294</ele>
<time>2020-09-10T10:24:03Z</time>
</trkpt>
<trkpt lat="48.629639" lon="10.161859">
<ele>420.19</ele>
<time>2020-09-10T10:24:04Z</time>
</trkpt>
<trkpt lat="48.629601" lon="10.161839">
<ele>420.079</ele>
<time>2020-09-10T10:24:05Z</time>
</trkpt>
<trkpt lat="48.629559" lon="10.161819">
<ele>419.997</ele>
<time>2020-09-10T10:24:06Z</time>
</trkpt>
<trkpt lat="48.62952" lon="10.161809">
<ele>419.945</ele>
<time>2020-09-10T10:24:07Z</time>
</trkpt>
<trkpt lat="48.629475" lon="10.161817">
<ele>419.921</ele>
<time>2020-09-10T10:24:08Z</time>
</trkpt>
<trkpt lat="48.629436" lon="10.161837">
<ele>419.921</ele>
<time>2020-09-10T10:24:09Z</time>
</trkpt>
<trkpt lat="48.629398" lon="10.161875">
<ele>419.921</ele>
<time>2020-09-10T10:24:10Z</time>
</trkpt>
<trkpt lat="48.62936" lon="10.161924">
<ele>419.92</ele>
<time>2020-09-10T10:24:11Z</time>
</trkpt>
<trkpt lat="48.629307" lon="10.161963">
<ele>419.921</ele>
<time>2020-09-10T10:24:12Z</time>
</trkpt>
<trkpt lat="48.62925" lon="10.161985">
<ele>419.921</ele>
<time>2020-09-10T10:24:13Z</time>
</trkpt>
<trkpt lat="48.629192" lon="10.161991">
<ele>419.921</ele>
<time>2020-09-10T10:24:14Z</time>
</trkpt>
<trkpt lat="48.629128" lon="10.161997">
<ele>419.92</ele>
<time>2020-09-10T10:24:15Z</time>
</trkpt>
<trkpt lat="48.629066" lon="10.161997">
<ele>419.92</ele>
<time>2020-09-10T10:24:16Z</time>
</trkpt>
<trkpt lat="48.629005" lon="10.161998">
<ele>419.921</ele>
<time>2020-09-10T10:24:17Z</time>
</trkpt>
<trkpt lat="48.628941" lon="10.162005">
<ele>419.92</ele>
<time>2020-09-10T10:24:18Z</time>
</trkpt>
<trkpt lat="48.62888" lon="10.162006">
<ele>419.92</ele>
<time>2020-09-10T10:24:19Z</time>
</trkpt>
<trkpt lat="48.628822" lon="10.16201">
<ele>419.921</ele>
<time>2020-09-10T10:24:20Z</time>
</trkpt>
<trkpt lat="48.628765" lon="10.162013">
<ele>419.921</ele>
<time>2020-09-10T10:24:21Z</time>
</trkpt>
<trkpt lat="48.628708" lon="10.162015">
<ele>419.92</ele>
<time>2020-09-10T10:24:22Z</time>
</trkpt>
<trkpt lat="48.628651" lon="10.162021">
<ele>419.92</ele>
<time>2020-09-10T10:24:23Z</time>
</trkpt>
<trkpt lat="48.628597" lon="10.162026">
<ele>419.92</ele>
<time>2020-09-10T10:24:24Z</time>
</trkpt>
<trkpt lat="48.628544" lon="10.162031">
<ele>419.921</ele>
<time>2020-09-10T10:24:25Z</time>
</trkpt>
<trkpt lat="48.628487" lon="10.162037">
<ele>419.921</ele>
<time>2020-09-10T10:24:26Z</time>
</trkpt>
<trkpt lat="48.628433" lon="10.16204">
<ele>419.92</ele>
<time>2020-09-10T10:24:27Z</time>
</trkpt>
<trkpt lat="48.62838" lon="10.162042">
<ele>419.921</ele>
<time>2020-09-10T10:24:28Z</time>
</trkpt>
<trkpt lat="48.628323" lon="10.162045">
<ele>419.92</ele>
<time>2020-09-10T10:24:29Z</time>
</trkpt>
<trkpt lat="48.628269" lon="10.16205">
<ele>419.92</ele>
<time>2020-09-10T10:24:30Z</time>
</trkpt>
<trkpt lat="48.628212" lon="10.162057">
<ele>419.921</ele>
<time>2020-09-10T10:24:31Z</time>
</trkpt>
<trkpt lat="48.628159" lon="10.162063">
<ele>419.921</ele>
<time>2020-09-10T10:24:32Z</time>
</trkpt>
<trkpt lat="48.628101" lon="10.162068">
<ele>419.921</ele>
<time>2020-09-10T10:24:33Z</time>
</trkpt>
<trkpt lat="48.628052" lon="10.162073">
<ele>419.921</ele>
<time>2020-09-10T10:24:34Z</time>
</trkpt>
<trkpt lat="48.627995" lon="10.162079">
<ele>419.921</ele>
<time>2020-09-10T10:24:35Z</time>
</trkpt>
<trkpt lat="48.627941" lon="10.162084">
<ele>419.92</ele>
<time>2020-09-10T10:24:36Z</time>
</trkpt>
<trkpt lat="48.627888" lon="10.162088">
<ele>419.921</ele>
<time>2020-09-10T10:24:37Z</time>
</trkpt>
<trkpt lat="48.627834" lon="10.162092">
<ele>419.921</ele>
<time>2020-09-10T10:24:38Z</time>
</trkpt>
<trkpt lat="48.627781" lon="10.162096">
<ele>419.92</ele>
<time>2020-09-10T10:24:39Z</time>
</trkpt>
<trkpt lat="48.627728" lon="10.162098">
<ele>419.67</ele>
<time>2020-09-10T10:24:40Z</time>
</trkpt>
<trkpt lat="48.62767" lon="10.1621">
<ele>419.472</ele>
<time>2020-09-10T10:24:41Z</time>
</trkpt>
<trkpt lat="48.627617" lon="10.1621">
<ele>419.322</ele>
<time>2020-09-10T10:24:42Z</time>
</trkpt>
<trkpt lat="48.62756" lon="10.1621">
<ele>419.206</ele>
<time>2020-09-10T10:24:43Z</time>
</trkpt>
<trkpt lat="48.627506" lon="10.162103">
<ele>419.128</ele>
<time>2020-09-10T10:24:44Z</time>
</trkpt>
<trkpt lat="48.627445" lon="10.162108">
<ele>419.045</ele>
<time>2020-09-10T10:24:45Z</time>
</trkpt>
<trkpt lat="48.627388" lon="10.162113">
<ele>418.994</ele>
<time>2020-09-10T10:24:46Z</time>
</trkpt>
<trkpt lat="48.627331" lon="10.162117">
<ele>418.97</ele>
<time>2020-09-10T10:24:47Z</time>
</trkpt>
<trkpt lat="48.627274" lon="10.162119">
<ele>418.97</ele>
<time>2020-09-10T10:24:48Z</time>
</trkpt>
<trkpt lat="48.627213" lon="10.162126">
<ele>418.97</ele>
<time>2020-09-10T10:24:49Z</time>
</trkpt>
<trkpt lat="48.627159" lon="10.162129">
<ele>418.97</ele>
<time>2020-09-10T10:24:50Z</time>
</trkpt>
<trkpt lat="48.627102" lon="10.162135">
<ele>418.97</ele>
<time>2020-09-10T10:24:51Z</time>
</trkpt>
<trkpt lat="48.627045" lon="10.162138">
<ele>418.97</ele>
<time>2020-09-10T10:24:52Z</time>
</trkpt>
<trkpt lat="48.626991" lon="10.162142">
<ele>418.97</ele>
<time>2020-09-10T10:24:53Z</time>
</trkpt>
<trkpt lat="48.626942" lon="10.162147">
<ele>418.97</ele>
<time>2020-09-10T10:24:54Z</time>
</trkpt>
<trkpt lat="48.626892" lon="10.16215">
<ele>418.97</ele>
<time>2020-09-10T10:24:55Z</time>
</trkpt>
<trkpt lat="48.626842" lon="10.162153">
<ele>418.97</ele>
<time>2020-09-10T10:24:56Z</time>
</trkpt>
<trkpt lat="48.626789" lon="10.162162">
<ele>418.97</ele>
<time>2020-09-10T10:24:57Z</time>
</trkpt>
<trkpt lat="48.62674" lon="10.162169">
<ele>418.97</ele>
<time>2020-09-10T10:24:58Z</time>
</trkpt>
<trkpt lat="48.62669" lon="10.162175">
<ele>418.97</ele>
<time>2020-09-10T10:24:59Z</time>
</trkpt>
<trkpt lat="48.626633" lon="10.162176">
<ele>418.97</ele>
<time>2020-09-10T10:25:00Z</time>
</trkpt>
<trkpt lat="48.626579" lon="10.162178">
<ele>418.97</ele>
<time>2020-09-10T10:25:01Z</time>
</trkpt>
<trkpt lat="48.626526" lon="10.162182">
<ele>418.97</ele>
<time>2020-09-10T10:25:02Z</time>
</trkpt>
<trkpt lat="48.626476" lon="10.162187">
<ele>418.97</ele>
<time>2020-09-10T10:25:03Z</time>
</trkpt>
<trkpt lat="48.626423" lon="10.162192">
<ele>418.97</ele>
<time>2020-09-10T10:25:04Z</time>
</trkpt>
<trkpt lat="48.626369" lon="10.162197">
<ele>418.97</ele>
<time>2020-09-10T10:25:05Z</time>
</trkpt>
<trkpt lat="48.626324" lon="10.1622">
<ele>418.97</ele>
<time>2020-09-10T10:25:06Z</time>
</trkpt>
<trkpt lat="48.62627" lon="10.162203">
<ele>418.97</ele>
<time>2020-09-10T10:25:07Z</time>
</trkpt>
<trkpt lat="48.626225" lon="10.162205">
<ele>418.97</ele>
<time>2020-09-10T10:25:08Z</time>
</trkpt>
<trkpt lat="48.626179" lon="10.162209">
<ele>418.97</ele>
<time>2020-09-10T10:25:09Z</time>
</trkpt>
<trkpt lat="48.626137" lon="10.16221">
<ele>418.97</ele>
<time>2020-09-10T10:25:10Z</time>
</trkpt>
<trkpt lat="48.626091" lon="10.162213">
<ele>418.97</ele>
<time>2020-09-10T10:25:11Z</time>
</trkpt>
<trkpt lat="48.626049" lon="10.162215">
<ele>418.97</ele>
<time>2020-09-10T10:25:12Z</time>
</trkpt>
<trkpt lat="48.626007" lon="10.162218">
<ele>418.97</ele>
<time>2020-09-10T10:25:13Z</time>
</trkpt>
<trkpt lat="48.625969" lon="10.162224">
<ele>418.97</ele>
<time>2020-09-10T10:25:14Z</time>
</trkpt>
<trkpt lat="48.625927" lon="10.162229">
<ele>418.97</ele>
<time>2020-09-10T10:25:15Z</time>
</trkpt>
<trkpt lat="48.625885" lon="10.162229">
<ele>418.97</ele>
<time>2020-09-10T10:25:16Z</time>
</trkpt>
<trkpt lat="48.625847" lon="10.162222">
<ele>418.97</ele>
<time>2020-09-10T10:25:17Z</time>
</trkpt>
<trkpt lat="48.625809" lon="10.162207">
<ele>418.97</ele>
<time>2020-09-10T10:25:18Z</time>
</trkpt>
<trkpt lat="48.625774" lon="10.162187">
<ele>418.97</ele>
<time>2020-09-10T10:25:19Z</time>
</trkpt>
<trkpt lat="48.62574" lon="10.162175">
<ele>418.97</ele>
<time>2020-09-10T10:25:20Z</time>
</trkpt>
<trkpt lat="48.625706" lon="10.162176">
<ele>418.97</ele>
<time>2020-09-10T10:25:21Z</time>
</trkpt>
<trkpt lat="48.625679" lon="10.162197">
<ele>418.97</ele>
<time>2020-09-10T10:25:22Z</time>
</trkpt>
<trkpt lat="48.625671" lon="10.162238">
<ele>418.97</ele>
<time>2020-09-10T10:25:23Z</time>
</trkpt>
<trkpt lat="48.625671" lon="10.162293">
<ele>418.97</ele>
<time>2020-09-10T10:25:24Z</time>
</trkpt>
<trkpt lat="48.625683" lon="10.162355">
<ele>418.97</ele>
<time>2020-09-10T10:25:25Z</time>
</trkpt>
<trkpt lat="48.625706" lon="10.162416">
<ele>418.97</ele>
<time>2020-09-10T10:25:26Z</time>
</trkpt>
<trkpt lat="48.625721" lon="10.162479">
<ele>418.97</ele>
<time>2020-09-10T10:25:27Z</time>
</trkpt>
<trkpt lat="48.625736" lon="10.162551">
<ele>418.97</ele>
<time>2020-09-10T10:25:28Z</time>
</trkpt>
<trkpt lat="48.625744" lon="10.162633">
<ele>418.97</ele>
<time>2020-09-10T10:25:29Z</time>
</trkpt>
<trkpt lat="48.625744" lon="10.16272">
<ele>418.97</ele>
<time>2020-09-10T10:25:30Z</time>
</trkpt>
<trkpt lat="48.625744" lon="10.162808">
<ele>418.97</ele>
<time>2020-09-10T10:25:31Z</time>
</trkpt>
<trkpt lat="48.625748" lon="10.162898">
<ele>418.97</ele>
<time>2020-09-10T10:25:32Z</time>
</trkpt>
<trkpt lat="48.625751" lon="10.162991">
<ele>418.97</ele>
<time>2020-09-10T10:25:33Z</time>
</trkpt>
<trkpt lat="48.625755" lon="10.163076">
<ele>418.97</ele>
<time>2020-09-10T10:25:34Z</time>
</trkpt>
<trkpt lat="48.625755" lon="10.163163">
<ele>418.97</ele>
<time>2020-09-10T10:25:35Z</time>
</trkpt>
<trkpt lat="48.625759" lon="10.163248">
<ele>418.97</ele>
<time>2020-09-10T10:25:36Z</time>
</trkpt>
<trkpt lat="48.625763" lon="10.16333">
<ele>418.97</ele>
<time>2020-09-10T10:25:37Z</time>
</trkpt>
<trkpt lat="48.625767" lon="10.16341">
<ele>418.97</ele>
<time>2020-09-10T10:25:38Z</time>
</trkpt>
<trkpt lat="48.625763" lon="10.163489">
<ele>418.97</ele>
<time>2020-09-10T10:25:39Z</time>
</trkpt>
<trkpt lat="48.625763" lon="10.16357">
<ele>418.97</ele>
<time>2020-09-10T10:25:40Z</time>
</trkpt>
<trkpt lat="48.625767" lon="10.163653">
<ele>418.97</ele>
<time>2020-09-10T10:25:41Z</time>
</trkpt>
<trkpt lat="48.625767" lon="10.163734">
<ele>418.97</ele>
<time>2020-09-10T10:25:42Z</time>
</trkpt>
<trkpt lat="48.625767" lon="10.163816">
<ele>418.97</ele>
<time>2020-09-10T10:25:43Z</time>
</trkpt>
<trkpt lat="48.625771" lon="10.163894">
<ele>418.97</ele>
<time>2020-09-10T10:25:44Z</time>
</trkpt>
<trkpt lat="48.625774" lon="10.16397">
<ele>418.97</ele>
<time>2020-09-10T10:25:45Z</time>
</trkpt>
<trkpt lat="48.625778" lon="10.164042">
<ele>418.97</ele>
<time>2020-09-10T10:25:46Z</time>
</trkpt>
<trkpt lat="48.625778" lon="10.164115">
<ele>418.97</ele>
<time>2020-09-10T10:25:47Z</time>
</trkpt>
<trkpt lat="48.625782" lon="10.164188">
<ele>418.97</ele>
<time>2020-09-10T10:25:48Z</time>
</trkpt>
<trkpt lat="48.625782" lon="10.16426">
<ele>418.97</ele>
<time>2020-09-10T10:25:49Z</time>
</trkpt>
<trkpt lat="48.625778" lon="10.16433">
<ele>418.97</ele>
<time>2020-09-10T10:25:50Z</time>
</trkpt>
<trkpt lat="48.625782" lon="10.164401">
<ele>418.97</ele>
<time>2020-09-10T10:25:51Z</time>
</trkpt>
<trkpt lat="48.625786" lon="10.164472">
<ele>418.97</ele>
<time>2020-09-10T10:25:52Z</time>
</trkpt>
<trkpt lat="48.62579" lon="10.164545">
<ele>418.97</ele>
<time>2020-09-10T10:25:53Z</time>
</trkpt>
<trkpt lat="48.625793" lon="10.164617">
<ele>418.97</ele>
<time>2020-09-10T10:25:54Z</time>
</trkpt>
<trkpt lat="48.625793" lon="10.164688">
<ele>418.97</ele>
<time>2020-09-10T10:25:55Z</time>
</trkpt>
<trkpt lat="48.625797" lon="10.164755">
<ele>418.97</ele>
<time>2020-09-10T10:25:56Z</time>
</trkpt>
<trkpt lat="48.625793" lon="10.16482">
<ele>418.97</ele>
<time>2020-09-10T10:25:57Z</time>
</trkpt>
<trkpt lat="48.625793" lon="10.164882">
<ele>418.97</ele>
<time>2020-09-10T10:25:58Z</time>
</trkpt>
<trkpt lat="48.62579" lon="10.164942">
<ele>418.97</ele>
<time>2020-09-10T10:25:59Z</time>
</trkpt>
<trkpt lat="48.62579" lon="10.164996">
<ele>418.97</ele>
<time>2020-09-10T10:26:00Z</time>
</trkpt>
<trkpt lat="48.625793" lon="10.165056">
<ele>418.97</ele>
<time>2020-09-10T10:26:01Z</time>
</trkpt>
<trkpt lat="48.625797" lon="10.165115">
<ele>418.97</ele>
<time>2020-09-10T10:26:02Z</time>
</trkpt>
<trkpt lat="48.625801" lon="10.165175">
<ele>418.97</ele>
<time>2020-09-10T10:26:03Z</time>
</trkpt>
<trkpt lat="48.625809" lon="10.165236">
<ele>418.97</ele>
<time>2020-09-10T10:26:04Z</time>
</trkpt>
<trkpt lat="48.625816" lon="10.165298">
<ele>418.97</ele>
<time>2020-09-10T10:26:05Z</time>
</trkpt>
<trkpt lat="48.625835" lon="10.165354">
<ele>418.97</ele>
<time>2020-09-10T10:26:06Z</time>
</trkpt>
<trkpt lat="48.625843" lon="10.165412">
<ele>418.97</ele>
<time>2020-09-10T10:26:07Z</time>
</trkpt>
<trkpt lat="48.625851" lon="10.165471">
<ele>418.97</ele>
<time>2020-09-10T10:26:08Z</time>
</trkpt>
<trkpt lat="48.625851" lon="10.16553">
<ele>418.97</ele>
<time>2020-09-10T10:26:09Z</time>
</trkpt>
<trkpt lat="48.625851" lon="10.165588">
<ele>418.97</ele>
<time>2020-09-10T10:26:10Z</time>
</trkpt>
<trkpt lat="48.625851" lon="10.165645">
<ele>418.97</ele>
<time>2020-09-10T10:26:11Z</time>
</trkpt>
<trkpt lat="48.625854" lon="10.165706">
<ele>418.97</ele>
<time>2020-09-10T10:26:12Z</time>
</trkpt>
<trkpt lat="48.625854" lon="10.165765">
<ele>418.97</ele>
<time>2020-09-10T10:26:13Z</time>
</trkpt>
<trkpt lat="48.625854" lon="10.165825">
<ele>418.97</ele>
<time>2020-09-10T10:26:14Z</time>
</trkpt>
<trkpt lat="48.625854" lon="10.165887">
<ele>418.97</ele>
<time>2020-09-10T10:26:15Z</time>
</trkpt>
<trkpt lat="48.625858" lon="10.165947">
<ele>418.97</ele>
<time>2020-09-10T10:26:16Z</time>
</trkpt>
<trkpt lat="48.625858" lon="10.166008">
<ele>418.97</ele>
<time>2020-09-10T10:26:17Z</time>
</trkpt>
<trkpt lat="48.625854" lon="10.166068">
<ele>418.97</ele>
<time>2020-09-10T10:26:18Z</time>
</trkpt>
<trkpt lat="48.625851" lon="10.166129">
<ele>418.97</ele>
<time>2020-09-10T10:26:19Z</time>
</trkpt>
<trkpt lat="48.625847" lon="10.166186">
<ele>418.743</ele>
<time>2020-09-10T10:26:20Z</time>
</trkpt>
<trkpt lat="48.625847" lon="10.166245">
<ele>418.565</ele>
<time>2020-09-10T10:26:21Z</time>
</trkpt>
<trkpt lat="48.625851" lon="10.166302">
<ele>418.426</ele>
<time>2020-09-10T10:26:22Z</time>
</trkpt>
<trkpt lat="48.625854" lon="10.166362">
<ele>418.324</ele>
<time>2020-09-10T10:26:23Z</time>
</trkpt>
<trkpt lat="48.625862" lon="10.166425">
<ele>418.251</ele>
<time>2020-09-10T10:26:24Z</time>
</trkpt>
<trkpt lat="48.625862" lon="10.166483">
<ele>418.176</ele>
<time>2020-09-10T10:26:25Z</time>
</trkpt>
<trkpt lat="48.625858" lon="10.16655">
<ele>418.128</ele>
<time>2020-09-10T10:26:26Z</time>
</trkpt>
<trkpt lat="48.625854" lon="10.166614">
<ele>418.105</ele>
<time>2020-09-10T10:26:27Z</time>
</trkpt>
<trkpt lat="48.625854" lon="10.166672">
<ele>418.105</ele>
<time>2020-09-10T10:26:28Z</time>
</trkpt>
<trkpt lat="48.625854" lon="10.166728">
<ele>418.365</ele>
<time>2020-09-10T10:26:29Z</time>
</trkpt>
<trkpt lat="48.625854" lon="10.166787">
<ele>418.564</ele>
<time>2020-09-10T10:26:30Z</time>
</trkpt>
<trkpt lat="48.625854" lon="10.166842">
<ele>418.713</ele>
<time>2020-09-10T10:26:31Z</time>
</trkpt>
<trkpt lat="48.625858" lon="10.166897">
<ele>418.826</ele>
<time>2020-09-10T10:26:32Z</time>
</trkpt>
<trkpt lat="48.625854" lon="10.166952">
<ele>418.893</ele>
<time>2020-09-10T10:26:33Z</time>
</trkpt>
<trkpt lat="48.625851" lon="10.167003">
<ele>419.194</ele>
<time>2020-09-10T10:26:34Z</time>
</trkpt>
<trkpt lat="48.625843" lon="10.167048">
<ele>419.465</ele>
<time>2020-09-10T10:26:35Z</time>
</trkpt>
<trkpt lat="48.625843" lon="10.167089">
<ele>419.671</ele>
<time>2020-09-10T10:26:36Z</time>
</trkpt>
<trkpt lat="48.625835" lon="10.167122">
<ele>419.813</ele>
<time>2020-09-10T10:26:37Z</time>
</trkpt>
<trkpt lat="48.625835" lon="10.167164">
<ele>419.924</ele>
<time>2020-09-10T10:26:38Z</time>
</trkpt>
<trkpt lat="48.625832" lon="10.167214">
<ele>420.01</ele>
<time>2020-09-10T10:26:39Z</time>
</trkpt>
<trkpt lat="48.625828" lon="10.167267">
<ele>420.066</ele>
<time>2020-09-10T10:26:40Z</time>
</trkpt>
<trkpt lat="48.625824" lon="10.167309">
<ele>420.094</ele>
<time>2020-09-10T10:26:41Z</time>
</trkpt>
<trkpt lat="48.62582" lon="10.167336">
<ele>420.094</ele>
<time>2020-09-10T10:26:42Z</time>
</trkpt>
<trkpt lat="48.625816" lon="10.16736">
<ele>420.094</ele>
<time>2020-09-10T10:26:43Z</time>
</trkpt>
<trkpt lat="48.625805" lon="10.167384">
<ele>420.294</ele>
<time>2020-09-10T10:26:44Z</time>
</trkpt>
<trkpt lat="48.625782" lon="10.167397">
<ele>420.48</ele>
<time>2020-09-10T10:26:45Z</time>
</trkpt>
<trkpt lat="48.625751" lon="10.167414">
<ele>420.634</ele>
<time>2020-09-10T10:26:46Z</time>
</trkpt>
<trkpt lat="48.625717" lon="10.167445">
<ele>420.739</ele>
<time>2020-09-10T10:26:47Z</time>
</trkpt>
<trkpt lat="48.62569" lon="10.16748">
<ele>420.912</ele>
<time>2020-09-10T10:26:48Z</time>
</trkpt>
<trkpt lat="48.625656" lon="10.167514">
<ele>421.055</ele>
<time>2020-09-10T10:26:49Z</time>
</trkpt>
<trkpt lat="48.625614" lon="10.16755">
<ele>421.147</ele>
<time>2020-09-10T10:26:50Z</time>
</trkpt>
<trkpt lat="48.625576" lon="10.167596">
<ele>421.187</ele>
<time>2020-09-10T10:26:51Z</time>
</trkpt>
<trkpt lat="48.62553" lon="10.167645">
<ele>421.201</ele>
<time>2020-09-10T10:26:52Z</time>
</trkpt>
<trkpt lat="48.625488" lon="10.167692">
<ele>421.209</ele>
<time>2020-09-10T10:26:53Z</time>
</trkpt>
<trkpt lat="48.625443" lon="10.167735">
<ele>421.214</ele>
<time>2020-09-10T10:26:54Z</time>
</trkpt>
<trkpt lat="48.625393" lon="10.167775">
<ele>421.218</ele>
<time>2020-09-10T10:26:55Z</time>
</trkpt>
<trkpt lat="48.625351" lon="10.167815">
<ele>421.218</ele>
<time>2020-09-10T10:26:56Z</time>
</trkpt>
<trkpt lat="48.625305" lon="10.167853">
<ele>421.218</ele>
<time>2020-09-10T10:26:57Z</time>
</trkpt>
<trkpt lat="48.625256" lon="10.167892">
<ele>421.218</ele>
<time>2020-09-10T10:26:58Z</time>
</trkpt>
<trkpt lat="48.62521" lon="10.167932">
<ele>421.218</ele>
<time>2020-09-10T10:26:59Z</time>
</trkpt>
<trkpt lat="48.625156" lon="10.167971">
<ele>421.218</ele>
<time>2020-09-10T10:27:00Z</time>
</trkpt>
<trkpt lat="48.625107" lon="10.168">
<ele>421.218</ele>
<time>2020-09-10T10:27:01Z</time>
</trkpt>
<trkpt lat="48.625061" lon="10.168036">
<ele>421.218</ele>
<time>2020-09-10T10:27:02Z</time>
</trkpt>
<trkpt lat="48.625019" lon="10.168081">
<ele>421.218</ele>
<time>2020-09-10T10:27:03Z</time>
</trkpt>
<trkpt lat="48.624973" lon="10.168132">
<ele>421.218</ele>
<time>2020-09-10T10:27:04Z</time>
</trkpt>
<trkpt lat="48.624928" lon="10.16818">
<ele>421.218</ele>
<time>2020-09-10T10:27:05Z</time>
</trkpt>
<trkpt lat="48.624878" lon="10.168226">
<ele>421.218</ele>
<time>2020-09-10T10:27:06Z</time>
</trkpt>
<trkpt lat="48.624828" lon="10.168273">
<ele>421.218</ele>
<time>2020-09-10T10:27:07Z</time>
</trkpt>
<trkpt lat="48.624779" lon="10.168326">
<ele>421.218</ele>
<time>2020-09-10T10:27:08Z</time>
</trkpt>
<trkpt lat="48.624733" lon="10.168382">
<ele>421.218</ele>
<time>2020-09-10T10:27:09Z</time>
</trkpt>
<trkpt lat="48.624683" lon="10.168438">
<ele>421.218</ele>
<time>2020-09-10T10:27:10Z</time>
</trkpt>
<trkpt lat="48.624638" lon="10.168498">
<ele>420.99</ele>
<time>2020-09-10T10:27:11Z</time>
</trkpt>
<trkpt lat="48.624588" lon="10.168557">
<ele>420.813</ele>
<time>2020-09-10T10:27:12Z</time>
</trkpt>
<trkpt lat="48.624538" lon="10.168618">
<ele>420.68</ele>
<time>2020-09-10T10:27:13Z</time>
</trkpt>
<trkpt lat="48.624496" lon="10.168685">
<ele>420.589</ele>
<time>2020-09-10T10:27:14Z</time>
</trkpt>
<trkpt lat="48.624462" lon="10.168758">
<ele>420.489</ele>
<time>2020-09-10T10:27:15Z</time>
</trkpt>
<trkpt lat="48.624424" lon="10.168835">
<ele>420.419</ele>
<time>2020-09-10T10:27:16Z</time>
</trkpt>
<trkpt lat="48.624382" lon="10.168908">
<ele>420.374</ele>
<time>2020-09-10T10:27:17Z</time>
</trkpt>
<trkpt lat="48.62434" lon="10.168986">
<ele>420.353</ele>
<time>2020-09-10T10:27:18Z</time>
</trkpt>
<trkpt lat="48.624302" lon="10.169066">
<ele>420.09</ele>
<time>2020-09-10T10:27:19Z</time>
</trkpt>
<trkpt lat="48.62426" lon="10.16915">
<ele>419.886</ele>
<time>2020-09-10T10:27:20Z</time>
</trkpt>
<trkpt lat="48.624226" lon="10.169238">
<ele>419.728</ele>
<time>2020-09-10T10:27:21Z</time>
</trkpt>
<trkpt lat="48.624187" lon="10.169331">
<ele>419.614</ele>
<time>2020-09-10T10:27:22Z</time>
</trkpt>
<trkpt lat="48.624153" lon="10.169425">
<ele>419.554</ele>
<time>2020-09-10T10:27:23Z</time>
</trkpt>
<trkpt lat="48.624123" lon="10.169525">
<ele>419.263</ele>
<time>2020-09-10T10:27:24Z</time>
</trkpt>
<trkpt lat="48.6241" lon="10.169632">
<ele>419.007</ele>
<time>2020-09-10T10:27:25Z</time>
</trkpt>
<trkpt lat="48.624077" lon="10.169742">
<ele>418.84</ele>
<time>2020-09-10T10:27:26Z</time>
</trkpt>
<trkpt lat="48.624058" lon="10.169856">
<ele>418.483</ele>
<time>2020-09-10T10:27:27Z</time>
</trkpt>
<trkpt lat="48.62405" lon="10.169976">
<ele>418.198</ele>
<time>2020-09-10T10:27:28Z</time>
</trkpt>
<trkpt lat="48.624046" lon="10.170098">
<ele>418.015</ele>
<time>2020-09-10T10:27:29Z</time>
</trkpt>
<trkpt lat="48.624043" lon="10.17022">
<ele>417.577</ele>
<time>2020-09-10T10:27:30Z</time>
</trkpt>
<trkpt lat="48.624043" lon="10.170341">
<ele>417.244</ele>
<time>2020-09-10T10:27:31Z</time>
</trkpt>
<trkpt lat="48.624039" lon="10.170458">
<ele>417.005</ele>
<time>2020-09-10T10:27:32Z</time>
</trkpt>
<trkpt lat="48.624039" lon="10.170571">
<ele>416.615</ele>
<time>2020-09-10T10:27:33Z</time>
</trkpt>
<trkpt lat="48.624035" lon="10.17068">
<ele>416.322</ele>
<time>2020-09-10T10:27:34Z</time>
</trkpt>
<trkpt lat="48.624035" lon="10.170787">
<ele>416.071</ele>
<time>2020-09-10T10:27:35Z</time>
</trkpt>
<trkpt lat="48.624027" lon="10.17089">
<ele>415.883</ele>
<time>2020-09-10T10:27:36Z</time>
</trkpt>
<trkpt lat="48.624016" lon="10.170994">
<ele>415.762</ele>
<time>2020-09-10T10:27:37Z</time>
</trkpt>
<trkpt lat="48.624001" lon="10.171099">
<ele>415.455</ele>
<time>2020-09-10T10:27:38Z</time>
</trkpt>
<trkpt lat="48.623985" lon="10.171204">
<ele>415.209</ele>
<time>2020-09-10T10:27:39Z</time>
</trkpt>
<trkpt lat="48.623981" lon="10.171309">
<ele>415.021</ele>
<time>2020-09-10T10:27:40Z</time>
</trkpt>
<trkpt lat="48.623978" lon="10.171417">
<ele>414.851</ele>
<time>2020-09-10T10:27:41Z</time>
</trkpt>
<trkpt lat="48.623974" lon="10.171524">
<ele>414.787</ele>
<time>2020-09-10T10:27:42Z</time>
</trkpt>
<trkpt lat="48.623962" lon="10.171629">
<ele>414.514</ele>
<time>2020-09-10T10:27:43Z</time>
</trkpt>
<trkpt lat="48.623951" lon="10.171728">
<ele>414.312</ele>
<time>2020-09-10T10:27:44Z</time>
</trkpt>
<trkpt lat="48.623943" lon="10.171826">
<ele>414.134</ele>
<time>2020-09-10T10:27:45Z</time>
</trkpt>
<trkpt lat="48.623932" lon="10.171924">
<ele>414.013</ele>
<time>2020-09-10T10:27:46Z</time>
</trkpt>
<trkpt lat="48.623924" lon="10.172016">
<ele>413.929</ele>
<time>2020-09-10T10:27:47Z</time>
</trkpt>
<trkpt lat="48.623913" lon="10.172109">
<ele>413.63</ele>
<time>2020-09-10T10:27:48Z</time>
</trkpt>
<trkpt lat="48.623898" lon="10.172193">
<ele>413.394</ele>
<time>2020-09-10T10:27:49Z</time>
</trkpt>
<trkpt lat="48.623882" lon="10.172283">
<ele>413.21</ele>
<time>2020-09-10T10:27:50Z</time>
</trkpt>
<trkpt lat="48.623863" lon="10.172375">
<ele>413.064</ele>
<time>2020-09-10T10:27:51Z</time>
</trkpt>
<trkpt lat="48.623844" lon="10.172466">
<ele>412.717</ele>
<time>2020-09-10T10:27:52Z</time>
</trkpt>
<trkpt lat="48.623821" lon="10.172557">
<ele>412.45</ele>
<time>2020-09-10T10:27:53Z</time>
</trkpt>
<trkpt lat="48.623787" lon="10.172637">
<ele>412.256</ele>
<time>2020-09-10T10:27:54Z</time>
</trkpt>
<trkpt lat="48.623756" lon="10.172716">
<ele>412.074</ele>
<time>2020-09-10T10:27:55Z</time>
</trkpt>
<trkpt lat="48.623718" lon="10.172791">
<ele>411.957</ele>
<time>2020-09-10T10:27:56Z</time>
</trkpt>
<trkpt lat="48.623676" lon="10.172856">
<ele>411.873</ele>
<time>2020-09-10T10:27:57Z</time>
</trkpt>
<trkpt lat="48.623634" lon="10.172915">
<ele>411.822</ele>
<time>2020-09-10T10:27:58Z</time>
</trkpt>
<trkpt lat="48.6236" lon="10.17297">
<ele>411.796</ele>
<time>2020-09-10T10:27:59Z</time>
</trkpt>
<trkpt lat="48.623566" lon="10.173024">
<ele>411.796</ele>
<time>2020-09-10T10:28:00Z</time>
</trkpt>
<trkpt lat="48.623539" lon="10.17308">
<ele>411.796</ele>
<time>2020-09-10T10:28:01Z</time>
</trkpt>
<trkpt lat="48.623512" lon="10.173128">
<ele>411.796</ele>
<time>2020-09-10T10:28:02Z</time>
</trkpt>
<trkpt lat="48.623489" lon="10.173177">
<ele>411.796</ele>
<time>2020-09-10T10:28:03Z</time>
</trkpt>
<trkpt lat="48.623466" lon="10.173233">
<ele>411.796</ele>
<time>2020-09-10T10:28:04Z</time>
</trkpt>
<trkpt lat="48.623463" lon="10.173301">
<ele>411.796</ele>
<time>2020-09-10T10:28:05Z</time>
</trkpt>
<trkpt lat="48.623474" lon="10.173362">
<ele>411.796</ele>
<time>2020-09-10T10:28:06Z</time>
</trkpt>
<trkpt lat="48.623489" lon="10.173425">
<ele>411.796</ele>
<time>2020-09-10T10:28:07Z</time>
</trkpt>
<trkpt lat="48.623501" lon="10.173489">
<ele>411.796</ele>
<time>2020-09-10T10:28:08Z</time>
</trkpt>
<trkpt lat="48.623512" lon="10.173553">
<ele>411.796</ele>
<time>2020-09-10T10:28:09Z</time>
</trkpt>
<trkpt lat="48.62352" lon="10.173625">
<ele>411.796</ele>
<time>2020-09-10T10:28:10Z</time>
</trkpt>
<trkpt lat="48.623528" lon="10.173688">
<ele>411.796</ele>
<time>2020-09-10T10:28:11Z</time>
</trkpt>
<trkpt lat="48.623528" lon="10.173752">
<ele>411.796</ele>
<time>2020-09-10T10:28:12Z</time>
</trkpt>
<trkpt lat="48.623528" lon="10.173819">
<ele>411.796</ele>
<time>2020-09-10T10:28:13Z</time>
</trkpt>
<trkpt lat="48.623531" lon="10.173885">
<ele>411.585</ele>
<time>2020-09-10T10:28:14Z</time>
</trkpt>
<trkpt lat="48.623539" lon="10.173953">
<ele>411.387</ele>
<time>2020-09-10T10:28:15Z</time>
</trkpt>
<trkpt lat="48.623539" lon="10.174024">
<ele>411.223</ele>
<time>2020-09-10T10:28:16Z</time>
</trkpt>
<trkpt lat="48.623539" lon="10.174092">
<ele>411.091</ele>
<time>2020-09-10T10:28:17Z</time>
</trkpt>
<trkpt lat="48.623539" lon="10.17416">
<ele>410.99</ele>
<time>2020-09-10T10:28:18Z</time>
</trkpt>
<trkpt lat="48.623531" lon="10.174223">
<ele>410.913</ele>
<time>2020-09-10T10:28:19Z</time>
</trkpt>
<trkpt lat="48.623528" lon="10.17429">
<ele>410.868</ele>
<time>2020-09-10T10:28:20Z</time>
</trkpt>
<trkpt lat="48.62352" lon="10.174355">
<ele>410.846</ele>
<time>2020-09-10T10:28:21Z</time>
</trkpt>
<trkpt lat="48.623508" lon="10.174418">
<ele>410.846</ele>
<time>2020-09-10T10:28:22Z</time>
</trkpt>
<trkpt lat="48.623497" lon="10.17448">
<ele>410.846</ele>
<time>2020-09-10T10:28:23Z</time>
</trkpt>
<trkpt lat="48.623482" lon="10.174541">
<ele>410.846</ele>
<time>2020-09-10T10:28:24Z</time>
</trkpt>
<trkpt lat="48.62347" lon="10.174605">
<ele>410.846</ele>
<time>2020-09-10T10:28:25Z</time>
</trkpt>
<trkpt lat="48.623463" lon="10.174666">
<ele>410.846</ele>
<time>2020-09-10T10:28:26Z</time>
</trkpt>
<trkpt lat="48.623447" lon="10.174726">
<ele>410.846</ele>
<time>2020-09-10T10:28:27Z</time>
</trkpt>
<trkpt lat="48.623436" lon="10.174777">
<ele>410.846</ele>
<time>2020-09-10T10:28:28Z</time>
</trkpt>
<trkpt lat="48.623432" lon="10.174834">
<ele>410.846</ele>
<time>2020-09-10T10:28:29Z</time>
</trkpt>
<trkpt lat="48.623425" lon="10.174891">
<ele>410.846</ele>
<time>2020-09-10T10:28:30Z</time>
</trkpt>
<trkpt lat="48.623413" lon="10.174947">
<ele>410.846</ele>
<time>2020-09-10T10:28:31Z</time>
</trkpt>
<trkpt lat="48.623409" lon="10.175018">
<ele>410.846</ele>
<time>2020-09-10T10:28:32Z</time>
</trkpt>
<trkpt lat="48.623405" lon="10.175079">
<ele>410.846</ele>
<time>2020-09-10T10:28:33Z</time>
</trkpt>
<trkpt lat="48.623405" lon="10.175146">
<ele>410.846</ele>
<time>2020-09-10T10:28:34Z</time>
</trkpt>
<trkpt lat="48.623405" lon="10.175218">
<ele>410.846</ele>
<time>2020-09-10T10:28:35Z</time>
</trkpt>
<trkpt lat="48.623409" lon="10.17529">
<ele>410.846</ele>
<time>2020-09-10T10:28:36Z</time>
</trkpt>
<trkpt lat="48.623409" lon="10.175366">
<ele>410.846</ele>
<time>2020-09-10T10:28:37Z</time>
</trkpt>
<trkpt lat="48.623417" lon="10.175438">
<ele>410.846</ele>
<time>2020-09-10T10:28:38Z</time>
</trkpt>
<trkpt lat="48.623421" lon="10.17551">
<ele>410.846</ele>
<time>2020-09-10T10:28:39Z</time>
</trkpt>
<trkpt lat="48.623432" lon="10.17558">
<ele>410.846</ele>
<time>2020-09-10T10:28:40Z</time>
</trkpt>
<trkpt lat="48.623436" lon="10.175649">
<ele>410.846</ele>
<time>2020-09-10T10:28:41Z</time>
</trkpt>
<trkpt lat="48.623444" lon="10.175723">
<ele>410.846</ele>
<time>2020-09-10T10:28:42Z</time>
</trkpt>
<trkpt lat="48.623451" lon="10.175797">
<ele>410.846</ele>
<time>2020-09-10T10:28:43Z</time>
</trkpt>
<trkpt lat="48.623459" lon="10.175869">
<ele>410.654</ele>
<time>2020-09-10T10:28:44Z</time>
</trkpt>
<trkpt lat="48.623463" lon="10.175939">
<ele>410.474</ele>
<time>2020-09-10T10:28:45Z</time>
</trkpt>
<trkpt lat="48.623466" lon="10.17601">
<ele>410.322</ele>
<time>2020-09-10T10:28:46Z</time>
</trkpt>
<trkpt lat="48.62347" lon="10.176079">
<ele>410.203</ele>
<time>2020-09-10T10:28:47Z</time>
</trkpt>
<trkpt lat="48.623474" lon="10.176146">
<ele>410.111</ele>
<time>2020-09-10T10:28:48Z</time>
</trkpt>
<trkpt lat="48.623478" lon="10.176211">
<ele>410.045</ele>
<time>2020-09-10T10:28:49Z</time>
</trkpt>
<trkpt lat="48.623482" lon="10.176278">
<ele>410.004</ele>
<time>2020-09-10T10:28:50Z</time>
</trkpt>
<trkpt lat="48.623486" lon="10.17635">
<ele>409.982</ele>
<time>2020-09-10T10:28:51Z</time>
</trkpt>
<trkpt lat="48.623493" lon="10.176422">
<ele>409.982</ele>
<time>2020-09-10T10:28:52Z</time>
</trkpt>
<trkpt lat="48.623489" lon="10.17649">
<ele>409.982</ele>
<time>2020-09-10T10:28:53Z</time>
</trkpt>
<trkpt lat="48.623489" lon="10.176558">
<ele>409.982</ele>
<time>2020-09-10T10:28:54Z</time>
</trkpt>
<trkpt lat="48.623486" lon="10.176621">
<ele>409.982</ele>
<time>2020-09-10T10:28:55Z</time>
</trkpt>
<trkpt lat="48.623486" lon="10.176688">
<ele>409.982</ele>
<time>2020-09-10T10:28:56Z</time>
</trkpt>
<trkpt lat="48.623482" lon="10.176755">
<ele>409.982</ele>
<time>2020-09-10T10:28:57Z</time>
</trkpt>
<trkpt lat="48.623482" lon="10.176823">
<ele>409.982</ele>
<time>2020-09-10T10:28:58Z</time>
</trkpt>
<trkpt lat="48.623474" lon="10.176889">
<ele>409.982</ele>
<time>2020-09-10T10:28:59Z</time>
</trkpt>
<trkpt lat="48.623466" lon="10.176958">
<ele>409.982</ele>
<time>2020-09-10T10:29:00Z</time>
</trkpt>
<trkpt lat="48.623463" lon="10.177026">
<ele>409.982</ele>
<time>2020-09-10T10:29:01Z</time>
</trkpt>
<trkpt lat="48.623451" lon="10.177091">
<ele>409.982</ele>
<time>2020-09-10T10:29:02Z</time>
</trkpt>
<trkpt lat="48.62344" lon="10.177155">
<ele>409.982</ele>
<time>2020-09-10T10:29:03Z</time>
</trkpt>
<trkpt lat="48.623428" lon="10.177218">
<ele>409.982</ele>
<time>2020-09-10T10:29:04Z</time>
</trkpt>
<trkpt lat="48.623421" lon="10.177281">
<ele>409.982</ele>
<time>2020-09-10T10:29:05Z</time>
</trkpt>
<trkpt lat="48.623409" lon="10.177346">
<ele>409.982</ele>
<time>2020-09-10T10:29:06Z</time>
</trkpt>
<trkpt lat="48.623398" lon="10.177402">
<ele>409.982</ele>
<time>2020-09-10T10:29:07Z</time>
</trkpt>
<trkpt lat="48.623383" lon="10.177457">
<ele>409.982</ele>
<time>2020-09-10T10:29:08Z</time>
</trkpt>
<trkpt lat="48.623367" lon="10.17751">
<ele>409.982</ele>
<time>2020-09-10T10:29:09Z</time>
</trkpt>
<trkpt lat="48.623363" lon="10.177567">
<ele>409.982</ele>
<time>2020-09-10T10:29:10Z</time>
</trkpt>
<trkpt lat="48.623363" lon="10.177629">
<ele>409.744</ele>
<time>2020-09-10T10:29:11Z</time>
</trkpt>
<trkpt lat="48.623352" lon="10.177677">
<ele>409.556</ele>
<time>2020-09-10T10:29:12Z</time>
</trkpt>
<trkpt lat="48.623344" lon="10.177719">
<ele>409.411</ele>
<time>2020-09-10T10:29:13Z</time>
</trkpt>
<trkpt lat="48.623333" lon="10.177758">
<ele>409.306</ele>
<time>2020-09-10T10:29:14Z</time>
</trkpt>
<trkpt lat="48.623329" lon="10.177803">
<ele>409.192</ele>
<time>2020-09-10T10:29:15Z</time>
</trkpt>
<trkpt lat="48.623333" lon="10.177855">
<ele>409.111</ele>
<time>2020-09-10T10:29:16Z</time>
</trkpt>
<trkpt lat="48.623333" lon="10.177914">
<ele>409.058</ele>
<time>2020-09-10T10:29:17Z</time>
</trkpt>
<trkpt lat="48.623333" lon="10.177972">
<ele>409.032</ele>
<time>2020-09-10T10:29:18Z</time>
</trkpt>
<trkpt lat="48.623337" lon="10.17804">
<ele>409.032</ele>
<time>2020-09-10T10:29:19Z</time>
</trkpt>
<trkpt lat="48.623341" lon="10.178108">
<ele>409.032</ele>
<time>2020-09-10T10:29:20Z</time>
</trkpt>
<trkpt lat="48.623356" lon="10.17817">
<ele>409.032</ele>
<time>2020-09-10T10:29:21Z</time>
</trkpt>
<trkpt lat="48.623371" lon="10.178233">
<ele>409.032</ele>
<time>2020-09-10T10:29:22Z</time>
</trkpt>
<trkpt lat="48.62339" lon="10.178298">
<ele>409.032</ele>
<time>2020-09-10T10:29:23Z</time>
</trkpt>
<trkpt lat="48.623402" lon="10.178367">
<ele>409.032</ele>
<time>2020-09-10T10:29:24Z</time>
</trkpt>
<trkpt lat="48.623417" lon="10.178438">
<ele>409.032</ele>
<time>2020-09-10T10:29:25Z</time>
</trkpt>
<trkpt lat="48.623421" lon="10.178514">
<ele>409.032</ele>
<time>2020-09-10T10:29:26Z</time>
</trkpt>
<trkpt lat="48.623428" lon="10.178587">
<ele>409.032</ele>
<time>2020-09-10T10:29:27Z</time>
</trkpt>
<trkpt lat="48.623436" lon="10.178663">
<ele>409.032</ele>
<time>2020-09-10T10:29:28Z</time>
</trkpt>
<trkpt lat="48.62344" lon="10.178738">
<ele>409.032</ele>
<time>2020-09-10T10:29:29Z</time>
</trkpt>
<trkpt lat="48.623451" lon="10.178815">
<ele>409.032</ele>
<time>2020-09-10T10:29:30Z</time>
</trkpt>
<trkpt lat="48.623459" lon="10.178892">
<ele>409.032</ele>
<time>2020-09-10T10:29:31Z</time>
</trkpt>
<trkpt lat="48.623463" lon="10.178974">
<ele>409.032</ele>
<time>2020-09-10T10:29:32Z</time>
</trkpt>
<trkpt lat="48.623463" lon="10.179051">
<ele>409.032</ele>
<time>2020-09-10T10:29:33Z</time>
</trkpt>
<trkpt lat="48.623474" lon="10.179127">
<ele>409.032</ele>
<time>2020-09-10T10:29:34Z</time>
</trkpt>
<trkpt lat="48.62347" lon="10.179196">
<ele>409.032</ele>
<time>2020-09-10T10:29:35Z</time>
</trkpt>
<trkpt lat="48.623478" lon="10.179258">
<ele>409.032</ele>
<time>2020-09-10T10:29:36Z</time>
</trkpt>
<trkpt lat="48.623482" lon="10.179307">
<ele>409.032</ele>
<time>2020-09-10T10:29:37Z</time>
</trkpt>
<trkpt lat="48.623478" lon="10.179343">
<ele>409.032</ele>
<time>2020-09-10T10:29:38Z</time>
</trkpt>
<trkpt lat="48.623482" lon="10.179379">
<ele>409.032</ele>
<time>2020-09-10T10:29:39Z</time>
</trkpt>
<trkpt lat="48.623478" lon="10.179419">
<ele>409.032</ele>
<time>2020-09-10T10:29:40Z</time>
</trkpt>
<trkpt lat="48.623474" lon="10.179462">
<ele>409.032</ele>
<time>2020-09-10T10:29:41Z</time>
</trkpt>
<trkpt lat="48.623466" lon="10.179508">
<ele>409.032</ele>
<time>2020-09-10T10:29:42Z</time>
</trkpt>
<trkpt lat="48.623463" lon="10.179561">
<ele>409.032</ele>
<time>2020-09-10T10:29:43Z</time>
</trkpt>
<trkpt lat="48.623463" lon="10.179615">
<ele>409.032</ele>
<time>2020-09-10T10:29:44Z</time>
</trkpt>
<trkpt lat="48.623459" lon="10.179671">
<ele>409.032</ele>
<time>2020-09-10T10:29:45Z</time>
</trkpt>
<trkpt lat="48.623459" lon="10.179727">
<ele>409.032</ele>
<time>2020-09-10T10:29:46Z</time>
</trkpt>
<trkpt lat="48.623447" lon="10.179785">
<ele>409.032</ele>
<time>2020-09-10T10:29:47Z</time>
</trkpt>
<trkpt lat="48.623444" lon="10.179846">
<ele>409.032</ele>
<time>2020-09-10T10:29:48Z</time>
</trkpt>
<trkpt lat="48.62344" lon="10.179909">
<ele>409.032</ele>
<time>2020-09-10T10:29:49Z</time>
</trkpt>
<trkpt lat="48.62344" lon="10.179976">
<ele>409.032</ele>
<time>2020-09-10T10:29:50Z</time>
</trkpt>
<trkpt lat="48.623444" lon="10.180045">
<ele>409.032</ele>
<time>2020-09-10T10:29:51Z</time>
</trkpt>
<trkpt lat="48.623447" lon="10.180117">
<ele>409.032</ele>
<time>2020-09-10T10:29:52Z</time>
</trkpt>
<trkpt lat="48.623447" lon="10.180192">
<ele>409.032</ele>
<time>2020-09-10T10:29:53Z</time>
</trkpt>
<trkpt lat="48.623451" lon="10.180266">
<ele>409.032</ele>
<time>2020-09-10T10:29:54Z</time>
</trkpt>
<trkpt lat="48.623455" lon="10.18034">
<ele>409.032</ele>
<time>2020-09-10T10:29:55Z</time>
</trkpt>
<trkpt lat="48.623455" lon="10.180411">
<ele>409.032</ele>
<time>2020-09-10T10:29:56Z</time>
</trkpt>
<trkpt lat="48.623459" lon="10.180478">
<ele>409.032</ele>
<time>2020-09-10T10:29:57Z</time>
</trkpt>
<trkpt lat="48.623463" lon="10.180543">
<ele>409.032</ele>
<time>2020-09-10T10:29:58Z</time>
</trkpt>
<trkpt lat="48.623463" lon="10.180611">
<ele>409.032</ele>
<time>2020-09-10T10:29:59Z</time>
</trkpt>
<trkpt lat="48.623466" lon="10.180677">
<ele>409.032</ele>
<time>2020-09-10T10:30:00Z</time>
</trkpt>
<trkpt lat="48.62347" lon="10.180743">
<ele>409.032</ele>
<time>2020-09-10T10:30:01Z</time>
</trkpt>
<trkpt lat="48.623474" lon="10.18081">
<ele>409.032</ele>
<time>2020-09-10T10:30:02Z</time>
</trkpt>
<trkpt lat="48.623474" lon="10.180873">
<ele>409.032</ele>
<time>2020-09-10T10:30:03Z</time>
</trkpt>
<trkpt lat="48.623474" lon="10.180933">
<ele>409.032</ele>
<time>2020-09-10T10:30:04Z</time>
</trkpt>
<trkpt lat="48.623478" lon="10.180994">
<ele>409.032</ele>
<time>2020-09-10T10:30:05Z</time>
</trkpt>
<trkpt lat="48.623482" lon="10.181052">
<ele>409.032</ele>
<time>2020-09-10T10:30:06Z</time>
</trkpt>
<trkpt lat="48.623486" lon="10.181111">
<ele>409.032</ele>
<time>2020-09-10T10:30:07Z</time>
</trkpt>
<trkpt lat="48.623486" lon="10.181173">
<ele>409.032</ele>
<time>2020-09-10T10:30:08Z</time>
</trkpt>
<trkpt lat="48.623489" lon="10.181233">
<ele>409.032</ele>
<time>2020-09-10T10:30:09Z</time>
</trkpt>
<trkpt lat="48.623489" lon="10.181293">
<ele>409.032</ele>
<time>2020-09-10T10:30:10Z</time>
</trkpt>
<trkpt lat="48.623493" lon="10.181355">
<ele>409.032</ele>
<time>2020-09-10T10:30:11Z</time>
</trkpt>
<trkpt lat="48.623493" lon="10.181417">
<ele>408.793</ele>
<time>2020-09-10T10:30:12Z</time>
</trkpt>
<trkpt lat="48.623497" lon="10.181479">
<ele>408.605</ele>
<time>2020-09-10T10:30:13Z</time>
</trkpt>
<trkpt lat="48.623497" lon="10.18154">
<ele>408.475</ele>
<time>2020-09-10T10:30:14Z</time>
</trkpt>
<trkpt lat="48.623497" lon="10.181605">
<ele>408.337</ele>
<time>2020-09-10T10:30:15Z</time>
</trkpt>
<trkpt lat="48.623505" lon="10.181672">
<ele>408.231</ele>
<time>2020-09-10T10:30:16Z</time>
</trkpt>
<trkpt lat="48.623508" lon="10.181738">
<ele>408.153</ele>
<time>2020-09-10T10:30:17Z</time>
</trkpt>
<trkpt lat="48.623512" lon="10.181807">
<ele>408.105</ele>
<time>2020-09-10T10:30:18Z</time>
</trkpt>
<trkpt lat="48.62352" lon="10.181876">
<ele>408.082</ele>
<time>2020-09-10T10:30:19Z</time>
</trkpt>
<trkpt lat="48.623524" lon="10.181949">
<ele>408.082</ele>
<time>2020-09-10T10:30:20Z</time>
</trkpt>
<trkpt lat="48.623528" lon="10.182018">
<ele>408.082</ele>
<time>2020-09-10T10:30:21Z</time>
</trkpt>
<trkpt lat="48.623531" lon="10.182092">
<ele>408.082</ele>
<time>2020-09-10T10:30:22Z</time>
</trkpt>
<trkpt lat="48.623539" lon="10.182165">
<ele>408.082</ele>
<time>2020-09-10T10:30:23Z</time>
</trkpt>
<trkpt lat="48.623547" lon="10.18224">
<ele>408.082</ele>
<time>2020-09-10T10:30:24Z</time>
</trkpt>
<trkpt lat="48.623554" lon="10.182316">
<ele>408.082</ele>
<time>2020-09-10T10:30:25Z</time>
</trkpt>
<trkpt lat="48.623562" lon="10.182386">
<ele>408.082</ele>
<time>2020-09-10T10:30:26Z</time>
</trkpt>
<trkpt lat="48.623573" lon="10.18246">
<ele>408.082</ele>
<time>2020-09-10T10:30:27Z</time>
</trkpt>
<trkpt lat="48.623589" lon="10.182529">
<ele>408.082</ele>
<time>2020-09-10T10:30:28Z</time>
</trkpt>
<trkpt lat="48.6236" lon="10.1826">
<ele>408.082</ele>
<time>2020-09-10T10:30:29Z</time>
</trkpt>
<trkpt lat="48.623611" lon="10.18267">
<ele>408.082</ele>
<time>2020-09-10T10:30:30Z</time>
</trkpt>
<trkpt lat="48.623623" lon="10.182739">
<ele>408.082</ele>
<time>2020-09-10T10:30:31Z</time>
</trkpt>
<trkpt lat="48.623631" lon="10.18281">
<ele>408.082</ele>
<time>2020-09-10T10:30:32Z</time>
</trkpt>
<trkpt lat="48.623642" lon="10.182879">
<ele>408.082</ele>
<time>2020-09-10T10:30:33Z</time>
</trkpt>
<trkpt lat="48.623657" lon="10.182948">
<ele>408.082</ele>
<time>2020-09-10T10:30:34Z</time>
</trkpt>
<trkpt lat="48.623669" lon="10.183017">
<ele>408.082</ele>
<time>2020-09-10T10:30:35Z</time>
</trkpt>
<trkpt lat="48.623688" lon="10.183084">
<ele>408.082</ele>
<time>2020-09-10T10:30:36Z</time>
</trkpt>
<trkpt lat="48.623699" lon="10.183158">
<ele>408.082</ele>
<time>2020-09-10T10:30:37Z</time>
</trkpt>
<trkpt lat="48.623714" lon="10.183233">
<ele>408.082</ele>
<time>2020-09-10T10:30:38Z</time>
</trkpt>
<trkpt lat="48.62373" lon="10.183311">
<ele>408.082</ele>
<time>2020-09-10T10:30:39Z</time>
</trkpt>
<trkpt lat="48.623745" lon="10.183387">
<ele>408.082</ele>
<time>2020-09-10T10:30:40Z</time>
</trkpt>
<trkpt lat="48.623764" lon="10.183465">
<ele>408.082</ele>
<time>2020-09-10T10:30:41Z</time>
</trkpt>
<trkpt lat="48.623783" lon="10.183541">
<ele>408.082</ele>
<time>2020-09-10T10:30:42Z</time>
</trkpt>
<trkpt lat="48.623798" lon="10.183619">
<ele>408.082</ele>
<time>2020-09-10T10:30:43Z</time>
</trkpt>
<trkpt lat="48.623821" lon="10.183693">
<ele>408.082</ele>
<time>2020-09-10T10:30:44Z</time>
</trkpt>
<trkpt lat="48.62384" lon="10.183768">
<ele>408.082</ele>
<time>2020-09-10T10:30:45Z</time>
</trkpt>
<trkpt lat="48.623859" lon="10.183846">
<ele>408.082</ele>
<time>2020-09-10T10:30:46Z</time>
</trkpt>
<trkpt lat="48.623882" lon="10.18392">
<ele>408.082</ele>
<time>2020-09-10T10:30:47Z</time>
</trkpt>
<trkpt lat="48.623901" lon="10.183996">
<ele>408.082</ele>
<time>2020-09-10T10:30:48Z</time>
</trkpt>
<trkpt lat="48.62392" lon="10.184073">
<ele>408.082</ele>
<time>2020-09-10T10:30:49Z</time>
</trkpt>
<trkpt lat="48.623943" lon="10.184154">
<ele>408.082</ele>
<time>2020-09-10T10:30:50Z</time>
</trkpt>
<trkpt lat="48.623962" lon="10.184233">
<ele>408.082</ele>
<time>2020-09-10T10:30:51Z</time>
</trkpt>
<trkpt lat="48.623985" lon="10.184313">
<ele>408.082</ele>
<time>2020-09-10T10:30:52Z</time>
</trkpt>
<trkpt lat="48.624012" lon="10.184392">
<ele>408.082</ele>
<time>2020-09-10T10:30:53Z</time>
</trkpt>
<trkpt lat="48.624035" lon="10.184468">
<ele>408.082</ele>
<time>2020-09-10T10:30:54Z</time>
</trkpt>
<trkpt lat="48.624054" lon="10.184545">
<ele>408.082</ele>
<time>2020-09-10T10:30:55Z</time>
</trkpt>
<trkpt lat="48.624077" lon="10.184618">
<ele>408.082</ele>
<time>2020-09-10T10:30:56Z</time>
</trkpt>
<trkpt lat="48.6241" lon="10.184691">
<ele>408.082</ele>
<time>2020-09-10T10:30:57Z</time>
</trkpt>
<trkpt lat="48.624119" lon="10.184761">
<ele>408.082</ele>
<time>2020-09-10T10:30:58Z</time>
</trkpt>
<trkpt lat="48.624138" lon="10.184832">
<ele>408.082</ele>
<time>2020-09-10T10:30:59Z</time>
</trkpt>
<trkpt lat="48.624149" lon="10.184898">
<ele>408.082</ele>
<time>2020-09-10T10:31:00Z</time>
</trkpt>
<trkpt lat="48.624161" lon="10.184964">
<ele>408.082</ele>
<time>2020-09-10T10:31:01Z</time>
</trkpt>
<trkpt lat="48.624157" lon="10.185031">
<ele>408.082</ele>
<time>2020-09-10T10:31:02Z</time>
</trkpt>
<trkpt lat="48.624149" lon="10.185094">
<ele>408.082</ele>
<time>2020-09-10T10:31:03Z</time>
</trkpt>
<trkpt lat="48.624142" lon="10.185155">
<ele>408.082</ele>
<time>2020-09-10T10:31:04Z</time>
</trkpt>
<trkpt lat="48.624134" lon="10.185211">
<ele>408.082</ele>
<time>2020-09-10T10:31:05Z</time>
</trkpt>
<trkpt lat="48.624123" lon="10.185266">
<ele>408.082</ele>
<time>2020-09-10T10:31:06Z</time>
</trkpt>
<trkpt lat="48.624115" lon="10.185323">
<ele>408.082</ele>
<time>2020-09-10T10:31:07Z</time>
</trkpt>
<trkpt lat="48.624115" lon="10.185383">
<ele>408.082</ele>
<time>2020-09-10T10:31:08Z</time>
</trkpt>
<trkpt lat="48.624115" lon="10.185446">
<ele>408.082</ele>
<time>2020-09-10T10:31:09Z</time>
</trkpt>
<trkpt lat="48.624115" lon="10.185507">
<ele>408.082</ele>
<time>2020-09-10T10:31:10Z</time>
</trkpt>
<trkpt lat="48.624126" lon="10.185572">
<ele>408.082</ele>
<time>2020-09-10T10:31:11Z</time>
</trkpt>
<trkpt lat="48.624149" lon="10.185624">
<ele>408.345</ele>
<time>2020-09-10T10:31:12Z</time>
</trkpt>
<trkpt lat="48.624184" lon="10.185666">
<ele>408.558</ele>
<time>2020-09-10T10:31:13Z</time>
</trkpt>
<trkpt lat="48.624222" lon="10.185706">
<ele>408.699</ele>
<time>2020-09-10T10:31:14Z</time>
</trkpt>
<trkpt lat="48.624264" lon="10.185747">
<ele>408.85</ele>
<time>2020-09-10T10:31:15Z</time>
</trkpt>
<trkpt lat="48.624306" lon="10.185787">
<ele>408.963</ele>
<time>2020-09-10T10:31:16Z</time>
</trkpt>
<trkpt lat="48.624348" lon="10.185827">
<ele>409.044</ele>
<time>2020-09-10T10:31:17Z</time>
</trkpt>
<trkpt lat="48.624393" lon="10.185867">
<ele>409.095</ele>
<time>2020-09-10T10:31:18Z</time>
</trkpt>
<trkpt lat="48.624439" lon="10.185911">
<ele>409.119</ele>
<time>2020-09-10T10:31:19Z</time>
</trkpt>
<trkpt lat="48.624485" lon="10.185955">
<ele>409.119</ele>
<time>2020-09-10T10:31:20Z</time>
</trkpt>
<trkpt lat="48.624535" lon="10.186">
<ele>409.118</ele>
<time>2020-09-10T10:31:21Z</time>
</trkpt>
<trkpt lat="48.62458" lon="10.186045">
<ele>409.119</ele>
<time>2020-09-10T10:31:22Z</time>
</trkpt>
<trkpt lat="48.624634" lon="10.186093">
<ele>409.119</ele>
<time>2020-09-10T10:31:23Z</time>
</trkpt>
<trkpt lat="48.624683" lon="10.18614">
<ele>409.118</ele>
<time>2020-09-10T10:31:24Z</time>
</trkpt>
<trkpt lat="48.624733" lon="10.186188">
<ele>409.118</ele>
<time>2020-09-10T10:31:25Z</time>
</trkpt>
<trkpt lat="48.624786" lon="10.186234">
<ele>409.118</ele>
<time>2020-09-10T10:31:26Z</time>
</trkpt>
<trkpt lat="48.624836" lon="10.186282">
<ele>409.118</ele>
<time>2020-09-10T10:31:27Z</time>
</trkpt>
<trkpt lat="48.624889" lon="10.186328">
<ele>409.118</ele>
<time>2020-09-10T10:31:28Z</time>
</trkpt>
<trkpt lat="48.624943" lon="10.186374">
<ele>409.119</ele>
<time>2020-09-10T10:31:29Z</time>
</trkpt>
<trkpt lat="48.624996" lon="10.186419">
<ele>409.118</ele>
<time>2020-09-10T10:31:30Z</time>
</trkpt>
<trkpt lat="48.62505" lon="10.186464">
<ele>409.119</ele>
<time>2020-09-10T10:31:31Z</time>
</trkpt>
<trkpt lat="48.625103" lon="10.186506">
<ele>409.118</ele>
<time>2020-09-10T10:31:32Z</time>
</trkpt>
<trkpt lat="48.625156" lon="10.18655">
<ele>409.118</ele>
<time>2020-09-10T10:31:33Z</time>
</trkpt>
<trkpt lat="48.62521" lon="10.18659">
<ele>408.907</ele>
<time>2020-09-10T10:31:34Z</time>
</trkpt>
<trkpt lat="48.625259" lon="10.186633">
<ele>408.709</ele>
<time>2020-09-10T10:31:35Z</time>
</trkpt>
<trkpt lat="48.625313" lon="10.186673">
<ele>408.546</ele>
<time>2020-09-10T10:31:36Z</time>
</trkpt>
<trkpt lat="48.625362" lon="10.186713">
<ele>408.417</ele>
<time>2020-09-10T10:31:37Z</time>
</trkpt>
<trkpt lat="48.625412" lon="10.186747">
<ele>408.314</ele>
<time>2020-09-10T10:31:38Z</time>
</trkpt>
<trkpt lat="48.625462" lon="10.186778">
<ele>408.239</ele>
<time>2020-09-10T10:31:39Z</time>
</trkpt>
<trkpt lat="48.625515" lon="10.186806">
<ele>408.192</ele>
<time>2020-09-10T10:31:40Z</time>
</trkpt>
<trkpt lat="48.625568" lon="10.186827">
<ele>408.169</ele>
<time>2020-09-10T10:31:41Z</time>
</trkpt>
<trkpt lat="48.625622" lon="10.186847">
<ele>408.169</ele>
<time>2020-09-10T10:31:42Z</time>
</trkpt>
<trkpt lat="48.625675" lon="10.186869">
<ele>408.169</ele>
<time>2020-09-10T10:31:43Z</time>
</trkpt>
<trkpt lat="48.625725" lon="10.186898">
<ele>408.169</ele>
<time>2020-09-10T10:31:44Z</time>
</trkpt>
<trkpt lat="48.625778" lon="10.186937">
<ele>408.169</ele>
<time>2020-09-10T10:31:45Z</time>
</trkpt>
<trkpt lat="48.625832" lon="10.186983">
<ele>408.169</ele>
<time>2020-09-10T10:31:46Z</time>
</trkpt>
<trkpt lat="48.625885" lon="10.18703">
<ele>408.169</ele>
<time>2020-09-10T10:31:47Z</time>
</trkpt>
<trkpt lat="48.625942" lon="10.187077">
<ele>408.168</ele>
<time>2020-09-10T10:31:48Z</time>
</trkpt>
<trkpt lat="48.625996" lon="10.18712">
<ele>408.169</ele>
<time>2020-09-10T10:31:49Z</time>
</trkpt>
<trkpt lat="48.626053" lon="10.187161">
<ele>408.169</ele>
<time>2020-09-10T10:31:50Z</time>
</trkpt>
<trkpt lat="48.626102" lon="10.187205">
<ele>408.169</ele>
<time>2020-09-10T10:31:51Z</time>
</trkpt>
<trkpt lat="48.62616" lon="10.187248">
<ele>408.169</ele>
<time>2020-09-10T10:31:52Z</time>
</trkpt>
<trkpt lat="48.626205" lon="10.187292">
<ele>408.169</ele>
<time>2020-09-10T10:31:53Z</time>
</trkpt>
<trkpt lat="48.626255" lon="10.187336">
<ele>408.169</ele>
<time>2020-09-10T10:31:54Z</time>
</trkpt>
<trkpt lat="48.626297" lon="10.187382">
<ele>408.169</ele>
<time>2020-09-10T10:31:55Z</time>
</trkpt>
<trkpt lat="48.626331" lon="10.187424">
<ele>408.169</ele>
<time>2020-09-10T10:31:56Z</time>
</trkpt>
<trkpt lat="48.626366" lon="10.187464">
<ele>408.169</ele>
<time>2020-09-10T10:31:57Z</time>
</trkpt>
<trkpt lat="48.626396" lon="10.187497">
<ele>408.416</ele>
<time>2020-09-10T10:31:58Z</time>
</trkpt>
<trkpt lat="48.626434" lon="10.187524">
<ele>408.614</ele>
<time>2020-09-10T10:31:59Z</time>
</trkpt>
<trkpt lat="48.626476" lon="10.187543">
<ele>408.771</ele>
<time>2020-09-10T10:32:00Z</time>
</trkpt>
<trkpt lat="48.626522" lon="10.187564">
<ele>408.896</ele>
<time>2020-09-10T10:32:01Z</time>
</trkpt>
<trkpt lat="48.62656" lon="10.187589">
<ele>408.988</ele>
<time>2020-09-10T10:32:02Z</time>
</trkpt>
<trkpt lat="48.626606" lon="10.187612">
<ele>409.044</ele>
<time>2020-09-10T10:32:03Z</time>
</trkpt>
<trkpt lat="48.626652" lon="10.187638">
<ele>409.091</ele>
<time>2020-09-10T10:32:04Z</time>
</trkpt>
<trkpt lat="48.626694" lon="10.187667">
<ele>409.118</ele>
<time>2020-09-10T10:32:05Z</time>
</trkpt>
<trkpt lat="48.62674" lon="10.187702">
<ele>409.118</ele>
<time>2020-09-10T10:32:06Z</time>
</trkpt>
<trkpt lat="48.626781" lon="10.187742">
<ele>409.118</ele>
<time>2020-09-10T10:32:07Z</time>
</trkpt>
<trkpt lat="48.626823" lon="10.18779">
<ele>409.119</ele>
<time>2020-09-10T10:32:08Z</time>
</trkpt>
<trkpt lat="48.626865" lon="10.187845">
<ele>408.828</ele>
<time>2020-09-10T10:32:09Z</time>
</trkpt>
<trkpt lat="48.626904" lon="10.187907">
<ele>408.602</ele>
<time>2020-09-10T10:32:10Z</time>
</trkpt>
<trkpt lat="48.626942" lon="10.187973">
<ele>408.434</ele>
<time>2020-09-10T10:32:11Z</time>
</trkpt>
<trkpt lat="48.626976" lon="10.188037">
<ele>408.341</ele>
<time>2020-09-10T10:32:12Z</time>
</trkpt>
<trkpt lat="48.62701" lon="10.188107">
<ele>408.003</ele>
<time>2020-09-10T10:32:13Z</time>
</trkpt>
<trkpt lat="48.627041" lon="10.188167">
<ele>407.759</ele>
<time>2020-09-10T10:32:14Z</time>
</trkpt>
<trkpt lat="48.627048" lon="10.18824">
<ele>407.538</ele>
<time>2020-09-10T10:32:15Z</time>
</trkpt>
<trkpt lat="48.627075" lon="10.188302">
<ele>407.383</ele>
<time>2020-09-10T10:32:16Z</time>
</trkpt>
<trkpt lat="48.627087" lon="10.188367">
<ele>407.282</ele>
<time>2020-09-10T10:32:17Z</time>
</trkpt>
<trkpt lat="48.62709" lon="10.188427">
<ele>407.208</ele>
<time>2020-09-10T10:32:18Z</time>
</trkpt>
<trkpt lat="48.62709" lon="10.188488">
<ele>407.158</ele>
<time>2020-09-10T10:32:19Z</time>
</trkpt>
<trkpt lat="48.627087" lon="10.188543">
<ele>407.132</ele>
<time>2020-09-10T10:32:20Z</time>
</trkpt>
<trkpt lat="48.627083" lon="10.188603">
<ele>407.36</ele>
<time>2020-09-10T10:32:21Z</time>
</trkpt>
<trkpt lat="48.627075" lon="10.188666">
<ele>407.55</ele>
<time>2020-09-10T10:32:22Z</time>
</trkpt>
<trkpt lat="48.627064" lon="10.188731">
<ele>407.7</ele>
<time>2020-09-10T10:32:23Z</time>
</trkpt>
<trkpt lat="48.627056" lon="10.188795">
<ele>407.806</ele>
<time>2020-09-10T10:32:24Z</time>
</trkpt>
<trkpt lat="48.627048" lon="10.188859">
<ele>408.157</ele>
<time>2020-09-10T10:32:25Z</time>
</trkpt>
<trkpt lat="48.627041" lon="10.188918">
<ele>408.439</ele>
<time>2020-09-10T10:32:26Z</time>
</trkpt>
<trkpt lat="48.627037" lon="10.188976">
<ele>408.648</ele>
<time>2020-09-10T10:32:27Z</time>
</trkpt>
<trkpt lat="48.627029" lon="10.189034">
<ele>408.801</ele>
<time>2020-09-10T10:32:28Z</time>
</trkpt>
<trkpt lat="48.627018" lon="10.189098">
<ele>408.893</ele>
<time>2020-09-10T10:32:29Z</time>
</trkpt>
<trkpt lat="48.62701" lon="10.189155">
<ele>408.962</ele>
<time>2020-09-10T10:32:30Z</time>
</trkpt>
<trkpt lat="48.626999" lon="10.189213">
<ele>409.009</ele>
<time>2020-09-10T10:32:31Z</time>
</trkpt>
<trkpt lat="48.626991" lon="10.189277">
<ele>409.032</ele>
<time>2020-09-10T10:32:32Z</time>
</trkpt>
<trkpt lat="48.626984" lon="10.189342">
<ele>409.032</ele>
<time>2020-09-10T10:32:33Z</time>
</trkpt>
<trkpt lat="48.626976" lon="10.189406">
<ele>409.032</ele>
<time>2020-09-10T10:32:34Z</time>
</trkpt>
<trkpt lat="48.626968" lon="10.189484">
<ele>409.032</ele>
<time>2020-09-10T10:32:35Z</time>
</trkpt>
<trkpt lat="48.626961" lon="10.189561">
<ele>409.032</ele>
<time>2020-09-10T10:32:36Z</time>
</trkpt>
<trkpt lat="48.626953" lon="10.18964">
<ele>409.032</ele>
<time>2020-09-10T10:32:37Z</time>
</trkpt>
<trkpt lat="48.626945" lon="10.189722">
<ele>409.032</ele>
<time>2020-09-10T10:32:38Z</time>
</trkpt>
<trkpt lat="48.626942" lon="10.189803">
<ele>409.032</ele>
<time>2020-09-10T10:32:39Z</time>
</trkpt>
<trkpt lat="48.626938" lon="10.189888">
<ele>409.032</ele>
<time>2020-09-10T10:32:40Z</time>
</trkpt>
<trkpt lat="48.626938" lon="10.189974">
<ele>409.032</ele>
<time>2020-09-10T10:32:41Z</time>
</trkpt>
<trkpt lat="48.626938" lon="10.19006">
<ele>409.032</ele>
<time>2020-09-10T10:32:42Z</time>
</trkpt>
<trkpt lat="48.626938" lon="10.190155">
<ele>409.032</ele>
<time>2020-09-10T10:32:43Z</time>
</trkpt>
<trkpt lat="48.626938" lon="10.19025">
<ele>409.032</ele>
<time>2020-09-10T10:32:44Z</time>
</trkpt>
<trkpt lat="48.626938" lon="10.190342">
<ele>409.032</ele>
<time>2020-09-10T10:32:45Z</time>
</trkpt>
<trkpt lat="48.626938" lon="10.190438">
<ele>409.032</ele>
<time>2020-09-10T10:32:46Z</time>
</trkpt>
<trkpt lat="48.626934" lon="10.190529">
<ele>409.032</ele>
<time>2020-09-10T10:32:47Z</time>
</trkpt>
<trkpt lat="48.626934" lon="10.190619">
<ele>409.032</ele>
<time>2020-09-10T10:32:48Z</time>
</trkpt>
<trkpt lat="48.626934" lon="10.190708">
<ele>409.032</ele>
<time>2020-09-10T10:32:49Z</time>
</trkpt>
<trkpt lat="48.626926" lon="10.190795">
<ele>408.783</ele>
<time>2020-09-10T10:32:50Z</time>
</trkpt>
<trkpt lat="48.626923" lon="10.190882">
<ele>408.591</ele>
<time>2020-09-10T10:32:51Z</time>
</trkpt>
<trkpt lat="48.626919" lon="10.190969">
<ele>408.438</ele>
<time>2020-09-10T10:32:52Z</time>
</trkpt>
<trkpt lat="48.626915" lon="10.191054">
<ele>408.325</ele>
<time>2020-09-10T10:32:53Z</time>
</trkpt>
<trkpt lat="48.626911" lon="10.191142">
<ele>408.245</ele>
<time>2020-09-10T10:32:54Z</time>
</trkpt>
<trkpt lat="48.626907" lon="10.191227">
<ele>408.16</ele>
<time>2020-09-10T10:32:55Z</time>
</trkpt>
<trkpt lat="48.626904" lon="10.19131">
<ele>408.108</ele>
<time>2020-09-10T10:32:56Z</time>
</trkpt>
<trkpt lat="48.6269" lon="10.191394">
<ele>408.082</ele>
<time>2020-09-10T10:32:57Z</time>
</trkpt>
<trkpt lat="48.626896" lon="10.191477">
<ele>408.082</ele>
<time>2020-09-10T10:32:58Z</time>
</trkpt>
<trkpt lat="48.626892" lon="10.191558">
<ele>408.082</ele>
<time>2020-09-10T10:32:59Z</time>
</trkpt>
<trkpt lat="48.626888" lon="10.19164">
<ele>408.082</ele>
<time>2020-09-10T10:33:00Z</time>
</trkpt>
<trkpt lat="48.626884" lon="10.191727">
<ele>408.082</ele>
<time>2020-09-10T10:33:01Z</time>
</trkpt>
<trkpt lat="48.626884" lon="10.191815">
<ele>408.082</ele>
<time>2020-09-10T10:33:02Z</time>
</trkpt>
<trkpt lat="48.626884" lon="10.191903">
<ele>408.082</ele>
<time>2020-09-10T10:33:03Z</time>
</trkpt>
<trkpt lat="48.626884" lon="10.191992">
<ele>408.082</ele>
<time>2020-09-10T10:33:04Z</time>
</trkpt>
<trkpt lat="48.626884" lon="10.19208">
<ele>408.082</ele>
<time>2020-09-10T10:33:05Z</time>
</trkpt>
<trkpt lat="48.626884" lon="10.192173">
<ele>408.082</ele>
<time>2020-09-10T10:33:06Z</time>
</trkpt>
<trkpt lat="48.626884" lon="10.192266">
<ele>408.082</ele>
<time>2020-09-10T10:33:07Z</time>
</trkpt>
<trkpt lat="48.626881" lon="10.192355">
<ele>408.082</ele>
<time>2020-09-10T10:33:08Z</time>
</trkpt>
<trkpt lat="48.626884" lon="10.192444">
<ele>408.082</ele>
<time>2020-09-10T10:33:09Z</time>
</trkpt>
<trkpt lat="48.626884" lon="10.192535">
<ele>408.082</ele>
<time>2020-09-10T10:33:10Z</time>
</trkpt>
<trkpt lat="48.626884" lon="10.192626">
<ele>408.082</ele>
<time>2020-09-10T10:33:11Z</time>
</trkpt>
<trkpt lat="48.626884" lon="10.192719">
<ele>408.082</ele>
<time>2020-09-10T10:33:12Z</time>
</trkpt>
<trkpt lat="48.626888" lon="10.192812">
<ele>408.082</ele>
<time>2020-09-10T10:33:13Z</time>
</trkpt>
<trkpt lat="48.626888" lon="10.192906">
<ele>408.082</ele>
<time>2020-09-10T10:33:14Z</time>
</trkpt>
<trkpt lat="48.626884" lon="10.193001">
<ele>408.082</ele>
<time>2020-09-10T10:33:15Z</time>
</trkpt>
<trkpt lat="48.626888" lon="10.193093">
<ele>408.082</ele>
<time>2020-09-10T10:33:16Z</time>
</trkpt>
<trkpt lat="48.626888" lon="10.193187">
<ele>408.082</ele>
<time>2020-09-10T10:33:17Z</time>
</trkpt>
<trkpt lat="48.626892" lon="10.193281">
<ele>408.082</ele>
<time>2020-09-10T10:33:18Z</time>
</trkpt>
<trkpt lat="48.626896" lon="10.193374">
<ele>408.082</ele>
<time>2020-09-10T10:33:19Z</time>
</trkpt>
<trkpt lat="48.6269" lon="10.193465">
<ele>408.082</ele>
<time>2020-09-10T10:33:20Z</time>
</trkpt>
<trkpt lat="48.6269" lon="10.193557">
<ele>408.082</ele>
<time>2020-09-10T10:33:21Z</time>
</trkpt>
<trkpt lat="48.6269" lon="10.19365">
<ele>408.082</ele>
<time>2020-09-10T10:33:22Z</time>
</trkpt>
<trkpt lat="48.626904" lon="10.193742">
<ele>408.082</ele>
<time>2020-09-10T10:33:23Z</time>
</trkpt>
<trkpt lat="48.626907" lon="10.193835">
<ele>408.082</ele>
<time>2020-09-10T10:33:24Z</time>
</trkpt>
<trkpt lat="48.626915" lon="10.193927">
<ele>408.082</ele>
<time>2020-09-10T10:33:25Z</time>
</trkpt>
<trkpt lat="48.626915" lon="10.194016">
<ele>408.082</ele>
<time>2020-09-10T10:33:26Z</time>
</trkpt>
<trkpt lat="48.626919" lon="10.194109">
<ele>408.082</ele>
<time>2020-09-10T10:33:27Z</time>
</trkpt>
<trkpt lat="48.626919" lon="10.1942">
<ele>408.082</ele>
<time>2020-09-10T10:33:28Z</time>
</trkpt>
<trkpt lat="48.626919" lon="10.194291">
<ele>408.082</ele>
<time>2020-09-10T10:33:29Z</time>
</trkpt>
<trkpt lat="48.626926" lon="10.194386">
<ele>408.082</ele>
<time>2020-09-10T10:33:30Z</time>
</trkpt>
<trkpt lat="48.62693" lon="10.194478">
<ele>408.082</ele>
<time>2020-09-10T10:33:31Z</time>
</trkpt>
<trkpt lat="48.626938" lon="10.19457">
<ele>408.082</ele>
<time>2020-09-10T10:33:32Z</time>
</trkpt>
<trkpt lat="48.626949" lon="10.194662">
<ele>408.082</ele>
<time>2020-09-10T10:33:33Z</time>
</trkpt>
<trkpt lat="48.626953" lon="10.194753">
<ele>408.082</ele>
<time>2020-09-10T10:33:34Z</time>
</trkpt>
<trkpt lat="48.626961" lon="10.194843">
<ele>408.082</ele>
<time>2020-09-10T10:33:35Z</time>
</trkpt>
<trkpt lat="48.626965" lon="10.194932">
<ele>408.082</ele>
<time>2020-09-10T10:33:36Z</time>
</trkpt>
<trkpt lat="48.626968" lon="10.195019">
<ele>408.082</ele>
<time>2020-09-10T10:33:37Z</time>
</trkpt>
<trkpt lat="48.626972" lon="10.195105">
<ele>408.082</ele>
<time>2020-09-10T10:33:38Z</time>
</trkpt>
<trkpt lat="48.626976" lon="10.19519">
<ele>408.082</ele>
<time>2020-09-10T10:33:39Z</time>
</trkpt>
<trkpt lat="48.62698" lon="10.195274">
<ele>408.082</ele>
<time>2020-09-10T10:33:40Z</time>
</trkpt>
<trkpt lat="48.626984" lon="10.195358">
<ele>408.082</ele>
<time>2020-09-10T10:33:41Z</time>
</trkpt>
<trkpt lat="48.626984" lon="10.195441">
<ele>408.082</ele>
<time>2020-09-10T10:33:42Z</time>
</trkpt>
<trkpt lat="48.626991" lon="10.195525">
<ele>408.082</ele>
<time>2020-09-10T10:33:43Z</time>
</trkpt>
<trkpt lat="48.626995" lon="10.19561">
<ele>408.082</ele>
<time>2020-09-10T10:33:44Z</time>
</trkpt>
<trkpt lat="48.627003" lon="10.195697">
<ele>408.082</ele>
<time>2020-09-10T10:33:45Z</time>
</trkpt>
<trkpt lat="48.627014" lon="10.195786">
<ele>408.082</ele>
<time>2020-09-10T10:33:46Z</time>
</trkpt>
<trkpt lat="48.627018" lon="10.195875">
<ele>408.082</ele>
<time>2020-09-10T10:33:47Z</time>
</trkpt>
<trkpt lat="48.627026" lon="10.195961">
<ele>407.764</ele>
<time>2020-09-10T10:33:48Z</time>
</trkpt>
<trkpt lat="48.627033" lon="10.196052">
<ele>407.517</ele>
<time>2020-09-10T10:33:49Z</time>
</trkpt>
<trkpt lat="48.627041" lon="10.196139">
<ele>407.331</ele>
<time>2020-09-10T10:33:50Z</time>
</trkpt>
<trkpt lat="48.627045" lon="10.196228">
<ele>407.191</ele>
<time>2020-09-10T10:33:51Z</time>
</trkpt>
<trkpt lat="48.627045" lon="10.196315">
<ele>407.101</ele>
<time>2020-09-10T10:33:52Z</time>
</trkpt>
<trkpt lat="48.627048" lon="10.196402">
<ele>407.039</ele>
<time>2020-09-10T10:33:53Z</time>
</trkpt>
<trkpt lat="48.627045" lon="10.196489">
<ele>406.991</ele>
<time>2020-09-10T10:33:54Z</time>
</trkpt>
<trkpt lat="48.627045" lon="10.196579">
<ele>406.959</ele>
<time>2020-09-10T10:33:55Z</time>
</trkpt>
<trkpt lat="48.627045" lon="10.196667">
<ele>406.959</ele>
<time>2020-09-10T10:33:56Z</time>
</trkpt>
<trkpt lat="48.627048" lon="10.196757">
<ele>406.959</ele>
<time>2020-09-10T10:33:57Z</time>
</trkpt>
<trkpt lat="48.627048" lon="10.196847">
<ele>406.959</ele>
<time>2020-09-10T10:33:58Z</time>
</trkpt>
<trkpt lat="48.627048" lon="10.196934">
<ele>406.959</ele>
<time>2020-09-10T10:33:59Z</time>
</trkpt>
<trkpt lat="48.627048" lon="10.19702">
<ele>406.959</ele>
<time>2020-09-10T10:34:00Z</time>
</trkpt>
<trkpt lat="48.627052" lon="10.197104">
<ele>406.959</ele>
<time>2020-09-10T10:34:01Z</time>
</trkpt>
<trkpt lat="48.627052" lon="10.197185">
<ele>406.959</ele>
<time>2020-09-10T10:34:02Z</time>
</trkpt>
<trkpt lat="48.627052" lon="10.197265">
<ele>406.959</ele>
<time>2020-09-10T10:34:03Z</time>
</trkpt>
<trkpt lat="48.627048" lon="10.197345">
<ele>406.959</ele>
<time>2020-09-10T10:34:04Z</time>
</trkpt>
<trkpt lat="48.627045" lon="10.197425">
<ele>406.959</ele>
<time>2020-09-10T10:34:05Z</time>
</trkpt>
<trkpt lat="48.627041" lon="10.197507">
<ele>406.959</ele>
<time>2020-09-10T10:34:06Z</time>
</trkpt>
<trkpt lat="48.627037" lon="10.19759">
<ele>406.959</ele>
<time>2020-09-10T10:34:07Z</time>
</trkpt>
<trkpt lat="48.627033" lon="10.197671">
<ele>406.959</ele>
<time>2020-09-10T10:34:08Z</time>
</trkpt>
<trkpt lat="48.627029" lon="10.197757">
<ele>406.959</ele>
<time>2020-09-10T10:34:09Z</time>
</trkpt>
<trkpt lat="48.627026" lon="10.197841">
<ele>406.959</ele>
<time>2020-09-10T10:34:10Z</time>
</trkpt>
<trkpt lat="48.627022" lon="10.197925">
<ele>406.959</ele>
<time>2020-09-10T10:34:11Z</time>
</trkpt>
<trkpt lat="48.627022" lon="10.19801">
<ele>406.959</ele>
<time>2020-09-10T10:34:12Z</time>
</trkpt>
<trkpt lat="48.627026" lon="10.198093">
<ele>406.959</ele>
<time>2020-09-10T10:34:13Z</time>
</trkpt>
<trkpt lat="48.627029" lon="10.19818">
<ele>406.959</ele>
<time>2020-09-10T10:34:14Z</time>
</trkpt>
<trkpt lat="48.627033" lon="10.198266">
<ele>406.959</ele>
<time>2020-09-10T10:34:15Z</time>
</trkpt>
<trkpt lat="48.627037" lon="10.198354">
<ele>406.959</ele>
<time>2020-09-10T10:34:16Z</time>
</trkpt>
<trkpt lat="48.627041" lon="10.198442">
<ele>406.959</ele>
<time>2020-09-10T10:34:17Z</time>
</trkpt>
<trkpt lat="48.627045" lon="10.198528">
<ele>406.959</ele>
<time>2020-09-10T10:34:18Z</time>
</trkpt>
<trkpt lat="48.627048" lon="10.198609">
<ele>406.959</ele>
<time>2020-09-10T10:34:19Z</time>
</trkpt>
<trkpt lat="48.627056" lon="10.198691">
<ele>406.959</ele>
<time>2020-09-10T10:34:20Z</time>
</trkpt>
<trkpt lat="48.627071" lon="10.198771">
<ele>406.959</ele>
<time>2020-09-10T10:34:21Z</time>
</trkpt>
<trkpt lat="48.627087" lon="10.198845">
<ele>406.959</ele>
<time>2020-09-10T10:34:22Z</time>
</trkpt>
<trkpt lat="48.62711" lon="10.198917">
<ele>406.959</ele>
<time>2020-09-10T10:34:23Z</time>
</trkpt>
<trkpt lat="48.627129" lon="10.198985">
<ele>406.959</ele>
<time>2020-09-10T10:34:24Z</time>
</trkpt>
<trkpt lat="48.627155" lon="10.199054">
<ele>406.959</ele>
<time>2020-09-10T10:34:25Z</time>
</trkpt>
<trkpt lat="48.627186" lon="10.199121">
<ele>406.959</ele>
<time>2020-09-10T10:34:26Z</time>
</trkpt>
<trkpt lat="48.627216" lon="10.19919">
<ele>406.959</ele>
<time>2020-09-10T10:34:27Z</time>
</trkpt>
<trkpt lat="48.627247" lon="10.19926">
<ele>406.959</ele>
<time>2020-09-10T10:34:28Z</time>
</trkpt>
<trkpt lat="48.627277" lon="10.199332">
<ele>406.959</ele>
<time>2020-09-10T10:34:29Z</time>
</trkpt>
<trkpt lat="48.627304" lon="10.199407">
<ele>406.959</ele>
<time>2020-09-10T10:34:30Z</time>
</trkpt>
<trkpt lat="48.627323" lon="10.19948">
<ele>406.96</ele>
<time>2020-09-10T10:34:31Z</time>
</trkpt>
<trkpt lat="48.627342" lon="10.199558">
<ele>406.959</ele>
<time>2020-09-10T10:34:32Z</time>
</trkpt>
<trkpt lat="48.627354" lon="10.199636">
<ele>406.959</ele>
<time>2020-09-10T10:34:33Z</time>
</trkpt>
<trkpt lat="48.627361" lon="10.199714">
<ele>406.959</ele>
<time>2020-09-10T10:34:34Z</time>
</trkpt>
<trkpt lat="48.627357" lon="10.199793">
<ele>406.959</ele>
<time>2020-09-10T10:34:35Z</time>
</trkpt>
<trkpt lat="48.62735" lon="10.199875">
<ele>406.959</ele>
<time>2020-09-10T10:34:36Z</time>
</trkpt>
<trkpt lat="48.627346" lon="10.199961">
<ele>406.959</ele>
<time>2020-09-10T10:34:37Z</time>
</trkpt>
<trkpt lat="48.627335" lon="10.200045">
<ele>406.959</ele>
<time>2020-09-10T10:34:38Z</time>
</trkpt>
<trkpt lat="48.627319" lon="10.20013">
<ele>406.959</ele>
<time>2020-09-10T10:34:39Z</time>
</trkpt>
<trkpt lat="48.627308" lon="10.200208">
<ele>406.959</ele>
<time>2020-09-10T10:34:40Z</time>
</trkpt>
<trkpt lat="48.627277" lon="10.200287">
<ele>406.959</ele>
<time>2020-09-10T10:34:41Z</time>
</trkpt>
<trkpt lat="48.627251" lon="10.200358">
<ele>406.959</ele>
<time>2020-09-10T10:34:42Z</time>
</trkpt>
<trkpt lat="48.62722" lon="10.200428">
<ele>406.959</ele>
<time>2020-09-10T10:34:43Z</time>
</trkpt>
<trkpt lat="48.627186" lon="10.200495">
<ele>406.959</ele>
<time>2020-09-10T10:34:44Z</time>
</trkpt>
<trkpt lat="48.627148" lon="10.200552">
<ele>406.959</ele>
<time>2020-09-10T10:34:45Z</time>
</trkpt>
<trkpt lat="48.627102" lon="10.20061">
<ele>406.959</ele>
<time>2020-09-10T10:34:46Z</time>
</trkpt>
<trkpt lat="48.627064" lon="10.200677">
<ele>406.959</ele>
<time>2020-09-10T10:34:47Z</time>
</trkpt>
<trkpt lat="48.627033" lon="10.200744">
<ele>406.959</ele>
<time>2020-09-10T10:34:48Z</time>
</trkpt>
<trkpt lat="48.627007" lon="10.200799">
<ele>407.237</ele>
<time>2020-09-10T10:34:49Z</time>
</trkpt>
<trkpt lat="48.626976" lon="10.20085">
<ele>407.454</ele>
<time>2020-09-10T10:34:50Z</time>
</trkpt>
<trkpt lat="48.626953" lon="10.200898">
<ele>407.618</ele>
<time>2020-09-10T10:34:51Z</time>
</trkpt>
<trkpt lat="48.626938" lon="10.200947">
<ele>407.74</ele>
<time>2020-09-10T10:34:52Z</time>
</trkpt>
<trkpt lat="48.62693" lon="10.201002">
<ele>407.827</ele>
<time>2020-09-10T10:34:53Z</time>
</trkpt>
<trkpt lat="48.626934" lon="10.201055">
<ele>407.897</ele>
<time>2020-09-10T10:34:54Z</time>
</trkpt>
<trkpt lat="48.626945" lon="10.201107">
<ele>407.962</ele>
<time>2020-09-10T10:34:55Z</time>
</trkpt>
<trkpt lat="48.626953" lon="10.201155">
<ele>407.996</ele>
<time>2020-09-10T10:34:56Z</time>
</trkpt>
<trkpt lat="48.626957" lon="10.201203">
<ele>407.996</ele>
<time>2020-09-10T10:34:57Z</time>
</trkpt>
<trkpt lat="48.626957" lon="10.201257">
<ele>407.996</ele>
<time>2020-09-10T10:34:58Z</time>
</trkpt>
<trkpt lat="48.626953" lon="10.201314">
<ele>407.996</ele>
<time>2020-09-10T10:34:59Z</time>
</trkpt>
<trkpt lat="48.626949" lon="10.20137">
<ele>407.996</ele>
<time>2020-09-10T10:35:00Z</time>
</trkpt>
<trkpt lat="48.626945" lon="10.201428">
<ele>407.996</ele>
<time>2020-09-10T10:35:01Z</time>
</trkpt>
<trkpt lat="48.626953" lon="10.201488">
<ele>407.996</ele>
<time>2020-09-10T10:35:02Z</time>
</trkpt>
<trkpt lat="48.626972" lon="10.201549">
<ele>407.996</ele>
<time>2020-09-10T10:35:03Z</time>
</trkpt>
<trkpt lat="48.626999" lon="10.201612">
<ele>407.996</ele>
<time>2020-09-10T10:35:04Z</time>
</trkpt>
<trkpt lat="48.627018" lon="10.201683">
<ele>407.996</ele>
<time>2020-09-10T10:35:05Z</time>
</trkpt>
<trkpt lat="48.627026" lon="10.201756">
<ele>407.996</ele>
<time>2020-09-10T10:35:06Z</time>
</trkpt>
<trkpt lat="48.627029" lon="10.201832">
<ele>407.996</ele>
<time>2020-09-10T10:35:07Z</time>
</trkpt>
<trkpt lat="48.627029" lon="10.201903">
<ele>407.996</ele>
<time>2020-09-10T10:35:08Z</time>
</trkpt>
<trkpt lat="48.627026" lon="10.201974">
<ele>407.996</ele>
<time>2020-09-10T10:35:09Z</time>
</trkpt>
<trkpt lat="48.627026" lon="10.202044">
<ele>407.996</ele>
<time>2020-09-10T10:35:10Z</time>
</trkpt>
<trkpt lat="48.627026" lon="10.202115">
<ele>407.996</ele>
<time>2020-09-10T10:35:11Z</time>
</trkpt>
<trkpt lat="48.627033" lon="10.20218">
<ele>407.996</ele>
<time>2020-09-10T10:35:12Z</time>
</trkpt>
<trkpt lat="48.627041" lon="10.202245">
<ele>407.996</ele>
<time>2020-09-10T10:35:13Z</time>
</trkpt>
<trkpt lat="48.627048" lon="10.202305">
<ele>407.996</ele>
<time>2020-09-10T10:35:14Z</time>
</trkpt>
<trkpt lat="48.627037" lon="10.202366">
<ele>407.996</ele>
<time>2020-09-10T10:35:15Z</time>
</trkpt>
<trkpt lat="48.627007" lon="10.202418">
<ele>407.996</ele>
<time>2020-09-10T10:35:16Z</time>
</trkpt>
<trkpt lat="48.626976" lon="10.202478">
<ele>407.996</ele>
<time>2020-09-10T10:35:17Z</time>
</trkpt>
<trkpt lat="48.626949" lon="10.202498">
<ele>407.996</ele>
<time>2020-09-10T10:35:18Z</time>
</trkpt>
<trkpt lat="48.626911" lon="10.202517">
<ele>407.996</ele>
<time>2020-09-10T10:35:19Z</time>
</trkpt>
<trkpt lat="48.626873" lon="10.202525">
<ele>407.996</ele>
<time>2020-09-10T10:35:20Z</time>
</trkpt>
<trkpt lat="48.626823" lon="10.202537">
<ele>407.996</ele>
<time>2020-09-10T10:35:21Z</time>
</trkpt>
<trkpt lat="48.626774" lon="10.202557">
<ele>407.996</ele>
<time>2020-09-10T10:35:22Z</time>
</trkpt>
<trkpt lat="48.626728" lon="10.202585">
<ele>407.996</ele>
<time>2020-09-10T10:35:23Z</time>
</trkpt>
<trkpt lat="48.626686" lon="10.202615">
<ele>407.996</ele>
<time>2020-09-10T10:35:24Z</time>
</trkpt>
<trkpt lat="48.626637" lon="10.20265">
<ele>408.263</ele>
<time>2020-09-10T10:35:25Z</time>
</trkpt>
<trkpt lat="48.626595" lon="10.202683">
<ele>408.494</ele>
<time>2020-09-10T10:35:26Z</time>
</trkpt>
<trkpt lat="48.626545" lon="10.202715">
<ele>408.655</ele>
<time>2020-09-10T10:35:27Z</time>
</trkpt>
<trkpt lat="48.626495" lon="10.202749">
<ele>408.786</ele>
<time>2020-09-10T10:35:28Z</time>
</trkpt>
<trkpt lat="48.626453" lon="10.202786">
<ele>408.861</ele>
<time>2020-09-10T10:35:29Z</time>
</trkpt>
<trkpt lat="48.626411" lon="10.202825">
<ele>409.16</ele>
<time>2020-09-10T10:35:30Z</time>
</trkpt>
<trkpt lat="48.626369" lon="10.202868">
<ele>409.395</ele>
<time>2020-09-10T10:35:31Z</time>
</trkpt>
<trkpt lat="48.626335" lon="10.202911">
<ele>409.535</ele>
<time>2020-09-10T10:35:32Z</time>
</trkpt>
<trkpt lat="48.626305" lon="10.202965">
<ele>409.883</ele>
<time>2020-09-10T10:35:33Z</time>
</trkpt>
<trkpt lat="48.626278" lon="10.203024">
<ele>410.139</ele>
<time>2020-09-10T10:35:34Z</time>
</trkpt>
<trkpt lat="48.626259" lon="10.203091">
<ele>410.379</ele>
<time>2020-09-10T10:35:35Z</time>
</trkpt>
<trkpt lat="48.626236" lon="10.20316">
<ele>410.563</ele>
<time>2020-09-10T10:35:36Z</time>
</trkpt>
<trkpt lat="48.626221" lon="10.20323">
<ele>410.696</ele>
<time>2020-09-10T10:35:37Z</time>
</trkpt>
<trkpt lat="48.626205" lon="10.203299">
<ele>410.773</ele>
<time>2020-09-10T10:35:38Z</time>
</trkpt>
<trkpt lat="48.62619" lon="10.203365">
<ele>410.823</ele>
<time>2020-09-10T10:35:39Z</time>
</trkpt>
<trkpt lat="48.626175" lon="10.203437">
<ele>410.846</ele>
<time>2020-09-10T10:35:40Z</time>
</trkpt>
<trkpt lat="48.626163" lon="10.203506">
<ele>410.846</ele>
<time>2020-09-10T10:35:41Z</time>
</trkpt>
<trkpt lat="48.626144" lon="10.203575">
<ele>410.846</ele>
<time>2020-09-10T10:35:42Z</time>
</trkpt>
<trkpt lat="48.626129" lon="10.203645">
<ele>410.846</ele>
<time>2020-09-10T10:35:43Z</time>
</trkpt>
<trkpt lat="48.62611" lon="10.203715">
<ele>410.846</ele>
<time>2020-09-10T10:35:44Z</time>
</trkpt>
<trkpt lat="48.626095" lon="10.203785">
<ele>410.635</ele>
<time>2020-09-10T10:35:45Z</time>
</trkpt>
<trkpt lat="48.62608" lon="10.203857">
<ele>410.457</ele>
<time>2020-09-10T10:35:46Z</time>
</trkpt>
<trkpt lat="48.626072" lon="10.20393">
<ele>410.312</ele>
<time>2020-09-10T10:35:47Z</time>
</trkpt>
<trkpt lat="48.626064" lon="10.204006">
<ele>410.197</ele>
<time>2020-09-10T10:35:48Z</time>
</trkpt>
<trkpt lat="48.626072" lon="10.20408">
<ele>410.107</ele>
<time>2020-09-10T10:35:49Z</time>
</trkpt>
<trkpt lat="48.626087" lon="10.204141">
<ele>410.043</ele>
<time>2020-09-10T10:35:50Z</time>
</trkpt>
<trkpt lat="48.626106" lon="10.20419">
<ele>410.002</ele>
<time>2020-09-10T10:35:51Z</time>
</trkpt>
<trkpt lat="48.626129" lon="10.204232">
<ele>409.982</ele>
<time>2020-09-10T10:35:52Z</time>
</trkpt>
<trkpt lat="48.626141" lon="10.204275">
<ele>409.982</ele>
<time>2020-09-10T10:35:53Z</time>
</trkpt>
<trkpt lat="48.626152" lon="10.20432">
<ele>409.786</ele>
<time>2020-09-10T10:35:54Z</time>
</trkpt>
<trkpt lat="48.626156" lon="10.204363">
<ele>409.604</ele>
<time>2020-09-10T10:35:55Z</time>
</trkpt>
<trkpt lat="48.626156" lon="10.204403">
<ele>409.447</ele>
<time>2020-09-10T10:35:56Z</time>
</trkpt>
<trkpt lat="48.626152" lon="10.204445">
<ele>409.311</ele>
<time>2020-09-10T10:35:57Z</time>
</trkpt>
<trkpt lat="48.626141" lon="10.20449">
<ele>409.197</ele>
<time>2020-09-10T10:35:58Z</time>
</trkpt>
<trkpt lat="48.626129" lon="10.204536">
<ele>409.111</ele>
<time>2020-09-10T10:35:59Z</time>
</trkpt>
<trkpt lat="48.626106" lon="10.204587">
<ele>409.056</ele>
<time>2020-09-10T10:36:00Z</time>
</trkpt>
<trkpt lat="48.626076" lon="10.204645">
<ele>409.032</ele>
<time>2020-09-10T10:36:01Z</time>
</trkpt>
<trkpt lat="48.626041" lon="10.20471">
<ele>409.032</ele>
<time>2020-09-10T10:36:02Z</time>
</trkpt>
<trkpt lat="48.626003" lon="10.204778">
<ele>408.73</ele>
<time>2020-09-10T10:36:03Z</time>
</trkpt>
<trkpt lat="48.625965" lon="10.204846">
<ele>408.542</ele>
<time>2020-09-10T10:36:04Z</time>
</trkpt>
<trkpt lat="48.625919" lon="10.204913">
<ele>408.35</ele>
<time>2020-09-10T10:36:05Z</time>
</trkpt>
<trkpt lat="48.625877" lon="10.20498">
<ele>408.215</ele>
<time>2020-09-10T10:36:06Z</time>
</trkpt>
<trkpt lat="48.625839" lon="10.205047">
<ele>408.121</ele>
<time>2020-09-10T10:36:07Z</time>
</trkpt>
<trkpt lat="48.625797" lon="10.205116">
<ele>408.058</ele>
<time>2020-09-10T10:36:08Z</time>
</trkpt>
<trkpt lat="48.625755" lon="10.205188">
<ele>408.017</ele>
<time>2020-09-10T10:36:09Z</time>
</trkpt>
<trkpt lat="48.625721" lon="10.205265">
<ele>407.996</ele>
<time>2020-09-10T10:36:10Z</time>
</trkpt>
<trkpt lat="48.62569" lon="10.205347">
<ele>407.996</ele>
<time>2020-09-10T10:36:11Z</time>
</trkpt>
<trkpt lat="48.625664" lon="10.205429">
<ele>407.996</ele>
<time>2020-09-10T10:36:12Z</time>
</trkpt>
<trkpt lat="48.625637" lon="10.205511">
<ele>407.996</ele>
<time>2020-09-10T10:36:13Z</time>
</trkpt>
<trkpt lat="48.625614" lon="10.205601">
<ele>407.996</ele>
<time>2020-09-10T10:36:14Z</time>
</trkpt>
<trkpt lat="48.625587" lon="10.205688">
<ele>407.996</ele>
<time>2020-09-10T10:36:15Z</time>
</trkpt>
<trkpt lat="48.625565" lon="10.205777">
<ele>407.996</ele>
<time>2020-09-10T10:36:16Z</time>
</trkpt>
<trkpt lat="48.625538" lon="10.205867">
<ele>407.996</ele>
<time>2020-09-10T10:36:17Z</time>
</trkpt>
<trkpt lat="48.625511" lon="10.205956">
<ele>407.996</ele>
<time>2020-09-10T10:36:18Z</time>
</trkpt>
<trkpt lat="48.625484" lon="10.206043">
<ele>407.996</ele>
<time>2020-09-10T10:36:19Z</time>
</trkpt>
<trkpt lat="48.625458" lon="10.206128">
<ele>407.996</ele>
<time>2020-09-10T10:36:20Z</time>
</trkpt>
<trkpt lat="48.625435" lon="10.206213">
<ele>407.996</ele>
<time>2020-09-10T10:36:21Z</time>
</trkpt>
<trkpt lat="48.625408" lon="10.206295">
<ele>407.996</ele>
<time>2020-09-10T10:36:22Z</time>
</trkpt>
<trkpt lat="48.625378" lon="10.206373">
<ele>407.768</ele>
<time>2020-09-10T10:36:23Z</time>
</trkpt>
<trkpt lat="48.625355" lon="10.206451">
<ele>407.604</ele>
<time>2020-09-10T10:36:24Z</time>
</trkpt>
<trkpt lat="48.625324" lon="10.206533">
<ele>407.438</ele>
<time>2020-09-10T10:36:25Z</time>
</trkpt>
<trkpt lat="48.625301" lon="10.206613">
<ele>407.302</ele>
<time>2020-09-10T10:36:26Z</time>
</trkpt>
<trkpt lat="48.625278" lon="10.206695">
<ele>407.196</ele>
<time>2020-09-10T10:36:27Z</time>
</trkpt>
<trkpt lat="48.625252" lon="10.206775">
<ele>407.119</ele>
<time>2020-09-10T10:36:28Z</time>
</trkpt>
<trkpt lat="48.625225" lon="10.206857">
<ele>407.07</ele>
<time>2020-09-10T10:36:29Z</time>
</trkpt>
<trkpt lat="48.625202" lon="10.206938">
<ele>407.046</ele>
<time>2020-09-10T10:36:30Z</time>
</trkpt>
<trkpt lat="48.625179" lon="10.207022">
<ele>407.046</ele>
<time>2020-09-10T10:36:31Z</time>
</trkpt>
<trkpt lat="48.625156" lon="10.207105">
<ele>407.046</ele>
<time>2020-09-10T10:36:32Z</time>
</trkpt>
<trkpt lat="48.625134" lon="10.207187">
<ele>407.046</ele>
<time>2020-09-10T10:36:33Z</time>
</trkpt>
<trkpt lat="48.625111" lon="10.207267">
<ele>407.046</ele>
<time>2020-09-10T10:36:34Z</time>
</trkpt>
<trkpt lat="48.625092" lon="10.207345">
<ele>407.046</ele>
<time>2020-09-10T10:36:35Z</time>
</trkpt>
<trkpt lat="48.625061" lon="10.207419">
<ele>407.046</ele>
<time>2020-09-10T10:36:36Z</time>
</trkpt>
<trkpt lat="48.625034" lon="10.207495">
<ele>407.046</ele>
<time>2020-09-10T10:36:37Z</time>
</trkpt>
<trkpt lat="48.625011" lon="10.207568">
<ele>407.046</ele>
<time>2020-09-10T10:36:38Z</time>
</trkpt>
<trkpt lat="48.624989" lon="10.207635">
<ele>407.046</ele>
<time>2020-09-10T10:36:39Z</time>
</trkpt>
<trkpt lat="48.624962" lon="10.207693">
<ele>407.046</ele>
<time>2020-09-10T10:36:40Z</time>
</trkpt>
<trkpt lat="48.624947" lon="10.207744">
<ele>407.046</ele>
<time>2020-09-10T10:36:41Z</time>
</trkpt>
<trkpt lat="48.624931" lon="10.207792">
<ele>407.046</ele>
<time>2020-09-10T10:36:42Z</time>
</trkpt>
<trkpt lat="48.624916" lon="10.207833">
<ele>407.046</ele>
<time>2020-09-10T10:36:43Z</time>
</trkpt>
<trkpt lat="48.624901" lon="10.207867">
<ele>407.046</ele>
<time>2020-09-10T10:36:44Z</time>
</trkpt>
<trkpt lat="48.624893" lon="10.2079">
<ele>407.046</ele>
<time>2020-09-10T10:36:45Z</time>
</trkpt>
<trkpt lat="48.624882" lon="10.207929">
<ele>407.046</ele>
<time>2020-09-10T10:36:46Z</time>
</trkpt>
<trkpt lat="48.62487" lon="10.207962">
<ele>407.046</ele>
<time>2020-09-10T10:36:47Z</time>
</trkpt>
<trkpt lat="48.624859" lon="10.208">
<ele>407.046</ele>
<time>2020-09-10T10:36:48Z</time>
</trkpt>
<trkpt lat="48.624844" lon="10.208037">
<ele>407.046</ele>
<time>2020-09-10T10:36:49Z</time>
</trkpt>
<trkpt lat="48.624832" lon="10.208074">
<ele>407.046</ele>
<time>2020-09-10T10:36:50Z</time>
</trkpt>
<trkpt lat="48.624817" lon="10.208112">
<ele>407.046</ele>
<time>2020-09-10T10:36:51Z</time>
</trkpt>
<trkpt lat="48.624802" lon="10.20815">
<ele>407.046</ele>
<time>2020-09-10T10:36:52Z</time>
</trkpt>
<trkpt lat="48.62479" lon="10.20819">
<ele>407.046</ele>
<time>2020-09-10T10:36:53Z</time>
</trkpt>
<trkpt lat="48.624771" lon="10.208239">
<ele>407.046</ele>
<time>2020-09-10T10:36:54Z</time>
</trkpt>
<trkpt lat="48.624752" lon="10.208288">
<ele>407.046</ele>
<time>2020-09-10T10:36:55Z</time>
</trkpt>
<trkpt lat="48.624733" lon="10.208344">
<ele>407.046</ele>
<time>2020-09-10T10:36:56Z</time>
</trkpt>
<trkpt lat="48.62471" lon="10.208402">
<ele>407.046</ele>
<time>2020-09-10T10:36:57Z</time>
</trkpt>
<trkpt lat="48.624683" lon="10.208465">
<ele>407.046</ele>
<time>2020-09-10T10:36:58Z</time>
</trkpt>
<trkpt lat="48.62466" lon="10.208528">
<ele>407.046</ele>
<time>2020-09-10T10:36:59Z</time>
</trkpt>
<trkpt lat="48.62463" lon="10.208593">
<ele>407.046</ele>
<time>2020-09-10T10:37:00Z</time>
</trkpt>
<trkpt lat="48.624599" lon="10.208655">
<ele>407.046</ele>
<time>2020-09-10T10:37:01Z</time>
</trkpt>
<trkpt lat="48.624569" lon="10.208714">
<ele>407.046</ele>
<time>2020-09-10T10:37:02Z</time>
</trkpt>
<trkpt lat="48.624538" lon="10.208776">
<ele>407.046</ele>
<time>2020-09-10T10:37:03Z</time>
</trkpt>
<trkpt lat="48.624512" lon="10.208845">
<ele>407.046</ele>
<time>2020-09-10T10:37:04Z</time>
</trkpt>
<trkpt lat="48.624485" lon="10.208915">
<ele>407.046</ele>
<time>2020-09-10T10:37:05Z</time>
</trkpt>
<trkpt lat="48.624462" lon="10.208984">
<ele>407.046</ele>
<time>2020-09-10T10:37:06Z</time>
</trkpt>
<trkpt lat="48.624439" lon="10.209058">
<ele>407.046</ele>
<time>2020-09-10T10:37:07Z</time>
</trkpt>
<trkpt lat="48.624413" lon="10.209131">
<ele>407.046</ele>
<time>2020-09-10T10:37:08Z</time>
</trkpt>
<trkpt lat="48.62439" lon="10.209205">
<ele>407.046</ele>
<time>2020-09-10T10:37:09Z</time>
</trkpt>
<trkpt lat="48.624363" lon="10.20928">
<ele>407.046</ele>
<time>2020-09-10T10:37:10Z</time>
</trkpt>
<trkpt lat="48.62434" lon="10.209355">
<ele>407.046</ele>
<time>2020-09-10T10:37:11Z</time>
</trkpt>
<trkpt lat="48.624313" lon="10.209431">
<ele>407.046</ele>
<time>2020-09-10T10:37:12Z</time>
</trkpt>
<trkpt lat="48.62429" lon="10.209505">
<ele>407.046</ele>
<time>2020-09-10T10:37:13Z</time>
</trkpt>
<trkpt lat="48.624268" lon="10.209581">
<ele>407.046</ele>
<time>2020-09-10T10:37:14Z</time>
</trkpt>
<trkpt lat="48.624245" lon="10.209659">
<ele>407.046</ele>
<time>2020-09-10T10:37:15Z</time>
</trkpt>
<trkpt lat="48.624218" lon="10.209737">
<ele>407.046</ele>
<time>2020-09-10T10:37:16Z</time>
</trkpt>
<trkpt lat="48.624199" lon="10.209816">
<ele>407.046</ele>
<time>2020-09-10T10:37:17Z</time>
</trkpt>
<trkpt lat="48.62418" lon="10.209898">
<ele>407.046</ele>
<time>2020-09-10T10:37:18Z</time>
</trkpt>
<trkpt lat="48.624153" lon="10.20998">
<ele>407.046</ele>
<time>2020-09-10T10:37:19Z</time>
</trkpt>
<trkpt lat="48.624134" lon="10.210061">
<ele>407.046</ele>
<time>2020-09-10T10:37:20Z</time>
</trkpt>
<trkpt lat="48.624115" lon="10.210141">
<ele>407.046</ele>
<time>2020-09-10T10:37:21Z</time>
</trkpt>
<trkpt lat="48.624092" lon="10.21022">
<ele>407.046</ele>
<time>2020-09-10T10:37:22Z</time>
</trkpt>
<trkpt lat="48.624073" lon="10.2103">
<ele>407.046</ele>
<time>2020-09-10T10:37:23Z</time>
</trkpt>
<trkpt lat="48.624054" lon="10.210382">
<ele>407.046</ele>
<time>2020-09-10T10:37:24Z</time>
</trkpt>
<trkpt lat="48.624039" lon="10.210465">
<ele>407.046</ele>
<time>2020-09-10T10:37:25Z</time>
</trkpt>
<trkpt lat="48.62402" lon="10.210546">
<ele>407.046</ele>
<time>2020-09-10T10:37:26Z</time>
</trkpt>
<trkpt lat="48.624004" lon="10.210629">
<ele>407.046</ele>
<time>2020-09-10T10:37:27Z</time>
</trkpt>
<trkpt lat="48.623989" lon="10.210711">
<ele>407.046</ele>
<time>2020-09-10T10:37:28Z</time>
</trkpt>
<trkpt lat="48.623978" lon="10.210792">
<ele>407.046</ele>
<time>2020-09-10T10:37:29Z</time>
</trkpt>
<trkpt lat="48.623962" lon="10.210874">
<ele>407.046</ele>
<time>2020-09-10T10:37:30Z</time>
</trkpt>
<trkpt lat="48.623951" lon="10.210956">
<ele>407.046</ele>
<time>2020-09-10T10:37:31Z</time>
</trkpt>
<trkpt lat="48.623936" lon="10.211033">
<ele>407.046</ele>
<time>2020-09-10T10:37:32Z</time>
</trkpt>
<trkpt lat="48.62392" lon="10.211113">
<ele>407.046</ele>
<time>2020-09-10T10:37:33Z</time>
</trkpt>
<trkpt lat="48.623909" lon="10.211195">
<ele>407.046</ele>
<time>2020-09-10T10:37:34Z</time>
</trkpt>
<trkpt lat="48.623898" lon="10.211278">
<ele>407.046</ele>
<time>2020-09-10T10:37:35Z</time>
</trkpt>
<trkpt lat="48.623886" lon="10.211364">
<ele>407.046</ele>
<time>2020-09-10T10:37:36Z</time>
</trkpt>
<trkpt lat="48.623875" lon="10.211449">
<ele>407.046</ele>
<time>2020-09-10T10:37:37Z</time>
</trkpt>
<trkpt lat="48.623867" lon="10.211534">
<ele>407.046</ele>
<time>2020-09-10T10:37:38Z</time>
</trkpt>
<trkpt lat="48.623856" lon="10.21162">
<ele>406.808</ele>
<time>2020-09-10T10:37:39Z</time>
</trkpt>
<trkpt lat="48.623852" lon="10.211705">
<ele>406.623</ele>
<time>2020-09-10T10:37:40Z</time>
</trkpt>
<trkpt lat="48.62384" lon="10.211788">
<ele>406.483</ele>
<time>2020-09-10T10:37:41Z</time>
</trkpt>
<trkpt lat="48.623837" lon="10.211869">
<ele>406.381</ele>
<time>2020-09-10T10:37:42Z</time>
</trkpt>
<trkpt lat="48.623829" lon="10.211951">
<ele>406.309</ele>
<time>2020-09-10T10:37:43Z</time>
</trkpt>
<trkpt lat="48.623821" lon="10.212033">
<ele>406.255</ele>
<time>2020-09-10T10:37:44Z</time>
</trkpt>
<trkpt lat="48.623817" lon="10.212114">
<ele>406.206</ele>
<time>2020-09-10T10:37:45Z</time>
</trkpt>
<trkpt lat="48.623814" lon="10.2122">
<ele>406.182</ele>
<time>2020-09-10T10:37:46Z</time>
</trkpt>
<trkpt lat="48.62381" lon="10.212284">
<ele>406.182</ele>
<time>2020-09-10T10:37:47Z</time>
</trkpt>
<trkpt lat="48.623806" lon="10.212366">
<ele>406.182</ele>
<time>2020-09-10T10:37:48Z</time>
</trkpt>
<trkpt lat="48.623802" lon="10.212448">
<ele>406.182</ele>
<time>2020-09-10T10:37:49Z</time>
</trkpt>
<trkpt lat="48.623802" lon="10.212527">
<ele>406.182</ele>
<time>2020-09-10T10:37:50Z</time>
</trkpt>
<trkpt lat="48.623802" lon="10.212603">
<ele>406.182</ele>
<time>2020-09-10T10:37:51Z</time>
</trkpt>
<trkpt lat="48.623798" lon="10.212682">
<ele>406.182</ele>
<time>2020-09-10T10:37:52Z</time>
</trkpt>
<trkpt lat="48.623798" lon="10.212762">
<ele>406.182</ele>
<time>2020-09-10T10:37:53Z</time>
</trkpt>
<trkpt lat="48.623798" lon="10.212847">
<ele>406.182</ele>
<time>2020-09-10T10:37:54Z</time>
</trkpt>
<trkpt lat="48.623806" lon="10.212932">
<ele>406.182</ele>
<time>2020-09-10T10:37:55Z</time>
</trkpt>
<trkpt lat="48.62381" lon="10.213017">
<ele>406.182</ele>
<time>2020-09-10T10:37:56Z</time>
</trkpt>
<trkpt lat="48.623817" lon="10.213103">
<ele>406.182</ele>
<time>2020-09-10T10:37:57Z</time>
</trkpt>
<trkpt lat="48.623821" lon="10.213189">
<ele>406.182</ele>
<time>2020-09-10T10:37:58Z</time>
</trkpt>
<trkpt lat="48.623829" lon="10.213275">
<ele>406.182</ele>
<time>2020-09-10T10:37:59Z</time>
</trkpt>
<trkpt lat="48.623837" lon="10.21336">
<ele>406.182</ele>
<time>2020-09-10T10:38:00Z</time>
</trkpt>
<trkpt lat="48.623844" lon="10.213443">
<ele>406.182</ele>
<time>2020-09-10T10:38:01Z</time>
</trkpt>
<trkpt lat="48.623852" lon="10.213525">
<ele>406.182</ele>
<time>2020-09-10T10:38:02Z</time>
</trkpt>
<trkpt lat="48.623856" lon="10.213605">
<ele>406.182</ele>
<time>2020-09-10T10:38:03Z</time>
</trkpt>
<trkpt lat="48.623863" lon="10.213683">
<ele>406.182</ele>
<time>2020-09-10T10:38:04Z</time>
</trkpt>
<trkpt lat="48.623875" lon="10.213761">
<ele>406.182</ele>
<time>2020-09-10T10:38:05Z</time>
</trkpt>
<trkpt lat="48.623886" lon="10.21384">
<ele>406.182</ele>
<time>2020-09-10T10:38:06Z</time>
</trkpt>
<trkpt lat="48.623894" lon="10.213919">
<ele>406.182</ele>
<time>2020-09-10T10:38:07Z</time>
</trkpt>
<trkpt lat="48.623905" lon="10.213996">
<ele>406.182</ele>
<time>2020-09-10T10:38:08Z</time>
</trkpt>
<trkpt lat="48.623913" lon="10.214077">
<ele>406.182</ele>
<time>2020-09-10T10:38:09Z</time>
</trkpt>
<trkpt lat="48.62392" lon="10.214157">
<ele>406.182</ele>
<time>2020-09-10T10:38:10Z</time>
</trkpt>
<trkpt lat="48.623932" lon="10.214236">
<ele>406.182</ele>
<time>2020-09-10T10:38:11Z</time>
</trkpt>
<trkpt lat="48.623947" lon="10.214314">
<ele>406.182</ele>
<time>2020-09-10T10:38:12Z</time>
</trkpt>
<trkpt lat="48.623959" lon="10.21439">
<ele>406.182</ele>
<time>2020-09-10T10:38:13Z</time>
</trkpt>
<trkpt lat="48.623974" lon="10.214469">
<ele>406.182</ele>
<time>2020-09-10T10:38:14Z</time>
</trkpt>
<trkpt lat="48.623985" lon="10.214549">
<ele>406.182</ele>
<time>2020-09-10T10:38:15Z</time>
</trkpt>
<trkpt lat="48.624008" lon="10.21463">
<ele>406.182</ele>
<time>2020-09-10T10:38:16Z</time>
</trkpt>
<trkpt lat="48.624023" lon="10.214712">
<ele>406.461</ele>
<time>2020-09-10T10:38:17Z</time>
</trkpt>
<trkpt lat="48.624046" lon="10.214793">
<ele>406.674</ele>
<time>2020-09-10T10:38:18Z</time>
</trkpt>
<trkpt lat="48.624065" lon="10.214871">
<ele>406.837</ele>
<time>2020-09-10T10:38:19Z</time>
</trkpt>
<trkpt lat="48.624081" lon="10.214952">
<ele>406.955</ele>
<time>2020-09-10T10:38:20Z</time>
</trkpt>
<trkpt lat="48.624104" lon="10.215032">
<ele>407.038</ele>
<time>2020-09-10T10:38:21Z</time>
</trkpt>
<trkpt lat="48.624119" lon="10.215108">
<ele>407.087</ele>
<time>2020-09-10T10:38:22Z</time>
</trkpt>
<trkpt lat="48.624146" lon="10.215186">
<ele>406.93</ele>
<time>2020-09-10T10:38:23Z</time>
</trkpt>
<trkpt lat="48.624168" lon="10.215261">
<ele>406.8</ele>
<time>2020-09-10T10:38:24Z</time>
</trkpt>
<trkpt lat="48.624187" lon="10.215337">
<ele>406.761</ele>
<time>2020-09-10T10:38:25Z</time>
</trkpt>
<trkpt lat="48.624214" lon="10.215414">
<ele>406.611</ele>
<time>2020-09-10T10:38:26Z</time>
</trkpt>
<trkpt lat="48.624241" lon="10.215489">
<ele>406.49</ele>
<time>2020-09-10T10:38:27Z</time>
</trkpt>
<trkpt lat="48.624264" lon="10.215565">
<ele>406.398</ele>
<time>2020-09-10T10:38:28Z</time>
</trkpt>
<trkpt lat="48.624287" lon="10.215638">
<ele>406.332</ele>
<time>2020-09-10T10:38:29Z</time>
</trkpt>
<trkpt lat="48.624313" lon="10.215712">
<ele>406.289</ele>
<time>2020-09-10T10:38:30Z</time>
</trkpt>
<trkpt lat="48.62434" lon="10.215783">
<ele>406.268</ele>
<time>2020-09-10T10:38:31Z</time>
</trkpt>
<trkpt lat="48.624363" lon="10.215855">
<ele>406.268</ele>
<time>2020-09-10T10:38:32Z</time>
</trkpt>
<trkpt lat="48.624386" lon="10.215928">
<ele>406.269</ele>
<time>2020-09-10T10:38:33Z</time>
</trkpt>
<trkpt lat="48.624413" lon="10.216001">
<ele>406.268</ele>
<time>2020-09-10T10:38:34Z</time>
</trkpt>
<trkpt lat="48.624439" lon="10.216072">
<ele>406.268</ele>
<time>2020-09-10T10:38:35Z</time>
</trkpt>
<trkpt lat="48.62447" lon="10.216144">
<ele>406.268</ele>
<time>2020-09-10T10:38:36Z</time>
</trkpt>
<trkpt lat="48.624496" lon="10.216219">
<ele>406.268</ele>
<time>2020-09-10T10:38:37Z</time>
</trkpt>
<trkpt lat="48.624527" lon="10.216294">
<ele>406.269</ele>
<time>2020-09-10T10:38:38Z</time>
</trkpt>
<trkpt lat="48.624554" lon="10.21637">
<ele>406.268</ele>
<time>2020-09-10T10:38:39Z</time>
</trkpt>
<trkpt lat="48.624584" lon="10.216445">
<ele>406.268</ele>
<time>2020-09-10T10:38:40Z</time>
</trkpt>
<trkpt lat="48.624611" lon="10.216518">
<ele>406.268</ele>
<time>2020-09-10T10:38:41Z</time>
</trkpt>
<trkpt lat="48.624641" lon="10.216592">
<ele>406.268</ele>
<time>2020-09-10T10:38:42Z</time>
</trkpt>
<trkpt lat="48.624672" lon="10.216663">
<ele>406.269</ele>
<time>2020-09-10T10:38:43Z</time>
</trkpt>
<trkpt lat="48.624702" lon="10.216735">
<ele>406.268</ele>
<time>2020-09-10T10:38:44Z</time>
</trkpt>
<trkpt lat="48.624733" lon="10.216808">
<ele>406.268</ele>
<time>2020-09-10T10:38:45Z</time>
</trkpt>
<trkpt lat="48.624763" lon="10.216881">
<ele>406.268</ele>
<time>2020-09-10T10:38:46Z</time>
</trkpt>
<trkpt lat="48.62479" lon="10.216949">
<ele>406.269</ele>
<time>2020-09-10T10:38:47Z</time>
</trkpt>
<trkpt lat="48.624817" lon="10.217017">
<ele>406.007</ele>
<time>2020-09-10T10:38:48Z</time>
</trkpt>
<trkpt lat="48.624847" lon="10.217084">
<ele>405.799</ele>
<time>2020-09-10T10:38:49Z</time>
</trkpt>
<trkpt lat="48.624882" lon="10.217143">
<ele>405.644</ele>
<time>2020-09-10T10:38:50Z</time>
</trkpt>
<trkpt lat="48.624916" lon="10.217198">
<ele>405.527</ele>
<time>2020-09-10T10:38:51Z</time>
</trkpt>
<trkpt lat="48.624958" lon="10.217243">
<ele>405.445</ele>
<time>2020-09-10T10:38:52Z</time>
</trkpt>
<trkpt lat="48.625004" lon="10.217281">
<ele>405.39</ele>
<time>2020-09-10T10:38:53Z</time>
</trkpt>
<trkpt lat="48.625046" lon="10.217313">
<ele>405.346</ele>
<time>2020-09-10T10:38:54Z</time>
</trkpt>
<trkpt lat="48.625092" lon="10.217341">
<ele>405.319</ele>
<time>2020-09-10T10:38:55Z</time>
</trkpt>
<trkpt lat="48.62513" lon="10.217371">
<ele>405.319</ele>
<time>2020-09-10T10:38:56Z</time>
</trkpt>
<trkpt lat="48.625164" lon="10.217415">
<ele>405.319</ele>
<time>2020-09-10T10:38:57Z</time>
</trkpt>
<trkpt lat="48.625191" lon="10.21747">
<ele>405.319</ele>
<time>2020-09-10T10:38:58Z</time>
</trkpt>
<trkpt lat="48.625202" lon="10.217533">
<ele>405.319</ele>
<time>2020-09-10T10:38:59Z</time>
</trkpt>
<trkpt lat="48.62521" lon="10.217604">
<ele>405.319</ele>
<time>2020-09-10T10:39:00Z</time>
</trkpt>
<trkpt lat="48.625214" lon="10.217675">
<ele>405.319</ele>
<time>2020-09-10T10:39:01Z</time>
</trkpt>
<trkpt lat="48.625221" lon="10.217749">
<ele>405.319</ele>
<time>2020-09-10T10:39:02Z</time>
</trkpt>
<trkpt lat="48.625237" lon="10.217815">
<ele>405.319</ele>
<time>2020-09-10T10:39:03Z</time>
</trkpt>
<trkpt lat="48.625256" lon="10.217885">
<ele>405.319</ele>
<time>2020-09-10T10:39:04Z</time>
</trkpt>
<trkpt lat="48.625286" lon="10.217956">
<ele>405.319</ele>
<time>2020-09-10T10:39:05Z</time>
</trkpt>
<trkpt lat="48.625313" lon="10.218022">
<ele>405.319</ele>
<time>2020-09-10T10:39:06Z</time>
</trkpt>
<trkpt lat="48.625347" lon="10.218088">
<ele>405.319</ele>
<time>2020-09-10T10:39:07Z</time>
</trkpt>
<trkpt lat="48.625374" lon="10.218155">
<ele>405.319</ele>
<time>2020-09-10T10:39:08Z</time>
</trkpt>
<trkpt lat="48.625401" lon="10.218225">
<ele>405.319</ele>
<time>2020-09-10T10:39:09Z</time>
</trkpt>
<trkpt lat="48.625423" lon="10.218297">
<ele>405.319</ele>
<time>2020-09-10T10:39:10Z</time>
</trkpt>
<trkpt lat="48.62545" lon="10.218373">
<ele>405.319</ele>
<time>2020-09-10T10:39:11Z</time>
</trkpt>
<trkpt lat="48.625469" lon="10.21845">
<ele>405.319</ele>
<time>2020-09-10T10:39:12Z</time>
</trkpt>
<trkpt lat="48.625484" lon="10.218528">
<ele>405.319</ele>
<time>2020-09-10T10:39:13Z</time>
</trkpt>
<trkpt lat="48.625507" lon="10.218609">
<ele>405.319</ele>
<time>2020-09-10T10:39:14Z</time>
</trkpt>
<trkpt lat="48.625526" lon="10.218689">
<ele>405.319</ele>
<time>2020-09-10T10:39:15Z</time>
</trkpt>
<trkpt lat="48.625549" lon="10.218763">
<ele>405.319</ele>
<time>2020-09-10T10:39:16Z</time>
</trkpt>
<trkpt lat="48.625576" lon="10.218842">
<ele>405.319</ele>
<time>2020-09-10T10:39:17Z</time>
</trkpt>
<trkpt lat="48.625595" lon="10.218917">
<ele>405.319</ele>
<time>2020-09-10T10:39:18Z</time>
</trkpt>
<trkpt lat="48.625618" lon="10.21899">
<ele>405.319</ele>
<time>2020-09-10T10:39:19Z</time>
</trkpt>
<trkpt lat="48.625645" lon="10.21906">
<ele>405.319</ele>
<time>2020-09-10T10:39:20Z</time>
</trkpt>
<trkpt lat="48.625664" lon="10.219129">
<ele>405.319</ele>
<time>2020-09-10T10:39:21Z</time>
</trkpt>
<trkpt lat="48.625687" lon="10.219202">
<ele>405.55</ele>
<time>2020-09-10T10:39:22Z</time>
</trkpt>
<trkpt lat="48.625713" lon="10.219275">
<ele>405.737</ele>
<time>2020-09-10T10:39:23Z</time>
</trkpt>
<trkpt lat="48.625736" lon="10.219347">
<ele>405.867</ele>
<time>2020-09-10T10:39:24Z</time>
</trkpt>
<trkpt lat="48.625763" lon="10.219419">
<ele>406.007</ele>
<time>2020-09-10T10:39:25Z</time>
</trkpt>
<trkpt lat="48.625786" lon="10.21949">
<ele>406.109</ele>
<time>2020-09-10T10:39:26Z</time>
</trkpt>
<trkpt lat="48.625809" lon="10.219562">
<ele>406.403</ele>
<time>2020-09-10T10:39:27Z</time>
</trkpt>
<trkpt lat="48.625835" lon="10.219631">
<ele>406.633</ele>
<time>2020-09-10T10:39:28Z</time>
</trkpt>
<trkpt lat="48.625854" lon="10.219703">
<ele>406.801</ele>
<time>2020-09-10T10:39:29Z</time>
</trkpt>
<trkpt lat="48.625877" lon="10.219774">
<ele>406.964</ele>
<time>2020-09-10T10:39:30Z</time>
</trkpt>
<trkpt lat="48.625896" lon="10.219851">
<ele>407.042</ele>
<time>2020-09-10T10:39:31Z</time>
</trkpt>
<trkpt lat="48.625919" lon="10.219929">
<ele>407.086</ele>
<time>2020-09-10T10:39:32Z</time>
</trkpt>
<trkpt lat="48.625942" lon="10.220005">
<ele>407.112</ele>
<time>2020-09-10T10:39:33Z</time>
</trkpt>
<trkpt lat="48.625969" lon="10.22008">
<ele>407.132</ele>
<time>2020-09-10T10:39:34Z</time>
</trkpt>
<trkpt lat="48.625996" lon="10.220153">
<ele>407.132</ele>
<time>2020-09-10T10:39:35Z</time>
</trkpt>
<trkpt lat="48.626022" lon="10.220226">
<ele>407.132</ele>
<time>2020-09-10T10:39:36Z</time>
</trkpt>
<trkpt lat="48.626045" lon="10.220296">
<ele>407.132</ele>
<time>2020-09-10T10:39:37Z</time>
</trkpt>
<trkpt lat="48.626072" lon="10.220375">
<ele>407.132</ele>
<time>2020-09-10T10:39:38Z</time>
</trkpt>
<trkpt lat="48.626099" lon="10.220455">
<ele>407.132</ele>
<time>2020-09-10T10:39:39Z</time>
</trkpt>
<trkpt lat="48.626125" lon="10.220533">
<ele>406.879</ele>
<time>2020-09-10T10:39:40Z</time>
</trkpt>
<trkpt lat="48.626152" lon="10.220616">
<ele>406.681</ele>
<time>2020-09-10T10:39:41Z</time>
</trkpt>
<trkpt lat="48.626179" lon="10.220695">
<ele>406.529</ele>
<time>2020-09-10T10:39:42Z</time>
</trkpt>
<trkpt lat="48.626202" lon="10.220778">
<ele>406.413</ele>
<time>2020-09-10T10:39:43Z</time>
</trkpt>
<trkpt lat="48.626228" lon="10.220863">
<ele>406.336</ele>
<time>2020-09-10T10:39:44Z</time>
</trkpt>
<trkpt lat="48.626247" lon="10.220952">
<ele>406.254</ele>
<time>2020-09-10T10:39:45Z</time>
</trkpt>
<trkpt lat="48.626266" lon="10.221044">
<ele>406.206</ele>
<time>2020-09-10T10:39:46Z</time>
</trkpt>
<trkpt lat="48.626289" lon="10.221135">
<ele>406.182</ele>
<time>2020-09-10T10:39:47Z</time>
</trkpt>
<trkpt lat="48.626305" lon="10.221226">
<ele>406.182</ele>
<time>2020-09-10T10:39:48Z</time>
</trkpt>
<trkpt lat="48.626328" lon="10.221315">
<ele>406.182</ele>
<time>2020-09-10T10:39:49Z</time>
</trkpt>
<trkpt lat="48.626343" lon="10.221402">
<ele>406.182</ele>
<time>2020-09-10T10:39:50Z</time>
</trkpt>
<trkpt lat="48.626362" lon="10.221486">
<ele>406.182</ele>
<time>2020-09-10T10:39:51Z</time>
</trkpt>
<trkpt lat="48.626373" lon="10.22157">
<ele>406.182</ele>
<time>2020-09-10T10:39:52Z</time>
</trkpt>
<trkpt lat="48.626392" lon="10.221655">
<ele>406.182</ele>
<time>2020-09-10T10:39:53Z</time>
</trkpt>
<trkpt lat="48.626404" lon="10.221739">
<ele>406.182</ele>
<time>2020-09-10T10:39:54Z</time>
</trkpt>
<trkpt lat="48.626419" lon="10.22182">
<ele>406.182</ele>
<time>2020-09-10T10:39:55Z</time>
</trkpt>
<trkpt lat="48.626431" lon="10.221898">
<ele>406.182</ele>
<time>2020-09-10T10:39:56Z</time>
</trkpt>
<trkpt lat="48.626446" lon="10.221975">
<ele>406.182</ele>
<time>2020-09-10T10:39:57Z</time>
</trkpt>
<trkpt lat="48.626457" lon="10.222052">
<ele>406.182</ele>
<time>2020-09-10T10:39:58Z</time>
</trkpt>
<trkpt lat="48.626469" lon="10.22213">
<ele>406.182</ele>
<time>2020-09-10T10:39:59Z</time>
</trkpt>
<trkpt lat="48.62648" lon="10.22221">
<ele>406.182</ele>
<time>2020-09-10T10:40:00Z</time>
</trkpt>
<trkpt lat="48.626488" lon="10.222292">
<ele>406.182</ele>
<time>2020-09-10T10:40:01Z</time>
</trkpt>
<trkpt lat="48.626495" lon="10.222374">
<ele>406.182</ele>
<time>2020-09-10T10:40:02Z</time>
</trkpt>
<trkpt lat="48.626507" lon="10.222456">
<ele>406.182</ele>
<time>2020-09-10T10:40:03Z</time>
</trkpt>
<trkpt lat="48.626518" lon="10.222542">
<ele>406.182</ele>
<time>2020-09-10T10:40:04Z</time>
</trkpt>
<trkpt lat="48.626526" lon="10.222627">
<ele>406.182</ele>
<time>2020-09-10T10:40:05Z</time>
</trkpt>
<trkpt lat="48.626537" lon="10.222713">
<ele>406.182</ele>
<time>2020-09-10T10:40:06Z</time>
</trkpt>
<trkpt lat="48.626549" lon="10.222799">
<ele>406.182</ele>
<time>2020-09-10T10:40:07Z</time>
</trkpt>
<trkpt lat="48.626556" lon="10.222883">
<ele>406.182</ele>
<time>2020-09-10T10:40:08Z</time>
</trkpt>
<trkpt lat="48.62656" lon="10.222965">
<ele>406.182</ele>
<time>2020-09-10T10:40:09Z</time>
</trkpt>
<trkpt lat="48.626564" lon="10.223042">
<ele>406.182</ele>
<time>2020-09-10T10:40:10Z</time>
</trkpt>
<trkpt lat="48.626572" lon="10.223118">
<ele>406.182</ele>
<time>2020-09-10T10:40:11Z</time>
</trkpt>
<trkpt lat="48.626575" lon="10.223195">
<ele>406.182</ele>
<time>2020-09-10T10:40:12Z</time>
</trkpt>
<trkpt lat="48.626583" lon="10.223273">
<ele>406.182</ele>
<time>2020-09-10T10:40:13Z</time>
</trkpt>
<trkpt lat="48.626587" lon="10.223354">
<ele>406.182</ele>
<time>2020-09-10T10:40:14Z</time>
</trkpt>
<trkpt lat="48.626591" lon="10.223438">
<ele>406.182</ele>
<time>2020-09-10T10:40:15Z</time>
</trkpt>
<trkpt lat="48.626595" lon="10.223524">
<ele>406.182</ele>
<time>2020-09-10T10:40:16Z</time>
</trkpt>
<trkpt lat="48.626598" lon="10.223612">
<ele>406.182</ele>
<time>2020-09-10T10:40:17Z</time>
</trkpt>
<trkpt lat="48.626598" lon="10.223699">
<ele>406.182</ele>
<time>2020-09-10T10:40:18Z</time>
</trkpt>
<trkpt lat="48.626602" lon="10.223784">
<ele>406.182</ele>
<time>2020-09-10T10:40:19Z</time>
</trkpt>
<trkpt lat="48.626602" lon="10.223872">
<ele>406.182</ele>
<time>2020-09-10T10:40:20Z</time>
</trkpt>
<trkpt lat="48.626606" lon="10.223955">
<ele>406.182</ele>
<time>2020-09-10T10:40:21Z</time>
</trkpt>
<trkpt lat="48.626606" lon="10.224038">
<ele>406.182</ele>
<time>2020-09-10T10:40:22Z</time>
</trkpt>
<trkpt lat="48.62661" lon="10.224123">
<ele>406.182</ele>
<time>2020-09-10T10:40:23Z</time>
</trkpt>
<trkpt lat="48.62661" lon="10.224208">
<ele>406.182</ele>
<time>2020-09-10T10:40:24Z</time>
</trkpt>
<trkpt lat="48.62661" lon="10.224294">
<ele>406.182</ele>
<time>2020-09-10T10:40:25Z</time>
</trkpt>
<trkpt lat="48.62661" lon="10.224383">
<ele>406.182</ele>
<time>2020-09-10T10:40:26Z</time>
</trkpt>
<trkpt lat="48.62661" lon="10.224469">
<ele>406.182</ele>
<time>2020-09-10T10:40:27Z</time>
</trkpt>
<trkpt lat="48.626606" lon="10.224555">
<ele>406.182</ele>
<time>2020-09-10T10:40:28Z</time>
</trkpt>
<trkpt lat="48.626602" lon="10.22464">
<ele>406.182</ele>
<time>2020-09-10T10:40:29Z</time>
</trkpt>
<trkpt lat="48.626598" lon="10.224727">
<ele>406.182</ele>
<time>2020-09-10T10:40:30Z</time>
</trkpt>
<trkpt lat="48.626595" lon="10.224813">
<ele>406.182</ele>
<time>2020-09-10T10:40:31Z</time>
</trkpt>
<trkpt lat="48.626591" lon="10.2249">
<ele>406.182</ele>
<time>2020-09-10T10:40:32Z</time>
</trkpt>
<trkpt lat="48.626587" lon="10.224985">
<ele>405.951</ele>
<time>2020-09-10T10:40:33Z</time>
</trkpt>
<trkpt lat="48.626583" lon="10.22507">
<ele>405.787</ele>
<time>2020-09-10T10:40:34Z</time>
</trkpt>
<trkpt lat="48.626579" lon="10.225154">
<ele>405.617</ele>
<time>2020-09-10T10:40:35Z</time>
</trkpt>
<trkpt lat="48.626575" lon="10.225236">
<ele>405.483</ele>
<time>2020-09-10T10:40:36Z</time>
</trkpt>
<trkpt lat="48.626572" lon="10.225318">
<ele>405.379</ele>
<time>2020-09-10T10:40:37Z</time>
</trkpt>
<trkpt lat="48.626568" lon="10.225397">
<ele>405.305</ele>
<time>2020-09-10T10:40:38Z</time>
</trkpt>
<trkpt lat="48.626564" lon="10.225473">
<ele>405.256</ele>
<time>2020-09-10T10:40:39Z</time>
</trkpt>
<trkpt lat="48.62656" lon="10.22555">
<ele>405.232</ele>
<time>2020-09-10T10:40:40Z</time>
</trkpt>
<trkpt lat="48.626556" lon="10.225627">
<ele>405.232</ele>
<time>2020-09-10T10:40:41Z</time>
</trkpt>
<trkpt lat="48.626549" lon="10.225707">
<ele>405.232</ele>
<time>2020-09-10T10:40:42Z</time>
</trkpt>
<trkpt lat="48.626541" lon="10.22579">
<ele>405.232</ele>
<time>2020-09-10T10:40:43Z</time>
</trkpt>
<trkpt lat="48.62653" lon="10.225875">
<ele>405.232</ele>
<time>2020-09-10T10:40:44Z</time>
</trkpt>
<trkpt lat="48.626526" lon="10.225961">
<ele>405.232</ele>
<time>2020-09-10T10:40:45Z</time>
</trkpt>
<trkpt lat="48.626514" lon="10.226043">
<ele>405.232</ele>
<time>2020-09-10T10:40:46Z</time>
</trkpt>
<trkpt lat="48.626503" lon="10.226129">
<ele>405.232</ele>
<time>2020-09-10T10:40:47Z</time>
</trkpt>
<trkpt lat="48.626495" lon="10.226212">
<ele>405.232</ele>
<time>2020-09-10T10:40:48Z</time>
</trkpt>
<trkpt lat="48.626484" lon="10.226294">
<ele>405.232</ele>
<time>2020-09-10T10:40:49Z</time>
</trkpt>
<trkpt lat="48.626472" lon="10.226377">
<ele>405.232</ele>
<time>2020-09-10T10:40:50Z</time>
</trkpt>
<trkpt lat="48.626461" lon="10.22646">
<ele>405.232</ele>
<time>2020-09-10T10:40:51Z</time>
</trkpt>
<trkpt lat="48.62645" lon="10.226542">
<ele>405.232</ele>
<time>2020-09-10T10:40:52Z</time>
</trkpt>
<trkpt lat="48.626431" lon="10.226624">
<ele>405.232</ele>
<time>2020-09-10T10:40:53Z</time>
</trkpt>
<trkpt lat="48.626419" lon="10.226707">
<ele>405.232</ele>
<time>2020-09-10T10:40:54Z</time>
</trkpt>
<trkpt lat="48.626404" lon="10.22679">
<ele>405.232</ele>
<time>2020-09-10T10:40:55Z</time>
</trkpt>
<trkpt lat="48.626389" lon="10.226873">
<ele>405.232</ele>
<time>2020-09-10T10:40:56Z</time>
</trkpt>
<trkpt lat="48.626369" lon="10.226958">
<ele>405.232</ele>
<time>2020-09-10T10:40:57Z</time>
</trkpt>
<trkpt lat="48.626354" lon="10.227042">
<ele>405.232</ele>
<time>2020-09-10T10:40:58Z</time>
</trkpt>
<trkpt lat="48.626335" lon="10.227125">
<ele>405.232</ele>
<time>2020-09-10T10:40:59Z</time>
</trkpt>
<trkpt lat="48.62632" lon="10.22721">
<ele>405.232</ele>
<time>2020-09-10T10:41:00Z</time>
</trkpt>
<trkpt lat="48.626301" lon="10.227293">
<ele>405.232</ele>
<time>2020-09-10T10:41:01Z</time>
</trkpt>
<trkpt lat="48.626282" lon="10.227375">
<ele>405.232</ele>
<time>2020-09-10T10:41:02Z</time>
</trkpt>
<trkpt lat="48.626266" lon="10.227455">
<ele>405.232</ele>
<time>2020-09-10T10:41:03Z</time>
</trkpt>
<trkpt lat="48.626247" lon="10.227534">
<ele>405.232</ele>
<time>2020-09-10T10:41:04Z</time>
</trkpt>
<trkpt lat="48.626232" lon="10.227613">
<ele>405.232</ele>
<time>2020-09-10T10:41:05Z</time>
</trkpt>
<trkpt lat="48.626213" lon="10.227692">
<ele>405.232</ele>
<time>2020-09-10T10:41:06Z</time>
</trkpt>
<trkpt lat="48.626202" lon="10.227769">
<ele>405.232</ele>
<time>2020-09-10T10:41:07Z</time>
</trkpt>
<trkpt lat="48.626179" lon="10.22784">
<ele>405.232</ele>
<time>2020-09-10T10:41:08Z</time>
</trkpt>
<trkpt lat="48.62616" lon="10.227912">
<ele>405.232</ele>
<time>2020-09-10T10:41:09Z</time>
</trkpt>
<trkpt lat="48.626137" lon="10.227982">
<ele>405.232</ele>
<time>2020-09-10T10:41:10Z</time>
</trkpt>
<trkpt lat="48.626122" lon="10.228055">
<ele>405.232</ele>
<time>2020-09-10T10:41:11Z</time>
</trkpt>
<trkpt lat="48.626102" lon="10.228129">
<ele>405.232</ele>
<time>2020-09-10T10:41:12Z</time>
</trkpt>
<trkpt lat="48.62608" lon="10.228207">
<ele>405.232</ele>
<time>2020-09-10T10:41:13Z</time>
</trkpt>
<trkpt lat="48.62606" lon="10.228285">
<ele>405.232</ele>
<time>2020-09-10T10:41:14Z</time>
</trkpt>
<trkpt lat="48.626038" lon="10.228364">
<ele>405.232</ele>
<time>2020-09-10T10:41:15Z</time>
</trkpt>
<trkpt lat="48.626011" lon="10.228443">
<ele>405.232</ele>
<time>2020-09-10T10:41:16Z</time>
</trkpt>
<trkpt lat="48.625992" lon="10.228521">
<ele>405.232</ele>
<time>2020-09-10T10:41:17Z</time>
</trkpt>
<trkpt lat="48.625969" lon="10.228599">
<ele>405.232</ele>
<time>2020-09-10T10:41:18Z</time>
</trkpt>
<trkpt lat="48.625942" lon="10.228677">
<ele>405.232</ele>
<time>2020-09-10T10:41:19Z</time>
</trkpt>
<trkpt lat="48.625919" lon="10.228755">
<ele>405.232</ele>
<time>2020-09-10T10:41:20Z</time>
</trkpt>
<trkpt lat="48.625893" lon="10.228831">
<ele>405.232</ele>
<time>2020-09-10T10:41:21Z</time>
</trkpt>
<trkpt lat="48.625866" lon="10.228909">
<ele>405.233</ele>
<time>2020-09-10T10:41:22Z</time>
</trkpt>
<trkpt lat="48.625843" lon="10.228987">
<ele>405.232</ele>
<time>2020-09-10T10:41:23Z</time>
</trkpt>
<trkpt lat="48.625809" lon="10.229065">
<ele>405.232</ele>
<time>2020-09-10T10:41:24Z</time>
</trkpt>
<trkpt lat="48.625782" lon="10.229141">
<ele>405.232</ele>
<time>2020-09-10T10:41:25Z</time>
</trkpt>
<trkpt lat="48.625751" lon="10.229218">
<ele>405.232</ele>
<time>2020-09-10T10:41:26Z</time>
</trkpt>
<trkpt lat="48.625725" lon="10.229297">
<ele>405.232</ele>
<time>2020-09-10T10:41:27Z</time>
</trkpt>
<trkpt lat="48.625694" lon="10.229374">
<ele>405.232</ele>
<time>2020-09-10T10:41:28Z</time>
</trkpt>
<trkpt lat="48.625664" lon="10.229448">
<ele>405.232</ele>
<time>2020-09-10T10:41:29Z</time>
</trkpt>
<trkpt lat="48.625633" lon="10.229523">
<ele>405.232</ele>
<time>2020-09-10T10:41:30Z</time>
</trkpt>
<trkpt lat="48.625603" lon="10.229598">
<ele>405.232</ele>
<time>2020-09-10T10:41:31Z</time>
</trkpt>
<trkpt lat="48.625576" lon="10.229671">
<ele>405.232</ele>
<time>2020-09-10T10:41:32Z</time>
</trkpt>
<trkpt lat="48.625546" lon="10.229747">
<ele>405.232</ele>
<time>2020-09-10T10:41:33Z</time>
</trkpt>
<trkpt lat="48.625511" lon="10.229825">
<ele>405.232</ele>
<time>2020-09-10T10:41:34Z</time>
</trkpt>
<trkpt lat="48.625484" lon="10.229898">
<ele>405.232</ele>
<time>2020-09-10T10:41:35Z</time>
</trkpt>
<trkpt lat="48.62545" lon="10.229967">
<ele>405.232</ele>
<time>2020-09-10T10:41:36Z</time>
</trkpt>
<trkpt lat="48.62542" lon="10.230037">
<ele>405.232</ele>
<time>2020-09-10T10:41:37Z</time>
</trkpt>
<trkpt lat="48.625389" lon="10.230105">
<ele>405.232</ele>
<time>2020-09-10T10:41:38Z</time>
</trkpt>
<trkpt lat="48.625362" lon="10.230175">
<ele>405.232</ele>
<time>2020-09-10T10:41:39Z</time>
</trkpt>
<trkpt lat="48.625332" lon="10.230246">
<ele>405.232</ele>
<time>2020-09-10T10:41:40Z</time>
</trkpt>
<trkpt lat="48.625298" lon="10.230313">
<ele>405.232</ele>
<time>2020-09-10T10:41:41Z</time>
</trkpt>
<trkpt lat="48.625267" lon="10.230384">
<ele>405.232</ele>
<time>2020-09-10T10:41:42Z</time>
</trkpt>
<trkpt lat="48.625237" lon="10.230453">
<ele>405.232</ele>
<time>2020-09-10T10:41:43Z</time>
</trkpt>
<trkpt lat="48.62521" lon="10.23052">
<ele>405.232</ele>
<time>2020-09-10T10:41:44Z</time>
</trkpt>
<trkpt lat="48.625179" lon="10.230585">
<ele>405.232</ele>
<time>2020-09-10T10:41:45Z</time>
</trkpt>
<trkpt lat="48.625149" lon="10.230654">
<ele>405.232</ele>
<time>2020-09-10T10:41:46Z</time>
</trkpt>
<trkpt lat="48.625114" lon="10.230721">
<ele>405.232</ele>
<time>2020-09-10T10:41:47Z</time>
</trkpt>
<trkpt lat="48.625084" lon="10.23079">
<ele>405.232</ele>
<time>2020-09-10T10:41:48Z</time>
</trkpt>
<trkpt lat="48.625053" lon="10.230859">
<ele>405.232</ele>
<time>2020-09-10T10:41:49Z</time>
</trkpt>
<trkpt lat="48.625023" lon="10.230925">
<ele>405.232</ele>
<time>2020-09-10T10:41:50Z</time>
</trkpt>
<trkpt lat="48.624989" lon="10.230989">
<ele>405.232</ele>
<time>2020-09-10T10:41:51Z</time>
</trkpt>
<trkpt lat="48.624954" lon="10.231056">
<ele>405.232</ele>
<time>2020-09-10T10:41:52Z</time>
</trkpt>
<trkpt lat="48.62492" lon="10.231121">
<ele>405.232</ele>
<time>2020-09-10T10:41:53Z</time>
</trkpt>
<trkpt lat="48.624886" lon="10.231186">
<ele>405.232</ele>
<time>2020-09-10T10:41:54Z</time>
</trkpt>
<trkpt lat="48.624851" lon="10.231252">
<ele>405.232</ele>
<time>2020-09-10T10:41:55Z</time>
</trkpt>
<trkpt lat="48.624813" lon="10.231317">
<ele>405.232</ele>
<time>2020-09-10T10:41:56Z</time>
</trkpt>
<trkpt lat="48.624779" lon="10.231381">
<ele>405.232</ele>
<time>2020-09-10T10:41:57Z</time>
</trkpt>
<trkpt lat="48.624744" lon="10.231446">
<ele>405.232</ele>
<time>2020-09-10T10:41:58Z</time>
</trkpt>
<trkpt lat="48.62471" lon="10.231513">
<ele>405.232</ele>
<time>2020-09-10T10:41:59Z</time>
</trkpt>
<trkpt lat="48.624672" lon="10.23158">
<ele>405.232</ele>
<time>2020-09-10T10:42:00Z</time>
</trkpt>
<trkpt lat="48.624638" lon="10.231645">
<ele>405.232</ele>
<time>2020-09-10T10:42:01Z</time>
</trkpt>
<trkpt lat="48.624599" lon="10.231709">
<ele>405.232</ele>
<time>2020-09-10T10:42:02Z</time>
</trkpt>
<trkpt lat="48.624561" lon="10.231771">
<ele>405.232</ele>
<time>2020-09-10T10:42:03Z</time>
</trkpt>
<trkpt lat="48.624527" lon="10.231833">
<ele>405.232</ele>
<time>2020-09-10T10:42:04Z</time>
</trkpt>
<trkpt lat="48.624489" lon="10.231896">
<ele>405.232</ele>
<time>2020-09-10T10:42:05Z</time>
</trkpt>
<trkpt lat="48.624454" lon="10.231959">
<ele>405.232</ele>
<time>2020-09-10T10:42:06Z</time>
</trkpt>
<trkpt lat="48.624416" lon="10.232024">
<ele>405.232</ele>
<time>2020-09-10T10:42:07Z</time>
</trkpt>
<trkpt lat="48.624378" lon="10.232087">
<ele>405.232</ele>
<time>2020-09-10T10:42:08Z</time>
</trkpt>
<trkpt lat="48.624344" lon="10.23215">
<ele>405.232</ele>
<time>2020-09-10T10:42:09Z</time>
</trkpt>
<trkpt lat="48.624306" lon="10.232213">
<ele>405.232</ele>
<time>2020-09-10T10:42:10Z</time>
</trkpt>
<trkpt lat="48.624264" lon="10.232278">
<ele>405.232</ele>
<time>2020-09-10T10:42:11Z</time>
</trkpt>
<trkpt lat="48.624226" lon="10.232343">
<ele>405.232</ele>
<time>2020-09-10T10:42:12Z</time>
</trkpt>
<trkpt lat="48.624184" lon="10.232408">
<ele>405.232</ele>
<time>2020-09-10T10:42:13Z</time>
</trkpt>
<trkpt lat="48.624146" lon="10.232473">
<ele>405.232</ele>
<time>2020-09-10T10:42:14Z</time>
</trkpt>
<trkpt lat="48.624104" lon="10.232537">
<ele>405.232</ele>
<time>2020-09-10T10:42:15Z</time>
</trkpt>
<trkpt lat="48.624062" lon="10.232598">
<ele>405.232</ele>
<time>2020-09-10T10:42:16Z</time>
</trkpt>
<trkpt lat="48.624023" lon="10.23266">
<ele>405.232</ele>
<time>2020-09-10T10:42:17Z</time>
</trkpt>
<trkpt lat="48.623985" lon="10.232719">
<ele>405.232</ele>
<time>2020-09-10T10:42:18Z</time>
</trkpt>
<trkpt lat="48.623947" lon="10.23278">
<ele>405.232</ele>
<time>2020-09-10T10:42:19Z</time>
</trkpt>
<trkpt lat="48.623905" lon="10.23284">
<ele>405.232</ele>
<time>2020-09-10T10:42:20Z</time>
</trkpt>
<trkpt lat="48.623863" lon="10.2329">
<ele>405.233</ele>
<time>2020-09-10T10:42:21Z</time>
</trkpt>
<trkpt lat="48.623821" lon="10.232959">
<ele>405.232</ele>
<time>2020-09-10T10:42:22Z</time>
</trkpt>
<trkpt lat="48.623783" lon="10.233019">
<ele>405.232</ele>
<time>2020-09-10T10:42:23Z</time>
</trkpt>
<trkpt lat="48.623741" lon="10.233078">
<ele>405.232</ele>
<time>2020-09-10T10:42:24Z</time>
</trkpt>
<trkpt lat="48.623699" lon="10.233138">
<ele>405.232</ele>
<time>2020-09-10T10:42:25Z</time>
</trkpt>
<trkpt lat="48.623661" lon="10.233195">
<ele>405.232</ele>
<time>2020-09-10T10:42:26Z</time>
</trkpt>
<trkpt lat="48.623623" lon="10.23325">
<ele>405.232</ele>
<time>2020-09-10T10:42:27Z</time>
</trkpt>
<trkpt lat="48.623581" lon="10.233305">
<ele>405.232</ele>
<time>2020-09-10T10:42:28Z</time>
</trkpt>
<trkpt lat="48.623543" lon="10.23336">
<ele>405.232</ele>
<time>2020-09-10T10:42:29Z</time>
</trkpt>
<trkpt lat="48.623501" lon="10.233412">
<ele>405.232</ele>
<time>2020-09-10T10:42:30Z</time>
</trkpt>
<trkpt lat="48.623463" lon="10.233463">
<ele>405.232</ele>
<time>2020-09-10T10:42:31Z</time>
</trkpt>
<trkpt lat="48.623421" lon="10.233517">
<ele>405.232</ele>
<time>2020-09-10T10:42:32Z</time>
</trkpt>
<trkpt lat="48.623379" lon="10.233572">
<ele>405.232</ele>
<time>2020-09-10T10:42:33Z</time>
</trkpt>
<trkpt lat="48.623341" lon="10.233624">
<ele>405.232</ele>
<time>2020-09-10T10:42:34Z</time>
</trkpt>
<trkpt lat="48.623299" lon="10.233679">
<ele>405.232</ele>
<time>2020-09-10T10:42:35Z</time>
</trkpt>
<trkpt lat="48.623257" lon="10.233729">
<ele>405.232</ele>
<time>2020-09-10T10:42:36Z</time>
</trkpt>
<trkpt lat="48.623215" lon="10.233782">
<ele>405.232</ele>
<time>2020-09-10T10:42:37Z</time>
</trkpt>
<trkpt lat="48.623177" lon="10.233834">
<ele>405.232</ele>
<time>2020-09-10T10:42:38Z</time>
</trkpt>
<trkpt lat="48.623138" lon="10.233889">
<ele>405.232</ele>
<time>2020-09-10T10:42:39Z</time>
</trkpt>
<trkpt lat="48.623096" lon="10.23394">
<ele>405.233</ele>
<time>2020-09-10T10:42:40Z</time>
</trkpt>
<trkpt lat="48.623058" lon="10.23399">
<ele>405.232</ele>
<time>2020-09-10T10:42:41Z</time>
</trkpt>
<trkpt lat="48.623016" lon="10.234043">
<ele>405.232</ele>
<time>2020-09-10T10:42:42Z</time>
</trkpt>
<trkpt lat="48.622974" lon="10.234097">
<ele>405.232</ele>
<time>2020-09-10T10:42:43Z</time>
</trkpt>
<trkpt lat="48.622932" lon="10.234152">
<ele>405.232</ele>
<time>2020-09-10T10:42:44Z</time>
</trkpt>
<trkpt lat="48.62289" lon="10.234205">
<ele>405.232</ele>
<time>2020-09-10T10:42:45Z</time>
</trkpt>
<trkpt lat="48.622849" lon="10.234257">
<ele>405.232</ele>
<time>2020-09-10T10:42:46Z</time>
</trkpt>
<trkpt lat="48.62281" lon="10.234308">
<ele>405.232</ele>
<time>2020-09-10T10:42:47Z</time>
</trkpt>
<trkpt lat="48.622768" lon="10.23436">
<ele>405.232</ele>
<time>2020-09-10T10:42:48Z</time>
</trkpt>
<trkpt lat="48.62273" lon="10.234412">
<ele>405.232</ele>
<time>2020-09-10T10:42:49Z</time>
</trkpt>
<trkpt lat="48.622692" lon="10.23446">
<ele>405.232</ele>
<time>2020-09-10T10:42:50Z</time>
</trkpt>
<trkpt lat="48.622654" lon="10.234507">
<ele>405.232</ele>
<time>2020-09-10T10:42:51Z</time>
</trkpt>
<trkpt lat="48.62262" lon="10.234555">
<ele>405.232</ele>
<time>2020-09-10T10:42:52Z</time>
</trkpt>
<trkpt lat="48.622581" lon="10.234605">
<ele>405.232</ele>
<time>2020-09-10T10:42:53Z</time>
</trkpt>
<trkpt lat="48.622547" lon="10.234653">
<ele>405.232</ele>
<time>2020-09-10T10:42:54Z</time>
</trkpt>
<trkpt lat="48.622513" lon="10.234703">
<ele>405.232</ele>
<time>2020-09-10T10:42:55Z</time>
</trkpt>
<trkpt lat="48.622475" lon="10.234754">
<ele>405.232</ele>
<time>2020-09-10T10:42:56Z</time>
</trkpt>
<trkpt lat="48.622437" lon="10.234804">
<ele>405.232</ele>
<time>2020-09-10T10:42:57Z</time>
</trkpt>
<trkpt lat="48.622395" lon="10.23485">
<ele>405.232</ele>
<time>2020-09-10T10:42:58Z</time>
</trkpt>
<trkpt lat="48.62236" lon="10.234897">
<ele>405.232</ele>
<time>2020-09-10T10:42:59Z</time>
</trkpt>
<trkpt lat="48.622322" lon="10.234943">
<ele>405.232</ele>
<time>2020-09-10T10:43:00Z</time>
</trkpt>
<trkpt lat="48.622292" lon="10.234988">
<ele>405.232</ele>
<time>2020-09-10T10:43:01Z</time>
</trkpt>
<trkpt lat="48.622257" lon="10.235033">
<ele>405.232</ele>
<time>2020-09-10T10:43:02Z</time>
</trkpt>
<trkpt lat="48.622223" lon="10.235073">
<ele>405.232</ele>
<time>2020-09-10T10:43:03Z</time>
</trkpt>
<trkpt lat="48.622192" lon="10.235115">
<ele>405.232</ele>
<time>2020-09-10T10:43:04Z</time>
</trkpt>
<trkpt lat="48.622158" lon="10.235158">
<ele>405.232</ele>
<time>2020-09-10T10:43:05Z</time>
</trkpt>
<trkpt lat="48.622124" lon="10.235207">
<ele>405.232</ele>
<time>2020-09-10T10:43:06Z</time>
</trkpt>
<trkpt lat="48.622089" lon="10.235253">
<ele>405.232</ele>
<time>2020-09-10T10:43:07Z</time>
</trkpt>
<trkpt lat="48.622055" lon="10.235298">
<ele>405.232</ele>
<time>2020-09-10T10:43:08Z</time>
</trkpt>
<trkpt lat="48.622021" lon="10.235342">
<ele>405.232</ele>
<time>2020-09-10T10:43:09Z</time>
</trkpt>
<trkpt lat="48.621983" lon="10.235387">
<ele>405.232</ele>
<time>2020-09-10T10:43:10Z</time>
</trkpt>
<trkpt lat="48.621948" lon="10.235433">
<ele>405.232</ele>
<time>2020-09-10T10:43:11Z</time>
</trkpt>
<trkpt lat="48.621914" lon="10.235481">
<ele>405.232</ele>
<time>2020-09-10T10:43:12Z</time>
</trkpt>
<trkpt lat="48.621883" lon="10.23553">
<ele>405.232</ele>
<time>2020-09-10T10:43:13Z</time>
</trkpt>
<trkpt lat="48.621853" lon="10.235572">
<ele>405.232</ele>
<time>2020-09-10T10:43:14Z</time>
</trkpt>
<trkpt lat="48.621822" lon="10.23561">
<ele>405.233</ele>
<time>2020-09-10T10:43:15Z</time>
</trkpt>
<trkpt lat="48.621792" lon="10.23565">
<ele>405.232</ele>
<time>2020-09-10T10:43:16Z</time>
</trkpt>
<trkpt lat="48.621765" lon="10.235688">
<ele>405.232</ele>
<time>2020-09-10T10:43:17Z</time>
</trkpt>
<trkpt lat="48.621738" lon="10.23573">
<ele>405.232</ele>
<time>2020-09-10T10:43:18Z</time>
</trkpt>
<trkpt lat="48.621708" lon="10.235772">
<ele>405.232</ele>
<time>2020-09-10T10:43:19Z</time>
</trkpt>
<trkpt lat="48.621677" lon="10.235806">
<ele>405.232</ele>
<time>2020-09-10T10:43:20Z</time>
</trkpt>
<trkpt lat="48.621643" lon="10.23583">
<ele>405.232</ele>
<time>2020-09-10T10:43:21Z</time>
</trkpt>
<trkpt lat="48.621613" lon="10.235837">
<ele>405.232</ele>
<time>2020-09-10T10:43:22Z</time>
</trkpt>
<trkpt lat="48.621578" lon="10.23585">
<ele>405.232</ele>
<time>2020-09-10T10:43:23Z</time>
</trkpt>
<trkpt lat="48.62154" lon="10.235877">
<ele>405.232</ele>
<time>2020-09-10T10:43:24Z</time>
</trkpt>
<trkpt lat="48.621506" lon="10.235913">
<ele>405.232</ele>
<time>2020-09-10T10:43:25Z</time>
</trkpt>
<trkpt lat="48.621471" lon="10.235958">
<ele>405.498</ele>
<time>2020-09-10T10:43:26Z</time>
</trkpt>
<trkpt lat="48.621437" lon="10.236009">
<ele>405.703</ele>
<time>2020-09-10T10:43:27Z</time>
</trkpt>
<trkpt lat="48.621403" lon="10.236059">
<ele>405.859</ele>
<time>2020-09-10T10:43:28Z</time>
</trkpt>
<trkpt lat="48.621365" lon="10.236103">
<ele>405.967</ele>
<time>2020-09-10T10:43:29Z</time>
</trkpt>
<trkpt lat="48.621326" lon="10.236149">
<ele>406.041</ele>
<time>2020-09-10T10:43:30Z</time>
</trkpt>
<trkpt lat="48.621288" lon="10.236196">
<ele>406.078</ele>
<time>2020-09-10T10:43:31Z</time>
</trkpt>
<trkpt lat="48.621254" lon="10.236239">
<ele>406.096</ele>
<time>2020-09-10T10:43:32Z</time>
</trkpt>
<trkpt lat="48.621223" lon="10.236283">
<ele>406.096</ele>
<time>2020-09-10T10:43:33Z</time>
</trkpt>
<trkpt lat="48.621193" lon="10.236334">
<ele>406.096</ele>
<time>2020-09-10T10:43:34Z</time>
</trkpt>
<trkpt lat="48.621166" lon="10.236377">
<ele>406.096</ele>
<time>2020-09-10T10:43:35Z</time>
</trkpt>
<trkpt lat="48.62114" lon="10.236407">
<ele>406.096</ele>
<time>2020-09-10T10:43:36Z</time>
</trkpt>
<trkpt lat="48.621113" lon="10.236435">
<ele>406.096</ele>
<time>2020-09-10T10:43:37Z</time>
</trkpt>
<trkpt lat="48.621082" lon="10.236465">
<ele>406.096</ele>
<time>2020-09-10T10:43:38Z</time>
</trkpt>
<trkpt lat="48.621052" lon="10.236493">
<ele>406.096</ele>
<time>2020-09-10T10:43:39Z</time>
</trkpt>
<trkpt lat="48.621017" lon="10.23653">
<ele>406.096</ele>
<time>2020-09-10T10:43:40Z</time>
</trkpt>
<trkpt lat="48.620987" lon="10.236573">
<ele>406.338</ele>
<time>2020-09-10T10:43:41Z</time>
</trkpt>
<trkpt lat="48.620953" lon="10.23661">
<ele>406.534</ele>
<time>2020-09-10T10:43:42Z</time>
</trkpt>
<trkpt lat="48.620918" lon="10.236647">
<ele>406.69</ele>
<time>2020-09-10T10:43:43Z</time>
</trkpt>
<trkpt lat="48.620895" lon="10.236682">
<ele>406.799</ele>
<time>2020-09-10T10:43:44Z</time>
</trkpt>
<trkpt lat="48.620869" lon="10.236721">
<ele>406.903</ele>
<time>2020-09-10T10:43:45Z</time>
</trkpt>
<trkpt lat="48.62085" lon="10.236753">
<ele>406.976</ele>
<time>2020-09-10T10:43:46Z</time>
</trkpt>
<trkpt lat="48.620834" lon="10.236793">
<ele>407.023</ele>
<time>2020-09-10T10:43:47Z</time>
</trkpt>
<trkpt lat="48.620823" lon="10.236828">
<ele>407.046</ele>
<time>2020-09-10T10:43:48Z</time>
</trkpt>
<trkpt lat="48.620823" lon="10.23687">
<ele>407.046</ele>
<time>2020-09-10T10:43:49Z</time>
</trkpt>
<trkpt lat="48.620823" lon="10.236917">
<ele>407.046</ele>
<time>2020-09-10T10:43:50Z</time>
</trkpt>
<trkpt lat="48.620823" lon="10.236966">
<ele>407.046</ele>
<time>2020-09-10T10:43:51Z</time>
</trkpt>
<trkpt lat="48.620834" lon="10.237019">
<ele>407.046</ele>
<time>2020-09-10T10:43:52Z</time>
</trkpt>
<trkpt lat="48.620834" lon="10.237069">
<ele>407.046</ele>
<time>2020-09-10T10:43:53Z</time>
</trkpt>
<trkpt lat="48.620823" lon="10.237094">
<ele>407.046</ele>
<time>2020-09-10T10:43:54Z</time>
</trkpt>
<trkpt lat="48.620789" lon="10.237115">
<ele>407.046</ele>
<time>2020-09-10T10:43:55Z</time>
</trkpt>
<trkpt lat="48.62075" lon="10.23712">
<ele>407.046</ele>
<time>2020-09-10T10:43:56Z</time>
</trkpt>
<trkpt lat="48.620712" lon="10.237134">
<ele>407.046</ele>
<time>2020-09-10T10:43:57Z</time>
</trkpt>
<trkpt lat="48.620674" lon="10.237153">
<ele>407.046</ele>
<time>2020-09-10T10:43:58Z</time>
</trkpt>
<trkpt lat="48.620632" lon="10.23718">
<ele>407.046</ele>
<time>2020-09-10T10:43:59Z</time>
</trkpt>
<trkpt lat="48.620598" lon="10.23722">
<ele>407.046</ele>
<time>2020-09-10T10:44:00Z</time>
</trkpt>
<trkpt lat="48.620564" lon="10.237277">
<ele>407.311</ele>
<time>2020-09-10T10:44:01Z</time>
</trkpt>
<trkpt lat="48.620537" lon="10.23734">
<ele>407.519</ele>
<time>2020-09-10T10:44:02Z</time>
</trkpt>
<trkpt lat="48.620502" lon="10.237409">
<ele>407.656</ele>
<time>2020-09-10T10:44:03Z</time>
</trkpt>
<trkpt lat="48.62048" lon="10.237473">
<ele>407.751</ele>
<time>2020-09-10T10:44:04Z</time>
</trkpt>
<trkpt lat="48.620453" lon="10.237536">
<ele>407.858</ele>
<time>2020-09-10T10:44:05Z</time>
</trkpt>
<trkpt lat="48.62043" lon="10.237595">
<ele>407.925</ele>
<time>2020-09-10T10:44:06Z</time>
</trkpt>
<trkpt lat="48.620403" lon="10.23765">
<ele>408.206</ele>
<time>2020-09-10T10:44:07Z</time>
</trkpt>
<trkpt lat="48.62038" lon="10.237698">
<ele>408.414</ele>
<time>2020-09-10T10:44:08Z</time>
</trkpt>
<trkpt lat="48.620358" lon="10.237737">
<ele>408.63</ele>
<time>2020-09-10T10:44:09Z</time>
</trkpt>
<trkpt lat="48.620335" lon="10.237766">
<ele>408.751</ele>
<time>2020-09-10T10:44:10Z</time>
</trkpt>
<trkpt lat="48.6203" lon="10.237786">
<ele>408.834</ele>
<time>2020-09-10T10:44:11Z</time>
</trkpt>
<trkpt lat="48.620262" lon="10.237794">
<ele>408.888</ele>
<time>2020-09-10T10:44:12Z</time>
</trkpt>
<trkpt lat="48.620216" lon="10.237808">
<ele>408.92</ele>
<time>2020-09-10T10:44:13Z</time>
</trkpt>
<trkpt lat="48.620171" lon="10.237834">
<ele>408.946</ele>
<time>2020-09-10T10:44:14Z</time>
</trkpt>
<trkpt lat="48.620136" lon="10.237868">
<ele>408.946</ele>
<time>2020-09-10T10:44:15Z</time>
</trkpt>
<trkpt lat="48.620106" lon="10.237917">
<ele>409.219</ele>
<time>2020-09-10T10:44:16Z</time>
</trkpt>
<trkpt lat="48.620075" lon="10.237972">
<ele>409.427</ele>
<time>2020-09-10T10:44:17Z</time>
</trkpt>
<trkpt lat="48.620052" lon="10.238031">
<ele>409.574</ele>
<time>2020-09-10T10:44:18Z</time>
</trkpt>
<trkpt lat="48.620033" lon="10.238096">
<ele>409.674</ele>
<time>2020-09-10T10:44:19Z</time>
</trkpt>
<trkpt lat="48.62001" lon="10.238165">
<ele>409.746</ele>
<time>2020-09-10T10:44:20Z</time>
</trkpt>
<trkpt lat="48.619991" lon="10.238234">
<ele>409.784</ele>
<time>2020-09-10T10:44:21Z</time>
</trkpt>
<trkpt lat="48.619972" lon="10.238303">
<ele>409.81</ele>
<time>2020-09-10T10:44:22Z</time>
</trkpt>
<trkpt lat="48.619953" lon="10.238374">
<ele>409.81</ele>
<time>2020-09-10T10:44:23Z</time>
</trkpt>
<trkpt lat="48.619934" lon="10.238445">
<ele>409.81</ele>
<time>2020-09-10T10:44:24Z</time>
</trkpt>
<trkpt lat="48.619911" lon="10.238517">
<ele>410.046</ele>
<time>2020-09-10T10:44:25Z</time>
</trkpt>
<trkpt lat="48.619892" lon="10.238588">
<ele>410.24</ele>
<time>2020-09-10T10:44:26Z</time>
</trkpt>
<trkpt lat="48.619873" lon="10.238662">
<ele>410.399</ele>
<time>2020-09-10T10:44:27Z</time>
</trkpt>
<trkpt lat="48.619846" lon="10.238735">
<ele>410.526</ele>
<time>2020-09-10T10:44:28Z</time>
</trkpt>
<trkpt lat="48.619827" lon="10.238811">
<ele>410.624</ele>
<time>2020-09-10T10:44:29Z</time>
</trkpt>
<trkpt lat="48.619804" lon="10.238888">
<ele>410.671</ele>
<time>2020-09-10T10:44:30Z</time>
</trkpt>
<trkpt lat="48.619778" lon="10.238969">
<ele>410.48</ele>
<time>2020-09-10T10:44:31Z</time>
</trkpt>
<trkpt lat="48.619751" lon="10.23905">
<ele>410.312</ele>
<time>2020-09-10T10:44:32Z</time>
</trkpt>
<trkpt lat="48.619728" lon="10.239135">
<ele>410.164</ele>
<time>2020-09-10T10:44:33Z</time>
</trkpt>
<trkpt lat="48.619705" lon="10.239222">
<ele>410.065</ele>
<time>2020-09-10T10:44:34Z</time>
</trkpt>
<trkpt lat="48.619678" lon="10.239308">
<ele>409.957</ele>
<time>2020-09-10T10:44:35Z</time>
</trkpt>
<trkpt lat="48.619652" lon="10.239399">
<ele>409.881</ele>
<time>2020-09-10T10:44:36Z</time>
</trkpt>
<trkpt lat="48.619625" lon="10.239489">
<ele>409.835</ele>
<time>2020-09-10T10:44:37Z</time>
</trkpt>
<trkpt lat="48.619602" lon="10.23958">
<ele>409.593</ele>
<time>2020-09-10T10:44:38Z</time>
</trkpt>
<trkpt lat="48.619576" lon="10.239674">
<ele>409.37</ele>
<time>2020-09-10T10:44:39Z</time>
</trkpt>
<trkpt lat="48.619549" lon="10.239767">
<ele>409.227</ele>
<time>2020-09-10T10:44:40Z</time>
</trkpt>
<trkpt lat="48.619522" lon="10.239858">
<ele>409.123</ele>
<time>2020-09-10T10:44:41Z</time>
</trkpt>
<trkpt lat="48.619499" lon="10.239948">
<ele>409.067</ele>
<time>2020-09-10T10:44:42Z</time>
</trkpt>
<trkpt lat="48.619476" lon="10.240042">
<ele>408.782</ele>
<time>2020-09-10T10:44:43Z</time>
</trkpt>
<trkpt lat="48.61945" lon="10.240134">
<ele>408.573</ele>
<time>2020-09-10T10:44:44Z</time>
</trkpt>
<trkpt lat="48.619415" lon="10.240232">
<ele>408.38</ele>
<time>2020-09-10T10:44:45Z</time>
</trkpt>
<trkpt lat="48.619381" lon="10.240329">
<ele>408.26</ele>
<time>2020-09-10T10:44:46Z</time>
</trkpt>
<trkpt lat="48.61935" lon="10.240428">
<ele>407.914</ele>
<time>2020-09-10T10:44:47Z</time>
</trkpt>
<trkpt lat="48.619316" lon="10.240532">
<ele>407.636</ele>
<time>2020-09-10T10:44:48Z</time>
</trkpt>
<trkpt lat="48.619286" lon="10.240637">
<ele>407.423</ele>
<time>2020-09-10T10:44:49Z</time>
</trkpt>
<trkpt lat="48.619251" lon="10.24074">
<ele>407.272</ele>
<time>2020-09-10T10:44:50Z</time>
</trkpt>
<trkpt lat="48.619221" lon="10.240842">
<ele>407.141</ele>
<time>2020-09-10T10:44:51Z</time>
</trkpt>
<trkpt lat="48.619183" lon="10.240938">
<ele>407.093</ele>
<time>2020-09-10T10:44:52Z</time>
</trkpt>
<trkpt lat="48.619148" lon="10.241035">
<ele>407.067</ele>
<time>2020-09-10T10:44:53Z</time>
</trkpt>
<trkpt lat="48.619114" lon="10.241128">
<ele>407.046</ele>
<time>2020-09-10T10:44:54Z</time>
</trkpt>
<trkpt lat="48.619083" lon="10.24122">
<ele>407.046</ele>
<time>2020-09-10T10:44:55Z</time>
</trkpt>
<trkpt lat="48.619057" lon="10.241312">
<ele>407.046</ele>
<time>2020-09-10T10:44:56Z</time>
</trkpt>
<trkpt lat="48.61903" lon="10.241398">
<ele>407.046</ele>
<time>2020-09-10T10:44:57Z</time>
</trkpt>
<trkpt lat="48.618996" lon="10.241482">
<ele>407.046</ele>
<time>2020-09-10T10:44:58Z</time>
</trkpt>
<trkpt lat="48.618969" lon="10.24156">
<ele>407.046</ele>
<time>2020-09-10T10:44:59Z</time>
</trkpt>
<trkpt lat="48.618938" lon="10.241636">
<ele>407.046</ele>
<time>2020-09-10T10:45:00Z</time>
</trkpt>
<trkpt lat="48.618904" lon="10.241712">
<ele>407.046</ele>
<time>2020-09-10T10:45:01Z</time>
</trkpt>
<trkpt lat="48.61887" lon="10.241781">
<ele>407.046</ele>
<time>2020-09-10T10:45:02Z</time>
</trkpt>
<trkpt lat="48.618835" lon="10.241852">
<ele>407.046</ele>
<time>2020-09-10T10:45:03Z</time>
</trkpt>
<trkpt lat="48.618801" lon="10.241927">
<ele>407.046</ele>
<time>2020-09-10T10:45:04Z</time>
</trkpt>
<trkpt lat="48.618767" lon="10.241999">
<ele>407.046</ele>
<time>2020-09-10T10:45:05Z</time>
</trkpt>
<trkpt lat="48.618736" lon="10.242075">
<ele>407.046</ele>
<time>2020-09-10T10:45:06Z</time>
</trkpt>
<trkpt lat="48.618702" lon="10.242151">
<ele>407.046</ele>
<time>2020-09-10T10:45:07Z</time>
</trkpt>
<trkpt lat="48.618675" lon="10.242229">
<ele>407.046</ele>
<time>2020-09-10T10:45:08Z</time>
</trkpt>
<trkpt lat="48.618649" lon="10.242311">
<ele>407.046</ele>
<time>2020-09-10T10:45:09Z</time>
</trkpt>
<trkpt lat="48.618622" lon="10.242393">
<ele>407.046</ele>
<time>2020-09-10T10:45:10Z</time>
</trkpt>
<trkpt lat="48.618599" lon="10.242476">
<ele>407.046</ele>
<time>2020-09-10T10:45:11Z</time>
</trkpt>
<trkpt lat="48.618576" lon="10.24256">
<ele>407.046</ele>
<time>2020-09-10T10:45:12Z</time>
</trkpt>
<trkpt lat="48.618565" lon="10.242646">
<ele>407.046</ele>
<time>2020-09-10T10:45:13Z</time>
</trkpt>
<trkpt lat="48.618557" lon="10.242739">
<ele>407.046</ele>
<time>2020-09-10T10:45:14Z</time>
</trkpt>
<trkpt lat="48.618549" lon="10.24283">
<ele>407.046</ele>
<time>2020-09-10T10:45:15Z</time>
</trkpt>
<trkpt lat="48.618546" lon="10.24292">
<ele>407.046</ele>
<time>2020-09-10T10:45:16Z</time>
</trkpt>
<trkpt lat="48.618542" lon="10.243013">
<ele>407.046</ele>
<time>2020-09-10T10:45:17Z</time>
</trkpt>
<trkpt lat="48.61853" lon="10.243103">
<ele>407.046</ele>
<time>2020-09-10T10:45:18Z</time>
</trkpt>
<trkpt lat="48.618519" lon="10.243191">
<ele>407.046</ele>
<time>2020-09-10T10:45:19Z</time>
</trkpt>
<trkpt lat="48.618507" lon="10.243273">
<ele>407.046</ele>
<time>2020-09-10T10:45:20Z</time>
</trkpt>
<trkpt lat="48.618488" lon="10.243354">
<ele>407.046</ele>
<time>2020-09-10T10:45:21Z</time>
</trkpt>
<trkpt lat="48.618473" lon="10.243435">
<ele>407.046</ele>
<time>2020-09-10T10:45:22Z</time>
</trkpt>
<trkpt lat="48.618454" lon="10.243515">
<ele>407.046</ele>
<time>2020-09-10T10:45:23Z</time>
</trkpt>
<trkpt lat="48.618431" lon="10.243588">
<ele>407.046</ele>
<time>2020-09-10T10:45:24Z</time>
</trkpt>
<trkpt lat="48.618408" lon="10.243667">
<ele>407.046</ele>
<time>2020-09-10T10:45:25Z</time>
</trkpt>
<trkpt lat="48.618389" lon="10.243751">
<ele>407.046</ele>
<time>2020-09-10T10:45:26Z</time>
</trkpt>
<trkpt lat="48.618374" lon="10.243834">
<ele>407.046</ele>
<time>2020-09-10T10:45:27Z</time>
</trkpt>
<trkpt lat="48.618351" lon="10.243916">
<ele>407.046</ele>
<time>2020-09-10T10:45:28Z</time>
</trkpt>
<trkpt lat="48.618336" lon="10.243994">
<ele>407.046</ele>
<time>2020-09-10T10:45:29Z</time>
</trkpt>
<trkpt lat="48.618313" lon="10.244071">
<ele>407.046</ele>
<time>2020-09-10T10:45:30Z</time>
</trkpt>
<trkpt lat="48.61829" lon="10.244144">
<ele>407.046</ele>
<time>2020-09-10T10:45:31Z</time>
</trkpt>
<trkpt lat="48.618267" lon="10.24422">
<ele>407.046</ele>
<time>2020-09-10T10:45:32Z</time>
</trkpt>
<trkpt lat="48.61824" lon="10.244293">
<ele>407.046</ele>
<time>2020-09-10T10:45:33Z</time>
</trkpt>
<trkpt lat="48.618214" lon="10.244364">
<ele>407.046</ele>
<time>2020-09-10T10:45:34Z</time>
</trkpt>
<trkpt lat="48.618183" lon="10.24443">
<ele>407.046</ele>
<time>2020-09-10T10:45:35Z</time>
</trkpt>
<trkpt lat="48.618153" lon="10.244494">
<ele>407.046</ele>
<time>2020-09-10T10:45:36Z</time>
</trkpt>
<trkpt lat="48.618126" lon="10.244556">
<ele>407.046</ele>
<time>2020-09-10T10:45:37Z</time>
</trkpt>
<trkpt lat="48.618103" lon="10.244618">
<ele>407.046</ele>
<time>2020-09-10T10:45:38Z</time>
</trkpt>
<trkpt lat="48.618084" lon="10.244675">
<ele>407.046</ele>
<time>2020-09-10T10:45:39Z</time>
</trkpt>
<trkpt lat="48.618073" lon="10.244728">
<ele>407.283</ele>
<time>2020-09-10T10:45:40Z</time>
</trkpt>
<trkpt lat="48.618053" lon="10.24478">
<ele>407.47</ele>
<time>2020-09-10T10:45:41Z</time>
</trkpt>
<trkpt lat="48.618038" lon="10.244831">
<ele>407.618</ele>
<time>2020-09-10T10:45:42Z</time>
</trkpt>
<trkpt lat="48.618023" lon="10.24488">
<ele>407.711</ele>
<time>2020-09-10T10:45:43Z</time>
</trkpt>
<trkpt lat="48.618011" lon="10.244928">
<ele>408.017</ele>
<time>2020-09-10T10:45:44Z</time>
</trkpt>
<trkpt lat="48.618" lon="10.244976">
<ele>408.296</ele>
<time>2020-09-10T10:45:45Z</time>
</trkpt>
<trkpt lat="48.617989" lon="10.245022">
<ele>408.521</ele>
<time>2020-09-10T10:45:46Z</time>
</trkpt>
<trkpt lat="48.617973" lon="10.245069">
<ele>408.671</ele>
<time>2020-09-10T10:45:47Z</time>
</trkpt>
<trkpt lat="48.617958" lon="10.245118">
<ele>408.989</ele>
<time>2020-09-10T10:45:48Z</time>
</trkpt>
<trkpt lat="48.617943" lon="10.245169">
<ele>409.247</ele>
<time>2020-09-10T10:45:49Z</time>
</trkpt>
<trkpt lat="48.61792" lon="10.24522">
<ele>409.449</ele>
<time>2020-09-10T10:45:50Z</time>
</trkpt>
<trkpt lat="48.617901" lon="10.24527">
<ele>409.597</ele>
<time>2020-09-10T10:45:51Z</time>
</trkpt>
<trkpt lat="48.617878" lon="10.245319">
<ele>409.702</ele>
<time>2020-09-10T10:45:52Z</time>
</trkpt>
<trkpt lat="48.617855" lon="10.245375">
<ele>409.752</ele>
<time>2020-09-10T10:45:53Z</time>
</trkpt>
<trkpt lat="48.617836" lon="10.245435">
<ele>409.788</ele>
<time>2020-09-10T10:45:54Z</time>
</trkpt>
<trkpt lat="48.617809" lon="10.245498">
<ele>409.81</ele>
<time>2020-09-10T10:45:55Z</time>
</trkpt>
<trkpt lat="48.617783" lon="10.245563">
<ele>409.81</ele>
<time>2020-09-10T10:45:56Z</time>
</trkpt>
<trkpt lat="48.617756" lon="10.245627">
<ele>409.81</ele>
<time>2020-09-10T10:45:57Z</time>
</trkpt>
<trkpt lat="48.617729" lon="10.245693">
<ele>409.81</ele>
<time>2020-09-10T10:45:58Z</time>
</trkpt>
<trkpt lat="48.61771" lon="10.24576">
<ele>409.81</ele>
<time>2020-09-10T10:45:59Z</time>
</trkpt>
<trkpt lat="48.617687" lon="10.245829">
<ele>409.81</ele>
<time>2020-09-10T10:46:00Z</time>
</trkpt>
<trkpt lat="48.617661" lon="10.245895">
<ele>409.81</ele>
<time>2020-09-10T10:46:01Z</time>
</trkpt>
<trkpt lat="48.617634" lon="10.245967">
<ele>409.81</ele>
<time>2020-09-10T10:46:02Z</time>
</trkpt>
<trkpt lat="48.617607" lon="10.246038">
<ele>409.81</ele>
<time>2020-09-10T10:46:03Z</time>
</trkpt>
<trkpt lat="48.617584" lon="10.24611">
<ele>409.81</ele>
<time>2020-09-10T10:46:04Z</time>
</trkpt>
<trkpt lat="48.617558" lon="10.246181">
<ele>409.81</ele>
<time>2020-09-10T10:46:05Z</time>
</trkpt>
<trkpt lat="48.617531" lon="10.24625">
<ele>409.81</ele>
<time>2020-09-10T10:46:06Z</time>
</trkpt>
<trkpt lat="48.617496" lon="10.24632">
<ele>409.81</ele>
<time>2020-09-10T10:46:07Z</time>
</trkpt>
<trkpt lat="48.617466" lon="10.246384">
<ele>409.81</ele>
<time>2020-09-10T10:46:08Z</time>
</trkpt>
<trkpt lat="48.617432" lon="10.246447">
<ele>409.81</ele>
<time>2020-09-10T10:46:09Z</time>
</trkpt>
<trkpt lat="48.617397" lon="10.246508">
<ele>409.81</ele>
<time>2020-09-10T10:46:10Z</time>
</trkpt>
<trkpt lat="48.617363" lon="10.246572">
<ele>409.81</ele>
<time>2020-09-10T10:46:11Z</time>
</trkpt>
<trkpt lat="48.617332" lon="10.246634">
<ele>409.81</ele>
<time>2020-09-10T10:46:12Z</time>
</trkpt>
<trkpt lat="48.617302" lon="10.246688">
<ele>409.81</ele>
<time>2020-09-10T10:46:13Z</time>
</trkpt>
<trkpt lat="48.617275" lon="10.246745">
<ele>409.81</ele>
<time>2020-09-10T10:46:14Z</time>
</trkpt>
<trkpt lat="48.617245" lon="10.246803">
<ele>409.81</ele>
<time>2020-09-10T10:46:15Z</time>
</trkpt>
<trkpt lat="48.617218" lon="10.246866">
<ele>409.81</ele>
<time>2020-09-10T10:46:16Z</time>
</trkpt>
<trkpt lat="48.617184" lon="10.246935">
<ele>409.81</ele>
<time>2020-09-10T10:46:17Z</time>
</trkpt>
<trkpt lat="48.617153" lon="10.246998">
<ele>409.81</ele>
<time>2020-09-10T10:46:18Z</time>
</trkpt>
<trkpt lat="48.617119" lon="10.247065">
<ele>409.81</ele>
<time>2020-09-10T10:46:19Z</time>
</trkpt>
<trkpt lat="48.617085" lon="10.247128">
<ele>409.81</ele>
<time>2020-09-10T10:46:20Z</time>
</trkpt>
<trkpt lat="48.617043" lon="10.247189">
<ele>409.58</ele>
<time>2020-09-10T10:46:21Z</time>
</trkpt>
<trkpt lat="48.617001" lon="10.247243">
<ele>409.402</ele>
<time>2020-09-10T10:46:22Z</time>
</trkpt>
<trkpt lat="48.616955" lon="10.247302">
<ele>409.269</ele>
<time>2020-09-10T10:46:23Z</time>
</trkpt>
<trkpt lat="48.616909" lon="10.247362">
<ele>409.181</ele>
<time>2020-09-10T10:46:24Z</time>
</trkpt>
<trkpt lat="48.616867" lon="10.247412">
<ele>409.087</ele>
<time>2020-09-10T10:46:25Z</time>
</trkpt>
<trkpt lat="48.616821" lon="10.247469">
<ele>408.778</ele>
<time>2020-09-10T10:46:26Z</time>
</trkpt>
<trkpt lat="48.616776" lon="10.247526">
<ele>408.539</ele>
<time>2020-09-10T10:46:27Z</time>
</trkpt>
<trkpt lat="48.616722" lon="10.247595">
<ele>408.389</ele>
<time>2020-09-10T10:46:28Z</time>
</trkpt>
<trkpt lat="48.616665" lon="10.247665">
<ele>407.896</ele>
<time>2020-09-10T10:46:29Z</time>
</trkpt>
<trkpt lat="48.616615" lon="10.247742">
<ele>407.596</ele>
<time>2020-09-10T10:46:30Z</time>
</trkpt>
<trkpt lat="48.616558" lon="10.247813">
<ele>407.429</ele>
<time>2020-09-10T10:46:31Z</time>
</trkpt>
<trkpt lat="48.616497" lon="10.247884">
<ele>407.047</ele>
<time>2020-09-10T10:46:32Z</time>
</trkpt>
<trkpt lat="48.61644" lon="10.247955">
<ele>406.528</ele>
<time>2020-09-10T10:46:33Z</time>
</trkpt>
<trkpt lat="48.616375" lon="10.248029">
<ele>406.169</ele>
<time>2020-09-10T10:46:34Z</time>
</trkpt>
<trkpt lat="48.616306" lon="10.248102">
<ele>405.835</ele>
<time>2020-09-10T10:46:35Z</time>
</trkpt>
<trkpt lat="48.616241" lon="10.248172">
<ele>405.597</ele>
<time>2020-09-10T10:46:36Z</time>
</trkpt>
<trkpt lat="48.616173" lon="10.248239">
<ele>405.43</ele>
<time>2020-09-10T10:46:37Z</time>
</trkpt>
<trkpt lat="48.616104" lon="10.248302">
<ele>405.327</ele>
<time>2020-09-10T10:46:38Z</time>
</trkpt>
<trkpt lat="48.616035" lon="10.248374">
<ele>404.996</ele>
<time>2020-09-10T10:46:39Z</time>
</trkpt>
<trkpt lat="48.615971" lon="10.248437">
<ele>404.765</ele>
<time>2020-09-10T10:46:40Z</time>
</trkpt>
<trkpt lat="48.615902" lon="10.248496">
<ele>404.561</ele>
<time>2020-09-10T10:46:41Z</time>
</trkpt>
<trkpt lat="48.615845" lon="10.248542">
<ele>404.438</ele>
<time>2020-09-10T10:46:42Z</time>
</trkpt>
<trkpt lat="48.615784" lon="10.248586">
<ele>404.353</ele>
<time>2020-09-10T10:46:43Z</time>
</trkpt>
<trkpt lat="48.615726" lon="10.248622">
<ele>404.285</ele>
<time>2020-09-10T10:46:44Z</time>
</trkpt>
<trkpt lat="48.615669" lon="10.248652">
<ele>404.226</ele>
<time>2020-09-10T10:46:45Z</time>
</trkpt>
<trkpt lat="48.615604" lon="10.248684">
<ele>404.196</ele>
<time>2020-09-10T10:46:46Z</time>
</trkpt>
<trkpt lat="48.615547" lon="10.24872">
<ele>404.197</ele>
<time>2020-09-10T10:46:47Z</time>
</trkpt>
<trkpt lat="48.61549" lon="10.248757">
<ele>404.196</ele>
<time>2020-09-10T10:46:48Z</time>
</trkpt>
<trkpt lat="48.615429" lon="10.24879">
<ele>404.196</ele>
<time>2020-09-10T10:46:49Z</time>
</trkpt>
<trkpt lat="48.615372" lon="10.248823">
<ele>404.196</ele>
<time>2020-09-10T10:46:50Z</time>
</trkpt>
<trkpt lat="48.615311" lon="10.248855">
<ele>404.196</ele>
<time>2020-09-10T10:46:51Z</time>
</trkpt>
<trkpt lat="48.615246" lon="10.248887">
<ele>404.196</ele>
<time>2020-09-10T10:46:52Z</time>
</trkpt>
<trkpt lat="48.615185" lon="10.248917">
<ele>404.196</ele>
<time>2020-09-10T10:46:53Z</time>
</trkpt>
<trkpt lat="48.61512" lon="10.248941">
<ele>404.196</ele>
<time>2020-09-10T10:46:54Z</time>
</trkpt>
<trkpt lat="48.615059" lon="10.248965">
<ele>404.196</ele>
<time>2020-09-10T10:46:55Z</time>
</trkpt>
<trkpt lat="48.614994" lon="10.248988">
<ele>404.196</ele>
<time>2020-09-10T10:46:56Z</time>
</trkpt>
<trkpt lat="48.614937" lon="10.249011">
<ele>404.196</ele>
<time>2020-09-10T10:46:57Z</time>
</trkpt>
<trkpt lat="48.61488" lon="10.249035">
<ele>404.196</ele>
<time>2020-09-10T10:46:58Z</time>
</trkpt>
<trkpt lat="48.614819" lon="10.249057">
<ele>404.196</ele>
<time>2020-09-10T10:46:59Z</time>
</trkpt>
<trkpt lat="48.614761" lon="10.249077">
<ele>404.196</ele>
<time>2020-09-10T10:47:00Z</time>
</trkpt>
<trkpt lat="48.614704" lon="10.249097">
<ele>404.196</ele>
<time>2020-09-10T10:47:01Z</time>
</trkpt>
<trkpt lat="48.614647" lon="10.249113">
<ele>404.196</ele>
<time>2020-09-10T10:47:02Z</time>
</trkpt>
<trkpt lat="48.614586" lon="10.249126">
<ele>404.196</ele>
<time>2020-09-10T10:47:03Z</time>
</trkpt>
<trkpt lat="48.614529" lon="10.24914">
<ele>404.196</ele>
<time>2020-09-10T10:47:04Z</time>
</trkpt>
<trkpt lat="48.614468" lon="10.249153">
<ele>404.196</ele>
<time>2020-09-10T10:47:05Z</time>
</trkpt>
<trkpt lat="48.61441" lon="10.249165">
<ele>404.196</ele>
<time>2020-09-10T10:47:06Z</time>
</trkpt>
<trkpt lat="48.614353" lon="10.249179">
<ele>404.196</ele>
<time>2020-09-10T10:47:07Z</time>
</trkpt>
<trkpt lat="48.6143" lon="10.249187">
<ele>404.196</ele>
<time>2020-09-10T10:47:08Z</time>
</trkpt>
<trkpt lat="48.614246" lon="10.249198">
<ele>404.196</ele>
<time>2020-09-10T10:47:09Z</time>
</trkpt>
<trkpt lat="48.614193" lon="10.249204">
<ele>404.196</ele>
<time>2020-09-10T10:47:10Z</time>
</trkpt>
<trkpt lat="48.61414" lon="10.249206">
<ele>404.196</ele>
<time>2020-09-10T10:47:11Z</time>
</trkpt>
<trkpt lat="48.614086" lon="10.249208">
<ele>404.196</ele>
<time>2020-09-10T10:47:12Z</time>
</trkpt>
<trkpt lat="48.614033" lon="10.249212">
<ele>404.196</ele>
<time>2020-09-10T10:47:13Z</time>
</trkpt>
<trkpt lat="48.613976" lon="10.24922">
<ele>404.196</ele>
<time>2020-09-10T10:47:14Z</time>
</trkpt>
<trkpt lat="48.613926" lon="10.249227">
<ele>404.196</ele>
<time>2020-09-10T10:47:15Z</time>
</trkpt>
<trkpt lat="48.613876" lon="10.249233">
<ele>404.196</ele>
<time>2020-09-10T10:47:16Z</time>
</trkpt>
<trkpt lat="48.613827" lon="10.249244">
<ele>404.196</ele>
<time>2020-09-10T10:47:17Z</time>
</trkpt>
<trkpt lat="48.613777" lon="10.249267">
<ele>404.196</ele>
<time>2020-09-10T10:47:18Z</time>
</trkpt>
<trkpt lat="48.613728" lon="10.2493">
<ele>404.196</ele>
<time>2020-09-10T10:47:19Z</time>
</trkpt>
<trkpt lat="48.613682" lon="10.249338">
<ele>404.196</ele>
<time>2020-09-10T10:47:20Z</time>
</trkpt>
<trkpt lat="48.613636" lon="10.249382">
<ele>404.196</ele>
<time>2020-09-10T10:47:21Z</time>
</trkpt>
<trkpt lat="48.61359" lon="10.249434">
<ele>404.196</ele>
<time>2020-09-10T10:47:22Z</time>
</trkpt>
<trkpt lat="48.613552" lon="10.249491">
<ele>404.196</ele>
<time>2020-09-10T10:47:23Z</time>
</trkpt>
<trkpt lat="48.613514" lon="10.249545">
<ele>404.196</ele>
<time>2020-09-10T10:47:24Z</time>
</trkpt>
<trkpt lat="48.613472" lon="10.249596">
<ele>403.941</ele>
<time>2020-09-10T10:47:25Z</time>
</trkpt>
<trkpt lat="48.613426" lon="10.24963">
<ele>403.732</ele>
<time>2020-09-10T10:47:26Z</time>
</trkpt>
<trkpt lat="48.613377" lon="10.249648">
<ele>403.56</ele>
<time>2020-09-10T10:47:27Z</time>
</trkpt>
<trkpt lat="48.613323" lon="10.249652">
<ele>403.421</ele>
<time>2020-09-10T10:47:28Z</time>
</trkpt>
<trkpt lat="48.613266" lon="10.249637">
<ele>403.315</ele>
<time>2020-09-10T10:47:29Z</time>
</trkpt>
<trkpt lat="48.613213" lon="10.249615">
<ele>403.237</ele>
<time>2020-09-10T10:47:30Z</time>
</trkpt>
<trkpt lat="48.613159" lon="10.249592">
<ele>403.185</ele>
<time>2020-09-10T10:47:31Z</time>
</trkpt>
<trkpt lat="48.613102" lon="10.249572">
<ele>403.161</ele>
<time>2020-09-10T10:47:32Z</time>
</trkpt>
<trkpt lat="48.613049" lon="10.249552">
<ele>403.16</ele>
<time>2020-09-10T10:47:33Z</time>
</trkpt>
<trkpt lat="48.612991" lon="10.249529">
<ele>403.161</ele>
<time>2020-09-10T10:47:34Z</time>
</trkpt>
<trkpt lat="48.612934" lon="10.249508">
<ele>403.161</ele>
<time>2020-09-10T10:47:35Z</time>
</trkpt>
<trkpt lat="48.612877" lon="10.249487">
<ele>403.161</ele>
<time>2020-09-10T10:47:36Z</time>
</trkpt>
<trkpt lat="48.61282" lon="10.249461">
<ele>403.161</ele>
<time>2020-09-10T10:47:37Z</time>
</trkpt>
<trkpt lat="48.612759" lon="10.249436">
<ele>403.161</ele>
<time>2020-09-10T10:47:38Z</time>
</trkpt>
<trkpt lat="48.612698" lon="10.249412">
<ele>403.161</ele>
<time>2020-09-10T10:47:39Z</time>
</trkpt>
<trkpt lat="48.612637" lon="10.249385">
<ele>403.161</ele>
<time>2020-09-10T10:47:40Z</time>
</trkpt>
<trkpt lat="48.612576" lon="10.249355">
<ele>403.161</ele>
<time>2020-09-10T10:47:41Z</time>
</trkpt>
<trkpt lat="48.612511" lon="10.249321">
<ele>403.161</ele>
<time>2020-09-10T10:47:42Z</time>
</trkpt>
<trkpt lat="48.612453" lon="10.24929">
<ele>403.161</ele>
<time>2020-09-10T10:47:43Z</time>
</trkpt>
<trkpt lat="48.612392" lon="10.24926">
<ele>403.161</ele>
<time>2020-09-10T10:47:44Z</time>
</trkpt>
<trkpt lat="48.612335" lon="10.249228">
<ele>403.161</ele>
<time>2020-09-10T10:47:45Z</time>
</trkpt>
<trkpt lat="48.612278" lon="10.249198">
<ele>403.161</ele>
<time>2020-09-10T10:47:46Z</time>
</trkpt>
<trkpt lat="48.612217" lon="10.249172">
<ele>403.161</ele>
<time>2020-09-10T10:47:47Z</time>
</trkpt>
<trkpt lat="48.612167" lon="10.249128">
<ele>403.161</ele>
<time>2020-09-10T10:47:48Z</time>
</trkpt>
<trkpt lat="48.612118" lon="10.249088">
<ele>403.161</ele>
<time>2020-09-10T10:47:49Z</time>
</trkpt>
<trkpt lat="48.612064" lon="10.24906">
<ele>403.161</ele>
<time>2020-09-10T10:47:50Z</time>
</trkpt>
<trkpt lat="48.612015" lon="10.24903">
<ele>403.161</ele>
<time>2020-09-10T10:47:51Z</time>
</trkpt>
<trkpt lat="48.611961" lon="10.249001">
<ele>403.161</ele>
<time>2020-09-10T10:47:52Z</time>
</trkpt>
<trkpt lat="48.611908" lon="10.248973">
<ele>403.161</ele>
<time>2020-09-10T10:47:53Z</time>
</trkpt>
<trkpt lat="48.611858" lon="10.248944">
<ele>403.161</ele>
<time>2020-09-10T10:47:54Z</time>
</trkpt>
<trkpt lat="48.611801" lon="10.248917">
<ele>403.161</ele>
<time>2020-09-10T10:47:55Z</time>
</trkpt>
<trkpt lat="48.611752" lon="10.24889">
<ele>403.161</ele>
<time>2020-09-10T10:47:56Z</time>
</trkpt>
<trkpt lat="48.611694" lon="10.24886">
<ele>403.161</ele>
<time>2020-09-10T10:47:57Z</time>
</trkpt>
<trkpt lat="48.611645" lon="10.248831">
<ele>403.161</ele>
<time>2020-09-10T10:47:58Z</time>
</trkpt>
<trkpt lat="48.611595" lon="10.248798">
<ele>403.161</ele>
<time>2020-09-10T10:47:59Z</time>
</trkpt>
<trkpt lat="48.611542" lon="10.248766">
<ele>403.161</ele>
<time>2020-09-10T10:48:00Z</time>
</trkpt>
<trkpt lat="48.611492" lon="10.248734">
<ele>403.161</ele>
<time>2020-09-10T10:48:01Z</time>
</trkpt>
<trkpt lat="48.611435" lon="10.248705">
<ele>403.161</ele>
<time>2020-09-10T10:48:02Z</time>
</trkpt>
<trkpt lat="48.611382" lon="10.248675">
<ele>403.161</ele>
<time>2020-09-10T10:48:03Z</time>
</trkpt>
<trkpt lat="48.611328" lon="10.248642">
<ele>403.161</ele>
<time>2020-09-10T10:48:04Z</time>
</trkpt>
<trkpt lat="48.611275" lon="10.248611">
<ele>403.161</ele>
<time>2020-09-10T10:48:05Z</time>
</trkpt>
<trkpt lat="48.611221" lon="10.24858">
<ele>403.161</ele>
<time>2020-09-10T10:48:06Z</time>
</trkpt>
<trkpt lat="48.611168" lon="10.24855">
<ele>402.884</ele>
<time>2020-09-10T10:48:07Z</time>
</trkpt>
<trkpt lat="48.611115" lon="10.248521">
<ele>402.672</ele>
<time>2020-09-10T10:48:08Z</time>
</trkpt>
<trkpt lat="48.611065" lon="10.248491">
<ele>402.512</ele>
<time>2020-09-10T10:48:09Z</time>
</trkpt>
<trkpt lat="48.611012" lon="10.248462">
<ele>402.396</ele>
<time>2020-09-10T10:48:10Z</time>
</trkpt>
<trkpt lat="48.610962" lon="10.24843">
<ele>402.313</ele>
<time>2020-09-10T10:48:11Z</time>
</trkpt>
<trkpt lat="48.610912" lon="10.248399">
<ele>402.258</ele>
<time>2020-09-10T10:48:12Z</time>
</trkpt>
<trkpt lat="48.610859" lon="10.248368">
<ele>402.234</ele>
<time>2020-09-10T10:48:13Z</time>
</trkpt>
<trkpt lat="48.610809" lon="10.248337">
<ele>402.211</ele>
<time>2020-09-10T10:48:14Z</time>
</trkpt>
<trkpt lat="48.610752" lon="10.248309">
<ele>402.211</ele>
<time>2020-09-10T10:48:15Z</time>
</trkpt>
<trkpt lat="48.610703" lon="10.248278">
<ele>402.211</ele>
<time>2020-09-10T10:48:16Z</time>
</trkpt>
<trkpt lat="48.610649" lon="10.248252">
<ele>402.211</ele>
<time>2020-09-10T10:48:17Z</time>
</trkpt>
<trkpt lat="48.6106" lon="10.248225">
<ele>402.211</ele>
<time>2020-09-10T10:48:18Z</time>
</trkpt>
<trkpt lat="48.610554" lon="10.2482">
<ele>402.211</ele>
<time>2020-09-10T10:48:19Z</time>
</trkpt>
<trkpt lat="48.610512" lon="10.248186">
<ele>402.211</ele>
<time>2020-09-10T10:48:20Z</time>
</trkpt>
<trkpt lat="48.610462" lon="10.248181">
<ele>402.211</ele>
<time>2020-09-10T10:48:21Z</time>
</trkpt>
<trkpt lat="48.610416" lon="10.248167">
<ele>402.211</ele>
<time>2020-09-10T10:48:22Z</time>
</trkpt>
<trkpt lat="48.610367" lon="10.248137">
<ele>402.211</ele>
<time>2020-09-10T10:48:23Z</time>
</trkpt>
<trkpt lat="48.610317" lon="10.248108">
<ele>402.211</ele>
<time>2020-09-10T10:48:24Z</time>
</trkpt>
<trkpt lat="48.61026" lon="10.248085">
<ele>402.211</ele>
<time>2020-09-10T10:48:25Z</time>
</trkpt>
<trkpt lat="48.610203" lon="10.248067">
<ele>402.211</ele>
<time>2020-09-10T10:48:26Z</time>
</trkpt>
<trkpt lat="48.610142" lon="10.24805">
<ele>402.211</ele>
<time>2020-09-10T10:48:27Z</time>
</trkpt>
<trkpt lat="48.610088" lon="10.248029">
<ele>402.211</ele>
<time>2020-09-10T10:48:28Z</time>
</trkpt>
<trkpt lat="48.610031" lon="10.248007">
<ele>402.211</ele>
<time>2020-09-10T10:48:29Z</time>
</trkpt>
<trkpt lat="48.609974" lon="10.247985">
<ele>402.211</ele>
<time>2020-09-10T10:48:30Z</time>
</trkpt>
<trkpt lat="48.609917" lon="10.247965">
<ele>402.211</ele>
<time>2020-09-10T10:48:31Z</time>
</trkpt>
<trkpt lat="48.609859" lon="10.247947">
<ele>402.211</ele>
<time>2020-09-10T10:48:32Z</time>
</trkpt>
<trkpt lat="48.609802" lon="10.24793">
<ele>402.211</ele>
<time>2020-09-10T10:48:33Z</time>
</trkpt>
<trkpt lat="48.609745" lon="10.247911">
<ele>402.211</ele>
<time>2020-09-10T10:48:34Z</time>
</trkpt>
<trkpt lat="48.609692" lon="10.247896">
<ele>402.211</ele>
<time>2020-09-10T10:48:35Z</time>
</trkpt>
<trkpt lat="48.609638" lon="10.247884">
<ele>402.211</ele>
<time>2020-09-10T10:48:36Z</time>
</trkpt>
<trkpt lat="48.609581" lon="10.247869">
<ele>402.211</ele>
<time>2020-09-10T10:48:37Z</time>
</trkpt>
<trkpt lat="48.609531" lon="10.247855">
<ele>402.211</ele>
<time>2020-09-10T10:48:38Z</time>
</trkpt>
<trkpt lat="48.609474" lon="10.247838">
<ele>402.211</ele>
<time>2020-09-10T10:48:39Z</time>
</trkpt>
<trkpt lat="48.609421" lon="10.247824">
<ele>402.211</ele>
<time>2020-09-10T10:48:40Z</time>
</trkpt>
<trkpt lat="48.609364" lon="10.247819">
<ele>402.211</ele>
<time>2020-09-10T10:48:41Z</time>
</trkpt>
<trkpt lat="48.609306" lon="10.247811">
<ele>402.211</ele>
<time>2020-09-10T10:48:42Z</time>
</trkpt>
<trkpt lat="48.609249" lon="10.2478">
<ele>402.211</ele>
<time>2020-09-10T10:48:43Z</time>
</trkpt>
<trkpt lat="48.609184" lon="10.247787">
<ele>402.211</ele>
<time>2020-09-10T10:48:44Z</time>
</trkpt>
<trkpt lat="48.609131" lon="10.247777">
<ele>402.211</ele>
<time>2020-09-10T10:48:45Z</time>
</trkpt>
<trkpt lat="48.609074" lon="10.247768">
<ele>402.211</ele>
<time>2020-09-10T10:48:46Z</time>
</trkpt>
<trkpt lat="48.609013" lon="10.247758">
<ele>402.211</ele>
<time>2020-09-10T10:48:47Z</time>
</trkpt>
<trkpt lat="48.608955" lon="10.247746">
<ele>402.211</ele>
<time>2020-09-10T10:48:48Z</time>
</trkpt>
<trkpt lat="48.608898" lon="10.247742">
<ele>402.211</ele>
<time>2020-09-10T10:48:49Z</time>
</trkpt>
<trkpt lat="48.608841" lon="10.247733">
<ele>402.211</ele>
<time>2020-09-10T10:48:50Z</time>
</trkpt>
<trkpt lat="48.608788" lon="10.247726">
<ele>402.211</ele>
<time>2020-09-10T10:48:51Z</time>
</trkpt>
<trkpt lat="48.60873" lon="10.247719">
<ele>402.211</ele>
<time>2020-09-10T10:48:52Z</time>
</trkpt>
<trkpt lat="48.608673" lon="10.247715">
<ele>402.211</ele>
<time>2020-09-10T10:48:53Z</time>
</trkpt>
<trkpt lat="48.608616" lon="10.247712">
<ele>402.211</ele>
<time>2020-09-10T10:48:54Z</time>
</trkpt>
<trkpt lat="48.608559" lon="10.247706">
<ele>402.002</ele>
<time>2020-09-10T10:48:55Z</time>
</trkpt>
<trkpt lat="48.608498" lon="10.2477">
<ele>401.825</ele>
<time>2020-09-10T10:48:56Z</time>
</trkpt>
<trkpt lat="48.608444" lon="10.247697">
<ele>401.68</ele>
<time>2020-09-10T10:48:57Z</time>
</trkpt>
<trkpt lat="48.608387" lon="10.247691">
<ele>401.562</ele>
<time>2020-09-10T10:48:58Z</time>
</trkpt>
<trkpt lat="48.60833" lon="10.247685">
<ele>401.473</ele>
<time>2020-09-10T10:48:59Z</time>
</trkpt>
<trkpt lat="48.608273" lon="10.247684">
<ele>401.408</ele>
<time>2020-09-10T10:49:00Z</time>
</trkpt>
<trkpt lat="48.608215" lon="10.247681">
<ele>401.368</ele>
<time>2020-09-10T10:49:01Z</time>
</trkpt>
<trkpt lat="48.608162" lon="10.247681">
<ele>401.348</ele>
<time>2020-09-10T10:49:02Z</time>
</trkpt>
<trkpt lat="48.608109" lon="10.247682">
<ele>401.348</ele>
<time>2020-09-10T10:49:03Z</time>
</trkpt>
<trkpt lat="48.608051" lon="10.247684">
<ele>401.348</ele>
<time>2020-09-10T10:49:04Z</time>
</trkpt>
<trkpt lat="48.607998" lon="10.247686">
<ele>401.348</ele>
<time>2020-09-10T10:49:05Z</time>
</trkpt>
<trkpt lat="48.607944" lon="10.247688">
<ele>401.348</ele>
<time>2020-09-10T10:49:06Z</time>
</trkpt>
<trkpt lat="48.607895" lon="10.247689">
<ele>401.348</ele>
<time>2020-09-10T10:49:07Z</time>
</trkpt>
<trkpt lat="48.607841" lon="10.247689">
<ele>401.348</ele>
<time>2020-09-10T10:49:08Z</time>
</trkpt>
<trkpt lat="48.607788" lon="10.247689">
<ele>401.348</ele>
<time>2020-09-10T10:49:09Z</time>
</trkpt>
<trkpt lat="48.607738" lon="10.247693">
<ele>401.348</ele>
<time>2020-09-10T10:49:10Z</time>
</trkpt>
<trkpt lat="48.607685" lon="10.247697">
<ele>401.348</ele>
<time>2020-09-10T10:49:11Z</time>
</trkpt>
<trkpt lat="48.607624" lon="10.247702">
<ele>401.348</ele>
<time>2020-09-10T10:49:12Z</time>
</trkpt>
<trkpt lat="48.607571" lon="10.247706">
<ele>401.348</ele>
<time>2020-09-10T10:49:13Z</time>
</trkpt>
<trkpt lat="48.607517" lon="10.247715">
<ele>401.348</ele>
<time>2020-09-10T10:49:14Z</time>
</trkpt>
<trkpt lat="48.607456" lon="10.247722">
<ele>401.348</ele>
<time>2020-09-10T10:49:15Z</time>
</trkpt>
<trkpt lat="48.607403" lon="10.247726">
<ele>401.348</ele>
<time>2020-09-10T10:49:16Z</time>
</trkpt>
<trkpt lat="48.607346" lon="10.247731">
<ele>401.348</ele>
<time>2020-09-10T10:49:17Z</time>
</trkpt>
<trkpt lat="48.607288" lon="10.247737">
<ele>401.348</ele>
<time>2020-09-10T10:49:18Z</time>
</trkpt>
<trkpt lat="48.607231" lon="10.247744">
<ele>401.348</ele>
<time>2020-09-10T10:49:19Z</time>
</trkpt>
<trkpt lat="48.607178" lon="10.247754">
<ele>401.348</ele>
<time>2020-09-10T10:49:20Z</time>
</trkpt>
<trkpt lat="48.607128" lon="10.247762">
<ele>401.348</ele>
<time>2020-09-10T10:49:21Z</time>
</trkpt>
<trkpt lat="48.607075" lon="10.247768">
<ele>401.348</ele>
<time>2020-09-10T10:49:22Z</time>
</trkpt>
<trkpt lat="48.607029" lon="10.247775">
<ele>401.348</ele>
<time>2020-09-10T10:49:23Z</time>
</trkpt>
<trkpt lat="48.606979" lon="10.247779">
<ele>401.348</ele>
<time>2020-09-10T10:49:24Z</time>
</trkpt>
<trkpt lat="48.60693" lon="10.247782">
<ele>401.55</ele>
<time>2020-09-10T10:49:25Z</time>
</trkpt>
<trkpt lat="48.606876" lon="10.247788">
<ele>401.724</ele>
<time>2020-09-10T10:49:26Z</time>
</trkpt>
<trkpt lat="48.606827" lon="10.247796">
<ele>401.87</ele>
<time>2020-09-10T10:49:27Z</time>
</trkpt>
<trkpt lat="48.60677" lon="10.24781">
<ele>401.989</ele>
<time>2020-09-10T10:49:28Z</time>
</trkpt>
<trkpt lat="48.606712" lon="10.247825">
<ele>402.083</ele>
<time>2020-09-10T10:49:29Z</time>
</trkpt>
<trkpt lat="48.606663" lon="10.24784">
<ele>402.151</ele>
<time>2020-09-10T10:49:30Z</time>
</trkpt>
<trkpt lat="48.606609" lon="10.247855">
<ele>402.192</ele>
<time>2020-09-10T10:49:31Z</time>
</trkpt>
<trkpt lat="48.606552" lon="10.247869">
<ele>402.211</ele>
<time>2020-09-10T10:49:32Z</time>
</trkpt>
<trkpt lat="48.606495" lon="10.247884">
<ele>402.211</ele>
<time>2020-09-10T10:49:33Z</time>
</trkpt>
<trkpt lat="48.606441" lon="10.247898">
<ele>402.211</ele>
<time>2020-09-10T10:49:34Z</time>
</trkpt>
<trkpt lat="48.606384" lon="10.247917">
<ele>402.211</ele>
<time>2020-09-10T10:49:35Z</time>
</trkpt>
<trkpt lat="48.606331" lon="10.247933">
<ele>402.211</ele>
<time>2020-09-10T10:49:36Z</time>
</trkpt>
<trkpt lat="48.606277" lon="10.247952">
<ele>402.211</ele>
<time>2020-09-10T10:49:37Z</time>
</trkpt>
<trkpt lat="48.60622" lon="10.247972">
<ele>402.211</ele>
<time>2020-09-10T10:49:38Z</time>
</trkpt>
<trkpt lat="48.606167" lon="10.247992">
<ele>402.211</ele>
<time>2020-09-10T10:49:39Z</time>
</trkpt>
<trkpt lat="48.606113" lon="10.248015">
<ele>402.211</ele>
<time>2020-09-10T10:49:40Z</time>
</trkpt>
<trkpt lat="48.606052" lon="10.248038">
<ele>402.211</ele>
<time>2020-09-10T10:49:41Z</time>
</trkpt>
<trkpt lat="48.605999" lon="10.24806">
<ele>402.211</ele>
<time>2020-09-10T10:49:42Z</time>
</trkpt>
<trkpt lat="48.605942" lon="10.248083">
<ele>402.211</ele>
<time>2020-09-10T10:49:43Z</time>
</trkpt>
<trkpt lat="48.605885" lon="10.24811">
<ele>402.211</ele>
<time>2020-09-10T10:49:44Z</time>
</trkpt>
<trkpt lat="48.605827" lon="10.248136">
<ele>401.977</ele>
<time>2020-09-10T10:49:45Z</time>
</trkpt>
<trkpt lat="48.605774" lon="10.248158">
<ele>401.783</ele>
<time>2020-09-10T10:49:46Z</time>
</trkpt>
<trkpt lat="48.605721" lon="10.248181">
<ele>401.625</ele>
<time>2020-09-10T10:49:47Z</time>
</trkpt>
<trkpt lat="48.605663" lon="10.248205">
<ele>401.499</ele>
<time>2020-09-10T10:49:48Z</time>
</trkpt>
<trkpt lat="48.60561" lon="10.248227">
<ele>401.402</ele>
<time>2020-09-10T10:49:49Z</time>
</trkpt>
<trkpt lat="48.60556" lon="10.248248">
<ele>401.33</ele>
<time>2020-09-10T10:49:50Z</time>
</trkpt>
<trkpt lat="48.605507" lon="10.24827">
<ele>401.284</ele>
<time>2020-09-10T10:49:51Z</time>
</trkpt>
<trkpt lat="48.605457" lon="10.248293">
<ele>401.262</ele>
<time>2020-09-10T10:49:52Z</time>
</trkpt>
<trkpt lat="48.605404" lon="10.248315">
<ele>401.262</ele>
<time>2020-09-10T10:49:53Z</time>
</trkpt>
<trkpt lat="48.605354" lon="10.248341">
<ele>401.262</ele>
<time>2020-09-10T10:49:54Z</time>
</trkpt>
<trkpt lat="48.605301" lon="10.248366">
<ele>401.262</ele>
<time>2020-09-10T10:49:55Z</time>
</trkpt>
<trkpt lat="48.605244" lon="10.248393">
<ele>401.262</ele>
<time>2020-09-10T10:49:56Z</time>
</trkpt>
<trkpt lat="48.605186" lon="10.248418">
<ele>401.262</ele>
<time>2020-09-10T10:49:57Z</time>
</trkpt>
<trkpt lat="48.605129" lon="10.248447">
<ele>401.262</ele>
<time>2020-09-10T10:49:58Z</time>
</trkpt>
<trkpt lat="48.605076" lon="10.248479">
<ele>401.262</ele>
<time>2020-09-10T10:49:59Z</time>
</trkpt>
<trkpt lat="48.605019" lon="10.248512">
<ele>401.262</ele>
<time>2020-09-10T10:50:00Z</time>
</trkpt>
<trkpt lat="48.604965" lon="10.248542">
<ele>401.262</ele>
<time>2020-09-10T10:50:01Z</time>
</trkpt>
<trkpt lat="48.604908" lon="10.248569">
<ele>401.262</ele>
<time>2020-09-10T10:50:02Z</time>
</trkpt>
<trkpt lat="48.604855" lon="10.248598">
<ele>401.262</ele>
<time>2020-09-10T10:50:03Z</time>
</trkpt>
<trkpt lat="48.604801" lon="10.248626">
<ele>401.262</ele>
<time>2020-09-10T10:50:04Z</time>
</trkpt>
<trkpt lat="48.604748" lon="10.248653">
<ele>401.262</ele>
<time>2020-09-10T10:50:05Z</time>
</trkpt>
<trkpt lat="48.604691" lon="10.248682">
<ele>401.262</ele>
<time>2020-09-10T10:50:06Z</time>
</trkpt>
<trkpt lat="48.604637" lon="10.248708">
<ele>401.262</ele>
<time>2020-09-10T10:50:07Z</time>
</trkpt>
<trkpt lat="48.604584" lon="10.248736">
<ele>401.262</ele>
<time>2020-09-10T10:50:08Z</time>
</trkpt>
<trkpt lat="48.604527" lon="10.248765">
<ele>401.262</ele>
<time>2020-09-10T10:50:09Z</time>
</trkpt>
<trkpt lat="48.604477" lon="10.248794">
<ele>401.262</ele>
<time>2020-09-10T10:50:10Z</time>
</trkpt>
<trkpt lat="48.604424" lon="10.248818">
<ele>401.262</ele>
<time>2020-09-10T10:50:11Z</time>
</trkpt>
<trkpt lat="48.60437" lon="10.248845">
<ele>401.262</ele>
<time>2020-09-10T10:50:12Z</time>
</trkpt>
<trkpt lat="48.604324" lon="10.248869">
<ele>401.262</ele>
<time>2020-09-10T10:50:13Z</time>
</trkpt>
<trkpt lat="48.604275" lon="10.248894">
<ele>401.262</ele>
<time>2020-09-10T10:50:14Z</time>
</trkpt>
<trkpt lat="48.604225" lon="10.24892">
<ele>401.262</ele>
<time>2020-09-10T10:50:15Z</time>
</trkpt>
<trkpt lat="48.604176" lon="10.248952">
<ele>401.262</ele>
<time>2020-09-10T10:50:16Z</time>
</trkpt>
<trkpt lat="48.604126" lon="10.248981">
<ele>401.262</ele>
<time>2020-09-10T10:50:17Z</time>
</trkpt>
<trkpt lat="48.604073" lon="10.249011">
<ele>401.262</ele>
<time>2020-09-10T10:50:18Z</time>
</trkpt>
<trkpt lat="48.604027" lon="10.249041">
<ele>401.262</ele>
<time>2020-09-10T10:50:19Z</time>
</trkpt>
<trkpt lat="48.603973" lon="10.24907">
<ele>401.262</ele>
<time>2020-09-10T10:50:20Z</time>
</trkpt>
<trkpt lat="48.603924" lon="10.249097">
<ele>401.262</ele>
<time>2020-09-10T10:50:21Z</time>
</trkpt>
<trkpt lat="48.60387" lon="10.249128">
<ele>401.262</ele>
<time>2020-09-10T10:50:22Z</time>
</trkpt>
<trkpt lat="48.603817" lon="10.249158">
<ele>401.262</ele>
<time>2020-09-10T10:50:23Z</time>
</trkpt>
<trkpt lat="48.603767" lon="10.249189">
<ele>401.262</ele>
<time>2020-09-10T10:50:24Z</time>
</trkpt>
<trkpt lat="48.603714" lon="10.24922">
<ele>401.262</ele>
<time>2020-09-10T10:50:25Z</time>
</trkpt>
<trkpt lat="48.603661" lon="10.24925">
<ele>401.262</ele>
<time>2020-09-10T10:50:26Z</time>
</trkpt>
<trkpt lat="48.603607" lon="10.249279">
<ele>401.262</ele>
<time>2020-09-10T10:50:27Z</time>
</trkpt>
<trkpt lat="48.603558" lon="10.249309">
<ele>401.262</ele>
<time>2020-09-10T10:50:28Z</time>
</trkpt>
<trkpt lat="48.603512" lon="10.249338">
<ele>401.262</ele>
<time>2020-09-10T10:50:29Z</time>
</trkpt>
<trkpt lat="48.603458" lon="10.24937">
<ele>401.262</ele>
<time>2020-09-10T10:50:30Z</time>
</trkpt>
<trkpt lat="48.603413" lon="10.249401">
<ele>401.262</ele>
<time>2020-09-10T10:50:31Z</time>
</trkpt>
<trkpt lat="48.603363" lon="10.249434">
<ele>401.262</ele>
<time>2020-09-10T10:50:32Z</time>
</trkpt>
<trkpt lat="48.603317" lon="10.249466">
<ele>401.262</ele>
<time>2020-09-10T10:50:33Z</time>
</trkpt>
<trkpt lat="48.603268" lon="10.249498">
<ele>401.262</ele>
<time>2020-09-10T10:50:34Z</time>
</trkpt>
<trkpt lat="48.603218" lon="10.249531">
<ele>401.262</ele>
<time>2020-09-10T10:50:35Z</time>
</trkpt>
<trkpt lat="48.603168" lon="10.24956">
<ele>401.262</ele>
<time>2020-09-10T10:50:36Z</time>
</trkpt>
<trkpt lat="48.603119" lon="10.249592">
<ele>401.262</ele>
<time>2020-09-10T10:50:37Z</time>
</trkpt>
<trkpt lat="48.603073" lon="10.249625">
<ele>401.262</ele>
<time>2020-09-10T10:50:38Z</time>
</trkpt>
<trkpt lat="48.603024" lon="10.24966">
<ele>401.262</ele>
<time>2020-09-10T10:50:39Z</time>
</trkpt>
<trkpt lat="48.60297" lon="10.249697">
<ele>401.262</ele>
<time>2020-09-10T10:50:40Z</time>
</trkpt>
<trkpt lat="48.602924" lon="10.249734">
<ele>401.262</ele>
<time>2020-09-10T10:50:41Z</time>
</trkpt>
<trkpt lat="48.602867" lon="10.24977">
<ele>401.262</ele>
<time>2020-09-10T10:50:42Z</time>
</trkpt>
<trkpt lat="48.602818" lon="10.249805">
<ele>401.262</ele>
<time>2020-09-10T10:50:43Z</time>
</trkpt>
<trkpt lat="48.602764" lon="10.249839">
<ele>401.262</ele>
<time>2020-09-10T10:50:44Z</time>
</trkpt>
<trkpt lat="48.602715" lon="10.249875">
<ele>401.262</ele>
<time>2020-09-10T10:50:45Z</time>
</trkpt>
<trkpt lat="48.602665" lon="10.24991">
<ele>401.262</ele>
<time>2020-09-10T10:50:46Z</time>
</trkpt>
<trkpt lat="48.602619" lon="10.249946">
<ele>401.262</ele>
<time>2020-09-10T10:50:47Z</time>
</trkpt>
<trkpt lat="48.602577" lon="10.249977">
<ele>401.262</ele>
<time>2020-09-10T10:50:48Z</time>
</trkpt>
<trkpt lat="48.602535" lon="10.250005">
<ele>401.262</ele>
<time>2020-09-10T10:50:49Z</time>
</trkpt>
<trkpt lat="48.602497" lon="10.250031">
<ele>401.499</ele>
<time>2020-09-10T10:50:50Z</time>
</trkpt>
<trkpt lat="48.602459" lon="10.250058">
<ele>401.689</ele>
<time>2020-09-10T10:50:51Z</time>
</trkpt>
<trkpt lat="48.602421" lon="10.250088">
<ele>401.838</ele>
<time>2020-09-10T10:50:52Z</time>
</trkpt>
<trkpt lat="48.602383" lon="10.25012">
<ele>401.954</ele>
<time>2020-09-10T10:50:53Z</time>
</trkpt>
<trkpt lat="48.602341" lon="10.250149">
<ele>402.041</ele>
<time>2020-09-10T10:50:54Z</time>
</trkpt>
<trkpt lat="48.602299" lon="10.250178">
<ele>402.129</ele>
<time>2020-09-10T10:50:55Z</time>
</trkpt>
<trkpt lat="48.602253" lon="10.250212">
<ele>402.185</ele>
<time>2020-09-10T10:50:56Z</time>
</trkpt>
<trkpt lat="48.602207" lon="10.250249">
<ele>402.211</ele>
<time>2020-09-10T10:50:57Z</time>
</trkpt>
<trkpt lat="48.602154" lon="10.250287">
<ele>402.211</ele>
<time>2020-09-10T10:50:58Z</time>
</trkpt>
<trkpt lat="48.602104" lon="10.250327">
<ele>401.961</ele>
<time>2020-09-10T10:50:59Z</time>
</trkpt>
<trkpt lat="48.602047" lon="10.25037">
<ele>401.77</ele>
<time>2020-09-10T10:51:00Z</time>
</trkpt>
<trkpt lat="48.601994" lon="10.250413">
<ele>401.632</ele>
<time>2020-09-10T10:51:01Z</time>
</trkpt>
<trkpt lat="48.601944" lon="10.250457">
<ele>401.53</ele>
<time>2020-09-10T10:51:02Z</time>
</trkpt>
<trkpt lat="48.601887" lon="10.250497">
<ele>401.462</ele>
<time>2020-09-10T10:51:03Z</time>
</trkpt>
<trkpt lat="48.601833" lon="10.250537">
<ele>401.414</ele>
<time>2020-09-10T10:51:04Z</time>
</trkpt>
<trkpt lat="48.60178" lon="10.250576">
<ele>401.369</ele>
<time>2020-09-10T10:51:05Z</time>
</trkpt>
<trkpt lat="48.601727" lon="10.250622">
<ele>401.348</ele>
<time>2020-09-10T10:51:06Z</time>
</trkpt>
<trkpt lat="48.601681" lon="10.250665">
<ele>401.348</ele>
<time>2020-09-10T10:51:07Z</time>
</trkpt>
<trkpt lat="48.601627" lon="10.250709">
<ele>401.348</ele>
<time>2020-09-10T10:51:08Z</time>
</trkpt>
<trkpt lat="48.601582" lon="10.25075">
<ele>401.047</ele>
<time>2020-09-10T10:51:09Z</time>
</trkpt>
<trkpt lat="48.601532" lon="10.250788">
<ele>400.812</ele>
<time>2020-09-10T10:51:10Z</time>
</trkpt>
<trkpt lat="48.601486" lon="10.250819">
<ele>400.628</ele>
<time>2020-09-10T10:51:11Z</time>
</trkpt>
<trkpt lat="48.601437" lon="10.250856">
<ele>400.495</ele>
<time>2020-09-10T10:51:12Z</time>
</trkpt>
<trkpt lat="48.601391" lon="10.250895">
<ele>400.396</ele>
<time>2020-09-10T10:51:13Z</time>
</trkpt>
<trkpt lat="48.601349" lon="10.25093">
<ele>400.323</ele>
<time>2020-09-10T10:51:14Z</time>
</trkpt>
<trkpt lat="48.601303" lon="10.250966">
<ele>400.257</ele>
<time>2020-09-10T10:51:15Z</time>
</trkpt>
<trkpt lat="48.601261" lon="10.251001">
<ele>400.424</ele>
<time>2020-09-10T10:51:16Z</time>
</trkpt>
<trkpt lat="48.601219" lon="10.251035">
<ele>400.469</ele>
<time>2020-09-10T10:51:17Z</time>
</trkpt>
<trkpt lat="48.601177" lon="10.251072">
<ele>400.659</ele>
<time>2020-09-10T10:51:18Z</time>
</trkpt>
<trkpt lat="48.601139" lon="10.251106">
<ele>400.81</ele>
<time>2020-09-10T10:51:19Z</time>
</trkpt>
<trkpt lat="48.601097" lon="10.251142">
<ele>400.92</ele>
<time>2020-09-10T10:51:20Z</time>
</trkpt>
<trkpt lat="48.601059" lon="10.251175">
<ele>400.997</ele>
<time>2020-09-10T10:51:21Z</time>
</trkpt>
<trkpt lat="48.601021" lon="10.25121">
<ele>401.045</ele>
<time>2020-09-10T10:51:22Z</time>
</trkpt>
<trkpt lat="48.600983" lon="10.251248">
<ele>401.068</ele>
<time>2020-09-10T10:51:23Z</time>
</trkpt>
<trkpt lat="48.600941" lon="10.251287">
<ele>401.089</ele>
<time>2020-09-10T10:51:24Z</time>
</trkpt>
<trkpt lat="48.600903" lon="10.251322">
<ele>401.089</ele>
<time>2020-09-10T10:51:25Z</time>
</trkpt>
<trkpt lat="48.600872" lon="10.251355">
<ele>401.367</ele>
<time>2020-09-10T10:51:26Z</time>
</trkpt>
<trkpt lat="48.600842" lon="10.251389">
<ele>401.583</ele>
<time>2020-09-10T10:51:27Z</time>
</trkpt>
<trkpt lat="48.600819" lon="10.251414">
<ele>401.749</ele>
<time>2020-09-10T10:51:28Z</time>
</trkpt>
<trkpt lat="48.600796" lon="10.25144">
<ele>401.866</ele>
<time>2020-09-10T10:51:29Z</time>
</trkpt>
<trkpt lat="48.600777" lon="10.251456">
<ele>401.956</ele>
<time>2020-09-10T10:51:30Z</time>
</trkpt>
<trkpt lat="48.600765" lon="10.251471">
<ele>402.01</ele>
<time>2020-09-10T10:51:31Z</time>
</trkpt>
<trkpt lat="48.60075" lon="10.251479">
<ele>402.038</ele>
<time>2020-09-10T10:51:32Z</time>
</trkpt>
<trkpt lat="48.600746" lon="10.251479">
<ele>402.038</ele>
<time>2020-09-10T10:51:33Z</time>
</trkpt>
<trkpt lat="48.60075" lon="10.251479">
<ele>402.038</ele>
<time>2020-09-10T10:51:35Z</time>
</trkpt>
<trkpt lat="48.600735" lon="10.251462">
<ele>402.038</ele>
<time>2020-09-10T10:51:56Z</time>
</trkpt>
<trkpt lat="48.600719" lon="10.251458">
<ele>402.038</ele>
<time>2020-09-10T10:51:57Z</time>
</trkpt>
<trkpt lat="48.600704" lon="10.251465">
<ele>402.038</ele>
<time>2020-09-10T10:51:58Z</time>
</trkpt>
<trkpt lat="48.600685" lon="10.251479">
<ele>402.038</ele>
<time>2020-09-10T10:51:59Z</time>
</trkpt>
<trkpt lat="48.600666" lon="10.251496">
<ele>402.297</ele>
<time>2020-09-10T10:52:00Z</time>
</trkpt>
<trkpt lat="48.600643" lon="10.251534">
<ele>402.529</ele>
<time>2020-09-10T10:52:01Z</time>
</trkpt>
<trkpt lat="48.600613" lon="10.251585">
<ele>402.691</ele>
<time>2020-09-10T10:52:02Z</time>
</trkpt>
<trkpt lat="48.600586" lon="10.251647">
<ele>402.764</ele>
<time>2020-09-10T10:52:03Z</time>
</trkpt>
<trkpt lat="48.600559" lon="10.251705">
<ele>402.81</ele>
<time>2020-09-10T10:52:04Z</time>
</trkpt>
<trkpt lat="48.600529" lon="10.251761">
<ele>402.856</ele>
<time>2020-09-10T10:52:05Z</time>
</trkpt>
<trkpt lat="48.600502" lon="10.251814">
<ele>402.888</ele>
<time>2020-09-10T10:52:06Z</time>
</trkpt>
<trkpt lat="48.600468" lon="10.251861">
<ele>402.902</ele>
<time>2020-09-10T10:52:07Z</time>
</trkpt>
<trkpt lat="48.600441" lon="10.251908">
<ele>402.902</ele>
<time>2020-09-10T10:52:08Z</time>
</trkpt>
<trkpt lat="48.60041" lon="10.25196">
<ele>402.902</ele>
<time>2020-09-10T10:52:09Z</time>
</trkpt>
<trkpt lat="48.60038" lon="10.252015">
<ele>402.902</ele>
<time>2020-09-10T10:52:10Z</time>
</trkpt>
<trkpt lat="48.600357" lon="10.252071">
<ele>402.902</ele>
<time>2020-09-10T10:52:11Z</time>
</trkpt>
<trkpt lat="48.60033" lon="10.252129">
<ele>402.902</ele>
<time>2020-09-10T10:52:12Z</time>
</trkpt>
<trkpt lat="48.600307" lon="10.252185">
<ele>402.902</ele>
<time>2020-09-10T10:52:13Z</time>
</trkpt>
<trkpt lat="48.600285" lon="10.25224">
<ele>402.902</ele>
<time>2020-09-10T10:52:14Z</time>
</trkpt>
<trkpt lat="48.600258" lon="10.252298">
<ele>402.902</ele>
<time>2020-09-10T10:52:15Z</time>
</trkpt>
<trkpt lat="48.600235" lon="10.252357">
<ele>402.902</ele>
<time>2020-09-10T10:52:16Z</time>
</trkpt>
<trkpt lat="48.600208" lon="10.252414">
<ele>402.902</ele>
<time>2020-09-10T10:52:17Z</time>
</trkpt>
<trkpt lat="48.600185" lon="10.25247">
<ele>403.176</ele>
<time>2020-09-10T10:52:18Z</time>
</trkpt>
<trkpt lat="48.600155" lon="10.252528">
<ele>403.389</ele>
<time>2020-09-10T10:52:19Z</time>
</trkpt>
<trkpt lat="48.600132" lon="10.252587">
<ele>403.55</ele>
<time>2020-09-10T10:52:20Z</time>
</trkpt>
<trkpt lat="48.600105" lon="10.252646">
<ele>403.669</ele>
<time>2020-09-10T10:52:21Z</time>
</trkpt>
<trkpt lat="48.600079" lon="10.252708">
<ele>403.751</ele>
<time>2020-09-10T10:52:22Z</time>
</trkpt>
<trkpt lat="48.600048" lon="10.252768">
<ele>403.805</ele>
<time>2020-09-10T10:52:23Z</time>
</trkpt>
<trkpt lat="48.600021" lon="10.252833">
<ele>403.829</ele>
<time>2020-09-10T10:52:24Z</time>
</trkpt>
<trkpt lat="48.599991" lon="10.252898">
<ele>403.851</ele>
<time>2020-09-10T10:52:25Z</time>
</trkpt>
<trkpt lat="48.599957" lon="10.252967">
<ele>403.851</ele>
<time>2020-09-10T10:52:26Z</time>
</trkpt>
<trkpt lat="48.599926" lon="10.253036">
<ele>403.851</ele>
<time>2020-09-10T10:52:27Z</time>
</trkpt>
<trkpt lat="48.599899" lon="10.253109">
<ele>403.851</ele>
<time>2020-09-10T10:52:28Z</time>
</trkpt>
<trkpt lat="48.599869" lon="10.253181">
<ele>403.576</ele>
<time>2020-09-10T10:52:29Z</time>
</trkpt>
<trkpt lat="48.599834" lon="10.253248">
<ele>403.367</ele>
<time>2020-09-10T10:52:30Z</time>
</trkpt>
<trkpt lat="48.5998" lon="10.253317">
<ele>403.21</ele>
<time>2020-09-10T10:52:31Z</time>
</trkpt>
<trkpt lat="48.599762" lon="10.25338">
<ele>403.097</ele>
<time>2020-09-10T10:52:32Z</time>
</trkpt>
<trkpt lat="48.599724" lon="10.25344">
<ele>403.018</ele>
<time>2020-09-10T10:52:33Z</time>
</trkpt>
<trkpt lat="48.599682" lon="10.253495">
<ele>402.968</ele>
<time>2020-09-10T10:52:34Z</time>
</trkpt>
<trkpt lat="48.599636" lon="10.253541">
<ele>402.928</ele>
<time>2020-09-10T10:52:35Z</time>
</trkpt>
<trkpt lat="48.59959" lon="10.253582">
<ele>402.902</ele>
<time>2020-09-10T10:52:36Z</time>
</trkpt>
<trkpt lat="48.599537" lon="10.253616">
<ele>402.902</ele>
<time>2020-09-10T10:52:37Z</time>
</trkpt>
<trkpt lat="48.599483" lon="10.253648">
<ele>402.902</ele>
<time>2020-09-10T10:52:38Z</time>
</trkpt>
<trkpt lat="48.599438" lon="10.253678">
<ele>402.902</ele>
<time>2020-09-10T10:52:39Z</time>
</trkpt>
<trkpt lat="48.599384" lon="10.253708">
<ele>402.902</ele>
<time>2020-09-10T10:52:40Z</time>
</trkpt>
<trkpt lat="48.599335" lon="10.253736">
<ele>402.902</ele>
<time>2020-09-10T10:52:41Z</time>
</trkpt>
<trkpt lat="48.599281" lon="10.253763">
<ele>402.902</ele>
<time>2020-09-10T10:52:42Z</time>
</trkpt>
<trkpt lat="48.599236" lon="10.253795">
<ele>402.902</ele>
<time>2020-09-10T10:52:43Z</time>
</trkpt>
<trkpt lat="48.599186" lon="10.253825">
<ele>402.902</ele>
<time>2020-09-10T10:52:44Z</time>
</trkpt>
<trkpt lat="48.599136" lon="10.253853">
<ele>402.902</ele>
<time>2020-09-10T10:52:45Z</time>
</trkpt>
<trkpt lat="48.599087" lon="10.253879">
<ele>403.13</ele>
<time>2020-09-10T10:52:46Z</time>
</trkpt>
<trkpt lat="48.599045" lon="10.253907">
<ele>403.322</ele>
<time>2020-09-10T10:52:47Z</time>
</trkpt>
<trkpt lat="48.598991" lon="10.253941">
<ele>403.481</ele>
<time>2020-09-10T10:52:48Z</time>
</trkpt>
<trkpt lat="48.598946" lon="10.253973">
<ele>403.611</ele>
<time>2020-09-10T10:52:49Z</time>
</trkpt>
<trkpt lat="48.5989" lon="10.254014">
<ele>403.712</ele>
<time>2020-09-10T10:52:50Z</time>
</trkpt>
<trkpt lat="48.59885" lon="10.254054">
<ele>403.783</ele>
<time>2020-09-10T10:52:51Z</time>
</trkpt>
<trkpt lat="48.598808" lon="10.254095">
<ele>403.83</ele>
<time>2020-09-10T10:52:52Z</time>
</trkpt>
<trkpt lat="48.598763" lon="10.254136">
<ele>403.851</ele>
<time>2020-09-10T10:52:53Z</time>
</trkpt>
<trkpt lat="48.598717" lon="10.254182">
<ele>403.851</ele>
<time>2020-09-10T10:52:54Z</time>
</trkpt>
<trkpt lat="48.598679" lon="10.254227">
<ele>403.851</ele>
<time>2020-09-10T10:52:55Z</time>
</trkpt>
<trkpt lat="48.598637" lon="10.254275">
<ele>403.851</ele>
<time>2020-09-10T10:52:56Z</time>
</trkpt>
<trkpt lat="48.598598" lon="10.25432">
<ele>403.851</ele>
<time>2020-09-10T10:52:57Z</time>
</trkpt>
<trkpt lat="48.59856" lon="10.254365">
<ele>403.851</ele>
<time>2020-09-10T10:52:58Z</time>
</trkpt>
<trkpt lat="48.598522" lon="10.254412">
<ele>403.851</ele>
<time>2020-09-10T10:52:59Z</time>
</trkpt>
<trkpt lat="48.598492" lon="10.254455">
<ele>403.851</ele>
<time>2020-09-10T10:53:00Z</time>
</trkpt>
<trkpt lat="48.598457" lon="10.254503">
<ele>403.851</ele>
<time>2020-09-10T10:53:01Z</time>
</trkpt>
<trkpt lat="48.598423" lon="10.254555">
<ele>403.851</ele>
<time>2020-09-10T10:53:02Z</time>
</trkpt>
<trkpt lat="48.598392" lon="10.254605">
<ele>403.851</ele>
<time>2020-09-10T10:53:03Z</time>
</trkpt>
<trkpt lat="48.598362" lon="10.254653">
<ele>403.851</ele>
<time>2020-09-10T10:53:04Z</time>
</trkpt>
<trkpt lat="48.598335" lon="10.254706">
<ele>403.851</ele>
<time>2020-09-10T10:53:05Z</time>
</trkpt>
<trkpt lat="48.598312" lon="10.254768">
<ele>403.851</ele>
<time>2020-09-10T10:53:06Z</time>
</trkpt>
<trkpt lat="48.598286" lon="10.254837">
<ele>404.137</ele>
<time>2020-09-10T10:53:07Z</time>
</trkpt>
<trkpt lat="48.598259" lon="10.254909">
<ele>404.362</ele>
<time>2020-09-10T10:53:08Z</time>
</trkpt>
<trkpt lat="48.598228" lon="10.254987">
<ele>404.527</ele>
<time>2020-09-10T10:53:09Z</time>
</trkpt>
<trkpt lat="48.598206" lon="10.255068">
<ele>404.402</ele>
<time>2020-09-10T10:53:10Z</time>
</trkpt>
<trkpt lat="48.598194" lon="10.255157">
<ele>404.291</ele>
<time>2020-09-10T10:53:11Z</time>
</trkpt>
<trkpt lat="48.598167" lon="10.255245">
<ele>404.192</ele>
<time>2020-09-10T10:53:12Z</time>
</trkpt>
<trkpt lat="48.598141" lon="10.255334">
<ele>404.107</ele>
<time>2020-09-10T10:53:13Z</time>
</trkpt>
<trkpt lat="48.59811" lon="10.255424">
<ele>404.033</ele>
<time>2020-09-10T10:53:14Z</time>
</trkpt>
<trkpt lat="48.59808" lon="10.25551">
<ele>404.001</ele>
<time>2020-09-10T10:53:15Z</time>
</trkpt>
<trkpt lat="48.598042" lon="10.255595">
<ele>403.683</ele>
<time>2020-09-10T10:53:16Z</time>
</trkpt>
<trkpt lat="48.598007" lon="10.255678">
<ele>403.439</ele>
<time>2020-09-10T10:53:17Z</time>
</trkpt>
<trkpt lat="48.597969" lon="10.255758">
<ele>403.258</ele>
<time>2020-09-10T10:53:18Z</time>
</trkpt>
<trkpt lat="48.597927" lon="10.255836">
<ele>403.133</ele>
<time>2020-09-10T10:53:19Z</time>
</trkpt>
<trkpt lat="48.597885" lon="10.255915">
<ele>403.058</ele>
<time>2020-09-10T10:53:20Z</time>
</trkpt>
<trkpt lat="48.597839" lon="10.255994">
<ele>402.768</ele>
<time>2020-09-10T10:53:21Z</time>
</trkpt>
<trkpt lat="48.597801" lon="10.256068">
<ele>402.541</ele>
<time>2020-09-10T10:53:22Z</time>
</trkpt>
<trkpt lat="48.597755" lon="10.256145">
<ele>402.37</ele>
<time>2020-09-10T10:53:23Z</time>
</trkpt>
<trkpt lat="48.597717" lon="10.256222">
<ele>402.254</ele>
<time>2020-09-10T10:53:24Z</time>
</trkpt>
<trkpt lat="48.597675" lon="10.256296">
<ele>402.182</ele>
<time>2020-09-10T10:53:25Z</time>
</trkpt>
<trkpt lat="48.597637" lon="10.256371">
<ele>402.108</ele>
<time>2020-09-10T10:53:26Z</time>
</trkpt>
<trkpt lat="48.597595" lon="10.256445">
<ele>402.061</ele>
<time>2020-09-10T10:53:27Z</time>
</trkpt>
<trkpt lat="48.597557" lon="10.256518">
<ele>402.038</ele>
<time>2020-09-10T10:53:28Z</time>
</trkpt>
<trkpt lat="48.597519" lon="10.25659">
<ele>402.038</ele>
<time>2020-09-10T10:53:29Z</time>
</trkpt>
<trkpt lat="48.597481" lon="10.256662">
<ele>402.038</ele>
<time>2020-09-10T10:53:30Z</time>
</trkpt>
<trkpt lat="48.597446" lon="10.256736">
<ele>402.038</ele>
<time>2020-09-10T10:53:31Z</time>
</trkpt>
<trkpt lat="48.597408" lon="10.256808">
<ele>401.775</ele>
<time>2020-09-10T10:53:32Z</time>
</trkpt>
<trkpt lat="48.597374" lon="10.256878">
<ele>401.567</ele>
<time>2020-09-10T10:53:33Z</time>
</trkpt>
<trkpt lat="48.597336" lon="10.256949">
<ele>401.406</ele>
<time>2020-09-10T10:53:34Z</time>
</trkpt>
<trkpt lat="48.597298" lon="10.257027">
<ele>401.294</ele>
<time>2020-09-10T10:53:35Z</time>
</trkpt>
<trkpt lat="48.597256" lon="10.2571">
<ele>401.171</ele>
<time>2020-09-10T10:53:36Z</time>
</trkpt>
<trkpt lat="48.597229" lon="10.257172">
<ele>401.085</ele>
<time>2020-09-10T10:53:37Z</time>
</trkpt>
<trkpt lat="48.597187" lon="10.257249">
<ele>401.029</ele>
<time>2020-09-10T10:53:38Z</time>
</trkpt>
<trkpt lat="48.597149" lon="10.257327">
<ele>401.003</ele>
<time>2020-09-10T10:53:39Z</time>
</trkpt>
<trkpt lat="48.597111" lon="10.257398">
<ele>401.003</ele>
<time>2020-09-10T10:53:40Z</time>
</trkpt>
<trkpt lat="48.597065" lon="10.257466">
<ele>401.003</ele>
<time>2020-09-10T10:53:41Z</time>
</trkpt>
<trkpt lat="48.597023" lon="10.25753">
<ele>401.003</ele>
<time>2020-09-10T10:53:42Z</time>
</trkpt>
<trkpt lat="48.59697" lon="10.25758">
<ele>400.744</ele>
<time>2020-09-10T10:53:43Z</time>
</trkpt>
<trkpt lat="48.596916" lon="10.257616">
<ele>400.539</ele>
<time>2020-09-10T10:53:44Z</time>
</trkpt>
<trkpt lat="48.596855" lon="10.257647">
<ele>400.397</ele>
<time>2020-09-10T10:53:45Z</time>
</trkpt>
<trkpt lat="48.596794" lon="10.257672">
<ele>400.251</ele>
<time>2020-09-10T10:53:46Z</time>
</trkpt>
<trkpt lat="48.596729" lon="10.257689">
<ele>400.134</ele>
<time>2020-09-10T10:53:47Z</time>
</trkpt>
<trkpt lat="48.596664" lon="10.257707">
<ele>400.045</ele>
<time>2020-09-10T10:53:48Z</time>
</trkpt>
<trkpt lat="48.5966" lon="10.25772">
<ele>399.993</ele>
<time>2020-09-10T10:53:49Z</time>
</trkpt>
<trkpt lat="48.596535" lon="10.257733">
<ele>399.967</ele>
<time>2020-09-10T10:53:50Z</time>
</trkpt>
<trkpt lat="48.59647" lon="10.257745">
<ele>399.714</ele>
<time>2020-09-10T10:53:51Z</time>
</trkpt>
<trkpt lat="48.596409" lon="10.257756">
<ele>399.519</ele>
<time>2020-09-10T10:53:52Z</time>
</trkpt>
<trkpt lat="48.596344" lon="10.257771">
<ele>399.369</ele>
<time>2020-09-10T10:53:53Z</time>
</trkpt>
<trkpt lat="48.596283" lon="10.257781">
<ele>399.258</ele>
<time>2020-09-10T10:53:54Z</time>
</trkpt>
<trkpt lat="48.596226" lon="10.257792">
<ele>399.178</ele>
<time>2020-09-10T10:53:55Z</time>
</trkpt>
<trkpt lat="48.596169" lon="10.257798">
<ele>399.097</ele>
<time>2020-09-10T10:53:56Z</time>
</trkpt>
<trkpt lat="48.596111" lon="10.257804">
<ele>399.044</ele>
<time>2020-09-10T10:53:57Z</time>
</trkpt>
<trkpt lat="48.596058" lon="10.257809">
<ele>399.018</ele>
<time>2020-09-10T10:53:58Z</time>
</trkpt>
<trkpt lat="48.596004" lon="10.257809">
<ele>399.018</ele>
<time>2020-09-10T10:53:59Z</time>
</trkpt>
<trkpt lat="48.595947" lon="10.257802">
<ele>399.018</ele>
<time>2020-09-10T10:54:00Z</time>
</trkpt>
<trkpt lat="48.595894" lon="10.257788">
<ele>399.018</ele>
<time>2020-09-10T10:54:01Z</time>
</trkpt>
<trkpt lat="48.59584" lon="10.257773">
<ele>399.018</ele>
<time>2020-09-10T10:54:02Z</time>
</trkpt>
<trkpt lat="48.595787" lon="10.257758">
<ele>399.018</ele>
<time>2020-09-10T10:54:03Z</time>
</trkpt>
<trkpt lat="48.595734" lon="10.257742">
<ele>398.81</ele>
<time>2020-09-10T10:54:04Z</time>
</trkpt>
<trkpt lat="48.595684" lon="10.257727">
<ele>398.66</ele>
<time>2020-09-10T10:54:05Z</time>
</trkpt>
<trkpt lat="48.595631" lon="10.257713">
<ele>398.505</ele>
<time>2020-09-10T10:54:06Z</time>
</trkpt>
<trkpt lat="48.595581" lon="10.257709">
<ele>398.384</ele>
<time>2020-09-10T10:54:07Z</time>
</trkpt>
<trkpt lat="48.595528" lon="10.257714">
<ele>398.3</ele>
<time>2020-09-10T10:54:08Z</time>
</trkpt>
<trkpt lat="48.595478" lon="10.257744">
<ele>397.979</ele>
<time>2020-09-10T10:54:09Z</time>
</trkpt>
<trkpt lat="48.595432" lon="10.25779">
<ele>397.719</ele>
<time>2020-09-10T10:54:10Z</time>
</trkpt>
<trkpt lat="48.595394" lon="10.257853">
<ele>397.553</ele>
<time>2020-09-10T10:54:11Z</time>
</trkpt>
<trkpt lat="48.595364" lon="10.257928">
<ele>397.086</ele>
<time>2020-09-10T10:54:12Z</time>
</trkpt>
<trkpt lat="48.595329" lon="10.257998">
<ele>396.773</ele>
<time>2020-09-10T10:54:13Z</time>
</trkpt>
<trkpt lat="48.595287" lon="10.258054">
<ele>396.547</ele>
<time>2020-09-10T10:54:14Z</time>
</trkpt>
<trkpt lat="48.595234" lon="10.25808">
<ele>396.391</ele>
<time>2020-09-10T10:54:15Z</time>
</trkpt>
<trkpt lat="48.595181" lon="10.258089">
<ele>396.246</ele>
<time>2020-09-10T10:54:16Z</time>
</trkpt>
<trkpt lat="48.595131" lon="10.258108">
<ele>396.368</ele>
<time>2020-09-10T10:54:17Z</time>
</trkpt>
<trkpt lat="48.595081" lon="10.258143">
<ele>396.484</ele>
<time>2020-09-10T10:54:18Z</time>
</trkpt>
<trkpt lat="48.595036" lon="10.25819">
<ele>396.598</ele>
<time>2020-09-10T10:54:19Z</time>
</trkpt>
<trkpt lat="48.595001" lon="10.25824">
<ele>396.644</ele>
<time>2020-09-10T10:54:20Z</time>
</trkpt>
<trkpt lat="48.594963" lon="10.258286">
<ele>397.032</ele>
<time>2020-09-10T10:54:21Z</time>
</trkpt>
<trkpt lat="48.594929" lon="10.258332">
<ele>397.322</ele>
<time>2020-09-10T10:54:22Z</time>
</trkpt>
<trkpt lat="48.594891" lon="10.258378">
<ele>397.547</ele>
<time>2020-09-10T10:54:23Z</time>
</trkpt>
<trkpt lat="48.59486" lon="10.258422">
<ele>397.663</ele>
<time>2020-09-10T10:54:24Z</time>
</trkpt>
<trkpt lat="48.594826" lon="10.258465">
<ele>398.026</ele>
<time>2020-09-10T10:54:25Z</time>
</trkpt>
<trkpt lat="48.594795" lon="10.258511">
<ele>398.326</ele>
<time>2020-09-10T10:54:26Z</time>
</trkpt>
<trkpt lat="48.594761" lon="10.258556">
<ele>398.564</ele>
<time>2020-09-10T10:54:27Z</time>
</trkpt>
<trkpt lat="48.594734" lon="10.2586">
<ele>398.72</ele>
<time>2020-09-10T10:54:28Z</time>
</trkpt>
<trkpt lat="48.5947" lon="10.258638">
<ele>399.067</ele>
<time>2020-09-10T10:54:29Z</time>
</trkpt>
<trkpt lat="48.594669" lon="10.258678">
<ele>399.35</ele>
<time>2020-09-10T10:54:30Z</time>
</trkpt>
<trkpt lat="48.594639" lon="10.258717">
<ele>399.565</ele>
<time>2020-09-10T10:54:31Z</time>
</trkpt>
<trkpt lat="48.594612" lon="10.258757">
<ele>399.724</ele>
<time>2020-09-10T10:54:32Z</time>
</trkpt>
<trkpt lat="48.594582" lon="10.258795">
<ele>399.839</ele>
<time>2020-09-10T10:54:33Z</time>
</trkpt>
<trkpt lat="48.594555" lon="10.258833">
<ele>399.884</ele>
<time>2020-09-10T10:54:34Z</time>
</trkpt>
<trkpt lat="48.594524" lon="10.25887">
<ele>400.163</ele>
<time>2020-09-10T10:54:35Z</time>
</trkpt>
<trkpt lat="48.594498" lon="10.25891">
<ele>400.409</ele>
<time>2020-09-10T10:54:36Z</time>
</trkpt>
<trkpt lat="48.594463" lon="10.25895">
<ele>400.589</ele>
<time>2020-09-10T10:54:37Z</time>
</trkpt>
<trkpt lat="48.594437" lon="10.258992">
<ele>400.734</ele>
<time>2020-09-10T10:54:38Z</time>
</trkpt>
<trkpt lat="48.59441" lon="10.259032">
<ele>400.848</ele>
<time>2020-09-10T10:54:39Z</time>
</trkpt>
<trkpt lat="48.594383" lon="10.259073">
<ele>400.929</ele>
<time>2020-09-10T10:54:40Z</time>
</trkpt>
<trkpt lat="48.594349" lon="10.259116">
<ele>400.979</ele>
<time>2020-09-10T10:54:41Z</time>
</trkpt>
<trkpt lat="48.594318" lon="10.259153">
<ele>401.003</ele>
<time>2020-09-10T10:54:42Z</time>
</trkpt>
<trkpt lat="48.594284" lon="10.259189">
<ele>401.003</ele>
<time>2020-09-10T10:54:43Z</time>
</trkpt>
<trkpt lat="48.59425" lon="10.259225">
<ele>401.003</ele>
<time>2020-09-10T10:54:44Z</time>
</trkpt>
<trkpt lat="48.594212" lon="10.25926">
<ele>401.003</ele>
<time>2020-09-10T10:54:45Z</time>
</trkpt>
<trkpt lat="48.594177" lon="10.259295">
<ele>401.003</ele>
<time>2020-09-10T10:54:46Z</time>
</trkpt>
<trkpt lat="48.594139" lon="10.259336">
<ele>401.003</ele>
<time>2020-09-10T10:54:47Z</time>
</trkpt>
<trkpt lat="48.594105" lon="10.259376">
<ele>401.003</ele>
<time>2020-09-10T10:54:48Z</time>
</trkpt>
<trkpt lat="48.59407" lon="10.259419">
<ele>401.003</ele>
<time>2020-09-10T10:54:49Z</time>
</trkpt>
<trkpt lat="48.59404" lon="10.259465">
<ele>401.003</ele>
<time>2020-09-10T10:54:50Z</time>
</trkpt>
<trkpt lat="48.594006" lon="10.259514">
<ele>401.003</ele>
<time>2020-09-10T10:54:51Z</time>
</trkpt>
<trkpt lat="48.593975" lon="10.259563">
<ele>401.003</ele>
<time>2020-09-10T10:54:52Z</time>
</trkpt>
<trkpt lat="48.593945" lon="10.259612">
<ele>401.003</ele>
<time>2020-09-10T10:54:53Z</time>
</trkpt>
<trkpt lat="48.593914" lon="10.25966">
<ele>401.003</ele>
<time>2020-09-10T10:54:54Z</time>
</trkpt>
<trkpt lat="48.593884" lon="10.259706">
<ele>401.003</ele>
<time>2020-09-10T10:54:55Z</time>
</trkpt>
<trkpt lat="48.593845" lon="10.259755">
<ele>401.003</ele>
<time>2020-09-10T10:54:56Z</time>
</trkpt>
<trkpt lat="48.593811" lon="10.259805">
<ele>401.003</ele>
<time>2020-09-10T10:54:57Z</time>
</trkpt>
<trkpt lat="48.593773" lon="10.259853">
<ele>401.003</ele>
<time>2020-09-10T10:54:58Z</time>
</trkpt>
<trkpt lat="48.593739" lon="10.259887">
<ele>401.003</ele>
<time>2020-09-10T10:54:59Z</time>
</trkpt>
<trkpt lat="48.5937" lon="10.259931">
<ele>401.003</ele>
<time>2020-09-10T10:55:00Z</time>
</trkpt>
<trkpt lat="48.593666" lon="10.259978">
<ele>401.003</ele>
<time>2020-09-10T10:55:01Z</time>
</trkpt>
<trkpt lat="48.593632" lon="10.260034">
<ele>401.003</ele>
<time>2020-09-10T10:55:02Z</time>
</trkpt>
<trkpt lat="48.593597" lon="10.260088">
<ele>401.003</ele>
<time>2020-09-10T10:55:03Z</time>
</trkpt>
<trkpt lat="48.593555" lon="10.260139">
<ele>401.003</ele>
<time>2020-09-10T10:55:04Z</time>
</trkpt>
<trkpt lat="48.593517" lon="10.260188">
<ele>401.003</ele>
<time>2020-09-10T10:55:05Z</time>
</trkpt>
<trkpt lat="48.593479" lon="10.260237">
<ele>401.003</ele>
<time>2020-09-10T10:55:06Z</time>
</trkpt>
<trkpt lat="48.593441" lon="10.260286">
<ele>401.003</ele>
<time>2020-09-10T10:55:07Z</time>
</trkpt>
<trkpt lat="48.593403" lon="10.260337">
<ele>401.003</ele>
<time>2020-09-10T10:55:08Z</time>
</trkpt>
<trkpt lat="48.593369" lon="10.260384">
<ele>401.003</ele>
<time>2020-09-10T10:55:09Z</time>
</trkpt>
<trkpt lat="48.59333" lon="10.260428">
<ele>401.003</ele>
<time>2020-09-10T10:55:10Z</time>
</trkpt>
<trkpt lat="48.593292" lon="10.260475">
<ele>401.003</ele>
<time>2020-09-10T10:55:11Z</time>
</trkpt>
<trkpt lat="48.593254" lon="10.260522">
<ele>401.003</ele>
<time>2020-09-10T10:55:12Z</time>
</trkpt>
<trkpt lat="48.593216" lon="10.260567">
<ele>401.003</ele>
<time>2020-09-10T10:55:13Z</time>
</trkpt>
<trkpt lat="48.593178" lon="10.260607">
<ele>401.003</ele>
<time>2020-09-10T10:55:14Z</time>
</trkpt>
<trkpt lat="48.593147" lon="10.260641">
<ele>401.003</ele>
<time>2020-09-10T10:55:15Z</time>
</trkpt>
<trkpt lat="48.593117" lon="10.260678">
<ele>401.003</ele>
<time>2020-09-10T10:55:16Z</time>
</trkpt>
<trkpt lat="48.593079" lon="10.260729">
<ele>401.003</ele>
<time>2020-09-10T10:55:17Z</time>
</trkpt>
<trkpt lat="48.593044" lon="10.260783">
<ele>401.003</ele>
<time>2020-09-10T10:55:18Z</time>
</trkpt>
<trkpt lat="48.593006" lon="10.260839">
<ele>401.003</ele>
<time>2020-09-10T10:55:19Z</time>
</trkpt>
<trkpt lat="48.592968" lon="10.260892">
<ele>401.003</ele>
<time>2020-09-10T10:55:20Z</time>
</trkpt>
<trkpt lat="48.592926" lon="10.260943">
<ele>401.003</ele>
<time>2020-09-10T10:55:21Z</time>
</trkpt>
<trkpt lat="48.592884" lon="10.260991">
<ele>401.003</ele>
<time>2020-09-10T10:55:22Z</time>
</trkpt>
<trkpt lat="48.592846" lon="10.261037">
<ele>401.003</ele>
<time>2020-09-10T10:55:23Z</time>
</trkpt>
<trkpt lat="48.5928" lon="10.261075">
<ele>401.003</ele>
<time>2020-09-10T10:55:24Z</time>
</trkpt>
<trkpt lat="48.592754" lon="10.261121">
<ele>401.003</ele>
<time>2020-09-10T10:55:25Z</time>
</trkpt>
<trkpt lat="48.592712" lon="10.261158">
<ele>401.003</ele>
<time>2020-09-10T10:55:26Z</time>
</trkpt>
<trkpt lat="48.592659" lon="10.261198">
<ele>401.003</ele>
<time>2020-09-10T10:55:27Z</time>
</trkpt>
<trkpt lat="48.592613" lon="10.261233">
<ele>401.003</ele>
<time>2020-09-10T10:55:28Z</time>
</trkpt>
<trkpt lat="48.592567" lon="10.261257">
<ele>401.003</ele>
<time>2020-09-10T10:55:29Z</time>
</trkpt>
<trkpt lat="48.592522" lon="10.261278">
<ele>401.003</ele>
<time>2020-09-10T10:55:30Z</time>
</trkpt>
<trkpt lat="48.59248" lon="10.2613">
<ele>401.003</ele>
<time>2020-09-10T10:55:31Z</time>
</trkpt>
<trkpt lat="48.59243" lon="10.261325">
<ele>401.003</ele>
<time>2020-09-10T10:55:32Z</time>
</trkpt>
<trkpt lat="48.592384" lon="10.261355">
<ele>401.003</ele>
<time>2020-09-10T10:55:33Z</time>
</trkpt>
<trkpt lat="48.592339" lon="10.261397">
<ele>401.003</ele>
<time>2020-09-10T10:55:34Z</time>
</trkpt>
<trkpt lat="48.592297" lon="10.261438">
<ele>401.003</ele>
<time>2020-09-10T10:55:35Z</time>
</trkpt>
<trkpt lat="48.592262" lon="10.261485">
<ele>401.003</ele>
<time>2020-09-10T10:55:36Z</time>
</trkpt>
<trkpt lat="48.592224" lon="10.261536">
<ele>401.003</ele>
<time>2020-09-10T10:55:37Z</time>
</trkpt>
<trkpt lat="48.592186" lon="10.261585">
<ele>401.003</ele>
<time>2020-09-10T10:55:38Z</time>
</trkpt>
<trkpt lat="48.592152" lon="10.261632">
<ele>401.003</ele>
<time>2020-09-10T10:55:39Z</time>
</trkpt>
<trkpt lat="48.592113" lon="10.261674">
<ele>401.003</ele>
<time>2020-09-10T10:55:40Z</time>
</trkpt>
<trkpt lat="48.592075" lon="10.261716">
<ele>401.003</ele>
<time>2020-09-10T10:55:41Z</time>
</trkpt>
<trkpt lat="48.592041" lon="10.261762">
<ele>401.003</ele>
<time>2020-09-10T10:55:42Z</time>
</trkpt>
<trkpt lat="48.592007" lon="10.261804">
<ele>401.003</ele>
<time>2020-09-10T10:55:43Z</time>
</trkpt>
<trkpt lat="48.591976" lon="10.261842">
<ele>401.003</ele>
<time>2020-09-10T10:55:44Z</time>
</trkpt>
<trkpt lat="48.591949" lon="10.261877">
<ele>401.003</ele>
<time>2020-09-10T10:55:45Z</time>
</trkpt>
<trkpt lat="48.591919" lon="10.261905">
<ele>401.003</ele>
<time>2020-09-10T10:55:46Z</time>
</trkpt>
<trkpt lat="48.591896" lon="10.261921">
<ele>401.003</ele>
<time>2020-09-10T10:55:47Z</time>
</trkpt>
<trkpt lat="48.591873" lon="10.261958">
<ele>401.003</ele>
<time>2020-09-10T10:55:48Z</time>
</trkpt>
<trkpt lat="48.591839" lon="10.26201">
<ele>401.003</ele>
<time>2020-09-10T10:55:49Z</time>
</trkpt>
<trkpt lat="48.591808" lon="10.262053">
<ele>401.003</ele>
<time>2020-09-10T10:55:50Z</time>
</trkpt>
<trkpt lat="48.591778" lon="10.262096">
<ele>401.003</ele>
<time>2020-09-10T10:55:51Z</time>
</trkpt>
<trkpt lat="48.591743" lon="10.262148">
<ele>401.003</ele>
<time>2020-09-10T10:55:52Z</time>
</trkpt>
<trkpt lat="48.591698" lon="10.262205">
<ele>401.003</ele>
<time>2020-09-10T10:55:53Z</time>
</trkpt>
<trkpt lat="48.591652" lon="10.262267">
<ele>401.003</ele>
<time>2020-09-10T10:55:54Z</time>
</trkpt>
<trkpt lat="48.59161" lon="10.262325">
<ele>401.003</ele>
<time>2020-09-10T10:55:55Z</time>
</trkpt>
<trkpt lat="48.591572" lon="10.262382">
<ele>401.003</ele>
<time>2020-09-10T10:55:56Z</time>
</trkpt>
<trkpt lat="48.591526" lon="10.262439">
<ele>401.003</ele>
<time>2020-09-10T10:55:57Z</time>
</trkpt>
<trkpt lat="48.59148" lon="10.262491">
<ele>401.003</ele>
<time>2020-09-10T10:55:58Z</time>
</trkpt>
<trkpt lat="48.591427" lon="10.262542">
<ele>401.003</ele>
<time>2020-09-10T10:55:59Z</time>
</trkpt>
<trkpt lat="48.591381" lon="10.262585">
<ele>401.003</ele>
<time>2020-09-10T10:56:00Z</time>
</trkpt>
<trkpt lat="48.591335" lon="10.262625">
<ele>401.003</ele>
<time>2020-09-10T10:56:01Z</time>
</trkpt>
<trkpt lat="48.591293" lon="10.262665">
<ele>401.003</ele>
<time>2020-09-10T10:56:02Z</time>
</trkpt>
<trkpt lat="48.591251" lon="10.262715">
<ele>401.003</ele>
<time>2020-09-10T10:56:03Z</time>
</trkpt>
<trkpt lat="48.591209" lon="10.262767">
<ele>401.003</ele>
<time>2020-09-10T10:56:04Z</time>
</trkpt>
<trkpt lat="48.59116" lon="10.262825">
<ele>401.003</ele>
<time>2020-09-10T10:56:05Z</time>
</trkpt>
<trkpt lat="48.591118" lon="10.262877">
<ele>401.003</ele>
<time>2020-09-10T10:56:06Z</time>
</trkpt>
<trkpt lat="48.59108" lon="10.262929">
<ele>401.286</ele>
<time>2020-09-10T10:56:07Z</time>
</trkpt>
<trkpt lat="48.591038" lon="10.26298">
<ele>401.511</ele>
<time>2020-09-10T10:56:08Z</time>
</trkpt>
<trkpt lat="48.590996" lon="10.263034">
<ele>401.679</ele>
<time>2020-09-10T10:56:09Z</time>
</trkpt>
<trkpt lat="48.590954" lon="10.26309">
<ele>401.8</ele>
<time>2020-09-10T10:56:10Z</time>
</trkpt>
<trkpt lat="48.590904" lon="10.263144">
<ele>401.875</ele>
<time>2020-09-10T10:56:11Z</time>
</trkpt>
<trkpt lat="48.590855" lon="10.263199">
<ele>401.859</ele>
<time>2020-09-10T10:56:12Z</time>
</trkpt>
<trkpt lat="48.590801" lon="10.263251">
<ele>401.625</ele>
<time>2020-09-10T10:56:13Z</time>
</trkpt>
<trkpt lat="48.590748" lon="10.26331">
<ele>401.419</ele>
<time>2020-09-10T10:56:14Z</time>
</trkpt>
<trkpt lat="48.590694" lon="10.263371">
<ele>401.281</ele>
<time>2020-09-10T10:56:15Z</time>
</trkpt>
<trkpt lat="48.590633" lon="10.263433">
<ele>400.885</ele>
<time>2020-09-10T10:56:16Z</time>
</trkpt>
<trkpt lat="48.590569" lon="10.263501">
<ele>400.265</ele>
<time>2020-09-10T10:56:17Z</time>
</trkpt>
<trkpt lat="48.590504" lon="10.263572">
<ele>399.85</ele>
<time>2020-09-10T10:56:18Z</time>
</trkpt>
<trkpt lat="48.590439" lon="10.263652">
<ele>399.189</ele>
<time>2020-09-10T10:56:19Z</time>
</trkpt>
<trkpt lat="48.590366" lon="10.263737">
<ele>398.44</ele>
<time>2020-09-10T10:56:20Z</time>
</trkpt>
<trkpt lat="48.590294" lon="10.263824">
<ele>397.511</ele>
<time>2020-09-10T10:56:21Z</time>
</trkpt>
<trkpt lat="48.590214" lon="10.263913">
<ele>396.903</ele>
<time>2020-09-10T10:56:22Z</time>
</trkpt>
<trkpt lat="48.590137" lon="10.264007">
<ele>396.072</ele>
<time>2020-09-10T10:56:23Z</time>
</trkpt>
<trkpt lat="48.590057" lon="10.2641">
<ele>395.55</ele>
<time>2020-09-10T10:56:24Z</time>
</trkpt>
<trkpt lat="48.589977" lon="10.264194">
<ele>394.907</ele>
<time>2020-09-10T10:56:25Z</time>
</trkpt>
<trkpt lat="48.589893" lon="10.264285">
<ele>394.416</ele>
<time>2020-09-10T10:56:26Z</time>
</trkpt>
<trkpt lat="48.589813" lon="10.264372">
<ele>393.797</ele>
<time>2020-09-10T10:56:27Z</time>
</trkpt>
<trkpt lat="48.589737" lon="10.264454">
<ele>393.35</ele>
<time>2020-09-10T10:56:28Z</time>
</trkpt>
<trkpt lat="48.589664" lon="10.264528">
<ele>393.026</ele>
<time>2020-09-10T10:56:29Z</time>
</trkpt>
<trkpt lat="48.589592" lon="10.264599">
<ele>392.795</ele>
<time>2020-09-10T10:56:30Z</time>
</trkpt>
<trkpt lat="48.589523" lon="10.26467">
<ele>392.641</ele>
<time>2020-09-10T10:56:31Z</time>
</trkpt>
<trkpt lat="48.589455" lon="10.264737">
<ele>392.54</ele>
<time>2020-09-10T10:56:32Z</time>
</trkpt>
<trkpt lat="48.589394" lon="10.264802">
<ele>392.462</ele>
<time>2020-09-10T10:56:33Z</time>
</trkpt>
<trkpt lat="48.589329" lon="10.264863">
<ele>392.462</ele>
<time>2020-09-10T10:56:34Z</time>
</trkpt>
<trkpt lat="48.589268" lon="10.264923">
<ele>392.462</ele>
<time>2020-09-10T10:56:35Z</time>
</trkpt>
<trkpt lat="48.589211" lon="10.264982">
<ele>392.462</ele>
<time>2020-09-10T10:56:36Z</time>
</trkpt>
<trkpt lat="48.589157" lon="10.265041">
<ele>392.462</ele>
<time>2020-09-10T10:56:37Z</time>
</trkpt>
<trkpt lat="48.5891" lon="10.265103">
<ele>392.462</ele>
<time>2020-09-10T10:56:38Z</time>
</trkpt>
<trkpt lat="48.589043" lon="10.265162">
<ele>392.207</ele>
<time>2020-09-10T10:56:39Z</time>
</trkpt>
<trkpt lat="48.588989" lon="10.265219">
<ele>391.999</ele>
<time>2020-09-10T10:56:40Z</time>
</trkpt>
<trkpt lat="48.58894" lon="10.265275">
<ele>391.84</ele>
<time>2020-09-10T10:56:41Z</time>
</trkpt>
<trkpt lat="48.588886" lon="10.26533">
<ele>391.72</ele>
<time>2020-09-10T10:56:42Z</time>
</trkpt>
<trkpt lat="48.588837" lon="10.265384">
<ele>391.637</ele>
<time>2020-09-10T10:56:43Z</time>
</trkpt>
<trkpt lat="48.588787" lon="10.265433">
<ele>391.584</ele>
<time>2020-09-10T10:56:44Z</time>
</trkpt>
<trkpt lat="48.588737" lon="10.265485">
<ele>391.541</ele>
<time>2020-09-10T10:56:45Z</time>
</trkpt>
<trkpt lat="48.588684" lon="10.265533">
<ele>391.514</ele>
<time>2020-09-10T10:56:46Z</time>
</trkpt>
<trkpt lat="48.588638" lon="10.265583">
<ele>391.514</ele>
<time>2020-09-10T10:56:47Z</time>
</trkpt>
<trkpt lat="48.588589" lon="10.26563">
<ele>391.514</ele>
<time>2020-09-10T10:56:48Z</time>
</trkpt>
<trkpt lat="48.588543" lon="10.26568">
<ele>391.514</ele>
<time>2020-09-10T10:56:49Z</time>
</trkpt>
<trkpt lat="48.58849" lon="10.265732">
<ele>391.514</ele>
<time>2020-09-10T10:56:50Z</time>
</trkpt>
<trkpt lat="48.588444" lon="10.265782">
<ele>391.514</ele>
<time>2020-09-10T10:56:51Z</time>
</trkpt>
<trkpt lat="48.588394" lon="10.26583">
<ele>391.514</ele>
<time>2020-09-10T10:56:52Z</time>
</trkpt>
<trkpt lat="48.588352" lon="10.265875">
<ele>391.514</ele>
<time>2020-09-10T10:56:53Z</time>
</trkpt>
<trkpt lat="48.588306" lon="10.265914">
<ele>391.514</ele>
<time>2020-09-10T10:56:54Z</time>
</trkpt>
<trkpt lat="48.588268" lon="10.265945">
<ele>391.514</ele>
<time>2020-09-10T10:56:55Z</time>
</trkpt>
<trkpt lat="48.588238" lon="10.265971">
<ele>391.514</ele>
<time>2020-09-10T10:56:56Z</time>
</trkpt>
<trkpt lat="48.588203" lon="10.265998">
<ele>391.514</ele>
<time>2020-09-10T10:56:57Z</time>
</trkpt>
<trkpt lat="48.588177" lon="10.266022">
<ele>391.514</ele>
<time>2020-09-10T10:56:58Z</time>
</trkpt>
<trkpt lat="48.588146" lon="10.266045">
<ele>391.514</ele>
<time>2020-09-10T10:56:59Z</time>
</trkpt>
<trkpt lat="48.588116" lon="10.266071">
<ele>391.514</ele>
<time>2020-09-10T10:57:00Z</time>
</trkpt>
<trkpt lat="48.588078" lon="10.266109">
<ele>391.514</ele>
<time>2020-09-10T10:57:01Z</time>
</trkpt>
<trkpt lat="48.588043" lon="10.266157">
<ele>391.514</ele>
<time>2020-09-10T10:57:02Z</time>
</trkpt>
<trkpt lat="48.588013" lon="10.266215">
<ele>391.514</ele>
<time>2020-09-10T10:57:03Z</time>
</trkpt>
<trkpt lat="48.587982" lon="10.266278">
<ele>391.514</ele>
<time>2020-09-10T10:57:04Z</time>
</trkpt>
<trkpt lat="48.587952" lon="10.266343">
<ele>391.514</ele>
<time>2020-09-10T10:57:05Z</time>
</trkpt>
<trkpt lat="48.587917" lon="10.266412">
<ele>391.514</ele>
<time>2020-09-10T10:57:06Z</time>
</trkpt>
<trkpt lat="48.587887" lon="10.266483">
<ele>391.514</ele>
<time>2020-09-10T10:57:07Z</time>
</trkpt>
<trkpt lat="48.587856" lon="10.266558">
<ele>391.514</ele>
<time>2020-09-10T10:57:08Z</time>
</trkpt>
<trkpt lat="48.58783" lon="10.266631">
<ele>391.514</ele>
<time>2020-09-10T10:57:09Z</time>
</trkpt>
<trkpt lat="48.587799" lon="10.266704">
<ele>391.514</ele>
<time>2020-09-10T10:57:10Z</time>
</trkpt>
<trkpt lat="48.587772" lon="10.266773">
<ele>391.514</ele>
<time>2020-09-10T10:57:11Z</time>
</trkpt>
<trkpt lat="48.587746" lon="10.266845">
<ele>391.514</ele>
<time>2020-09-10T10:57:12Z</time>
</trkpt>
<trkpt lat="48.587719" lon="10.266915">
<ele>391.514</ele>
<time>2020-09-10T10:57:13Z</time>
</trkpt>
<trkpt lat="48.587696" lon="10.266985">
<ele>391.514</ele>
<time>2020-09-10T10:57:14Z</time>
</trkpt>
<trkpt lat="48.587673" lon="10.267062">
<ele>391.514</ele>
<time>2020-09-10T10:57:15Z</time>
</trkpt>
<trkpt lat="48.58765" lon="10.267142">
<ele>391.514</ele>
<time>2020-09-10T10:57:16Z</time>
</trkpt>
<trkpt lat="48.587635" lon="10.267218">
<ele>391.514</ele>
<time>2020-09-10T10:57:17Z</time>
</trkpt>
<trkpt lat="48.587616" lon="10.267291">
<ele>391.514</ele>
<time>2020-09-10T10:57:18Z</time>
</trkpt>
<trkpt lat="48.587601" lon="10.26737">
<ele>391.514</ele>
<time>2020-09-10T10:57:19Z</time>
</trkpt>
<trkpt lat="48.587582" lon="10.267448">
<ele>391.514</ele>
<time>2020-09-10T10:57:20Z</time>
</trkpt>
<trkpt lat="48.587566" lon="10.267526">
<ele>391.514</ele>
<time>2020-09-10T10:57:21Z</time>
</trkpt>
<trkpt lat="48.58754" lon="10.267603">
<ele>391.514</ele>
<time>2020-09-10T10:57:22Z</time>
</trkpt>
<trkpt lat="48.587517" lon="10.26768">
<ele>391.514</ele>
<time>2020-09-10T10:57:23Z</time>
</trkpt>
<trkpt lat="48.58749" lon="10.267756">
<ele>391.514</ele>
<time>2020-09-10T10:57:24Z</time>
</trkpt>
<trkpt lat="48.587463" lon="10.26783">
<ele>391.514</ele>
<time>2020-09-10T10:57:25Z</time>
</trkpt>
<trkpt lat="48.587433" lon="10.267902">
<ele>391.514</ele>
<time>2020-09-10T10:57:26Z</time>
</trkpt>
<trkpt lat="48.587399" lon="10.267976">
<ele>391.514</ele>
<time>2020-09-10T10:57:27Z</time>
</trkpt>
<trkpt lat="48.587364" lon="10.268045">
<ele>391.514</ele>
<time>2020-09-10T10:57:28Z</time>
</trkpt>
<trkpt lat="48.587326" lon="10.268112">
<ele>391.514</ele>
<time>2020-09-10T10:57:29Z</time>
</trkpt>
<trkpt lat="48.587288" lon="10.268173">
<ele>391.514</ele>
<time>2020-09-10T10:57:30Z</time>
</trkpt>
<trkpt lat="48.58725" lon="10.268233">
<ele>391.514</ele>
<time>2020-09-10T10:57:31Z</time>
</trkpt>
<trkpt lat="48.587212" lon="10.268291">
<ele>391.514</ele>
<time>2020-09-10T10:57:32Z</time>
</trkpt>
<trkpt lat="48.587173" lon="10.268351">
<ele>391.514</ele>
<time>2020-09-10T10:57:33Z</time>
</trkpt>
<trkpt lat="48.587135" lon="10.268405">
<ele>391.308</ele>
<time>2020-09-10T10:57:34Z</time>
</trkpt>
<trkpt lat="48.587097" lon="10.268456">
<ele>391.159</ele>
<time>2020-09-10T10:57:35Z</time>
</trkpt>
<trkpt lat="48.587063" lon="10.268506">
<ele>391.007</ele>
<time>2020-09-10T10:57:36Z</time>
</trkpt>
<trkpt lat="48.587021" lon="10.268552">
<ele>390.885</ele>
<time>2020-09-10T10:57:37Z</time>
</trkpt>
<trkpt lat="48.586979" lon="10.268588">
<ele>390.789</ele>
<time>2020-09-10T10:57:38Z</time>
</trkpt>
<trkpt lat="48.586933" lon="10.268617">
<ele>390.719</ele>
<time>2020-09-10T10:57:39Z</time>
</trkpt>
<trkpt lat="48.586884" lon="10.268639">
<ele>390.673</ele>
<time>2020-09-10T10:57:40Z</time>
</trkpt>
<trkpt lat="48.58683" lon="10.268652">
<ele>390.651</ele>
<time>2020-09-10T10:57:41Z</time>
</trkpt>
<trkpt lat="48.586781" lon="10.268663">
<ele>390.651</ele>
<time>2020-09-10T10:57:42Z</time>
</trkpt>
<trkpt lat="48.586727" lon="10.268674">
<ele>390.651</ele>
<time>2020-09-10T10:57:43Z</time>
</trkpt>
<trkpt lat="48.586678" lon="10.268682">
<ele>390.651</ele>
<time>2020-09-10T10:57:44Z</time>
</trkpt>
<trkpt lat="48.586624" lon="10.26869">
<ele>390.845</ele>
<time>2020-09-10T10:57:45Z</time>
</trkpt>
<trkpt lat="48.586571" lon="10.268699">
<ele>391.027</ele>
<time>2020-09-10T10:57:46Z</time>
</trkpt>
<trkpt lat="48.586521" lon="10.268709">
<ele>391.176</ele>
<time>2020-09-10T10:57:47Z</time>
</trkpt>
<trkpt lat="48.586464" lon="10.268718">
<ele>391.294</ele>
<time>2020-09-10T10:57:48Z</time>
</trkpt>
<trkpt lat="48.586407" lon="10.268723">
<ele>391.386</ele>
<time>2020-09-10T10:57:49Z</time>
</trkpt>
<trkpt lat="48.586353" lon="10.268723">
<ele>391.451</ele>
<time>2020-09-10T10:57:50Z</time>
</trkpt>
<trkpt lat="48.586296" lon="10.268722">
<ele>391.493</ele>
<time>2020-09-10T10:57:51Z</time>
</trkpt>
<trkpt lat="48.586243" lon="10.268715">
<ele>391.514</ele>
<time>2020-09-10T10:57:52Z</time>
</trkpt>
<trkpt lat="48.586182" lon="10.268709">
<ele>391.514</ele>
<time>2020-09-10T10:57:53Z</time>
</trkpt>
<trkpt lat="48.586124" lon="10.268697">
<ele>391.514</ele>
<time>2020-09-10T10:57:54Z</time>
</trkpt>
<trkpt lat="48.586071" lon="10.26868">
<ele>391.514</ele>
<time>2020-09-10T10:57:55Z</time>
</trkpt>
<trkpt lat="48.586014" lon="10.268659">
<ele>391.514</ele>
<time>2020-09-10T10:57:56Z</time>
</trkpt>
<trkpt lat="48.585964" lon="10.268639">
<ele>391.514</ele>
<time>2020-09-10T10:57:57Z</time>
</trkpt>
<trkpt lat="48.585907" lon="10.26862">
<ele>391.514</ele>
<time>2020-09-10T10:57:58Z</time>
</trkpt>
<trkpt lat="48.585854" lon="10.268606">
<ele>391.514</ele>
<time>2020-09-10T10:57:59Z</time>
</trkpt>
<trkpt lat="48.5858" lon="10.268597">
<ele>391.514</ele>
<time>2020-09-10T10:58:00Z</time>
</trkpt>
<trkpt lat="48.585743" lon="10.26859">
<ele>391.514</ele>
<time>2020-09-10T10:58:01Z</time>
</trkpt>
<trkpt lat="48.585686" lon="10.268587">
<ele>391.294</ele>
<time>2020-09-10T10:58:02Z</time>
</trkpt>
<trkpt lat="48.585632" lon="10.268587">
<ele>391.119</ele>
<time>2020-09-10T10:58:03Z</time>
</trkpt>
<trkpt lat="48.585575" lon="10.26859">
<ele>390.982</ele>
<time>2020-09-10T10:58:04Z</time>
</trkpt>
<trkpt lat="48.585514" lon="10.268595">
<ele>390.889</ele>
<time>2020-09-10T10:58:05Z</time>
</trkpt>
<trkpt lat="48.585457" lon="10.268603">
<ele>390.79</ele>
<time>2020-09-10T10:58:06Z</time>
</trkpt>
<trkpt lat="48.585403" lon="10.268613">
<ele>390.717</ele>
<time>2020-09-10T10:58:07Z</time>
</trkpt>
<trkpt lat="48.58535" lon="10.268627">
<ele>390.673</ele>
<time>2020-09-10T10:58:08Z</time>
</trkpt>
<trkpt lat="48.585297" lon="10.26864">
<ele>390.651</ele>
<time>2020-09-10T10:58:09Z</time>
</trkpt>
<trkpt lat="48.585255" lon="10.268653">
<ele>390.651</ele>
<time>2020-09-10T10:58:10Z</time>
</trkpt>
<trkpt lat="48.585205" lon="10.268665">
<ele>390.651</ele>
<time>2020-09-10T10:58:11Z</time>
</trkpt>
<trkpt lat="48.585159" lon="10.26868">
<ele>390.651</ele>
<time>2020-09-10T10:58:12Z</time>
</trkpt>
<trkpt lat="48.585117" lon="10.268697">
<ele>390.651</ele>
<time>2020-09-10T10:58:13Z</time>
</trkpt>
<trkpt lat="48.585064" lon="10.268715">
<ele>390.652</ele>
<time>2020-09-10T10:58:14Z</time>
</trkpt>
<trkpt lat="48.585014" lon="10.268734">
<ele>390.651</ele>
<time>2020-09-10T10:58:15Z</time>
</trkpt>
<trkpt lat="48.584961" lon="10.268755">
<ele>390.862</ele>
<time>2020-09-10T10:58:16Z</time>
</trkpt>
<trkpt lat="48.584911" lon="10.268775">
<ele>391.042</ele>
<time>2020-09-10T10:58:17Z</time>
</trkpt>
<trkpt lat="48.584862" lon="10.268795">
<ele>391.192</ele>
<time>2020-09-10T10:58:18Z</time>
</trkpt>
<trkpt lat="48.584812" lon="10.268814">
<ele>391.308</ele>
<time>2020-09-10T10:58:19Z</time>
</trkpt>
<trkpt lat="48.584763" lon="10.268828">
<ele>391.395</ele>
<time>2020-09-10T10:58:20Z</time>
</trkpt>
<trkpt lat="48.584713" lon="10.268842">
<ele>391.456</ele>
<time>2020-09-10T10:58:21Z</time>
</trkpt>
<trkpt lat="48.584667" lon="10.268856">
<ele>391.494</ele>
<time>2020-09-10T10:58:22Z</time>
</trkpt>
<trkpt lat="48.584618" lon="10.268873">
<ele>391.514</ele>
<time>2020-09-10T10:58:23Z</time>
</trkpt>
<trkpt lat="48.584568" lon="10.268891">
<ele>391.514</ele>
<time>2020-09-10T10:58:24Z</time>
</trkpt>
<trkpt lat="48.584522" lon="10.26891">
<ele>391.514</ele>
<time>2020-09-10T10:58:25Z</time>
</trkpt>
<trkpt lat="48.584473" lon="10.268929">
<ele>391.514</ele>
<time>2020-09-10T10:58:26Z</time>
</trkpt>
<trkpt lat="48.584427" lon="10.268952">
<ele>391.514</ele>
<time>2020-09-10T10:58:27Z</time>
</trkpt>
<trkpt lat="48.584377" lon="10.268978">
<ele>391.514</ele>
<time>2020-09-10T10:58:28Z</time>
</trkpt>
<trkpt lat="48.584339" lon="10.269013">
<ele>391.514</ele>
<time>2020-09-10T10:58:29Z</time>
</trkpt>
<trkpt lat="48.584297" lon="10.269051">
<ele>391.514</ele>
<time>2020-09-10T10:58:30Z</time>
</trkpt>
<trkpt lat="48.584251" lon="10.269087">
<ele>391.514</ele>
<time>2020-09-10T10:58:31Z</time>
</trkpt>
<trkpt lat="48.584209" lon="10.269124">
<ele>391.514</ele>
<time>2020-09-10T10:58:32Z</time>
</trkpt>
<trkpt lat="48.58416" lon="10.269161">
<ele>391.514</ele>
<time>2020-09-10T10:58:33Z</time>
</trkpt>
<trkpt lat="48.584118" lon="10.269197">
<ele>391.514</ele>
<time>2020-09-10T10:58:34Z</time>
</trkpt>
<trkpt lat="48.58408" lon="10.269231">
<ele>391.514</ele>
<time>2020-09-10T10:58:35Z</time>
</trkpt>
<trkpt lat="48.584038" lon="10.269268">
<ele>391.514</ele>
<time>2020-09-10T10:58:36Z</time>
</trkpt>
<trkpt lat="48.583988" lon="10.269312">
<ele>391.514</ele>
<time>2020-09-10T10:58:37Z</time>
</trkpt>
<trkpt lat="48.583942" lon="10.269357">
<ele>391.514</ele>
<time>2020-09-10T10:58:38Z</time>
</trkpt>
<trkpt lat="48.583893" lon="10.269408">
<ele>391.514</ele>
<time>2020-09-10T10:58:39Z</time>
</trkpt>
<trkpt lat="48.583851" lon="10.269465">
<ele>391.514</ele>
<time>2020-09-10T10:58:40Z</time>
</trkpt>
<trkpt lat="48.583809" lon="10.269525">
<ele>391.514</ele>
<time>2020-09-10T10:58:41Z</time>
</trkpt>
<trkpt lat="48.583775" lon="10.269589">
<ele>391.514</ele>
<time>2020-09-10T10:58:42Z</time>
</trkpt>
<trkpt lat="48.58374" lon="10.269654">
<ele>391.514</ele>
<time>2020-09-10T10:58:43Z</time>
</trkpt>
<trkpt lat="48.583694" lon="10.26972">
<ele>391.514</ele>
<time>2020-09-10T10:58:44Z</time>
</trkpt>
<trkpt lat="48.583652" lon="10.269788">
<ele>391.321</ele>
<time>2020-09-10T10:58:45Z</time>
</trkpt>
<trkpt lat="48.583603" lon="10.269865">
<ele>391.136</ele>
<time>2020-09-10T10:58:46Z</time>
</trkpt>
<trkpt lat="48.583561" lon="10.269935">
<ele>390.984</ele>
<time>2020-09-10T10:58:47Z</time>
</trkpt>
<trkpt lat="48.583508" lon="10.27">
<ele>390.865</ele>
<time>2020-09-10T10:58:48Z</time>
</trkpt>
<trkpt lat="48.583462" lon="10.270057">
<ele>390.773</ele>
<time>2020-09-10T10:58:49Z</time>
</trkpt>
<trkpt lat="48.583408" lon="10.270106">
<ele>390.708</ele>
<time>2020-09-10T10:58:50Z</time>
</trkpt>
<trkpt lat="48.583359" lon="10.270155">
<ele>390.67</ele>
<time>2020-09-10T10:58:51Z</time>
</trkpt>
<trkpt lat="48.583305" lon="10.270202">
<ele>390.651</ele>
<time>2020-09-10T10:58:52Z</time>
</trkpt>
<trkpt lat="48.583256" lon="10.270247">
<ele>390.651</ele>
<time>2020-09-10T10:58:53Z</time>
</trkpt>
<trkpt lat="48.583202" lon="10.270288">
<ele>390.652</ele>
<time>2020-09-10T10:58:54Z</time>
</trkpt>
<trkpt lat="48.583157" lon="10.270329">
<ele>390.651</ele>
<time>2020-09-10T10:58:55Z</time>
</trkpt>
<trkpt lat="48.583103" lon="10.270364">
<ele>390.651</ele>
<time>2020-09-10T10:58:56Z</time>
</trkpt>
<trkpt lat="48.583054" lon="10.270405">
<ele>390.651</ele>
<time>2020-09-10T10:58:57Z</time>
</trkpt>
<trkpt lat="48.583004" lon="10.270444">
<ele>390.651</ele>
<time>2020-09-10T10:58:58Z</time>
</trkpt>
<trkpt lat="48.582954" lon="10.27048">
<ele>390.651</ele>
<time>2020-09-10T10:58:59Z</time>
</trkpt>
<trkpt lat="48.582909" lon="10.270514">
<ele>390.651</ele>
<time>2020-09-10T10:59:00Z</time>
</trkpt>
<trkpt lat="48.582859" lon="10.270545">
<ele>390.652</ele>
<time>2020-09-10T10:59:01Z</time>
</trkpt>
<trkpt lat="48.582809" lon="10.27058">
<ele>390.651</ele>
<time>2020-09-10T10:59:02Z</time>
</trkpt>
<trkpt lat="48.58276" lon="10.270617">
<ele>390.651</ele>
<time>2020-09-10T10:59:03Z</time>
</trkpt>
<trkpt lat="48.58271" lon="10.270654">
<ele>390.651</ele>
<time>2020-09-10T10:59:04Z</time>
</trkpt>
<trkpt lat="48.582657" lon="10.270692">
<ele>390.651</ele>
<time>2020-09-10T10:59:05Z</time>
</trkpt>
<trkpt lat="48.582611" lon="10.27073">
<ele>390.651</ele>
<time>2020-09-10T10:59:06Z</time>
</trkpt>
<trkpt lat="48.582558" lon="10.27077">
<ele>390.651</ele>
<time>2020-09-10T10:59:07Z</time>
</trkpt>
<trkpt lat="48.582508" lon="10.270808">
<ele>390.651</ele>
<time>2020-09-10T10:59:08Z</time>
</trkpt>
<trkpt lat="48.582458" lon="10.270848">
<ele>390.651</ele>
<time>2020-09-10T10:59:09Z</time>
</trkpt>
<trkpt lat="48.582409" lon="10.270892">
<ele>390.651</ele>
<time>2020-09-10T10:59:10Z</time>
</trkpt>
<trkpt lat="48.582359" lon="10.270935">
<ele>390.651</ele>
<time>2020-09-10T10:59:11Z</time>
</trkpt>
<trkpt lat="48.582314" lon="10.270982">
<ele>390.651</ele>
<time>2020-09-10T10:59:12Z</time>
</trkpt>
<trkpt lat="48.582264" lon="10.271024">
<ele>390.652</ele>
<time>2020-09-10T10:59:13Z</time>
</trkpt>
<trkpt lat="48.582214" lon="10.271064">
<ele>390.651</ele>
<time>2020-09-10T10:59:14Z</time>
</trkpt>
<trkpt lat="48.582161" lon="10.271098">
<ele>390.651</ele>
<time>2020-09-10T10:59:15Z</time>
</trkpt>
<trkpt lat="48.582111" lon="10.271129">
<ele>390.651</ele>
<time>2020-09-10T10:59:16Z</time>
</trkpt>
<trkpt lat="48.582058" lon="10.271152">
<ele>390.651</ele>
<time>2020-09-10T10:59:17Z</time>
</trkpt>
<trkpt lat="48.582005" lon="10.271172">
<ele>390.651</ele>
<time>2020-09-10T10:59:18Z</time>
</trkpt>
<trkpt lat="48.581951" lon="10.271188">
<ele>390.651</ele>
<time>2020-09-10T10:59:19Z</time>
</trkpt>
<trkpt lat="48.581898" lon="10.271203">
<ele>390.651</ele>
<time>2020-09-10T10:59:20Z</time>
</trkpt>
<trkpt lat="48.581841" lon="10.271216">
<ele>390.651</ele>
<time>2020-09-10T10:59:21Z</time>
</trkpt>
<trkpt lat="48.581787" lon="10.27123">
<ele>390.651</ele>
<time>2020-09-10T10:59:22Z</time>
</trkpt>
<trkpt lat="48.58173" lon="10.271238">
<ele>390.651</ele>
<time>2020-09-10T10:59:23Z</time>
</trkpt>
<trkpt lat="48.581673" lon="10.271247">
<ele>390.651</ele>
<time>2020-09-10T10:59:24Z</time>
</trkpt>
<trkpt lat="48.581615" lon="10.271255">
<ele>390.651</ele>
<time>2020-09-10T10:59:25Z</time>
</trkpt>
<trkpt lat="48.581562" lon="10.271265">
<ele>390.651</ele>
<time>2020-09-10T10:59:26Z</time>
</trkpt>
<trkpt lat="48.581505" lon="10.271276">
<ele>390.651</ele>
<time>2020-09-10T10:59:27Z</time>
</trkpt>
<trkpt lat="48.581444" lon="10.271288">
<ele>390.651</ele>
<time>2020-09-10T10:59:28Z</time>
</trkpt>
<trkpt lat="48.58139" lon="10.271298">
<ele>390.651</ele>
<time>2020-09-10T10:59:29Z</time>
</trkpt>
<trkpt lat="48.581337" lon="10.271305">
<ele>390.651</ele>
<time>2020-09-10T10:59:30Z</time>
</trkpt>
<trkpt lat="48.581284" lon="10.27131">
<ele>390.651</ele>
<time>2020-09-10T10:59:31Z</time>
</trkpt>
<trkpt lat="48.581234" lon="10.271317">
<ele>390.651</ele>
<time>2020-09-10T10:59:32Z</time>
</trkpt>
<trkpt lat="48.581181" lon="10.271323">
<ele>390.651</ele>
<time>2020-09-10T10:59:33Z</time>
</trkpt>
<trkpt lat="48.581127" lon="10.271332">
<ele>390.651</ele>
<time>2020-09-10T10:59:34Z</time>
</trkpt>
<trkpt lat="48.581078" lon="10.27134">
<ele>390.651</ele>
<time>2020-09-10T10:59:35Z</time>
</trkpt>
<trkpt lat="48.581024" lon="10.271349">
<ele>390.651</ele>
<time>2020-09-10T10:59:36Z</time>
</trkpt>
<trkpt lat="48.580971" lon="10.271358">
<ele>390.651</ele>
<time>2020-09-10T10:59:37Z</time>
</trkpt>
<trkpt lat="48.580917" lon="10.271365">
<ele>390.651</ele>
<time>2020-09-10T10:59:38Z</time>
</trkpt>
<trkpt lat="48.580864" lon="10.271372">
<ele>390.651</ele>
<time>2020-09-10T10:59:39Z</time>
</trkpt>
<trkpt lat="48.580814" lon="10.271379">
<ele>390.651</ele>
<time>2020-09-10T10:59:40Z</time>
</trkpt>
<trkpt lat="48.580757" lon="10.271383">
<ele>390.651</ele>
<time>2020-09-10T10:59:41Z</time>
</trkpt>
<trkpt lat="48.580708" lon="10.27139">
<ele>390.651</ele>
<time>2020-09-10T10:59:42Z</time>
</trkpt>
<trkpt lat="48.580654" lon="10.271397">
<ele>390.651</ele>
<time>2020-09-10T10:59:43Z</time>
</trkpt>
<trkpt lat="48.580601" lon="10.271403">
<ele>390.651</ele>
<time>2020-09-10T10:59:44Z</time>
</trkpt>
<trkpt lat="48.580547" lon="10.27141">
<ele>390.651</ele>
<time>2020-09-10T10:59:45Z</time>
</trkpt>
<trkpt lat="48.580494" lon="10.271415">
<ele>390.651</ele>
<time>2020-09-10T10:59:46Z</time>
</trkpt>
<trkpt lat="48.580444" lon="10.271419">
<ele>390.651</ele>
<time>2020-09-10T10:59:47Z</time>
</trkpt>
<trkpt lat="48.580399" lon="10.271419">
<ele>390.651</ele>
<time>2020-09-10T10:59:48Z</time>
</trkpt>
<trkpt lat="48.580345" lon="10.271419">
<ele>390.651</ele>
<time>2020-09-10T10:59:49Z</time>
</trkpt>
<trkpt lat="48.580299" lon="10.271412">
<ele>390.651</ele>
<time>2020-09-10T10:59:50Z</time>
</trkpt>
<trkpt lat="48.580257" lon="10.271399">
<ele>390.651</ele>
<time>2020-09-10T10:59:51Z</time>
</trkpt>
<trkpt lat="48.580212" lon="10.271383">
<ele>390.651</ele>
<time>2020-09-10T10:59:52Z</time>
</trkpt>
<trkpt lat="48.580173" lon="10.271359">
<ele>390.651</ele>
<time>2020-09-10T10:59:53Z</time>
</trkpt>
<trkpt lat="48.580139" lon="10.27133">
<ele>390.851</ele>
<time>2020-09-10T10:59:54Z</time>
</trkpt>
<trkpt lat="48.580109" lon="10.271298">
<ele>390.999</ele>
<time>2020-09-10T10:59:55Z</time>
</trkpt>
<trkpt lat="48.580078" lon="10.271267">
<ele>391.141</ele>
<time>2020-09-10T10:59:56Z</time>
</trkpt>
<trkpt lat="48.580048" lon="10.271234">
<ele>391.524</ele>
<time>2020-09-10T10:59:57Z</time>
</trkpt>
<trkpt lat="48.580032" lon="10.271202">
<ele>391.842</ele>
<time>2020-09-10T10:59:58Z</time>
</trkpt>
<trkpt lat="48.580009" lon="10.271171">
<ele>392.105</ele>
<time>2020-09-10T10:59:59Z</time>
</trkpt>
<trkpt lat="48.579983" lon="10.271132">
<ele>392.277</ele>
<time>2020-09-10T11:00:00Z</time>
</trkpt>
<trkpt lat="48.579956" lon="10.271089">
<ele>392.681</ele>
<time>2020-09-10T11:00:01Z</time>
</trkpt>
<trkpt lat="48.579933" lon="10.271051">
<ele>393.073</ele>
<time>2020-09-10T11:00:02Z</time>
</trkpt>
<trkpt lat="48.579906" lon="10.271011">
<ele>393.276</ele>
<time>2020-09-10T11:00:03Z</time>
</trkpt>
<trkpt lat="48.579868" lon="10.270966">
<ele>393.417</ele>
<time>2020-09-10T11:00:04Z</time>
</trkpt>
<trkpt lat="48.57983" lon="10.270922">
<ele>393.506</ele>
<time>2020-09-10T11:00:05Z</time>
</trkpt>
<trkpt lat="48.5798" lon="10.27088">
<ele>393.598</ele>
<time>2020-09-10T11:00:06Z</time>
</trkpt>
<trkpt lat="48.579773" lon="10.270844">
<ele>393.914</ele>
<time>2020-09-10T11:00:07Z</time>
</trkpt>
<trkpt lat="48.579742" lon="10.27081">
<ele>394.142</ele>
<time>2020-09-10T11:00:08Z</time>
</trkpt>
<trkpt lat="48.579712" lon="10.270779">
<ele>394.407</ele>
<time>2020-09-10T11:00:09Z</time>
</trkpt>
<trkpt lat="48.579681" lon="10.270745">
<ele>394.534</ele>
<time>2020-09-10T11:00:10Z</time>
</trkpt>
<trkpt lat="48.579647" lon="10.270714">
<ele>394.616</ele>
<time>2020-09-10T11:00:11Z</time>
</trkpt>
<trkpt lat="48.579609" lon="10.270679">
<ele>394.669</ele>
<time>2020-09-10T11:00:12Z</time>
</trkpt>
<trkpt lat="48.579567" lon="10.270645">
<ele>394.513</ele>
<time>2020-09-10T11:00:13Z</time>
</trkpt>
<trkpt lat="48.579521" lon="10.270617">
<ele>394.361</ele>
<time>2020-09-10T11:00:14Z</time>
</trkpt>
<trkpt lat="48.579475" lon="10.270592">
<ele>394.33</ele>
<time>2020-09-10T11:00:15Z</time>
</trkpt>
<trkpt lat="48.579426" lon="10.270568">
<ele>394.183</ele>
<time>2020-09-10T11:00:16Z</time>
</trkpt>
<trkpt lat="48.579369" lon="10.270551">
<ele>393.805</ele>
<time>2020-09-10T11:00:17Z</time>
</trkpt>
<trkpt lat="48.579304" lon="10.270543">
<ele>393.51</ele>
<time>2020-09-10T11:00:18Z</time>
</trkpt>
<trkpt lat="48.579235" lon="10.270549">
<ele>393.331</ele>
<time>2020-09-10T11:00:19Z</time>
</trkpt>
<trkpt lat="48.579166" lon="10.270565">
<ele>392.892</ele>
<time>2020-09-10T11:00:20Z</time>
</trkpt>
<trkpt lat="48.579098" lon="10.270585">
<ele>392.568</ele>
<time>2020-09-10T11:00:21Z</time>
</trkpt>
<trkpt lat="48.579029" lon="10.270605">
<ele>392.27</ele>
<time>2020-09-10T11:00:22Z</time>
</trkpt>
<trkpt lat="48.57896" lon="10.270633">
<ele>392.147</ele>
<time>2020-09-10T11:00:23Z</time>
</trkpt>
<trkpt lat="48.578896" lon="10.270665">
<ele>392.086</ele>
<time>2020-09-10T11:00:24Z</time>
</trkpt>
<trkpt lat="48.578831" lon="10.2707">
<ele>391.821</ele>
<time>2020-09-10T11:00:25Z</time>
</trkpt>
<trkpt lat="48.578766" lon="10.27073">
<ele>391.594</ele>
<time>2020-09-10T11:00:26Z</time>
</trkpt>
<trkpt lat="48.578701" lon="10.270757">
<ele>391.423</ele>
<time>2020-09-10T11:00:27Z</time>
</trkpt>
<trkpt lat="48.578636" lon="10.270783">
<ele>391.305</ele>
<time>2020-09-10T11:00:28Z</time>
</trkpt>
<trkpt lat="48.578571" lon="10.270812">
<ele>391.213</ele>
<time>2020-09-10T11:00:29Z</time>
</trkpt>
<trkpt lat="48.57851" lon="10.270835">
<ele>391.146</ele>
<time>2020-09-10T11:00:30Z</time>
</trkpt>
<trkpt lat="48.578449" lon="10.270861">
<ele>391.103</ele>
<time>2020-09-10T11:00:31Z</time>
</trkpt>
<trkpt lat="48.578392" lon="10.270884">
<ele>391.082</ele>
<time>2020-09-10T11:00:32Z</time>
</trkpt>
<trkpt lat="48.578335" lon="10.270906">
<ele>391.082</ele>
<time>2020-09-10T11:00:33Z</time>
</trkpt>
<trkpt lat="48.578278" lon="10.270932">
<ele>391.082</ele>
<time>2020-09-10T11:00:34Z</time>
</trkpt>
<trkpt lat="48.578224" lon="10.27096">
<ele>391.082</ele>
<time>2020-09-10T11:00:35Z</time>
</trkpt>
<trkpt lat="48.578171" lon="10.270987">
<ele>391.082</ele>
<time>2020-09-10T11:00:36Z</time>
</trkpt>
<trkpt lat="48.578117" lon="10.271011">
<ele>391.082</ele>
<time>2020-09-10T11:00:37Z</time>
</trkpt>
<trkpt lat="48.57806" lon="10.271032">
<ele>391.082</ele>
<time>2020-09-10T11:00:38Z</time>
</trkpt>
<trkpt lat="48.578011" lon="10.271049">
<ele>391.082</ele>
<time>2020-09-10T11:00:39Z</time>
</trkpt>
<trkpt lat="48.577957" lon="10.271072">
<ele>391.082</ele>
<time>2020-09-10T11:00:40Z</time>
</trkpt>
<trkpt lat="48.577904" lon="10.271095">
<ele>391.082</ele>
<time>2020-09-10T11:00:41Z</time>
</trkpt>
<trkpt lat="48.577854" lon="10.271118">
<ele>391.082</ele>
<time>2020-09-10T11:00:42Z</time>
</trkpt>
<trkpt lat="48.577808" lon="10.271142">
<ele>391.082</ele>
<time>2020-09-10T11:00:43Z</time>
</trkpt>
<trkpt lat="48.577759" lon="10.271165">
<ele>391.082</ele>
<time>2020-09-10T11:00:44Z</time>
</trkpt>
<trkpt lat="48.577709" lon="10.27119">
<ele>391.27</ele>
<time>2020-09-10T11:00:45Z</time>
</trkpt>
<trkpt lat="48.57766" lon="10.271216">
<ele>391.449</ele>
<time>2020-09-10T11:00:46Z</time>
</trkpt>
<trkpt lat="48.577614" lon="10.271244">
<ele>391.6</ele>
<time>2020-09-10T11:00:47Z</time>
</trkpt>
<trkpt lat="48.577564" lon="10.271268">
<ele>391.721</ele>
<time>2020-09-10T11:00:48Z</time>
</trkpt>
<trkpt lat="48.577518" lon="10.27129">
<ele>391.814</ele>
<time>2020-09-10T11:00:49Z</time>
</trkpt>
<trkpt lat="48.577473" lon="10.271312">
<ele>391.882</ele>
<time>2020-09-10T11:00:50Z</time>
</trkpt>
<trkpt lat="48.577431" lon="10.271335">
<ele>391.924</ele>
<time>2020-09-10T11:00:51Z</time>
</trkpt>
<trkpt lat="48.577393" lon="10.271358">
<ele>391.945</ele>
<time>2020-09-10T11:00:52Z</time>
</trkpt>
<trkpt lat="48.577343" lon="10.271382">
<ele>392.175</ele>
<time>2020-09-10T11:00:53Z</time>
</trkpt>
<trkpt lat="48.577301" lon="10.271401">
<ele>392.36</ele>
<time>2020-09-10T11:00:54Z</time>
</trkpt>
<trkpt lat="48.577251" lon="10.27142">
<ele>392.489</ele>
<time>2020-09-10T11:00:55Z</time>
</trkpt>
<trkpt lat="48.577206" lon="10.271437">
<ele>392.633</ele>
<time>2020-09-10T11:00:56Z</time>
</trkpt>
<trkpt lat="48.57716" lon="10.271454">
<ele>392.742</ele>
<time>2020-09-10T11:00:57Z</time>
</trkpt>
<trkpt lat="48.577114" lon="10.271473">
<ele>392.822</ele>
<time>2020-09-10T11:00:58Z</time>
</trkpt>
<trkpt lat="48.577068" lon="10.271494">
<ele>392.87</ele>
<time>2020-09-10T11:00:59Z</time>
</trkpt>
<trkpt lat="48.577019" lon="10.271512">
<ele>392.893</ele>
<time>2020-09-10T11:01:00Z</time>
</trkpt>
<trkpt lat="48.576973" lon="10.271531">
<ele>392.893</ele>
<time>2020-09-10T11:01:01Z</time>
</trkpt>
<trkpt lat="48.576931" lon="10.271548">
<ele>392.893</ele>
<time>2020-09-10T11:01:02Z</time>
</trkpt>
<trkpt lat="48.576889" lon="10.271562">
<ele>392.893</ele>
<time>2020-09-10T11:01:03Z</time>
</trkpt>
<trkpt lat="48.576847" lon="10.271575">
<ele>392.893</ele>
<time>2020-09-10T11:01:04Z</time>
</trkpt>
<trkpt lat="48.576805" lon="10.27159">
<ele>392.893</ele>
<time>2020-09-10T11:01:05Z</time>
</trkpt>
<trkpt lat="48.576763" lon="10.2716">
<ele>392.893</ele>
<time>2020-09-10T11:01:06Z</time>
</trkpt>
<trkpt lat="48.576714" lon="10.271605">
<ele>392.893</ele>
<time>2020-09-10T11:01:07Z</time>
</trkpt>
<trkpt lat="48.576668" lon="10.271606">
<ele>392.893</ele>
<time>2020-09-10T11:01:08Z</time>
</trkpt>
<trkpt lat="48.576618" lon="10.27161">
<ele>392.893</ele>
<time>2020-09-10T11:01:09Z</time>
</trkpt>
<trkpt lat="48.576572" lon="10.271605">
<ele>392.893</ele>
<time>2020-09-10T11:01:10Z</time>
</trkpt>
<trkpt lat="48.576523" lon="10.271597">
<ele>392.893</ele>
<time>2020-09-10T11:01:11Z</time>
</trkpt>
<trkpt lat="48.576481" lon="10.271584">
<ele>392.893</ele>
<time>2020-09-10T11:01:12Z</time>
</trkpt>
<trkpt lat="48.576435" lon="10.271566">
<ele>392.894</ele>
<time>2020-09-10T11:01:13Z</time>
</trkpt>
<trkpt lat="48.576393" lon="10.271545">
<ele>392.894</ele>
<time>2020-09-10T11:01:14Z</time>
</trkpt>
<trkpt lat="48.576355" lon="10.271527">
<ele>392.893</ele>
<time>2020-09-10T11:01:15Z</time>
</trkpt>
<trkpt lat="48.576317" lon="10.271513">
<ele>392.893</ele>
<time>2020-09-10T11:01:16Z</time>
</trkpt>
<trkpt lat="48.57629" lon="10.271502">
<ele>392.893</ele>
<time>2020-09-10T11:01:17Z</time>
</trkpt>
<trkpt lat="48.576256" lon="10.271487">
<ele>393.149</ele>
<time>2020-09-10T11:01:18Z</time>
</trkpt>
<trkpt lat="48.576221" lon="10.271479">
<ele>393.354</ele>
<time>2020-09-10T11:01:19Z</time>
</trkpt>
<trkpt lat="48.576183" lon="10.271481">
<ele>393.516</ele>
<time>2020-09-10T11:01:20Z</time>
</trkpt>
<trkpt lat="48.576149" lon="10.271495">
<ele>393.644</ele>
<time>2020-09-10T11:01:21Z</time>
</trkpt>
<trkpt lat="48.576103" lon="10.271519">
<ele>393.728</ele>
<time>2020-09-10T11:01:22Z</time>
</trkpt>
<trkpt lat="48.576061" lon="10.271548">
<ele>393.787</ele>
<time>2020-09-10T11:01:23Z</time>
</trkpt>
<trkpt lat="48.576008" lon="10.27158">
<ele>393.819</ele>
<time>2020-09-10T11:01:24Z</time>
</trkpt>
<trkpt lat="48.575951" lon="10.271615">
<ele>393.842</ele>
<time>2020-09-10T11:01:25Z</time>
</trkpt>
<trkpt lat="48.575893" lon="10.271651">
<ele>393.842</ele>
<time>2020-09-10T11:01:26Z</time>
</trkpt>
<trkpt lat="48.575836" lon="10.271693">
<ele>393.842</ele>
<time>2020-09-10T11:01:27Z</time>
</trkpt>
<trkpt lat="48.575779" lon="10.271735">
<ele>393.53</ele>
<time>2020-09-10T11:01:28Z</time>
</trkpt>
<trkpt lat="48.575722" lon="10.271774">
<ele>393.315</ele>
<time>2020-09-10T11:01:29Z</time>
</trkpt>
<trkpt lat="48.575653" lon="10.271814">
<ele>393.196</ele>
<time>2020-09-10T11:01:30Z</time>
</trkpt>
<trkpt lat="48.575584" lon="10.27185">
<ele>392.789</ele>
<time>2020-09-10T11:01:31Z</time>
</trkpt>
<trkpt lat="48.575516" lon="10.271885">
<ele>392.485</ele>
<time>2020-09-10T11:01:32Z</time>
</trkpt>
<trkpt lat="48.575451" lon="10.271923">
<ele>392.319</ele>
<time>2020-09-10T11:01:33Z</time>
</trkpt>
<trkpt lat="48.575378" lon="10.271958">
<ele>391.912</ele>
<time>2020-09-10T11:01:34Z</time>
</trkpt>
<trkpt lat="48.575314" lon="10.271994">
<ele>391.617</ele>
<time>2020-09-10T11:01:35Z</time>
</trkpt>
<trkpt lat="48.575253" lon="10.272023">
<ele>391.154</ele>
<time>2020-09-10T11:01:36Z</time>
</trkpt>
<trkpt lat="48.575188" lon="10.272053">
<ele>390.798</ele>
<time>2020-09-10T11:01:37Z</time>
</trkpt>
<trkpt lat="48.575123" lon="10.272082">
<ele>390.532</ele>
<time>2020-09-10T11:01:38Z</time>
</trkpt>
<trkpt lat="48.575054" lon="10.272112">
<ele>390.341</ele>
<time>2020-09-10T11:01:39Z</time>
</trkpt>
<trkpt lat="48.574986" lon="10.272143">
<ele>390.202</ele>
<time>2020-09-10T11:01:40Z</time>
</trkpt>
<trkpt lat="48.574921" lon="10.272179">
<ele>390.122</ele>
<time>2020-09-10T11:01:41Z</time>
</trkpt>
<trkpt lat="48.574852" lon="10.272217">
<ele>389.84</ele>
<time>2020-09-10T11:01:42Z</time>
</trkpt>
<trkpt lat="48.574783" lon="10.272252">
<ele>389.617</ele>
<time>2020-09-10T11:01:43Z</time>
</trkpt>
<trkpt lat="48.574715" lon="10.272287">
<ele>389.457</ele>
<time>2020-09-10T11:01:44Z</time>
</trkpt>
<trkpt lat="48.57465" lon="10.272313">
<ele>389.358</ele>
<time>2020-09-10T11:01:45Z</time>
</trkpt>
<trkpt lat="48.574581" lon="10.272336">
<ele>389.25</ele>
<time>2020-09-10T11:01:46Z</time>
</trkpt>
<trkpt lat="48.574516" lon="10.272361">
<ele>389.174</ele>
<time>2020-09-10T11:01:47Z</time>
</trkpt>
<trkpt lat="48.574451" lon="10.272377">
<ele>389.124</ele>
<time>2020-09-10T11:01:48Z</time>
</trkpt>
<trkpt lat="48.57439" lon="10.272388">
<ele>389.1</ele>
<time>2020-09-10T11:01:49Z</time>
</trkpt>
<trkpt lat="48.574329" lon="10.272401">
<ele>389.1</ele>
<time>2020-09-10T11:01:50Z</time>
</trkpt>
<trkpt lat="48.574268" lon="10.272417">
<ele>389.1</ele>
<time>2020-09-10T11:01:51Z</time>
</trkpt>
<trkpt lat="48.574207" lon="10.272433">
<ele>389.1</ele>
<time>2020-09-10T11:01:52Z</time>
</trkpt>
<trkpt lat="48.57415" lon="10.272447">
<ele>389.1</ele>
<time>2020-09-10T11:01:53Z</time>
</trkpt>
<trkpt lat="48.574097" lon="10.27247">
<ele>389.1</ele>
<time>2020-09-10T11:01:54Z</time>
</trkpt>
<trkpt lat="48.574043" lon="10.272495">
<ele>389.1</ele>
<time>2020-09-10T11:01:55Z</time>
</trkpt>
<trkpt lat="48.573994" lon="10.272527">
<ele>389.1</ele>
<time>2020-09-10T11:01:56Z</time>
</trkpt>
<trkpt lat="48.573944" lon="10.272556">
<ele>389.1</ele>
<time>2020-09-10T11:01:57Z</time>
</trkpt>
<trkpt lat="48.573902" lon="10.272581">
<ele>389.1</ele>
<time>2020-09-10T11:01:58Z</time>
</trkpt>
<trkpt lat="48.573856" lon="10.272602">
<ele>389.1</ele>
<time>2020-09-10T11:01:59Z</time>
</trkpt>
<trkpt lat="48.573811" lon="10.272618">
<ele>389.1</ele>
<time>2020-09-10T11:02:00Z</time>
</trkpt>
<trkpt lat="48.573772" lon="10.272642">
<ele>389.1</ele>
<time>2020-09-10T11:02:01Z</time>
</trkpt>
<trkpt lat="48.573727" lon="10.272665">
<ele>389.1</ele>
<time>2020-09-10T11:02:02Z</time>
</trkpt>
<trkpt lat="48.573681" lon="10.272692">
<ele>389.1</ele>
<time>2020-09-10T11:02:03Z</time>
</trkpt>
<trkpt lat="48.573639" lon="10.272725">
<ele>389.1</ele>
<time>2020-09-10T11:02:04Z</time>
</trkpt>
<trkpt lat="48.573597" lon="10.272768">
<ele>389.1</ele>
<time>2020-09-10T11:02:05Z</time>
</trkpt>
<trkpt lat="48.573563" lon="10.272821">
<ele>389.1</ele>
<time>2020-09-10T11:02:06Z</time>
</trkpt>
<trkpt lat="48.573544" lon="10.272886">
<ele>389.1</ele>
<time>2020-09-10T11:02:07Z</time>
</trkpt>
<trkpt lat="48.573532" lon="10.272964">
<ele>389.1</ele>
<time>2020-09-10T11:02:08Z</time>
</trkpt>
<trkpt lat="48.573528" lon="10.273052">
<ele>389.1</ele>
<time>2020-09-10T11:02:09Z</time>
</trkpt>
<trkpt lat="48.573528" lon="10.27314">
<ele>389.1</ele>
<time>2020-09-10T11:02:10Z</time>
</trkpt>
<trkpt lat="48.573528" lon="10.273233">
<ele>389.1</ele>
<time>2020-09-10T11:02:11Z</time>
</trkpt>
<trkpt lat="48.573517" lon="10.273322">
<ele>389.1</ele>
<time>2020-09-10T11:02:12Z</time>
</trkpt>
<trkpt lat="48.573494" lon="10.273402">
<ele>389.1</ele>
<time>2020-09-10T11:02:13Z</time>
</trkpt>
<trkpt lat="48.57346" lon="10.27347">
<ele>389.1</ele>
<time>2020-09-10T11:02:14Z</time>
</trkpt>
<trkpt lat="48.573421" lon="10.27353">
<ele>389.1</ele>
<time>2020-09-10T11:02:15Z</time>
</trkpt>
<trkpt lat="48.573383" lon="10.27359">
<ele>389.1</ele>
<time>2020-09-10T11:02:16Z</time>
</trkpt>
<trkpt lat="48.573353" lon="10.273655">
<ele>389.1</ele>
<time>2020-09-10T11:02:17Z</time>
</trkpt>
<trkpt lat="48.573322" lon="10.273725">
<ele>389.1</ele>
<time>2020-09-10T11:02:18Z</time>
</trkpt>
<trkpt lat="48.573292" lon="10.273798">
<ele>389.1</ele>
<time>2020-09-10T11:02:19Z</time>
</trkpt>
<trkpt lat="48.573261" lon="10.273873">
<ele>389.1</ele>
<time>2020-09-10T11:02:20Z</time>
</trkpt>
<trkpt lat="48.573235" lon="10.273952">
<ele>389.1</ele>
<time>2020-09-10T11:02:21Z</time>
</trkpt>
<trkpt lat="48.573204" lon="10.274031">
<ele>389.1</ele>
<time>2020-09-10T11:02:22Z</time>
</trkpt>
<trkpt lat="48.573174" lon="10.274102">
<ele>389.1</ele>
<time>2020-09-10T11:02:23Z</time>
</trkpt>
<trkpt lat="48.573147" lon="10.274174">
<ele>389.1</ele>
<time>2020-09-10T11:02:24Z</time>
</trkpt>
<trkpt lat="48.57312" lon="10.274242">
<ele>389.1</ele>
<time>2020-09-10T11:02:25Z</time>
</trkpt>
<trkpt lat="48.573093" lon="10.274312">
<ele>389.1</ele>
<time>2020-09-10T11:02:26Z</time>
</trkpt>
<trkpt lat="48.573063" lon="10.274377">
<ele>389.1</ele>
<time>2020-09-10T11:02:27Z</time>
</trkpt>
<trkpt lat="48.573029" lon="10.274444">
<ele>389.1</ele>
<time>2020-09-10T11:02:28Z</time>
</trkpt>
<trkpt lat="48.572998" lon="10.274512">
<ele>389.1</ele>
<time>2020-09-10T11:02:29Z</time>
</trkpt>
<trkpt lat="48.572968" lon="10.274575">
<ele>389.1</ele>
<time>2020-09-10T11:02:30Z</time>
</trkpt>
<trkpt lat="48.572937" lon="10.274643">
<ele>389.1</ele>
<time>2020-09-10T11:02:31Z</time>
</trkpt>
<trkpt lat="48.572906" lon="10.274712">
<ele>389.1</ele>
<time>2020-09-10T11:02:32Z</time>
</trkpt>
<trkpt lat="48.572884" lon="10.274781">
<ele>389.1</ele>
<time>2020-09-10T11:02:33Z</time>
</trkpt>
<trkpt lat="48.572865" lon="10.274858">
<ele>389.1</ele>
<time>2020-09-10T11:02:34Z</time>
</trkpt>
<trkpt lat="48.572845" lon="10.274936">
<ele>389.1</ele>
<time>2020-09-10T11:02:35Z</time>
</trkpt>
<trkpt lat="48.572834" lon="10.275011">
<ele>389.1</ele>
<time>2020-09-10T11:02:36Z</time>
</trkpt>
<trkpt lat="48.572823" lon="10.275088">
<ele>389.1</ele>
<time>2020-09-10T11:02:37Z</time>
</trkpt>
<trkpt lat="48.572811" lon="10.275162">
<ele>389.1</ele>
<time>2020-09-10T11:02:38Z</time>
</trkpt>
<trkpt lat="48.572803" lon="10.275233">
<ele>389.1</ele>
<time>2020-09-10T11:02:39Z</time>
</trkpt>
<trkpt lat="48.5728" lon="10.275311">
<ele>389.1</ele>
<time>2020-09-10T11:02:40Z</time>
</trkpt>
<trkpt lat="48.5728" lon="10.275384">
<ele>389.1</ele>
<time>2020-09-10T11:02:41Z</time>
</trkpt>
<trkpt lat="48.572792" lon="10.27546">
<ele>389.1</ele>
<time>2020-09-10T11:02:42Z</time>
</trkpt>
<trkpt lat="48.572788" lon="10.275537">
<ele>389.1</ele>
<time>2020-09-10T11:02:43Z</time>
</trkpt>
<trkpt lat="48.572781" lon="10.275615">
<ele>389.1</ele>
<time>2020-09-10T11:02:44Z</time>
</trkpt>
<trkpt lat="48.572773" lon="10.275695">
<ele>389.1</ele>
<time>2020-09-10T11:02:45Z</time>
</trkpt>
<trkpt lat="48.572765" lon="10.275774">
<ele>389.1</ele>
<time>2020-09-10T11:02:46Z</time>
</trkpt>
<trkpt lat="48.572758" lon="10.275853">
<ele>389.1</ele>
<time>2020-09-10T11:02:47Z</time>
</trkpt>
<trkpt lat="48.572754" lon="10.275931">
<ele>389.1</ele>
<time>2020-09-10T11:02:48Z</time>
</trkpt>
<trkpt lat="48.57275" lon="10.276011">
<ele>389.1</ele>
<time>2020-09-10T11:02:49Z</time>
</trkpt>
<trkpt lat="48.572746" lon="10.27609">
<ele>389.1</ele>
<time>2020-09-10T11:02:50Z</time>
</trkpt>
<trkpt lat="48.572739" lon="10.27617">
<ele>389.1</ele>
<time>2020-09-10T11:02:51Z</time>
</trkpt>
<trkpt lat="48.572735" lon="10.27625">
<ele>389.1</ele>
<time>2020-09-10T11:02:52Z</time>
</trkpt>
<trkpt lat="48.572731" lon="10.276325">
<ele>389.1</ele>
<time>2020-09-10T11:02:53Z</time>
</trkpt>
<trkpt lat="48.572727" lon="10.276402">
<ele>389.1</ele>
<time>2020-09-10T11:02:54Z</time>
</trkpt>
<trkpt lat="48.57272" lon="10.276476">
<ele>389.309</ele>
<time>2020-09-10T11:02:55Z</time>
</trkpt>
<trkpt lat="48.572716" lon="10.276549">
<ele>389.507</ele>
<time>2020-09-10T11:02:56Z</time>
</trkpt>
<trkpt lat="48.572712" lon="10.276622">
<ele>389.668</ele>
<time>2020-09-10T11:02:57Z</time>
</trkpt>
<trkpt lat="48.572704" lon="10.27669">
<ele>389.78</ele>
<time>2020-09-10T11:02:58Z</time>
</trkpt>
<trkpt lat="48.572704" lon="10.276753">
<ele>390.131</ele>
<time>2020-09-10T11:02:59Z</time>
</trkpt>
<trkpt lat="48.572704" lon="10.276814">
<ele>390.417</ele>
<time>2020-09-10T11:03:00Z</time>
</trkpt>
<trkpt lat="48.572704" lon="10.27687">
<ele>390.643</ele>
<time>2020-09-10T11:03:01Z</time>
</trkpt>
<trkpt lat="48.572708" lon="10.276926">
<ele>390.806</ele>
<time>2020-09-10T11:03:02Z</time>
</trkpt>
<trkpt lat="48.572716" lon="10.276983">
<ele>390.937</ele>
<time>2020-09-10T11:03:03Z</time>
</trkpt>
<trkpt lat="48.572727" lon="10.277039">
<ele>391</ele>
<time>2020-09-10T11:03:04Z</time>
</trkpt>
<trkpt lat="48.572739" lon="10.277098">
<ele>391.05</ele>
<time>2020-09-10T11:03:05Z</time>
</trkpt>
<trkpt lat="48.57275" lon="10.277161">
<ele>391.082</ele>
<time>2020-09-10T11:03:06Z</time>
</trkpt>
<trkpt lat="48.572765" lon="10.27723">
<ele>391.082</ele>
<time>2020-09-10T11:03:07Z</time>
</trkpt>
<trkpt lat="48.572769" lon="10.277304">
<ele>391.082</ele>
<time>2020-09-10T11:03:08Z</time>
</trkpt>
<trkpt lat="48.572769" lon="10.277383">
<ele>391.082</ele>
<time>2020-09-10T11:03:09Z</time>
</trkpt>
<trkpt lat="48.572765" lon="10.277465">
<ele>391.082</ele>
<time>2020-09-10T11:03:10Z</time>
</trkpt>
<trkpt lat="48.57275" lon="10.277555">
<ele>390.811</ele>
<time>2020-09-10T11:03:11Z</time>
</trkpt>
<trkpt lat="48.572723" lon="10.277632">
<ele>390.608</ele>
<time>2020-09-10T11:03:12Z</time>
</trkpt>
<trkpt lat="48.572681" lon="10.277701">
<ele>390.46</ele>
<time>2020-09-10T11:03:13Z</time>
</trkpt>
<trkpt lat="48.572636" lon="10.277768">
<ele>390.349</ele>
<time>2020-09-10T11:03:14Z</time>
</trkpt>
<trkpt lat="48.572582" lon="10.277829">
<ele>390.28</ele>
<time>2020-09-10T11:03:15Z</time>
</trkpt>
<trkpt lat="48.572533" lon="10.277885">
<ele>390.203</ele>
<time>2020-09-10T11:03:16Z</time>
</trkpt>
<trkpt lat="48.572475" lon="10.277942">
<ele>390.157</ele>
<time>2020-09-10T11:03:17Z</time>
</trkpt>
<trkpt lat="48.572426" lon="10.277997">
<ele>390.134</ele>
<time>2020-09-10T11:03:18Z</time>
</trkpt>
<trkpt lat="48.572372" lon="10.278051">
<ele>390.134</ele>
<time>2020-09-10T11:03:19Z</time>
</trkpt>
<trkpt lat="48.572323" lon="10.278107">
<ele>390.134</ele>
<time>2020-09-10T11:03:20Z</time>
</trkpt>
<trkpt lat="48.572281" lon="10.278167">
<ele>389.819</ele>
<time>2020-09-10T11:03:21Z</time>
</trkpt>
<trkpt lat="48.572239" lon="10.27823">
<ele>389.574</ele>
<time>2020-09-10T11:03:22Z</time>
</trkpt>
<trkpt lat="48.572205" lon="10.278295">
<ele>389.384</ele>
<time>2020-09-10T11:03:23Z</time>
</trkpt>
<trkpt lat="48.572166" lon="10.278363">
<ele>389.239</ele>
<time>2020-09-10T11:03:24Z</time>
</trkpt>
<trkpt lat="48.572128" lon="10.278435">
<ele>389.136</ele>
<time>2020-09-10T11:03:25Z</time>
</trkpt>
<trkpt lat="48.57209" lon="10.278508">
<ele>389.029</ele>
<time>2020-09-10T11:03:26Z</time>
</trkpt>
<trkpt lat="48.572052" lon="10.27858">
<ele>388.961</ele>
<time>2020-09-10T11:03:27Z</time>
</trkpt>
<trkpt lat="48.572018" lon="10.278652">
<ele>388.927</ele>
<time>2020-09-10T11:03:28Z</time>
</trkpt>
<trkpt lat="48.57198" lon="10.278722">
<ele>388.927</ele>
<time>2020-09-10T11:03:29Z</time>
</trkpt>
<trkpt lat="48.571941" lon="10.27879">
<ele>388.927</ele>
<time>2020-09-10T11:03:30Z</time>
</trkpt>
<trkpt lat="48.571903" lon="10.278858">
<ele>388.927</ele>
<time>2020-09-10T11:03:31Z</time>
</trkpt>
<trkpt lat="48.571869" lon="10.278929">
<ele>388.927</ele>
<time>2020-09-10T11:03:32Z</time>
</trkpt>
<trkpt lat="48.571835" lon="10.278995">
<ele>388.927</ele>
<time>2020-09-10T11:03:33Z</time>
</trkpt>
<trkpt lat="48.5718" lon="10.279063">
<ele>388.927</ele>
<time>2020-09-10T11:03:34Z</time>
</trkpt>
<trkpt lat="48.571766" lon="10.279133">
<ele>388.927</ele>
<time>2020-09-10T11:03:35Z</time>
</trkpt>
<trkpt lat="48.571732" lon="10.279205">
<ele>388.927</ele>
<time>2020-09-10T11:03:36Z</time>
</trkpt>
<trkpt lat="48.571693" lon="10.279277">
<ele>388.927</ele>
<time>2020-09-10T11:03:37Z</time>
</trkpt>
<trkpt lat="48.571659" lon="10.279346">
<ele>388.927</ele>
<time>2020-09-10T11:03:38Z</time>
</trkpt>
<trkpt lat="48.571625" lon="10.279415">
<ele>388.927</ele>
<time>2020-09-10T11:03:39Z</time>
</trkpt>
<trkpt lat="48.571587" lon="10.279485">
<ele>388.927</ele>
<time>2020-09-10T11:03:40Z</time>
</trkpt>
<trkpt lat="48.571552" lon="10.279555">
<ele>388.927</ele>
<time>2020-09-10T11:03:41Z</time>
</trkpt>
<trkpt lat="48.571514" lon="10.279623">
<ele>388.927</ele>
<time>2020-09-10T11:03:42Z</time>
</trkpt>
<trkpt lat="48.57148" lon="10.279694">
<ele>388.927</ele>
<time>2020-09-10T11:03:43Z</time>
</trkpt>
<trkpt lat="48.571442" lon="10.279763">
<ele>388.927</ele>
<time>2020-09-10T11:03:44Z</time>
</trkpt>
<trkpt lat="48.571404" lon="10.279834">
<ele>388.927</ele>
<time>2020-09-10T11:03:45Z</time>
</trkpt>
<trkpt lat="48.571369" lon="10.2799">
<ele>388.927</ele>
<time>2020-09-10T11:03:46Z</time>
</trkpt>
<trkpt lat="48.571335" lon="10.279964">
<ele>388.927</ele>
<time>2020-09-10T11:03:47Z</time>
</trkpt>
<trkpt lat="48.571301" lon="10.28003">
<ele>388.927</ele>
<time>2020-09-10T11:03:48Z</time>
</trkpt>
<trkpt lat="48.57127" lon="10.280093">
<ele>388.927</ele>
<time>2020-09-10T11:03:49Z</time>
</trkpt>
<trkpt lat="48.571236" lon="10.280155">
<ele>388.927</ele>
<time>2020-09-10T11:03:50Z</time>
</trkpt>
<trkpt lat="48.571205" lon="10.280215">
<ele>389.148</ele>
<time>2020-09-10T11:03:51Z</time>
</trkpt>
<trkpt lat="48.571175" lon="10.280274">
<ele>389.323</ele>
<time>2020-09-10T11:03:52Z</time>
</trkpt>
<trkpt lat="48.57114" lon="10.280338">
<ele>389.461</ele>
<time>2020-09-10T11:03:53Z</time>
</trkpt>
<trkpt lat="48.57111" lon="10.280402">
<ele>389.568</ele>
<time>2020-09-10T11:03:54Z</time>
</trkpt>
<trkpt lat="48.571075" lon="10.280463">
<ele>389.642</ele>
<time>2020-09-10T11:03:55Z</time>
</trkpt>
<trkpt lat="48.571049" lon="10.280523">
<ele>389.718</ele>
<time>2020-09-10T11:03:56Z</time>
</trkpt>
<trkpt lat="48.571014" lon="10.280584">
<ele>389.766</ele>
<time>2020-09-10T11:03:57Z</time>
</trkpt>
<trkpt lat="48.570988" lon="10.280645">
<ele>389.79</ele>
<time>2020-09-10T11:03:58Z</time>
</trkpt>
<trkpt lat="48.570953" lon="10.280708">
<ele>389.79</ele>
<time>2020-09-10T11:03:59Z</time>
</trkpt>
<trkpt lat="48.570923" lon="10.280771">
<ele>389.79</ele>
<time>2020-09-10T11:04:00Z</time>
</trkpt>
<trkpt lat="48.570889" lon="10.280838">
<ele>389.79</ele>
<time>2020-09-10T11:04:01Z</time>
</trkpt>
<trkpt lat="48.570854" lon="10.280905">
<ele>389.79</ele>
<time>2020-09-10T11:04:02Z</time>
</trkpt>
<trkpt lat="48.57082" lon="10.280972">
<ele>389.79</ele>
<time>2020-09-10T11:04:03Z</time>
</trkpt>
<trkpt lat="48.570782" lon="10.281041">
<ele>389.79</ele>
<time>2020-09-10T11:04:04Z</time>
</trkpt>
<trkpt lat="48.570744" lon="10.281112">
<ele>389.789</ele>
<time>2020-09-10T11:04:05Z</time>
</trkpt>
<trkpt lat="48.570705" lon="10.281183">
<ele>389.571</ele>
<time>2020-09-10T11:04:06Z</time>
</trkpt>
<trkpt lat="48.57066" lon="10.281253">
<ele>389.393</ele>
<time>2020-09-10T11:04:07Z</time>
</trkpt>
<trkpt lat="48.570618" lon="10.281325">
<ele>389.248</ele>
<time>2020-09-10T11:04:08Z</time>
</trkpt>
<trkpt lat="48.57058" lon="10.281397">
<ele>389.134</ele>
<time>2020-09-10T11:04:09Z</time>
</trkpt>
<trkpt lat="48.570538" lon="10.281465">
<ele>389.047</ele>
<time>2020-09-10T11:04:10Z</time>
</trkpt>
<trkpt lat="48.570492" lon="10.281529">
<ele>388.985</ele>
<time>2020-09-10T11:04:11Z</time>
</trkpt>
<trkpt lat="48.570446" lon="10.281594">
<ele>388.946</ele>
<time>2020-09-10T11:04:12Z</time>
</trkpt>
<trkpt lat="48.5704" lon="10.281658">
<ele>388.927</ele>
<time>2020-09-10T11:04:13Z</time>
</trkpt>
<trkpt lat="48.570354" lon="10.28172">
<ele>388.927</ele>
<time>2020-09-10T11:04:14Z</time>
</trkpt>
<trkpt lat="48.570309" lon="10.281778">
<ele>388.927</ele>
<time>2020-09-10T11:04:15Z</time>
</trkpt>
<trkpt lat="48.570259" lon="10.281837">
<ele>388.927</ele>
<time>2020-09-10T11:04:16Z</time>
</trkpt>
<trkpt lat="48.570217" lon="10.281897">
<ele>388.927</ele>
<time>2020-09-10T11:04:17Z</time>
</trkpt>
<trkpt lat="48.570168" lon="10.281959">
<ele>388.927</ele>
<time>2020-09-10T11:04:18Z</time>
</trkpt>
<trkpt lat="48.570126" lon="10.282022">
<ele>388.927</ele>
<time>2020-09-10T11:04:19Z</time>
</trkpt>
<trkpt lat="48.570087" lon="10.282084">
<ele>388.927</ele>
<time>2020-09-10T11:04:20Z</time>
</trkpt>
<trkpt lat="48.570045" lon="10.282146">
<ele>388.927</ele>
<time>2020-09-10T11:04:21Z</time>
</trkpt>
<trkpt lat="48.570011" lon="10.282204">
<ele>388.927</ele>
<time>2020-09-10T11:04:22Z</time>
</trkpt>
<trkpt lat="48.569973" lon="10.282262">
<ele>388.927</ele>
<time>2020-09-10T11:04:23Z</time>
</trkpt>
<trkpt lat="48.569935" lon="10.282317">
<ele>388.927</ele>
<time>2020-09-10T11:04:24Z</time>
</trkpt>
<trkpt lat="48.569901" lon="10.282373">
<ele>388.927</ele>
<time>2020-09-10T11:04:25Z</time>
</trkpt>
<trkpt lat="48.569866" lon="10.28243">
<ele>388.927</ele>
<time>2020-09-10T11:04:26Z</time>
</trkpt>
<trkpt lat="48.569832" lon="10.282483">
<ele>388.927</ele>
<time>2020-09-10T11:04:27Z</time>
</trkpt>
<trkpt lat="48.569794" lon="10.282535">
<ele>388.927</ele>
<time>2020-09-10T11:04:28Z</time>
</trkpt>
<trkpt lat="48.569752" lon="10.282585">
<ele>388.927</ele>
<time>2020-09-10T11:04:29Z</time>
</trkpt>
<trkpt lat="48.56971" lon="10.282637">
<ele>388.927</ele>
<time>2020-09-10T11:04:30Z</time>
</trkpt>
<trkpt lat="48.569672" lon="10.282687">
<ele>388.927</ele>
<time>2020-09-10T11:04:31Z</time>
</trkpt>
<trkpt lat="48.569633" lon="10.282736">
<ele>388.927</ele>
<time>2020-09-10T11:04:32Z</time>
</trkpt>
<trkpt lat="48.569592" lon="10.282784">
<ele>388.927</ele>
<time>2020-09-10T11:04:33Z</time>
</trkpt>
<trkpt lat="48.569546" lon="10.282828">
<ele>388.927</ele>
<time>2020-09-10T11:04:34Z</time>
</trkpt>
<trkpt lat="48.569504" lon="10.282876">
<ele>388.927</ele>
<time>2020-09-10T11:04:35Z</time>
</trkpt>
<trkpt lat="48.569454" lon="10.282925">
<ele>388.927</ele>
<time>2020-09-10T11:04:36Z</time>
</trkpt>
<trkpt lat="48.569408" lon="10.282972">
<ele>388.927</ele>
<time>2020-09-10T11:04:37Z</time>
</trkpt>
<trkpt lat="48.569359" lon="10.283018">
<ele>388.927</ele>
<time>2020-09-10T11:04:38Z</time>
</trkpt>
<trkpt lat="48.569313" lon="10.283062">
<ele>388.927</ele>
<time>2020-09-10T11:04:39Z</time>
</trkpt>
<trkpt lat="48.56926" lon="10.283105">
<ele>388.927</ele>
<time>2020-09-10T11:04:40Z</time>
</trkpt>
<trkpt lat="48.569206" lon="10.283147">
<ele>388.927</ele>
<time>2020-09-10T11:04:41Z</time>
</trkpt>
<trkpt lat="48.569153" lon="10.283187">
<ele>388.927</ele>
<time>2020-09-10T11:04:42Z</time>
</trkpt>
<trkpt lat="48.569103" lon="10.283224">
<ele>388.927</ele>
<time>2020-09-10T11:04:43Z</time>
</trkpt>
<trkpt lat="48.56905" lon="10.283257">
<ele>388.927</ele>
<time>2020-09-10T11:04:44Z</time>
</trkpt>
<trkpt lat="48.568996" lon="10.283287">
<ele>388.927</ele>
<time>2020-09-10T11:04:45Z</time>
</trkpt>
<trkpt lat="48.568943" lon="10.283312">
<ele>388.927</ele>
<time>2020-09-10T11:04:46Z</time>
</trkpt>
<trkpt lat="48.56889" lon="10.283337">
<ele>388.927</ele>
<time>2020-09-10T11:04:47Z</time>
</trkpt>
<trkpt lat="48.56884" lon="10.28336">
<ele>388.927</ele>
<time>2020-09-10T11:04:48Z</time>
</trkpt>
<trkpt lat="48.568783" lon="10.283379">
<ele>388.927</ele>
<time>2020-09-10T11:04:49Z</time>
</trkpt>
<trkpt lat="48.568726" lon="10.283392">
<ele>388.927</ele>
<time>2020-09-10T11:04:50Z</time>
</trkpt>
<trkpt lat="48.568672" lon="10.283401">
<ele>388.679</ele>
<time>2020-09-10T11:04:51Z</time>
</trkpt>
<trkpt lat="48.568619" lon="10.283406">
<ele>388.481</ele>
<time>2020-09-10T11:04:52Z</time>
</trkpt>
<trkpt lat="48.568562" lon="10.283415">
<ele>388.328</ele>
<time>2020-09-10T11:04:53Z</time>
</trkpt>
<trkpt lat="48.568501" lon="10.283423">
<ele>388.215</ele>
<time>2020-09-10T11:04:54Z</time>
</trkpt>
<trkpt lat="48.568443" lon="10.28343">
<ele>388.135</ele>
<time>2020-09-10T11:04:55Z</time>
</trkpt>
<trkpt lat="48.56839" lon="10.283437">
<ele>388.055</ele>
<time>2020-09-10T11:04:56Z</time>
</trkpt>
<trkpt lat="48.568333" lon="10.28344">
<ele>388.004</ele>
<time>2020-09-10T11:04:57Z</time>
</trkpt>
<trkpt lat="48.568272" lon="10.283442">
<ele>387.979</ele>
<time>2020-09-10T11:04:58Z</time>
</trkpt>
<trkpt lat="48.568214" lon="10.28344">
<ele>387.979</ele>
<time>2020-09-10T11:04:59Z</time>
</trkpt>
<trkpt lat="48.568157" lon="10.283438">
<ele>387.979</ele>
<time>2020-09-10T11:05:00Z</time>
</trkpt>
<trkpt lat="48.568104" lon="10.283437">
<ele>387.979</ele>
<time>2020-09-10T11:05:01Z</time>
</trkpt>
<trkpt lat="48.568047" lon="10.283437">
<ele>387.979</ele>
<time>2020-09-10T11:05:02Z</time>
</trkpt>
<trkpt lat="48.567993" lon="10.283437">
<ele>387.979</ele>
<time>2020-09-10T11:05:03Z</time>
</trkpt>
<trkpt lat="48.567936" lon="10.283433">
<ele>387.979</ele>
<time>2020-09-10T11:05:04Z</time>
</trkpt>
<trkpt lat="48.567879" lon="10.283432">
<ele>387.979</ele>
<time>2020-09-10T11:05:05Z</time>
</trkpt>
<trkpt lat="48.567818" lon="10.28343">
<ele>387.979</ele>
<time>2020-09-10T11:05:06Z</time>
</trkpt>
<trkpt lat="48.56776" lon="10.28343">
<ele>387.979</ele>
<time>2020-09-10T11:05:07Z</time>
</trkpt>
<trkpt lat="48.567707" lon="10.283435">
<ele>387.979</ele>
<time>2020-09-10T11:05:08Z</time>
</trkpt>
<trkpt lat="48.56765" lon="10.283442">
<ele>387.979</ele>
<time>2020-09-10T11:05:09Z</time>
</trkpt>
<trkpt lat="48.567589" lon="10.283448">
<ele>387.979</ele>
<time>2020-09-10T11:05:10Z</time>
</trkpt>
<trkpt lat="48.567535" lon="10.283455">
<ele>387.979</ele>
<time>2020-09-10T11:05:11Z</time>
</trkpt>
<trkpt lat="48.567482" lon="10.283462">
<ele>387.979</ele>
<time>2020-09-10T11:05:12Z</time>
</trkpt>
<trkpt lat="48.567429" lon="10.283467">
<ele>387.979</ele>
<time>2020-09-10T11:05:13Z</time>
</trkpt>
<trkpt lat="48.567375" lon="10.283477">
<ele>387.979</ele>
<time>2020-09-10T11:05:14Z</time>
</trkpt>
<trkpt lat="48.567322" lon="10.283488">
<ele>387.979</ele>
<time>2020-09-10T11:05:15Z</time>
</trkpt>
<trkpt lat="48.567268" lon="10.283497">
<ele>387.979</ele>
<time>2020-09-10T11:05:16Z</time>
</trkpt>
<trkpt lat="48.567215" lon="10.283504">
<ele>387.979</ele>
<time>2020-09-10T11:05:17Z</time>
</trkpt>
<trkpt lat="48.567162" lon="10.283511">
<ele>387.979</ele>
<time>2020-09-10T11:05:18Z</time>
</trkpt>
<trkpt lat="48.567104" lon="10.283522">
<ele>387.979</ele>
<time>2020-09-10T11:05:19Z</time>
</trkpt>
<trkpt lat="48.567051" lon="10.28353">
<ele>387.979</ele>
<time>2020-09-10T11:05:20Z</time>
</trkpt>
<trkpt lat="48.566998" lon="10.283542">
<ele>387.979</ele>
<time>2020-09-10T11:05:21Z</time>
</trkpt>
<trkpt lat="48.56694" lon="10.28355">
<ele>387.979</ele>
<time>2020-09-10T11:05:22Z</time>
</trkpt>
<trkpt lat="48.566887" lon="10.283559">
<ele>387.979</ele>
<time>2020-09-10T11:05:23Z</time>
</trkpt>
<trkpt lat="48.56683" lon="10.283567">
<ele>387.979</ele>
<time>2020-09-10T11:05:24Z</time>
</trkpt>
<trkpt lat="48.566772" lon="10.283575">
<ele>387.979</ele>
<time>2020-09-10T11:05:25Z</time>
</trkpt>
<trkpt lat="48.566723" lon="10.283584">
<ele>387.979</ele>
<time>2020-09-10T11:05:26Z</time>
</trkpt>
<trkpt lat="48.566669" lon="10.283595">
<ele>387.979</ele>
<time>2020-09-10T11:05:27Z</time>
</trkpt>
<trkpt lat="48.566612" lon="10.283607">
<ele>388.229</ele>
<time>2020-09-10T11:05:28Z</time>
</trkpt>
<trkpt lat="48.566559" lon="10.283618">
<ele>388.422</ele>
<time>2020-09-10T11:05:29Z</time>
</trkpt>
<trkpt lat="48.566505" lon="10.283628">
<ele>388.568</ele>
<time>2020-09-10T11:05:30Z</time>
</trkpt>
<trkpt lat="48.566448" lon="10.283641">
<ele>388.678</ele>
<time>2020-09-10T11:05:31Z</time>
</trkpt>
<trkpt lat="48.566395" lon="10.283649">
<ele>388.753</ele>
<time>2020-09-10T11:05:32Z</time>
</trkpt>
<trkpt lat="48.566338" lon="10.28366">
<ele>388.8</ele>
<time>2020-09-10T11:05:33Z</time>
</trkpt>
<trkpt lat="48.56628" lon="10.283672">
<ele>388.822</ele>
<time>2020-09-10T11:05:34Z</time>
</trkpt>
<trkpt lat="48.566223" lon="10.28368">
<ele>388.841</ele>
<time>2020-09-10T11:05:35Z</time>
</trkpt>
<trkpt lat="48.56617" lon="10.283689">
<ele>388.841</ele>
<time>2020-09-10T11:05:36Z</time>
</trkpt>
<trkpt lat="48.566113" lon="10.2837">
<ele>388.841</ele>
<time>2020-09-10T11:05:37Z</time>
</trkpt>
<trkpt lat="48.566051" lon="10.283713">
<ele>388.841</ele>
<time>2020-09-10T11:05:38Z</time>
</trkpt>
<trkpt lat="48.565994" lon="10.283723">
<ele>388.841</ele>
<time>2020-09-10T11:05:39Z</time>
</trkpt>
<trkpt lat="48.565937" lon="10.283737">
<ele>388.841</ele>
<time>2020-09-10T11:05:40Z</time>
</trkpt>
<trkpt lat="48.56588" lon="10.283748">
<ele>388.841</ele>
<time>2020-09-10T11:05:41Z</time>
</trkpt>
<trkpt lat="48.565823" lon="10.28376">
<ele>388.841</ele>
<time>2020-09-10T11:05:42Z</time>
</trkpt>
<trkpt lat="48.565765" lon="10.283771">
<ele>388.841</ele>
<time>2020-09-10T11:05:43Z</time>
</trkpt>
<trkpt lat="48.565708" lon="10.28378">
<ele>388.841</ele>
<time>2020-09-10T11:05:44Z</time>
</trkpt>
<trkpt lat="48.565647" lon="10.28379">
<ele>388.841</ele>
<time>2020-09-10T11:05:45Z</time>
</trkpt>
<trkpt lat="48.56559" lon="10.2838">
<ele>388.841</ele>
<time>2020-09-10T11:05:46Z</time>
</trkpt>
<trkpt lat="48.565529" lon="10.283811">
<ele>388.841</ele>
<time>2020-09-10T11:05:47Z</time>
</trkpt>
<trkpt lat="48.565472" lon="10.283818">
<ele>388.841</ele>
<time>2020-09-10T11:05:48Z</time>
</trkpt>
<trkpt lat="48.565414" lon="10.28383">
<ele>388.599</ele>
<time>2020-09-10T11:05:49Z</time>
</trkpt>
<trkpt lat="48.565357" lon="10.283844">
<ele>388.411</ele>
<time>2020-09-10T11:05:50Z</time>
</trkpt>
<trkpt lat="48.5653" lon="10.283856">
<ele>388.267</ele>
<time>2020-09-10T11:05:51Z</time>
</trkpt>
<trkpt lat="48.565239" lon="10.28387">
<ele>388.163</ele>
<time>2020-09-10T11:05:52Z</time>
</trkpt>
<trkpt lat="48.565182" lon="10.28388">
<ele>388.087</ele>
<time>2020-09-10T11:05:53Z</time>
</trkpt>
<trkpt lat="48.565128" lon="10.283888">
<ele>388.04</ele>
<time>2020-09-10T11:05:54Z</time>
</trkpt>
<trkpt lat="48.565075" lon="10.2839">
<ele>388.003</ele>
<time>2020-09-10T11:05:55Z</time>
</trkpt>
<trkpt lat="48.565018" lon="10.283912">
<ele>387.979</ele>
<time>2020-09-10T11:05:56Z</time>
</trkpt>
<trkpt lat="48.564964" lon="10.283926">
<ele>387.979</ele>
<time>2020-09-10T11:05:57Z</time>
</trkpt>
<trkpt lat="48.564915" lon="10.283937">
<ele>387.979</ele>
<time>2020-09-10T11:05:58Z</time>
</trkpt>
<trkpt lat="48.564865" lon="10.283947">
<ele>387.979</ele>
<time>2020-09-10T11:05:59Z</time>
</trkpt>
<trkpt lat="48.564812" lon="10.283957">
<ele>387.979</ele>
<time>2020-09-10T11:06:00Z</time>
</trkpt>
<trkpt lat="48.564754" lon="10.283966">
<ele>387.979</ele>
<time>2020-09-10T11:06:01Z</time>
</trkpt>
<trkpt lat="48.564701" lon="10.283977">
<ele>387.979</ele>
<time>2020-09-10T11:06:02Z</time>
</trkpt>
<trkpt lat="48.564644" lon="10.283989">
<ele>387.979</ele>
<time>2020-09-10T11:06:03Z</time>
</trkpt>
<trkpt lat="48.564587" lon="10.283997">
<ele>387.979</ele>
<time>2020-09-10T11:06:04Z</time>
</trkpt>
<trkpt lat="48.564522" lon="10.284003">
<ele>387.979</ele>
<time>2020-09-10T11:06:05Z</time>
</trkpt>
<trkpt lat="48.564468" lon="10.284012">
<ele>387.979</ele>
<time>2020-09-10T11:06:06Z</time>
</trkpt>
<trkpt lat="48.564415" lon="10.28402">
<ele>387.979</ele>
<time>2020-09-10T11:06:07Z</time>
</trkpt>
<trkpt lat="48.564358" lon="10.284032">
<ele>387.979</ele>
<time>2020-09-10T11:06:08Z</time>
</trkpt>
<trkpt lat="48.564304" lon="10.284041">
<ele>387.979</ele>
<time>2020-09-10T11:06:09Z</time>
</trkpt>
<trkpt lat="48.564247" lon="10.284052">
<ele>387.979</ele>
<time>2020-09-10T11:06:10Z</time>
</trkpt>
<trkpt lat="48.564194" lon="10.284061">
<ele>387.979</ele>
<time>2020-09-10T11:06:11Z</time>
</trkpt>
<trkpt lat="48.564137" lon="10.284072">
<ele>387.979</ele>
<time>2020-09-10T11:06:12Z</time>
</trkpt>
<trkpt lat="48.564083" lon="10.284081">
<ele>387.979</ele>
<time>2020-09-10T11:06:13Z</time>
</trkpt>
<trkpt lat="48.56403" lon="10.28409">
<ele>387.979</ele>
<time>2020-09-10T11:06:14Z</time>
</trkpt>
<trkpt lat="48.563969" lon="10.2841">
<ele>387.979</ele>
<time>2020-09-10T11:06:15Z</time>
</trkpt>
<trkpt lat="48.563915" lon="10.284108">
<ele>387.979</ele>
<time>2020-09-10T11:06:16Z</time>
</trkpt>
<trkpt lat="48.563862" lon="10.284119">
<ele>387.979</ele>
<time>2020-09-10T11:06:17Z</time>
</trkpt>
<trkpt lat="48.563808" lon="10.284129">
<ele>387.979</ele>
<time>2020-09-10T11:06:18Z</time>
</trkpt>
<trkpt lat="48.563755" lon="10.28414">
<ele>387.979</ele>
<time>2020-09-10T11:06:19Z</time>
</trkpt>
<trkpt lat="48.563698" lon="10.28415">
<ele>387.979</ele>
<time>2020-09-10T11:06:20Z</time>
</trkpt>
<trkpt lat="48.563641" lon="10.284161">
<ele>387.979</ele>
<time>2020-09-10T11:06:21Z</time>
</trkpt>
<trkpt lat="48.563587" lon="10.28417">
<ele>387.979</ele>
<time>2020-09-10T11:06:22Z</time>
</trkpt>
<trkpt lat="48.56353" lon="10.28418">
<ele>387.979</ele>
<time>2020-09-10T11:06:23Z</time>
</trkpt>
<trkpt lat="48.563477" lon="10.28419">
<ele>387.979</ele>
<time>2020-09-10T11:06:24Z</time>
</trkpt>
<trkpt lat="48.563419" lon="10.2842">
<ele>387.979</ele>
<time>2020-09-10T11:06:25Z</time>
</trkpt>
<trkpt lat="48.563366" lon="10.28421">
<ele>387.979</ele>
<time>2020-09-10T11:06:26Z</time>
</trkpt>
<trkpt lat="48.563313" lon="10.284222">
<ele>387.979</ele>
<time>2020-09-10T11:06:27Z</time>
</trkpt>
<trkpt lat="48.563259" lon="10.284236">
<ele>387.979</ele>
<time>2020-09-10T11:06:28Z</time>
</trkpt>
<trkpt lat="48.56321" lon="10.284252">
<ele>387.979</ele>
<time>2020-09-10T11:06:29Z</time>
</trkpt>
<trkpt lat="48.563156" lon="10.284264">
<ele>387.979</ele>
<time>2020-09-10T11:06:30Z</time>
</trkpt>
<trkpt lat="48.563103" lon="10.284273">
<ele>387.979</ele>
<time>2020-09-10T11:06:31Z</time>
</trkpt>
<trkpt lat="48.563049" lon="10.28429">
<ele>387.979</ele>
<time>2020-09-10T11:06:32Z</time>
</trkpt>
<trkpt lat="48.562992" lon="10.284305">
<ele>387.979</ele>
<time>2020-09-10T11:06:33Z</time>
</trkpt>
<trkpt lat="48.562943" lon="10.284318">
<ele>387.979</ele>
<time>2020-09-10T11:06:34Z</time>
</trkpt>
<trkpt lat="48.562889" lon="10.284333">
<ele>387.979</ele>
<time>2020-09-10T11:06:35Z</time>
</trkpt>
<trkpt lat="48.562836" lon="10.284348">
<ele>387.979</ele>
<time>2020-09-10T11:06:36Z</time>
</trkpt>
<trkpt lat="48.562786" lon="10.284364">
<ele>387.979</ele>
<time>2020-09-10T11:06:37Z</time>
</trkpt>
<trkpt lat="48.562737" lon="10.28438">
<ele>387.979</ele>
<time>2020-09-10T11:06:38Z</time>
</trkpt>
<trkpt lat="48.562687" lon="10.284395">
<ele>387.979</ele>
<time>2020-09-10T11:06:39Z</time>
</trkpt>
<trkpt lat="48.562634" lon="10.284408">
<ele>387.979</ele>
<time>2020-09-10T11:06:40Z</time>
</trkpt>
<trkpt lat="48.56258" lon="10.284422">
<ele>387.979</ele>
<time>2020-09-10T11:06:41Z</time>
</trkpt>
<trkpt lat="48.562531" lon="10.284437">
<ele>387.979</ele>
<time>2020-09-10T11:06:42Z</time>
</trkpt>
<trkpt lat="48.562477" lon="10.284453">
<ele>387.979</ele>
<time>2020-09-10T11:06:43Z</time>
</trkpt>
<trkpt lat="48.562428" lon="10.284471">
<ele>387.979</ele>
<time>2020-09-10T11:06:44Z</time>
</trkpt>
<trkpt lat="48.56237" lon="10.28449">
<ele>387.979</ele>
<time>2020-09-10T11:06:45Z</time>
</trkpt>
<trkpt lat="48.562321" lon="10.284513">
<ele>387.979</ele>
<time>2020-09-10T11:06:46Z</time>
</trkpt>
<trkpt lat="48.562271" lon="10.284537">
<ele>387.979</ele>
<time>2020-09-10T11:06:47Z</time>
</trkpt>
<trkpt lat="48.562218" lon="10.284572">
<ele>387.979</ele>
<time>2020-09-10T11:06:48Z</time>
</trkpt>
<trkpt lat="48.562172" lon="10.284616">
<ele>387.979</ele>
<time>2020-09-10T11:06:49Z</time>
</trkpt>
<trkpt lat="48.56213" lon="10.284663">
<ele>387.979</ele>
<time>2020-09-10T11:06:50Z</time>
</trkpt>
<trkpt lat="48.562092" lon="10.284717">
<ele>387.979</ele>
<time>2020-09-10T11:06:51Z</time>
</trkpt>
<trkpt lat="48.562057" lon="10.284766">
<ele>387.979</ele>
<time>2020-09-10T11:06:52Z</time>
</trkpt>
<trkpt lat="48.562019" lon="10.284812">
<ele>387.979</ele>
<time>2020-09-10T11:06:53Z</time>
</trkpt>
<trkpt lat="48.561981" lon="10.284854">
<ele>387.979</ele>
<time>2020-09-10T11:06:54Z</time>
</trkpt>
<trkpt lat="48.561943" lon="10.284894">
<ele>387.979</ele>
<time>2020-09-10T11:06:55Z</time>
</trkpt>
<trkpt lat="48.561893" lon="10.284925">
<ele>387.979</ele>
<time>2020-09-10T11:06:56Z</time>
</trkpt>
<trkpt lat="48.561848" lon="10.284944">
<ele>387.979</ele>
<time>2020-09-10T11:06:57Z</time>
</trkpt>
<trkpt lat="48.56179" lon="10.284968">
<ele>387.979</ele>
<time>2020-09-10T11:06:58Z</time>
</trkpt>
<trkpt lat="48.561737" lon="10.284986">
<ele>387.979</ele>
<time>2020-09-10T11:06:59Z</time>
</trkpt>
<trkpt lat="48.56168" lon="10.285002">
<ele>387.979</ele>
<time>2020-09-10T11:07:00Z</time>
</trkpt>
<trkpt lat="48.561623" lon="10.285011">
<ele>387.979</ele>
<time>2020-09-10T11:07:01Z</time>
</trkpt>
<trkpt lat="48.561569" lon="10.28502">
<ele>387.979</ele>
<time>2020-09-10T11:07:02Z</time>
</trkpt>
<trkpt lat="48.56152" lon="10.28503">
<ele>387.979</ele>
<time>2020-09-10T11:07:03Z</time>
</trkpt>
<trkpt lat="48.561462" lon="10.28504">
<ele>387.979</ele>
<time>2020-09-10T11:07:04Z</time>
</trkpt>
<trkpt lat="48.561413" lon="10.285048">
<ele>387.979</ele>
<time>2020-09-10T11:07:05Z</time>
</trkpt>
<trkpt lat="48.561359" lon="10.285059">
<ele>387.979</ele>
<time>2020-09-10T11:07:06Z</time>
</trkpt>
<trkpt lat="48.561306" lon="10.285067">
<ele>387.979</ele>
<time>2020-09-10T11:07:07Z</time>
</trkpt>
<trkpt lat="48.561253" lon="10.285078">
<ele>387.979</ele>
<time>2020-09-10T11:07:08Z</time>
</trkpt>
<trkpt lat="48.561195" lon="10.285091">
<ele>387.979</ele>
<time>2020-09-10T11:07:09Z</time>
</trkpt>
<trkpt lat="48.561142" lon="10.285105">
<ele>387.979</ele>
<time>2020-09-10T11:07:10Z</time>
</trkpt>
<trkpt lat="48.561089" lon="10.285118">
<ele>387.979</ele>
<time>2020-09-10T11:07:11Z</time>
</trkpt>
<trkpt lat="48.561031" lon="10.285132">
<ele>387.979</ele>
<time>2020-09-10T11:07:12Z</time>
</trkpt>
<trkpt lat="48.560974" lon="10.285143">
<ele>387.979</ele>
<time>2020-09-10T11:07:13Z</time>
</trkpt>
<trkpt lat="48.560917" lon="10.285153">
<ele>387.979</ele>
<time>2020-09-10T11:07:14Z</time>
</trkpt>
<trkpt lat="48.560863" lon="10.285164">
<ele>387.979</ele>
<time>2020-09-10T11:07:15Z</time>
</trkpt>
<trkpt lat="48.560802" lon="10.285167">
<ele>387.979</ele>
<time>2020-09-10T11:07:16Z</time>
</trkpt>
<trkpt lat="48.560745" lon="10.285172">
<ele>387.979</ele>
<time>2020-09-10T11:07:17Z</time>
</trkpt>
<trkpt lat="48.560692" lon="10.285178">
<ele>387.979</ele>
<time>2020-09-10T11:07:18Z</time>
</trkpt>
<trkpt lat="48.560635" lon="10.285187">
<ele>387.979</ele>
<time>2020-09-10T11:07:19Z</time>
</trkpt>
<trkpt lat="48.560574" lon="10.285197">
<ele>387.979</ele>
<time>2020-09-10T11:07:20Z</time>
</trkpt>
<trkpt lat="48.56052" lon="10.285208">
<ele>387.979</ele>
<time>2020-09-10T11:07:21Z</time>
</trkpt>
<trkpt lat="48.560463" lon="10.285218">
<ele>387.979</ele>
<time>2020-09-10T11:07:22Z</time>
</trkpt>
<trkpt lat="48.56041" lon="10.285225">
<ele>387.979</ele>
<time>2020-09-10T11:07:23Z</time>
</trkpt>
<trkpt lat="48.560352" lon="10.285235">
<ele>387.979</ele>
<time>2020-09-10T11:07:24Z</time>
</trkpt>
<trkpt lat="48.560299" lon="10.285242">
<ele>387.979</ele>
<time>2020-09-10T11:07:25Z</time>
</trkpt>
<trkpt lat="48.560246" lon="10.28525">
<ele>387.979</ele>
<time>2020-09-10T11:07:26Z</time>
</trkpt>
<trkpt lat="48.560192" lon="10.285263">
<ele>387.979</ele>
<time>2020-09-10T11:07:27Z</time>
</trkpt>
<trkpt lat="48.560139" lon="10.285274">
<ele>387.979</ele>
<time>2020-09-10T11:07:28Z</time>
</trkpt>
<trkpt lat="48.560085" lon="10.285283">
<ele>387.979</ele>
<time>2020-09-10T11:07:29Z</time>
</trkpt>
<trkpt lat="48.560036" lon="10.285292">
<ele>387.979</ele>
<time>2020-09-10T11:07:30Z</time>
</trkpt>
<trkpt lat="48.559986" lon="10.285302">
<ele>387.979</ele>
<time>2020-09-10T11:07:31Z</time>
</trkpt>
<trkpt lat="48.559929" lon="10.285312">
<ele>387.979</ele>
<time>2020-09-10T11:07:32Z</time>
</trkpt>
<trkpt lat="48.559879" lon="10.285318">
<ele>387.979</ele>
<time>2020-09-10T11:07:33Z</time>
</trkpt>
<trkpt lat="48.559826" lon="10.285325">
<ele>387.979</ele>
<time>2020-09-10T11:07:34Z</time>
</trkpt>
<trkpt lat="48.559772" lon="10.285334">
<ele>387.979</ele>
<time>2020-09-10T11:07:35Z</time>
</trkpt>
<trkpt lat="48.559719" lon="10.285344">
<ele>387.979</ele>
<time>2020-09-10T11:07:36Z</time>
</trkpt>
<trkpt lat="48.559662" lon="10.285355">
<ele>387.979</ele>
<time>2020-09-10T11:07:37Z</time>
</trkpt>
<trkpt lat="48.559605" lon="10.285361">
<ele>387.979</ele>
<time>2020-09-10T11:07:38Z</time>
</trkpt>
<trkpt lat="48.559551" lon="10.285367">
<ele>387.979</ele>
<time>2020-09-10T11:07:39Z</time>
</trkpt>
<trkpt lat="48.559498" lon="10.28537">
<ele>387.979</ele>
<time>2020-09-10T11:07:40Z</time>
</trkpt>
<trkpt lat="48.559441" lon="10.28538">
<ele>387.979</ele>
<time>2020-09-10T11:07:41Z</time>
</trkpt>
<trkpt lat="48.559383" lon="10.285388">
<ele>387.979</ele>
<time>2020-09-10T11:07:42Z</time>
</trkpt>
<trkpt lat="48.55933" lon="10.28541">
<ele>387.979</ele>
<time>2020-09-10T11:07:43Z</time>
</trkpt>
<trkpt lat="48.559273" lon="10.285418">
<ele>387.979</ele>
<time>2020-09-10T11:07:44Z</time>
</trkpt>
<trkpt lat="48.559216" lon="10.28543">
<ele>387.979</ele>
<time>2020-09-10T11:07:45Z</time>
</trkpt>
<trkpt lat="48.559162" lon="10.285441">
<ele>387.979</ele>
<time>2020-09-10T11:07:46Z</time>
</trkpt>
<trkpt lat="48.559109" lon="10.285453">
<ele>387.979</ele>
<time>2020-09-10T11:07:47Z</time>
</trkpt>
<trkpt lat="48.559052" lon="10.285465">
<ele>387.979</ele>
<time>2020-09-10T11:07:48Z</time>
</trkpt>
<trkpt lat="48.558998" lon="10.285477">
<ele>387.979</ele>
<time>2020-09-10T11:07:49Z</time>
</trkpt>
<trkpt lat="48.558945" lon="10.285488">
<ele>387.979</ele>
<time>2020-09-10T11:07:50Z</time>
</trkpt>
<trkpt lat="48.558884" lon="10.285499">
<ele>387.979</ele>
<time>2020-09-10T11:07:51Z</time>
</trkpt>
<trkpt lat="48.558834" lon="10.28551">
<ele>387.979</ele>
<time>2020-09-10T11:07:52Z</time>
</trkpt>
<trkpt lat="48.558781" lon="10.285519">
<ele>387.979</ele>
<time>2020-09-10T11:07:53Z</time>
</trkpt>
<trkpt lat="48.558731" lon="10.28553">
<ele>387.979</ele>
<time>2020-09-10T11:07:54Z</time>
</trkpt>
<trkpt lat="48.558681" lon="10.28554">
<ele>387.979</ele>
<time>2020-09-10T11:07:55Z</time>
</trkpt>
<trkpt lat="48.558636" lon="10.28554">
<ele>387.979</ele>
<time>2020-09-10T11:07:56Z</time>
</trkpt>
<trkpt lat="48.558601" lon="10.285523">
<ele>388.223</ele>
<time>2020-09-10T11:07:57Z</time>
</trkpt>
<trkpt lat="48.558575" lon="10.285493">
<ele>388.394</ele>
<time>2020-09-10T11:07:58Z</time>
</trkpt>
<trkpt lat="48.558552" lon="10.285465">
<ele>388.811</ele>
<time>2020-09-10T11:07:59Z</time>
</trkpt>
<trkpt lat="48.558525" lon="10.28544">
<ele>389.149</ele>
<time>2020-09-10T11:08:00Z</time>
</trkpt>
<trkpt lat="48.558487" lon="10.285421">
<ele>389.405</ele>
<time>2020-09-10T11:08:01Z</time>
</trkpt>
<trkpt lat="48.558449" lon="10.285407">
<ele>389.599</ele>
<time>2020-09-10T11:08:02Z</time>
</trkpt>
<trkpt lat="48.558399" lon="10.285398">
<ele>389.726</ele>
<time>2020-09-10T11:08:03Z</time>
</trkpt>
<trkpt lat="48.558353" lon="10.285398">
<ele>389.792</ele>
<time>2020-09-10T11:08:04Z</time>
</trkpt>
<trkpt lat="48.558304" lon="10.285407">
<ele>389.845</ele>
<time>2020-09-10T11:08:05Z</time>
</trkpt>
<trkpt lat="48.558262" lon="10.285418">
<ele>390.178</ele>
<time>2020-09-10T11:08:06Z</time>
</trkpt>
<trkpt lat="48.558212" lon="10.285428">
<ele>390.417</ele>
<time>2020-09-10T11:08:07Z</time>
</trkpt>
<trkpt lat="48.558163" lon="10.285441">
<ele>390.597</ele>
<time>2020-09-10T11:08:08Z</time>
</trkpt>
<trkpt lat="48.558117" lon="10.285458">
<ele>390.731</ele>
<time>2020-09-10T11:08:09Z</time>
</trkpt>
<trkpt lat="48.558071" lon="10.285472">
<ele>390.838</ele>
<time>2020-09-10T11:08:10Z</time>
</trkpt>
<trkpt lat="48.558025" lon="10.285486">
<ele>390.917</ele>
<time>2020-09-10T11:08:11Z</time>
</trkpt>
<trkpt lat="48.557976" lon="10.285503">
<ele>390.97</ele>
<time>2020-09-10T11:08:12Z</time>
</trkpt>
<trkpt lat="48.557934" lon="10.285519">
<ele>390.997</ele>
<time>2020-09-10T11:08:13Z</time>
</trkpt>
<trkpt lat="48.557884" lon="10.285537">
<ele>390.997</ele>
<time>2020-09-10T11:08:14Z</time>
</trkpt>
<trkpt lat="48.557838" lon="10.285556">
<ele>390.997</ele>
<time>2020-09-10T11:08:15Z</time>
</trkpt>
<trkpt lat="48.557785" lon="10.285577">
<ele>390.997</ele>
<time>2020-09-10T11:08:16Z</time>
</trkpt>
<trkpt lat="48.557739" lon="10.285598">
<ele>390.997</ele>
<time>2020-09-10T11:08:17Z</time>
</trkpt>
<trkpt lat="48.557686" lon="10.285621">
<ele>390.997</ele>
<time>2020-09-10T11:08:18Z</time>
</trkpt>
<trkpt lat="48.55764" lon="10.285645">
<ele>390.997</ele>
<time>2020-09-10T11:08:19Z</time>
</trkpt>
<trkpt lat="48.557587" lon="10.28567">
<ele>390.997</ele>
<time>2020-09-10T11:08:20Z</time>
</trkpt>
<trkpt lat="48.557545" lon="10.285695">
<ele>390.997</ele>
<time>2020-09-10T11:08:21Z</time>
</trkpt>
<trkpt lat="48.557495" lon="10.28572">
<ele>390.997</ele>
<time>2020-09-10T11:08:22Z</time>
</trkpt>
<trkpt lat="48.557446" lon="10.285747">
<ele>390.997</ele>
<time>2020-09-10T11:08:23Z</time>
</trkpt>
<trkpt lat="48.557392" lon="10.285773">
<ele>390.997</ele>
<time>2020-09-10T11:08:24Z</time>
</trkpt>
<trkpt lat="48.557346" lon="10.2858">
<ele>390.997</ele>
<time>2020-09-10T11:08:25Z</time>
</trkpt>
<trkpt lat="48.557297" lon="10.285829">
<ele>390.997</ele>
<time>2020-09-10T11:08:26Z</time>
</trkpt>
<trkpt lat="48.557251" lon="10.285853">
<ele>390.997</ele>
<time>2020-09-10T11:08:27Z</time>
</trkpt>
<trkpt lat="48.557213" lon="10.285876">
<ele>390.997</ele>
<time>2020-09-10T11:08:28Z</time>
</trkpt>
<trkpt lat="48.557167" lon="10.285902">
<ele>390.997</ele>
<time>2020-09-10T11:08:29Z</time>
</trkpt>
<trkpt lat="48.557125" lon="10.285927">
<ele>390.997</ele>
<time>2020-09-10T11:08:30Z</time>
</trkpt>
<trkpt lat="48.557087" lon="10.285954">
<ele>390.997</ele>
<time>2020-09-10T11:08:31Z</time>
</trkpt>
<trkpt lat="48.557049" lon="10.285978">
<ele>390.783</ele>
<time>2020-09-10T11:08:32Z</time>
</trkpt>
<trkpt lat="48.557011" lon="10.286004">
<ele>390.612</ele>
<time>2020-09-10T11:08:33Z</time>
</trkpt>
<trkpt lat="48.556973" lon="10.286027">
<ele>390.478</ele>
<time>2020-09-10T11:08:34Z</time>
</trkpt>
<trkpt lat="48.556934" lon="10.286052">
<ele>390.381</ele>
<time>2020-09-10T11:08:35Z</time>
</trkpt>
<trkpt lat="48.556904" lon="10.286083">
<ele>390.28</ele>
<time>2020-09-10T11:08:36Z</time>
</trkpt>
<trkpt lat="48.556866" lon="10.286121">
<ele>390.206</ele>
<time>2020-09-10T11:08:37Z</time>
</trkpt>
<trkpt lat="48.556828" lon="10.286167">
<ele>390.158</ele>
<time>2020-09-10T11:08:38Z</time>
</trkpt>
<trkpt lat="48.556793" lon="10.286217">
<ele>390.134</ele>
<time>2020-09-10T11:08:39Z</time>
</trkpt>
<trkpt lat="48.556763" lon="10.28627">
<ele>389.865</ele>
<time>2020-09-10T11:08:40Z</time>
</trkpt>
<trkpt lat="48.556728" lon="10.286314">
<ele>389.661</ele>
<time>2020-09-10T11:08:41Z</time>
</trkpt>
<trkpt lat="48.556694" lon="10.28635">
<ele>389.504</ele>
<time>2020-09-10T11:08:42Z</time>
</trkpt>
<trkpt lat="48.55666" lon="10.286387">
<ele>389.394</ele>
<time>2020-09-10T11:08:43Z</time>
</trkpt>
<trkpt lat="48.556622" lon="10.286427">
<ele>389.318</ele>
<time>2020-09-10T11:08:44Z</time>
</trkpt>
<trkpt lat="48.55658" lon="10.286475">
<ele>389.264</ele>
<time>2020-09-10T11:08:45Z</time>
</trkpt>
<trkpt lat="48.556541" lon="10.286518">
<ele>389.214</ele>
<time>2020-09-10T11:08:46Z</time>
</trkpt>
<trkpt lat="48.556499" lon="10.286557">
<ele>388.952</ele>
<time>2020-09-10T11:08:47Z</time>
</trkpt>
<trkpt lat="48.55645" lon="10.286591">
<ele>388.673</ele>
<time>2020-09-10T11:08:48Z</time>
</trkpt>
<trkpt lat="48.556404" lon="10.286625">
<ele>388.501</ele>
<time>2020-09-10T11:08:49Z</time>
</trkpt>
<trkpt lat="48.556362" lon="10.286662">
<ele>388.382</ele>
<time>2020-09-10T11:08:50Z</time>
</trkpt>
<trkpt lat="48.556313" lon="10.286698">
<ele>388.306</ele>
<time>2020-09-10T11:08:51Z</time>
</trkpt>
<trkpt lat="48.556271" lon="10.286737">
<ele>388.265</ele>
<time>2020-09-10T11:08:52Z</time>
</trkpt>
<trkpt lat="48.556225" lon="10.286779">
<ele>388.242</ele>
<time>2020-09-10T11:08:53Z</time>
</trkpt>
<trkpt lat="48.556175" lon="10.286825">
<ele>388.238</ele>
<time>2020-09-10T11:08:54Z</time>
</trkpt>
<trkpt lat="48.556133" lon="10.286872">
<ele>388.238</ele>
<time>2020-09-10T11:08:55Z</time>
</trkpt>
<trkpt lat="48.55608" lon="10.286915">
<ele>388.238</ele>
<time>2020-09-10T11:08:56Z</time>
</trkpt>
<trkpt lat="48.556034" lon="10.286962">
<ele>388.238</ele>
<time>2020-09-10T11:08:57Z</time>
</trkpt>
<trkpt lat="48.555981" lon="10.287008">
<ele>388.238</ele>
<time>2020-09-10T11:08:58Z</time>
</trkpt>
<trkpt lat="48.555935" lon="10.287056">
<ele>388.238</ele>
<time>2020-09-10T11:08:59Z</time>
</trkpt>
<trkpt lat="48.555885" lon="10.287104">
<ele>388.238</ele>
<time>2020-09-10T11:09:00Z</time>
</trkpt>
<trkpt lat="48.555836" lon="10.287152">
<ele>388.238</ele>
<time>2020-09-10T11:09:01Z</time>
</trkpt>
<trkpt lat="48.555786" lon="10.287202">
<ele>388.238</ele>
<time>2020-09-10T11:09:02Z</time>
</trkpt>
<trkpt lat="48.55574" lon="10.287249">
<ele>388.021</ele>
<time>2020-09-10T11:09:03Z</time>
</trkpt>
<trkpt lat="48.555691" lon="10.287298">
<ele>387.852</ele>
<time>2020-09-10T11:09:04Z</time>
</trkpt>
<trkpt lat="48.555641" lon="10.287349">
<ele>387.734</ele>
<time>2020-09-10T11:09:05Z</time>
</trkpt>
<trkpt lat="48.555588" lon="10.287397">
<ele>387.608</ele>
<time>2020-09-10T11:09:06Z</time>
</trkpt>
<trkpt lat="48.555542" lon="10.287443">
<ele>387.511</ele>
<time>2020-09-10T11:09:07Z</time>
</trkpt>
<trkpt lat="48.555492" lon="10.287488">
<ele>387.441</ele>
<time>2020-09-10T11:09:08Z</time>
</trkpt>
<trkpt lat="48.555447" lon="10.287532">
<ele>387.398</ele>
<time>2020-09-10T11:09:09Z</time>
</trkpt>
<trkpt lat="48.555401" lon="10.28758">
<ele>387.376</ele>
<time>2020-09-10T11:09:10Z</time>
</trkpt>
<trkpt lat="48.555351" lon="10.287628">
<ele>387.376</ele>
<time>2020-09-10T11:09:11Z</time>
</trkpt>
<trkpt lat="48.555302" lon="10.287677">
<ele>387.376</ele>
<time>2020-09-10T11:09:12Z</time>
</trkpt>
<trkpt lat="48.555252" lon="10.287724">
<ele>387.376</ele>
<time>2020-09-10T11:09:13Z</time>
</trkpt>
<trkpt lat="48.555199" lon="10.287775">
<ele>387.376</ele>
<time>2020-09-10T11:09:14Z</time>
</trkpt>
<trkpt lat="48.555153" lon="10.287825">
<ele>387.376</ele>
<time>2020-09-10T11:09:15Z</time>
</trkpt>
<trkpt lat="48.555103" lon="10.287873">
<ele>387.376</ele>
<time>2020-09-10T11:09:16Z</time>
</trkpt>
<trkpt lat="48.555054" lon="10.287922">
<ele>387.376</ele>
<time>2020-09-10T11:09:17Z</time>
</trkpt>
<trkpt lat="48.555" lon="10.287967">
<ele>387.376</ele>
<time>2020-09-10T11:09:18Z</time>
</trkpt>
<trkpt lat="48.554951" lon="10.28801">
<ele>387.376</ele>
<time>2020-09-10T11:09:19Z</time>
</trkpt>
<trkpt lat="48.554901" lon="10.288052">
<ele>387.376</ele>
<time>2020-09-10T11:09:20Z</time>
</trkpt>
<trkpt lat="48.554848" lon="10.288092">
<ele>387.376</ele>
<time>2020-09-10T11:09:21Z</time>
</trkpt>
<trkpt lat="48.554798" lon="10.288127">
<ele>387.376</ele>
<time>2020-09-10T11:09:22Z</time>
</trkpt>
<trkpt lat="48.554745" lon="10.288162">
<ele>387.376</ele>
<time>2020-09-10T11:09:23Z</time>
</trkpt>
<trkpt lat="48.554695" lon="10.288194">
<ele>387.376</ele>
<time>2020-09-10T11:09:24Z</time>
</trkpt>
<trkpt lat="48.554642" lon="10.288229">
<ele>387.376</ele>
<time>2020-09-10T11:09:25Z</time>
</trkpt>
<trkpt lat="48.554585" lon="10.288263">
<ele>387.376</ele>
<time>2020-09-10T11:09:26Z</time>
</trkpt>
<trkpt lat="48.554531" lon="10.288302">
<ele>387.376</ele>
<time>2020-09-10T11:09:27Z</time>
</trkpt>
<trkpt lat="48.554478" lon="10.288341">
<ele>387.376</ele>
<time>2020-09-10T11:09:28Z</time>
</trkpt>
<trkpt lat="48.554424" lon="10.288378">
<ele>387.376</ele>
<time>2020-09-10T11:09:29Z</time>
</trkpt>
<trkpt lat="48.554371" lon="10.288413">
<ele>387.376</ele>
<time>2020-09-10T11:09:30Z</time>
</trkpt>
<trkpt lat="48.554321" lon="10.288449">
<ele>387.376</ele>
<time>2020-09-10T11:09:31Z</time>
</trkpt>
<trkpt lat="48.554272" lon="10.288485">
<ele>387.376</ele>
<time>2020-09-10T11:09:32Z</time>
</trkpt>
<trkpt lat="48.554218" lon="10.288523">
<ele>387.376</ele>
<time>2020-09-10T11:09:33Z</time>
</trkpt>
<trkpt lat="48.554169" lon="10.28856">
<ele>387.376</ele>
<time>2020-09-10T11:09:34Z</time>
</trkpt>
<trkpt lat="48.554119" lon="10.288589">
<ele>387.376</ele>
<time>2020-09-10T11:09:35Z</time>
</trkpt>
<trkpt lat="48.554066" lon="10.288615">
<ele>387.376</ele>
<time>2020-09-10T11:09:36Z</time>
</trkpt>
<trkpt lat="48.554012" lon="10.288636">
<ele>387.376</ele>
<time>2020-09-10T11:09:37Z</time>
</trkpt>
<trkpt lat="48.553959" lon="10.288661">
<ele>387.376</ele>
<time>2020-09-10T11:09:38Z</time>
</trkpt>
<trkpt lat="48.553909" lon="10.288689">
<ele>387.376</ele>
<time>2020-09-10T11:09:39Z</time>
</trkpt>
<trkpt lat="48.55386" lon="10.28872">
<ele>387.376</ele>
<time>2020-09-10T11:09:40Z</time>
</trkpt>
<trkpt lat="48.553802" lon="10.288749">
<ele>387.376</ele>
<time>2020-09-10T11:09:41Z</time>
</trkpt>
<trkpt lat="48.553753" lon="10.288772">
<ele>387.376</ele>
<time>2020-09-10T11:09:42Z</time>
</trkpt>
<trkpt lat="48.553699" lon="10.288801">
<ele>387.376</ele>
<time>2020-09-10T11:09:43Z</time>
</trkpt>
<trkpt lat="48.553654" lon="10.288832">
<ele>387.376</ele>
<time>2020-09-10T11:09:44Z</time>
</trkpt>
<trkpt lat="48.5536" lon="10.28886">
<ele>387.376</ele>
<time>2020-09-10T11:09:45Z</time>
</trkpt>
<trkpt lat="48.553555" lon="10.288889">
<ele>387.376</ele>
<time>2020-09-10T11:09:46Z</time>
</trkpt>
<trkpt lat="48.553505" lon="10.288918">
<ele>387.376</ele>
<time>2020-09-10T11:09:47Z</time>
</trkpt>
<trkpt lat="48.553459" lon="10.288948">
<ele>387.376</ele>
<time>2020-09-10T11:09:48Z</time>
</trkpt>
<trkpt lat="48.553406" lon="10.28898">
<ele>387.376</ele>
<time>2020-09-10T11:09:49Z</time>
</trkpt>
<trkpt lat="48.553364" lon="10.289008">
<ele>387.376</ele>
<time>2020-09-10T11:09:50Z</time>
</trkpt>
<trkpt lat="48.55331" lon="10.289037">
<ele>387.376</ele>
<time>2020-09-10T11:09:51Z</time>
</trkpt>
<trkpt lat="48.553265" lon="10.289068">
<ele>387.376</ele>
<time>2020-09-10T11:09:52Z</time>
</trkpt>
<trkpt lat="48.553219" lon="10.289104">
<ele>387.376</ele>
<time>2020-09-10T11:09:53Z</time>
</trkpt>
<trkpt lat="48.553173" lon="10.289146">
<ele>387.376</ele>
<time>2020-09-10T11:09:54Z</time>
</trkpt>
<trkpt lat="48.553127" lon="10.289191">
<ele>387.376</ele>
<time>2020-09-10T11:09:55Z</time>
</trkpt>
<trkpt lat="48.553082" lon="10.289235">
<ele>387.376</ele>
<time>2020-09-10T11:09:56Z</time>
</trkpt>
<trkpt lat="48.553043" lon="10.289281">
<ele>387.376</ele>
<time>2020-09-10T11:09:57Z</time>
</trkpt>
<trkpt lat="48.553005" lon="10.289333">
<ele>387.376</ele>
<time>2020-09-10T11:09:58Z</time>
</trkpt>
<trkpt lat="48.552971" lon="10.289393">
<ele>387.376</ele>
<time>2020-09-10T11:09:59Z</time>
</trkpt>
<trkpt lat="48.552944" lon="10.28946">
<ele>387.376</ele>
<time>2020-09-10T11:10:00Z</time>
</trkpt>
<trkpt lat="48.552914" lon="10.28953">
<ele>387.376</ele>
<time>2020-09-10T11:10:01Z</time>
</trkpt>
<trkpt lat="48.552891" lon="10.289608">
<ele>387.376</ele>
<time>2020-09-10T11:10:02Z</time>
</trkpt>
<trkpt lat="48.552872" lon="10.28969">
<ele>387.376</ele>
<time>2020-09-10T11:10:03Z</time>
</trkpt>
<trkpt lat="48.552849" lon="10.289771">
<ele>387.376</ele>
<time>2020-09-10T11:10:04Z</time>
</trkpt>
<trkpt lat="48.552834" lon="10.289851">
<ele>387.376</ele>
<time>2020-09-10T11:10:05Z</time>
</trkpt>
<trkpt lat="48.552814" lon="10.289932">
<ele>387.376</ele>
<time>2020-09-10T11:10:06Z</time>
</trkpt>
<trkpt lat="48.552788" lon="10.290013">
<ele>387.376</ele>
<time>2020-09-10T11:10:07Z</time>
</trkpt>
<trkpt lat="48.552765" lon="10.290093">
<ele>387.376</ele>
<time>2020-09-10T11:10:08Z</time>
</trkpt>
<trkpt lat="48.552742" lon="10.290172">
<ele>387.376</ele>
<time>2020-09-10T11:10:09Z</time>
</trkpt>
<trkpt lat="48.552708" lon="10.290247">
<ele>387.376</ele>
<time>2020-09-10T11:10:10Z</time>
</trkpt>
<trkpt lat="48.552673" lon="10.290317">
<ele>387.376</ele>
<time>2020-09-10T11:10:11Z</time>
</trkpt>
<trkpt lat="48.552643" lon="10.29039">
<ele>387.376</ele>
<time>2020-09-10T11:10:12Z</time>
</trkpt>
<trkpt lat="48.55262" lon="10.290462">
<ele>387.376</ele>
<time>2020-09-10T11:10:13Z</time>
</trkpt>
<trkpt lat="48.552589" lon="10.290535">
<ele>387.376</ele>
<time>2020-09-10T11:10:14Z</time>
</trkpt>
<trkpt lat="48.552551" lon="10.290605">
<ele>387.376</ele>
<time>2020-09-10T11:10:15Z</time>
</trkpt>
<trkpt lat="48.552528" lon="10.29067">
<ele>387.376</ele>
<time>2020-09-10T11:10:16Z</time>
</trkpt>
<trkpt lat="48.552498" lon="10.29074">
<ele>387.376</ele>
<time>2020-09-10T11:10:17Z</time>
</trkpt>
<trkpt lat="48.552464" lon="10.290818">
<ele>387.376</ele>
<time>2020-09-10T11:10:18Z</time>
</trkpt>
<trkpt lat="48.552425" lon="10.290896">
<ele>387.376</ele>
<time>2020-09-10T11:10:19Z</time>
</trkpt>
<trkpt lat="48.55238" lon="10.290976">
<ele>387.376</ele>
<time>2020-09-10T11:10:20Z</time>
</trkpt>
<trkpt lat="48.552349" lon="10.29104">
<ele>387.376</ele>
<time>2020-09-10T11:10:21Z</time>
</trkpt>
<trkpt lat="48.552326" lon="10.291108">
<ele>387.376</ele>
<time>2020-09-10T11:10:22Z</time>
</trkpt>
<trkpt lat="48.552296" lon="10.291175">
<ele>387.376</ele>
<time>2020-09-10T11:10:23Z</time>
</trkpt>
<trkpt lat="48.552269" lon="10.291238">
<ele>387.376</ele>
<time>2020-09-10T11:10:24Z</time>
</trkpt>
<trkpt lat="48.552242" lon="10.291306">
<ele>387.376</ele>
<time>2020-09-10T11:10:25Z</time>
</trkpt>
<trkpt lat="48.552212" lon="10.291373">
<ele>387.376</ele>
<time>2020-09-10T11:10:26Z</time>
</trkpt>
<trkpt lat="48.552185" lon="10.291439">
<ele>387.376</ele>
<time>2020-09-10T11:10:27Z</time>
</trkpt>
<trkpt lat="48.552155" lon="10.2915">
<ele>387.376</ele>
<time>2020-09-10T11:10:28Z</time>
</trkpt>
<trkpt lat="48.552128" lon="10.291558">
<ele>387.376</ele>
<time>2020-09-10T11:10:29Z</time>
</trkpt>
<trkpt lat="48.552097" lon="10.291618">
<ele>387.376</ele>
<time>2020-09-10T11:10:30Z</time>
</trkpt>
<trkpt lat="48.552067" lon="10.291676">
<ele>387.376</ele>
<time>2020-09-10T11:10:31Z</time>
</trkpt>
<trkpt lat="48.552032" lon="10.291728">
<ele>387.376</ele>
<time>2020-09-10T11:10:32Z</time>
</trkpt>
<trkpt lat="48.552006" lon="10.29178">
<ele>387.376</ele>
<time>2020-09-10T11:10:33Z</time>
</trkpt>
<trkpt lat="48.551979" lon="10.29184">
<ele>387.376</ele>
<time>2020-09-10T11:10:34Z</time>
</trkpt>
<trkpt lat="48.551945" lon="10.2919">
<ele>387.376</ele>
<time>2020-09-10T11:10:35Z</time>
</trkpt>
<trkpt lat="48.551918" lon="10.291961">
<ele>387.376</ele>
<time>2020-09-10T11:10:36Z</time>
</trkpt>
<trkpt lat="48.551891" lon="10.292015">
<ele>387.376</ele>
<time>2020-09-10T11:10:37Z</time>
</trkpt>
<trkpt lat="48.551865" lon="10.292078">
<ele>387.376</ele>
<time>2020-09-10T11:10:38Z</time>
</trkpt>
<trkpt lat="48.551838" lon="10.292141">
<ele>387.621</ele>
<time>2020-09-10T11:10:39Z</time>
</trkpt>
<trkpt lat="48.551811" lon="10.292212">
<ele>387.812</ele>
<time>2020-09-10T11:10:40Z</time>
</trkpt>
<trkpt lat="48.551785" lon="10.292274">
<ele>387.956</ele>
<time>2020-09-10T11:10:41Z</time>
</trkpt>
<trkpt lat="48.551758" lon="10.292336">
<ele>388.058</ele>
<time>2020-09-10T11:10:42Z</time>
</trkpt>
<trkpt lat="48.551735" lon="10.292397">
<ele>388.131</ele>
<time>2020-09-10T11:10:43Z</time>
</trkpt>
<trkpt lat="48.551708" lon="10.292457">
<ele>388.178</ele>
<time>2020-09-10T11:10:44Z</time>
</trkpt>
<trkpt lat="48.551674" lon="10.292518">
<ele>388.216</ele>
<time>2020-09-10T11:10:45Z</time>
</trkpt>
<trkpt lat="48.551643" lon="10.292579">
<ele>388.238</ele>
<time>2020-09-10T11:10:46Z</time>
</trkpt>
<trkpt lat="48.551613" lon="10.29264">
<ele>388.238</ele>
<time>2020-09-10T11:10:47Z</time>
</trkpt>
<trkpt lat="48.551579" lon="10.292702">
<ele>388.238</ele>
<time>2020-09-10T11:10:48Z</time>
</trkpt>
<trkpt lat="48.551544" lon="10.292757">
<ele>388.238</ele>
<time>2020-09-10T11:10:49Z</time>
</trkpt>
<trkpt lat="48.551514" lon="10.292813">
<ele>388.238</ele>
<time>2020-09-10T11:10:50Z</time>
</trkpt>
<trkpt lat="48.551472" lon="10.292867">
<ele>388.238</ele>
<time>2020-09-10T11:10:51Z</time>
</trkpt>
<trkpt lat="48.55143" lon="10.292916">
<ele>388.238</ele>
<time>2020-09-10T11:10:52Z</time>
</trkpt>
<trkpt lat="48.55138" lon="10.292964">
<ele>388.238</ele>
<time>2020-09-10T11:10:53Z</time>
</trkpt>
<trkpt lat="48.551334" lon="10.293014">
<ele>388.238</ele>
<time>2020-09-10T11:10:54Z</time>
</trkpt>
<trkpt lat="48.551285" lon="10.29306">
<ele>388.238</ele>
<time>2020-09-10T11:10:55Z</time>
</trkpt>
<trkpt lat="48.551243" lon="10.293102">
<ele>388.238</ele>
<time>2020-09-10T11:10:56Z</time>
</trkpt>
<trkpt lat="48.551193" lon="10.293142">
<ele>388.238</ele>
<time>2020-09-10T11:10:57Z</time>
</trkpt>
<trkpt lat="48.55114" lon="10.293181">
<ele>388.238</ele>
<time>2020-09-10T11:10:58Z</time>
</trkpt>
<trkpt lat="48.55109" lon="10.293221">
<ele>388.238</ele>
<time>2020-09-10T11:10:59Z</time>
</trkpt>
<trkpt lat="48.551041" lon="10.293258">
<ele>388.238</ele>
<time>2020-09-10T11:11:00Z</time>
</trkpt>
<trkpt lat="48.550987" lon="10.29329">
<ele>388.238</ele>
<time>2020-09-10T11:11:01Z</time>
</trkpt>
<trkpt lat="48.55093" lon="10.293318">
<ele>388.238</ele>
<time>2020-09-10T11:11:02Z</time>
</trkpt>
<trkpt lat="48.55088" lon="10.293347">
<ele>388.238</ele>
<time>2020-09-10T11:11:03Z</time>
</trkpt>
<trkpt lat="48.550838" lon="10.293377">
<ele>388.238</ele>
<time>2020-09-10T11:11:04Z</time>
</trkpt>
<trkpt lat="48.550797" lon="10.293408">
<ele>388.238</ele>
<time>2020-09-10T11:11:05Z</time>
</trkpt>
<trkpt lat="48.550755" lon="10.29344">
<ele>388.238</ele>
<time>2020-09-10T11:11:06Z</time>
</trkpt>
<trkpt lat="48.550713" lon="10.293477">
<ele>388.238</ele>
<time>2020-09-10T11:11:07Z</time>
</trkpt>
<trkpt lat="48.550678" lon="10.293519">
<ele>388.238</ele>
<time>2020-09-10T11:11:08Z</time>
</trkpt>
<trkpt lat="48.550659" lon="10.293568">
<ele>388.238</ele>
<time>2020-09-10T11:11:09Z</time>
</trkpt>
<trkpt lat="48.55064" lon="10.293625">
<ele>388.017</ele>
<time>2020-09-10T11:11:10Z</time>
</trkpt>
<trkpt lat="48.550632" lon="10.293682">
<ele>387.837</ele>
<time>2020-09-10T11:11:11Z</time>
</trkpt>
<trkpt lat="48.550632" lon="10.293745">
<ele>387.695</ele>
<time>2020-09-10T11:11:12Z</time>
</trkpt>
<trkpt lat="48.550632" lon="10.293812">
<ele>387.59</ele>
<time>2020-09-10T11:11:13Z</time>
</trkpt>
<trkpt lat="48.550636" lon="10.293878">
<ele>387.509</ele>
<time>2020-09-10T11:11:14Z</time>
</trkpt>
<trkpt lat="48.550644" lon="10.293946">
<ele>387.453</ele>
<time>2020-09-10T11:11:15Z</time>
</trkpt>
<trkpt lat="48.550663" lon="10.294028">
<ele>387.399</ele>
<time>2020-09-10T11:11:16Z</time>
</trkpt>
<trkpt lat="48.550674" lon="10.294108">
<ele>387.376</ele>
<time>2020-09-10T11:11:17Z</time>
</trkpt>
<trkpt lat="48.550686" lon="10.294187">
<ele>387.376</ele>
<time>2020-09-10T11:11:18Z</time>
</trkpt>
<trkpt lat="48.550697" lon="10.294265">
<ele>387.376</ele>
<time>2020-09-10T11:11:19Z</time>
</trkpt>
<trkpt lat="48.550709" lon="10.29434">
<ele>387.376</ele>
<time>2020-09-10T11:11:20Z</time>
</trkpt>
<trkpt lat="48.55072" lon="10.294414">
<ele>387.376</ele>
<time>2020-09-10T11:11:21Z</time>
</trkpt>
<trkpt lat="48.550732" lon="10.294485">
<ele>387.376</ele>
<time>2020-09-10T11:11:22Z</time>
</trkpt>
<trkpt lat="48.550743" lon="10.294559">
<ele>387.376</ele>
<time>2020-09-10T11:11:23Z</time>
</trkpt>
<trkpt lat="48.550755" lon="10.294627">
<ele>387.376</ele>
<time>2020-09-10T11:11:24Z</time>
</trkpt>
<trkpt lat="48.550758" lon="10.294692">
<ele>387.376</ele>
<time>2020-09-10T11:11:25Z</time>
</trkpt>
<trkpt lat="48.550762" lon="10.294753">
<ele>387.376</ele>
<time>2020-09-10T11:11:26Z</time>
</trkpt>
<trkpt lat="48.550762" lon="10.294812">
<ele>387.376</ele>
<time>2020-09-10T11:11:27Z</time>
</trkpt>
<trkpt lat="48.550762" lon="10.29487">
<ele>387.376</ele>
<time>2020-09-10T11:11:28Z</time>
</trkpt>
<trkpt lat="48.550762" lon="10.294931">
<ele>387.376</ele>
<time>2020-09-10T11:11:29Z</time>
</trkpt>
<trkpt lat="48.550758" lon="10.294998">
<ele>387.376</ele>
<time>2020-09-10T11:11:30Z</time>
</trkpt>
<trkpt lat="48.550758" lon="10.295072">
<ele>387.376</ele>
<time>2020-09-10T11:11:31Z</time>
</trkpt>
<trkpt lat="48.550755" lon="10.29515">
<ele>387.376</ele>
<time>2020-09-10T11:11:32Z</time>
</trkpt>
<trkpt lat="48.550751" lon="10.295229">
<ele>387.376</ele>
<time>2020-09-10T11:11:33Z</time>
</trkpt>
<trkpt lat="48.550732" lon="10.29531">
<ele>387.376</ele>
<time>2020-09-10T11:11:34Z</time>
</trkpt>
<trkpt lat="48.550724" lon="10.295397">
<ele>387.376</ele>
<time>2020-09-10T11:11:35Z</time>
</trkpt>
<trkpt lat="48.550713" lon="10.295486">
<ele>387.376</ele>
<time>2020-09-10T11:11:36Z</time>
</trkpt>
<trkpt lat="48.550709" lon="10.295573">
<ele>387.376</ele>
<time>2020-09-10T11:11:37Z</time>
</trkpt>
<trkpt lat="48.550701" lon="10.295663">
<ele>387.376</ele>
<time>2020-09-10T11:11:38Z</time>
</trkpt>
<trkpt lat="48.550697" lon="10.295753">
<ele>387.376</ele>
<time>2020-09-10T11:11:39Z</time>
</trkpt>
<trkpt lat="48.550697" lon="10.295843">
<ele>387.376</ele>
<time>2020-09-10T11:11:40Z</time>
</trkpt>
<trkpt lat="48.550697" lon="10.295935">
<ele>387.376</ele>
<time>2020-09-10T11:11:41Z</time>
</trkpt>
<trkpt lat="48.550709" lon="10.296027">
<ele>387.376</ele>
<time>2020-09-10T11:11:42Z</time>
</trkpt>
<trkpt lat="48.550724" lon="10.296117">
<ele>387.376</ele>
<time>2020-09-10T11:11:43Z</time>
</trkpt>
<trkpt lat="48.550735" lon="10.296207">
<ele>387.376</ele>
<time>2020-09-10T11:11:44Z</time>
</trkpt>
<trkpt lat="48.550747" lon="10.296295">
<ele>387.376</ele>
<time>2020-09-10T11:11:45Z</time>
</trkpt>
<trkpt lat="48.550762" lon="10.296381">
<ele>387.376</ele>
<time>2020-09-10T11:11:46Z</time>
</trkpt>
<trkpt lat="48.550781" lon="10.296467">
<ele>387.376</ele>
<time>2020-09-10T11:11:47Z</time>
</trkpt>
<trkpt lat="48.550804" lon="10.296547">
<ele>387.376</ele>
<time>2020-09-10T11:11:48Z</time>
</trkpt>
<trkpt lat="48.550827" lon="10.296622">
<ele>387.113</ele>
<time>2020-09-10T11:11:49Z</time>
</trkpt>
<trkpt lat="48.550858" lon="10.296695">
<ele>386.908</ele>
<time>2020-09-10T11:11:50Z</time>
</trkpt>
<trkpt lat="48.55088" lon="10.296763">
<ele>386.75</ele>
<time>2020-09-10T11:11:51Z</time>
</trkpt>
<trkpt lat="48.550903" lon="10.296832">
<ele>386.634</ele>
<time>2020-09-10T11:11:52Z</time>
</trkpt>
<trkpt lat="48.550926" lon="10.296897">
<ele>386.555</ele>
<time>2020-09-10T11:11:53Z</time>
</trkpt>
<trkpt lat="48.550945" lon="10.296964">
<ele>386.499</ele>
<time>2020-09-10T11:11:54Z</time>
</trkpt>
<trkpt lat="48.550957" lon="10.29703">
<ele>386.458</ele>
<time>2020-09-10T11:11:55Z</time>
</trkpt>
<trkpt lat="48.550968" lon="10.297096">
<ele>386.658</ele>
<time>2020-09-10T11:11:56Z</time>
</trkpt>
<trkpt lat="48.550972" lon="10.297163">
<ele>386.837</ele>
<time>2020-09-10T11:11:57Z</time>
</trkpt>
<trkpt lat="48.550968" lon="10.29723">
<ele>386.997</ele>
<time>2020-09-10T11:11:58Z</time>
</trkpt>
<trkpt lat="48.550957" lon="10.297297">
<ele>387.129</ele>
<time>2020-09-10T11:11:59Z</time>
</trkpt>
<trkpt lat="48.550941" lon="10.297361">
<ele>387.231</ele>
<time>2020-09-10T11:12:00Z</time>
</trkpt>
<trkpt lat="48.550926" lon="10.297433">
<ele>387.306</ele>
<time>2020-09-10T11:12:01Z</time>
</trkpt>
<trkpt lat="48.550915" lon="10.297504">
<ele>387.353</ele>
<time>2020-09-10T11:12:02Z</time>
</trkpt>
<trkpt lat="48.550907" lon="10.297582">
<ele>387.376</ele>
<time>2020-09-10T11:12:03Z</time>
</trkpt>
<trkpt lat="48.550907" lon="10.29766">
<ele>387.376</ele>
<time>2020-09-10T11:12:04Z</time>
</trkpt>
<trkpt lat="48.550903" lon="10.297739">
<ele>387.376</ele>
<time>2020-09-10T11:12:05Z</time>
</trkpt>
<trkpt lat="48.550892" lon="10.29782">
<ele>387.376</ele>
<time>2020-09-10T11:12:06Z</time>
</trkpt>
<trkpt lat="48.55088" lon="10.297896">
<ele>387.376</ele>
<time>2020-09-10T11:12:07Z</time>
</trkpt>
<trkpt lat="48.550865" lon="10.29797">
<ele>387.376</ele>
<time>2020-09-10T11:12:08Z</time>
</trkpt>
<trkpt lat="48.550858" lon="10.298043">
<ele>387.376</ele>
<time>2020-09-10T11:12:09Z</time>
</trkpt>
<trkpt lat="48.55085" lon="10.298119">
<ele>387.376</ele>
<time>2020-09-10T11:12:10Z</time>
</trkpt>
<trkpt lat="48.550846" lon="10.298191">
<ele>387.376</ele>
<time>2020-09-10T11:12:11Z</time>
</trkpt>
<trkpt lat="48.550842" lon="10.298266">
<ele>387.376</ele>
<time>2020-09-10T11:12:12Z</time>
</trkpt>
<trkpt lat="48.550838" lon="10.29834">
<ele>387.376</ele>
<time>2020-09-10T11:12:13Z</time>
</trkpt>
<trkpt lat="48.550835" lon="10.29842">
<ele>387.376</ele>
<time>2020-09-10T11:12:14Z</time>
</trkpt>
<trkpt lat="48.550835" lon="10.298498">
<ele>387.376</ele>
<time>2020-09-10T11:12:15Z</time>
</trkpt>
<trkpt lat="48.550838" lon="10.298581">
<ele>387.376</ele>
<time>2020-09-10T11:12:16Z</time>
</trkpt>
<trkpt lat="48.550846" lon="10.29867">
<ele>387.376</ele>
<time>2020-09-10T11:12:17Z</time>
</trkpt>
<trkpt lat="48.550854" lon="10.298761">
<ele>387.376</ele>
<time>2020-09-10T11:12:18Z</time>
</trkpt>
<trkpt lat="48.550861" lon="10.298857">
<ele>387.376</ele>
<time>2020-09-10T11:12:19Z</time>
</trkpt>
<trkpt lat="48.550861" lon="10.298954">
<ele>387.376</ele>
<time>2020-09-10T11:12:20Z</time>
</trkpt>
<trkpt lat="48.550861" lon="10.29905">
<ele>387.376</ele>
<time>2020-09-10T11:12:21Z</time>
</trkpt>
<trkpt lat="48.550858" lon="10.299145">
<ele>387.376</ele>
<time>2020-09-10T11:12:22Z</time>
</trkpt>
<trkpt lat="48.550854" lon="10.299236">
<ele>387.376</ele>
<time>2020-09-10T11:12:23Z</time>
</trkpt>
<trkpt lat="48.550842" lon="10.299329">
<ele>387.376</ele>
<time>2020-09-10T11:12:24Z</time>
</trkpt>
<trkpt lat="48.550831" lon="10.299417">
<ele>387.376</ele>
<time>2020-09-10T11:12:25Z</time>
</trkpt>
<trkpt lat="48.550823" lon="10.299503">
<ele>387.376</ele>
<time>2020-09-10T11:12:26Z</time>
</trkpt>
<trkpt lat="48.550812" lon="10.299586">
<ele>387.376</ele>
<time>2020-09-10T11:12:27Z</time>
</trkpt>
<trkpt lat="48.550804" lon="10.299666">
<ele>387.376</ele>
<time>2020-09-10T11:12:28Z</time>
</trkpt>
<trkpt lat="48.550793" lon="10.299744">
<ele>387.376</ele>
<time>2020-09-10T11:12:29Z</time>
</trkpt>
<trkpt lat="48.550777" lon="10.299822">
<ele>387.376</ele>
<time>2020-09-10T11:12:30Z</time>
</trkpt>
<trkpt lat="48.550762" lon="10.2999">
<ele>387.376</ele>
<time>2020-09-10T11:12:31Z</time>
</trkpt>
<trkpt lat="48.550743" lon="10.299978">
<ele>387.376</ele>
<time>2020-09-10T11:12:32Z</time>
</trkpt>
<trkpt lat="48.550735" lon="10.300058">
<ele>387.376</ele>
<time>2020-09-10T11:12:33Z</time>
</trkpt>
<trkpt lat="48.550728" lon="10.300138">
<ele>387.376</ele>
<time>2020-09-10T11:12:34Z</time>
</trkpt>
<trkpt lat="48.550713" lon="10.30022">
<ele>387.376</ele>
<time>2020-09-10T11:12:35Z</time>
</trkpt>
<trkpt lat="48.550697" lon="10.300303">
<ele>387.376</ele>
<time>2020-09-10T11:12:36Z</time>
</trkpt>
<trkpt lat="48.550678" lon="10.300385">
<ele>387.089</ele>
<time>2020-09-10T11:12:37Z</time>
</trkpt>
<trkpt lat="48.550663" lon="10.300465">
<ele>386.867</ele>
<time>2020-09-10T11:12:38Z</time>
</trkpt>
<trkpt lat="48.55064" lon="10.300542">
<ele>386.703</ele>
<time>2020-09-10T11:12:39Z</time>
</trkpt>
<trkpt lat="48.550617" lon="10.300615">
<ele>386.583</ele>
<time>2020-09-10T11:12:40Z</time>
</trkpt>
<trkpt lat="48.550594" lon="10.300683">
<ele>386.505</ele>
<time>2020-09-10T11:12:41Z</time>
</trkpt>
<trkpt lat="48.550568" lon="10.30075">
<ele>386.455</ele>
<time>2020-09-10T11:12:42Z</time>
</trkpt>
<trkpt lat="48.550533" lon="10.300818">
<ele>386.431</ele>
<time>2020-09-10T11:12:43Z</time>
</trkpt>
<trkpt lat="48.550514" lon="10.300886">
<ele>386.428</ele>
<time>2020-09-10T11:12:44Z</time>
</trkpt>
<trkpt lat="48.550495" lon="10.300955">
<ele>386.428</ele>
<time>2020-09-10T11:12:45Z</time>
</trkpt>
<trkpt lat="48.550476" lon="10.301025">
<ele>386.428</ele>
<time>2020-09-10T11:12:46Z</time>
</trkpt>
<trkpt lat="48.550457" lon="10.301093">
<ele>386.428</ele>
<time>2020-09-10T11:12:47Z</time>
</trkpt>
<trkpt lat="48.550438" lon="10.30116">
<ele>386.428</ele>
<time>2020-09-10T11:12:48Z</time>
</trkpt>
<trkpt lat="48.550415" lon="10.301229">
<ele>386.428</ele>
<time>2020-09-10T11:12:49Z</time>
</trkpt>
<trkpt lat="48.5504" lon="10.301296">
<ele>386.428</ele>
<time>2020-09-10T11:12:50Z</time>
</trkpt>
<trkpt lat="48.550381" lon="10.301361">
<ele>386.428</ele>
<time>2020-09-10T11:12:51Z</time>
</trkpt>
<trkpt lat="48.550373" lon="10.301424">
<ele>386.428</ele>
<time>2020-09-10T11:12:52Z</time>
</trkpt>
<trkpt lat="48.550377" lon="10.301481">
<ele>386.428</ele>
<time>2020-09-10T11:12:53Z</time>
</trkpt>
<trkpt lat="48.550392" lon="10.301535">
<ele>386.428</ele>
<time>2020-09-10T11:12:54Z</time>
</trkpt>
<trkpt lat="48.550423" lon="10.301583">
<ele>386.428</ele>
<time>2020-09-10T11:12:55Z</time>
</trkpt>
<trkpt lat="48.550465" lon="10.301628">
<ele>386.181</ele>
<time>2020-09-10T11:12:56Z</time>
</trkpt>
<trkpt lat="48.55051" lon="10.301682">
<ele>385.966</ele>
<time>2020-09-10T11:12:57Z</time>
</trkpt>
<trkpt lat="48.550549" lon="10.301753">
<ele>385.823</ele>
<time>2020-09-10T11:12:58Z</time>
</trkpt>
<trkpt lat="48.550568" lon="10.301837">
<ele>385.384</ele>
<time>2020-09-10T11:12:59Z</time>
</trkpt>
<trkpt lat="48.550568" lon="10.301925">
<ele>385.033</ele>
<time>2020-09-10T11:13:00Z</time>
</trkpt>
<trkpt lat="48.550549" lon="10.302005">
<ele>384.779</ele>
<time>2020-09-10T11:13:01Z</time>
</trkpt>
<trkpt lat="48.550514" lon="10.302075">
<ele>384.606</ele>
<time>2020-09-10T11:13:02Z</time>
</trkpt>
<trkpt lat="48.55048" lon="10.302135">
<ele>384.497</ele>
<time>2020-09-10T11:13:03Z</time>
</trkpt>
<trkpt lat="48.550446" lon="10.302197">
<ele>384.431</ele>
<time>2020-09-10T11:13:04Z</time>
</trkpt>
<trkpt lat="48.550411" lon="10.30226">
<ele>384.389</ele>
<time>2020-09-10T11:13:05Z</time>
</trkpt>
<trkpt lat="48.550377" lon="10.302325">
<ele>384.36</ele>
<time>2020-09-10T11:13:06Z</time>
</trkpt>
<trkpt lat="48.550346" lon="10.302392">
<ele>384.36</ele>
<time>2020-09-10T11:13:07Z</time>
</trkpt>
<trkpt lat="48.550316" lon="10.302455">
<ele>384.36</ele>
<time>2020-09-10T11:13:08Z</time>
</trkpt>
<trkpt lat="48.550285" lon="10.30252">
<ele>384.621</ele>
<time>2020-09-10T11:13:09Z</time>
</trkpt>
<trkpt lat="48.550262" lon="10.302587">
<ele>384.827</ele>
<time>2020-09-10T11:13:10Z</time>
</trkpt>
<trkpt lat="48.55024" lon="10.302656">
<ele>384.987</ele>
<time>2020-09-10T11:13:11Z</time>
</trkpt>
<trkpt lat="48.550213" lon="10.302732">
<ele>385.106</ele>
<time>2020-09-10T11:13:12Z</time>
</trkpt>
<trkpt lat="48.55019" lon="10.30281">
<ele>385.183</ele>
<time>2020-09-10T11:13:13Z</time>
</trkpt>
<trkpt lat="48.550171" lon="10.302887">
<ele>385.238</ele>
<time>2020-09-10T11:13:14Z</time>
</trkpt>
<trkpt lat="48.550144" lon="10.302963">
<ele>385.28</ele>
<time>2020-09-10T11:13:15Z</time>
</trkpt>
<trkpt lat="48.550129" lon="10.30304">
<ele>385.307</ele>
<time>2020-09-10T11:13:16Z</time>
</trkpt>
<trkpt lat="48.550114" lon="10.303123">
<ele>385.307</ele>
<time>2020-09-10T11:13:17Z</time>
</trkpt>
<trkpt lat="48.550098" lon="10.303206">
<ele>385.307</ele>
<time>2020-09-10T11:13:18Z</time>
</trkpt>
<trkpt lat="48.550083" lon="10.303293">
<ele>385.307</ele>
<time>2020-09-10T11:13:19Z</time>
</trkpt>
<trkpt lat="48.550068" lon="10.30338">
<ele>385.307</ele>
<time>2020-09-10T11:13:20Z</time>
</trkpt>
<trkpt lat="48.550053" lon="10.303469">
<ele>385.307</ele>
<time>2020-09-10T11:13:21Z</time>
</trkpt>
<trkpt lat="48.550045" lon="10.303555">
<ele>385.307</ele>
<time>2020-09-10T11:13:22Z</time>
</trkpt>
<trkpt lat="48.550045" lon="10.303641">
<ele>385.307</ele>
<time>2020-09-10T11:13:23Z</time>
</trkpt>
<trkpt lat="48.550041" lon="10.303725">
<ele>385.307</ele>
<time>2020-09-10T11:13:24Z</time>
</trkpt>
<trkpt lat="48.550037" lon="10.30381">
<ele>385.307</ele>
<time>2020-09-10T11:13:25Z</time>
</trkpt>
<trkpt lat="48.550037" lon="10.303892">
<ele>385.307</ele>
<time>2020-09-10T11:13:26Z</time>
</trkpt>
<trkpt lat="48.550037" lon="10.303968">
<ele>385.307</ele>
<time>2020-09-10T11:13:27Z</time>
</trkpt>
<trkpt lat="48.550041" lon="10.30404">
<ele>385.307</ele>
<time>2020-09-10T11:13:28Z</time>
</trkpt>
<trkpt lat="48.550041" lon="10.304114">
<ele>385.307</ele>
<time>2020-09-10T11:13:29Z</time>
</trkpt>
<trkpt lat="48.550045" lon="10.304187">
<ele>385.307</ele>
<time>2020-09-10T11:13:30Z</time>
</trkpt>
<trkpt lat="48.550041" lon="10.304253">
<ele>385.307</ele>
<time>2020-09-10T11:13:31Z</time>
</trkpt>
<trkpt lat="48.550026" lon="10.304316">
<ele>385.307</ele>
<time>2020-09-10T11:13:32Z</time>
</trkpt>
<trkpt lat="48.549999" lon="10.304359">
<ele>385.307</ele>
<time>2020-09-10T11:13:33Z</time>
</trkpt>
<trkpt lat="48.549965" lon="10.304387">
<ele>385.307</ele>
<time>2020-09-10T11:13:34Z</time>
</trkpt>
<trkpt lat="48.549919" lon="10.304403">
<ele>385.307</ele>
<time>2020-09-10T11:13:35Z</time>
</trkpt>
<trkpt lat="48.549877" lon="10.304416">
<ele>385.307</ele>
<time>2020-09-10T11:13:36Z</time>
</trkpt>
<trkpt lat="48.549831" lon="10.30442">
<ele>385.307</ele>
<time>2020-09-10T11:13:37Z</time>
</trkpt>
<trkpt lat="48.549786" lon="10.304424">
<ele>385.307</ele>
<time>2020-09-10T11:13:38Z</time>
</trkpt>
<trkpt lat="48.549747" lon="10.304421">
<ele>385.307</ele>
<time>2020-09-10T11:13:39Z</time>
</trkpt>
<trkpt lat="48.549709" lon="10.304416">
<ele>385.307</ele>
<time>2020-09-10T11:13:40Z</time>
</trkpt>
<trkpt lat="48.549675" lon="10.304403">
<ele>385.307</ele>
<time>2020-09-10T11:13:41Z</time>
</trkpt>
<trkpt lat="48.549637" lon="10.304383">
<ele>385.307</ele>
<time>2020-09-10T11:13:42Z</time>
</trkpt>
<trkpt lat="48.549603" lon="10.304372">
<ele>385.084</ele>
<time>2020-09-10T11:13:43Z</time>
</trkpt>
<trkpt lat="48.549568" lon="10.30437">
<ele>384.904</ele>
<time>2020-09-10T11:13:44Z</time>
</trkpt>
<trkpt lat="48.549545" lon="10.30439">
<ele>384.771</ele>
<time>2020-09-10T11:13:45Z</time>
</trkpt>
<trkpt lat="48.549522" lon="10.304424">
<ele>384.632</ele>
<time>2020-09-10T11:13:46Z</time>
</trkpt>
<trkpt lat="48.5495" lon="10.30447">
<ele>384.516</ele>
<time>2020-09-10T11:13:47Z</time>
</trkpt>
<trkpt lat="48.549484" lon="10.304521">
<ele>384.434</ele>
<time>2020-09-10T11:13:48Z</time>
</trkpt>
<trkpt lat="48.549469" lon="10.304575">
<ele>384.385</ele>
<time>2020-09-10T11:13:49Z</time>
</trkpt>
<trkpt lat="48.549458" lon="10.304633">
<ele>384.36</ele>
<time>2020-09-10T11:13:50Z</time>
</trkpt>
<trkpt lat="48.549461" lon="10.304697">
<ele>384.623</ele>
<time>2020-09-10T11:13:51Z</time>
</trkpt>
<trkpt lat="48.549461" lon="10.304757">
<ele>384.828</ele>
<time>2020-09-10T11:13:52Z</time>
</trkpt>
<trkpt lat="48.549461" lon="10.30482">
<ele>384.982</ele>
<time>2020-09-10T11:13:53Z</time>
</trkpt>
<trkpt lat="48.549461" lon="10.304883">
<ele>385.086</ele>
<time>2020-09-10T11:13:54Z</time>
</trkpt>
<trkpt lat="48.549461" lon="10.304948">
<ele>385.156</ele>
<time>2020-09-10T11:13:55Z</time>
</trkpt>
<trkpt lat="48.549461" lon="10.305017">
<ele>385.232</ele>
<time>2020-09-10T11:13:56Z</time>
</trkpt>
<trkpt lat="48.549465" lon="10.305086">
<ele>385.521</ele>
<time>2020-09-10T11:13:57Z</time>
</trkpt>
<trkpt lat="48.549469" lon="10.305155">
<ele>385.74</ele>
<time>2020-09-10T11:13:58Z</time>
</trkpt>
<trkpt lat="48.549473" lon="10.305223">
<ele>385.985</ele>
<time>2020-09-10T11:13:59Z</time>
</trkpt>
<trkpt lat="48.54948" lon="10.30529">
<ele>386.105</ele>
<time>2020-09-10T11:14:00Z</time>
</trkpt>
<trkpt lat="48.549484" lon="10.305359">
<ele>386.184</ele>
<time>2020-09-10T11:14:01Z</time>
</trkpt>
<trkpt lat="48.549492" lon="10.305431">
<ele>386.233</ele>
<time>2020-09-10T11:14:02Z</time>
</trkpt>
<trkpt lat="48.549488" lon="10.305501">
<ele>386.255</ele>
<time>2020-09-10T11:14:03Z</time>
</trkpt>
<trkpt lat="48.549492" lon="10.305573">
<ele>386.255</ele>
<time>2020-09-10T11:14:04Z</time>
</trkpt>
<trkpt lat="48.549503" lon="10.305652">
<ele>386.255</ele>
<time>2020-09-10T11:14:05Z</time>
</trkpt>
<trkpt lat="48.549511" lon="10.305732">
<ele>386.255</ele>
<time>2020-09-10T11:14:06Z</time>
</trkpt>
<trkpt lat="48.549522" lon="10.305812">
<ele>386.255</ele>
<time>2020-09-10T11:14:07Z</time>
</trkpt>
<trkpt lat="48.549534" lon="10.30589">
<ele>386.255</ele>
<time>2020-09-10T11:14:08Z</time>
</trkpt>
<trkpt lat="48.549553" lon="10.305972">
<ele>386.255</ele>
<time>2020-09-10T11:14:09Z</time>
</trkpt>
<trkpt lat="48.549561" lon="10.306052">
<ele>386.255</ele>
<time>2020-09-10T11:14:10Z</time>
</trkpt>
<trkpt lat="48.549568" lon="10.306128">
<ele>385.999</ele>
<time>2020-09-10T11:14:11Z</time>
</trkpt>
<trkpt lat="48.549583" lon="10.306205">
<ele>385.804</ele>
<time>2020-09-10T11:14:12Z</time>
</trkpt>
<trkpt lat="48.549587" lon="10.306282">
<ele>385.66</ele>
<time>2020-09-10T11:14:13Z</time>
</trkpt>
<trkpt lat="48.549595" lon="10.306362">
<ele>385.546</ele>
<time>2020-09-10T11:14:14Z</time>
</trkpt>
<trkpt lat="48.549599" lon="10.30644">
<ele>385.467</ele>
<time>2020-09-10T11:14:15Z</time>
</trkpt>
<trkpt lat="48.549599" lon="10.306517">
<ele>385.386</ele>
<time>2020-09-10T11:14:16Z</time>
</trkpt>
<trkpt lat="48.549595" lon="10.306592">
<ele>385.334</ele>
<time>2020-09-10T11:14:17Z</time>
</trkpt>
<trkpt lat="48.549576" lon="10.30666">
<ele>385.307</ele>
<time>2020-09-10T11:14:18Z</time>
</trkpt>
<trkpt lat="48.549549" lon="10.306719">
<ele>385.307</ele>
<time>2020-09-10T11:14:19Z</time>
</trkpt>
<trkpt lat="48.549507" lon="10.306763">
<ele>385.307</ele>
<time>2020-09-10T11:14:20Z</time>
</trkpt>
<trkpt lat="48.549469" lon="10.3068">
<ele>385.307</ele>
<time>2020-09-10T11:14:21Z</time>
</trkpt>
<trkpt lat="48.549427" lon="10.306825">
<ele>385.307</ele>
<time>2020-09-10T11:14:22Z</time>
</trkpt>
<trkpt lat="48.549385" lon="10.306847">
<ele>385.307</ele>
<time>2020-09-10T11:14:23Z</time>
</trkpt>
<trkpt lat="48.549343" lon="10.306863">
<ele>385.511</ele>
<time>2020-09-10T11:14:24Z</time>
</trkpt>
<trkpt lat="48.549297" lon="10.306877">
<ele>385.661</ele>
<time>2020-09-10T11:14:25Z</time>
</trkpt>
<trkpt lat="48.549263" lon="10.306887">
<ele>385.803</ele>
<time>2020-09-10T11:14:26Z</time>
</trkpt>
<trkpt lat="48.549221" lon="10.3069">
<ele>386.15</ele>
<time>2020-09-10T11:14:27Z</time>
</trkpt>
<trkpt lat="48.549183" lon="10.306917">
<ele>386.438</ele>
<time>2020-09-10T11:14:28Z</time>
</trkpt>
<trkpt lat="48.549149" lon="10.306934">
<ele>386.67</ele>
<time>2020-09-10T11:14:29Z</time>
</trkpt>
<trkpt lat="48.549114" lon="10.306962">
<ele>386.847</ele>
<time>2020-09-10T11:14:30Z</time>
</trkpt>
<trkpt lat="48.549088" lon="10.306997">
<ele>386.97</ele>
<time>2020-09-10T11:14:31Z</time>
</trkpt>
<trkpt lat="48.549068" lon="10.30705">
<ele>387.087</ele>
<time>2020-09-10T11:14:32Z</time>
</trkpt>
<trkpt lat="48.549053" lon="10.30711">
<ele>387.117</ele>
<time>2020-09-10T11:14:33Z</time>
</trkpt>
<trkpt lat="48.549042" lon="10.307171">
<ele>387.117</ele>
<time>2020-09-10T11:14:34Z</time>
</trkpt>
<trkpt lat="48.549042" lon="10.307234">
<ele>387.117</ele>
<time>2020-09-10T11:14:35Z</time>
</trkpt>
<trkpt lat="48.549038" lon="10.307297">
<ele>387.117</ele>
<time>2020-09-10T11:14:36Z</time>
</trkpt>
<trkpt lat="48.549034" lon="10.30736">
<ele>387.117</ele>
<time>2020-09-10T11:14:37Z</time>
</trkpt>
<trkpt lat="48.54903" lon="10.30743">
<ele>387.117</ele>
<time>2020-09-10T11:14:38Z</time>
</trkpt>
<trkpt lat="48.549023" lon="10.3075">
<ele>387.117</ele>
<time>2020-09-10T11:14:39Z</time>
</trkpt>
<trkpt lat="48.549023" lon="10.307573">
<ele>387.117</ele>
<time>2020-09-10T11:14:40Z</time>
</trkpt>
<trkpt lat="48.549023" lon="10.307645">
<ele>387.117</ele>
<time>2020-09-10T11:14:41Z</time>
</trkpt>
<trkpt lat="48.549023" lon="10.307715">
<ele>387.117</ele>
<time>2020-09-10T11:14:42Z</time>
</trkpt>
<trkpt lat="48.549019" lon="10.307787">
<ele>387.117</ele>
<time>2020-09-10T11:14:43Z</time>
</trkpt>
<trkpt lat="48.549019" lon="10.307857">
<ele>387.117</ele>
<time>2020-09-10T11:14:44Z</time>
</trkpt>
<trkpt lat="48.549011" lon="10.307925">
<ele>386.905</ele>
<time>2020-09-10T11:14:45Z</time>
</trkpt>
<trkpt lat="48.549004" lon="10.307988">
<ele>386.71</ele>
<time>2020-09-10T11:14:46Z</time>
</trkpt>
<trkpt lat="48.549011" lon="10.308042">
<ele>386.55</ele>
<time>2020-09-10T11:14:47Z</time>
</trkpt>
<trkpt lat="48.549004" lon="10.30808">
<ele>386.423</ele>
<time>2020-09-10T11:14:48Z</time>
</trkpt>
<trkpt lat="48.549" lon="10.308116">
<ele>386.322</ele>
<time>2020-09-10T11:14:49Z</time>
</trkpt>
<trkpt lat="48.548988" lon="10.308162">
<ele>386.247</ele>
<time>2020-09-10T11:14:50Z</time>
</trkpt>
<trkpt lat="48.548977" lon="10.308215">
<ele>386.196</ele>
<time>2020-09-10T11:14:51Z</time>
</trkpt>
<trkpt lat="48.548969" lon="10.308277">
<ele>386.169</ele>
<time>2020-09-10T11:14:52Z</time>
</trkpt>
<trkpt lat="48.548958" lon="10.308342">
<ele>385.955</ele>
<time>2020-09-10T11:14:53Z</time>
</trkpt>
<trkpt lat="48.548939" lon="10.308414">
<ele>385.769</ele>
<time>2020-09-10T11:14:54Z</time>
</trkpt>
<trkpt lat="48.548923" lon="10.308491">
<ele>385.64</ele>
<time>2020-09-10T11:14:55Z</time>
</trkpt>
<trkpt lat="48.548904" lon="10.308564">
<ele>385.498</ele>
<time>2020-09-10T11:14:56Z</time>
</trkpt>
<trkpt lat="48.548885" lon="10.308641">
<ele>385.412</ele>
<time>2020-09-10T11:14:57Z</time>
</trkpt>
<trkpt lat="48.548866" lon="10.308722">
<ele>385.359</ele>
<time>2020-09-10T11:14:58Z</time>
</trkpt>
<trkpt lat="48.548847" lon="10.308801">
<ele>385.324</ele>
<time>2020-09-10T11:14:59Z</time>
</trkpt>
<trkpt lat="48.548832" lon="10.308882">
<ele>385.307</ele>
<time>2020-09-10T11:15:00Z</time>
</trkpt>
<trkpt lat="48.548817" lon="10.308965">
<ele>385.05</ele>
<time>2020-09-10T11:15:01Z</time>
</trkpt>
<trkpt lat="48.548805" lon="10.309047">
<ele>384.856</ele>
<time>2020-09-10T11:15:02Z</time>
</trkpt>
<trkpt lat="48.54879" lon="10.309127">
<ele>384.708</ele>
<time>2020-09-10T11:15:03Z</time>
</trkpt>
<trkpt lat="48.548775" lon="10.309207">
<ele>384.594</ele>
<time>2020-09-10T11:15:04Z</time>
</trkpt>
<trkpt lat="48.548759" lon="10.309289">
<ele>384.516</ele>
<time>2020-09-10T11:15:05Z</time>
</trkpt>
<trkpt lat="48.548744" lon="10.30937">
<ele>384.437</ele>
<time>2020-09-10T11:15:06Z</time>
</trkpt>
<trkpt lat="48.548729" lon="10.30945">
<ele>384.384</ele>
<time>2020-09-10T11:15:07Z</time>
</trkpt>
<trkpt lat="48.54871" lon="10.309528">
<ele>384.36</ele>
<time>2020-09-10T11:15:08Z</time>
</trkpt>
<trkpt lat="48.548695" lon="10.309604">
<ele>384.36</ele>
<time>2020-09-10T11:15:09Z</time>
</trkpt>
<trkpt lat="48.548676" lon="10.309677">
<ele>384.36</ele>
<time>2020-09-10T11:15:10Z</time>
</trkpt>
<trkpt lat="48.54866" lon="10.309746">
<ele>384.36</ele>
<time>2020-09-10T11:15:11Z</time>
</trkpt>
<trkpt lat="48.548645" lon="10.309817">
<ele>384.122</ele>
<time>2020-09-10T11:15:12Z</time>
</trkpt>
<trkpt lat="48.548626" lon="10.309882">
<ele>383.935</ele>
<time>2020-09-10T11:15:13Z</time>
</trkpt>
<trkpt lat="48.548607" lon="10.309949">
<ele>383.788</ele>
<time>2020-09-10T11:15:14Z</time>
</trkpt>
<trkpt lat="48.548588" lon="10.310019">
<ele>383.685</ele>
<time>2020-09-10T11:15:15Z</time>
</trkpt>
<trkpt lat="48.548569" lon="10.310081">
<ele>383.573</ele>
<time>2020-09-10T11:15:16Z</time>
</trkpt>
<trkpt lat="48.54855" lon="10.310142">
<ele>383.49</ele>
<time>2020-09-10T11:15:17Z</time>
</trkpt>
<trkpt lat="48.548538" lon="10.310208">
<ele>383.437</ele>
<time>2020-09-10T11:15:18Z</time>
</trkpt>
<trkpt lat="48.548519" lon="10.310276">
<ele>383.412</ele>
<time>2020-09-10T11:15:19Z</time>
</trkpt>
<trkpt lat="48.548508" lon="10.310347">
<ele>383.412</ele>
<time>2020-09-10T11:15:20Z</time>
</trkpt>
<trkpt lat="48.548489" lon="10.310418">
<ele>383.412</ele>
<time>2020-09-10T11:15:21Z</time>
</trkpt>
<trkpt lat="48.548473" lon="10.310492">
<ele>383.412</ele>
<time>2020-09-10T11:15:22Z</time>
</trkpt>
<trkpt lat="48.54845" lon="10.310565">
<ele>383.412</ele>
<time>2020-09-10T11:15:23Z</time>
</trkpt>
<trkpt lat="48.548439" lon="10.31064">
<ele>383.412</ele>
<time>2020-09-10T11:15:24Z</time>
</trkpt>
<trkpt lat="48.548424" lon="10.310714">
<ele>383.412</ele>
<time>2020-09-10T11:15:25Z</time>
</trkpt>
<trkpt lat="48.548405" lon="10.310789">
<ele>383.412</ele>
<time>2020-09-10T11:15:26Z</time>
</trkpt>
<trkpt lat="48.548386" lon="10.310861">
<ele>383.412</ele>
<time>2020-09-10T11:15:27Z</time>
</trkpt>
<trkpt lat="48.548367" lon="10.310933">
<ele>383.412</ele>
<time>2020-09-10T11:15:28Z</time>
</trkpt>
<trkpt lat="48.548351" lon="10.311007">
<ele>383.412</ele>
<time>2020-09-10T11:15:29Z</time>
</trkpt>
<trkpt lat="48.548332" lon="10.311083">
<ele>383.412</ele>
<time>2020-09-10T11:15:30Z</time>
</trkpt>
<trkpt lat="48.548317" lon="10.311156">
<ele>383.412</ele>
<time>2020-09-10T11:15:31Z</time>
</trkpt>
<trkpt lat="48.548302" lon="10.311229">
<ele>383.412</ele>
<time>2020-09-10T11:15:32Z</time>
</trkpt>
<trkpt lat="48.548283" lon="10.3113">
<ele>383.412</ele>
<time>2020-09-10T11:15:33Z</time>
</trkpt>
<trkpt lat="48.548267" lon="10.31137">
<ele>383.412</ele>
<time>2020-09-10T11:15:34Z</time>
</trkpt>
<trkpt lat="48.548252" lon="10.311443">
<ele>383.412</ele>
<time>2020-09-10T11:15:35Z</time>
</trkpt>
<trkpt lat="48.548237" lon="10.311519">
<ele>383.412</ele>
<time>2020-09-10T11:15:36Z</time>
</trkpt>
<trkpt lat="48.548218" lon="10.311593">
<ele>383.412</ele>
<time>2020-09-10T11:15:37Z</time>
</trkpt>
<trkpt lat="48.548199" lon="10.311665">
<ele>383.412</ele>
<time>2020-09-10T11:15:38Z</time>
</trkpt>
<trkpt lat="48.54818" lon="10.311736">
<ele>383.68</ele>
<time>2020-09-10T11:15:39Z</time>
</trkpt>
<trkpt lat="48.548161" lon="10.311805">
<ele>383.887</ele>
<time>2020-09-10T11:15:40Z</time>
</trkpt>
<trkpt lat="48.548141" lon="10.311869">
<ele>384.041</ele>
<time>2020-09-10T11:15:41Z</time>
</trkpt>
<trkpt lat="48.548122" lon="10.311927">
<ele>384.156</ele>
<time>2020-09-10T11:15:42Z</time>
</trkpt>
<trkpt lat="48.5481" lon="10.311985">
<ele>384.235</ele>
<time>2020-09-10T11:15:43Z</time>
</trkpt>
<trkpt lat="48.548088" lon="10.312042">
<ele>384.289</ele>
<time>2020-09-10T11:15:44Z</time>
</trkpt>
<trkpt lat="48.548077" lon="10.312099">
<ele>384.331</ele>
<time>2020-09-10T11:15:45Z</time>
</trkpt>
<trkpt lat="48.548069" lon="10.312157">
<ele>384.36</ele>
<time>2020-09-10T11:15:46Z</time>
</trkpt>
<trkpt lat="48.548077" lon="10.31222">
<ele>384.36</ele>
<time>2020-09-10T11:15:47Z</time>
</trkpt>
<trkpt lat="48.548084" lon="10.312288">
<ele>384.36</ele>
<time>2020-09-10T11:15:48Z</time>
</trkpt>
<trkpt lat="48.548084" lon="10.31236">
<ele>384.36</ele>
<time>2020-09-10T11:15:49Z</time>
</trkpt>
<trkpt lat="48.54808" lon="10.312431">
<ele>384.36</ele>
<time>2020-09-10T11:15:50Z</time>
</trkpt>
<trkpt lat="48.54808" lon="10.312503">
<ele>384.36</ele>
<time>2020-09-10T11:15:51Z</time>
</trkpt>
<trkpt lat="48.548084" lon="10.312574">
<ele>384.36</ele>
<time>2020-09-10T11:15:52Z</time>
</trkpt>
<trkpt lat="48.548084" lon="10.312643">
<ele>384.36</ele>
<time>2020-09-10T11:15:53Z</time>
</trkpt>
<trkpt lat="48.548073" lon="10.312705">
<ele>384.36</ele>
<time>2020-09-10T11:15:54Z</time>
</trkpt>
<trkpt lat="48.548058" lon="10.312769">
<ele>384.36</ele>
<time>2020-09-10T11:15:55Z</time>
</trkpt>
<trkpt lat="48.548035" lon="10.312828">
<ele>384.36</ele>
<time>2020-09-10T11:15:56Z</time>
</trkpt>
<trkpt lat="48.548008" lon="10.312892">
<ele>384.36</ele>
<time>2020-09-10T11:15:57Z</time>
</trkpt>
<trkpt lat="48.547989" lon="10.312951">
<ele>384.36</ele>
<time>2020-09-10T11:15:58Z</time>
</trkpt>
<trkpt lat="48.547966" lon="10.313004">
<ele>384.36</ele>
<time>2020-09-10T11:15:59Z</time>
</trkpt>
<trkpt lat="48.547951" lon="10.313054">
<ele>384.36</ele>
<time>2020-09-10T11:16:00Z</time>
</trkpt>
<trkpt lat="48.547924" lon="10.313104">
<ele>384.36</ele>
<time>2020-09-10T11:16:01Z</time>
</trkpt>
<trkpt lat="48.547886" lon="10.313145">
<ele>384.36</ele>
<time>2020-09-10T11:16:02Z</time>
</trkpt>
<trkpt lat="48.547852" lon="10.313175">
<ele>384.36</ele>
<time>2020-09-10T11:16:03Z</time>
</trkpt>
<trkpt lat="48.54781" lon="10.31321">
<ele>384.608</ele>
<time>2020-09-10T11:16:04Z</time>
</trkpt>
<trkpt lat="48.547775" lon="10.313249">
<ele>384.785</ele>
<time>2020-09-10T11:16:05Z</time>
</trkpt>
<trkpt lat="48.547745" lon="10.313291">
<ele>384.977</ele>
<time>2020-09-10T11:16:06Z</time>
</trkpt>
<trkpt lat="48.54771" lon="10.313327">
<ele>385.13</ele>
<time>2020-09-10T11:16:07Z</time>
</trkpt>
<trkpt lat="48.547676" lon="10.313358">
<ele>385.239</ele>
<time>2020-09-10T11:16:08Z</time>
</trkpt>
<trkpt lat="48.547646" lon="10.31339">
<ele>385.315</ele>
<time>2020-09-10T11:16:09Z</time>
</trkpt>
<trkpt lat="48.547619" lon="10.313427">
<ele>385.367</ele>
<time>2020-09-10T11:16:10Z</time>
</trkpt>
<trkpt lat="48.547592" lon="10.313469">
<ele>385.394</ele>
<time>2020-09-10T11:16:11Z</time>
</trkpt>
<trkpt lat="48.547569" lon="10.313505">
<ele>385.394</ele>
<time>2020-09-10T11:16:12Z</time>
</trkpt>
<trkpt lat="48.54755" lon="10.313557">
<ele>385.394</ele>
<time>2020-09-10T11:16:13Z</time>
</trkpt>
<trkpt lat="48.547535" lon="10.313613">
<ele>385.394</ele>
<time>2020-09-10T11:16:14Z</time>
</trkpt>
<trkpt lat="48.547531" lon="10.31367">
<ele>385.621</ele>
<time>2020-09-10T11:16:15Z</time>
</trkpt>
<trkpt lat="48.547527" lon="10.313733">
<ele>385.843</ele>
<time>2020-09-10T11:16:16Z</time>
</trkpt>
<trkpt lat="48.547527" lon="10.313804">
<ele>386.031</ele>
<time>2020-09-10T11:16:17Z</time>
</trkpt>
<trkpt lat="48.547531" lon="10.313873">
<ele>386.176</ele>
<time>2020-09-10T11:16:18Z</time>
</trkpt>
<trkpt lat="48.547531" lon="10.313943">
<ele>386.282</ele>
<time>2020-09-10T11:16:19Z</time>
</trkpt>
<trkpt lat="48.547535" lon="10.314016">
<ele>386.362</ele>
<time>2020-09-10T11:16:20Z</time>
</trkpt>
<trkpt lat="48.547535" lon="10.314092">
<ele>386.405</ele>
<time>2020-09-10T11:16:21Z</time>
</trkpt>
<trkpt lat="48.547535" lon="10.314165">
<ele>386.428</ele>
<time>2020-09-10T11:16:22Z</time>
</trkpt>
<trkpt lat="48.547535" lon="10.314241">
<ele>386.428</ele>
<time>2020-09-10T11:16:23Z</time>
</trkpt>
<trkpt lat="48.547531" lon="10.314315">
<ele>386.428</ele>
<time>2020-09-10T11:16:24Z</time>
</trkpt>
<trkpt lat="48.547531" lon="10.314388">
<ele>386.428</ele>
<time>2020-09-10T11:16:25Z</time>
</trkpt>
<trkpt lat="48.547523" lon="10.314462">
<ele>386.428</ele>
<time>2020-09-10T11:16:26Z</time>
</trkpt>
<trkpt lat="48.54752" lon="10.314533">
<ele>386.428</ele>
<time>2020-09-10T11:16:27Z</time>
</trkpt>
<trkpt lat="48.547504" lon="10.3146">
<ele>386.428</ele>
<time>2020-09-10T11:16:28Z</time>
</trkpt>
<trkpt lat="48.547501" lon="10.314667">
<ele>386.428</ele>
<time>2020-09-10T11:16:29Z</time>
</trkpt>
<trkpt lat="48.547485" lon="10.31473">
<ele>386.428</ele>
<time>2020-09-10T11:16:30Z</time>
</trkpt>
<trkpt lat="48.547459" lon="10.314787">
<ele>386.428</ele>
<time>2020-09-10T11:16:31Z</time>
</trkpt>
<trkpt lat="48.547424" lon="10.31484">
<ele>386.428</ele>
<time>2020-09-10T11:16:32Z</time>
</trkpt>
<trkpt lat="48.547398" lon="10.314897">
<ele>386.428</ele>
<time>2020-09-10T11:16:33Z</time>
</trkpt>
<trkpt lat="48.547363" lon="10.314952">
<ele>386.428</ele>
<time>2020-09-10T11:16:34Z</time>
</trkpt>
<trkpt lat="48.547337" lon="10.315004">
<ele>386.428</ele>
<time>2020-09-10T11:16:35Z</time>
</trkpt>
<trkpt lat="48.547306" lon="10.315055">
<ele>386.428</ele>
<time>2020-09-10T11:16:36Z</time>
</trkpt>
<trkpt lat="48.547276" lon="10.315109">
<ele>386.428</ele>
<time>2020-09-10T11:16:37Z</time>
</trkpt>
<trkpt lat="48.547256" lon="10.315166">
<ele>386.428</ele>
<time>2020-09-10T11:16:38Z</time>
</trkpt>
<trkpt lat="48.547241" lon="10.315231">
<ele>386.428</ele>
<time>2020-09-10T11:16:39Z</time>
</trkpt>
<trkpt lat="48.547226" lon="10.315309">
<ele>386.428</ele>
<time>2020-09-10T11:16:40Z</time>
</trkpt>
<trkpt lat="48.547211" lon="10.315392">
<ele>386.428</ele>
<time>2020-09-10T11:16:41Z</time>
</trkpt>
<trkpt lat="48.547203" lon="10.315476">
<ele>386.428</ele>
<time>2020-09-10T11:16:42Z</time>
</trkpt>
<trkpt lat="48.547195" lon="10.315558">
<ele>386.428</ele>
<time>2020-09-10T11:16:43Z</time>
</trkpt>
<trkpt lat="48.547192" lon="10.315629">
<ele>386.428</ele>
<time>2020-09-10T11:16:44Z</time>
</trkpt>
<trkpt lat="48.547192" lon="10.315687">
<ele>386.428</ele>
<time>2020-09-10T11:16:45Z</time>
</trkpt>
<trkpt lat="48.547192" lon="10.315743">
<ele>386.428</ele>
<time>2020-09-10T11:16:46Z</time>
</trkpt>
<trkpt lat="48.547192" lon="10.315804">
<ele>386.428</ele>
<time>2020-09-10T11:16:47Z</time>
</trkpt>
<trkpt lat="48.547192" lon="10.315862">
<ele>386.428</ele>
<time>2020-09-10T11:16:48Z</time>
</trkpt>
<trkpt lat="48.54718" lon="10.315925">
<ele>386.428</ele>
<time>2020-09-10T11:16:49Z</time>
</trkpt>
<trkpt lat="48.54718" lon="10.315989">
<ele>386.428</ele>
<time>2020-09-10T11:16:50Z</time>
</trkpt>
<trkpt lat="48.547199" lon="10.316062">
<ele>386.181</ele>
<time>2020-09-10T11:16:51Z</time>
</trkpt>
<trkpt lat="48.547203" lon="10.316125">
<ele>385.973</ele>
<time>2020-09-10T11:16:52Z</time>
</trkpt>
<trkpt lat="48.547207" lon="10.316193">
<ele>385.817</ele>
<time>2020-09-10T11:16:53Z</time>
</trkpt>
<trkpt lat="48.547207" lon="10.316258">
<ele>385.703</ele>
<time>2020-09-10T11:16:54Z</time>
</trkpt>
<trkpt lat="48.547203" lon="10.316328">
<ele>385.629</ele>
<time>2020-09-10T11:16:55Z</time>
</trkpt>
<trkpt lat="48.547215" lon="10.3164">
<ele>385.551</ele>
<time>2020-09-10T11:16:56Z</time>
</trkpt>
<trkpt lat="48.547211" lon="10.316461">
<ele>385.504</ele>
<time>2020-09-10T11:16:57Z</time>
</trkpt>
<trkpt lat="48.547241" lon="10.316524">
<ele>385.48</ele>
<time>2020-09-10T11:16:58Z</time>
</trkpt>
<trkpt lat="48.547253" lon="10.316599">
<ele>385.48</ele>
<time>2020-09-10T11:16:59Z</time>
</trkpt>
<trkpt lat="48.547256" lon="10.31668">
<ele>385.214</ele>
<time>2020-09-10T11:17:00Z</time>
</trkpt>
<trkpt lat="48.547256" lon="10.316763">
<ele>385.007</ele>
<time>2020-09-10T11:17:01Z</time>
</trkpt>
<trkpt lat="48.547253" lon="10.316853">
<ele>384.849</ele>
<time>2020-09-10T11:17:02Z</time>
</trkpt>
<trkpt lat="48.547253" lon="10.316938">
<ele>384.738</ele>
<time>2020-09-10T11:17:03Z</time>
</trkpt>
<trkpt lat="48.547253" lon="10.317032">
<ele>384.659</ele>
<time>2020-09-10T11:17:04Z</time>
</trkpt>
<trkpt lat="48.547253" lon="10.317131">
<ele>384.6</ele>
<time>2020-09-10T11:17:05Z</time>
</trkpt>
<trkpt lat="48.547253" lon="10.317228">
<ele>384.556</ele>
<time>2020-09-10T11:17:06Z</time>
</trkpt>
<trkpt lat="48.547256" lon="10.317327">
<ele>384.532</ele>
<time>2020-09-10T11:17:07Z</time>
</trkpt>
<trkpt lat="48.547264" lon="10.317415">
<ele>384.532</ele>
<time>2020-09-10T11:17:08Z</time>
</trkpt>
<trkpt lat="48.547272" lon="10.317497">
<ele>384.532</ele>
<time>2020-09-10T11:17:09Z</time>
</trkpt>
<trkpt lat="48.547279" lon="10.317572">
<ele>384.532</ele>
<time>2020-09-10T11:17:10Z</time>
</trkpt>
<trkpt lat="48.547283" lon="10.317647">
<ele>384.532</ele>
<time>2020-09-10T11:17:11Z</time>
</trkpt>
<trkpt lat="48.547283" lon="10.317716">
<ele>384.532</ele>
<time>2020-09-10T11:17:12Z</time>
</trkpt>
<trkpt lat="48.547283" lon="10.317775">
<ele>384.532</ele>
<time>2020-09-10T11:17:13Z</time>
</trkpt>
<trkpt lat="48.547283" lon="10.317837">
<ele>384.532</ele>
<time>2020-09-10T11:17:14Z</time>
</trkpt>
<trkpt lat="48.547283" lon="10.317893">
<ele>384.337</ele>
<time>2020-09-10T11:17:15Z</time>
</trkpt>
<trkpt lat="48.547306" lon="10.317946">
<ele>384.147</ele>
<time>2020-09-10T11:17:16Z</time>
</trkpt>
<trkpt lat="48.547318" lon="10.318">
<ele>383.983</ele>
<time>2020-09-10T11:17:17Z</time>
</trkpt>
<trkpt lat="48.547329" lon="10.318055">
<ele>383.847</ele>
<time>2020-09-10T11:17:18Z</time>
</trkpt>
<trkpt lat="48.54734" lon="10.31811">
<ele>383.74</ele>
<time>2020-09-10T11:17:19Z</time>
</trkpt>
<trkpt lat="48.547363" lon="10.318158">
<ele>383.658</ele>
<time>2020-09-10T11:17:20Z</time>
</trkpt>
<trkpt lat="48.547394" lon="10.318204">
<ele>383.607</ele>
<time>2020-09-10T11:17:21Z</time>
</trkpt>
<trkpt lat="48.547424" lon="10.318245">
<ele>383.584</ele>
<time>2020-09-10T11:17:22Z</time>
</trkpt>
<trkpt lat="48.547455" lon="10.31829">
<ele>383.584</ele>
<time>2020-09-10T11:17:23Z</time>
</trkpt>
<trkpt lat="48.547482" lon="10.318336">
<ele>383.584</ele>
<time>2020-09-10T11:17:24Z</time>
</trkpt>
<trkpt lat="48.547512" lon="10.318379">
<ele>383.584</ele>
<time>2020-09-10T11:17:25Z</time>
</trkpt>
<trkpt lat="48.547539" lon="10.318415">
<ele>383.584</ele>
<time>2020-09-10T11:17:26Z</time>
</trkpt>
<trkpt lat="48.547554" lon="10.318447">
<ele>383.584</ele>
<time>2020-09-10T11:17:27Z</time>
</trkpt>
<trkpt lat="48.547562" lon="10.318484">
<ele>383.584</ele>
<time>2020-09-10T11:17:28Z</time>
</trkpt>
<trkpt lat="48.547562" lon="10.318535">
<ele>383.584</ele>
<time>2020-09-10T11:17:29Z</time>
</trkpt>
<trkpt lat="48.547554" lon="10.318573">
<ele>383.584</ele>
<time>2020-09-10T11:17:30Z</time>
</trkpt>
<trkpt lat="48.547535" lon="10.31861">
<ele>383.584</ele>
<time>2020-09-10T11:17:31Z</time>
</trkpt>
<trkpt lat="48.54752" lon="10.318645">
<ele>383.584</ele>
<time>2020-09-10T11:17:32Z</time>
</trkpt>
<trkpt lat="48.547489" lon="10.3187">
<ele>383.584</ele>
<time>2020-09-10T11:17:33Z</time>
</trkpt>
<trkpt lat="48.547455" lon="10.318759">
<ele>383.584</ele>
<time>2020-09-10T11:17:34Z</time>
</trkpt>
<trkpt lat="48.547417" lon="10.31882">
<ele>383.584</ele>
<time>2020-09-10T11:17:35Z</time>
</trkpt>
<trkpt lat="48.54739" lon="10.318878">
<ele>383.313</ele>
<time>2020-09-10T11:17:36Z</time>
</trkpt>
<trkpt lat="48.547352" lon="10.318958">
<ele>383.104</ele>
<time>2020-09-10T11:17:37Z</time>
</trkpt>
<trkpt lat="48.547321" lon="10.319043">
<ele>382.936</ele>
<time>2020-09-10T11:17:38Z</time>
</trkpt>
<trkpt lat="48.547283" lon="10.319121">
<ele>382.825</ele>
<time>2020-09-10T11:17:39Z</time>
</trkpt>
<trkpt lat="48.547249" lon="10.319195">
<ele>382.745</ele>
<time>2020-09-10T11:17:40Z</time>
</trkpt>
<trkpt lat="48.547215" lon="10.319268">
<ele>382.708</ele>
<time>2020-09-10T11:17:41Z</time>
</trkpt>
<trkpt lat="48.547173" lon="10.319356">
<ele>382.418</ele>
<time>2020-09-10T11:17:42Z</time>
</trkpt>
<trkpt lat="48.547119" lon="10.319447">
<ele>382.195</ele>
<time>2020-09-10T11:17:43Z</time>
</trkpt>
<trkpt lat="48.547077" lon="10.319533">
<ele>382.035</ele>
<time>2020-09-10T11:17:44Z</time>
</trkpt>
<trkpt lat="48.547035" lon="10.319622">
<ele>381.948</ele>
<time>2020-09-10T11:17:45Z</time>
</trkpt>
<trkpt lat="48.546993" lon="10.319705">
<ele>381.838</ele>
<time>2020-09-10T11:17:46Z</time>
</trkpt>
<trkpt lat="48.546955" lon="10.319788">
<ele>381.758</ele>
<time>2020-09-10T11:17:47Z</time>
</trkpt>
<trkpt lat="48.546928" lon="10.319859">
<ele>381.711</ele>
<time>2020-09-10T11:17:48Z</time>
</trkpt>
<trkpt lat="48.546909" lon="10.319926">
<ele>381.689</ele>
<time>2020-09-10T11:17:49Z</time>
</trkpt>
<trkpt lat="48.546883" lon="10.32">
<ele>381.689</ele>
<time>2020-09-10T11:17:50Z</time>
</trkpt>
<trkpt lat="48.546856" lon="10.320079">
<ele>381.689</ele>
<time>2020-09-10T11:17:51Z</time>
</trkpt>
<trkpt lat="48.546833" lon="10.320154">
<ele>381.689</ele>
<time>2020-09-10T11:17:52Z</time>
</trkpt>
<trkpt lat="48.54681" lon="10.320225">
<ele>381.689</ele>
<time>2020-09-10T11:17:53Z</time>
</trkpt>
<trkpt lat="48.546787" lon="10.320305">
<ele>381.689</ele>
<time>2020-09-10T11:17:54Z</time>
</trkpt>
<trkpt lat="48.546772" lon="10.32039">
<ele>381.689</ele>
<time>2020-09-10T11:17:55Z</time>
</trkpt>
<trkpt lat="48.546757" lon="10.320477">
<ele>381.689</ele>
<time>2020-09-10T11:17:56Z</time>
</trkpt>
<trkpt lat="48.546749" lon="10.320555">
<ele>381.689</ele>
<time>2020-09-10T11:17:57Z</time>
</trkpt>
<trkpt lat="48.54673" lon="10.320637">
<ele>381.689</ele>
<time>2020-09-10T11:17:58Z</time>
</trkpt>
<trkpt lat="48.546722" lon="10.320715">
<ele>381.689</ele>
<time>2020-09-10T11:17:59Z</time>
</trkpt>
<trkpt lat="48.546726" lon="10.320795">
<ele>381.689</ele>
<time>2020-09-10T11:18:00Z</time>
</trkpt>
<trkpt lat="48.546722" lon="10.32088">
<ele>381.689</ele>
<time>2020-09-10T11:18:01Z</time>
</trkpt>
<trkpt lat="48.546715" lon="10.320971">
<ele>381.689</ele>
<time>2020-09-10T11:18:02Z</time>
</trkpt>
<trkpt lat="48.5467" lon="10.321063">
<ele>381.689</ele>
<time>2020-09-10T11:18:03Z</time>
</trkpt>
<trkpt lat="48.546688" lon="10.321148">
<ele>381.689</ele>
<time>2020-09-10T11:18:04Z</time>
</trkpt>
<trkpt lat="48.546677" lon="10.321227">
<ele>381.689</ele>
<time>2020-09-10T11:18:05Z</time>
</trkpt>
<trkpt lat="48.546665" lon="10.321304">
<ele>381.689</ele>
<time>2020-09-10T11:18:06Z</time>
</trkpt>
<trkpt lat="48.546665" lon="10.321395">
<ele>381.689</ele>
<time>2020-09-10T11:18:07Z</time>
</trkpt>
<trkpt lat="48.546658" lon="10.321486">
<ele>381.689</ele>
<time>2020-09-10T11:18:08Z</time>
</trkpt>
<trkpt lat="48.54665" lon="10.32158">
<ele>381.689</ele>
<time>2020-09-10T11:18:09Z</time>
</trkpt>
<trkpt lat="48.546638" lon="10.321677">
<ele>381.689</ele>
<time>2020-09-10T11:18:10Z</time>
</trkpt>
<trkpt lat="48.546635" lon="10.321768">
<ele>381.689</ele>
<time>2020-09-10T11:18:11Z</time>
</trkpt>
<trkpt lat="48.546627" lon="10.321854">
<ele>381.689</ele>
<time>2020-09-10T11:18:12Z</time>
</trkpt>
<trkpt lat="48.546619" lon="10.321935">
<ele>381.689</ele>
<time>2020-09-10T11:18:13Z</time>
</trkpt>
<trkpt lat="48.546608" lon="10.32201">
<ele>381.689</ele>
<time>2020-09-10T11:18:14Z</time>
</trkpt>
<trkpt lat="48.546597" lon="10.322082">
<ele>381.689</ele>
<time>2020-09-10T11:18:15Z</time>
</trkpt>
<trkpt lat="48.546589" lon="10.322157">
<ele>381.689</ele>
<time>2020-09-10T11:18:16Z</time>
</trkpt>
<trkpt lat="48.546589" lon="10.322227">
<ele>381.689</ele>
<time>2020-09-10T11:18:17Z</time>
</trkpt>
<trkpt lat="48.546597" lon="10.322293">
<ele>381.689</ele>
<time>2020-09-10T11:18:18Z</time>
</trkpt>
<trkpt lat="48.546612" lon="10.322369">
<ele>381.689</ele>
<time>2020-09-10T11:18:19Z</time>
</trkpt>
<trkpt lat="48.546612" lon="10.322449">
<ele>381.689</ele>
<time>2020-09-10T11:18:20Z</time>
</trkpt>
<trkpt lat="48.546604" lon="10.322549">
<ele>381.689</ele>
<time>2020-09-10T11:18:21Z</time>
</trkpt>
<trkpt lat="48.546597" lon="10.322641">
<ele>381.689</ele>
<time>2020-09-10T11:18:22Z</time>
</trkpt>
<trkpt lat="48.546593" lon="10.322723">
<ele>381.689</ele>
<time>2020-09-10T11:18:23Z</time>
</trkpt>
<trkpt lat="48.546589" lon="10.322803">
<ele>381.689</ele>
<time>2020-09-10T11:18:24Z</time>
</trkpt>
<trkpt lat="48.546593" lon="10.32289">
<ele>381.689</ele>
<time>2020-09-10T11:18:25Z</time>
</trkpt>
<trkpt lat="48.546597" lon="10.322974">
<ele>381.689</ele>
<time>2020-09-10T11:18:26Z</time>
</trkpt>
<trkpt lat="48.546589" lon="10.323053">
<ele>381.689</ele>
<time>2020-09-10T11:18:27Z</time>
</trkpt>
<trkpt lat="48.546589" lon="10.323137">
<ele>381.689</ele>
<time>2020-09-10T11:18:28Z</time>
</trkpt>
<trkpt lat="48.546589" lon="10.32321">
<ele>381.689</ele>
<time>2020-09-10T11:18:29Z</time>
</trkpt>
<trkpt lat="48.546589" lon="10.323272">
<ele>381.689</ele>
<time>2020-09-10T11:18:30Z</time>
</trkpt>
<trkpt lat="48.546589" lon="10.323347">
<ele>381.689</ele>
<time>2020-09-10T11:18:31Z</time>
</trkpt>
<trkpt lat="48.546577" lon="10.323435">
<ele>381.689</ele>
<time>2020-09-10T11:18:32Z</time>
</trkpt>
<trkpt lat="48.546581" lon="10.323517">
<ele>381.689</ele>
<time>2020-09-10T11:18:33Z</time>
</trkpt>
<trkpt lat="48.546593" lon="10.323597">
<ele>381.689</ele>
<time>2020-09-10T11:18:34Z</time>
</trkpt>
<trkpt lat="48.546597" lon="10.323666">
<ele>381.689</ele>
<time>2020-09-10T11:18:35Z</time>
</trkpt>
<trkpt lat="48.546593" lon="10.323743">
<ele>381.689</ele>
<time>2020-09-10T11:18:36Z</time>
</trkpt>
<trkpt lat="48.546589" lon="10.323813">
<ele>381.689</ele>
<time>2020-09-10T11:18:37Z</time>
</trkpt>
<trkpt lat="48.546593" lon="10.323878">
<ele>381.689</ele>
<time>2020-09-10T11:18:38Z</time>
</trkpt>
<trkpt lat="48.546593" lon="10.323945">
<ele>381.689</ele>
<time>2020-09-10T11:18:39Z</time>
</trkpt>
<trkpt lat="48.546597" lon="10.324009">
<ele>381.689</ele>
<time>2020-09-10T11:18:40Z</time>
</trkpt>
<trkpt lat="48.5466" lon="10.324075">
<ele>381.689</ele>
<time>2020-09-10T11:18:41Z</time>
</trkpt>
<trkpt lat="48.546604" lon="10.324137">
<ele>381.689</ele>
<time>2020-09-10T11:18:42Z</time>
</trkpt>
<trkpt lat="48.546604" lon="10.32419">
<ele>381.689</ele>
<time>2020-09-10T11:18:43Z</time>
</trkpt>
<trkpt lat="48.546608" lon="10.324237">
<ele>381.689</ele>
<time>2020-09-10T11:18:44Z</time>
</trkpt>
<trkpt lat="48.546608" lon="10.324278">
<ele>381.689</ele>
<time>2020-09-10T11:18:45Z</time>
</trkpt>
<trkpt lat="48.546604" lon="10.324322">
<ele>381.689</ele>
<time>2020-09-10T11:18:46Z</time>
</trkpt>
<trkpt lat="48.546612" lon="10.324371">
<ele>381.689</ele>
<time>2020-09-10T11:18:47Z</time>
</trkpt>
<trkpt lat="48.546612" lon="10.324415">
<ele>381.689</ele>
<time>2020-09-10T11:18:48Z</time>
</trkpt>
<trkpt lat="48.546616" lon="10.324455">
<ele>381.689</ele>
<time>2020-09-10T11:18:49Z</time>
</trkpt>
<trkpt lat="48.546616" lon="10.324498">
<ele>381.689</ele>
<time>2020-09-10T11:18:50Z</time>
</trkpt>
<trkpt lat="48.546623" lon="10.324537">
<ele>381.689</ele>
<time>2020-09-10T11:18:51Z</time>
</trkpt>
<trkpt lat="48.546623" lon="10.324571">
<ele>381.689</ele>
<time>2020-09-10T11:18:52Z</time>
</trkpt>
<trkpt lat="48.546631" lon="10.324602">
<ele>381.689</ele>
<time>2020-09-10T11:18:53Z</time>
</trkpt>
<trkpt lat="48.546638" lon="10.324638">
<ele>381.689</ele>
<time>2020-09-10T11:18:54Z</time>
</trkpt>
<trkpt lat="48.546642" lon="10.324672">
<ele>381.689</ele>
<time>2020-09-10T11:18:55Z</time>
</trkpt>
<trkpt lat="48.546642" lon="10.324703">
<ele>381.689</ele>
<time>2020-09-10T11:18:56Z</time>
</trkpt>
<trkpt lat="48.54665" lon="10.324734">
<ele>381.689</ele>
<time>2020-09-10T11:18:57Z</time>
</trkpt>
<trkpt lat="48.546654" lon="10.324761">
<ele>381.689</ele>
<time>2020-09-10T11:18:58Z</time>
</trkpt>
<trkpt lat="48.54665" lon="10.324791">
<ele>381.689</ele>
<time>2020-09-10T11:18:59Z</time>
</trkpt>
<trkpt lat="48.54665" lon="10.324817">
<ele>381.689</ele>
<time>2020-09-10T11:19:00Z</time>
</trkpt>
<trkpt lat="48.54665" lon="10.324841">
<ele>381.689</ele>
<time>2020-09-10T11:19:01Z</time>
</trkpt>
<trkpt lat="48.546642" lon="10.324868">
<ele>381.689</ele>
<time>2020-09-10T11:19:02Z</time>
</trkpt>
<trkpt lat="48.546638" lon="10.324893">
<ele>381.689</ele>
<time>2020-09-10T11:19:03Z</time>
</trkpt>
<trkpt lat="48.546635" lon="10.324917">
<ele>381.689</ele>
<time>2020-09-10T11:19:04Z</time>
</trkpt>
<trkpt lat="48.546638" lon="10.324942">
<ele>381.689</ele>
<time>2020-09-10T11:19:05Z</time>
</trkpt>
<trkpt lat="48.546638" lon="10.324968">
<ele>381.689</ele>
<time>2020-09-10T11:19:06Z</time>
</trkpt>
<trkpt lat="48.546638" lon="10.324993">
<ele>381.689</ele>
<time>2020-09-10T11:19:07Z</time>
</trkpt>
<trkpt lat="48.546638" lon="10.325019">
<ele>381.689</ele>
<time>2020-09-10T11:19:08Z</time>
</trkpt>
<trkpt lat="48.546638" lon="10.325044">
<ele>381.689</ele>
<time>2020-09-10T11:19:09Z</time>
</trkpt>
<trkpt lat="48.546638" lon="10.325069">
<ele>381.689</ele>
<time>2020-09-10T11:19:10Z</time>
</trkpt>
<trkpt lat="48.546646" lon="10.325097">
<ele>381.689</ele>
<time>2020-09-10T11:19:11Z</time>
</trkpt>
<trkpt lat="48.546646" lon="10.32512">
<ele>381.689</ele>
<time>2020-09-10T11:19:12Z</time>
</trkpt>
<trkpt lat="48.546646" lon="10.325143">
<ele>381.689</ele>
<time>2020-09-10T11:19:13Z</time>
</trkpt>
<trkpt lat="48.546646" lon="10.325171">
<ele>381.689</ele>
<time>2020-09-10T11:19:14Z</time>
</trkpt>
<trkpt lat="48.546642" lon="10.325203">
<ele>381.689</ele>
<time>2020-09-10T11:19:15Z</time>
</trkpt>
<trkpt lat="48.546642" lon="10.325239">
<ele>381.689</ele>
<time>2020-09-10T11:19:16Z</time>
</trkpt>
<trkpt lat="48.546642" lon="10.325278">
<ele>381.689</ele>
<time>2020-09-10T11:19:17Z</time>
</trkpt>
<trkpt lat="48.546646" lon="10.32532">
<ele>381.389</ele>
<time>2020-09-10T11:19:18Z</time>
</trkpt>
<trkpt lat="48.546642" lon="10.325358">
<ele>381.16</ele>
<time>2020-09-10T11:19:19Z</time>
</trkpt>
<trkpt lat="48.546642" lon="10.325398">
<ele>381.004</ele>
<time>2020-09-10T11:19:20Z</time>
</trkpt>
<trkpt lat="48.546642" lon="10.325442">
<ele>380.9</ele>
<time>2020-09-10T11:19:21Z</time>
</trkpt>
<trkpt lat="48.546638" lon="10.325483">
<ele>380.826</ele>
<time>2020-09-10T11:19:22Z</time>
</trkpt>
<trkpt lat="48.546635" lon="10.325528">
<ele>380.783</ele>
<time>2020-09-10T11:19:23Z</time>
</trkpt>
<trkpt lat="48.546635" lon="10.325574">
<ele>380.762</ele>
<time>2020-09-10T11:19:24Z</time>
</trkpt>
<trkpt lat="48.546635" lon="10.325615">
<ele>380.742</ele>
<time>2020-09-10T11:19:25Z</time>
</trkpt>
<trkpt lat="48.546638" lon="10.325639">
<ele>380.742</ele>
<time>2020-09-10T11:19:26Z</time>
</trkpt>
<trkpt lat="48.546638" lon="10.325658">
<ele>380.742</ele>
<time>2020-09-10T11:19:27Z</time>
</trkpt>
<trkpt lat="48.546635" lon="10.325677">
<ele>380.742</ele>
<time>2020-09-10T11:19:28Z</time>
</trkpt>
<trkpt lat="48.546635" lon="10.325695">
<ele>380.742</ele>
<time>2020-09-10T11:19:29Z</time>
</trkpt>
<trkpt lat="48.546635" lon="10.325704">
<ele>380.742</ele>
<time>2020-09-10T11:19:30Z</time>
</trkpt>
<trkpt lat="48.546654" lon="10.325807">
<ele>380.742</ele>
<time>2020-09-10T11:20:38Z</time>
</trkpt>
<trkpt lat="48.546654" lon="10.325817">
<ele>380.742</ele>
<time>2020-09-10T11:20:39Z</time>
</trkpt>
<trkpt lat="48.546654" lon="10.325831">
<ele>380.742</ele>
<time>2020-09-10T11:20:40Z</time>
</trkpt>
<trkpt lat="48.546654" lon="10.325859">
<ele>380.742</ele>
<time>2020-09-10T11:20:41Z</time>
</trkpt>
<trkpt lat="48.546658" lon="10.32588">
<ele>380.742</ele>
<time>2020-09-10T11:20:42Z</time>
</trkpt>
<trkpt lat="48.546658" lon="10.325903">
<ele>380.742</ele>
<time>2020-09-10T11:20:43Z</time>
</trkpt>
<trkpt lat="48.546654" lon="10.325933">
<ele>380.742</ele>
<time>2020-09-10T11:20:44Z</time>
</trkpt>
<trkpt lat="48.546654" lon="10.325967">
<ele>380.742</ele>
<time>2020-09-10T11:20:45Z</time>
</trkpt>
<trkpt lat="48.546654" lon="10.326">
<ele>380.742</ele>
<time>2020-09-10T11:20:46Z</time>
</trkpt>
<trkpt lat="48.546654" lon="10.326038">
<ele>380.742</ele>
<time>2020-09-10T11:20:47Z</time>
</trkpt>
<trkpt lat="48.546658" lon="10.326081">
<ele>380.742</ele>
<time>2020-09-10T11:20:48Z</time>
</trkpt>
<trkpt lat="48.546669" lon="10.32613">
<ele>380.742</ele>
<time>2020-09-10T11:20:49Z</time>
</trkpt>
<trkpt lat="48.546673" lon="10.326193">
<ele>380.742</ele>
<time>2020-09-10T11:20:50Z</time>
</trkpt>
<trkpt lat="48.546684" lon="10.326255">
<ele>380.742</ele>
<time>2020-09-10T11:20:51Z</time>
</trkpt>
<trkpt lat="48.546684" lon="10.326322">
<ele>380.742</ele>
<time>2020-09-10T11:20:52Z</time>
</trkpt>
<trkpt lat="48.546677" lon="10.326393">
<ele>380.742</ele>
<time>2020-09-10T11:20:53Z</time>
</trkpt>
<trkpt lat="48.546677" lon="10.326458">
<ele>380.742</ele>
<time>2020-09-10T11:20:54Z</time>
</trkpt>
<trkpt lat="48.546665" lon="10.32652">
<ele>380.742</ele>
<time>2020-09-10T11:20:55Z</time>
</trkpt>
<trkpt lat="48.546658" lon="10.326587">
<ele>380.742</ele>
<time>2020-09-10T11:20:56Z</time>
</trkpt>
<trkpt lat="48.546654" lon="10.32666">
<ele>380.742</ele>
<time>2020-09-10T11:20:57Z</time>
</trkpt>
<trkpt lat="48.546635" lon="10.326739">
<ele>380.742</ele>
<time>2020-09-10T11:20:58Z</time>
</trkpt>
<trkpt lat="48.546612" lon="10.326821">
<ele>380.742</ele>
<time>2020-09-10T11:20:59Z</time>
</trkpt>
<trkpt lat="48.546597" lon="10.32689">
<ele>381.012</ele>
<time>2020-09-10T11:21:00Z</time>
</trkpt>
<trkpt lat="48.546577" lon="10.326963">
<ele>381.222</ele>
<time>2020-09-10T11:21:01Z</time>
</trkpt>
<trkpt lat="48.546558" lon="10.327042">
<ele>381.367</ele>
<time>2020-09-10T11:21:02Z</time>
</trkpt>
<trkpt lat="48.546543" lon="10.32713">
<ele>381.517</ele>
<time>2020-09-10T11:21:03Z</time>
</trkpt>
<trkpt lat="48.546532" lon="10.327229">
<ele>381.625</ele>
<time>2020-09-10T11:21:04Z</time>
</trkpt>
<trkpt lat="48.546528" lon="10.327324">
<ele>381.7</ele>
<time>2020-09-10T11:21:05Z</time>
</trkpt>
<trkpt lat="48.546524" lon="10.327407">
<ele>381.75</ele>
<time>2020-09-10T11:21:06Z</time>
</trkpt>
<trkpt lat="48.546509" lon="10.327496">
<ele>381.775</ele>
<time>2020-09-10T11:21:07Z</time>
</trkpt>
<trkpt lat="48.546501" lon="10.32759">
<ele>381.775</ele>
<time>2020-09-10T11:21:08Z</time>
</trkpt>
<trkpt lat="48.54649" lon="10.32767">
<ele>381.775</ele>
<time>2020-09-10T11:21:09Z</time>
</trkpt>
<trkpt lat="48.546474" lon="10.327753">
<ele>381.775</ele>
<time>2020-09-10T11:21:10Z</time>
</trkpt>
<trkpt lat="48.546459" lon="10.327835">
<ele>381.775</ele>
<time>2020-09-10T11:21:11Z</time>
</trkpt>
<trkpt lat="48.546448" lon="10.327917">
<ele>381.775</ele>
<time>2020-09-10T11:21:12Z</time>
</trkpt>
<trkpt lat="48.546432" lon="10.327991">
<ele>381.775</ele>
<time>2020-09-10T11:21:13Z</time>
</trkpt>
<trkpt lat="48.546417" lon="10.32807">
<ele>381.775</ele>
<time>2020-09-10T11:21:14Z</time>
</trkpt>
<trkpt lat="48.546398" lon="10.32815">
<ele>381.775</ele>
<time>2020-09-10T11:21:15Z</time>
</trkpt>
<trkpt lat="48.546383" lon="10.328231">
<ele>381.775</ele>
<time>2020-09-10T11:21:16Z</time>
</trkpt>
<trkpt lat="48.54636" lon="10.328304">
<ele>381.775</ele>
<time>2020-09-10T11:21:17Z</time>
</trkpt>
<trkpt lat="48.546341" lon="10.32838">
<ele>381.775</ele>
<time>2020-09-10T11:21:18Z</time>
</trkpt>
<trkpt lat="48.546326" lon="10.328459">
<ele>381.775</ele>
<time>2020-09-10T11:21:19Z</time>
</trkpt>
<trkpt lat="48.546307" lon="10.328535">
<ele>381.56</ele>
<time>2020-09-10T11:21:20Z</time>
</trkpt>
<trkpt lat="48.546291" lon="10.328612">
<ele>381.39</ele>
<time>2020-09-10T11:21:21Z</time>
</trkpt>
<trkpt lat="48.546276" lon="10.328685">
<ele>381.275</ele>
<time>2020-09-10T11:21:22Z</time>
</trkpt>
<trkpt lat="48.546261" lon="10.328758">
<ele>381.149</ele>
<time>2020-09-10T11:21:23Z</time>
</trkpt>
<trkpt lat="48.546246" lon="10.328835">
<ele>381.051</ele>
<time>2020-09-10T11:21:24Z</time>
</trkpt>
<trkpt lat="48.54623" lon="10.328912">
<ele>380.98</ele>
<time>2020-09-10T11:21:25Z</time>
</trkpt>
<trkpt lat="48.546219" lon="10.328994">
<ele>380.935</ele>
<time>2020-09-10T11:21:26Z</time>
</trkpt>
<trkpt lat="48.546204" lon="10.329071">
<ele>380.913</ele>
<time>2020-09-10T11:21:27Z</time>
</trkpt>
<trkpt lat="48.546188" lon="10.329152">
<ele>380.914</ele>
<time>2020-09-10T11:21:28Z</time>
</trkpt>
<trkpt lat="48.546169" lon="10.329233">
<ele>380.914</ele>
<time>2020-09-10T11:21:29Z</time>
</trkpt>
<trkpt lat="48.546154" lon="10.329311">
<ele>380.913</ele>
<time>2020-09-10T11:21:30Z</time>
</trkpt>
<trkpt lat="48.546143" lon="10.32939">
<ele>380.913</ele>
<time>2020-09-10T11:21:31Z</time>
</trkpt>
<trkpt lat="48.546131" lon="10.329469">
<ele>380.913</ele>
<time>2020-09-10T11:21:32Z</time>
</trkpt>
<trkpt lat="48.546112" lon="10.329549">
<ele>380.913</ele>
<time>2020-09-10T11:21:33Z</time>
</trkpt>
<trkpt lat="48.546093" lon="10.329626">
<ele>380.913</ele>
<time>2020-09-10T11:21:34Z</time>
</trkpt>
<trkpt lat="48.546074" lon="10.329706">
<ele>380.913</ele>
<time>2020-09-10T11:21:35Z</time>
</trkpt>
<trkpt lat="48.546059" lon="10.329787">
<ele>380.913</ele>
<time>2020-09-10T11:21:36Z</time>
</trkpt>
<trkpt lat="48.54604" lon="10.329864">
<ele>380.914</ele>
<time>2020-09-10T11:21:37Z</time>
</trkpt>
<trkpt lat="48.546024" lon="10.329942">
<ele>380.914</ele>
<time>2020-09-10T11:21:38Z</time>
</trkpt>
<trkpt lat="48.546005" lon="10.33002">
<ele>380.913</ele>
<time>2020-09-10T11:21:39Z</time>
</trkpt>
<trkpt lat="48.545994" lon="10.330102">
<ele>380.913</ele>
<time>2020-09-10T11:21:40Z</time>
</trkpt>
<trkpt lat="48.545982" lon="10.330183">
<ele>380.913</ele>
<time>2020-09-10T11:21:41Z</time>
</trkpt>
<trkpt lat="48.545971" lon="10.330267">
<ele>380.914</ele>
<time>2020-09-10T11:21:42Z</time>
</trkpt>
<trkpt lat="48.545959" lon="10.330352">
<ele>380.913</ele>
<time>2020-09-10T11:21:43Z</time>
</trkpt>
<trkpt lat="48.545948" lon="10.330437">
<ele>380.914</ele>
<time>2020-09-10T11:21:44Z</time>
</trkpt>
<trkpt lat="48.54594" lon="10.330523">
<ele>380.913</ele>
<time>2020-09-10T11:21:45Z</time>
</trkpt>
<trkpt lat="48.545937" lon="10.33061">
<ele>380.913</ele>
<time>2020-09-10T11:21:46Z</time>
</trkpt>
<trkpt lat="48.545937" lon="10.330699">
<ele>380.913</ele>
<time>2020-09-10T11:21:47Z</time>
</trkpt>
<trkpt lat="48.54594" lon="10.330783">
<ele>380.913</ele>
<time>2020-09-10T11:21:48Z</time>
</trkpt>
<trkpt lat="48.545944" lon="10.330865">
<ele>380.914</ele>
<time>2020-09-10T11:21:49Z</time>
</trkpt>
<trkpt lat="48.545944" lon="10.330944">
<ele>380.914</ele>
<time>2020-09-10T11:21:50Z</time>
</trkpt>
<trkpt lat="48.545956" lon="10.331023">
<ele>380.914</ele>
<time>2020-09-10T11:21:51Z</time>
</trkpt>
<trkpt lat="48.545963" lon="10.331107">
<ele>380.914</ele>
<time>2020-09-10T11:21:52Z</time>
</trkpt>
<trkpt lat="48.545975" lon="10.331189">
<ele>380.913</ele>
<time>2020-09-10T11:21:53Z</time>
</trkpt>
<trkpt lat="48.545982" lon="10.331266">
<ele>380.913</ele>
<time>2020-09-10T11:21:54Z</time>
</trkpt>
<trkpt lat="48.545998" lon="10.331347">
<ele>380.913</ele>
<time>2020-09-10T11:21:55Z</time>
</trkpt>
<trkpt lat="48.546005" lon="10.331427">
<ele>380.913</ele>
<time>2020-09-10T11:21:56Z</time>
</trkpt>
<trkpt lat="48.546017" lon="10.331516">
<ele>380.913</ele>
<time>2020-09-10T11:21:57Z</time>
</trkpt>
<trkpt lat="48.546032" lon="10.331612">
<ele>380.914</ele>
<time>2020-09-10T11:21:58Z</time>
</trkpt>
<trkpt lat="48.54604" lon="10.3317">
<ele>380.914</ele>
<time>2020-09-10T11:21:59Z</time>
</trkpt>
<trkpt lat="48.546055" lon="10.331781">
<ele>380.914</ele>
<time>2020-09-10T11:22:00Z</time>
</trkpt>
<trkpt lat="48.546066" lon="10.331874">
<ele>380.913</ele>
<time>2020-09-10T11:22:01Z</time>
</trkpt>
<trkpt lat="48.546082" lon="10.331958">
<ele>380.913</ele>
<time>2020-09-10T11:22:02Z</time>
</trkpt>
<trkpt lat="48.546097" lon="10.332044">
<ele>380.913</ele>
<time>2020-09-10T11:22:03Z</time>
</trkpt>
<trkpt lat="48.546104" lon="10.332133">
<ele>380.913</ele>
<time>2020-09-10T11:22:04Z</time>
</trkpt>
<trkpt lat="48.546124" lon="10.332222">
<ele>380.914</ele>
<time>2020-09-10T11:22:05Z</time>
</trkpt>
<trkpt lat="48.546139" lon="10.332322">
<ele>380.913</ele>
<time>2020-09-10T11:22:06Z</time>
</trkpt>
<trkpt lat="48.546162" lon="10.332405">
<ele>380.913</ele>
<time>2020-09-10T11:22:07Z</time>
</trkpt>
<trkpt lat="48.546177" lon="10.332488">
<ele>380.913</ele>
<time>2020-09-10T11:22:08Z</time>
</trkpt>
<trkpt lat="48.546192" lon="10.332577">
<ele>380.914</ele>
<time>2020-09-10T11:22:09Z</time>
</trkpt>
<trkpt lat="48.5462" lon="10.332668">
<ele>380.914</ele>
<time>2020-09-10T11:22:10Z</time>
</trkpt>
<trkpt lat="48.546215" lon="10.332758">
<ele>380.913</ele>
<time>2020-09-10T11:22:11Z</time>
</trkpt>
<trkpt lat="48.546223" lon="10.332852">
<ele>380.914</ele>
<time>2020-09-10T11:22:12Z</time>
</trkpt>
<trkpt lat="48.54623" lon="10.332949">
<ele>380.913</ele>
<time>2020-09-10T11:22:13Z</time>
</trkpt>
<trkpt lat="48.546242" lon="10.333039">
<ele>380.914</ele>
<time>2020-09-10T11:22:14Z</time>
</trkpt>
<trkpt lat="48.546246" lon="10.333136">
<ele>380.914</ele>
<time>2020-09-10T11:22:15Z</time>
</trkpt>
<trkpt lat="48.546253" lon="10.333228">
<ele>380.914</ele>
<time>2020-09-10T11:22:16Z</time>
</trkpt>
<trkpt lat="48.546257" lon="10.333323">
<ele>380.913</ele>
<time>2020-09-10T11:22:17Z</time>
</trkpt>
<trkpt lat="48.546257" lon="10.333418">
<ele>380.914</ele>
<time>2020-09-10T11:22:18Z</time>
</trkpt>
<trkpt lat="48.546265" lon="10.333515">
<ele>380.913</ele>
<time>2020-09-10T11:22:19Z</time>
</trkpt>
<trkpt lat="48.546265" lon="10.33361">
<ele>380.913</ele>
<time>2020-09-10T11:22:20Z</time>
</trkpt>
<trkpt lat="48.546261" lon="10.333705">
<ele>380.914</ele>
<time>2020-09-10T11:22:21Z</time>
</trkpt>
<trkpt lat="48.546257" lon="10.333799">
<ele>380.913</ele>
<time>2020-09-10T11:22:22Z</time>
</trkpt>
<trkpt lat="48.546253" lon="10.333894">
<ele>380.913</ele>
<time>2020-09-10T11:22:23Z</time>
</trkpt>
<trkpt lat="48.546249" lon="10.333985">
<ele>380.913</ele>
<time>2020-09-10T11:22:24Z</time>
</trkpt>
<trkpt lat="48.546238" lon="10.334075">
<ele>380.913</ele>
<time>2020-09-10T11:22:25Z</time>
</trkpt>
<trkpt lat="48.54623" lon="10.334165">
<ele>380.913</ele>
<time>2020-09-10T11:22:26Z</time>
</trkpt>
<trkpt lat="48.546223" lon="10.334254">
<ele>380.913</ele>
<time>2020-09-10T11:22:27Z</time>
</trkpt>
<trkpt lat="48.546211" lon="10.334345">
<ele>380.913</ele>
<time>2020-09-10T11:22:28Z</time>
</trkpt>
<trkpt lat="48.5462" lon="10.334434">
<ele>380.913</ele>
<time>2020-09-10T11:22:29Z</time>
</trkpt>
<trkpt lat="48.546188" lon="10.334522">
<ele>380.914</ele>
<time>2020-09-10T11:22:30Z</time>
</trkpt>
<trkpt lat="48.546173" lon="10.33461">
<ele>380.913</ele>
<time>2020-09-10T11:22:31Z</time>
</trkpt>
<trkpt lat="48.546158" lon="10.334697">
<ele>380.913</ele>
<time>2020-09-10T11:22:32Z</time>
</trkpt>
<trkpt lat="48.546143" lon="10.334784">
<ele>380.914</ele>
<time>2020-09-10T11:22:33Z</time>
</trkpt>
<trkpt lat="48.546127" lon="10.334868">
<ele>380.914</ele>
<time>2020-09-10T11:22:34Z</time>
</trkpt>
<trkpt lat="48.546112" lon="10.334953">
<ele>380.913</ele>
<time>2020-09-10T11:22:35Z</time>
</trkpt>
<trkpt lat="48.546097" lon="10.33504">
<ele>380.914</ele>
<time>2020-09-10T11:22:36Z</time>
</trkpt>
<trkpt lat="48.546082" lon="10.335125">
<ele>380.914</ele>
<time>2020-09-10T11:22:37Z</time>
</trkpt>
<trkpt lat="48.546066" lon="10.335212">
<ele>380.914</ele>
<time>2020-09-10T11:22:38Z</time>
</trkpt>
<trkpt lat="48.546051" lon="10.335299">
<ele>380.913</ele>
<time>2020-09-10T11:22:39Z</time>
</trkpt>
<trkpt lat="48.546036" lon="10.335387">
<ele>380.914</ele>
<time>2020-09-10T11:22:40Z</time>
</trkpt>
<trkpt lat="48.546028" lon="10.335473">
<ele>380.913</ele>
<time>2020-09-10T11:22:41Z</time>
</trkpt>
<trkpt lat="48.546021" lon="10.335557">
<ele>380.913</ele>
<time>2020-09-10T11:22:42Z</time>
</trkpt>
<trkpt lat="48.546024" lon="10.335644">
<ele>380.913</ele>
<time>2020-09-10T11:22:43Z</time>
</trkpt>
<trkpt lat="48.546032" lon="10.335732">
<ele>380.913</ele>
<time>2020-09-10T11:22:44Z</time>
</trkpt>
<trkpt lat="48.546036" lon="10.335815">
<ele>380.914</ele>
<time>2020-09-10T11:22:45Z</time>
</trkpt>
<trkpt lat="48.546043" lon="10.335901">
<ele>380.913</ele>
<time>2020-09-10T11:22:46Z</time>
</trkpt>
<trkpt lat="48.546047" lon="10.335992">
<ele>380.913</ele>
<time>2020-09-10T11:22:47Z</time>
</trkpt>
<trkpt lat="48.546059" lon="10.336071">
<ele>380.914</ele>
<time>2020-09-10T11:22:48Z</time>
</trkpt>
<trkpt lat="48.546066" lon="10.336144">
<ele>380.914</ele>
<time>2020-09-10T11:22:49Z</time>
</trkpt>
<trkpt lat="48.546074" lon="10.33622">
<ele>380.913</ele>
<time>2020-09-10T11:22:50Z</time>
</trkpt>
<trkpt lat="48.546093" lon="10.336297">
<ele>380.913</ele>
<time>2020-09-10T11:22:51Z</time>
</trkpt>
<trkpt lat="48.546112" lon="10.336373">
<ele>380.913</ele>
<time>2020-09-10T11:22:52Z</time>
</trkpt>
<trkpt lat="48.54612" lon="10.336456">
<ele>380.913</ele>
<time>2020-09-10T11:22:53Z</time>
</trkpt>
<trkpt lat="48.546131" lon="10.336536">
<ele>380.913</ele>
<time>2020-09-10T11:22:54Z</time>
</trkpt>
<trkpt lat="48.546143" lon="10.336618">
<ele>380.913</ele>
<time>2020-09-10T11:22:55Z</time>
</trkpt>
<trkpt lat="48.546135" lon="10.336723">
<ele>380.913</ele>
<time>2020-09-10T11:22:56Z</time>
</trkpt>
<trkpt lat="48.546131" lon="10.336823">
<ele>380.914</ele>
<time>2020-09-10T11:22:57Z</time>
</trkpt>
<trkpt lat="48.546127" lon="10.336917">
<ele>380.914</ele>
<time>2020-09-10T11:22:58Z</time>
</trkpt>
<trkpt lat="48.546127" lon="10.337001">
<ele>380.913</ele>
<time>2020-09-10T11:22:59Z</time>
</trkpt>
<trkpt lat="48.546127" lon="10.337073">
<ele>380.914</ele>
<time>2020-09-10T11:23:00Z</time>
</trkpt>
<trkpt lat="48.54612" lon="10.337158">
<ele>380.913</ele>
<time>2020-09-10T11:23:01Z</time>
</trkpt>
<trkpt lat="48.546108" lon="10.337242">
<ele>380.914</ele>
<time>2020-09-10T11:23:02Z</time>
</trkpt>
<trkpt lat="48.546124" lon="10.33733">
<ele>380.914</ele>
<time>2020-09-10T11:23:03Z</time>
</trkpt>
<trkpt lat="48.546139" lon="10.337432">
<ele>380.913</ele>
<time>2020-09-10T11:23:04Z</time>
</trkpt>
<trkpt lat="48.546158" lon="10.337514">
<ele>380.914</ele>
<time>2020-09-10T11:23:05Z</time>
</trkpt>
<trkpt lat="48.546173" lon="10.337598">
<ele>380.914</ele>
<time>2020-09-10T11:23:06Z</time>
</trkpt>
<trkpt lat="48.546188" lon="10.337682">
<ele>380.913</ele>
<time>2020-09-10T11:23:07Z</time>
</trkpt>
<trkpt lat="48.546196" lon="10.337766">
<ele>380.913</ele>
<time>2020-09-10T11:23:08Z</time>
</trkpt>
<trkpt lat="48.546211" lon="10.337852">
<ele>380.913</ele>
<time>2020-09-10T11:23:09Z</time>
</trkpt>
<trkpt lat="48.54623" lon="10.337937">
<ele>380.913</ele>
<time>2020-09-10T11:23:10Z</time>
</trkpt>
<trkpt lat="48.546249" lon="10.338028">
<ele>380.913</ele>
<time>2020-09-10T11:23:11Z</time>
</trkpt>
<trkpt lat="48.546276" lon="10.338117">
<ele>380.913</ele>
<time>2020-09-10T11:23:12Z</time>
</trkpt>
<trkpt lat="48.546295" lon="10.338228">
<ele>380.914</ele>
<time>2020-09-10T11:23:13Z</time>
</trkpt>
<trkpt lat="48.54631" lon="10.338328">
<ele>380.913</ele>
<time>2020-09-10T11:23:14Z</time>
</trkpt>
<trkpt lat="48.546329" lon="10.338419">
<ele>380.914</ele>
<time>2020-09-10T11:23:15Z</time>
</trkpt>
<trkpt lat="48.546356" lon="10.338518">
<ele>380.913</ele>
<time>2020-09-10T11:23:16Z</time>
</trkpt>
<trkpt lat="48.546383" lon="10.338616">
<ele>380.913</ele>
<time>2020-09-10T11:23:17Z</time>
</trkpt>
<trkpt lat="48.546406" lon="10.338712">
<ele>380.914</ele>
<time>2020-09-10T11:23:18Z</time>
</trkpt>
<trkpt lat="48.546429" lon="10.338803">
<ele>380.914</ele>
<time>2020-09-10T11:23:19Z</time>
</trkpt>
<trkpt lat="48.546455" lon="10.338888">
<ele>380.913</ele>
<time>2020-09-10T11:23:20Z</time>
</trkpt>
<trkpt lat="48.546482" lon="10.338977">
<ele>380.914</ele>
<time>2020-09-10T11:23:21Z</time>
</trkpt>
<trkpt lat="48.546505" lon="10.339058">
<ele>380.914</ele>
<time>2020-09-10T11:23:22Z</time>
</trkpt>
<trkpt lat="48.546528" lon="10.339133">
<ele>380.913</ele>
<time>2020-09-10T11:23:23Z</time>
</trkpt>
<trkpt lat="48.546558" lon="10.339215">
<ele>380.913</ele>
<time>2020-09-10T11:23:24Z</time>
</trkpt>
<trkpt lat="48.546585" lon="10.339303">
<ele>380.913</ele>
<time>2020-09-10T11:23:25Z</time>
</trkpt>
<trkpt lat="48.546608" lon="10.339398">
<ele>380.913</ele>
<time>2020-09-10T11:23:26Z</time>
</trkpt>
<trkpt lat="48.546627" lon="10.3395">
<ele>380.913</ele>
<time>2020-09-10T11:23:27Z</time>
</trkpt>
<trkpt lat="48.546646" lon="10.339597">
<ele>380.913</ele>
<time>2020-09-10T11:23:28Z</time>
</trkpt>
<trkpt lat="48.546658" lon="10.339693">
<ele>380.913</ele>
<time>2020-09-10T11:23:29Z</time>
</trkpt>
<trkpt lat="48.546677" lon="10.339787">
<ele>380.914</ele>
<time>2020-09-10T11:23:30Z</time>
</trkpt>
<trkpt lat="48.546692" lon="10.339884">
<ele>380.913</ele>
<time>2020-09-10T11:23:31Z</time>
</trkpt>
<trkpt lat="48.546715" lon="10.339975">
<ele>380.913</ele>
<time>2020-09-10T11:23:32Z</time>
</trkpt>
<trkpt lat="48.546738" lon="10.340064">
<ele>380.913</ele>
<time>2020-09-10T11:23:33Z</time>
</trkpt>
<trkpt lat="48.546753" lon="10.340147">
<ele>380.913</ele>
<time>2020-09-10T11:23:34Z</time>
</trkpt>
<trkpt lat="48.546761" lon="10.340228">
<ele>380.913</ele>
<time>2020-09-10T11:23:35Z</time>
</trkpt>
<trkpt lat="48.546768" lon="10.340303">
<ele>380.913</ele>
<time>2020-09-10T11:23:36Z</time>
</trkpt>
<trkpt lat="48.546772" lon="10.340382">
<ele>380.668</ele>
<time>2020-09-10T11:23:37Z</time>
</trkpt>
<trkpt lat="48.546776" lon="10.340456">
<ele>380.474</ele>
<time>2020-09-10T11:23:38Z</time>
</trkpt>
<trkpt lat="48.546776" lon="10.34052">
<ele>380.322</ele>
<time>2020-09-10T11:23:39Z</time>
</trkpt>
<trkpt lat="48.546776" lon="10.340577">
<ele>380.207</ele>
<time>2020-09-10T11:23:40Z</time>
</trkpt>
<trkpt lat="48.546768" lon="10.340625">
<ele>380.122</ele>
<time>2020-09-10T11:23:41Z</time>
</trkpt>
<trkpt lat="48.546764" lon="10.340676">
<ele>380.053</ele>
<time>2020-09-10T11:23:42Z</time>
</trkpt>
<trkpt lat="48.546757" lon="10.340736">
<ele>379.996</ele>
<time>2020-09-10T11:23:43Z</time>
</trkpt>
<trkpt lat="48.546764" lon="10.340796">
<ele>379.966</ele>
<time>2020-09-10T11:23:44Z</time>
</trkpt>
<trkpt lat="48.546772" lon="10.340856">
<ele>379.966</ele>
<time>2020-09-10T11:23:45Z</time>
</trkpt>
<trkpt lat="48.546783" lon="10.340912">
<ele>379.966</ele>
<time>2020-09-10T11:23:46Z</time>
</trkpt>
<trkpt lat="48.546803" lon="10.340981">
<ele>379.966</ele>
<time>2020-09-10T11:23:47Z</time>
</trkpt>
<trkpt lat="48.546818" lon="10.34105">
<ele>379.966</ele>
<time>2020-09-10T11:23:48Z</time>
</trkpt>
<trkpt lat="48.546829" lon="10.341124">
<ele>379.966</ele>
<time>2020-09-10T11:23:49Z</time>
</trkpt>
<trkpt lat="48.546844" lon="10.341207">
<ele>379.966</ele>
<time>2020-09-10T11:23:50Z</time>
</trkpt>
<trkpt lat="48.546848" lon="10.341291">
<ele>379.966</ele>
<time>2020-09-10T11:23:51Z</time>
</trkpt>
<trkpt lat="48.546856" lon="10.341377">
<ele>379.966</ele>
<time>2020-09-10T11:23:52Z</time>
</trkpt>
<trkpt lat="48.546867" lon="10.341451">
<ele>379.966</ele>
<time>2020-09-10T11:23:53Z</time>
</trkpt>
<trkpt lat="48.546879" lon="10.341532">
<ele>379.966</ele>
<time>2020-09-10T11:23:54Z</time>
</trkpt>
<trkpt lat="48.546883" lon="10.341621">
<ele>379.966</ele>
<time>2020-09-10T11:23:55Z</time>
</trkpt>
<trkpt lat="48.546894" lon="10.341706">
<ele>380.241</ele>
<time>2020-09-10T11:23:56Z</time>
</trkpt>
<trkpt lat="48.546898" lon="10.34178">
<ele>380.444</ele>
<time>2020-09-10T11:23:57Z</time>
</trkpt>
<trkpt lat="48.546909" lon="10.341866">
<ele>380.598</ele>
<time>2020-09-10T11:23:58Z</time>
</trkpt>
<trkpt lat="48.546921" lon="10.341955">
<ele>380.716</ele>
<time>2020-09-10T11:23:59Z</time>
</trkpt>
<trkpt lat="48.54694" lon="10.342035">
<ele>380.795</ele>
<time>2020-09-10T11:24:00Z</time>
</trkpt>
<trkpt lat="48.546947" lon="10.342109">
<ele>380.85</ele>
<time>2020-09-10T11:24:01Z</time>
</trkpt>
<trkpt lat="48.546955" lon="10.342187">
<ele>380.888</ele>
<time>2020-09-10T11:24:02Z</time>
</trkpt>
<trkpt lat="48.54697" lon="10.342265">
<ele>380.914</ele>
<time>2020-09-10T11:24:03Z</time>
</trkpt>
<trkpt lat="48.546982" lon="10.342322">
<ele>380.914</ele>
<time>2020-09-10T11:24:04Z</time>
</trkpt>
<trkpt lat="48.547005" lon="10.342387">
<ele>380.913</ele>
<time>2020-09-10T11:24:05Z</time>
</trkpt>
<trkpt lat="48.547039" lon="10.342435">
<ele>380.913</ele>
<time>2020-09-10T11:24:06Z</time>
</trkpt>
<trkpt lat="48.547062" lon="10.342475">
<ele>380.914</ele>
<time>2020-09-10T11:24:07Z</time>
</trkpt>
<trkpt lat="48.547081" lon="10.342494">
<ele>380.914</ele>
<time>2020-09-10T11:24:08Z</time>
</trkpt>
<trkpt lat="48.547112" lon="10.342511">
<ele>380.913</ele>
<time>2020-09-10T11:24:09Z</time>
</trkpt>
<trkpt lat="48.547138" lon="10.342528">
<ele>380.913</ele>
<time>2020-09-10T11:24:10Z</time>
</trkpt>
<trkpt lat="48.547153" lon="10.342545">
<ele>380.913</ele>
<time>2020-09-10T11:24:11Z</time>
</trkpt>
<trkpt lat="48.547169" lon="10.342567">
<ele>380.913</ele>
<time>2020-09-10T11:24:12Z</time>
</trkpt>
<trkpt lat="48.547176" lon="10.34258">
<ele>380.913</ele>
<time>2020-09-10T11:24:13Z</time>
</trkpt>
<trkpt lat="48.547184" lon="10.342593">
<ele>380.913</ele>
<time>2020-09-10T11:24:14Z</time>
</trkpt>
<trkpt lat="48.547188" lon="10.342613">
<ele>380.914</ele>
<time>2020-09-10T11:24:15Z</time>
</trkpt>
<trkpt lat="48.547192" lon="10.342637">
<ele>380.913</ele>
<time>2020-09-10T11:24:16Z</time>
</trkpt>
<trkpt lat="48.547192" lon="10.342664">
<ele>380.914</ele>
<time>2020-09-10T11:24:17Z</time>
</trkpt>
<trkpt lat="48.547188" lon="10.342695">
<ele>381.131</ele>
<time>2020-09-10T11:24:18Z</time>
</trkpt>
<trkpt lat="48.54718" lon="10.342725">
<ele>381.327</ele>
<time>2020-09-10T11:24:19Z</time>
</trkpt>
<trkpt lat="48.54718" lon="10.34276">
<ele>381.484</ele>
<time>2020-09-10T11:24:20Z</time>
</trkpt>
<trkpt lat="48.547192" lon="10.342804">
<ele>381.378</ele>
<time>2020-09-10T11:24:21Z</time>
</trkpt>
<trkpt lat="48.547199" lon="10.342856">
<ele>381.406</ele>
<time>2020-09-10T11:24:22Z</time>
</trkpt>
<trkpt lat="48.547203" lon="10.342925">
<ele>381.257</ele>
<time>2020-09-10T11:24:23Z</time>
</trkpt>
<trkpt lat="48.547199" lon="10.342997">
<ele>381.147</ele>
<time>2020-09-10T11:24:24Z</time>
</trkpt>
<trkpt lat="48.547207" lon="10.343073">
<ele>381.066</ele>
<time>2020-09-10T11:24:25Z</time>
</trkpt>
<trkpt lat="48.547211" lon="10.343142">
<ele>381.005</ele>
<time>2020-09-10T11:24:26Z</time>
</trkpt>
<trkpt lat="48.547237" lon="10.343197">
<ele>380.954</ele>
<time>2020-09-10T11:24:27Z</time>
</trkpt>
<trkpt lat="48.547256" lon="10.343252">
<ele>380.926</ele>
<time>2020-09-10T11:24:28Z</time>
</trkpt>
<trkpt lat="48.547279" lon="10.343299">
<ele>380.913</ele>
<time>2020-09-10T11:24:29Z</time>
</trkpt>
<trkpt lat="48.547298" lon="10.343349">
<ele>380.913</ele>
<time>2020-09-10T11:24:30Z</time>
</trkpt>
<trkpt lat="48.547318" lon="10.343395">
<ele>380.913</ele>
<time>2020-09-10T11:24:31Z</time>
</trkpt>
<trkpt lat="48.547333" lon="10.343447">
<ele>380.913</ele>
<time>2020-09-10T11:24:32Z</time>
</trkpt>
<trkpt lat="48.547352" lon="10.343496">
<ele>380.914</ele>
<time>2020-09-10T11:24:33Z</time>
</trkpt>
<trkpt lat="48.547375" lon="10.343554">
<ele>380.913</ele>
<time>2020-09-10T11:24:34Z</time>
</trkpt>
<trkpt lat="48.547405" lon="10.343614">
<ele>380.913</ele>
<time>2020-09-10T11:24:35Z</time>
</trkpt>
<trkpt lat="48.547428" lon="10.343674">
<ele>380.914</ele>
<time>2020-09-10T11:24:36Z</time>
</trkpt>
<trkpt lat="48.547451" lon="10.343728">
<ele>380.913</ele>
<time>2020-09-10T11:24:37Z</time>
</trkpt>
<trkpt lat="48.54747" lon="10.343781">
<ele>380.914</ele>
<time>2020-09-10T11:24:38Z</time>
</trkpt>
<trkpt lat="48.547489" lon="10.343843">
<ele>380.913</ele>
<time>2020-09-10T11:24:39Z</time>
</trkpt>
<trkpt lat="48.547504" lon="10.343898">
<ele>380.913</ele>
<time>2020-09-10T11:24:40Z</time>
</trkpt>
<trkpt lat="48.547523" lon="10.343946">
<ele>380.913</ele>
<time>2020-09-10T11:24:41Z</time>
</trkpt>
<trkpt lat="48.547535" lon="10.344002">
<ele>380.913</ele>
<time>2020-09-10T11:24:42Z</time>
</trkpt>
<trkpt lat="48.547558" lon="10.344055">
<ele>380.913</ele>
<time>2020-09-10T11:24:43Z</time>
</trkpt>
<trkpt lat="48.547577" lon="10.344111">
<ele>380.913</ele>
<time>2020-09-10T11:24:44Z</time>
</trkpt>
<trkpt lat="48.547604" lon="10.344164">
<ele>380.914</ele>
<time>2020-09-10T11:24:45Z</time>
</trkpt>
<trkpt lat="48.54763" lon="10.34423">
<ele>380.913</ele>
<time>2020-09-10T11:24:46Z</time>
</trkpt>
<trkpt lat="48.547653" lon="10.344281">
<ele>380.913</ele>
<time>2020-09-10T11:24:47Z</time>
</trkpt>
<trkpt lat="48.547676" lon="10.344357">
<ele>380.914</ele>
<time>2020-09-10T11:24:48Z</time>
</trkpt>
<trkpt lat="48.547699" lon="10.344435">
<ele>380.629</ele>
<time>2020-09-10T11:24:49Z</time>
</trkpt>
<trkpt lat="48.547718" lon="10.344503">
<ele>380.417</ele>
<time>2020-09-10T11:24:50Z</time>
</trkpt>
<trkpt lat="48.547729" lon="10.344573">
<ele>380.256</ele>
<time>2020-09-10T11:24:51Z</time>
</trkpt>
<trkpt lat="48.547745" lon="10.344646">
<ele>380.151</ele>
<time>2020-09-10T11:24:52Z</time>
</trkpt>
<trkpt lat="48.54776" lon="10.344711">
<ele>380.037</ele>
<time>2020-09-10T11:24:53Z</time>
</trkpt>
<trkpt lat="48.547764" lon="10.344784">
<ele>379.959</ele>
<time>2020-09-10T11:24:54Z</time>
</trkpt>
<trkpt lat="48.547768" lon="10.34485">
<ele>379.902</ele>
<time>2020-09-10T11:24:55Z</time>
</trkpt>
<trkpt lat="48.547779" lon="10.34492">
<ele>379.88</ele>
<time>2020-09-10T11:24:56Z</time>
</trkpt>
<trkpt lat="48.547791" lon="10.344994">
<ele>379.88</ele>
<time>2020-09-10T11:24:57Z</time>
</trkpt>
<trkpt lat="48.547794" lon="10.345058">
<ele>379.88</ele>
<time>2020-09-10T11:24:58Z</time>
</trkpt>
<trkpt lat="48.547806" lon="10.345137">
<ele>379.88</ele>
<time>2020-09-10T11:24:59Z</time>
</trkpt>
<trkpt lat="48.547817" lon="10.34522">
<ele>379.88</ele>
<time>2020-09-10T11:25:00Z</time>
</trkpt>
<trkpt lat="48.547821" lon="10.345308">
<ele>379.88</ele>
<time>2020-09-10T11:25:01Z</time>
</trkpt>
<trkpt lat="48.547817" lon="10.345398">
<ele>379.88</ele>
<time>2020-09-10T11:25:02Z</time>
</trkpt>
<trkpt lat="48.547806" lon="10.345484">
<ele>379.88</ele>
<time>2020-09-10T11:25:03Z</time>
</trkpt>
<trkpt lat="48.547794" lon="10.345562">
<ele>379.88</ele>
<time>2020-09-10T11:25:04Z</time>
</trkpt>
<trkpt lat="48.547787" lon="10.345638">
<ele>379.88</ele>
<time>2020-09-10T11:25:05Z</time>
</trkpt>
<trkpt lat="48.547787" lon="10.345714">
<ele>379.88</ele>
<time>2020-09-10T11:25:06Z</time>
</trkpt>
<trkpt lat="48.547775" lon="10.34579">
<ele>379.88</ele>
<time>2020-09-10T11:25:07Z</time>
</trkpt>
<trkpt lat="48.547764" lon="10.345886">
<ele>379.88</ele>
<time>2020-09-10T11:25:08Z</time>
</trkpt>
<trkpt lat="48.547745" lon="10.345977">
<ele>379.88</ele>
<time>2020-09-10T11:25:09Z</time>
</trkpt>
<trkpt lat="48.547737" lon="10.346048">
<ele>379.88</ele>
<time>2020-09-10T11:25:10Z</time>
</trkpt>
<trkpt lat="48.547729" lon="10.346104">
<ele>379.88</ele>
<time>2020-09-10T11:25:11Z</time>
</trkpt>
<trkpt lat="48.547718" lon="10.346175">
<ele>379.88</ele>
<time>2020-09-10T11:25:12Z</time>
</trkpt>
<trkpt lat="48.54771" lon="10.34624">
<ele>379.88</ele>
<time>2020-09-10T11:25:13Z</time>
</trkpt>
<trkpt lat="48.547695" lon="10.346329">
<ele>379.88</ele>
<time>2020-09-10T11:25:14Z</time>
</trkpt>
<trkpt lat="48.547684" lon="10.346406">
<ele>379.88</ele>
<time>2020-09-10T11:25:15Z</time>
</trkpt>
<trkpt lat="48.547665" lon="10.346496">
<ele>379.88</ele>
<time>2020-09-10T11:25:16Z</time>
</trkpt>
<trkpt lat="48.547646" lon="10.346588">
<ele>379.88</ele>
<time>2020-09-10T11:25:17Z</time>
</trkpt>
<trkpt lat="48.547623" lon="10.346704">
<ele>379.88</ele>
<time>2020-09-10T11:25:18Z</time>
</trkpt>
<trkpt lat="48.547596" lon="10.346822">
<ele>379.88</ele>
<time>2020-09-10T11:25:19Z</time>
</trkpt>
<trkpt lat="48.547569" lon="10.346927">
<ele>379.88</ele>
<time>2020-09-10T11:25:20Z</time>
</trkpt>
<trkpt lat="48.547546" lon="10.347026">
<ele>379.88</ele>
<time>2020-09-10T11:25:21Z</time>
</trkpt>
<trkpt lat="48.54752" lon="10.347129">
<ele>379.88</ele>
<time>2020-09-10T11:25:22Z</time>
</trkpt>
<trkpt lat="48.547501" lon="10.347229">
<ele>379.88</ele>
<time>2020-09-10T11:25:23Z</time>
</trkpt>
<trkpt lat="48.547474" lon="10.347325">
<ele>379.88</ele>
<time>2020-09-10T11:25:24Z</time>
</trkpt>
<trkpt lat="48.547459" lon="10.347422">
<ele>379.88</ele>
<time>2020-09-10T11:25:25Z</time>
</trkpt>
<trkpt lat="48.547436" lon="10.347518">
<ele>379.88</ele>
<time>2020-09-10T11:25:26Z</time>
</trkpt>
<trkpt lat="48.547409" lon="10.34762">
<ele>379.88</ele>
<time>2020-09-10T11:25:27Z</time>
</trkpt>
<trkpt lat="48.547386" lon="10.347722">
<ele>379.88</ele>
<time>2020-09-10T11:25:28Z</time>
</trkpt>
<trkpt lat="48.547367" lon="10.347816">
<ele>379.88</ele>
<time>2020-09-10T11:25:29Z</time>
</trkpt>
<trkpt lat="48.54734" lon="10.347906">
<ele>379.88</ele>
<time>2020-09-10T11:25:30Z</time>
</trkpt>
<trkpt lat="48.547318" lon="10.347997">
<ele>379.88</ele>
<time>2020-09-10T11:25:31Z</time>
</trkpt>
<trkpt lat="48.547302" lon="10.34809">
<ele>379.88</ele>
<time>2020-09-10T11:25:32Z</time>
</trkpt>
<trkpt lat="48.547276" lon="10.348182">
<ele>379.88</ele>
<time>2020-09-10T11:25:33Z</time>
</trkpt>
<trkpt lat="48.54726" lon="10.348273">
<ele>379.88</ele>
<time>2020-09-10T11:25:34Z</time>
</trkpt>
<trkpt lat="48.547241" lon="10.34836">
<ele>379.88</ele>
<time>2020-09-10T11:25:35Z</time>
</trkpt>
<trkpt lat="48.547218" lon="10.348449">
<ele>379.88</ele>
<time>2020-09-10T11:25:36Z</time>
</trkpt>
<trkpt lat="48.547199" lon="10.348535">
<ele>379.88</ele>
<time>2020-09-10T11:25:37Z</time>
</trkpt>
<trkpt lat="48.54718" lon="10.34862">
<ele>379.88</ele>
<time>2020-09-10T11:25:38Z</time>
</trkpt>
<trkpt lat="48.547161" lon="10.348706">
<ele>379.88</ele>
<time>2020-09-10T11:25:39Z</time>
</trkpt>
<trkpt lat="48.547142" lon="10.348794">
<ele>379.88</ele>
<time>2020-09-10T11:25:40Z</time>
</trkpt>
<trkpt lat="48.547119" lon="10.348884">
<ele>379.88</ele>
<time>2020-09-10T11:25:41Z</time>
</trkpt>
<trkpt lat="48.547104" lon="10.34897">
<ele>379.88</ele>
<time>2020-09-10T11:25:42Z</time>
</trkpt>
<trkpt lat="48.547085" lon="10.349058">
<ele>379.88</ele>
<time>2020-09-10T11:25:43Z</time>
</trkpt>
<trkpt lat="48.54707" lon="10.349149">
<ele>379.88</ele>
<time>2020-09-10T11:25:44Z</time>
</trkpt>
<trkpt lat="48.547047" lon="10.349238">
<ele>379.88</ele>
<time>2020-09-10T11:25:45Z</time>
</trkpt>
<trkpt lat="48.547024" lon="10.349324">
<ele>379.88</ele>
<time>2020-09-10T11:25:46Z</time>
</trkpt>
<trkpt lat="48.547009" lon="10.349412">
<ele>379.88</ele>
<time>2020-09-10T11:25:47Z</time>
</trkpt>
<trkpt lat="48.546989" lon="10.349498">
<ele>379.88</ele>
<time>2020-09-10T11:25:48Z</time>
</trkpt>
<trkpt lat="48.546974" lon="10.349584">
<ele>379.88</ele>
<time>2020-09-10T11:25:49Z</time>
</trkpt>
<trkpt lat="48.546955" lon="10.349664">
<ele>379.88</ele>
<time>2020-09-10T11:25:50Z</time>
</trkpt>
<trkpt lat="48.54694" lon="10.349745">
<ele>379.88</ele>
<time>2020-09-10T11:25:51Z</time>
</trkpt>
<trkpt lat="48.546921" lon="10.349823">
<ele>379.88</ele>
<time>2020-09-10T11:25:52Z</time>
</trkpt>
<trkpt lat="48.546909" lon="10.349896">
<ele>379.88</ele>
<time>2020-09-10T11:25:53Z</time>
</trkpt>
<trkpt lat="48.546894" lon="10.349965">
<ele>379.88</ele>
<time>2020-09-10T11:25:54Z</time>
</trkpt>
<trkpt lat="48.546879" lon="10.350026">
<ele>379.88</ele>
<time>2020-09-10T11:25:55Z</time>
</trkpt>
<trkpt lat="48.54686" lon="10.350093">
<ele>379.88</ele>
<time>2020-09-10T11:25:56Z</time>
</trkpt>
<trkpt lat="48.546848" lon="10.350163">
<ele>379.88</ele>
<time>2020-09-10T11:25:57Z</time>
</trkpt>
<trkpt lat="48.546837" lon="10.350229">
<ele>379.88</ele>
<time>2020-09-10T11:25:58Z</time>
</trkpt>
<trkpt lat="48.546822" lon="10.35028">
<ele>379.88</ele>
<time>2020-09-10T11:25:59Z</time>
</trkpt>
<trkpt lat="48.546818" lon="10.35033">
<ele>379.88</ele>
<time>2020-09-10T11:26:00Z</time>
</trkpt>
<trkpt lat="48.54681" lon="10.350389">
<ele>379.88</ele>
<time>2020-09-10T11:26:01Z</time>
</trkpt>
<trkpt lat="48.546799" lon="10.350457">
<ele>379.88</ele>
<time>2020-09-10T11:26:02Z</time>
</trkpt>
<trkpt lat="48.54678" lon="10.350548">
<ele>379.88</ele>
<time>2020-09-10T11:26:03Z</time>
</trkpt>
<trkpt lat="48.546764" lon="10.350636">
<ele>379.88</ele>
<time>2020-09-10T11:26:04Z</time>
</trkpt>
<trkpt lat="48.546745" lon="10.350719">
<ele>379.88</ele>
<time>2020-09-10T11:26:05Z</time>
</trkpt>
<trkpt lat="48.546719" lon="10.350805">
<ele>379.88</ele>
<time>2020-09-10T11:26:06Z</time>
</trkpt>
<trkpt lat="48.5467" lon="10.3509">
<ele>379.88</ele>
<time>2020-09-10T11:26:07Z</time>
</trkpt>
<trkpt lat="48.54668" lon="10.350992">
<ele>379.88</ele>
<time>2020-09-10T11:26:08Z</time>
</trkpt>
<trkpt lat="48.546654" lon="10.351078">
<ele>379.88</ele>
<time>2020-09-10T11:26:09Z</time>
</trkpt>
<trkpt lat="48.546635" lon="10.351168">
<ele>379.88</ele>
<time>2020-09-10T11:26:10Z</time>
</trkpt>
<trkpt lat="48.546619" lon="10.351258">
<ele>379.88</ele>
<time>2020-09-10T11:26:11Z</time>
</trkpt>
<trkpt lat="48.5466" lon="10.351352">
<ele>379.88</ele>
<time>2020-09-10T11:26:12Z</time>
</trkpt>
<trkpt lat="48.546585" lon="10.351439">
<ele>379.88</ele>
<time>2020-09-10T11:26:13Z</time>
</trkpt>
<trkpt lat="48.546585" lon="10.351524">
<ele>379.88</ele>
<time>2020-09-10T11:26:14Z</time>
</trkpt>
<trkpt lat="48.546574" lon="10.351612">
<ele>379.88</ele>
<time>2020-09-10T11:26:15Z</time>
</trkpt>
<trkpt lat="48.54657" lon="10.351698">
<ele>379.88</ele>
<time>2020-09-10T11:26:16Z</time>
</trkpt>
<trkpt lat="48.54657" lon="10.351784">
<ele>379.88</ele>
<time>2020-09-10T11:26:17Z</time>
</trkpt>
<trkpt lat="48.546566" lon="10.351868">
<ele>379.88</ele>
<time>2020-09-10T11:26:18Z</time>
</trkpt>
<trkpt lat="48.546562" lon="10.351948">
<ele>379.88</ele>
<time>2020-09-10T11:26:19Z</time>
</trkpt>
<trkpt lat="48.546558" lon="10.352023">
<ele>379.88</ele>
<time>2020-09-10T11:26:20Z</time>
</trkpt>
<trkpt lat="48.546562" lon="10.3521">
<ele>379.88</ele>
<time>2020-09-10T11:26:21Z</time>
</trkpt>
<trkpt lat="48.546566" lon="10.352176">
<ele>379.88</ele>
<time>2020-09-10T11:26:22Z</time>
</trkpt>
<trkpt lat="48.546585" lon="10.35225">
<ele>379.88</ele>
<time>2020-09-10T11:26:23Z</time>
</trkpt>
<trkpt lat="48.546593" lon="10.352328">
<ele>379.88</ele>
<time>2020-09-10T11:26:24Z</time>
</trkpt>
<trkpt lat="48.5466" lon="10.352412">
<ele>379.88</ele>
<time>2020-09-10T11:26:25Z</time>
</trkpt>
<trkpt lat="48.546612" lon="10.352494">
<ele>379.88</ele>
<time>2020-09-10T11:26:26Z</time>
</trkpt>
<trkpt lat="48.546623" lon="10.352576">
<ele>379.88</ele>
<time>2020-09-10T11:26:27Z</time>
</trkpt>
<trkpt lat="48.546646" lon="10.352657">
<ele>379.88</ele>
<time>2020-09-10T11:26:28Z</time>
</trkpt>
<trkpt lat="48.546665" lon="10.352736">
<ele>379.88</ele>
<time>2020-09-10T11:26:29Z</time>
</trkpt>
<trkpt lat="48.546688" lon="10.352818">
<ele>379.88</ele>
<time>2020-09-10T11:26:30Z</time>
</trkpt>
<trkpt lat="48.546707" lon="10.352899">
<ele>379.88</ele>
<time>2020-09-10T11:26:31Z</time>
</trkpt>
<trkpt lat="48.54673" lon="10.352978">
<ele>379.88</ele>
<time>2020-09-10T11:26:32Z</time>
</trkpt>
<trkpt lat="48.546753" lon="10.353058">
<ele>379.88</ele>
<time>2020-09-10T11:26:33Z</time>
</trkpt>
<trkpt lat="48.546772" lon="10.35314">
<ele>379.88</ele>
<time>2020-09-10T11:26:34Z</time>
</trkpt>
<trkpt lat="48.546791" lon="10.353219">
<ele>379.88</ele>
<time>2020-09-10T11:26:35Z</time>
</trkpt>
<trkpt lat="48.546818" lon="10.353296">
<ele>379.59</ele>
<time>2020-09-10T11:26:36Z</time>
</trkpt>
<trkpt lat="48.546837" lon="10.353378">
<ele>379.364</ele>
<time>2020-09-10T11:26:37Z</time>
</trkpt>
<trkpt lat="48.546852" lon="10.35346">
<ele>379.192</ele>
<time>2020-09-10T11:26:38Z</time>
</trkpt>
<trkpt lat="48.546871" lon="10.353538">
<ele>379.066</ele>
<time>2020-09-10T11:26:39Z</time>
</trkpt>
<trkpt lat="48.54689" lon="10.353617">
<ele>378.977</ele>
<time>2020-09-10T11:26:40Z</time>
</trkpt>
<trkpt lat="48.546913" lon="10.353695">
<ele>378.921</ele>
<time>2020-09-10T11:26:41Z</time>
</trkpt>
<trkpt lat="48.546928" lon="10.353774">
<ele>378.876</ele>
<time>2020-09-10T11:26:42Z</time>
</trkpt>
<trkpt lat="48.546947" lon="10.353851">
<ele>378.846</ele>
<time>2020-09-10T11:26:43Z</time>
</trkpt>
<trkpt lat="48.54697" lon="10.353927">
<ele>378.847</ele>
<time>2020-09-10T11:26:44Z</time>
</trkpt>
<trkpt lat="48.546986" lon="10.354003">
<ele>378.846</ele>
<time>2020-09-10T11:26:45Z</time>
</trkpt>
<trkpt lat="48.547009" lon="10.354078">
<ele>378.846</ele>
<time>2020-09-10T11:26:46Z</time>
</trkpt>
<trkpt lat="48.547028" lon="10.354154">
<ele>378.847</ele>
<time>2020-09-10T11:26:47Z</time>
</trkpt>
<trkpt lat="48.54705" lon="10.354229">
<ele>378.847</ele>
<time>2020-09-10T11:26:48Z</time>
</trkpt>
<trkpt lat="48.54707" lon="10.354303">
<ele>378.847</ele>
<time>2020-09-10T11:26:49Z</time>
</trkpt>
<trkpt lat="48.547085" lon="10.35438">
<ele>378.847</ele>
<time>2020-09-10T11:26:50Z</time>
</trkpt>
<trkpt lat="48.547104" lon="10.354457">
<ele>378.847</ele>
<time>2020-09-10T11:26:51Z</time>
</trkpt>
<trkpt lat="48.547119" lon="10.354533">
<ele>378.846</ele>
<time>2020-09-10T11:26:52Z</time>
</trkpt>
<trkpt lat="48.547142" lon="10.354609">
<ele>378.846</ele>
<time>2020-09-10T11:26:53Z</time>
</trkpt>
<trkpt lat="48.547161" lon="10.354684">
<ele>378.847</ele>
<time>2020-09-10T11:26:54Z</time>
</trkpt>
<trkpt lat="48.547176" lon="10.354758">
<ele>378.847</ele>
<time>2020-09-10T11:26:55Z</time>
</trkpt>
<trkpt lat="48.547199" lon="10.354832">
<ele>378.847</ele>
<time>2020-09-10T11:26:56Z</time>
</trkpt>
<trkpt lat="48.547218" lon="10.354905">
<ele>378.847</ele>
<time>2020-09-10T11:26:57Z</time>
</trkpt>
<trkpt lat="48.547241" lon="10.354979">
<ele>378.846</ele>
<time>2020-09-10T11:26:58Z</time>
</trkpt>
<trkpt lat="48.54726" lon="10.355054">
<ele>378.847</ele>
<time>2020-09-10T11:26:59Z</time>
</trkpt>
<trkpt lat="48.547283" lon="10.355126">
<ele>378.846</ele>
<time>2020-09-10T11:27:00Z</time>
</trkpt>
<trkpt lat="48.547306" lon="10.355204">
<ele>378.846</ele>
<time>2020-09-10T11:27:01Z</time>
</trkpt>
<trkpt lat="48.547318" lon="10.35528">
<ele>378.847</ele>
<time>2020-09-10T11:27:02Z</time>
</trkpt>
<trkpt lat="48.547337" lon="10.35536">
<ele>378.847</ele>
<time>2020-09-10T11:27:03Z</time>
</trkpt>
<trkpt lat="48.547356" lon="10.355442">
<ele>378.847</ele>
<time>2020-09-10T11:27:04Z</time>
</trkpt>
<trkpt lat="48.547371" lon="10.355523">
<ele>378.846</ele>
<time>2020-09-10T11:27:05Z</time>
</trkpt>
<trkpt lat="48.547394" lon="10.355605">
<ele>378.846</ele>
<time>2020-09-10T11:27:06Z</time>
</trkpt>
<trkpt lat="48.547409" lon="10.355689">
<ele>378.847</ele>
<time>2020-09-10T11:27:07Z</time>
</trkpt>
<trkpt lat="48.547428" lon="10.355768">
<ele>378.847</ele>
<time>2020-09-10T11:27:08Z</time>
</trkpt>
<trkpt lat="48.547447" lon="10.35585">
<ele>378.847</ele>
<time>2020-09-10T11:27:09Z</time>
</trkpt>
<trkpt lat="48.547466" lon="10.355928">
<ele>378.847</ele>
<time>2020-09-10T11:27:10Z</time>
</trkpt>
<trkpt lat="48.547482" lon="10.356008">
<ele>378.846</ele>
<time>2020-09-10T11:27:11Z</time>
</trkpt>
<trkpt lat="48.547501" lon="10.356083">
<ele>378.846</ele>
<time>2020-09-10T11:27:12Z</time>
</trkpt>
<trkpt lat="48.54752" lon="10.35616">
<ele>378.847</ele>
<time>2020-09-10T11:27:13Z</time>
</trkpt>
<trkpt lat="48.547539" lon="10.356236">
<ele>378.846</ele>
<time>2020-09-10T11:27:14Z</time>
</trkpt>
<trkpt lat="48.547558" lon="10.356312">
<ele>378.846</ele>
<time>2020-09-10T11:27:15Z</time>
</trkpt>
<trkpt lat="48.547577" lon="10.356385">
<ele>378.846</ele>
<time>2020-09-10T11:27:16Z</time>
</trkpt>
<trkpt lat="48.5476" lon="10.356459">
<ele>378.847</ele>
<time>2020-09-10T11:27:17Z</time>
</trkpt>
<trkpt lat="48.547619" lon="10.356531">
<ele>378.847</ele>
<time>2020-09-10T11:27:18Z</time>
</trkpt>
<trkpt lat="48.547634" lon="10.356605">
<ele>378.847</ele>
<time>2020-09-10T11:27:19Z</time>
</trkpt>
<trkpt lat="48.547653" lon="10.356676">
<ele>378.847</ele>
<time>2020-09-10T11:27:20Z</time>
</trkpt>
<trkpt lat="48.547676" lon="10.35675">
<ele>378.847</ele>
<time>2020-09-10T11:27:21Z</time>
</trkpt>
<trkpt lat="48.547695" lon="10.356822">
<ele>378.847</ele>
<time>2020-09-10T11:27:22Z</time>
</trkpt>
<trkpt lat="48.547714" lon="10.356895">
<ele>378.847</ele>
<time>2020-09-10T11:27:23Z</time>
</trkpt>
<trkpt lat="48.547733" lon="10.356969">
<ele>378.847</ele>
<time>2020-09-10T11:27:24Z</time>
</trkpt>
<trkpt lat="48.547756" lon="10.35704">
<ele>378.847</ele>
<time>2020-09-10T11:27:25Z</time>
</trkpt>
<trkpt lat="48.547771" lon="10.357112">
<ele>378.847</ele>
<time>2020-09-10T11:27:26Z</time>
</trkpt>
<trkpt lat="48.547787" lon="10.357187">
<ele>378.847</ele>
<time>2020-09-10T11:27:27Z</time>
</trkpt>
<trkpt lat="48.547794" lon="10.35726">
<ele>378.846</ele>
<time>2020-09-10T11:27:28Z</time>
</trkpt>
<trkpt lat="48.547802" lon="10.357328">
<ele>378.847</ele>
<time>2020-09-10T11:27:29Z</time>
</trkpt>
<trkpt lat="48.54781" lon="10.357387">
<ele>378.846</ele>
<time>2020-09-10T11:27:30Z</time>
</trkpt>
<trkpt lat="48.547813" lon="10.357438">
<ele>378.847</ele>
<time>2020-09-10T11:27:31Z</time>
</trkpt>
<trkpt lat="48.547821" lon="10.357491">
<ele>378.847</ele>
<time>2020-09-10T11:27:32Z</time>
</trkpt>
<trkpt lat="48.547829" lon="10.357553">
<ele>378.846</ele>
<time>2020-09-10T11:27:33Z</time>
</trkpt>
<trkpt lat="48.547829" lon="10.357613">
<ele>378.847</ele>
<time>2020-09-10T11:27:34Z</time>
</trkpt>
<trkpt lat="48.547832" lon="10.357692">
<ele>378.846</ele>
<time>2020-09-10T11:27:35Z</time>
</trkpt>
<trkpt lat="48.547836" lon="10.357767">
<ele>378.847</ele>
<time>2020-09-10T11:27:36Z</time>
</trkpt>
<trkpt lat="48.54784" lon="10.357835">
<ele>378.847</ele>
<time>2020-09-10T11:27:37Z</time>
</trkpt>
<trkpt lat="48.54784" lon="10.357903">
<ele>378.847</ele>
<time>2020-09-10T11:27:38Z</time>
</trkpt>
<trkpt lat="48.547848" lon="10.357968">
<ele>378.846</ele>
<time>2020-09-10T11:27:39Z</time>
</trkpt>
<trkpt lat="48.547859" lon="10.358033">
<ele>378.847</ele>
<time>2020-09-10T11:27:40Z</time>
</trkpt>
<trkpt lat="48.547882" lon="10.358088">
<ele>378.847</ele>
<time>2020-09-10T11:27:41Z</time>
</trkpt>
<trkpt lat="48.547913" lon="10.358129">
<ele>378.846</ele>
<time>2020-09-10T11:27:42Z</time>
</trkpt>
<trkpt lat="48.547947" lon="10.358167">
<ele>378.847</ele>
<time>2020-09-10T11:27:43Z</time>
</trkpt>
<trkpt lat="48.547974" lon="10.358199">
<ele>378.846</ele>
<time>2020-09-10T11:27:44Z</time>
</trkpt>
<trkpt lat="48.548" lon="10.358238">
<ele>378.847</ele>
<time>2020-09-10T11:27:45Z</time>
</trkpt>
<trkpt lat="48.548023" lon="10.35829">
<ele>378.846</ele>
<time>2020-09-10T11:27:46Z</time>
</trkpt>
<trkpt lat="48.548054" lon="10.35836">
<ele>378.847</ele>
<time>2020-09-10T11:27:47Z</time>
</trkpt>
<trkpt lat="48.548088" lon="10.358437">
<ele>378.846</ele>
<time>2020-09-10T11:27:48Z</time>
</trkpt>
<trkpt lat="48.548122" lon="10.35851">
<ele>378.847</ele>
<time>2020-09-10T11:27:49Z</time>
</trkpt>
<trkpt lat="48.548157" lon="10.358582">
<ele>378.847</ele>
<time>2020-09-10T11:27:50Z</time>
</trkpt>
<trkpt lat="48.548195" lon="10.358656">
<ele>378.847</ele>
<time>2020-09-10T11:27:51Z</time>
</trkpt>
<trkpt lat="48.548237" lon="10.358729">
<ele>378.846</ele>
<time>2020-09-10T11:27:52Z</time>
</trkpt>
<trkpt lat="48.548283" lon="10.358798">
<ele>378.847</ele>
<time>2020-09-10T11:27:53Z</time>
</trkpt>
<trkpt lat="48.548317" lon="10.358865">
<ele>378.847</ele>
<time>2020-09-10T11:27:54Z</time>
</trkpt>
<trkpt lat="48.548363" lon="10.358934">
<ele>378.847</ele>
<time>2020-09-10T11:27:55Z</time>
</trkpt>
<trkpt lat="48.548397" lon="10.359005">
<ele>378.847</ele>
<time>2020-09-10T11:27:56Z</time>
</trkpt>
<trkpt lat="48.548435" lon="10.359072">
<ele>378.846</ele>
<time>2020-09-10T11:27:57Z</time>
</trkpt>
<trkpt lat="48.548473" lon="10.359137">
<ele>378.846</ele>
<time>2020-09-10T11:27:58Z</time>
</trkpt>
<trkpt lat="48.548508" lon="10.359202">
<ele>378.847</ele>
<time>2020-09-10T11:27:59Z</time>
</trkpt>
<trkpt lat="48.548542" lon="10.359265">
<ele>378.846</ele>
<time>2020-09-10T11:28:00Z</time>
</trkpt>
<trkpt lat="48.548576" lon="10.359324">
<ele>378.623</ele>
<time>2020-09-10T11:28:01Z</time>
</trkpt>
<trkpt lat="48.548607" lon="10.359385">
<ele>378.458</ele>
<time>2020-09-10T11:28:02Z</time>
</trkpt>
<trkpt lat="48.548634" lon="10.359438">
<ele>378.296</ele>
<time>2020-09-10T11:28:03Z</time>
</trkpt>
<trkpt lat="48.548664" lon="10.359489">
<ele>378.159</ele>
<time>2020-09-10T11:28:04Z</time>
</trkpt>
<trkpt lat="48.548695" lon="10.35954">
<ele>378.054</ele>
<time>2020-09-10T11:28:05Z</time>
</trkpt>
<trkpt lat="48.548721" lon="10.359587">
<ele>377.976</ele>
<time>2020-09-10T11:28:06Z</time>
</trkpt>
<trkpt lat="48.548748" lon="10.359638">
<ele>377.924</ele>
<time>2020-09-10T11:28:07Z</time>
</trkpt>
<trkpt lat="48.548775" lon="10.359687">
<ele>377.899</ele>
<time>2020-09-10T11:28:08Z</time>
</trkpt>
<trkpt lat="48.548798" lon="10.359727">
<ele>377.899</ele>
<time>2020-09-10T11:28:09Z</time>
</trkpt>
<trkpt lat="48.548824" lon="10.359768">
<ele>377.899</ele>
<time>2020-09-10T11:28:10Z</time>
</trkpt>
<trkpt lat="48.548855" lon="10.35981">
<ele>377.899</ele>
<time>2020-09-10T11:28:11Z</time>
</trkpt>
<trkpt lat="48.548878" lon="10.359848">
<ele>378.103</ele>
<time>2020-09-10T11:28:12Z</time>
</trkpt>
<trkpt lat="48.548904" lon="10.359879">
<ele>378.297</ele>
<time>2020-09-10T11:28:13Z</time>
</trkpt>
<trkpt lat="48.548931" lon="10.359903">
<ele>378.46</ele>
<time>2020-09-10T11:28:14Z</time>
</trkpt>
<trkpt lat="48.54895" lon="10.359921">
<ele>378.588</ele>
<time>2020-09-10T11:28:15Z</time>
</trkpt>
<trkpt lat="48.548969" lon="10.359941">
<ele>378.694</ele>
<time>2020-09-10T11:28:16Z</time>
</trkpt>
<trkpt lat="48.548992" lon="10.359959">
<ele>378.77</ele>
<time>2020-09-10T11:28:17Z</time>
</trkpt>
<trkpt lat="48.549011" lon="10.359975">
<ele>378.82</ele>
<time>2020-09-10T11:28:18Z</time>
</trkpt>
<trkpt lat="48.549034" lon="10.360002">
<ele>378.847</ele>
<time>2020-09-10T11:28:19Z</time>
</trkpt>
<trkpt lat="48.549057" lon="10.360028">
<ele>378.847</ele>
<time>2020-09-10T11:28:20Z</time>
</trkpt>
<trkpt lat="48.549076" lon="10.360058">
<ele>378.847</ele>
<time>2020-09-10T11:28:21Z</time>
</trkpt>
<trkpt lat="48.549099" lon="10.360085">
<ele>378.847</ele>
<time>2020-09-10T11:28:22Z</time>
</trkpt>
<trkpt lat="48.549129" lon="10.360106">
<ele>378.847</ele>
<time>2020-09-10T11:28:23Z</time>
</trkpt>
<trkpt lat="48.549141" lon="10.360135">
<ele>378.846</ele>
<time>2020-09-10T11:28:24Z</time>
</trkpt>
<trkpt lat="48.549164" lon="10.36017">
<ele>378.847</ele>
<time>2020-09-10T11:28:25Z</time>
</trkpt>
<trkpt lat="48.549179" lon="10.360207">
<ele>378.847</ele>
<time>2020-09-10T11:28:26Z</time>
</trkpt>
<trkpt lat="48.549194" lon="10.360249">
<ele>378.847</ele>
<time>2020-09-10T11:28:27Z</time>
</trkpt>
<trkpt lat="48.549206" lon="10.36029">
<ele>378.847</ele>
<time>2020-09-10T11:28:28Z</time>
</trkpt>
<trkpt lat="48.54921" lon="10.360335">
<ele>378.847</ele>
<time>2020-09-10T11:28:29Z</time>
</trkpt>
<trkpt lat="48.549213" lon="10.360384">
<ele>378.847</ele>
<time>2020-09-10T11:28:30Z</time>
</trkpt>
<trkpt lat="48.549221" lon="10.360435">
<ele>378.846</ele>
<time>2020-09-10T11:28:31Z</time>
</trkpt>
<trkpt lat="48.549229" lon="10.360489">
<ele>378.846</ele>
<time>2020-09-10T11:28:32Z</time>
</trkpt>
<trkpt lat="48.549225" lon="10.360545">
<ele>378.847</ele>
<time>2020-09-10T11:28:33Z</time>
</trkpt>
<trkpt lat="48.549229" lon="10.360596">
<ele>378.847</ele>
<time>2020-09-10T11:28:34Z</time>
</trkpt>
<trkpt lat="48.549229" lon="10.360632">
<ele>378.846</ele>
<time>2020-09-10T11:28:35Z</time>
</trkpt>
<trkpt lat="48.549225" lon="10.360667">
<ele>378.847</ele>
<time>2020-09-10T11:28:36Z</time>
</trkpt>
<trkpt lat="48.549225" lon="10.360708">
<ele>378.847</ele>
<time>2020-09-10T11:28:37Z</time>
</trkpt>
<trkpt lat="48.549217" lon="10.360742">
<ele>378.847</ele>
<time>2020-09-10T11:28:38Z</time>
</trkpt>
<trkpt lat="48.549198" lon="10.360775">
<ele>378.847</ele>
<time>2020-09-10T11:28:39Z</time>
</trkpt>
<trkpt lat="48.549183" lon="10.360788">
<ele>378.847</ele>
<time>2020-09-10T11:28:40Z</time>
</trkpt>
<trkpt lat="48.549164" lon="10.360806">
<ele>378.846</ele>
<time>2020-09-10T11:28:41Z</time>
</trkpt>
<trkpt lat="48.549145" lon="10.36083">
<ele>378.847</ele>
<time>2020-09-10T11:28:42Z</time>
</trkpt>
<trkpt lat="48.549133" lon="10.360864">
<ele>378.847</ele>
<time>2020-09-10T11:28:43Z</time>
</trkpt>
<trkpt lat="48.549122" lon="10.360912">
<ele>378.847</ele>
<time>2020-09-10T11:28:44Z</time>
</trkpt>
<trkpt lat="48.549103" lon="10.360967">
<ele>378.847</ele>
<time>2020-09-10T11:28:45Z</time>
</trkpt>
<trkpt lat="48.549088" lon="10.361023">
<ele>378.846</ele>
<time>2020-09-10T11:28:46Z</time>
</trkpt>
<trkpt lat="48.549068" lon="10.361078">
<ele>378.846</ele>
<time>2020-09-10T11:28:47Z</time>
</trkpt>
<trkpt lat="48.549057" lon="10.361134">
<ele>378.847</ele>
<time>2020-09-10T11:28:48Z</time>
</trkpt>
<trkpt lat="48.549057" lon="10.361192">
<ele>378.847</ele>
<time>2020-09-10T11:28:49Z</time>
</trkpt>
<trkpt lat="48.549061" lon="10.361256">
<ele>378.847</ele>
<time>2020-09-10T11:28:50Z</time>
</trkpt>
<trkpt lat="48.549065" lon="10.361313">
<ele>378.847</ele>
<time>2020-09-10T11:28:51Z</time>
</trkpt>
<trkpt lat="48.549068" lon="10.361377">
<ele>378.846</ele>
<time>2020-09-10T11:28:52Z</time>
</trkpt>
<trkpt lat="48.549068" lon="10.36144">
<ele>378.551</ele>
<time>2020-09-10T11:28:53Z</time>
</trkpt>
<trkpt lat="48.549065" lon="10.361508">
<ele>378.303</ele>
<time>2020-09-10T11:28:54Z</time>
</trkpt>
<trkpt lat="48.549065" lon="10.361578">
<ele>378.095</ele>
<time>2020-09-10T11:28:55Z</time>
</trkpt>
<trkpt lat="48.549068" lon="10.361647">
<ele>377.931</ele>
<time>2020-09-10T11:28:56Z</time>
</trkpt>
<trkpt lat="48.549068" lon="10.361712">
<ele>377.809</ele>
<time>2020-09-10T11:28:57Z</time>
</trkpt>
<trkpt lat="48.549072" lon="10.36177">
<ele>377.724</ele>
<time>2020-09-10T11:28:58Z</time>
</trkpt>
<trkpt lat="48.549076" lon="10.361832">
<ele>377.666</ele>
<time>2020-09-10T11:28:59Z</time>
</trkpt>
<trkpt lat="48.549076" lon="10.361892">
<ele>377.641</ele>
<time>2020-09-10T11:29:00Z</time>
</trkpt>
<trkpt lat="48.54908" lon="10.361947">
<ele>377.641</ele>
<time>2020-09-10T11:29:01Z</time>
</trkpt>
<trkpt lat="48.549084" lon="10.362">
<ele>377.641</ele>
<time>2020-09-10T11:29:02Z</time>
</trkpt>
<trkpt lat="48.549088" lon="10.362061">
<ele>377.641</ele>
<time>2020-09-10T11:29:03Z</time>
</trkpt>
<trkpt lat="48.549084" lon="10.362117">
<ele>377.641</ele>
<time>2020-09-10T11:29:04Z</time>
</trkpt>
<trkpt lat="48.549084" lon="10.362173">
<ele>377.641</ele>
<time>2020-09-10T11:29:05Z</time>
</trkpt>
<trkpt lat="48.549084" lon="10.362224">
<ele>377.641</ele>
<time>2020-09-10T11:29:06Z</time>
</trkpt>
<trkpt lat="48.549084" lon="10.36227">
<ele>377.641</ele>
<time>2020-09-10T11:29:07Z</time>
</trkpt>
<trkpt lat="48.549076" lon="10.362315">
<ele>377.641</ele>
<time>2020-09-10T11:29:08Z</time>
</trkpt>
<trkpt lat="48.549076" lon="10.362367">
<ele>377.641</ele>
<time>2020-09-10T11:29:09Z</time>
</trkpt>
<trkpt lat="48.549076" lon="10.362411">
<ele>377.641</ele>
<time>2020-09-10T11:29:10Z</time>
</trkpt>
<trkpt lat="48.549084" lon="10.362465">
<ele>377.641</ele>
<time>2020-09-10T11:29:11Z</time>
</trkpt>
<trkpt lat="48.549099" lon="10.362518">
<ele>377.641</ele>
<time>2020-09-10T11:29:12Z</time>
</trkpt>
<trkpt lat="48.549114" lon="10.362563">
<ele>377.641</ele>
<time>2020-09-10T11:29:13Z</time>
</trkpt>
<trkpt lat="48.549118" lon="10.362595">
<ele>377.641</ele>
<time>2020-09-10T11:29:14Z</time>
</trkpt>
<trkpt lat="48.549122" lon="10.362623">
<ele>377.641</ele>
<time>2020-09-10T11:29:15Z</time>
</trkpt>
<trkpt lat="48.549122" lon="10.362649">
<ele>377.641</ele>
<time>2020-09-10T11:29:16Z</time>
</trkpt>
<trkpt lat="48.549122" lon="10.362674">
<ele>377.641</ele>
<time>2020-09-10T11:29:17Z</time>
</trkpt>
<trkpt lat="48.549122" lon="10.362699">
<ele>377.641</ele>
<time>2020-09-10T11:29:18Z</time>
</trkpt>
<trkpt lat="48.549122" lon="10.362724">
<ele>377.641</ele>
<time>2020-09-10T11:29:19Z</time>
</trkpt>
<trkpt lat="48.549118" lon="10.36275">
<ele>377.641</ele>
<time>2020-09-10T11:29:20Z</time>
</trkpt>
<trkpt lat="48.549099" lon="10.362764">
<ele>377.641</ele>
<time>2020-09-10T11:29:21Z</time>
</trkpt>
<trkpt lat="48.549076" lon="10.362777">
<ele>377.641</ele>
<time>2020-09-10T11:29:22Z</time>
</trkpt>
<trkpt lat="48.549065" lon="10.362783">
<ele>377.641</ele>
<time>2020-09-10T11:29:23Z</time>
</trkpt>
<trkpt lat="48.549046" lon="10.36279">
<ele>377.641</ele>
<time>2020-09-10T11:29:24Z</time>
</trkpt>
<trkpt lat="48.54903" lon="10.3628">
<ele>377.641</ele>
<time>2020-09-10T11:29:25Z</time>
</trkpt>
<trkpt lat="48.549007" lon="10.362819">
<ele>377.641</ele>
<time>2020-09-10T11:29:26Z</time>
</trkpt>
<trkpt lat="48.548988" lon="10.362844">
<ele>377.641</ele>
<time>2020-09-10T11:29:27Z</time>
</trkpt>
<trkpt lat="48.548969" lon="10.362864">
<ele>377.641</ele>
<time>2020-09-10T11:29:28Z</time>
</trkpt>
<trkpt lat="48.548954" lon="10.362884">
<ele>377.641</ele>
<time>2020-09-10T11:29:29Z</time>
</trkpt>
<trkpt lat="48.548935" lon="10.362894">
<ele>377.641</ele>
<time>2020-09-10T11:29:30Z</time>
</trkpt>
<trkpt lat="48.548916" lon="10.362897">
<ele>377.641</ele>
<time>2020-09-10T11:29:31Z</time>
</trkpt>
<trkpt lat="48.548904" lon="10.362886">
<ele>377.641</ele>
<time>2020-09-10T11:29:32Z</time>
</trkpt>
<trkpt lat="48.548882" lon="10.362864">
<ele>377.641</ele>
<time>2020-09-10T11:29:33Z</time>
</trkpt>
<trkpt lat="48.54887" lon="10.362831">
<ele>377.641</ele>
<time>2020-09-10T11:29:34Z</time>
</trkpt>
<trkpt lat="48.548859" lon="10.362796">
<ele>377.641</ele>
<time>2020-09-10T11:29:35Z</time>
</trkpt>
<trkpt lat="48.548855" lon="10.36277">
<ele>377.641</ele>
<time>2020-09-10T11:29:36Z</time>
</trkpt>
<trkpt lat="48.548855" lon="10.362745">
<ele>377.641</ele>
<time>2020-09-10T11:29:37Z</time>
</trkpt>
<trkpt lat="48.548851" lon="10.362714">
<ele>377.641</ele>
<time>2020-09-10T11:29:38Z</time>
</trkpt>
<trkpt lat="48.548843" lon="10.36268">
<ele>377.641</ele>
<time>2020-09-10T11:29:39Z</time>
</trkpt>
<trkpt lat="48.54884" lon="10.362652">
<ele>377.641</ele>
<time>2020-09-10T11:29:40Z</time>
</trkpt>
<trkpt lat="48.548832" lon="10.362625">
<ele>377.641</ele>
<time>2020-09-10T11:29:41Z</time>
</trkpt>
<trkpt lat="48.548817" lon="10.3626">
<ele>377.641</ele>
<time>2020-09-10T11:29:42Z</time>
</trkpt>
<trkpt lat="48.548809" lon="10.362578">
<ele>377.641</ele>
<time>2020-09-10T11:29:43Z</time>
</trkpt>
<trkpt lat="48.548805" lon="10.362549">
<ele>377.641</ele>
<time>2020-09-10T11:29:44Z</time>
</trkpt>
<trkpt lat="48.548809" lon="10.362523">
<ele>377.641</ele>
<time>2020-09-10T11:29:45Z</time>
</trkpt>
<trkpt lat="48.548809" lon="10.362492">
<ele>377.641</ele>
<time>2020-09-10T11:29:46Z</time>
</trkpt>
<trkpt lat="48.548813" lon="10.362454">
<ele>377.641</ele>
<time>2020-09-10T11:29:47Z</time>
</trkpt>
<trkpt lat="48.548824" lon="10.362407">
<ele>377.641</ele>
<time>2020-09-10T11:29:48Z</time>
</trkpt>
<trkpt lat="48.548836" lon="10.362358">
<ele>377.641</ele>
<time>2020-09-10T11:29:49Z</time>
</trkpt>
<trkpt lat="48.54884" lon="10.362311">
<ele>377.641</ele>
<time>2020-09-10T11:29:50Z</time>
</trkpt>
<trkpt lat="48.548836" lon="10.362264">
<ele>377.641</ele>
<time>2020-09-10T11:29:51Z</time>
</trkpt>
<trkpt lat="48.54882" lon="10.362211">
<ele>377.641</ele>
<time>2020-09-10T11:29:52Z</time>
</trkpt>
<trkpt lat="48.548805" lon="10.362157">
<ele>377.641</ele>
<time>2020-09-10T11:29:53Z</time>
</trkpt>
<trkpt lat="48.548805" lon="10.362117">
<ele>377.641</ele>
<time>2020-09-10T11:29:54Z</time>
</trkpt>
<trkpt lat="48.548801" lon="10.362073">
<ele>377.641</ele>
<time>2020-09-10T11:29:55Z</time>
</trkpt>
<trkpt lat="48.548801" lon="10.362037">
<ele>377.641</ele>
<time>2020-09-10T11:29:56Z</time>
</trkpt>
<trkpt lat="48.548805" lon="10.362012">
<ele>377.641</ele>
<time>2020-09-10T11:29:57Z</time>
</trkpt>
<trkpt lat="48.548824" lon="10.362012">
<ele>377.641</ele>
<time>2020-09-10T11:29:58Z</time>
</trkpt>
<trkpt lat="48.54884" lon="10.362027">
<ele>377.641</ele>
<time>2020-09-10T11:29:59Z</time>
</trkpt>
<trkpt lat="48.548851" lon="10.36205">
<ele>377.641</ele>
<time>2020-09-10T11:30:00Z</time>
</trkpt>
<trkpt lat="48.548862" lon="10.362083">
<ele>377.641</ele>
<time>2020-09-10T11:30:01Z</time>
</trkpt>
<trkpt lat="48.548878" lon="10.362122">
<ele>377.641</ele>
<time>2020-09-10T11:30:02Z</time>
</trkpt>
<trkpt lat="48.548893" lon="10.362162">
<ele>377.641</ele>
<time>2020-09-10T11:30:03Z</time>
</trkpt>
<trkpt lat="48.548912" lon="10.362206">
<ele>377.641</ele>
<time>2020-09-10T11:30:04Z</time>
</trkpt>
<trkpt lat="48.548935" lon="10.362255">
<ele>377.641</ele>
<time>2020-09-10T11:30:05Z</time>
</trkpt>
<trkpt lat="48.548965" lon="10.362302">
<ele>377.641</ele>
<time>2020-09-10T11:30:06Z</time>
</trkpt>
<trkpt lat="48.548988" lon="10.36235">
<ele>377.641</ele>
<time>2020-09-10T11:30:07Z</time>
</trkpt>
<trkpt lat="48.549015" lon="10.362402">
<ele>377.641</ele>
<time>2020-09-10T11:30:08Z</time>
</trkpt>
<trkpt lat="48.549038" lon="10.362452">
<ele>377.641</ele>
<time>2020-09-10T11:30:09Z</time>
</trkpt>
<trkpt lat="48.549061" lon="10.362505">
<ele>377.641</ele>
<time>2020-09-10T11:30:10Z</time>
</trkpt>
<trkpt lat="48.549084" lon="10.362556">
<ele>377.641</ele>
<time>2020-09-10T11:30:11Z</time>
</trkpt>
<trkpt lat="48.54911" lon="10.362614">
<ele>377.641</ele>
<time>2020-09-10T11:30:12Z</time>
</trkpt>
<trkpt lat="48.549133" lon="10.362666">
<ele>377.641</ele>
<time>2020-09-10T11:30:13Z</time>
</trkpt>
<trkpt lat="48.549152" lon="10.362717">
<ele>377.641</ele>
<time>2020-09-10T11:30:14Z</time>
</trkpt>
<trkpt lat="48.549164" lon="10.362766">
<ele>377.641</ele>
<time>2020-09-10T11:30:15Z</time>
</trkpt>
<trkpt lat="48.549183" lon="10.362819">
<ele>377.641</ele>
<time>2020-09-10T11:30:16Z</time>
</trkpt>
<trkpt lat="48.549202" lon="10.362869">
<ele>377.641</ele>
<time>2020-09-10T11:30:17Z</time>
</trkpt>
<trkpt lat="48.549217" lon="10.362917">
<ele>377.641</ele>
<time>2020-09-10T11:30:18Z</time>
</trkpt>
<trkpt lat="48.549232" lon="10.362966">
<ele>377.641</ele>
<time>2020-09-10T11:30:19Z</time>
</trkpt>
<trkpt lat="48.549248" lon="10.363007">
<ele>377.641</ele>
<time>2020-09-10T11:30:20Z</time>
</trkpt>
<trkpt lat="48.549259" lon="10.363045">
<ele>377.641</ele>
<time>2020-09-10T11:30:21Z</time>
</trkpt>
<trkpt lat="48.549267" lon="10.363083">
<ele>377.641</ele>
<time>2020-09-10T11:30:22Z</time>
</trkpt>
<trkpt lat="48.549271" lon="10.363123">
<ele>377.641</ele>
<time>2020-09-10T11:30:23Z</time>
</trkpt>
<trkpt lat="48.549267" lon="10.363171">
<ele>377.641</ele>
<time>2020-09-10T11:30:24Z</time>
</trkpt>
<trkpt lat="48.549263" lon="10.363223">
<ele>377.641</ele>
<time>2020-09-10T11:30:25Z</time>
</trkpt>
<trkpt lat="48.549252" lon="10.363276">
<ele>377.329</ele>
<time>2020-09-10T11:30:26Z</time>
</trkpt>
<trkpt lat="48.549244" lon="10.363319">
<ele>377.081</ele>
<time>2020-09-10T11:30:27Z</time>
</trkpt>
<trkpt lat="48.54924" lon="10.363363">
<ele>376.884</ele>
<time>2020-09-10T11:30:28Z</time>
</trkpt>
<trkpt lat="48.54924" lon="10.363412">
<ele>376.746</ele>
<time>2020-09-10T11:30:29Z</time>
</trkpt>
<trkpt lat="48.549244" lon="10.36346">
<ele>376.647</ele>
<time>2020-09-10T11:30:30Z</time>
</trkpt>
<trkpt lat="48.549244" lon="10.363519">
<ele>376.592</ele>
<time>2020-09-10T11:30:31Z</time>
</trkpt>
<trkpt lat="48.549248" lon="10.363571">
<ele>376.551</ele>
<time>2020-09-10T11:30:32Z</time>
</trkpt>
<trkpt lat="48.549248" lon="10.363628">
<ele>376.521</ele>
<time>2020-09-10T11:30:33Z</time>
</trkpt>
<trkpt lat="48.549244" lon="10.363687">
<ele>376.521</ele>
<time>2020-09-10T11:30:34Z</time>
</trkpt>
<trkpt lat="48.549248" lon="10.363732">
<ele>376.521</ele>
<time>2020-09-10T11:30:35Z</time>
</trkpt>
<trkpt lat="48.549255" lon="10.363785">
<ele>376.521</ele>
<time>2020-09-10T11:30:36Z</time>
</trkpt>
<trkpt lat="48.549252" lon="10.363862">
<ele>376.521</ele>
<time>2020-09-10T11:30:37Z</time>
</trkpt>
<trkpt lat="48.549252" lon="10.363921">
<ele>376.521</ele>
<time>2020-09-10T11:30:38Z</time>
</trkpt>
<trkpt lat="48.549244" lon="10.363986">
<ele>376.521</ele>
<time>2020-09-10T11:30:39Z</time>
</trkpt>
<trkpt lat="48.549252" lon="10.364057">
<ele>376.521</ele>
<time>2020-09-10T11:30:40Z</time>
</trkpt>
<trkpt lat="48.549252" lon="10.364137">
<ele>376.521</ele>
<time>2020-09-10T11:30:41Z</time>
</trkpt>
<trkpt lat="48.549252" lon="10.36421">
<ele>376.522</ele>
<time>2020-09-10T11:30:42Z</time>
</trkpt>
<trkpt lat="48.549255" lon="10.364284">
<ele>376.521</ele>
<time>2020-09-10T11:30:43Z</time>
</trkpt>
<trkpt lat="48.549255" lon="10.364371">
<ele>376.521</ele>
<time>2020-09-10T11:30:44Z</time>
</trkpt>
<trkpt lat="48.549259" lon="10.36444">
<ele>376.521</ele>
<time>2020-09-10T11:30:45Z</time>
</trkpt>
<trkpt lat="48.549263" lon="10.364511">
<ele>376.521</ele>
<time>2020-09-10T11:30:46Z</time>
</trkpt>
<trkpt lat="48.549267" lon="10.364605">
<ele>376.521</ele>
<time>2020-09-10T11:30:47Z</time>
</trkpt>
<trkpt lat="48.549282" lon="10.364679">
<ele>376.521</ele>
<time>2020-09-10T11:30:48Z</time>
</trkpt>
<trkpt lat="48.549286" lon="10.364774">
<ele>376.521</ele>
<time>2020-09-10T11:30:49Z</time>
</trkpt>
<trkpt lat="48.549305" lon="10.364857">
<ele>376.521</ele>
<time>2020-09-10T11:30:50Z</time>
</trkpt>
<trkpt lat="48.549324" lon="10.364953">
<ele>376.521</ele>
<time>2020-09-10T11:30:51Z</time>
</trkpt>
<trkpt lat="48.549343" lon="10.365044">
<ele>376.521</ele>
<time>2020-09-10T11:30:52Z</time>
</trkpt>
<trkpt lat="48.549358" lon="10.365126">
<ele>376.521</ele>
<time>2020-09-10T11:30:53Z</time>
</trkpt>
<trkpt lat="48.549374" lon="10.365192">
<ele>376.521</ele>
<time>2020-09-10T11:30:54Z</time>
</trkpt>
<trkpt lat="48.549397" lon="10.365268">
<ele>376.521</ele>
<time>2020-09-10T11:30:55Z</time>
</trkpt>
<trkpt lat="48.549408" lon="10.365339">
<ele>376.521</ele>
<time>2020-09-10T11:30:56Z</time>
</trkpt>
<trkpt lat="48.549427" lon="10.365415">
<ele>376.521</ele>
<time>2020-09-10T11:30:57Z</time>
</trkpt>
<trkpt lat="48.54945" lon="10.365485">
<ele>376.521</ele>
<time>2020-09-10T11:30:58Z</time>
</trkpt>
<trkpt lat="48.549461" lon="10.365553">
<ele>376.521</ele>
<time>2020-09-10T11:30:59Z</time>
</trkpt>
<trkpt lat="48.549484" lon="10.365623">
<ele>376.521</ele>
<time>2020-09-10T11:31:00Z</time>
</trkpt>
<trkpt lat="48.549511" lon="10.365685">
<ele>376.521</ele>
<time>2020-09-10T11:31:01Z</time>
</trkpt>
<trkpt lat="48.549534" lon="10.365742">
<ele>376.521</ele>
<time>2020-09-10T11:31:02Z</time>
</trkpt>
<trkpt lat="48.549561" lon="10.365798">
<ele>376.521</ele>
<time>2020-09-10T11:31:03Z</time>
</trkpt>
<trkpt lat="48.549595" lon="10.365863">
<ele>376.521</ele>
<time>2020-09-10T11:31:04Z</time>
</trkpt>
<trkpt lat="48.549622" lon="10.365934">
<ele>376.521</ele>
<time>2020-09-10T11:31:05Z</time>
</trkpt>
<trkpt lat="48.549637" lon="10.365992">
<ele>376.521</ele>
<time>2020-09-10T11:31:06Z</time>
</trkpt>
<trkpt lat="48.549652" lon="10.366052">
<ele>376.521</ele>
<time>2020-09-10T11:31:07Z</time>
</trkpt>
<trkpt lat="48.549667" lon="10.366117">
<ele>376.521</ele>
<time>2020-09-10T11:31:08Z</time>
</trkpt>
<trkpt lat="48.549679" lon="10.366173">
<ele>376.521</ele>
<time>2020-09-10T11:31:09Z</time>
</trkpt>
<trkpt lat="48.549694" lon="10.366237">
<ele>376.521</ele>
<time>2020-09-10T11:31:10Z</time>
</trkpt>
<trkpt lat="48.549709" lon="10.366301">
<ele>376.521</ele>
<time>2020-09-10T11:31:11Z</time>
</trkpt>
<trkpt lat="48.549728" lon="10.366368">
<ele>376.521</ele>
<time>2020-09-10T11:31:12Z</time>
</trkpt>
<trkpt lat="48.549744" lon="10.366435">
<ele>376.521</ele>
<time>2020-09-10T11:31:13Z</time>
</trkpt>
<trkpt lat="48.549759" lon="10.366505">
<ele>376.521</ele>
<time>2020-09-10T11:31:14Z</time>
</trkpt>
<trkpt lat="48.549774" lon="10.366569">
<ele>376.521</ele>
<time>2020-09-10T11:31:15Z</time>
</trkpt>
<trkpt lat="48.549793" lon="10.366633">
<ele>376.521</ele>
<time>2020-09-10T11:31:16Z</time>
</trkpt>
<trkpt lat="48.549812" lon="10.366696">
<ele>376.521</ele>
<time>2020-09-10T11:31:17Z</time>
</trkpt>
<trkpt lat="48.549835" lon="10.36675">
<ele>376.521</ele>
<time>2020-09-10T11:31:18Z</time>
</trkpt>
<trkpt lat="48.549858" lon="10.366796">
<ele>376.521</ele>
<time>2020-09-10T11:31:19Z</time>
</trkpt>
<trkpt lat="48.549881" lon="10.366831">
<ele>376.521</ele>
<time>2020-09-10T11:31:20Z</time>
</trkpt>
<trkpt lat="48.549896" lon="10.366862">
<ele>376.521</ele>
<time>2020-09-10T11:31:21Z</time>
</trkpt>
<trkpt lat="48.549904" lon="10.366881">
<ele>376.521</ele>
<time>2020-09-10T11:31:22Z</time>
</trkpt>
<trkpt lat="48.549908" lon="10.366885">
<ele>376.521</ele>
<time>2020-09-10T11:31:23Z</time>
</trkpt>
<trkpt lat="48.549911" lon="10.36689">
<ele>376.521</ele>
<time>2020-09-10T11:31:24Z</time>
</trkpt>
<trkpt lat="48.549915" lon="10.366892">
<ele>376.521</ele>
<time>2020-09-10T11:31:25Z</time>
</trkpt>
<trkpt lat="48.549919" lon="10.366923">
<ele>376.521</ele>
<time>2020-09-10T11:31:34Z</time>
</trkpt>
<trkpt lat="48.549923" lon="10.366936">
<ele>376.703</ele>
<time>2020-09-10T11:31:35Z</time>
</trkpt>
<trkpt lat="48.549923" lon="10.36694">
<ele>376.871</ele>
<time>2020-09-10T11:31:36Z</time>
</trkpt>
<trkpt lat="48.549919" lon="10.366941">
<ele>377.039</ele>
<time>2020-09-10T11:31:37Z</time>
</trkpt>
<trkpt lat="48.549915" lon="10.366946">
<ele>376.995</ele>
<time>2020-09-10T11:31:38Z</time>
</trkpt>
<trkpt lat="48.549911" lon="10.366953">
<ele>376.945</ele>
<time>2020-09-10T11:31:39Z</time>
</trkpt>
<trkpt lat="48.5499" lon="10.36697">
<ele>376.943</ele>
<time>2020-09-10T11:31:40Z</time>
</trkpt>
<trkpt lat="48.549885" lon="10.366988">
<ele>376.83</ele>
<time>2020-09-10T11:31:41Z</time>
</trkpt>
<trkpt lat="48.54987" lon="10.367006">
<ele>376.742</ele>
<time>2020-09-10T11:31:42Z</time>
</trkpt>
<trkpt lat="48.54985" lon="10.367034">
<ele>376.609</ele>
<time>2020-09-10T11:31:43Z</time>
</trkpt>
<trkpt lat="48.549824" lon="10.367062">
<ele>376.54</ele>
<time>2020-09-10T11:31:44Z</time>
</trkpt>
<trkpt lat="48.549793" lon="10.367093">
<ele>376.525</ele>
<time>2020-09-10T11:31:45Z</time>
</trkpt>
<trkpt lat="48.549763" lon="10.367126">
<ele>376.521</ele>
<time>2020-09-10T11:31:46Z</time>
</trkpt>
<trkpt lat="48.549728" lon="10.367165">
<ele>376.521</ele>
<time>2020-09-10T11:31:47Z</time>
</trkpt>
<trkpt lat="48.54969" lon="10.367202">
<ele>376.521</ele>
<time>2020-09-10T11:31:48Z</time>
</trkpt>
<trkpt lat="48.549652" lon="10.367242">
<ele>376.521</ele>
<time>2020-09-10T11:31:49Z</time>
</trkpt>
<trkpt lat="48.549606" lon="10.367279">
<ele>376.521</ele>
<time>2020-09-10T11:31:50Z</time>
</trkpt>
<trkpt lat="48.549561" lon="10.367311">
<ele>376.521</ele>
<time>2020-09-10T11:31:51Z</time>
</trkpt>
<trkpt lat="48.549519" lon="10.367344">
<ele>376.521</ele>
<time>2020-09-10T11:31:52Z</time>
</trkpt>
<trkpt lat="48.549473" lon="10.367372">
<ele>376.521</ele>
<time>2020-09-10T11:31:53Z</time>
</trkpt>
<trkpt lat="48.549423" lon="10.367396">
<ele>376.521</ele>
<time>2020-09-10T11:31:54Z</time>
</trkpt>
<trkpt lat="48.549374" lon="10.367418">
<ele>376.521</ele>
<time>2020-09-10T11:31:55Z</time>
</trkpt>
<trkpt lat="48.549328" lon="10.367438">
<ele>376.521</ele>
<time>2020-09-10T11:31:56Z</time>
</trkpt>
<trkpt lat="48.549274" lon="10.367458">
<ele>376.521</ele>
<time>2020-09-10T11:31:57Z</time>
</trkpt>
<trkpt lat="48.549221" lon="10.367475">
<ele>376.521</ele>
<time>2020-09-10T11:31:58Z</time>
</trkpt>
<trkpt lat="48.549168" lon="10.367493">
<ele>376.521</ele>
<time>2020-09-10T11:31:59Z</time>
</trkpt>
<trkpt lat="48.549118" lon="10.367514">
<ele>376.521</ele>
<time>2020-09-10T11:32:00Z</time>
</trkpt>
<trkpt lat="48.549065" lon="10.367533">
<ele>376.521</ele>
<time>2020-09-10T11:32:01Z</time>
</trkpt>
<trkpt lat="48.549011" lon="10.367552">
<ele>376.521</ele>
<time>2020-09-10T11:32:02Z</time>
</trkpt>
<trkpt lat="48.548962" lon="10.36757">
<ele>376.521</ele>
<time>2020-09-10T11:32:03Z</time>
</trkpt>
<trkpt lat="48.548908" lon="10.367587">
<ele>376.521</ele>
<time>2020-09-10T11:32:04Z</time>
</trkpt>
<trkpt lat="48.548862" lon="10.367603">
<ele>376.521</ele>
<time>2020-09-10T11:32:05Z</time>
</trkpt>
<trkpt lat="48.548813" lon="10.367619">
<ele>376.521</ele>
<time>2020-09-10T11:32:06Z</time>
</trkpt>
<trkpt lat="48.548767" lon="10.36763">
<ele>376.521</ele>
<time>2020-09-10T11:32:07Z</time>
</trkpt>
<trkpt lat="48.548717" lon="10.367645">
<ele>376.521</ele>
<time>2020-09-10T11:32:08Z</time>
</trkpt>
<trkpt lat="48.548668" lon="10.367659">
<ele>376.521</ele>
<time>2020-09-10T11:32:09Z</time>
</trkpt>
<trkpt lat="48.548622" lon="10.36767">
<ele>376.521</ele>
<time>2020-09-10T11:32:10Z</time>
</trkpt>
<trkpt lat="48.54858" lon="10.36768">
<ele>376.521</ele>
<time>2020-09-10T11:32:11Z</time>
</trkpt>
<trkpt lat="48.548538" lon="10.367692">
<ele>376.521</ele>
<time>2020-09-10T11:32:12Z</time>
</trkpt>
<trkpt lat="48.548496" lon="10.367702">
<ele>376.521</ele>
<time>2020-09-10T11:32:13Z</time>
</trkpt>
<trkpt lat="48.548454" lon="10.367713">
<ele>376.521</ele>
<time>2020-09-10T11:32:14Z</time>
</trkpt>
<trkpt lat="48.548416" lon="10.367723">
<ele>376.521</ele>
<time>2020-09-10T11:32:15Z</time>
</trkpt>
<trkpt lat="48.548378" lon="10.36773">
<ele>376.521</ele>
<time>2020-09-10T11:32:16Z</time>
</trkpt>
<trkpt lat="48.54834" lon="10.367736">
<ele>376.521</ele>
<time>2020-09-10T11:32:17Z</time>
</trkpt>
<trkpt lat="48.548298" lon="10.367744">
<ele>376.521</ele>
<time>2020-09-10T11:32:18Z</time>
</trkpt>
<trkpt lat="48.548252" lon="10.367752">
<ele>376.521</ele>
<time>2020-09-10T11:32:19Z</time>
</trkpt>
<trkpt lat="48.548214" lon="10.367759">
<ele>376.521</ele>
<time>2020-09-10T11:32:20Z</time>
</trkpt>
<trkpt lat="48.548172" lon="10.367767">
<ele>376.521</ele>
<time>2020-09-10T11:32:21Z</time>
</trkpt>
<trkpt lat="48.548126" lon="10.367771">
<ele>376.521</ele>
<time>2020-09-10T11:32:22Z</time>
</trkpt>
<trkpt lat="48.548088" lon="10.367776">
<ele>376.521</ele>
<time>2020-09-10T11:32:23Z</time>
</trkpt>
<trkpt lat="48.548038" lon="10.367782">
<ele>376.521</ele>
<time>2020-09-10T11:32:24Z</time>
</trkpt>
<trkpt lat="48.547993" lon="10.367786">
<ele>376.521</ele>
<time>2020-09-10T11:32:25Z</time>
</trkpt>
<trkpt lat="48.547951" lon="10.36779">
<ele>376.521</ele>
<time>2020-09-10T11:32:26Z</time>
</trkpt>
<trkpt lat="48.547905" lon="10.367793">
<ele>376.521</ele>
<time>2020-09-10T11:32:27Z</time>
</trkpt>
<trkpt lat="48.547859" lon="10.367799">
<ele>376.521</ele>
<time>2020-09-10T11:32:28Z</time>
</trkpt>
<trkpt lat="48.547817" lon="10.367805">
<ele>376.521</ele>
<time>2020-09-10T11:32:29Z</time>
</trkpt>
<trkpt lat="48.547771" lon="10.367805">
<ele>376.521</ele>
<time>2020-09-10T11:32:30Z</time>
</trkpt>
<trkpt lat="48.547726" lon="10.367806">
<ele>376.521</ele>
<time>2020-09-10T11:32:31Z</time>
</trkpt>
<trkpt lat="48.54768" lon="10.367808">
<ele>376.521</ele>
<time>2020-09-10T11:32:32Z</time>
</trkpt>
<trkpt lat="48.547642" lon="10.367813">
<ele>376.521</ele>
<time>2020-09-10T11:32:33Z</time>
</trkpt>
<trkpt lat="48.547607" lon="10.367815">
<ele>376.521</ele>
<time>2020-09-10T11:32:34Z</time>
</trkpt>
<trkpt lat="48.547569" lon="10.367818">
<ele>376.521</ele>
<time>2020-09-10T11:32:35Z</time>
</trkpt>
<trkpt lat="48.547535" lon="10.36782">
<ele>376.521</ele>
<time>2020-09-10T11:32:36Z</time>
</trkpt>
<trkpt lat="48.547501" lon="10.367822">
<ele>376.521</ele>
<time>2020-09-10T11:32:37Z</time>
</trkpt>
<trkpt lat="48.547466" lon="10.367822">
<ele>376.521</ele>
<time>2020-09-10T11:32:38Z</time>
</trkpt>
<trkpt lat="48.547424" lon="10.367824">
<ele>376.521</ele>
<time>2020-09-10T11:32:39Z</time>
</trkpt>
<trkpt lat="48.547382" lon="10.367826">
<ele>376.521</ele>
<time>2020-09-10T11:32:40Z</time>
</trkpt>
<trkpt lat="48.54734" lon="10.367826">
<ele>376.521</ele>
<time>2020-09-10T11:32:41Z</time>
</trkpt>
<trkpt lat="48.547302" lon="10.367826">
<ele>376.521</ele>
<time>2020-09-10T11:32:42Z</time>
</trkpt>
<trkpt lat="48.547256" lon="10.367828">
<ele>376.521</ele>
<time>2020-09-10T11:32:43Z</time>
</trkpt>
<trkpt lat="48.547211" lon="10.36783">
<ele>376.521</ele>
<time>2020-09-10T11:32:44Z</time>
</trkpt>
<trkpt lat="48.547176" lon="10.367833">
<ele>376.521</ele>
<time>2020-09-10T11:32:45Z</time>
</trkpt>
<trkpt lat="48.547134" lon="10.367835">
<ele>376.521</ele>
<time>2020-09-10T11:32:46Z</time>
</trkpt>
<trkpt lat="48.5471" lon="10.367835">
<ele>376.521</ele>
<time>2020-09-10T11:32:47Z</time>
</trkpt>
<trkpt lat="48.547062" lon="10.367835">
<ele>376.73</ele>
<time>2020-09-10T11:32:48Z</time>
</trkpt>
<trkpt lat="48.54702" lon="10.367837">
<ele>376.898</ele>
<time>2020-09-10T11:32:49Z</time>
</trkpt>
<trkpt lat="48.546982" lon="10.367842">
<ele>377.012</ele>
<time>2020-09-10T11:32:50Z</time>
</trkpt>
<trkpt lat="48.546936" lon="10.367843">
<ele>377.14</ele>
<time>2020-09-10T11:32:51Z</time>
</trkpt>
<trkpt lat="48.546894" lon="10.367843">
<ele>377.243</ele>
<time>2020-09-10T11:32:52Z</time>
</trkpt>
<trkpt lat="48.546852" lon="10.367845">
<ele>377.316</ele>
<time>2020-09-10T11:32:53Z</time>
</trkpt>
<trkpt lat="48.546814" lon="10.367849">
<ele>377.362</ele>
<time>2020-09-10T11:32:54Z</time>
</trkpt>
<trkpt lat="48.546772" lon="10.367849">
<ele>377.383</ele>
<time>2020-09-10T11:32:55Z</time>
</trkpt>
<trkpt lat="48.54673" lon="10.367848">
<ele>377.383</ele>
<time>2020-09-10T11:32:56Z</time>
</trkpt>
<trkpt lat="48.546692" lon="10.367848">
<ele>377.383</ele>
<time>2020-09-10T11:32:57Z</time>
</trkpt>
<trkpt lat="48.546654" lon="10.367849">
<ele>377.383</ele>
<time>2020-09-10T11:32:58Z</time>
</trkpt>
<trkpt lat="48.546612" lon="10.367849">
<ele>377.383</ele>
<time>2020-09-10T11:32:59Z</time>
</trkpt>
<trkpt lat="48.546574" lon="10.367848">
<ele>377.383</ele>
<time>2020-09-10T11:33:00Z</time>
</trkpt>
<trkpt lat="48.546535" lon="10.367848">
<ele>377.383</ele>
<time>2020-09-10T11:33:01Z</time>
</trkpt>
<trkpt lat="48.546494" lon="10.367846">
<ele>377.383</ele>
<time>2020-09-10T11:33:02Z</time>
</trkpt>
<trkpt lat="48.546459" lon="10.367846">
<ele>377.383</ele>
<time>2020-09-10T11:33:03Z</time>
</trkpt>
<trkpt lat="48.546417" lon="10.367849">
<ele>377.383</ele>
<time>2020-09-10T11:33:04Z</time>
</trkpt>
<trkpt lat="48.546375" lon="10.367851">
<ele>377.383</ele>
<time>2020-09-10T11:33:05Z</time>
</trkpt>
<trkpt lat="48.546333" lon="10.367851">
<ele>377.383</ele>
<time>2020-09-10T11:33:06Z</time>
</trkpt>
<trkpt lat="48.546291" lon="10.367849">
<ele>377.383</ele>
<time>2020-09-10T11:33:07Z</time>
</trkpt>
<trkpt lat="48.546253" lon="10.367845">
<ele>377.383</ele>
<time>2020-09-10T11:33:08Z</time>
</trkpt>
<trkpt lat="48.546215" lon="10.367841">
<ele>377.383</ele>
<time>2020-09-10T11:33:09Z</time>
</trkpt>
<trkpt lat="48.546181" lon="10.367835">
<ele>377.383</ele>
<time>2020-09-10T11:33:10Z</time>
</trkpt>
<trkpt lat="48.546146" lon="10.367832">
<ele>377.383</ele>
<time>2020-09-10T11:33:11Z</time>
</trkpt>
<trkpt lat="48.546112" lon="10.367828">
<ele>377.383</ele>
<time>2020-09-10T11:33:12Z</time>
</trkpt>
<trkpt lat="48.546078" lon="10.367822">
<ele>377.383</ele>
<time>2020-09-10T11:33:13Z</time>
</trkpt>
<trkpt lat="48.546036" lon="10.367813">
<ele>377.383</ele>
<time>2020-09-10T11:33:14Z</time>
</trkpt>
<trkpt lat="48.546001" lon="10.367806">
<ele>377.383</ele>
<time>2020-09-10T11:33:15Z</time>
</trkpt>
<trkpt lat="48.545959" lon="10.367802">
<ele>377.383</ele>
<time>2020-09-10T11:33:16Z</time>
</trkpt>
<trkpt lat="48.545918" lon="10.367797">
<ele>377.634</ele>
<time>2020-09-10T11:33:17Z</time>
</trkpt>
<trkpt lat="48.545879" lon="10.36779">
<ele>377.828</ele>
<time>2020-09-10T11:33:18Z</time>
</trkpt>
<trkpt lat="48.545845" lon="10.367784">
<ele>377.98</ele>
<time>2020-09-10T11:33:19Z</time>
</trkpt>
<trkpt lat="48.545811" lon="10.367775">
<ele>378.077</ele>
<time>2020-09-10T11:33:20Z</time>
</trkpt>
<trkpt lat="48.54578" lon="10.367765">
<ele>378.178</ele>
<time>2020-09-10T11:33:21Z</time>
</trkpt>
<trkpt lat="48.54575" lon="10.367748">
<ele>378.252</ele>
<time>2020-09-10T11:33:22Z</time>
</trkpt>
<trkpt lat="48.545727" lon="10.36773">
<ele>378.304</ele>
<time>2020-09-10T11:33:23Z</time>
</trkpt>
<trkpt lat="48.545704" lon="10.36772">
<ele>378.33</ele>
<time>2020-09-10T11:33:24Z</time>
</trkpt>
<trkpt lat="48.545685" lon="10.367711">
<ele>378.33</ele>
<time>2020-09-10T11:33:25Z</time>
</trkpt>
<trkpt lat="48.545677" lon="10.367708">
<ele>378.33</ele>
<time>2020-09-10T11:33:26Z</time>
</trkpt>
<trkpt lat="48.545673" lon="10.367708">
<ele>378.33</ele>
<time>2020-09-10T11:33:27Z</time>
</trkpt>
<trkpt lat="48.545677" lon="10.367708">
<ele>378.33</ele>
<time>2020-09-10T11:33:28Z</time>
</trkpt>
<trkpt lat="48.545681" lon="10.367755">
<ele>378.33</ele>
<time>2020-09-10T11:34:20Z</time>
</trkpt>
<trkpt lat="48.545681" lon="10.36778">
<ele>378.293</ele>
<time>2020-09-10T11:34:21Z</time>
</trkpt>
<trkpt lat="48.545689" lon="10.367805">
<ele>378.253</ele>
<time>2020-09-10T11:34:22Z</time>
</trkpt>
<trkpt lat="48.545708" lon="10.367826">
<ele>378.213</ele>
<time>2020-09-10T11:34:23Z</time>
</trkpt>
<trkpt lat="48.545734" lon="10.367845">
<ele>378.178</ele>
<time>2020-09-10T11:34:24Z</time>
</trkpt>
<trkpt lat="48.545769" lon="10.367857">
<ele>378.161</ele>
<time>2020-09-10T11:34:25Z</time>
</trkpt>
<trkpt lat="48.545807" lon="10.367862">
<ele>378.159</ele>
<time>2020-09-10T11:34:26Z</time>
</trkpt>
<trkpt lat="48.545849" lon="10.367867">
<ele>378.158</ele>
<time>2020-09-10T11:34:27Z</time>
</trkpt>
<trkpt lat="48.545891" lon="10.367874">
<ele>378.157</ele>
<time>2020-09-10T11:34:28Z</time>
</trkpt>
<trkpt lat="48.545937" lon="10.36788">
<ele>378.157</ele>
<time>2020-09-10T11:34:29Z</time>
</trkpt>
<trkpt lat="48.545982" lon="10.367888">
<ele>378.157</ele>
<time>2020-09-10T11:34:30Z</time>
</trkpt>
<trkpt lat="48.546032" lon="10.367897">
<ele>378.419</ele>
<time>2020-09-10T11:34:31Z</time>
</trkpt>
<trkpt lat="48.546078" lon="10.367906">
<ele>378.613</ele>
<time>2020-09-10T11:34:32Z</time>
</trkpt>
<trkpt lat="48.546127" lon="10.367913">
<ele>378.765</ele>
<time>2020-09-10T11:34:33Z</time>
</trkpt>
<trkpt lat="48.546169" lon="10.36792">
<ele>378.681</ele>
<time>2020-09-10T11:34:34Z</time>
</trkpt>
<trkpt lat="48.546219" lon="10.367925">
<ele>378.611</ele>
<time>2020-09-10T11:34:35Z</time>
</trkpt>
<trkpt lat="48.546265" lon="10.367931">
<ele>378.545</ele>
<time>2020-09-10T11:34:36Z</time>
</trkpt>
<trkpt lat="48.54631" lon="10.367937">
<ele>378.482</ele>
<time>2020-09-10T11:34:37Z</time>
</trkpt>
<trkpt lat="48.54636" lon="10.367942">
<ele>378.42</ele>
<time>2020-09-10T11:34:38Z</time>
</trkpt>
<trkpt lat="48.546406" lon="10.367948">
<ele>378.37</ele>
<time>2020-09-10T11:34:39Z</time>
</trkpt>
<trkpt lat="48.546459" lon="10.367953">
<ele>378.317</ele>
<time>2020-09-10T11:34:40Z</time>
</trkpt>
<trkpt lat="48.546509" lon="10.367955">
<ele>378.267</ele>
<time>2020-09-10T11:34:41Z</time>
</trkpt>
<trkpt lat="48.546558" lon="10.367951">
<ele>378.244</ele>
<time>2020-09-10T11:34:42Z</time>
</trkpt>
<trkpt lat="48.546616" lon="10.367949">
<ele>378.244</ele>
<time>2020-09-10T11:34:43Z</time>
</trkpt>
<trkpt lat="48.546665" lon="10.367948">
<ele>378.244</ele>
<time>2020-09-10T11:34:44Z</time>
</trkpt>
<trkpt lat="48.546719" lon="10.367948">
<ele>378.244</ele>
<time>2020-09-10T11:34:45Z</time>
</trkpt>
<trkpt lat="48.546772" lon="10.367948">
<ele>378.244</ele>
<time>2020-09-10T11:34:46Z</time>
</trkpt>
<trkpt lat="48.546829" lon="10.367948">
<ele>378.244</ele>
<time>2020-09-10T11:34:47Z</time>
</trkpt>
<trkpt lat="48.546886" lon="10.367948">
<ele>378.244</ele>
<time>2020-09-10T11:34:48Z</time>
</trkpt>
<trkpt lat="48.546947" lon="10.367946">
<ele>378.244</ele>
<time>2020-09-10T11:34:49Z</time>
</trkpt>
<trkpt lat="48.547005" lon="10.367942">
<ele>378.244</ele>
<time>2020-09-10T11:34:50Z</time>
</trkpt>
<trkpt lat="48.547066" lon="10.367939">
<ele>378.244</ele>
<time>2020-09-10T11:34:51Z</time>
</trkpt>
<trkpt lat="48.547123" lon="10.367933">
<ele>378.244</ele>
<time>2020-09-10T11:34:52Z</time>
</trkpt>
<trkpt lat="48.547184" lon="10.36793">
<ele>377.962</ele>
<time>2020-09-10T11:34:53Z</time>
</trkpt>
<trkpt lat="48.547245" lon="10.367927">
<ele>377.749</ele>
<time>2020-09-10T11:34:54Z</time>
</trkpt>
<trkpt lat="48.547306" lon="10.367927">
<ele>377.591</ele>
<time>2020-09-10T11:34:55Z</time>
</trkpt>
<trkpt lat="48.547367" lon="10.367925">
<ele>377.474</ele>
<time>2020-09-10T11:34:56Z</time>
</trkpt>
<trkpt lat="48.547424" lon="10.367923">
<ele>377.393</ele>
<time>2020-09-10T11:34:57Z</time>
</trkpt>
<trkpt lat="48.547482" lon="10.36792">
<ele>377.343</ele>
<time>2020-09-10T11:34:58Z</time>
</trkpt>
<trkpt lat="48.547543" lon="10.367916">
<ele>377.319</ele>
<time>2020-09-10T11:34:59Z</time>
</trkpt>
<trkpt lat="48.5476" lon="10.367913">
<ele>377.297</ele>
<time>2020-09-10T11:35:00Z</time>
</trkpt>
<trkpt lat="48.547661" lon="10.367913">
<ele>377.297</ele>
<time>2020-09-10T11:35:01Z</time>
</trkpt>
<trkpt lat="48.547718" lon="10.367913">
<ele>377.297</ele>
<time>2020-09-10T11:35:02Z</time>
</trkpt>
<trkpt lat="48.547771" lon="10.367911">
<ele>377.297</ele>
<time>2020-09-10T11:35:03Z</time>
</trkpt>
<trkpt lat="48.547829" lon="10.367908">
<ele>377.297</ele>
<time>2020-09-10T11:35:04Z</time>
</trkpt>
<trkpt lat="48.547894" lon="10.367906">
<ele>377.297</ele>
<time>2020-09-10T11:35:05Z</time>
</trkpt>
<trkpt lat="48.547951" lon="10.367902">
<ele>377.297</ele>
<time>2020-09-10T11:35:06Z</time>
</trkpt>
<trkpt lat="48.548008" lon="10.3679">
<ele>377.297</ele>
<time>2020-09-10T11:35:07Z</time>
</trkpt>
<trkpt lat="48.548065" lon="10.367898">
<ele>377.297</ele>
<time>2020-09-10T11:35:08Z</time>
</trkpt>
<trkpt lat="48.548122" lon="10.367893">
<ele>377.297</ele>
<time>2020-09-10T11:35:09Z</time>
</trkpt>
<trkpt lat="48.54818" lon="10.367888">
<ele>377.297</ele>
<time>2020-09-10T11:35:10Z</time>
</trkpt>
<trkpt lat="48.548233" lon="10.367883">
<ele>377.297</ele>
<time>2020-09-10T11:35:11Z</time>
</trkpt>
<trkpt lat="48.54829" lon="10.367878">
<ele>377.297</ele>
<time>2020-09-10T11:35:12Z</time>
</trkpt>
<trkpt lat="48.548347" lon="10.367872">
<ele>377.297</ele>
<time>2020-09-10T11:35:13Z</time>
</trkpt>
<trkpt lat="48.548401" lon="10.367864">
<ele>377.011</ele>
<time>2020-09-10T11:35:14Z</time>
</trkpt>
<trkpt lat="48.54845" lon="10.367855">
<ele>376.786</ele>
<time>2020-09-10T11:35:15Z</time>
</trkpt>
<trkpt lat="48.548508" lon="10.367845">
<ele>376.614</ele>
<time>2020-09-10T11:35:16Z</time>
</trkpt>
<trkpt lat="48.548557" lon="10.367832">
<ele>376.488</ele>
<time>2020-09-10T11:35:17Z</time>
</trkpt>
<trkpt lat="48.548611" lon="10.36782">
<ele>376.399</ele>
<time>2020-09-10T11:35:18Z</time>
</trkpt>
<trkpt lat="48.54866" lon="10.367806">
<ele>376.339</ele>
<time>2020-09-10T11:35:19Z</time>
</trkpt>
<trkpt lat="48.548714" lon="10.367792">
<ele>376.293</ele>
<time>2020-09-10T11:35:20Z</time>
</trkpt>
<trkpt lat="48.548767" lon="10.367775">
<ele>376.263</ele>
<time>2020-09-10T11:35:21Z</time>
</trkpt>
<trkpt lat="48.548817" lon="10.367759">
<ele>376.263</ele>
<time>2020-09-10T11:35:22Z</time>
</trkpt>
<trkpt lat="48.54887" lon="10.367743">
<ele>376.263</ele>
<time>2020-09-10T11:35:23Z</time>
</trkpt>
<trkpt lat="48.548927" lon="10.367725">
<ele>376.263</ele>
<time>2020-09-10T11:35:24Z</time>
</trkpt>
<trkpt lat="48.548977" lon="10.367708">
<ele>376.263</ele>
<time>2020-09-10T11:35:25Z</time>
</trkpt>
<trkpt lat="48.549026" lon="10.367692">
<ele>376.263</ele>
<time>2020-09-10T11:35:26Z</time>
</trkpt>
<trkpt lat="48.549072" lon="10.367677">
<ele>376.263</ele>
<time>2020-09-10T11:35:27Z</time>
</trkpt>
<trkpt lat="48.549122" lon="10.367661">
<ele>376.263</ele>
<time>2020-09-10T11:35:28Z</time>
</trkpt>
<trkpt lat="48.549164" lon="10.367643">
<ele>376.263</ele>
<time>2020-09-10T11:35:29Z</time>
</trkpt>
<trkpt lat="48.549213" lon="10.367623">
<ele>376.263</ele>
<time>2020-09-10T11:35:30Z</time>
</trkpt>
<trkpt lat="48.549263" lon="10.367603">
<ele>376.263</ele>
<time>2020-09-10T11:35:31Z</time>
</trkpt>
<trkpt lat="48.549313" lon="10.367583">
<ele>376.263</ele>
<time>2020-09-10T11:35:32Z</time>
</trkpt>
<trkpt lat="48.549362" lon="10.367562">
<ele>376.263</ele>
<time>2020-09-10T11:35:33Z</time>
</trkpt>
<trkpt lat="48.549412" lon="10.367537">
<ele>376.263</ele>
<time>2020-09-10T11:35:34Z</time>
</trkpt>
<trkpt lat="48.549458" lon="10.367508">
<ele>376.263</ele>
<time>2020-09-10T11:35:35Z</time>
</trkpt>
<trkpt lat="48.549503" lon="10.367476">
<ele>376.263</ele>
<time>2020-09-10T11:35:36Z</time>
</trkpt>
<trkpt lat="48.549553" lon="10.367447">
<ele>376.509</ele>
<time>2020-09-10T11:35:37Z</time>
</trkpt>
<trkpt lat="48.549599" lon="10.367412">
<ele>376.7</ele>
<time>2020-09-10T11:35:38Z</time>
</trkpt>
<trkpt lat="48.549644" lon="10.367376">
<ele>376.846</ele>
<time>2020-09-10T11:35:39Z</time>
</trkpt>
<trkpt lat="48.549686" lon="10.36734">
<ele>376.948</ele>
<time>2020-09-10T11:35:40Z</time>
</trkpt>
<trkpt lat="48.549721" lon="10.367298">
<ele>377.056</ele>
<time>2020-09-10T11:35:41Z</time>
</trkpt>
<trkpt lat="48.549763" lon="10.367256">
<ele>377.135</ele>
<time>2020-09-10T11:35:42Z</time>
</trkpt>
<trkpt lat="48.549797" lon="10.367214">
<ele>377.185</ele>
<time>2020-09-10T11:35:43Z</time>
</trkpt>
<trkpt lat="48.549835" lon="10.367172">
<ele>377.21</ele>
<time>2020-09-10T11:35:44Z</time>
</trkpt>
<trkpt lat="48.54987" lon="10.367128">
<ele>377.21</ele>
<time>2020-09-10T11:35:45Z</time>
</trkpt>
<trkpt lat="48.549908" lon="10.367088">
<ele>377.21</ele>
<time>2020-09-10T11:35:46Z</time>
</trkpt>
<trkpt lat="48.549942" lon="10.367051">
<ele>377.21</ele>
<time>2020-09-10T11:35:47Z</time>
</trkpt>
<trkpt lat="48.549976" lon="10.367017">
<ele>377.21</ele>
<time>2020-09-10T11:35:48Z</time>
</trkpt>
<trkpt lat="48.550011" lon="10.366982">
<ele>377.21</ele>
<time>2020-09-10T11:35:49Z</time>
</trkpt>
<trkpt lat="48.550045" lon="10.366946">
<ele>377.21</ele>
<time>2020-09-10T11:35:50Z</time>
</trkpt>
<trkpt lat="48.550076" lon="10.366917">
<ele>377.21</ele>
<time>2020-09-10T11:35:51Z</time>
</trkpt>
<trkpt lat="48.550095" lon="10.366888">
<ele>377.21</ele>
<time>2020-09-10T11:35:52Z</time>
</trkpt>
<trkpt lat="48.550114" lon="10.36686">
<ele>377.21</ele>
<time>2020-09-10T11:35:53Z</time>
</trkpt>
<trkpt lat="48.55014" lon="10.366829">
<ele>377.21</ele>
<time>2020-09-10T11:35:54Z</time>
</trkpt>
<trkpt lat="48.550163" lon="10.366797">
<ele>377.21</ele>
<time>2020-09-10T11:35:55Z</time>
</trkpt>
<trkpt lat="48.55019" lon="10.366763">
<ele>377.21</ele>
<time>2020-09-10T11:35:56Z</time>
</trkpt>
<trkpt lat="48.550217" lon="10.366724">
<ele>377.21</ele>
<time>2020-09-10T11:35:57Z</time>
</trkpt>
<trkpt lat="48.550247" lon="10.366684">
<ele>377.21</ele>
<time>2020-09-10T11:35:58Z</time>
</trkpt>
<trkpt lat="48.550278" lon="10.366647">
<ele>377.21</ele>
<time>2020-09-10T11:35:59Z</time>
</trkpt>
<trkpt lat="48.550312" lon="10.366615">
<ele>377.21</ele>
<time>2020-09-10T11:36:00Z</time>
</trkpt>
<trkpt lat="48.55035" lon="10.366584">
<ele>377.21</ele>
<time>2020-09-10T11:36:01Z</time>
</trkpt>
<trkpt lat="48.550388" lon="10.366547">
<ele>377.21</ele>
<time>2020-09-10T11:36:02Z</time>
</trkpt>
<trkpt lat="48.55043" lon="10.366508">
<ele>377.21</ele>
<time>2020-09-10T11:36:03Z</time>
</trkpt>
<trkpt lat="48.550465" lon="10.366468">
<ele>377.21</ele>
<time>2020-09-10T11:36:04Z</time>
</trkpt>
<trkpt lat="48.550503" lon="10.366425">
<ele>377.21</ele>
<time>2020-09-10T11:36:05Z</time>
</trkpt>
<trkpt lat="48.550541" lon="10.366383">
<ele>377.21</ele>
<time>2020-09-10T11:36:06Z</time>
</trkpt>
<trkpt lat="48.550579" lon="10.366342">
<ele>377.21</ele>
<time>2020-09-10T11:36:07Z</time>
</trkpt>
<trkpt lat="48.550613" lon="10.366301">
<ele>377.21</ele>
<time>2020-09-10T11:36:08Z</time>
</trkpt>
<trkpt lat="48.550652" lon="10.366261">
<ele>377.21</ele>
<time>2020-09-10T11:36:09Z</time>
</trkpt>
<trkpt lat="48.55069" lon="10.366219">
<ele>377.21</ele>
<time>2020-09-10T11:36:10Z</time>
</trkpt>
<trkpt lat="48.550728" lon="10.366177">
<ele>377.21</ele>
<time>2020-09-10T11:36:11Z</time>
</trkpt>
<trkpt lat="48.550762" lon="10.366136">
<ele>377.21</ele>
<time>2020-09-10T11:36:12Z</time>
</trkpt>
<trkpt lat="48.550797" lon="10.366096">
<ele>377.21</ele>
<time>2020-09-10T11:36:13Z</time>
</trkpt>
<trkpt lat="48.550831" lon="10.366055">
<ele>377.21</ele>
<time>2020-09-10T11:36:14Z</time>
</trkpt>
<trkpt lat="48.550869" lon="10.366016">
<ele>377.21</ele>
<time>2020-09-10T11:36:15Z</time>
</trkpt>
<trkpt lat="48.550903" lon="10.365978">
<ele>377.435</ele>
<time>2020-09-10T11:36:16Z</time>
</trkpt>
<trkpt lat="48.550938" lon="10.365942">
<ele>377.611</ele>
<time>2020-09-10T11:36:17Z</time>
</trkpt>
<trkpt lat="48.550968" lon="10.365905">
<ele>377.746</ele>
<time>2020-09-10T11:36:18Z</time>
</trkpt>
<trkpt lat="48.551003" lon="10.365867">
<ele>377.85</ele>
<time>2020-09-10T11:36:19Z</time>
</trkpt>
<trkpt lat="48.551029" lon="10.365833">
<ele>377.924</ele>
<time>2020-09-10T11:36:20Z</time>
</trkpt>
<trkpt lat="48.551064" lon="10.365808">
<ele>377.999</ele>
<time>2020-09-10T11:36:21Z</time>
</trkpt>
<trkpt lat="48.551094" lon="10.365788">
<ele>378.048</ele>
<time>2020-09-10T11:36:22Z</time>
</trkpt>
<trkpt lat="48.551125" lon="10.365765">
<ele>378.072</ele>
<time>2020-09-10T11:36:23Z</time>
</trkpt>
<trkpt lat="48.551159" lon="10.365746">
<ele>378.072</ele>
<time>2020-09-10T11:36:24Z</time>
</trkpt>
<trkpt lat="48.551197" lon="10.365731">
<ele>378.072</ele>
<time>2020-09-10T11:36:25Z</time>
</trkpt>
<trkpt lat="48.551235" lon="10.365717">
<ele>378.072</ele>
<time>2020-09-10T11:36:26Z</time>
</trkpt>
<trkpt lat="48.551273" lon="10.365698">
<ele>378.072</ele>
<time>2020-09-10T11:36:27Z</time>
</trkpt>
<trkpt lat="48.551311" lon="10.365679">
<ele>378.072</ele>
<time>2020-09-10T11:36:28Z</time>
</trkpt>
<trkpt lat="48.55135" lon="10.365662">
<ele>378.072</ele>
<time>2020-09-10T11:36:29Z</time>
</trkpt>
<trkpt lat="48.551384" lon="10.365641">
<ele>378.072</ele>
<time>2020-09-10T11:36:30Z</time>
</trkpt>
<trkpt lat="48.551422" lon="10.365618">
<ele>378.072</ele>
<time>2020-09-10T11:36:31Z</time>
</trkpt>
<trkpt lat="48.551453" lon="10.365602">
<ele>378.072</ele>
<time>2020-09-10T11:36:32Z</time>
</trkpt>
<trkpt lat="48.551487" lon="10.365599">
<ele>378.072</ele>
<time>2020-09-10T11:36:33Z</time>
</trkpt>
<trkpt lat="48.551533" lon="10.365602">
<ele>378.072</ele>
<time>2020-09-10T11:36:34Z</time>
</trkpt>
<trkpt lat="48.551571" lon="10.36561">
<ele>378.072</ele>
<time>2020-09-10T11:36:35Z</time>
</trkpt>
<trkpt lat="48.551605" lon="10.365616">
<ele>378.072</ele>
<time>2020-09-10T11:36:36Z</time>
</trkpt>
<trkpt lat="48.551643" lon="10.36562">
<ele>378.072</ele>
<time>2020-09-10T11:36:37Z</time>
</trkpt>
<trkpt lat="48.551678" lon="10.365623">
<ele>378.072</ele>
<time>2020-09-10T11:36:38Z</time>
</trkpt>
<trkpt lat="48.551723" lon="10.36563">
<ele>378.072</ele>
<time>2020-09-10T11:36:39Z</time>
</trkpt>
<trkpt lat="48.551773" lon="10.365641">
<ele>378.072</ele>
<time>2020-09-10T11:36:40Z</time>
</trkpt>
<trkpt lat="48.551804" lon="10.365649">
<ele>378.072</ele>
<time>2020-09-10T11:36:41Z</time>
</trkpt>
<trkpt lat="48.551838" lon="10.36566">
<ele>378.072</ele>
<time>2020-09-10T11:36:42Z</time>
</trkpt>
<trkpt lat="48.551865" lon="10.365672">
<ele>378.072</ele>
<time>2020-09-10T11:36:43Z</time>
</trkpt>
<trkpt lat="48.551903" lon="10.365685">
<ele>378.072</ele>
<time>2020-09-10T11:36:44Z</time>
</trkpt>
<trkpt lat="48.551933" lon="10.365697">
<ele>378.072</ele>
<time>2020-09-10T11:36:45Z</time>
</trkpt>
<trkpt lat="48.55196" lon="10.365708">
<ele>378.072</ele>
<time>2020-09-10T11:36:46Z</time>
</trkpt>
<trkpt lat="48.551987" lon="10.36572">
<ele>378.072</ele>
<time>2020-09-10T11:36:47Z</time>
</trkpt>
<trkpt lat="48.55201" lon="10.365733">
<ele>378.072</ele>
<time>2020-09-10T11:36:48Z</time>
</trkpt>
<trkpt lat="48.552032" lon="10.365744">
<ele>378.072</ele>
<time>2020-09-10T11:36:49Z</time>
</trkpt>
<trkpt lat="48.552059" lon="10.365755">
<ele>378.072</ele>
<time>2020-09-10T11:36:50Z</time>
</trkpt>
<trkpt lat="48.552086" lon="10.365767">
<ele>378.072</ele>
<time>2020-09-10T11:36:51Z</time>
</trkpt>
<trkpt lat="48.552116" lon="10.365782">
<ele>378.072</ele>
<time>2020-09-10T11:36:52Z</time>
</trkpt>
<trkpt lat="48.552139" lon="10.365798">
<ele>378.072</ele>
<time>2020-09-10T11:36:53Z</time>
</trkpt>
<trkpt lat="48.55217" lon="10.365817">
<ele>378.072</ele>
<time>2020-09-10T11:36:54Z</time>
</trkpt>
<trkpt lat="48.552197" lon="10.365835">
<ele>378.072</ele>
<time>2020-09-10T11:36:55Z</time>
</trkpt>
<trkpt lat="48.552223" lon="10.365855">
<ele>378.072</ele>
<time>2020-09-10T11:36:56Z</time>
</trkpt>
<trkpt lat="48.552254" lon="10.365875">
<ele>378.072</ele>
<time>2020-09-10T11:36:57Z</time>
</trkpt>
<trkpt lat="48.55228" lon="10.365893">
<ele>378.072</ele>
<time>2020-09-10T11:36:58Z</time>
</trkpt>
<trkpt lat="48.552311" lon="10.365911">
<ele>378.072</ele>
<time>2020-09-10T11:36:59Z</time>
</trkpt>
<trkpt lat="48.552341" lon="10.365933">
<ele>378.072</ele>
<time>2020-09-10T11:37:00Z</time>
</trkpt>
<trkpt lat="48.55238" lon="10.365957">
<ele>378.072</ele>
<time>2020-09-10T11:37:01Z</time>
</trkpt>
<trkpt lat="48.552414" lon="10.36598">
<ele>378.072</ele>
<time>2020-09-10T11:37:02Z</time>
</trkpt>
<trkpt lat="48.552441" lon="10.366003">
<ele>378.072</ele>
<time>2020-09-10T11:37:03Z</time>
</trkpt>
<trkpt lat="48.552471" lon="10.366024">
<ele>378.072</ele>
<time>2020-09-10T11:37:04Z</time>
</trkpt>
<trkpt lat="48.552494" lon="10.366045">
<ele>378.327</ele>
<time>2020-09-10T11:37:05Z</time>
</trkpt>
<trkpt lat="48.552532" lon="10.366066">
<ele>378.529</ele>
<time>2020-09-10T11:37:06Z</time>
</trkpt>
<trkpt lat="48.552563" lon="10.366094">
<ele>378.679</ele>
<time>2020-09-10T11:37:07Z</time>
</trkpt>
<trkpt lat="48.552593" lon="10.366112">
<ele>378.786</ele>
<time>2020-09-10T11:37:08Z</time>
</trkpt>
<trkpt lat="48.55262" lon="10.36613">
<ele>378.87</ele>
<time>2020-09-10T11:37:09Z</time>
</trkpt>
<trkpt lat="48.552647" lon="10.366152">
<ele>378.937</ele>
<time>2020-09-10T11:37:10Z</time>
</trkpt>
<trkpt lat="48.55267" lon="10.366169">
<ele>378.994</ele>
<time>2020-09-10T11:37:11Z</time>
</trkpt>
<trkpt lat="48.552689" lon="10.366185">
<ele>379.019</ele>
<time>2020-09-10T11:37:12Z</time>
</trkpt>
<trkpt lat="48.552711" lon="10.3662">
<ele>379.019</ele>
<time>2020-09-10T11:37:13Z</time>
</trkpt>
<trkpt lat="48.552727" lon="10.366217">
<ele>379.019</ele>
<time>2020-09-10T11:37:14Z</time>
</trkpt>
<trkpt lat="48.552746" lon="10.366232">
<ele>379.019</ele>
<time>2020-09-10T11:37:15Z</time>
</trkpt>
<trkpt lat="48.552761" lon="10.366248">
<ele>379.019</ele>
<time>2020-09-10T11:37:16Z</time>
</trkpt>
<trkpt lat="48.55278" lon="10.36627">
<ele>379.243</ele>
<time>2020-09-10T11:37:17Z</time>
</trkpt>
<trkpt lat="48.552795" lon="10.366295">
<ele>379.435</ele>
<time>2020-09-10T11:37:18Z</time>
</trkpt>
<trkpt lat="48.552814" lon="10.366323">
<ele>379.594</ele>
<time>2020-09-10T11:37:19Z</time>
</trkpt>
<trkpt lat="48.552837" lon="10.366351">
<ele>379.698</ele>
<time>2020-09-10T11:37:20Z</time>
</trkpt>
<trkpt lat="48.552856" lon="10.366382">
<ele>379.816</ele>
<time>2020-09-10T11:37:21Z</time>
</trkpt>
<trkpt lat="48.552879" lon="10.366415">
<ele>379.898</ele>
<time>2020-09-10T11:37:22Z</time>
</trkpt>
<trkpt lat="48.552898" lon="10.366448">
<ele>379.946</ele>
<time>2020-09-10T11:37:23Z</time>
</trkpt>
<trkpt lat="48.552921" lon="10.366485">
<ele>379.966</ele>
<time>2020-09-10T11:37:24Z</time>
</trkpt>
<trkpt lat="48.552948" lon="10.366527">
<ele>379.966</ele>
<time>2020-09-10T11:37:25Z</time>
</trkpt>
<trkpt lat="48.552967" lon="10.36657">
<ele>379.966</ele>
<time>2020-09-10T11:37:26Z</time>
</trkpt>
<trkpt lat="48.552986" lon="10.366617">
<ele>379.966</ele>
<time>2020-09-10T11:37:27Z</time>
</trkpt>
<trkpt lat="48.553009" lon="10.366663">
<ele>379.717</ele>
<time>2020-09-10T11:37:28Z</time>
</trkpt>
<trkpt lat="48.553032" lon="10.366715">
<ele>379.52</ele>
<time>2020-09-10T11:37:29Z</time>
</trkpt>
<trkpt lat="48.553062" lon="10.366762">
<ele>379.398</ele>
<time>2020-09-10T11:37:30Z</time>
</trkpt>
<trkpt lat="48.553078" lon="10.366815">
<ele>379.26</ele>
<time>2020-09-10T11:37:31Z</time>
</trkpt>
<trkpt lat="48.553097" lon="10.36687">
<ele>379.159</ele>
<time>2020-09-10T11:37:32Z</time>
</trkpt>
<trkpt lat="48.553108" lon="10.36692">
<ele>379.088</ele>
<time>2020-09-10T11:37:33Z</time>
</trkpt>
<trkpt lat="48.553127" lon="10.366971">
<ele>379.041</ele>
<time>2020-09-10T11:37:34Z</time>
</trkpt>
<trkpt lat="48.553146" lon="10.367023">
<ele>379.019</ele>
<time>2020-09-10T11:37:35Z</time>
</trkpt>
<trkpt lat="48.553165" lon="10.367072">
<ele>379.019</ele>
<time>2020-09-10T11:37:36Z</time>
</trkpt>
<trkpt lat="48.553181" lon="10.367118">
<ele>379.019</ele>
<time>2020-09-10T11:37:37Z</time>
</trkpt>
<trkpt lat="48.5532" lon="10.367165">
<ele>379.019</ele>
<time>2020-09-10T11:37:38Z</time>
</trkpt>
<trkpt lat="48.553219" lon="10.367214">
<ele>379.019</ele>
<time>2020-09-10T11:37:39Z</time>
</trkpt>
<trkpt lat="48.553242" lon="10.36726">
<ele>379.019</ele>
<time>2020-09-10T11:37:40Z</time>
</trkpt>
<trkpt lat="48.553257" lon="10.367307">
<ele>379.019</ele>
<time>2020-09-10T11:37:41Z</time>
</trkpt>
<trkpt lat="48.553272" lon="10.367353">
<ele>379.019</ele>
<time>2020-09-10T11:37:42Z</time>
</trkpt>
<trkpt lat="48.553284" lon="10.3674">
<ele>379.287</ele>
<time>2020-09-10T11:37:43Z</time>
</trkpt>
<trkpt lat="48.553295" lon="10.36745">
<ele>379.5</ele>
<time>2020-09-10T11:37:44Z</time>
</trkpt>
<trkpt lat="48.553307" lon="10.367501">
<ele>379.662</ele>
<time>2020-09-10T11:37:45Z</time>
</trkpt>
<trkpt lat="48.553314" lon="10.36755">
<ele>379.779</ele>
<time>2020-09-10T11:37:46Z</time>
</trkpt>
<trkpt lat="48.553326" lon="10.367598">
<ele>379.859</ele>
<time>2020-09-10T11:37:47Z</time>
</trkpt>
<trkpt lat="48.553333" lon="10.367646">
<ele>379.912</ele>
<time>2020-09-10T11:37:48Z</time>
</trkpt>
<trkpt lat="48.553337" lon="10.36769">
<ele>379.943</ele>
<time>2020-09-10T11:37:49Z</time>
</trkpt>
<trkpt lat="48.553349" lon="10.367732">
<ele>379.966</ele>
<time>2020-09-10T11:37:50Z</time>
</trkpt>
<trkpt lat="48.553352" lon="10.36777">
<ele>379.966</ele>
<time>2020-09-10T11:37:51Z</time>
</trkpt>
<trkpt lat="48.553352" lon="10.367806">
<ele>379.966</ele>
<time>2020-09-10T11:37:52Z</time>
</trkpt>
<trkpt lat="48.553352" lon="10.367843">
<ele>379.966</ele>
<time>2020-09-10T11:37:53Z</time>
</trkpt>
<trkpt lat="48.553349" lon="10.367878">
<ele>379.966</ele>
<time>2020-09-10T11:37:54Z</time>
</trkpt>
<trkpt lat="48.553349" lon="10.367908">
<ele>379.966</ele>
<time>2020-09-10T11:37:55Z</time>
</trkpt>
<trkpt lat="48.553341" lon="10.367935">
<ele>379.966</ele>
<time>2020-09-10T11:37:56Z</time>
</trkpt>
<trkpt lat="48.553337" lon="10.367964">
<ele>379.966</ele>
<time>2020-09-10T11:37:57Z</time>
</trkpt>
<trkpt lat="48.553333" lon="10.367996">
<ele>379.966</ele>
<time>2020-09-10T11:37:58Z</time>
</trkpt>
<trkpt lat="48.553333" lon="10.36803">
<ele>379.966</ele>
<time>2020-09-10T11:37:59Z</time>
</trkpt>
<trkpt lat="48.553333" lon="10.368056">
<ele>379.966</ele>
<time>2020-09-10T11:38:00Z</time>
</trkpt>
<trkpt lat="48.553337" lon="10.368082">
<ele>379.966</ele>
<time>2020-09-10T11:38:01Z</time>
</trkpt>
<trkpt lat="48.553341" lon="10.368111">
<ele>380.238</ele>
<time>2020-09-10T11:38:02Z</time>
</trkpt>
<trkpt lat="48.553349" lon="10.36814">
<ele>380.459</ele>
<time>2020-09-10T11:38:03Z</time>
</trkpt>
<trkpt lat="48.553349" lon="10.36817">
<ele>380.623</ele>
<time>2020-09-10T11:38:04Z</time>
</trkpt>
<trkpt lat="48.553349" lon="10.3682">
<ele>380.738</ele>
<time>2020-09-10T11:38:05Z</time>
</trkpt>
<trkpt lat="48.553352" lon="10.368228">
<ele>380.82</ele>
<time>2020-09-10T11:38:06Z</time>
</trkpt>
<trkpt lat="48.553349" lon="10.368258">
<ele>380.887</ele>
<time>2020-09-10T11:38:07Z</time>
</trkpt>
<trkpt lat="48.553341" lon="10.368287">
<ele>380.903</ele>
<time>2020-09-10T11:38:08Z</time>
</trkpt>
<trkpt lat="48.553345" lon="10.368322">
<ele>380.914</ele>
<time>2020-09-10T11:38:09Z</time>
</trkpt>
<trkpt lat="48.553345" lon="10.368354">
<ele>380.913</ele>
<time>2020-09-10T11:38:10Z</time>
</trkpt>
<trkpt lat="48.553345" lon="10.368388">
<ele>380.914</ele>
<time>2020-09-10T11:38:11Z</time>
</trkpt>
<trkpt lat="48.553345" lon="10.368428">
<ele>380.913</ele>
<time>2020-09-10T11:38:12Z</time>
</trkpt>
<trkpt lat="48.553337" lon="10.368468">
<ele>380.913</ele>
<time>2020-09-10T11:38:13Z</time>
</trkpt>
<trkpt lat="48.553337" lon="10.368511">
<ele>380.913</ele>
<time>2020-09-10T11:38:14Z</time>
</trkpt>
<trkpt lat="48.553329" lon="10.368555">
<ele>380.913</ele>
<time>2020-09-10T11:38:15Z</time>
</trkpt>
<trkpt lat="48.553329" lon="10.368602">
<ele>380.914</ele>
<time>2020-09-10T11:38:16Z</time>
</trkpt>
<trkpt lat="48.553326" lon="10.368649">
<ele>380.913</ele>
<time>2020-09-10T11:38:17Z</time>
</trkpt>
<trkpt lat="48.553322" lon="10.368698">
<ele>380.913</ele>
<time>2020-09-10T11:38:18Z</time>
</trkpt>
<trkpt lat="48.553314" lon="10.368738">
<ele>380.914</ele>
<time>2020-09-10T11:38:19Z</time>
</trkpt>
<trkpt lat="48.553314" lon="10.368773">
<ele>380.913</ele>
<time>2020-09-10T11:38:20Z</time>
</trkpt>
<trkpt lat="48.553314" lon="10.368815">
<ele>380.645</ele>
<time>2020-09-10T11:38:21Z</time>
</trkpt>
<trkpt lat="48.553307" lon="10.368853">
<ele>380.425</ele>
<time>2020-09-10T11:38:22Z</time>
</trkpt>
<trkpt lat="48.553307" lon="10.36889">
<ele>380.242</ele>
<time>2020-09-10T11:38:23Z</time>
</trkpt>
<trkpt lat="48.553299" lon="10.36892">
<ele>380.096</ele>
<time>2020-09-10T11:38:24Z</time>
</trkpt>
<trkpt lat="48.553291" lon="10.368947">
<ele>379.978</ele>
<time>2020-09-10T11:38:25Z</time>
</trkpt>
<trkpt lat="48.553288" lon="10.368979">
<ele>379.888</ele>
<time>2020-09-10T11:38:26Z</time>
</trkpt>
<trkpt lat="48.553276" lon="10.369005">
<ele>379.822</ele>
<time>2020-09-10T11:38:27Z</time>
</trkpt>
<trkpt lat="48.553272" lon="10.369037">
<ele>379.794</ele>
<time>2020-09-10T11:38:28Z</time>
</trkpt>
<trkpt lat="48.553268" lon="10.369068">
<ele>379.794</ele>
<time>2020-09-10T11:38:29Z</time>
</trkpt>
<trkpt lat="48.553261" lon="10.369104">
<ele>379.794</ele>
<time>2020-09-10T11:38:30Z</time>
</trkpt>
<trkpt lat="48.553257" lon="10.369138">
<ele>379.794</ele>
<time>2020-09-10T11:38:31Z</time>
</trkpt>
<trkpt lat="48.553257" lon="10.36917">
<ele>379.794</ele>
<time>2020-09-10T11:38:32Z</time>
</trkpt>
<trkpt lat="48.553246" lon="10.369195">
<ele>379.794</ele>
<time>2020-09-10T11:38:33Z</time>
</trkpt>
<trkpt lat="48.553238" lon="10.369213">
<ele>379.794</ele>
<time>2020-09-10T11:38:34Z</time>
</trkpt>
<trkpt lat="48.553234" lon="10.369226">
<ele>379.794</ele>
<time>2020-09-10T11:38:35Z</time>
</trkpt>
<trkpt lat="48.553234" lon="10.36923">
<ele>379.794</ele>
<time>2020-09-10T11:38:36Z</time>
</trkpt>
<trkpt lat="48.55323" lon="10.36923">
<ele>379.794</ele>
<time>2020-09-10T11:38:37Z</time>
</trkpt>
<trkpt lat="48.553223" lon="10.369228">
<ele>379.794</ele>
<time>2020-09-10T11:38:38Z</time>
</trkpt>
<trkpt lat="48.553219" lon="10.369242">
<ele>379.794</ele>
<time>2020-09-10T11:38:45Z</time>
</trkpt>
<trkpt lat="48.553226" lon="10.369246">
<ele>379.794</ele>
<time>2020-09-10T11:38:46Z</time>
</trkpt>
<trkpt lat="48.55323" lon="10.369242">
<ele>379.794</ele>
<time>2020-09-10T11:38:47Z</time>
</trkpt>
<trkpt lat="48.55323" lon="10.369232">
<ele>379.794</ele>
<time>2020-09-10T11:38:48Z</time>
</trkpt>
<trkpt lat="48.55323" lon="10.369211">
<ele>379.794</ele>
<time>2020-09-10T11:38:49Z</time>
</trkpt>
<trkpt lat="48.553234" lon="10.369186">
<ele>379.794</ele>
<time>2020-09-10T11:38:50Z</time>
</trkpt>
<trkpt lat="48.553238" lon="10.36915">
<ele>379.794</ele>
<time>2020-09-10T11:38:51Z</time>
</trkpt>
<trkpt lat="48.553242" lon="10.369106">
<ele>379.794</ele>
<time>2020-09-10T11:38:52Z</time>
</trkpt>
<trkpt lat="48.553246" lon="10.36906">
<ele>379.794</ele>
<time>2020-09-10T11:38:53Z</time>
</trkpt>
<trkpt lat="48.553261" lon="10.369012">
<ele>379.794</ele>
<time>2020-09-10T11:38:54Z</time>
</trkpt>
<trkpt lat="48.553276" lon="10.368963">
<ele>379.794</ele>
<time>2020-09-10T11:38:55Z</time>
</trkpt>
<trkpt lat="48.553288" lon="10.368912">
<ele>379.794</ele>
<time>2020-09-10T11:38:56Z</time>
</trkpt>
<trkpt lat="48.553295" lon="10.368858">
<ele>379.794</ele>
<time>2020-09-10T11:38:57Z</time>
</trkpt>
<trkpt lat="48.553307" lon="10.368803">
<ele>379.794</ele>
<time>2020-09-10T11:38:58Z</time>
</trkpt>
<trkpt lat="48.553314" lon="10.36875">
<ele>379.794</ele>
<time>2020-09-10T11:38:59Z</time>
</trkpt>
<trkpt lat="48.553322" lon="10.368706">
<ele>379.794</ele>
<time>2020-09-10T11:39:00Z</time>
</trkpt>
<trkpt lat="48.553333" lon="10.36866">
<ele>379.794</ele>
<time>2020-09-10T11:39:01Z</time>
</trkpt>
<trkpt lat="48.553337" lon="10.368611">
<ele>379.794</ele>
<time>2020-09-10T11:39:02Z</time>
</trkpt>
<trkpt lat="48.553345" lon="10.36857">
<ele>379.794</ele>
<time>2020-09-10T11:39:03Z</time>
</trkpt>
<trkpt lat="48.553352" lon="10.368532">
<ele>379.794</ele>
<time>2020-09-10T11:39:04Z</time>
</trkpt>
<trkpt lat="48.55336" lon="10.368493">
<ele>379.794</ele>
<time>2020-09-10T11:39:05Z</time>
</trkpt>
<trkpt lat="48.553364" lon="10.368457">
<ele>379.794</ele>
<time>2020-09-10T11:39:06Z</time>
</trkpt>
<trkpt lat="48.553368" lon="10.368422">
<ele>379.794</ele>
<time>2020-09-10T11:39:07Z</time>
</trkpt>
<trkpt lat="48.553371" lon="10.368388">
<ele>379.794</ele>
<time>2020-09-10T11:39:08Z</time>
</trkpt>
<trkpt lat="48.553375" lon="10.368361">
<ele>379.794</ele>
<time>2020-09-10T11:39:09Z</time>
</trkpt>
<trkpt lat="48.553371" lon="10.36834">
<ele>380.013</ele>
<time>2020-09-10T11:39:10Z</time>
</trkpt>
<trkpt lat="48.55336" lon="10.368333">
<ele>380.187</ele>
<time>2020-09-10T11:39:11Z</time>
</trkpt>
<trkpt lat="48.553356" lon="10.368331">
<ele>380.322</ele>
<time>2020-09-10T11:39:12Z</time>
</trkpt>
<trkpt lat="48.553352" lon="10.368329">
<ele>380.431</ele>
<time>2020-09-10T11:39:13Z</time>
</trkpt>
<trkpt lat="48.553352" lon="10.368325">
<ele>380.5</ele>
<time>2020-09-10T11:39:18Z</time>
</trkpt>
<trkpt lat="48.55336" lon="10.368322">
<ele>380.561</ele>
<time>2020-09-10T11:39:19Z</time>
</trkpt>
<trkpt lat="48.553364" lon="10.368319">
<ele>380.615</ele>
<time>2020-09-10T11:39:20Z</time>
</trkpt>
<trkpt lat="48.553368" lon="10.368315">
<ele>380.655</ele>
<time>2020-09-10T11:39:21Z</time>
</trkpt>
<trkpt lat="48.553371" lon="10.36831">
<ele>380.655</ele>
<time>2020-09-10T11:39:22Z</time>
</trkpt>
<trkpt lat="48.553371" lon="10.368308">
<ele>380.655</ele>
<time>2020-09-10T11:39:23Z</time>
</trkpt>
<trkpt lat="48.553379" lon="10.368294">
<ele>380.655</ele>
<time>2020-09-10T11:39:39Z</time>
</trkpt>
<trkpt lat="48.553387" lon="10.368287">
<ele>380.655</ele>
<time>2020-09-10T11:39:40Z</time>
</trkpt>
<trkpt lat="48.553394" lon="10.368274">
<ele>380.655</ele>
<time>2020-09-10T11:39:41Z</time>
</trkpt>
<trkpt lat="48.553402" lon="10.368259">
<ele>380.655</ele>
<time>2020-09-10T11:39:42Z</time>
</trkpt>
<trkpt lat="48.553406" lon="10.368247">
<ele>380.655</ele>
<time>2020-09-10T11:39:43Z</time>
</trkpt>
<trkpt lat="48.55341" lon="10.368232">
<ele>380.655</ele>
<time>2020-09-10T11:39:44Z</time>
</trkpt>
<trkpt lat="48.553413" lon="10.368218">
<ele>380.655</ele>
<time>2020-09-10T11:39:45Z</time>
</trkpt>
<trkpt lat="48.553421" lon="10.368205">
<ele>380.655</ele>
<time>2020-09-10T11:39:46Z</time>
</trkpt>
<trkpt lat="48.553425" lon="10.368193">
<ele>380.655</ele>
<time>2020-09-10T11:39:47Z</time>
</trkpt>
<trkpt lat="48.553429" lon="10.368185">
<ele>380.655</ele>
<time>2020-09-10T11:39:48Z</time>
</trkpt>
<trkpt lat="48.553432" lon="10.368176">
<ele>380.655</ele>
<time>2020-09-10T11:39:49Z</time>
</trkpt>
<trkpt lat="48.553436" lon="10.368167">
<ele>380.879</ele>
<time>2020-09-10T11:39:50Z</time>
</trkpt>
<trkpt lat="48.55344" lon="10.368161">
<ele>381.062</ele>
<time>2020-09-10T11:39:51Z</time>
</trkpt>
<trkpt lat="48.55344" lon="10.368158">
<ele>381.215</ele>
<time>2020-09-10T11:39:52Z</time>
</trkpt>
<trkpt lat="48.553444" lon="10.368161">
<ele>381.413</ele>
<time>2020-09-10T11:39:54Z</time>
</trkpt>
<trkpt lat="48.553452" lon="10.368156">
<ele>381.508</ele>
<time>2020-09-10T11:39:55Z</time>
</trkpt>
<trkpt lat="48.553455" lon="10.368158">
<ele>381.575</ele>
<time>2020-09-10T11:39:56Z</time>
</trkpt>
<trkpt lat="48.553459" lon="10.368163">
<ele>381.603</ele>
<time>2020-09-10T11:39:57Z</time>
</trkpt>
<trkpt lat="48.553463" lon="10.368163">
<ele>381.603</ele>
<time>2020-09-10T11:39:59Z</time>
</trkpt>
<trkpt lat="48.553371" lon="10.368176">
<ele>381.603</ele>
<time>2020-09-10T11:58:26Z</time>
</trkpt>
<trkpt lat="48.553371" lon="10.368178">
<ele>381.603</ele>
<time>2020-09-10T11:58:27Z</time>
</trkpt>
<trkpt lat="48.553371" lon="10.36818">
<ele>381.603</ele>
<time>2020-09-10T11:58:28Z</time>
</trkpt>
<trkpt lat="48.553371" lon="10.368184">
<ele>381.603</ele>
<time>2020-09-10T11:58:29Z</time>
</trkpt>
<trkpt lat="48.553463" lon="10.368168">
<ele>381.603</ele>
<time>2020-09-10T12:02:04Z</time>
</trkpt>
<trkpt lat="48.553459" lon="10.368167">
<ele>381.603</ele>
<time>2020-09-10T12:02:05Z</time>
</trkpt>
<trkpt lat="48.553459" lon="10.368165">
<ele>381.603</ele>
<time>2020-09-10T12:02:06Z</time>
</trkpt>
<trkpt lat="48.553463" lon="10.368163">
<ele>381.603</ele>
<time>2020-09-10T12:02:07Z</time>
</trkpt>
<trkpt lat="48.553406" lon="10.368149">
<ele>381.603</ele>
<time>2020-09-10T12:03:27Z</time>
</trkpt>
<trkpt lat="48.553402" lon="10.368147">
<ele>381.603</ele>
<time>2020-09-10T12:03:28Z</time>
</trkpt>
<trkpt lat="48.553402" lon="10.368145">
<ele>381.603</ele>
<time>2020-09-10T12:03:29Z</time>
</trkpt>
<trkpt lat="48.553402" lon="10.368143">
<ele>381.603</ele>
<time>2020-09-10T12:03:30Z</time>
</trkpt>
<trkpt lat="48.553387" lon="10.368103">
<ele>381.603</ele>
<time>2020-09-10T12:04:24Z</time>
</trkpt>
<trkpt lat="48.553383" lon="10.368093">
<ele>381.603</ele>
<time>2020-09-10T12:04:25Z</time>
</trkpt>
<trkpt lat="48.553379" lon="10.368086">
<ele>381.603</ele>
<time>2020-09-10T12:04:26Z</time>
</trkpt>
<trkpt lat="48.553375" lon="10.368082">
<ele>381.603</ele>
<time>2020-09-10T12:04:27Z</time>
</trkpt>
<trkpt lat="48.553368" lon="10.368084">
<ele>381.603</ele>
<time>2020-09-10T12:04:28Z</time>
</trkpt>
<trkpt lat="48.553368" lon="10.368085">
<ele>381.603</ele>
<time>2020-09-10T12:04:29Z</time>
</trkpt>
<trkpt lat="48.553349" lon="10.368107">
<ele>381.603</ele>
<time>2020-09-10T12:04:55Z</time>
</trkpt>
<trkpt lat="48.553341" lon="10.368121">
<ele>381.603</ele>
<time>2020-09-10T12:04:56Z</time>
</trkpt>
<trkpt lat="48.553337" lon="10.368142">
<ele>381.603</ele>
<time>2020-09-10T12:04:57Z</time>
</trkpt>
<trkpt lat="48.553329" lon="10.36817">
<ele>381.603</ele>
<time>2020-09-10T12:04:58Z</time>
</trkpt>
<trkpt lat="48.553314" lon="10.368207">
<ele>381.603</ele>
<time>2020-09-10T12:04:59Z</time>
</trkpt>
<trkpt lat="48.553307" lon="10.368245">
<ele>381.603</ele>
<time>2020-09-10T12:05:00Z</time>
</trkpt>
<trkpt lat="48.553303" lon="10.368281">
<ele>381.603</ele>
<time>2020-09-10T12:05:01Z</time>
</trkpt>
<trkpt lat="48.553291" lon="10.368319">
<ele>381.603</ele>
<time>2020-09-10T12:05:02Z</time>
</trkpt>
<trkpt lat="48.553284" lon="10.368352">
<ele>381.603</ele>
<time>2020-09-10T12:05:03Z</time>
</trkpt>
<trkpt lat="48.553284" lon="10.368382">
<ele>381.603</ele>
<time>2020-09-10T12:05:04Z</time>
</trkpt>
<trkpt lat="48.55328" lon="10.368417">
<ele>381.603</ele>
<time>2020-09-10T12:05:05Z</time>
</trkpt>
<trkpt lat="48.553276" lon="10.368448">
<ele>381.603</ele>
<time>2020-09-10T12:05:06Z</time>
</trkpt>
<trkpt lat="48.553272" lon="10.368482">
<ele>381.603</ele>
<time>2020-09-10T12:05:07Z</time>
</trkpt>
<trkpt lat="48.553268" lon="10.368517">
<ele>381.603</ele>
<time>2020-09-10T12:05:08Z</time>
</trkpt>
<trkpt lat="48.553261" lon="10.36855">
<ele>381.603</ele>
<time>2020-09-10T12:05:09Z</time>
</trkpt>
<trkpt lat="48.553257" lon="10.368587">
<ele>381.603</ele>
<time>2020-09-10T12:05:10Z</time>
</trkpt>
<trkpt lat="48.553253" lon="10.368625">
<ele>381.603</ele>
<time>2020-09-10T12:05:11Z</time>
</trkpt>
<trkpt lat="48.553249" lon="10.368664">
<ele>381.603</ele>
<time>2020-09-10T12:05:12Z</time>
</trkpt>
<trkpt lat="48.553246" lon="10.368704">
<ele>381.603</ele>
<time>2020-09-10T12:05:13Z</time>
</trkpt>
<trkpt lat="48.553242" lon="10.368754">
<ele>381.603</ele>
<time>2020-09-10T12:05:14Z</time>
</trkpt>
<trkpt lat="48.553234" lon="10.368807">
<ele>381.603</ele>
<time>2020-09-10T12:05:15Z</time>
</trkpt>
<trkpt lat="48.553226" lon="10.368856">
<ele>381.603</ele>
<time>2020-09-10T12:05:16Z</time>
</trkpt>
<trkpt lat="48.553219" lon="10.368903">
<ele>381.603</ele>
<time>2020-09-10T12:05:17Z</time>
</trkpt>
<trkpt lat="48.553211" lon="10.36895">
<ele>381.603</ele>
<time>2020-09-10T12:05:18Z</time>
</trkpt>
<trkpt lat="48.553207" lon="10.368999">
<ele>381.603</ele>
<time>2020-09-10T12:05:19Z</time>
</trkpt>
<trkpt lat="48.5532" lon="10.36906">
<ele>381.603</ele>
<time>2020-09-10T12:05:20Z</time>
</trkpt>
<trkpt lat="48.553181" lon="10.369125">
<ele>381.603</ele>
<time>2020-09-10T12:05:21Z</time>
</trkpt>
<trkpt lat="48.553173" lon="10.3692">
<ele>381.603</ele>
<time>2020-09-10T12:05:22Z</time>
</trkpt>
<trkpt lat="48.553165" lon="10.369282">
<ele>381.603</ele>
<time>2020-09-10T12:05:23Z</time>
</trkpt>
<trkpt lat="48.55315" lon="10.369367">
<ele>381.603</ele>
<time>2020-09-10T12:05:24Z</time>
</trkpt>
<trkpt lat="48.553131" lon="10.369455">
<ele>381.603</ele>
<time>2020-09-10T12:05:25Z</time>
</trkpt>
<trkpt lat="48.553108" lon="10.36954">
<ele>381.603</ele>
<time>2020-09-10T12:05:26Z</time>
</trkpt>
<trkpt lat="48.553093" lon="10.369621">
<ele>381.603</ele>
<time>2020-09-10T12:05:27Z</time>
</trkpt>
<trkpt lat="48.553078" lon="10.369697">
<ele>381.603</ele>
<time>2020-09-10T12:05:28Z</time>
</trkpt>
<trkpt lat="48.553066" lon="10.369766">
<ele>381.603</ele>
<time>2020-09-10T12:05:29Z</time>
</trkpt>
<trkpt lat="48.553051" lon="10.369821">
<ele>381.603</ele>
<time>2020-09-10T12:05:30Z</time>
</trkpt>
<trkpt lat="48.55304" lon="10.369871">
<ele>381.603</ele>
<time>2020-09-10T12:05:31Z</time>
</trkpt>
<trkpt lat="48.553028" lon="10.369917">
<ele>381.603</ele>
<time>2020-09-10T12:05:32Z</time>
</trkpt>
<trkpt lat="48.553013" lon="10.369957">
<ele>381.603</ele>
<time>2020-09-10T12:05:33Z</time>
</trkpt>
<trkpt lat="48.553009" lon="10.369993">
<ele>381.603</ele>
<time>2020-09-10T12:05:34Z</time>
</trkpt>
<trkpt lat="48.553001" lon="10.370034">
<ele>381.603</ele>
<time>2020-09-10T12:05:35Z</time>
</trkpt>
<trkpt lat="48.55299" lon="10.370071">
<ele>381.603</ele>
<time>2020-09-10T12:05:36Z</time>
</trkpt>
<trkpt lat="48.552979" lon="10.370118">
<ele>381.603</ele>
<time>2020-09-10T12:05:37Z</time>
</trkpt>
<trkpt lat="48.552971" lon="10.370167">
<ele>381.603</ele>
<time>2020-09-10T12:05:38Z</time>
</trkpt>
<trkpt lat="48.552959" lon="10.370218">
<ele>381.603</ele>
<time>2020-09-10T12:05:39Z</time>
</trkpt>
<trkpt lat="48.552952" lon="10.370258">
<ele>381.603</ele>
<time>2020-09-10T12:05:40Z</time>
</trkpt>
<trkpt lat="48.552948" lon="10.370292">
<ele>381.603</ele>
<time>2020-09-10T12:05:41Z</time>
</trkpt>
<trkpt lat="48.552948" lon="10.370323">
<ele>381.603</ele>
<time>2020-09-10T12:05:42Z</time>
</trkpt>
<trkpt lat="48.552937" lon="10.37035">
<ele>381.603</ele>
<time>2020-09-10T12:05:43Z</time>
</trkpt>
<trkpt lat="48.552925" lon="10.370374">
<ele>381.603</ele>
<time>2020-09-10T12:05:44Z</time>
</trkpt>
<trkpt lat="48.552914" lon="10.370393">
<ele>381.603</ele>
<time>2020-09-10T12:05:45Z</time>
</trkpt>
<trkpt lat="48.552895" lon="10.370409">
<ele>381.603</ele>
<time>2020-09-10T12:05:46Z</time>
</trkpt>
<trkpt lat="48.552868" lon="10.370412">
<ele>381.603</ele>
<time>2020-09-10T12:05:47Z</time>
</trkpt>
<trkpt lat="48.552845" lon="10.370409">
<ele>381.603</ele>
<time>2020-09-10T12:05:48Z</time>
</trkpt>
<trkpt lat="48.552818" lon="10.370397">
<ele>381.383</ele>
<time>2020-09-10T12:05:49Z</time>
</trkpt>
<trkpt lat="48.552788" lon="10.370382">
<ele>381.228</ele>
<time>2020-09-10T12:05:50Z</time>
</trkpt>
<trkpt lat="48.552753" lon="10.370367">
<ele>381.059</ele>
<time>2020-09-10T12:05:51Z</time>
</trkpt>
<trkpt lat="48.552719" lon="10.370352">
<ele>380.934</ele>
<time>2020-09-10T12:05:52Z</time>
</trkpt>
<trkpt lat="48.552681" lon="10.370332">
<ele>380.848</ele>
<time>2020-09-10T12:05:53Z</time>
</trkpt>
<trkpt lat="48.552635" lon="10.370318">
<ele>380.791</ele>
<time>2020-09-10T12:05:54Z</time>
</trkpt>
<trkpt lat="48.552593" lon="10.370298">
<ele>380.759</ele>
<time>2020-09-10T12:05:55Z</time>
</trkpt>
<trkpt lat="48.552551" lon="10.370277">
<ele>380.741</ele>
<time>2020-09-10T12:05:56Z</time>
</trkpt>
<trkpt lat="48.552505" lon="10.370258">
<ele>380.741</ele>
<time>2020-09-10T12:05:57Z</time>
</trkpt>
<trkpt lat="48.552456" lon="10.370245">
<ele>380.741</ele>
<time>2020-09-10T12:05:58Z</time>
</trkpt>
<trkpt lat="48.55241" lon="10.370232">
<ele>380.497</ele>
<time>2020-09-10T12:05:59Z</time>
</trkpt>
<trkpt lat="48.552361" lon="10.370214">
<ele>380.333</ele>
<time>2020-09-10T12:06:00Z</time>
</trkpt>
<trkpt lat="48.552319" lon="10.370196">
<ele>380.166</ele>
<time>2020-09-10T12:06:01Z</time>
</trkpt>
<trkpt lat="48.552273" lon="10.370178">
<ele>380.035</ele>
<time>2020-09-10T12:06:02Z</time>
</trkpt>
<trkpt lat="48.552231" lon="10.37016">
<ele>379.936</ele>
<time>2020-09-10T12:06:03Z</time>
</trkpt>
<trkpt lat="48.552189" lon="10.370139">
<ele>379.864</ele>
<time>2020-09-10T12:06:04Z</time>
</trkpt>
<trkpt lat="48.552147" lon="10.370118">
<ele>379.817</ele>
<time>2020-09-10T12:06:05Z</time>
</trkpt>
<trkpt lat="48.552105" lon="10.370099">
<ele>379.794</ele>
<time>2020-09-10T12:06:06Z</time>
</trkpt>
<trkpt lat="48.552067" lon="10.370082">
<ele>379.794</ele>
<time>2020-09-10T12:06:07Z</time>
</trkpt>
<trkpt lat="48.552029" lon="10.37007">
<ele>379.794</ele>
<time>2020-09-10T12:06:08Z</time>
</trkpt>
<trkpt lat="48.551987" lon="10.370057">
<ele>379.794</ele>
<time>2020-09-10T12:06:09Z</time>
</trkpt>
<trkpt lat="48.551941" lon="10.370043">
<ele>379.794</ele>
<time>2020-09-10T12:06:10Z</time>
</trkpt>
<trkpt lat="48.551899" lon="10.370028">
<ele>379.794</ele>
<time>2020-09-10T12:06:11Z</time>
</trkpt>
<trkpt lat="48.551853" lon="10.370013">
<ele>379.794</ele>
<time>2020-09-10T12:06:12Z</time>
</trkpt>
<trkpt lat="48.551811" lon="10.369999">
<ele>379.794</ele>
<time>2020-09-10T12:06:13Z</time>
</trkpt>
<trkpt lat="48.551769" lon="10.369988">
<ele>379.794</ele>
<time>2020-09-10T12:06:14Z</time>
</trkpt>
<trkpt lat="48.551727" lon="10.369978">
<ele>379.794</ele>
<time>2020-09-10T12:06:15Z</time>
</trkpt>
<trkpt lat="48.551682" lon="10.369964">
<ele>379.794</ele>
<time>2020-09-10T12:06:16Z</time>
</trkpt>
<trkpt lat="48.55164" lon="10.369952">
<ele>379.794</ele>
<time>2020-09-10T12:06:17Z</time>
</trkpt>
<trkpt lat="48.551594" lon="10.369935">
<ele>379.794</ele>
<time>2020-09-10T12:06:18Z</time>
</trkpt>
<trkpt lat="48.551544" lon="10.369922">
<ele>379.794</ele>
<time>2020-09-10T12:06:19Z</time>
</trkpt>
<trkpt lat="48.551502" lon="10.369919">
<ele>379.794</ele>
<time>2020-09-10T12:06:20Z</time>
</trkpt>
<trkpt lat="48.551449" lon="10.36992">
<ele>379.794</ele>
<time>2020-09-10T12:06:21Z</time>
</trkpt>
<trkpt lat="48.551399" lon="10.369928">
<ele>379.794</ele>
<time>2020-09-10T12:06:22Z</time>
</trkpt>
<trkpt lat="48.55135" lon="10.369945">
<ele>379.794</ele>
<time>2020-09-10T12:06:23Z</time>
</trkpt>
<trkpt lat="48.551296" lon="10.369967">
<ele>379.794</ele>
<time>2020-09-10T12:06:24Z</time>
</trkpt>
<trkpt lat="48.551247" lon="10.369992">
<ele>379.794</ele>
<time>2020-09-10T12:06:25Z</time>
</trkpt>
<trkpt lat="48.551193" lon="10.370018">
<ele>379.794</ele>
<time>2020-09-10T12:06:26Z</time>
</trkpt>
<trkpt lat="48.55114" lon="10.370047">
<ele>379.794</ele>
<time>2020-09-10T12:06:27Z</time>
</trkpt>
<trkpt lat="48.551086" lon="10.370074">
<ele>379.794</ele>
<time>2020-09-10T12:06:28Z</time>
</trkpt>
<trkpt lat="48.551041" lon="10.370108">
<ele>379.794</ele>
<time>2020-09-10T12:06:29Z</time>
</trkpt>
<trkpt lat="48.550991" lon="10.370143">
<ele>379.794</ele>
<time>2020-09-10T12:06:30Z</time>
</trkpt>
<trkpt lat="48.550949" lon="10.370176">
<ele>379.794</ele>
<time>2020-09-10T12:06:31Z</time>
</trkpt>
<trkpt lat="48.550896" lon="10.370202">
<ele>379.794</ele>
<time>2020-09-10T12:06:32Z</time>
</trkpt>
<trkpt lat="48.550846" lon="10.37023">
<ele>379.794</ele>
<time>2020-09-10T12:06:33Z</time>
</trkpt>
<trkpt lat="48.550797" lon="10.370258">
<ele>379.794</ele>
<time>2020-09-10T12:06:34Z</time>
</trkpt>
<trkpt lat="48.550747" lon="10.370281">
<ele>379.538</ele>
<time>2020-09-10T12:06:35Z</time>
</trkpt>
<trkpt lat="48.550697" lon="10.370305">
<ele>379.338</ele>
<time>2020-09-10T12:06:36Z</time>
</trkpt>
<trkpt lat="48.550655" lon="10.370332">
<ele>379.185</ele>
<time>2020-09-10T12:06:37Z</time>
</trkpt>
<trkpt lat="48.550606" lon="10.370359">
<ele>379.07</ele>
<time>2020-09-10T12:06:38Z</time>
</trkpt>
<trkpt lat="48.550568" lon="10.37039">
<ele>378.984</ele>
<time>2020-09-10T12:06:39Z</time>
</trkpt>
<trkpt lat="48.550522" lon="10.37042">
<ele>378.927</ele>
<time>2020-09-10T12:06:40Z</time>
</trkpt>
<trkpt lat="48.55048" lon="10.370449">
<ele>378.873</ele>
<time>2020-09-10T12:06:41Z</time>
</trkpt>
<trkpt lat="48.550438" lon="10.37047">
<ele>378.852</ele>
<time>2020-09-10T12:06:42Z</time>
</trkpt>
<trkpt lat="48.550388" lon="10.370499">
<ele>379.118</ele>
<time>2020-09-10T12:06:43Z</time>
</trkpt>
<trkpt lat="48.550339" lon="10.370526">
<ele>379.332</ele>
<time>2020-09-10T12:06:44Z</time>
</trkpt>
<trkpt lat="48.550301" lon="10.370554">
<ele>379.492</ele>
<time>2020-09-10T12:06:45Z</time>
</trkpt>
<trkpt lat="48.550251" lon="10.37058">
<ele>379.614</ele>
<time>2020-09-10T12:06:46Z</time>
</trkpt>
<trkpt lat="48.550201" lon="10.370608">
<ele>379.695</ele>
<time>2020-09-10T12:06:47Z</time>
</trkpt>
<trkpt lat="48.550156" lon="10.370635">
<ele>379.749</ele>
<time>2020-09-10T12:06:48Z</time>
</trkpt>
<trkpt lat="48.550114" lon="10.370661">
<ele>379.773</ele>
<time>2020-09-10T12:06:49Z</time>
</trkpt>
<trkpt lat="48.550072" lon="10.370684">
<ele>379.794</ele>
<time>2020-09-10T12:06:50Z</time>
</trkpt>
<trkpt lat="48.550026" lon="10.370711">
<ele>379.794</ele>
<time>2020-09-10T12:06:51Z</time>
</trkpt>
<trkpt lat="48.54998" lon="10.370733">
<ele>379.794</ele>
<time>2020-09-10T12:06:52Z</time>
</trkpt>
<trkpt lat="48.549938" lon="10.370759">
<ele>379.794</ele>
<time>2020-09-10T12:06:53Z</time>
</trkpt>
<trkpt lat="48.549896" lon="10.370787">
<ele>379.794</ele>
<time>2020-09-10T12:06:54Z</time>
</trkpt>
<trkpt lat="48.54985" lon="10.370813">
<ele>379.794</ele>
<time>2020-09-10T12:06:55Z</time>
</trkpt>
<trkpt lat="48.549812" lon="10.370836">
<ele>379.794</ele>
<time>2020-09-10T12:06:56Z</time>
</trkpt>
<trkpt lat="48.549767" lon="10.370867">
<ele>379.794</ele>
<time>2020-09-10T12:06:57Z</time>
</trkpt>
<trkpt lat="48.549725" lon="10.370898">
<ele>379.794</ele>
<time>2020-09-10T12:06:58Z</time>
</trkpt>
<trkpt lat="48.549683" lon="10.370931">
<ele>379.794</ele>
<time>2020-09-10T12:06:59Z</time>
</trkpt>
<trkpt lat="48.549641" lon="10.370965">
<ele>379.794</ele>
<time>2020-09-10T12:07:00Z</time>
</trkpt>
<trkpt lat="48.549603" lon="10.370996">
<ele>379.794</ele>
<time>2020-09-10T12:07:01Z</time>
</trkpt>
<trkpt lat="48.549557" lon="10.371027">
<ele>379.794</ele>
<time>2020-09-10T12:07:02Z</time>
</trkpt>
<trkpt lat="48.549522" lon="10.37106">
<ele>379.794</ele>
<time>2020-09-10T12:07:03Z</time>
</trkpt>
<trkpt lat="48.54948" lon="10.371094">
<ele>379.794</ele>
<time>2020-09-10T12:07:04Z</time>
</trkpt>
<trkpt lat="48.549442" lon="10.371128">
<ele>379.794</ele>
<time>2020-09-10T12:07:05Z</time>
</trkpt>
<trkpt lat="48.549404" lon="10.371166">
<ele>379.794</ele>
<time>2020-09-10T12:07:06Z</time>
</trkpt>
<trkpt lat="48.54937" lon="10.371217">
<ele>379.794</ele>
<time>2020-09-10T12:07:07Z</time>
</trkpt>
<trkpt lat="48.549339" lon="10.371266">
<ele>379.794</ele>
<time>2020-09-10T12:07:08Z</time>
</trkpt>
<trkpt lat="48.549313" lon="10.371326">
<ele>379.794</ele>
<time>2020-09-10T12:07:09Z</time>
</trkpt>
<trkpt lat="48.549286" lon="10.371403">
<ele>379.794</ele>
<time>2020-09-10T12:07:10Z</time>
</trkpt>
<trkpt lat="48.549263" lon="10.371476">
<ele>379.794</ele>
<time>2020-09-10T12:07:11Z</time>
</trkpt>
<trkpt lat="48.549248" lon="10.371553">
<ele>379.794</ele>
<time>2020-09-10T12:07:12Z</time>
</trkpt>
<trkpt lat="48.549232" lon="10.371634">
<ele>379.794</ele>
<time>2020-09-10T12:07:13Z</time>
</trkpt>
<trkpt lat="48.549213" lon="10.37172">
<ele>379.794</ele>
<time>2020-09-10T12:07:14Z</time>
</trkpt>
<trkpt lat="48.549198" lon="10.371802">
<ele>379.794</ele>
<time>2020-09-10T12:07:15Z</time>
</trkpt>
<trkpt lat="48.549179" lon="10.371883">
<ele>379.794</ele>
<time>2020-09-10T12:07:16Z</time>
</trkpt>
<trkpt lat="48.549164" lon="10.371972">
<ele>379.794</ele>
<time>2020-09-10T12:07:17Z</time>
</trkpt>
<trkpt lat="48.549152" lon="10.372055">
<ele>379.794</ele>
<time>2020-09-10T12:07:18Z</time>
</trkpt>
<trkpt lat="48.549137" lon="10.372136">
<ele>379.794</ele>
<time>2020-09-10T12:07:19Z</time>
</trkpt>
<trkpt lat="48.549129" lon="10.372218">
<ele>379.794</ele>
<time>2020-09-10T12:07:20Z</time>
</trkpt>
<trkpt lat="48.549122" lon="10.372299">
<ele>379.794</ele>
<time>2020-09-10T12:07:21Z</time>
</trkpt>
<trkpt lat="48.54911" lon="10.37238">
<ele>379.794</ele>
<time>2020-09-10T12:07:22Z</time>
</trkpt>
<trkpt lat="48.549099" lon="10.372455">
<ele>379.794</ele>
<time>2020-09-10T12:07:23Z</time>
</trkpt>
<trkpt lat="48.549088" lon="10.37253">
<ele>379.794</ele>
<time>2020-09-10T12:07:24Z</time>
</trkpt>
<trkpt lat="48.54908" lon="10.372607">
<ele>379.794</ele>
<time>2020-09-10T12:07:25Z</time>
</trkpt>
<trkpt lat="48.549068" lon="10.372683">
<ele>379.794</ele>
<time>2020-09-10T12:07:26Z</time>
</trkpt>
<trkpt lat="48.549065" lon="10.372756">
<ele>379.794</ele>
<time>2020-09-10T12:07:27Z</time>
</trkpt>
<trkpt lat="48.549057" lon="10.372831">
<ele>379.794</ele>
<time>2020-09-10T12:07:28Z</time>
</trkpt>
<trkpt lat="48.549046" lon="10.372905">
<ele>379.794</ele>
<time>2020-09-10T12:07:29Z</time>
</trkpt>
<trkpt lat="48.549034" lon="10.372978">
<ele>379.794</ele>
<time>2020-09-10T12:07:30Z</time>
</trkpt>
<trkpt lat="48.549026" lon="10.373055">
<ele>379.794</ele>
<time>2020-09-10T12:07:31Z</time>
</trkpt>
<trkpt lat="48.549019" lon="10.373132">
<ele>379.794</ele>
<time>2020-09-10T12:07:32Z</time>
</trkpt>
<trkpt lat="48.549007" lon="10.373206">
<ele>379.794</ele>
<time>2020-09-10T12:07:33Z</time>
</trkpt>
<trkpt lat="48.549004" lon="10.373283">
<ele>379.528</ele>
<time>2020-09-10T12:07:34Z</time>
</trkpt>
<trkpt lat="48.548996" lon="10.373357">
<ele>379.321</ele>
<time>2020-09-10T12:07:35Z</time>
</trkpt>
<trkpt lat="48.548988" lon="10.373432">
<ele>379.165</ele>
<time>2020-09-10T12:07:36Z</time>
</trkpt>
<trkpt lat="48.548973" lon="10.373508">
<ele>379.049</ele>
<time>2020-09-10T12:07:37Z</time>
</trkpt>
<trkpt lat="48.548965" lon="10.373587">
<ele>378.965</ele>
<time>2020-09-10T12:07:38Z</time>
</trkpt>
<trkpt lat="48.548954" lon="10.373663">
<ele>378.915</ele>
<time>2020-09-10T12:07:39Z</time>
</trkpt>
<trkpt lat="48.548943" lon="10.373742">
<ele>378.873</ele>
<time>2020-09-10T12:07:40Z</time>
</trkpt>
<trkpt lat="48.548935" lon="10.37382">
<ele>378.847</ele>
<time>2020-09-10T12:07:41Z</time>
</trkpt>
<trkpt lat="48.548923" lon="10.373899">
<ele>378.847</ele>
<time>2020-09-10T12:07:42Z</time>
</trkpt>
<trkpt lat="48.548912" lon="10.373979">
<ele>378.847</ele>
<time>2020-09-10T12:07:43Z</time>
</trkpt>
<trkpt lat="48.548904" lon="10.374057">
<ele>378.847</ele>
<time>2020-09-10T12:07:44Z</time>
</trkpt>
<trkpt lat="48.548893" lon="10.374137">
<ele>378.847</ele>
<time>2020-09-10T12:07:45Z</time>
</trkpt>
<trkpt lat="48.548885" lon="10.374216">
<ele>378.847</ele>
<time>2020-09-10T12:07:46Z</time>
</trkpt>
<trkpt lat="48.548874" lon="10.374293">
<ele>378.847</ele>
<time>2020-09-10T12:07:47Z</time>
</trkpt>
<trkpt lat="48.548862" lon="10.374372">
<ele>378.847</ele>
<time>2020-09-10T12:07:48Z</time>
</trkpt>
<trkpt lat="48.548847" lon="10.374451">
<ele>378.847</ele>
<time>2020-09-10T12:07:49Z</time>
</trkpt>
<trkpt lat="48.548832" lon="10.37453">
<ele>378.847</ele>
<time>2020-09-10T12:07:50Z</time>
</trkpt>
<trkpt lat="48.548817" lon="10.37461">
<ele>378.847</ele>
<time>2020-09-10T12:07:51Z</time>
</trkpt>
<trkpt lat="48.548805" lon="10.37469">
<ele>378.847</ele>
<time>2020-09-10T12:07:52Z</time>
</trkpt>
<trkpt lat="48.548798" lon="10.374769">
<ele>378.847</ele>
<time>2020-09-10T12:07:53Z</time>
</trkpt>
<trkpt lat="48.54879" lon="10.37485">
<ele>378.847</ele>
<time>2020-09-10T12:07:54Z</time>
</trkpt>
<trkpt lat="48.548779" lon="10.374932">
<ele>378.847</ele>
<time>2020-09-10T12:07:55Z</time>
</trkpt>
<trkpt lat="48.548771" lon="10.375014">
<ele>378.847</ele>
<time>2020-09-10T12:07:56Z</time>
</trkpt>
<trkpt lat="48.548759" lon="10.375098">
<ele>378.625</ele>
<time>2020-09-10T12:07:57Z</time>
</trkpt>
<trkpt lat="48.548748" lon="10.37518">
<ele>378.452</ele>
<time>2020-09-10T12:07:58Z</time>
</trkpt>
<trkpt lat="48.54874" lon="10.375263">
<ele>378.315</ele>
<time>2020-09-10T12:07:59Z</time>
</trkpt>
<trkpt lat="48.548733" lon="10.375345">
<ele>378.222</ele>
<time>2020-09-10T12:08:00Z</time>
</trkpt>
<trkpt lat="48.548721" lon="10.375429">
<ele>378.123</ele>
<time>2020-09-10T12:08:01Z</time>
</trkpt>
<trkpt lat="48.54871" lon="10.37551">
<ele>378.052</ele>
<time>2020-09-10T12:08:02Z</time>
</trkpt>
<trkpt lat="48.548706" lon="10.375592">
<ele>378.007</ele>
<time>2020-09-10T12:08:03Z</time>
</trkpt>
<trkpt lat="48.548695" lon="10.37567">
<ele>377.985</ele>
<time>2020-09-10T12:08:04Z</time>
</trkpt>
<trkpt lat="48.548679" lon="10.375743">
<ele>377.985</ele>
<time>2020-09-10T12:08:05Z</time>
</trkpt>
<trkpt lat="48.548672" lon="10.375818">
<ele>377.985</ele>
<time>2020-09-10T12:08:06Z</time>
</trkpt>
<trkpt lat="48.548656" lon="10.37589">
<ele>377.985</ele>
<time>2020-09-10T12:08:07Z</time>
</trkpt>
<trkpt lat="48.548641" lon="10.375961">
<ele>377.985</ele>
<time>2020-09-10T12:08:08Z</time>
</trkpt>
<trkpt lat="48.548611" lon="10.376032">
<ele>377.985</ele>
<time>2020-09-10T12:08:09Z</time>
</trkpt>
<trkpt lat="48.548576" lon="10.376095">
<ele>377.985</ele>
<time>2020-09-10T12:08:10Z</time>
</trkpt>
<trkpt lat="48.548538" lon="10.376145">
<ele>377.985</ele>
<time>2020-09-10T12:08:11Z</time>
</trkpt>
<trkpt lat="48.548492" lon="10.37618">
<ele>377.985</ele>
<time>2020-09-10T12:08:12Z</time>
</trkpt>
<trkpt lat="48.548447" lon="10.376198">
<ele>377.985</ele>
<time>2020-09-10T12:08:13Z</time>
</trkpt>
<trkpt lat="48.548405" lon="10.376206">
<ele>377.985</ele>
<time>2020-09-10T12:08:14Z</time>
</trkpt>
<trkpt lat="48.548355" lon="10.376206">
<ele>377.985</ele>
<time>2020-09-10T12:08:15Z</time>
</trkpt>
<trkpt lat="48.548306" lon="10.3762">
<ele>377.985</ele>
<time>2020-09-10T12:08:16Z</time>
</trkpt>
<trkpt lat="48.548256" lon="10.376187">
<ele>377.985</ele>
<time>2020-09-10T12:08:17Z</time>
</trkpt>
<trkpt lat="48.548206" lon="10.376168">
<ele>377.985</ele>
<time>2020-09-10T12:08:18Z</time>
</trkpt>
<trkpt lat="48.548153" lon="10.376148">
<ele>377.985</ele>
<time>2020-09-10T12:08:19Z</time>
</trkpt>
<trkpt lat="48.548107" lon="10.376125">
<ele>377.985</ele>
<time>2020-09-10T12:08:20Z</time>
</trkpt>
<trkpt lat="48.548058" lon="10.376101">
<ele>377.985</ele>
<time>2020-09-10T12:08:21Z</time>
</trkpt>
<trkpt lat="48.548004" lon="10.376077">
<ele>377.985</ele>
<time>2020-09-10T12:08:22Z</time>
</trkpt>
<trkpt lat="48.547958" lon="10.376047">
<ele>377.985</ele>
<time>2020-09-10T12:08:23Z</time>
</trkpt>
<trkpt lat="48.547905" lon="10.376019">
<ele>377.985</ele>
<time>2020-09-10T12:08:24Z</time>
</trkpt>
<trkpt lat="48.547855" lon="10.375988">
<ele>377.985</ele>
<time>2020-09-10T12:08:25Z</time>
</trkpt>
<trkpt lat="48.547806" lon="10.375955">
<ele>377.985</ele>
<time>2020-09-10T12:08:26Z</time>
</trkpt>
<trkpt lat="48.54776" lon="10.375923">
<ele>377.985</ele>
<time>2020-09-10T12:08:27Z</time>
</trkpt>
<trkpt lat="48.54771" lon="10.375894">
<ele>377.985</ele>
<time>2020-09-10T12:08:28Z</time>
</trkpt>
<trkpt lat="48.547665" lon="10.375867">
<ele>377.985</ele>
<time>2020-09-10T12:08:29Z</time>
</trkpt>
<trkpt lat="48.547619" lon="10.375834">
<ele>377.985</ele>
<time>2020-09-10T12:08:30Z</time>
</trkpt>
<trkpt lat="48.547573" lon="10.3758">
<ele>377.985</ele>
<time>2020-09-10T12:08:31Z</time>
</trkpt>
<trkpt lat="48.547535" lon="10.375765">
<ele>377.985</ele>
<time>2020-09-10T12:08:32Z</time>
</trkpt>
<trkpt lat="48.547485" lon="10.375729">
<ele>377.985</ele>
<time>2020-09-10T12:08:33Z</time>
</trkpt>
<trkpt lat="48.547436" lon="10.375689">
<ele>377.985</ele>
<time>2020-09-10T12:08:34Z</time>
</trkpt>
<trkpt lat="48.54739" lon="10.375648">
<ele>377.985</ele>
<time>2020-09-10T12:08:35Z</time>
</trkpt>
<trkpt lat="48.547337" lon="10.375609">
<ele>377.985</ele>
<time>2020-09-10T12:08:36Z</time>
</trkpt>
<trkpt lat="48.547283" lon="10.375567">
<ele>377.985</ele>
<time>2020-09-10T12:08:37Z</time>
</trkpt>
<trkpt lat="48.547234" lon="10.375524">
<ele>377.985</ele>
<time>2020-09-10T12:08:38Z</time>
</trkpt>
<trkpt lat="48.54718" lon="10.375485">
<ele>377.985</ele>
<time>2020-09-10T12:08:39Z</time>
</trkpt>
<trkpt lat="48.547131" lon="10.375452">
<ele>377.985</ele>
<time>2020-09-10T12:08:40Z</time>
</trkpt>
<trkpt lat="48.547081" lon="10.375415">
<ele>377.985</ele>
<time>2020-09-10T12:08:41Z</time>
</trkpt>
<trkpt lat="48.547035" lon="10.375379">
<ele>377.985</ele>
<time>2020-09-10T12:08:42Z</time>
</trkpt>
<trkpt lat="48.546982" lon="10.375339">
<ele>377.985</ele>
<time>2020-09-10T12:08:43Z</time>
</trkpt>
<trkpt lat="48.546936" lon="10.375299">
<ele>377.985</ele>
<time>2020-09-10T12:08:44Z</time>
</trkpt>
<trkpt lat="48.546886" lon="10.375258">
<ele>377.985</ele>
<time>2020-09-10T12:08:45Z</time>
</trkpt>
<trkpt lat="48.546841" lon="10.375218">
<ele>377.985</ele>
<time>2020-09-10T12:08:46Z</time>
</trkpt>
<trkpt lat="48.546791" lon="10.37518">
<ele>377.985</ele>
<time>2020-09-10T12:08:47Z</time>
</trkpt>
<trkpt lat="48.546753" lon="10.375144">
<ele>377.985</ele>
<time>2020-09-10T12:08:48Z</time>
</trkpt>
<trkpt lat="48.546707" lon="10.375109">
<ele>377.985</ele>
<time>2020-09-10T12:08:49Z</time>
</trkpt>
<trkpt lat="48.546665" lon="10.375072">
<ele>377.985</ele>
<time>2020-09-10T12:08:50Z</time>
</trkpt>
<trkpt lat="48.546623" lon="10.375033">
<ele>377.985</ele>
<time>2020-09-10T12:08:51Z</time>
</trkpt>
<trkpt lat="48.546577" lon="10.374993">
<ele>377.985</ele>
<time>2020-09-10T12:08:52Z</time>
</trkpt>
<trkpt lat="48.546532" lon="10.374945">
<ele>377.985</ele>
<time>2020-09-10T12:08:53Z</time>
</trkpt>
<trkpt lat="48.54649" lon="10.374895">
<ele>377.985</ele>
<time>2020-09-10T12:08:54Z</time>
</trkpt>
<trkpt lat="48.546452" lon="10.37484">
<ele>377.985</ele>
<time>2020-09-10T12:08:55Z</time>
</trkpt>
<trkpt lat="48.54641" lon="10.374785">
<ele>377.985</ele>
<time>2020-09-10T12:08:56Z</time>
</trkpt>
<trkpt lat="48.546368" lon="10.374728">
<ele>377.985</ele>
<time>2020-09-10T12:08:57Z</time>
</trkpt>
<trkpt lat="48.546329" lon="10.37467">
<ele>377.985</ele>
<time>2020-09-10T12:08:58Z</time>
</trkpt>
<trkpt lat="48.546295" lon="10.374608">
<ele>377.985</ele>
<time>2020-09-10T12:08:59Z</time>
</trkpt>
<trkpt lat="48.546261" lon="10.374547">
<ele>377.985</ele>
<time>2020-09-10T12:09:00Z</time>
</trkpt>
<trkpt lat="48.546223" lon="10.374484">
<ele>377.985</ele>
<time>2020-09-10T12:09:01Z</time>
</trkpt>
<trkpt lat="48.546185" lon="10.374421">
<ele>377.985</ele>
<time>2020-09-10T12:09:02Z</time>
</trkpt>
<trkpt lat="48.546146" lon="10.374362">
<ele>378.234</ele>
<time>2020-09-10T12:09:03Z</time>
</trkpt>
<trkpt lat="48.546104" lon="10.3743">
<ele>378.428</ele>
<time>2020-09-10T12:09:04Z</time>
</trkpt>
<trkpt lat="48.546066" lon="10.374239">
<ele>378.574</ele>
<time>2020-09-10T12:09:05Z</time>
</trkpt>
<trkpt lat="48.546032" lon="10.374175">
<ele>378.682</ele>
<time>2020-09-10T12:09:06Z</time>
</trkpt>
<trkpt lat="48.545994" lon="10.374111">
<ele>378.756</ele>
<time>2020-09-10T12:09:07Z</time>
</trkpt>
<trkpt lat="48.545956" lon="10.374046">
<ele>378.802</ele>
<time>2020-09-10T12:09:08Z</time>
</trkpt>
<trkpt lat="48.545918" lon="10.373983">
<ele>378.826</ele>
<time>2020-09-10T12:09:09Z</time>
</trkpt>
<trkpt lat="48.545879" lon="10.373921">
<ele>378.847</ele>
<time>2020-09-10T12:09:10Z</time>
</trkpt>
<trkpt lat="48.545841" lon="10.37386">
<ele>378.847</ele>
<time>2020-09-10T12:09:11Z</time>
</trkpt>
<trkpt lat="48.545799" lon="10.373801">
<ele>378.847</ele>
<time>2020-09-10T12:09:12Z</time>
</trkpt>
<trkpt lat="48.545757" lon="10.373745">
<ele>378.847</ele>
<time>2020-09-10T12:09:13Z</time>
</trkpt>
<trkpt lat="48.545719" lon="10.37369">
<ele>378.847</ele>
<time>2020-09-10T12:09:14Z</time>
</trkpt>
<trkpt lat="48.545677" lon="10.37364">
<ele>378.847</ele>
<time>2020-09-10T12:09:15Z</time>
</trkpt>
<trkpt lat="48.545639" lon="10.373593">
<ele>378.847</ele>
<time>2020-09-10T12:09:16Z</time>
</trkpt>
<trkpt lat="48.545597" lon="10.373549">
<ele>378.847</ele>
<time>2020-09-10T12:09:17Z</time>
</trkpt>
<trkpt lat="48.545555" lon="10.373518">
<ele>378.847</ele>
<time>2020-09-10T12:09:18Z</time>
</trkpt>
<trkpt lat="48.545509" lon="10.373507">
<ele>378.847</ele>
<time>2020-09-10T12:09:19Z</time>
</trkpt>
<trkpt lat="48.54546" lon="10.373514">
<ele>378.847</ele>
<time>2020-09-10T12:09:20Z</time>
</trkpt>
<trkpt lat="48.545414" lon="10.373538">
<ele>378.847</ele>
<time>2020-09-10T12:09:21Z</time>
</trkpt>
<trkpt lat="48.545372" lon="10.37358">
<ele>378.847</ele>
<time>2020-09-10T12:09:22Z</time>
</trkpt>
<trkpt lat="48.54533" lon="10.373635">
<ele>378.847</ele>
<time>2020-09-10T12:09:23Z</time>
</trkpt>
<trkpt lat="48.545292" lon="10.3737">
<ele>378.847</ele>
<time>2020-09-10T12:09:24Z</time>
</trkpt>
<trkpt lat="48.545258" lon="10.373767">
<ele>378.582</ele>
<time>2020-09-10T12:09:25Z</time>
</trkpt>
<trkpt lat="48.545231" lon="10.373833">
<ele>378.377</ele>
<time>2020-09-10T12:09:26Z</time>
</trkpt>
<trkpt lat="48.545204" lon="10.373897">
<ele>378.254</ele>
<time>2020-09-10T12:09:27Z</time>
</trkpt>
<trkpt lat="48.545181" lon="10.373965">
<ele>377.917</ele>
<time>2020-09-10T12:09:28Z</time>
</trkpt>
<trkpt lat="48.545155" lon="10.374043">
<ele>377.658</ele>
<time>2020-09-10T12:09:29Z</time>
</trkpt>
<trkpt lat="48.545132" lon="10.374122">
<ele>377.476</ele>
<time>2020-09-10T12:09:30Z</time>
</trkpt>
<trkpt lat="48.545109" lon="10.374207">
<ele>377.308</ele>
<time>2020-09-10T12:09:31Z</time>
</trkpt>
<trkpt lat="48.545086" lon="10.374296">
<ele>376.944</ele>
<time>2020-09-10T12:09:32Z</time>
</trkpt>
<trkpt lat="48.545059" lon="10.374388">
<ele>376.668</ele>
<time>2020-09-10T12:09:33Z</time>
</trkpt>
<trkpt lat="48.545033" lon="10.374485">
<ele>376.493</ele>
<time>2020-09-10T12:09:34Z</time>
</trkpt>
<trkpt lat="48.545013" lon="10.374585">
<ele>376.081</ele>
<time>2020-09-10T12:09:35Z</time>
</trkpt>
<trkpt lat="48.544987" lon="10.374688">
<ele>375.689</ele>
<time>2020-09-10T12:09:36Z</time>
</trkpt>
<trkpt lat="48.54496" lon="10.374792">
<ele>375.525</ele>
<time>2020-09-10T12:09:37Z</time>
</trkpt>
<trkpt lat="48.544933" lon="10.374895">
<ele>375.106</ele>
<time>2020-09-10T12:09:38Z</time>
</trkpt>
<trkpt lat="48.54491" lon="10.374993">
<ele>374.809</ele>
<time>2020-09-10T12:09:39Z</time>
</trkpt>
<trkpt lat="48.544891" lon="10.37509">
<ele>374.606</ele>
<time>2020-09-10T12:09:40Z</time>
</trkpt>
<trkpt lat="48.544865" lon="10.37518">
<ele>374.409</ele>
<time>2020-09-10T12:09:41Z</time>
</trkpt>
<trkpt lat="48.544834" lon="10.375257">
<ele>374.274</ele>
<time>2020-09-10T12:09:42Z</time>
</trkpt>
<trkpt lat="48.544815" lon="10.375335">
<ele>374.192</ele>
<time>2020-09-10T12:09:43Z</time>
</trkpt>
<trkpt lat="48.544796" lon="10.375403">
<ele>374.139</ele>
<time>2020-09-10T12:09:44Z</time>
</trkpt>
<trkpt lat="48.544765" lon="10.375461">
<ele>374.111</ele>
<time>2020-09-10T12:09:45Z</time>
</trkpt>
<trkpt lat="48.544731" lon="10.3755">
<ele>374.111</ele>
<time>2020-09-10T12:09:46Z</time>
</trkpt>
<trkpt lat="48.544685" lon="10.375527">
<ele>374.111</ele>
<time>2020-09-10T12:09:47Z</time>
</trkpt>
<trkpt lat="48.544632" lon="10.375528">
<ele>374.111</ele>
<time>2020-09-10T12:09:48Z</time>
</trkpt>
<trkpt lat="48.544579" lon="10.375503">
<ele>374.111</ele>
<time>2020-09-10T12:09:49Z</time>
</trkpt>
<trkpt lat="48.544525" lon="10.375466">
<ele>374.111</ele>
<time>2020-09-10T12:09:50Z</time>
</trkpt>
<trkpt lat="48.544472" lon="10.375429">
<ele>374.35</ele>
<time>2020-09-10T12:09:51Z</time>
</trkpt>
<trkpt lat="48.544411" lon="10.375397">
<ele>374.555</ele>
<time>2020-09-10T12:09:52Z</time>
</trkpt>
<trkpt lat="48.544361" lon="10.375366">
<ele>374.718</ele>
<time>2020-09-10T12:09:53Z</time>
</trkpt>
<trkpt lat="48.544308" lon="10.375335">
<ele>374.841</ele>
<time>2020-09-10T12:09:54Z</time>
</trkpt>
<trkpt lat="48.544262" lon="10.375303">
<ele>374.93</ele>
<time>2020-09-10T12:09:55Z</time>
</trkpt>
<trkpt lat="48.544209" lon="10.37527">
<ele>374.994</ele>
<time>2020-09-10T12:09:56Z</time>
</trkpt>
<trkpt lat="48.544167" lon="10.375232">
<ele>375.037</ele>
<time>2020-09-10T12:09:57Z</time>
</trkpt>
<trkpt lat="48.544117" lon="10.375193">
<ele>375.058</ele>
<time>2020-09-10T12:09:58Z</time>
</trkpt>
<trkpt lat="48.544075" lon="10.375156">
<ele>375.281</ele>
<time>2020-09-10T12:09:59Z</time>
</trkpt>
<trkpt lat="48.544029" lon="10.375119">
<ele>375.446</ele>
<time>2020-09-10T12:10:00Z</time>
</trkpt>
<trkpt lat="48.543983" lon="10.375081">
<ele>375.615</ele>
<time>2020-09-10T12:10:01Z</time>
</trkpt>
<trkpt lat="48.543941" lon="10.375042">
<ele>375.752</ele>
<time>2020-09-10T12:10:02Z</time>
</trkpt>
<trkpt lat="48.543896" lon="10.375007">
<ele>375.856</ele>
<time>2020-09-10T12:10:03Z</time>
</trkpt>
<trkpt lat="48.54385" lon="10.374973">
<ele>375.932</ele>
<time>2020-09-10T12:10:04Z</time>
</trkpt>
<trkpt lat="48.5438" lon="10.37494">
<ele>375.982</ele>
<time>2020-09-10T12:10:05Z</time>
</trkpt>
<trkpt lat="48.543751" lon="10.374907">
<ele>376.005</ele>
<time>2020-09-10T12:10:06Z</time>
</trkpt>
<trkpt lat="48.543697" lon="10.374882">
<ele>376.005</ele>
<time>2020-09-10T12:10:07Z</time>
</trkpt>
<trkpt lat="48.543648" lon="10.37486">
<ele>376.005</ele>
<time>2020-09-10T12:10:08Z</time>
</trkpt>
<trkpt lat="48.543598" lon="10.374843">
<ele>376.005</ele>
<time>2020-09-10T12:10:09Z</time>
</trkpt>
<trkpt lat="48.543552" lon="10.374828">
<ele>376.005</ele>
<time>2020-09-10T12:10:10Z</time>
</trkpt>
<trkpt lat="48.543503" lon="10.37481">
<ele>376.005</ele>
<time>2020-09-10T12:10:11Z</time>
</trkpt>
<trkpt lat="48.543461" lon="10.374788">
<ele>376.005</ele>
<time>2020-09-10T12:10:12Z</time>
</trkpt>
<trkpt lat="48.543419" lon="10.374763">
<ele>376.126</ele>
<time>2020-09-10T12:10:13Z</time>
</trkpt>
<trkpt lat="48.543373" lon="10.37473">
<ele>376.221</ele>
<time>2020-09-10T12:10:14Z</time>
</trkpt>
<trkpt lat="48.543335" lon="10.374694">
<ele>376.295</ele>
<time>2020-09-10T12:10:15Z</time>
</trkpt>
<trkpt lat="48.543293" lon="10.374659">
<ele>376.351</ele>
<time>2020-09-10T12:10:16Z</time>
</trkpt>
<trkpt lat="48.543247" lon="10.374622">
<ele>376.39</ele>
<time>2020-09-10T12:10:17Z</time>
</trkpt>
<trkpt lat="48.543201" lon="10.374587">
<ele>376.414</ele>
<time>2020-09-10T12:10:18Z</time>
</trkpt>
<trkpt lat="48.543156" lon="10.374552">
<ele>376.425</ele>
<time>2020-09-10T12:10:19Z</time>
</trkpt>
<trkpt lat="48.543106" lon="10.37452">
<ele>376.435</ele>
<time>2020-09-10T12:10:20Z</time>
</trkpt>
<trkpt lat="48.543064" lon="10.374487">
<ele>376.435</ele>
<time>2020-09-10T12:10:21Z</time>
</trkpt>
<trkpt lat="48.543015" lon="10.374454">
<ele>376.435</ele>
<time>2020-09-10T12:10:22Z</time>
</trkpt>
<trkpt lat="48.542969" lon="10.374419">
<ele>376.435</ele>
<time>2020-09-10T12:10:23Z</time>
</trkpt>
<trkpt lat="48.542919" lon="10.374388">
<ele>376.435</ele>
<time>2020-09-10T12:10:24Z</time>
</trkpt>
<trkpt lat="48.54287" lon="10.374356">
<ele>376.435</ele>
<time>2020-09-10T12:10:25Z</time>
</trkpt>
<trkpt lat="48.542812" lon="10.374325">
<ele>376.435</ele>
<time>2020-09-10T12:10:26Z</time>
</trkpt>
<trkpt lat="48.542763" lon="10.374291">
<ele>376.435</ele>
<time>2020-09-10T12:10:27Z</time>
</trkpt>
<trkpt lat="48.542709" lon="10.37426">
<ele>376.435</ele>
<time>2020-09-10T12:10:28Z</time>
</trkpt>
<trkpt lat="48.54266" lon="10.374228">
<ele>376.435</ele>
<time>2020-09-10T12:10:29Z</time>
</trkpt>
<trkpt lat="48.542606" lon="10.3742">
<ele>376.435</ele>
<time>2020-09-10T12:10:30Z</time>
</trkpt>
<trkpt lat="48.542553" lon="10.37417">
<ele>376.435</ele>
<time>2020-09-10T12:10:31Z</time>
</trkpt>
<trkpt lat="48.5425" lon="10.374143">
<ele>376.435</ele>
<time>2020-09-10T12:10:32Z</time>
</trkpt>
<trkpt lat="48.54245" lon="10.374118">
<ele>376.684</ele>
<time>2020-09-10T12:10:33Z</time>
</trkpt>
<trkpt lat="48.542393" lon="10.374092">
<ele>376.877</ele>
<time>2020-09-10T12:10:34Z</time>
</trkpt>
<trkpt lat="48.542339" lon="10.374065">
<ele>377.023</ele>
<time>2020-09-10T12:10:35Z</time>
</trkpt>
<trkpt lat="48.542286" lon="10.374037">
<ele>377.134</ele>
<time>2020-09-10T12:10:36Z</time>
</trkpt>
<trkpt lat="48.542233" lon="10.374008">
<ele>377.205</ele>
<time>2020-09-10T12:10:37Z</time>
</trkpt>
<trkpt lat="48.542183" lon="10.37398">
<ele>377.255</ele>
<time>2020-09-10T12:10:38Z</time>
</trkpt>
<trkpt lat="48.54213" lon="10.373952">
<ele>377.277</ele>
<time>2020-09-10T12:10:39Z</time>
</trkpt>
<trkpt lat="48.54208" lon="10.373923">
<ele>377.297</ele>
<time>2020-09-10T12:10:40Z</time>
</trkpt>
<trkpt lat="48.54203" lon="10.373898">
<ele>377.297</ele>
<time>2020-09-10T12:10:41Z</time>
</trkpt>
<trkpt lat="48.541985" lon="10.373873">
<ele>377.297</ele>
<time>2020-09-10T12:10:42Z</time>
</trkpt>
<trkpt lat="48.541935" lon="10.373848">
<ele>377.297</ele>
<time>2020-09-10T12:10:43Z</time>
</trkpt>
<trkpt lat="48.541889" lon="10.373822">
<ele>377.297</ele>
<time>2020-09-10T12:10:44Z</time>
</trkpt>
<trkpt lat="48.54184" lon="10.373798">
<ele>377.297</ele>
<time>2020-09-10T12:10:45Z</time>
</trkpt>
<trkpt lat="48.54179" lon="10.373774">
<ele>377.297</ele>
<time>2020-09-10T12:10:46Z</time>
</trkpt>
<trkpt lat="48.541737" lon="10.373745">
<ele>377.297</ele>
<time>2020-09-10T12:10:47Z</time>
</trkpt>
<trkpt lat="48.541691" lon="10.373717">
<ele>377.297</ele>
<time>2020-09-10T12:10:48Z</time>
</trkpt>
<trkpt lat="48.541637" lon="10.373687">
<ele>377.297</ele>
<time>2020-09-10T12:10:49Z</time>
</trkpt>
<trkpt lat="48.541592" lon="10.373661">
<ele>377.297</ele>
<time>2020-09-10T12:10:50Z</time>
</trkpt>
<trkpt lat="48.541546" lon="10.373636">
<ele>377.297</ele>
<time>2020-09-10T12:10:51Z</time>
</trkpt>
<trkpt lat="48.541496" lon="10.373611">
<ele>377.297</ele>
<time>2020-09-10T12:10:52Z</time>
</trkpt>
<trkpt lat="48.541443" lon="10.373584">
<ele>377.297</ele>
<time>2020-09-10T12:10:53Z</time>
</trkpt>
<trkpt lat="48.541393" lon="10.373556">
<ele>377.297</ele>
<time>2020-09-10T12:10:54Z</time>
</trkpt>
<trkpt lat="48.54134" lon="10.37353">
<ele>377.297</ele>
<time>2020-09-10T12:10:55Z</time>
</trkpt>
<trkpt lat="48.541283" lon="10.373504">
<ele>377.297</ele>
<time>2020-09-10T12:10:56Z</time>
</trkpt>
<trkpt lat="48.541229" lon="10.373475">
<ele>377.297</ele>
<time>2020-09-10T12:10:57Z</time>
</trkpt>
<trkpt lat="48.541176" lon="10.373446">
<ele>377.297</ele>
<time>2020-09-10T12:10:58Z</time>
</trkpt>
<trkpt lat="48.541119" lon="10.373418">
<ele>377.297</ele>
<time>2020-09-10T12:10:59Z</time>
</trkpt>
<trkpt lat="48.541065" lon="10.373388">
<ele>377.297</ele>
<time>2020-09-10T12:11:00Z</time>
</trkpt>
<trkpt lat="48.541012" lon="10.373359">
<ele>377.297</ele>
<time>2020-09-10T12:11:01Z</time>
</trkpt>
<trkpt lat="48.540958" lon="10.373328">
<ele>377.297</ele>
<time>2020-09-10T12:11:02Z</time>
</trkpt>
<trkpt lat="48.540909" lon="10.373302">
<ele>377.297</ele>
<time>2020-09-10T12:11:03Z</time>
</trkpt>
<trkpt lat="48.540852" lon="10.373275">
<ele>377.297</ele>
<time>2020-09-10T12:11:04Z</time>
</trkpt>
<trkpt lat="48.540802" lon="10.37325">
<ele>377.297</ele>
<time>2020-09-10T12:11:05Z</time>
</trkpt>
<trkpt lat="48.540752" lon="10.373225">
<ele>377.297</ele>
<time>2020-09-10T12:11:06Z</time>
</trkpt>
<trkpt lat="48.540699" lon="10.373197">
<ele>377.297</ele>
<time>2020-09-10T12:11:07Z</time>
</trkpt>
<trkpt lat="48.540646" lon="10.373168">
<ele>377.297</ele>
<time>2020-09-10T12:11:08Z</time>
</trkpt>
<trkpt lat="48.540592" lon="10.373139">
<ele>377.297</ele>
<time>2020-09-10T12:11:09Z</time>
</trkpt>
<trkpt lat="48.540546" lon="10.37311">
<ele>377.297</ele>
<time>2020-09-10T12:11:10Z</time>
</trkpt>
<trkpt lat="48.540493" lon="10.373082">
<ele>377.297</ele>
<time>2020-09-10T12:11:11Z</time>
</trkpt>
<trkpt lat="48.54044" lon="10.373057">
<ele>377.297</ele>
<time>2020-09-10T12:11:12Z</time>
</trkpt>
<trkpt lat="48.540386" lon="10.373028">
<ele>377.297</ele>
<time>2020-09-10T12:11:13Z</time>
</trkpt>
<trkpt lat="48.540337" lon="10.372998">
<ele>377.564</ele>
<time>2020-09-10T12:11:14Z</time>
</trkpt>
<trkpt lat="48.540287" lon="10.372968">
<ele>377.77</ele>
<time>2020-09-10T12:11:15Z</time>
</trkpt>
<trkpt lat="48.540234" lon="10.372942">
<ele>377.928</ele>
<time>2020-09-10T12:11:16Z</time>
</trkpt>
<trkpt lat="48.54018" lon="10.372917">
<ele>378.045</ele>
<time>2020-09-10T12:11:17Z</time>
</trkpt>
<trkpt lat="48.540131" lon="10.37289">
<ele>378.122</ele>
<time>2020-09-10T12:11:18Z</time>
</trkpt>
<trkpt lat="48.540073" lon="10.372863">
<ele>378.176</ele>
<time>2020-09-10T12:11:19Z</time>
</trkpt>
<trkpt lat="48.54002" lon="10.372837">
<ele>378.217</ele>
<time>2020-09-10T12:11:20Z</time>
</trkpt>
<trkpt lat="48.53997" lon="10.372812">
<ele>378.244</ele>
<time>2020-09-10T12:11:21Z</time>
</trkpt>
<trkpt lat="48.539921" lon="10.372788">
<ele>378.244</ele>
<time>2020-09-10T12:11:22Z</time>
</trkpt>
<trkpt lat="48.539871" lon="10.372766">
<ele>378.244</ele>
<time>2020-09-10T12:11:23Z</time>
</trkpt>
<trkpt lat="48.539814" lon="10.372744">
<ele>378.244</ele>
<time>2020-09-10T12:11:24Z</time>
</trkpt>
<trkpt lat="48.539768" lon="10.372722">
<ele>378.244</ele>
<time>2020-09-10T12:11:25Z</time>
</trkpt>
<trkpt lat="48.539715" lon="10.372699">
<ele>378.244</ele>
<time>2020-09-10T12:11:26Z</time>
</trkpt>
<trkpt lat="48.539669" lon="10.372679">
<ele>378.483</ele>
<time>2020-09-10T12:11:27Z</time>
</trkpt>
<trkpt lat="48.539619" lon="10.372657">
<ele>378.673</ele>
<time>2020-09-10T12:11:28Z</time>
</trkpt>
<trkpt lat="48.539574" lon="10.372639">
<ele>378.822</ele>
<time>2020-09-10T12:11:29Z</time>
</trkpt>
<trkpt lat="48.539524" lon="10.372617">
<ele>378.925</ele>
<time>2020-09-10T12:11:30Z</time>
</trkpt>
<trkpt lat="48.539474" lon="10.372597">
<ele>379.034</ele>
<time>2020-09-10T12:11:31Z</time>
</trkpt>
<trkpt lat="48.539425" lon="10.37257">
<ele>379.114</ele>
<time>2020-09-10T12:11:32Z</time>
</trkpt>
<trkpt lat="48.539379" lon="10.37254">
<ele>379.166</ele>
<time>2020-09-10T12:11:33Z</time>
</trkpt>
<trkpt lat="48.539326" lon="10.372508">
<ele>379.191</ele>
<time>2020-09-10T12:11:34Z</time>
</trkpt>
<trkpt lat="48.53928" lon="10.372475">
<ele>379.191</ele>
<time>2020-09-10T12:11:35Z</time>
</trkpt>
<trkpt lat="48.539227" lon="10.372438">
<ele>379.191</ele>
<time>2020-09-10T12:11:36Z</time>
</trkpt>
<trkpt lat="48.539177" lon="10.372406">
<ele>379.191</ele>
<time>2020-09-10T12:11:37Z</time>
</trkpt>
<trkpt lat="48.539124" lon="10.372376">
<ele>379.191</ele>
<time>2020-09-10T12:11:38Z</time>
</trkpt>
<trkpt lat="48.539078" lon="10.372349">
<ele>379.191</ele>
<time>2020-09-10T12:11:39Z</time>
</trkpt>
<trkpt lat="48.539028" lon="10.372322">
<ele>379.191</ele>
<time>2020-09-10T12:11:40Z</time>
</trkpt>
<trkpt lat="48.538979" lon="10.372298">
<ele>379.191</ele>
<time>2020-09-10T12:11:41Z</time>
</trkpt>
<trkpt lat="48.538929" lon="10.372276">
<ele>379.191</ele>
<time>2020-09-10T12:11:42Z</time>
</trkpt>
<trkpt lat="48.538879" lon="10.372257">
<ele>379.191</ele>
<time>2020-09-10T12:11:43Z</time>
</trkpt>
<trkpt lat="48.538834" lon="10.372243">
<ele>379.191</ele>
<time>2020-09-10T12:11:44Z</time>
</trkpt>
<trkpt lat="48.538788" lon="10.37223">
<ele>378.941</ele>
<time>2020-09-10T12:11:45Z</time>
</trkpt>
<trkpt lat="48.538742" lon="10.372213">
<ele>378.742</ele>
<time>2020-09-10T12:11:46Z</time>
</trkpt>
<trkpt lat="48.5387" lon="10.372196">
<ele>378.59</ele>
<time>2020-09-10T12:11:47Z</time>
</trkpt>
<trkpt lat="48.538666" lon="10.372175">
<ele>378.477</ele>
<time>2020-09-10T12:11:48Z</time>
</trkpt>
<trkpt lat="48.538628" lon="10.372149">
<ele>378.437</ele>
<time>2020-09-10T12:11:49Z</time>
</trkpt>
<trkpt lat="48.538593" lon="10.372115">
<ele>378.579</ele>
<time>2020-09-10T12:11:50Z</time>
</trkpt>
<trkpt lat="48.538559" lon="10.37208">
<ele>378.733</ele>
<time>2020-09-10T12:11:51Z</time>
</trkpt>
<trkpt lat="48.538521" lon="10.372042">
<ele>378.876</ele>
<time>2020-09-10T12:11:52Z</time>
</trkpt>
<trkpt lat="48.538479" lon="10.372006">
<ele>379.004</ele>
<time>2020-09-10T12:11:53Z</time>
</trkpt>
<trkpt lat="48.538429" lon="10.371975">
<ele>379.121</ele>
<time>2020-09-10T12:11:54Z</time>
</trkpt>
<trkpt lat="48.53838" lon="10.371947">
<ele>379.205</ele>
<time>2020-09-10T12:11:55Z</time>
</trkpt>
<trkpt lat="48.538326" lon="10.371922">
<ele>379.255</ele>
<time>2020-09-10T12:11:56Z</time>
</trkpt>
<trkpt lat="48.538277" lon="10.371897">
<ele>379.277</ele>
<time>2020-09-10T12:11:57Z</time>
</trkpt>
<trkpt lat="48.538219" lon="10.371872">
<ele>379.277</ele>
<time>2020-09-10T12:11:58Z</time>
</trkpt>
<trkpt lat="48.53817" lon="10.371848">
<ele>379.277</ele>
<time>2020-09-10T12:11:59Z</time>
</trkpt>
<trkpt lat="48.538116" lon="10.371825">
<ele>379.277</ele>
<time>2020-09-10T12:12:00Z</time>
</trkpt>
<trkpt lat="48.538071" lon="10.371802">
<ele>379.277</ele>
<time>2020-09-10T12:12:01Z</time>
</trkpt>
<trkpt lat="48.538021" lon="10.371783">
<ele>379.277</ele>
<time>2020-09-10T12:12:02Z</time>
</trkpt>
<trkpt lat="48.537979" lon="10.371761">
<ele>379.277</ele>
<time>2020-09-10T12:12:03Z</time>
</trkpt>
<trkpt lat="48.53793" lon="10.371743">
<ele>379.277</ele>
<time>2020-09-10T12:12:04Z</time>
</trkpt>
<trkpt lat="48.537884" lon="10.371723">
<ele>379.277</ele>
<time>2020-09-10T12:12:05Z</time>
</trkpt>
<trkpt lat="48.537849" lon="10.371705">
<ele>379.277</ele>
<time>2020-09-10T12:12:06Z</time>
</trkpt>
<trkpt lat="48.537807" lon="10.371687">
<ele>379.277</ele>
<time>2020-09-10T12:12:07Z</time>
</trkpt>
<trkpt lat="48.537766" lon="10.371667">
<ele>379.277</ele>
<time>2020-09-10T12:12:08Z</time>
</trkpt>
<trkpt lat="48.537724" lon="10.371641">
<ele>379.277</ele>
<time>2020-09-10T12:12:09Z</time>
</trkpt>
<trkpt lat="48.537682" lon="10.37162">
<ele>379.277</ele>
<time>2020-09-10T12:12:10Z</time>
</trkpt>
<trkpt lat="48.537636" lon="10.371603">
<ele>379.277</ele>
<time>2020-09-10T12:12:11Z</time>
</trkpt>
<trkpt lat="48.537598" lon="10.371589">
<ele>379.277</ele>
<time>2020-09-10T12:12:12Z</time>
</trkpt>
<trkpt lat="48.537563" lon="10.371573">
<ele>379.277</ele>
<time>2020-09-10T12:12:13Z</time>
</trkpt>
<trkpt lat="48.537533" lon="10.371557">
<ele>379.277</ele>
<time>2020-09-10T12:12:14Z</time>
</trkpt>
<trkpt lat="48.537506" lon="10.371533">
<ele>379.277</ele>
<time>2020-09-10T12:12:15Z</time>
</trkpt>
<trkpt lat="48.537476" lon="10.371511">
<ele>379.277</ele>
<time>2020-09-10T12:12:16Z</time>
</trkpt>
<trkpt lat="48.537449" lon="10.371496">
<ele>379.277</ele>
<time>2020-09-10T12:12:17Z</time>
</trkpt>
<trkpt lat="48.537426" lon="10.371487">
<ele>379.277</ele>
<time>2020-09-10T12:12:18Z</time>
</trkpt>
<trkpt lat="48.537407" lon="10.371475">
<ele>379.277</ele>
<time>2020-09-10T12:12:19Z</time>
</trkpt>
<trkpt lat="48.537395" lon="10.371463">
<ele>379.277</ele>
<time>2020-09-10T12:12:20Z</time>
</trkpt>
<trkpt lat="48.537392" lon="10.371455">
<ele>379.277</ele>
<time>2020-09-10T12:12:21Z</time>
</trkpt>
<trkpt lat="48.537388" lon="10.371452">
<ele>379.277</ele>
<time>2020-09-10T12:12:22Z</time>
</trkpt>
<trkpt lat="48.537384" lon="10.371452">
<ele>379.277</ele>
<time>2020-09-10T12:12:23Z</time>
</trkpt>
<trkpt lat="48.53738" lon="10.371453">
<ele>379.277</ele>
<time>2020-09-10T12:13:25Z</time>
</trkpt>
<trkpt lat="48.537373" lon="10.371459">
<ele>379.277</ele>
<time>2020-09-10T12:13:26Z</time>
</trkpt>
<trkpt lat="48.537373" lon="10.371475">
<ele>379.277</ele>
<time>2020-09-10T12:13:27Z</time>
</trkpt>
<trkpt lat="48.537373" lon="10.371496">
<ele>379.277</ele>
<time>2020-09-10T12:13:28Z</time>
</trkpt>
<trkpt lat="48.53738" lon="10.371518">
<ele>379.277</ele>
<time>2020-09-10T12:13:29Z</time>
</trkpt>
<trkpt lat="48.537388" lon="10.371542">
<ele>379.277</ele>
<time>2020-09-10T12:13:30Z</time>
</trkpt>
<trkpt lat="48.537399" lon="10.371566">
<ele>379.277</ele>
<time>2020-09-10T12:13:31Z</time>
</trkpt>
<trkpt lat="48.537418" lon="10.371587">
<ele>379.277</ele>
<time>2020-09-10T12:13:32Z</time>
</trkpt>
<trkpt lat="48.537441" lon="10.371601">
<ele>379.277</ele>
<time>2020-09-10T12:13:33Z</time>
</trkpt>
<trkpt lat="48.537468" lon="10.371614">
<ele>379.277</ele>
<time>2020-09-10T12:13:34Z</time>
</trkpt>
<trkpt lat="48.537495" lon="10.371625">
<ele>379.277</ele>
<time>2020-09-10T12:13:35Z</time>
</trkpt>
<trkpt lat="48.537525" lon="10.371635">
<ele>379.277</ele>
<time>2020-09-10T12:13:36Z</time>
</trkpt>
<trkpt lat="48.53756" lon="10.371636">
<ele>379.277</ele>
<time>2020-09-10T12:13:37Z</time>
</trkpt>
<trkpt lat="48.537586" lon="10.371636">
<ele>379.277</ele>
<time>2020-09-10T12:13:38Z</time>
</trkpt>
<trkpt lat="48.537601" lon="10.371639">
<ele>379.277</ele>
<time>2020-09-10T12:13:39Z</time>
</trkpt>
<trkpt lat="48.537624" lon="10.371654">
<ele>379.277</ele>
<time>2020-09-10T12:13:40Z</time>
</trkpt>
<trkpt lat="48.53764" lon="10.371667">
<ele>379.277</ele>
<time>2020-09-10T12:13:41Z</time>
</trkpt>
<trkpt lat="48.537655" lon="10.371673">
<ele>379.277</ele>
<time>2020-09-10T12:13:42Z</time>
</trkpt>
<trkpt lat="48.537674" lon="10.371673">
<ele>379.277</ele>
<time>2020-09-10T12:13:43Z</time>
</trkpt>
<trkpt lat="48.537693" lon="10.371669">
<ele>379.277</ele>
<time>2020-09-10T12:13:44Z</time>
</trkpt>
<trkpt lat="48.53772" lon="10.371654">
<ele>379.277</ele>
<time>2020-09-10T12:13:45Z</time>
</trkpt>
<trkpt lat="48.537735" lon="10.371623">
<ele>379.277</ele>
<time>2020-09-10T12:13:46Z</time>
</trkpt>
<trkpt lat="48.53775" lon="10.371585">
<ele>379.277</ele>
<time>2020-09-10T12:13:47Z</time>
</trkpt>
<trkpt lat="48.537758" lon="10.371543">
<ele>379.277</ele>
<time>2020-09-10T12:13:48Z</time>
</trkpt>
<trkpt lat="48.537777" lon="10.371496">
<ele>379.277</ele>
<time>2020-09-10T12:13:49Z</time>
</trkpt>
<trkpt lat="48.537788" lon="10.371449">
<ele>379.277</ele>
<time>2020-09-10T12:13:50Z</time>
</trkpt>
<trkpt lat="48.537796" lon="10.371393">
<ele>379.277</ele>
<time>2020-09-10T12:13:51Z</time>
</trkpt>
<trkpt lat="48.537807" lon="10.371337">
<ele>379.277</ele>
<time>2020-09-10T12:13:52Z</time>
</trkpt>
<trkpt lat="48.537819" lon="10.371281">
<ele>379.277</ele>
<time>2020-09-10T12:13:53Z</time>
</trkpt>
<trkpt lat="48.537823" lon="10.371223">
<ele>379.277</ele>
<time>2020-09-10T12:13:54Z</time>
</trkpt>
<trkpt lat="48.53783" lon="10.371168">
<ele>379.277</ele>
<time>2020-09-10T12:13:55Z</time>
</trkpt>
<trkpt lat="48.537834" lon="10.371115">
<ele>379.277</ele>
<time>2020-09-10T12:13:56Z</time>
</trkpt>
<trkpt lat="48.537838" lon="10.371061">
<ele>379.277</ele>
<time>2020-09-10T12:13:57Z</time>
</trkpt>
<trkpt lat="48.537838" lon="10.371009">
<ele>379.277</ele>
<time>2020-09-10T12:13:58Z</time>
</trkpt>
<trkpt lat="48.537838" lon="10.370954">
<ele>379.277</ele>
<time>2020-09-10T12:13:59Z</time>
</trkpt>
<trkpt lat="48.537838" lon="10.370898">
<ele>379.277</ele>
<time>2020-09-10T12:14:00Z</time>
</trkpt>
<trkpt lat="48.537838" lon="10.37084">
<ele>379.277</ele>
<time>2020-09-10T12:14:01Z</time>
</trkpt>
<trkpt lat="48.537838" lon="10.37078">
<ele>379.277</ele>
<time>2020-09-10T12:14:02Z</time>
</trkpt>
<trkpt lat="48.537838" lon="10.370715">
<ele>379.277</ele>
<time>2020-09-10T12:14:03Z</time>
</trkpt>
<trkpt lat="48.537838" lon="10.370648">
<ele>379.277</ele>
<time>2020-09-10T12:14:04Z</time>
</trkpt>
<trkpt lat="48.537842" lon="10.370579">
<ele>379.277</ele>
<time>2020-09-10T12:14:05Z</time>
</trkpt>
<trkpt lat="48.537842" lon="10.370508">
<ele>379.277</ele>
<time>2020-09-10T12:14:06Z</time>
</trkpt>
<trkpt lat="48.537846" lon="10.370437">
<ele>379.277</ele>
<time>2020-09-10T12:14:07Z</time>
</trkpt>
<trkpt lat="48.537849" lon="10.370363">
<ele>379.277</ele>
<time>2020-09-10T12:14:08Z</time>
</trkpt>
<trkpt lat="48.537849" lon="10.370288">
<ele>379.277</ele>
<time>2020-09-10T12:14:09Z</time>
</trkpt>
<trkpt lat="48.537849" lon="10.370214">
<ele>379.277</ele>
<time>2020-09-10T12:14:10Z</time>
</trkpt>
<trkpt lat="48.537849" lon="10.370137">
<ele>379.277</ele>
<time>2020-09-10T12:14:11Z</time>
</trkpt>
<trkpt lat="48.537849" lon="10.37006">
<ele>379.277</ele>
<time>2020-09-10T12:14:12Z</time>
</trkpt>
<trkpt lat="48.537846" lon="10.36998">
<ele>379.277</ele>
<time>2020-09-10T12:14:13Z</time>
</trkpt>
<trkpt lat="48.537849" lon="10.3699">
<ele>379.277</ele>
<time>2020-09-10T12:14:14Z</time>
</trkpt>
<trkpt lat="48.537853" lon="10.369821">
<ele>379.277</ele>
<time>2020-09-10T12:14:15Z</time>
</trkpt>
<trkpt lat="48.537853" lon="10.36974">
<ele>379.277</ele>
<time>2020-09-10T12:14:16Z</time>
</trkpt>
<trkpt lat="48.537857" lon="10.369659">
<ele>379.277</ele>
<time>2020-09-10T12:14:17Z</time>
</trkpt>
<trkpt lat="48.537861" lon="10.36958">
<ele>379.277</ele>
<time>2020-09-10T12:14:18Z</time>
</trkpt>
<trkpt lat="48.537865" lon="10.369498">
<ele>379.277</ele>
<time>2020-09-10T12:14:19Z</time>
</trkpt>
<trkpt lat="48.537868" lon="10.369414">
<ele>379.277</ele>
<time>2020-09-10T12:14:20Z</time>
</trkpt>
<trkpt lat="48.537872" lon="10.369332">
<ele>379.277</ele>
<time>2020-09-10T12:14:21Z</time>
</trkpt>
<trkpt lat="48.537872" lon="10.369248">
<ele>379.277</ele>
<time>2020-09-10T12:14:22Z</time>
</trkpt>
<trkpt lat="48.537876" lon="10.369166">
<ele>379.277</ele>
<time>2020-09-10T12:14:23Z</time>
</trkpt>
<trkpt lat="48.537884" lon="10.369083">
<ele>379.277</ele>
<time>2020-09-10T12:14:24Z</time>
</trkpt>
<trkpt lat="48.537888" lon="10.369001">
<ele>379.277</ele>
<time>2020-09-10T12:14:25Z</time>
</trkpt>
<trkpt lat="48.537895" lon="10.368921">
<ele>379.277</ele>
<time>2020-09-10T12:14:26Z</time>
</trkpt>
<trkpt lat="48.537903" lon="10.368844">
<ele>379.277</ele>
<time>2020-09-10T12:14:27Z</time>
</trkpt>
<trkpt lat="48.53791" lon="10.368765">
<ele>379.277</ele>
<time>2020-09-10T12:14:28Z</time>
</trkpt>
<trkpt lat="48.537918" lon="10.368687">
<ele>379.511</ele>
<time>2020-09-10T12:14:29Z</time>
</trkpt>
<trkpt lat="48.537926" lon="10.368608">
<ele>379.697</ele>
<time>2020-09-10T12:14:30Z</time>
</trkpt>
<trkpt lat="48.53793" lon="10.368526">
<ele>379.826</ele>
<time>2020-09-10T12:14:31Z</time>
</trkpt>
<trkpt lat="48.537941" lon="10.368446">
<ele>379.965</ele>
<time>2020-09-10T12:14:32Z</time>
</trkpt>
<trkpt lat="48.537949" lon="10.368366">
<ele>380.073</ele>
<time>2020-09-10T12:14:33Z</time>
</trkpt>
<trkpt lat="48.537952" lon="10.368287">
<ele>380.151</ele>
<time>2020-09-10T12:14:34Z</time>
</trkpt>
<trkpt lat="48.537964" lon="10.36821">
<ele>380.201</ele>
<time>2020-09-10T12:14:35Z</time>
</trkpt>
<trkpt lat="48.537971" lon="10.368134">
<ele>380.224</ele>
<time>2020-09-10T12:14:36Z</time>
</trkpt>
<trkpt lat="48.537983" lon="10.368065">
<ele>380.224</ele>
<time>2020-09-10T12:14:37Z</time>
</trkpt>
<trkpt lat="48.537987" lon="10.367995">
<ele>380.224</ele>
<time>2020-09-10T12:14:38Z</time>
</trkpt>
<trkpt lat="48.537994" lon="10.367927">
<ele>380.224</ele>
<time>2020-09-10T12:14:39Z</time>
</trkpt>
<trkpt lat="48.538002" lon="10.367862">
<ele>380.224</ele>
<time>2020-09-10T12:14:40Z</time>
</trkpt>
<trkpt lat="48.538013" lon="10.367797">
<ele>380.224</ele>
<time>2020-09-10T12:14:41Z</time>
</trkpt>
<trkpt lat="48.538025" lon="10.367736">
<ele>380.224</ele>
<time>2020-09-10T12:14:42Z</time>
</trkpt>
<trkpt lat="48.538036" lon="10.367677">
<ele>380.224</ele>
<time>2020-09-10T12:14:43Z</time>
</trkpt>
<trkpt lat="48.538033" lon="10.367617">
<ele>380.224</ele>
<time>2020-09-10T12:14:44Z</time>
</trkpt>
<trkpt lat="48.538017" lon="10.367563">
<ele>380.224</ele>
<time>2020-09-10T12:14:45Z</time>
</trkpt>
<trkpt lat="48.537991" lon="10.367517">
<ele>380.224</ele>
<time>2020-09-10T12:14:46Z</time>
</trkpt>
<trkpt lat="48.537956" lon="10.367478">
<ele>380.224</ele>
<time>2020-09-10T12:14:47Z</time>
</trkpt>
<trkpt lat="48.537914" lon="10.367443">
<ele>380.224</ele>
<time>2020-09-10T12:14:48Z</time>
</trkpt>
<trkpt lat="48.537868" lon="10.367415">
<ele>380.224</ele>
<time>2020-09-10T12:14:49Z</time>
</trkpt>
<trkpt lat="48.537819" lon="10.367389">
<ele>380.224</ele>
<time>2020-09-10T12:14:50Z</time>
</trkpt>
<trkpt lat="48.537769" lon="10.367358">
<ele>380.224</ele>
<time>2020-09-10T12:14:51Z</time>
</trkpt>
<trkpt lat="48.53772" lon="10.367328">
<ele>380.224</ele>
<time>2020-09-10T12:14:52Z</time>
</trkpt>
<trkpt lat="48.537666" lon="10.367295">
<ele>380.224</ele>
<time>2020-09-10T12:14:53Z</time>
</trkpt>
<trkpt lat="48.537617" lon="10.367262">
<ele>380.224</ele>
<time>2020-09-10T12:14:54Z</time>
</trkpt>
<trkpt lat="48.53756" lon="10.367227">
<ele>380.224</ele>
<time>2020-09-10T12:14:55Z</time>
</trkpt>
<trkpt lat="48.537506" lon="10.367191">
<ele>380.224</ele>
<time>2020-09-10T12:14:56Z</time>
</trkpt>
<trkpt lat="48.537449" lon="10.36716">
<ele>380.224</ele>
<time>2020-09-10T12:14:57Z</time>
</trkpt>
<trkpt lat="48.537395" lon="10.367126">
<ele>380.224</ele>
<time>2020-09-10T12:14:58Z</time>
</trkpt>
<trkpt lat="48.537338" lon="10.367097">
<ele>380.224</ele>
<time>2020-09-10T12:14:59Z</time>
</trkpt>
<trkpt lat="48.537289" lon="10.367065">
<ele>380.224</ele>
<time>2020-09-10T12:15:00Z</time>
</trkpt>
<trkpt lat="48.537235" lon="10.367032">
<ele>380.224</ele>
<time>2020-09-10T12:15:01Z</time>
</trkpt>
<trkpt lat="48.537189" lon="10.366997">
<ele>380.224</ele>
<time>2020-09-10T12:15:02Z</time>
</trkpt>
<trkpt lat="48.537144" lon="10.366961">
<ele>380.224</ele>
<time>2020-09-10T12:15:03Z</time>
</trkpt>
<trkpt lat="48.537098" lon="10.366927">
<ele>380.224</ele>
<time>2020-09-10T12:15:04Z</time>
</trkpt>
<trkpt lat="48.537045" lon="10.366892">
<ele>380.224</ele>
<time>2020-09-10T12:15:05Z</time>
</trkpt>
<trkpt lat="48.536999" lon="10.366858">
<ele>380.224</ele>
<time>2020-09-10T12:15:06Z</time>
</trkpt>
<trkpt lat="48.536953" lon="10.366823">
<ele>380.224</ele>
<time>2020-09-10T12:15:07Z</time>
</trkpt>
<trkpt lat="48.536903" lon="10.366789">
<ele>380.224</ele>
<time>2020-09-10T12:15:08Z</time>
</trkpt>
<trkpt lat="48.536858" lon="10.366752">
<ele>380.224</ele>
<time>2020-09-10T12:15:09Z</time>
</trkpt>
<trkpt lat="48.536812" lon="10.366716">
<ele>380.224</ele>
<time>2020-09-10T12:15:10Z</time>
</trkpt>
<trkpt lat="48.536766" lon="10.36668">
<ele>380.224</ele>
<time>2020-09-10T12:15:11Z</time>
</trkpt>
<trkpt lat="48.53672" lon="10.366645">
<ele>380.224</ele>
<time>2020-09-10T12:15:12Z</time>
</trkpt>
<trkpt lat="48.536678" lon="10.366611">
<ele>380.224</ele>
<time>2020-09-10T12:15:13Z</time>
</trkpt>
<trkpt lat="48.536629" lon="10.366575">
<ele>380.224</ele>
<time>2020-09-10T12:15:14Z</time>
</trkpt>
<trkpt lat="48.536583" lon="10.366546">
<ele>380.224</ele>
<time>2020-09-10T12:15:15Z</time>
</trkpt>
<trkpt lat="48.536545" lon="10.366517">
<ele>380.224</ele>
<time>2020-09-10T12:15:16Z</time>
</trkpt>
<trkpt lat="48.536503" lon="10.366487">
<ele>380.224</ele>
<time>2020-09-10T12:15:17Z</time>
</trkpt>
<trkpt lat="48.536465" lon="10.36646">
<ele>380.224</ele>
<time>2020-09-10T12:15:18Z</time>
</trkpt>
<trkpt lat="48.536423" lon="10.366435">
<ele>380.224</ele>
<time>2020-09-10T12:15:19Z</time>
</trkpt>
<trkpt lat="48.536385" lon="10.366408">
<ele>380.224</ele>
<time>2020-09-10T12:15:20Z</time>
</trkpt>
<trkpt lat="48.536339" lon="10.366382">
<ele>380.224</ele>
<time>2020-09-10T12:15:21Z</time>
</trkpt>
<trkpt lat="48.536293" lon="10.366353">
<ele>380.224</ele>
<time>2020-09-10T12:15:22Z</time>
</trkpt>
<trkpt lat="48.536251" lon="10.366325">
<ele>380.224</ele>
<time>2020-09-10T12:15:23Z</time>
</trkpt>
<trkpt lat="48.536205" lon="10.366299">
<ele>380.224</ele>
<time>2020-09-10T12:15:24Z</time>
</trkpt>
<trkpt lat="48.536156" lon="10.366268">
<ele>380.224</ele>
<time>2020-09-10T12:15:25Z</time>
</trkpt>
<trkpt lat="48.536114" lon="10.366237">
<ele>380.224</ele>
<time>2020-09-10T12:15:26Z</time>
</trkpt>
<trkpt lat="48.536064" lon="10.366205">
<ele>380.224</ele>
<time>2020-09-10T12:15:27Z</time>
</trkpt>
<trkpt lat="48.536022" lon="10.366171">
<ele>380.224</ele>
<time>2020-09-10T12:15:28Z</time>
</trkpt>
<trkpt lat="48.535973" lon="10.366136">
<ele>380.224</ele>
<time>2020-09-10T12:15:29Z</time>
</trkpt>
<trkpt lat="48.535927" lon="10.3661">
<ele>380.224</ele>
<time>2020-09-10T12:15:30Z</time>
</trkpt>
<trkpt lat="48.535877" lon="10.366064">
<ele>380.224</ele>
<time>2020-09-10T12:15:31Z</time>
</trkpt>
<trkpt lat="48.535831" lon="10.366025">
<ele>380.224</ele>
<time>2020-09-10T12:15:32Z</time>
</trkpt>
<trkpt lat="48.535789" lon="10.365985">
<ele>380.224</ele>
<time>2020-09-10T12:15:33Z</time>
</trkpt>
<trkpt lat="48.535744" lon="10.365945">
<ele>380.224</ele>
<time>2020-09-10T12:15:34Z</time>
</trkpt>
<trkpt lat="48.535698" lon="10.365909">
<ele>380.224</ele>
<time>2020-09-10T12:15:35Z</time>
</trkpt>
<trkpt lat="48.535648" lon="10.365877">
<ele>380.224</ele>
<time>2020-09-10T12:15:36Z</time>
</trkpt>
<trkpt lat="48.535603" lon="10.365849">
<ele>380.224</ele>
<time>2020-09-10T12:15:37Z</time>
</trkpt>
<trkpt lat="48.535553" lon="10.365822">
<ele>380.224</ele>
<time>2020-09-10T12:15:38Z</time>
</trkpt>
<trkpt lat="48.535503" lon="10.365804">
<ele>380.224</ele>
<time>2020-09-10T12:15:39Z</time>
</trkpt>
<trkpt lat="48.53545" lon="10.365789">
<ele>380.224</ele>
<time>2020-09-10T12:15:40Z</time>
</trkpt>
<trkpt lat="48.535397" lon="10.365777">
<ele>380.224</ele>
<time>2020-09-10T12:15:41Z</time>
</trkpt>
<trkpt lat="48.535343" lon="10.365756">
<ele>380.224</ele>
<time>2020-09-10T12:15:42Z</time>
</trkpt>
<trkpt lat="48.53529" lon="10.365731">
<ele>380.224</ele>
<time>2020-09-10T12:15:43Z</time>
</trkpt>
<trkpt lat="48.53524" lon="10.365704">
<ele>380.224</ele>
<time>2020-09-10T12:15:44Z</time>
</trkpt>
<trkpt lat="48.535183" lon="10.365673">
<ele>380.224</ele>
<time>2020-09-10T12:15:45Z</time>
</trkpt>
<trkpt lat="48.53513" lon="10.365637">
<ele>380.224</ele>
<time>2020-09-10T12:15:46Z</time>
</trkpt>
<trkpt lat="48.53508" lon="10.365599">
<ele>380.224</ele>
<time>2020-09-10T12:15:47Z</time>
</trkpt>
<trkpt lat="48.535023" lon="10.36556">
<ele>380.224</ele>
<time>2020-09-10T12:15:48Z</time>
</trkpt>
<trkpt lat="48.534969" lon="10.365523">
<ele>380.224</ele>
<time>2020-09-10T12:15:49Z</time>
</trkpt>
<trkpt lat="48.534916" lon="10.365488">
<ele>380.224</ele>
<time>2020-09-10T12:15:50Z</time>
</trkpt>
<trkpt lat="48.534859" lon="10.365448">
<ele>380.224</ele>
<time>2020-09-10T12:15:51Z</time>
</trkpt>
<trkpt lat="48.534801" lon="10.36541">
<ele>380.224</ele>
<time>2020-09-10T12:15:52Z</time>
</trkpt>
<trkpt lat="48.534748" lon="10.365372">
<ele>380.224</ele>
<time>2020-09-10T12:15:53Z</time>
</trkpt>
<trkpt lat="48.534691" lon="10.365334">
<ele>380.224</ele>
<time>2020-09-10T12:15:54Z</time>
</trkpt>
<trkpt lat="48.534637" lon="10.365297">
<ele>380.224</ele>
<time>2020-09-10T12:15:55Z</time>
</trkpt>
<trkpt lat="48.534584" lon="10.36526">
<ele>380.224</ele>
<time>2020-09-10T12:15:56Z</time>
</trkpt>
<trkpt lat="48.534527" lon="10.365222">
<ele>380.224</ele>
<time>2020-09-10T12:15:57Z</time>
</trkpt>
<trkpt lat="48.534473" lon="10.365182">
<ele>380.224</ele>
<time>2020-09-10T12:15:58Z</time>
</trkpt>
<trkpt lat="48.534424" lon="10.365142">
<ele>380.224</ele>
<time>2020-09-10T12:15:59Z</time>
</trkpt>
<trkpt lat="48.534367" lon="10.365105">
<ele>380.224</ele>
<time>2020-09-10T12:16:00Z</time>
</trkpt>
<trkpt lat="48.534313" lon="10.365068">
<ele>380.224</ele>
<time>2020-09-10T12:16:01Z</time>
</trkpt>
<trkpt lat="48.534256" lon="10.365031">
<ele>380.224</ele>
<time>2020-09-10T12:16:02Z</time>
</trkpt>
<trkpt lat="48.534199" lon="10.364993">
<ele>380.224</ele>
<time>2020-09-10T12:16:03Z</time>
</trkpt>
<trkpt lat="48.534142" lon="10.364955">
<ele>380.224</ele>
<time>2020-09-10T12:16:04Z</time>
</trkpt>
<trkpt lat="48.534088" lon="10.364918">
<ele>380.224</ele>
<time>2020-09-10T12:16:05Z</time>
</trkpt>
<trkpt lat="48.534035" lon="10.364881">
<ele>380.224</ele>
<time>2020-09-10T12:16:06Z</time>
</trkpt>
<trkpt lat="48.533978" lon="10.364842">
<ele>380.224</ele>
<time>2020-09-10T12:16:07Z</time>
</trkpt>
<trkpt lat="48.533924" lon="10.364803">
<ele>380.224</ele>
<time>2020-09-10T12:16:08Z</time>
</trkpt>
<trkpt lat="48.533871" lon="10.364765">
<ele>380.224</ele>
<time>2020-09-10T12:16:09Z</time>
</trkpt>
<trkpt lat="48.533813" lon="10.364727">
<ele>380.224</ele>
<time>2020-09-10T12:16:10Z</time>
</trkpt>
<trkpt lat="48.533756" lon="10.36469">
<ele>380.224</ele>
<time>2020-09-10T12:16:11Z</time>
</trkpt>
<trkpt lat="48.533699" lon="10.364656">
<ele>380.224</ele>
<time>2020-09-10T12:16:12Z</time>
</trkpt>
<trkpt lat="48.533646" lon="10.36462">
<ele>380.224</ele>
<time>2020-09-10T12:16:13Z</time>
</trkpt>
<trkpt lat="48.533588" lon="10.364585">
<ele>380.224</ele>
<time>2020-09-10T12:16:14Z</time>
</trkpt>
<trkpt lat="48.533531" lon="10.364549">
<ele>380.224</ele>
<time>2020-09-10T12:16:15Z</time>
</trkpt>
<trkpt lat="48.533478" lon="10.364513">
<ele>380.224</ele>
<time>2020-09-10T12:16:16Z</time>
</trkpt>
<trkpt lat="48.533417" lon="10.364476">
<ele>380.224</ele>
<time>2020-09-10T12:16:17Z</time>
</trkpt>
<trkpt lat="48.53336" lon="10.36444">
<ele>380.224</ele>
<time>2020-09-10T12:16:18Z</time>
</trkpt>
<trkpt lat="48.533306" lon="10.364402">
<ele>380.224</ele>
<time>2020-09-10T12:16:19Z</time>
</trkpt>
<trkpt lat="48.533249" lon="10.364365">
<ele>380.224</ele>
<time>2020-09-10T12:16:20Z</time>
</trkpt>
<trkpt lat="48.533192" lon="10.364329">
<ele>380.224</ele>
<time>2020-09-10T12:16:21Z</time>
</trkpt>
<trkpt lat="48.533127" lon="10.364296">
<ele>380.224</ele>
<time>2020-09-10T12:16:22Z</time>
</trkpt>
<trkpt lat="48.53307" lon="10.364264">
<ele>380.224</ele>
<time>2020-09-10T12:16:23Z</time>
</trkpt>
<trkpt lat="48.533012" lon="10.36423">
<ele>380.224</ele>
<time>2020-09-10T12:16:24Z</time>
</trkpt>
<trkpt lat="48.532955" lon="10.364195">
<ele>380.224</ele>
<time>2020-09-10T12:16:25Z</time>
</trkpt>
<trkpt lat="48.532898" lon="10.36416">
<ele>380.459</ele>
<time>2020-09-10T12:16:26Z</time>
</trkpt>
<trkpt lat="48.532841" lon="10.364123">
<ele>380.641</ele>
<time>2020-09-10T12:16:27Z</time>
</trkpt>
<trkpt lat="48.532784" lon="10.364092">
<ele>380.78</ele>
<time>2020-09-10T12:16:28Z</time>
</trkpt>
<trkpt lat="48.532726" lon="10.364063">
<ele>380.884</ele>
<time>2020-09-10T12:16:29Z</time>
</trkpt>
<trkpt lat="48.532669" lon="10.364038">
<ele>380.959</ele>
<time>2020-09-10T12:16:30Z</time>
</trkpt>
<trkpt lat="48.532608" lon="10.364011">
<ele>381.013</ele>
<time>2020-09-10T12:16:31Z</time>
</trkpt>
<trkpt lat="48.532551" lon="10.363981">
<ele>381.062</ele>
<time>2020-09-10T12:16:32Z</time>
</trkpt>
<trkpt lat="48.532494" lon="10.363954">
<ele>381.086</ele>
<time>2020-09-10T12:16:33Z</time>
</trkpt>
<trkpt lat="48.532433" lon="10.363925">
<ele>381.086</ele>
<time>2020-09-10T12:16:34Z</time>
</trkpt>
<trkpt lat="48.532375" lon="10.363898">
<ele>381.086</ele>
<time>2020-09-10T12:16:35Z</time>
</trkpt>
<trkpt lat="48.53231" lon="10.363871">
<ele>381.086</ele>
<time>2020-09-10T12:16:36Z</time>
</trkpt>
<trkpt lat="48.532253" lon="10.363839">
<ele>381.086</ele>
<time>2020-09-10T12:16:37Z</time>
</trkpt>
<trkpt lat="48.532196" lon="10.36381">
<ele>381.086</ele>
<time>2020-09-10T12:16:38Z</time>
</trkpt>
<trkpt lat="48.532135" lon="10.36378">
<ele>381.086</ele>
<time>2020-09-10T12:16:39Z</time>
</trkpt>
<trkpt lat="48.532074" lon="10.363751">
<ele>381.086</ele>
<time>2020-09-10T12:16:40Z</time>
</trkpt>
<trkpt lat="48.532017" lon="10.363724">
<ele>381.086</ele>
<time>2020-09-10T12:16:41Z</time>
</trkpt>
<trkpt lat="48.531952" lon="10.363697">
<ele>381.086</ele>
<time>2020-09-10T12:16:42Z</time>
</trkpt>
<trkpt lat="48.531895" lon="10.363669">
<ele>381.086</ele>
<time>2020-09-10T12:16:43Z</time>
</trkpt>
<trkpt lat="48.531837" lon="10.363644">
<ele>381.086</ele>
<time>2020-09-10T12:16:44Z</time>
</trkpt>
<trkpt lat="48.53178" lon="10.363619">
<ele>381.086</ele>
<time>2020-09-10T12:16:45Z</time>
</trkpt>
<trkpt lat="48.531723" lon="10.363594">
<ele>381.086</ele>
<time>2020-09-10T12:16:46Z</time>
</trkpt>
<trkpt lat="48.531662" lon="10.363566">
<ele>381.086</ele>
<time>2020-09-10T12:16:47Z</time>
</trkpt>
<trkpt lat="48.531605" lon="10.363538">
<ele>381.086</ele>
<time>2020-09-10T12:16:48Z</time>
</trkpt>
<trkpt lat="48.531548" lon="10.36351">
<ele>381.086</ele>
<time>2020-09-10T12:16:49Z</time>
</trkpt>
<trkpt lat="48.531494" lon="10.363482">
<ele>381.086</ele>
<time>2020-09-10T12:16:50Z</time>
</trkpt>
<trkpt lat="48.531437" lon="10.363456">
<ele>381.086</ele>
<time>2020-09-10T12:16:51Z</time>
</trkpt>
<trkpt lat="48.53138" lon="10.36343">
<ele>381.086</ele>
<time>2020-09-10T12:16:52Z</time>
</trkpt>
<trkpt lat="48.531326" lon="10.363405">
<ele>381.086</ele>
<time>2020-09-10T12:16:53Z</time>
</trkpt>
<trkpt lat="48.531269" lon="10.363379">
<ele>381.086</ele>
<time>2020-09-10T12:16:54Z</time>
</trkpt>
<trkpt lat="48.531216" lon="10.363353">
<ele>381.086</ele>
<time>2020-09-10T12:16:55Z</time>
</trkpt>
<trkpt lat="48.531166" lon="10.363328">
<ele>381.086</ele>
<time>2020-09-10T12:16:56Z</time>
</trkpt>
<trkpt lat="48.531109" lon="10.363305">
<ele>381.086</ele>
<time>2020-09-10T12:16:57Z</time>
</trkpt>
<trkpt lat="48.531055" lon="10.363278">
<ele>381.086</ele>
<time>2020-09-10T12:16:58Z</time>
</trkpt>
<trkpt lat="48.531002" lon="10.363253">
<ele>381.086</ele>
<time>2020-09-10T12:16:59Z</time>
</trkpt>
<trkpt lat="48.530945" lon="10.363227">
<ele>381.086</ele>
<time>2020-09-10T12:17:00Z</time>
</trkpt>
<trkpt lat="48.530891" lon="10.3632">
<ele>380.894</ele>
<time>2020-09-10T12:17:01Z</time>
</trkpt>
<trkpt lat="48.530834" lon="10.363175">
<ele>380.712</ele>
<time>2020-09-10T12:17:02Z</time>
</trkpt>
<trkpt lat="48.530777" lon="10.363152">
<ele>380.563</ele>
<time>2020-09-10T12:17:03Z</time>
</trkpt>
<trkpt lat="48.530724" lon="10.363127">
<ele>380.443</ele>
<time>2020-09-10T12:17:04Z</time>
</trkpt>
<trkpt lat="48.53067" lon="10.363102">
<ele>380.353</ele>
<time>2020-09-10T12:17:05Z</time>
</trkpt>
<trkpt lat="48.530613" lon="10.363076">
<ele>380.286</ele>
<time>2020-09-10T12:17:06Z</time>
</trkpt>
<trkpt lat="48.530556" lon="10.363051">
<ele>380.245</ele>
<time>2020-09-10T12:17:07Z</time>
</trkpt>
<trkpt lat="48.530499" lon="10.363025">
<ele>380.224</ele>
<time>2020-09-10T12:17:08Z</time>
</trkpt>
<trkpt lat="48.530441" lon="10.362997">
<ele>380.224</ele>
<time>2020-09-10T12:17:09Z</time>
</trkpt>
<trkpt lat="48.530388" lon="10.362967">
<ele>380.224</ele>
<time>2020-09-10T12:17:10Z</time>
</trkpt>
<trkpt lat="48.530331" lon="10.362942">
<ele>380.224</ele>
<time>2020-09-10T12:17:11Z</time>
</trkpt>
<trkpt lat="48.530273" lon="10.362915">
<ele>380.224</ele>
<time>2020-09-10T12:17:12Z</time>
</trkpt>
<trkpt lat="48.530216" lon="10.362892">
<ele>380.224</ele>
<time>2020-09-10T12:17:13Z</time>
</trkpt>
<trkpt lat="48.530159" lon="10.362868">
<ele>380.224</ele>
<time>2020-09-10T12:17:14Z</time>
</trkpt>
<trkpt lat="48.530102" lon="10.362842">
<ele>380.224</ele>
<time>2020-09-10T12:17:15Z</time>
</trkpt>
<trkpt lat="48.530048" lon="10.362815">
<ele>380.224</ele>
<time>2020-09-10T12:17:16Z</time>
</trkpt>
<trkpt lat="48.529995" lon="10.362788">
<ele>380.224</ele>
<time>2020-09-10T12:17:17Z</time>
</trkpt>
<trkpt lat="48.529934" lon="10.362761">
<ele>380.224</ele>
<time>2020-09-10T12:17:18Z</time>
</trkpt>
<trkpt lat="48.529881" lon="10.362735">
<ele>380.439</ele>
<time>2020-09-10T12:17:19Z</time>
</trkpt>
<trkpt lat="48.529827" lon="10.362708">
<ele>380.609</ele>
<time>2020-09-10T12:17:20Z</time>
</trkpt>
<trkpt lat="48.52977" lon="10.362682">
<ele>380.727</ele>
<time>2020-09-10T12:17:21Z</time>
</trkpt>
<trkpt lat="48.529716" lon="10.362654">
<ele>380.852</ele>
<time>2020-09-10T12:17:22Z</time>
</trkpt>
<trkpt lat="48.529667" lon="10.362626">
<ele>380.949</ele>
<time>2020-09-10T12:17:23Z</time>
</trkpt>
<trkpt lat="48.529617" lon="10.362601">
<ele>381.019</ele>
<time>2020-09-10T12:17:24Z</time>
</trkpt>
<trkpt lat="48.529572" lon="10.362576">
<ele>381.064</ele>
<time>2020-09-10T12:17:25Z</time>
</trkpt>
<trkpt lat="48.529518" lon="10.362549">
<ele>381.086</ele>
<time>2020-09-10T12:17:26Z</time>
</trkpt>
<trkpt lat="48.529472" lon="10.362521">
<ele>381.086</ele>
<time>2020-09-10T12:17:27Z</time>
</trkpt>
<trkpt lat="48.52943" lon="10.362492">
<ele>381.086</ele>
<time>2020-09-10T12:17:28Z</time>
</trkpt>
<trkpt lat="48.529385" lon="10.36246">
<ele>381.086</ele>
<time>2020-09-10T12:17:29Z</time>
</trkpt>
<trkpt lat="48.529343" lon="10.362425">
<ele>381.086</ele>
<time>2020-09-10T12:17:30Z</time>
</trkpt>
<trkpt lat="48.529301" lon="10.36239">
<ele>381.086</ele>
<time>2020-09-10T12:17:31Z</time>
</trkpt>
<trkpt lat="48.529255" lon="10.362353">
<ele>381.086</ele>
<time>2020-09-10T12:17:32Z</time>
</trkpt>
<trkpt lat="48.529213" lon="10.362315">
<ele>381.086</ele>
<time>2020-09-10T12:17:33Z</time>
</trkpt>
<trkpt lat="48.529171" lon="10.362278">
<ele>381.086</ele>
<time>2020-09-10T12:17:34Z</time>
</trkpt>
<trkpt lat="48.529133" lon="10.362242">
<ele>381.086</ele>
<time>2020-09-10T12:17:35Z</time>
</trkpt>
<trkpt lat="48.529091" lon="10.362208">
<ele>381.34</ele>
<time>2020-09-10T12:17:36Z</time>
</trkpt>
<trkpt lat="48.529053" lon="10.362173">
<ele>381.539</ele>
<time>2020-09-10T12:17:37Z</time>
</trkpt>
<trkpt lat="48.529018" lon="10.362144">
<ele>381.69</ele>
<time>2020-09-10T12:17:38Z</time>
</trkpt>
<trkpt lat="48.528984" lon="10.362113">
<ele>381.803</ele>
<time>2020-09-10T12:17:39Z</time>
</trkpt>
<trkpt lat="48.528954" lon="10.362083">
<ele>381.887</ele>
<time>2020-09-10T12:17:40Z</time>
</trkpt>
<trkpt lat="48.528923" lon="10.362061">
<ele>381.949</ele>
<time>2020-09-10T12:17:41Z</time>
</trkpt>
<trkpt lat="48.5289" lon="10.362041">
<ele>382.004</ele>
<time>2020-09-10T12:17:42Z</time>
</trkpt>
<trkpt lat="48.528881" lon="10.362031">
<ele>382.239</ele>
<time>2020-09-10T12:17:43Z</time>
</trkpt>
<trkpt lat="48.528862" lon="10.362023">
<ele>382.485</ele>
<time>2020-09-10T12:17:44Z</time>
</trkpt>
<trkpt lat="48.528858" lon="10.36202">
<ele>382.641</ele>
<time>2020-09-10T12:17:45Z</time>
</trkpt>
<trkpt lat="48.528854" lon="10.362019">
<ele>382.766</ele>
<time>2020-09-10T12:17:46Z</time>
</trkpt>
<trkpt lat="48.528858" lon="10.362019">
<ele>382.861</ele>
<time>2020-09-10T12:17:47Z</time>
</trkpt>
<trkpt lat="48.528851" lon="10.362022">
<ele>382.931</ele>
<time>2020-09-10T12:18:05Z</time>
</trkpt>
<trkpt lat="48.528835" lon="10.362033">
<ele>382.969</ele>
<time>2020-09-10T12:18:06Z</time>
</trkpt>
<trkpt lat="48.52882" lon="10.362045">
<ele>382.981</ele>
<time>2020-09-10T12:18:07Z</time>
</trkpt>
<trkpt lat="48.528809" lon="10.362059">
<ele>382.981</ele>
<time>2020-09-10T12:18:08Z</time>
</trkpt>
<trkpt lat="48.52879" lon="10.362075">
<ele>382.981</ele>
<time>2020-09-10T12:18:09Z</time>
</trkpt>
<trkpt lat="48.528774" lon="10.362098">
<ele>382.981</ele>
<time>2020-09-10T12:18:10Z</time>
</trkpt>
<trkpt lat="48.528755" lon="10.362128">
<ele>382.981</ele>
<time>2020-09-10T12:18:11Z</time>
</trkpt>
<trkpt lat="48.528732" lon="10.362164">
<ele>382.981</ele>
<time>2020-09-10T12:18:12Z</time>
</trkpt>
<trkpt lat="48.528713" lon="10.362203">
<ele>382.981</ele>
<time>2020-09-10T12:18:13Z</time>
</trkpt>
<trkpt lat="48.52869" lon="10.362248">
<ele>382.981</ele>
<time>2020-09-10T12:18:14Z</time>
</trkpt>
<trkpt lat="48.528664" lon="10.362299">
<ele>382.981</ele>
<time>2020-09-10T12:18:15Z</time>
</trkpt>
<trkpt lat="48.528641" lon="10.36235">
<ele>382.981</ele>
<time>2020-09-10T12:18:16Z</time>
</trkpt>
<trkpt lat="48.528618" lon="10.362404">
<ele>382.981</ele>
<time>2020-09-10T12:18:17Z</time>
</trkpt>
<trkpt lat="48.528591" lon="10.362458">
<ele>382.981</ele>
<time>2020-09-10T12:18:18Z</time>
</trkpt>
<trkpt lat="48.528561" lon="10.362516">
<ele>382.981</ele>
<time>2020-09-10T12:18:19Z</time>
</trkpt>
<trkpt lat="48.528534" lon="10.362576">
<ele>382.981</ele>
<time>2020-09-10T12:18:20Z</time>
</trkpt>
<trkpt lat="48.528507" lon="10.362635">
<ele>382.981</ele>
<time>2020-09-10T12:18:21Z</time>
</trkpt>
<trkpt lat="48.528481" lon="10.362697">
<ele>382.981</ele>
<time>2020-09-10T12:18:22Z</time>
</trkpt>
<trkpt lat="48.528458" lon="10.362757">
<ele>382.981</ele>
<time>2020-09-10T12:18:23Z</time>
</trkpt>
<trkpt lat="48.528427" lon="10.362815">
<ele>382.981</ele>
<time>2020-09-10T12:18:24Z</time>
</trkpt>
<trkpt lat="48.528397" lon="10.362875">
<ele>382.981</ele>
<time>2020-09-10T12:18:25Z</time>
</trkpt>
<trkpt lat="48.528366" lon="10.362935">
<ele>382.981</ele>
<time>2020-09-10T12:18:26Z</time>
</trkpt>
<trkpt lat="48.528336" lon="10.362995">
<ele>382.981</ele>
<time>2020-09-10T12:18:27Z</time>
</trkpt>
<trkpt lat="48.528305" lon="10.363058">
<ele>382.981</ele>
<time>2020-09-10T12:18:28Z</time>
</trkpt>
<trkpt lat="48.528275" lon="10.36312">
<ele>382.981</ele>
<time>2020-09-10T12:18:29Z</time>
</trkpt>
<trkpt lat="48.52824" lon="10.363185">
<ele>382.981</ele>
<time>2020-09-10T12:18:30Z</time>
</trkpt>
<trkpt lat="48.52821" lon="10.36325">
<ele>382.981</ele>
<time>2020-09-10T12:18:31Z</time>
</trkpt>
<trkpt lat="48.528175" lon="10.363317">
<ele>382.981</ele>
<time>2020-09-10T12:18:32Z</time>
</trkpt>
<trkpt lat="48.528141" lon="10.363383">
<ele>382.981</ele>
<time>2020-09-10T12:18:33Z</time>
</trkpt>
<trkpt lat="48.528107" lon="10.363447">
<ele>382.981</ele>
<time>2020-09-10T12:18:34Z</time>
</trkpt>
<trkpt lat="48.528072" lon="10.363512">
<ele>382.981</ele>
<time>2020-09-10T12:18:35Z</time>
</trkpt>
<trkpt lat="48.528038" lon="10.363577">
<ele>382.981</ele>
<time>2020-09-10T12:18:36Z</time>
</trkpt>
<trkpt lat="48.528008" lon="10.363642">
<ele>382.981</ele>
<time>2020-09-10T12:18:37Z</time>
</trkpt>
<trkpt lat="48.527973" lon="10.363707">
<ele>382.981</ele>
<time>2020-09-10T12:18:38Z</time>
</trkpt>
<trkpt lat="48.527935" lon="10.363771">
<ele>382.981</ele>
<time>2020-09-10T12:18:39Z</time>
</trkpt>
<trkpt lat="48.527901" lon="10.363837">
<ele>382.981</ele>
<time>2020-09-10T12:18:40Z</time>
</trkpt>
<trkpt lat="48.527863" lon="10.363902">
<ele>382.981</ele>
<time>2020-09-10T12:18:41Z</time>
</trkpt>
<trkpt lat="48.527828" lon="10.363967">
<ele>382.981</ele>
<time>2020-09-10T12:18:42Z</time>
</trkpt>
<trkpt lat="48.52779" lon="10.36403">
<ele>382.981</ele>
<time>2020-09-10T12:18:43Z</time>
</trkpt>
<trkpt lat="48.527752" lon="10.364092">
<ele>382.981</ele>
<time>2020-09-10T12:18:44Z</time>
</trkpt>
<trkpt lat="48.527714" lon="10.36415">
<ele>382.981</ele>
<time>2020-09-10T12:18:45Z</time>
</trkpt>
<trkpt lat="48.527679" lon="10.36421">
<ele>382.981</ele>
<time>2020-09-10T12:18:46Z</time>
</trkpt>
<trkpt lat="48.527641" lon="10.36427">
<ele>382.981</ele>
<time>2020-09-10T12:18:47Z</time>
</trkpt>
<trkpt lat="48.527603" lon="10.364329">
<ele>382.981</ele>
<time>2020-09-10T12:18:48Z</time>
</trkpt>
<trkpt lat="48.527565" lon="10.364392">
<ele>382.981</ele>
<time>2020-09-10T12:18:49Z</time>
</trkpt>
<trkpt lat="48.527527" lon="10.364453">
<ele>382.981</ele>
<time>2020-09-10T12:18:50Z</time>
</trkpt>
<trkpt lat="48.527485" lon="10.364513">
<ele>382.981</ele>
<time>2020-09-10T12:18:51Z</time>
</trkpt>
<trkpt lat="48.527451" lon="10.364573">
<ele>382.981</ele>
<time>2020-09-10T12:18:52Z</time>
</trkpt>
<trkpt lat="48.527412" lon="10.364632">
<ele>382.981</ele>
<time>2020-09-10T12:18:53Z</time>
</trkpt>
<trkpt lat="48.52737" lon="10.364692">
<ele>382.981</ele>
<time>2020-09-10T12:18:54Z</time>
</trkpt>
<trkpt lat="48.527332" lon="10.36475">
<ele>382.981</ele>
<time>2020-09-10T12:18:55Z</time>
</trkpt>
<trkpt lat="48.527294" lon="10.364805">
<ele>382.981</ele>
<time>2020-09-10T12:18:56Z</time>
</trkpt>
<trkpt lat="48.527256" lon="10.364859">
<ele>382.981</ele>
<time>2020-09-10T12:18:57Z</time>
</trkpt>
<trkpt lat="48.527218" lon="10.364912">
<ele>382.981</ele>
<time>2020-09-10T12:18:58Z</time>
</trkpt>
<trkpt lat="48.527184" lon="10.364964">
<ele>382.981</ele>
<time>2020-09-10T12:18:59Z</time>
</trkpt>
<trkpt lat="48.527145" lon="10.365017">
<ele>382.981</ele>
<time>2020-09-10T12:19:00Z</time>
</trkpt>
<trkpt lat="48.527111" lon="10.365067">
<ele>382.712</ele>
<time>2020-09-10T12:19:01Z</time>
</trkpt>
<trkpt lat="48.527073" lon="10.365117">
<ele>382.501</ele>
<time>2020-09-10T12:19:02Z</time>
</trkpt>
<trkpt lat="48.527039" lon="10.365165">
<ele>382.338</ele>
<time>2020-09-10T12:19:03Z</time>
</trkpt>
<trkpt lat="48.527004" lon="10.365213">
<ele>382.221</ele>
<time>2020-09-10T12:19:04Z</time>
</trkpt>
<trkpt lat="48.52697" lon="10.36526">
<ele>382.137</ele>
<time>2020-09-10T12:19:05Z</time>
</trkpt>
<trkpt lat="48.526939" lon="10.365303">
<ele>382.085</ele>
<time>2020-09-10T12:19:06Z</time>
</trkpt>
<trkpt lat="48.526905" lon="10.365336">
<ele>382.056</ele>
<time>2020-09-10T12:19:07Z</time>
</trkpt>
<trkpt lat="48.526867" lon="10.365354">
<ele>382.033</ele>
<time>2020-09-10T12:19:08Z</time>
</trkpt>
<trkpt lat="48.526817" lon="10.36535">
<ele>382.033</ele>
<time>2020-09-10T12:19:09Z</time>
</trkpt>
<trkpt lat="48.526772" lon="10.36532">
<ele>382.033</ele>
<time>2020-09-10T12:19:10Z</time>
</trkpt>
<trkpt lat="48.526733" lon="10.365268">
<ele>382.033</ele>
<time>2020-09-10T12:19:11Z</time>
</trkpt>
<trkpt lat="48.526695" lon="10.365209">
<ele>382.033</ele>
<time>2020-09-10T12:19:12Z</time>
</trkpt>
<trkpt lat="48.526649" lon="10.365147">
<ele>382.033</ele>
<time>2020-09-10T12:19:13Z</time>
</trkpt>
<trkpt lat="48.526604" lon="10.365084">
<ele>381.787</ele>
<time>2020-09-10T12:19:14Z</time>
</trkpt>
<trkpt lat="48.526562" lon="10.365019">
<ele>381.6</ele>
<time>2020-09-10T12:19:15Z</time>
</trkpt>
<trkpt lat="48.526516" lon="10.364952">
<ele>381.465</ele>
<time>2020-09-10T12:19:16Z</time>
</trkpt>
<trkpt lat="48.526474" lon="10.364882">
<ele>381.368</ele>
<time>2020-09-10T12:19:17Z</time>
</trkpt>
<trkpt lat="48.526432" lon="10.36482">
<ele>381.304</ele>
<time>2020-09-10T12:19:18Z</time>
</trkpt>
<trkpt lat="48.526382" lon="10.364758">
<ele>381.236</ele>
<time>2020-09-10T12:19:19Z</time>
</trkpt>
<trkpt lat="48.52634" lon="10.364697">
<ele>381.193</ele>
<time>2020-09-10T12:19:20Z</time>
</trkpt>
<trkpt lat="48.526299" lon="10.364637">
<ele>381.172</ele>
<time>2020-09-10T12:19:21Z</time>
</trkpt>
<trkpt lat="48.526253" lon="10.364574">
<ele>381.172</ele>
<time>2020-09-10T12:19:22Z</time>
</trkpt>
<trkpt lat="48.526211" lon="10.364513">
<ele>381.172</ele>
<time>2020-09-10T12:19:23Z</time>
</trkpt>
<trkpt lat="48.526169" lon="10.36445">
<ele>381.172</ele>
<time>2020-09-10T12:19:24Z</time>
</trkpt>
<trkpt lat="48.526123" lon="10.364388">
<ele>381.172</ele>
<time>2020-09-10T12:19:25Z</time>
</trkpt>
<trkpt lat="48.526085" lon="10.364328">
<ele>381.172</ele>
<time>2020-09-10T12:19:26Z</time>
</trkpt>
<trkpt lat="48.526039" lon="10.364266">
<ele>381.172</ele>
<time>2020-09-10T12:19:27Z</time>
</trkpt>
<trkpt lat="48.525993" lon="10.364206">
<ele>381.172</ele>
<time>2020-09-10T12:19:28Z</time>
</trkpt>
<trkpt lat="48.525951" lon="10.364147">
<ele>381.172</ele>
<time>2020-09-10T12:19:29Z</time>
</trkpt>
<trkpt lat="48.525902" lon="10.364086">
<ele>381.172</ele>
<time>2020-09-10T12:19:30Z</time>
</trkpt>
<trkpt lat="48.525856" lon="10.364028">
<ele>381.172</ele>
<time>2020-09-10T12:19:31Z</time>
</trkpt>
<trkpt lat="48.525814" lon="10.36397">
<ele>381.172</ele>
<time>2020-09-10T12:19:32Z</time>
</trkpt>
<trkpt lat="48.525764" lon="10.363914">
<ele>381.172</ele>
<time>2020-09-10T12:19:33Z</time>
</trkpt>
<trkpt lat="48.525719" lon="10.363862">
<ele>381.172</ele>
<time>2020-09-10T12:19:34Z</time>
</trkpt>
<trkpt lat="48.525669" lon="10.36381">
<ele>381.172</ele>
<time>2020-09-10T12:19:35Z</time>
</trkpt>
<trkpt lat="48.52562" lon="10.363764">
<ele>381.172</ele>
<time>2020-09-10T12:19:36Z</time>
</trkpt>
<trkpt lat="48.525562" lon="10.363722">
<ele>381.172</ele>
<time>2020-09-10T12:19:37Z</time>
</trkpt>
<trkpt lat="48.525509" lon="10.363684">
<ele>381.172</ele>
<time>2020-09-10T12:19:38Z</time>
</trkpt>
<trkpt lat="48.525452" lon="10.363647">
<ele>381.172</ele>
<time>2020-09-10T12:19:39Z</time>
</trkpt>
<trkpt lat="48.525394" lon="10.363615">
<ele>381.172</ele>
<time>2020-09-10T12:19:40Z</time>
</trkpt>
<trkpt lat="48.525333" lon="10.363585">
<ele>381.172</ele>
<time>2020-09-10T12:19:41Z</time>
</trkpt>
<trkpt lat="48.525272" lon="10.363562">
<ele>381.172</ele>
<time>2020-09-10T12:19:42Z</time>
</trkpt>
<trkpt lat="48.525215" lon="10.363544">
<ele>381.172</ele>
<time>2020-09-10T12:19:43Z</time>
</trkpt>
<trkpt lat="48.525158" lon="10.363526">
<ele>381.172</ele>
<time>2020-09-10T12:19:44Z</time>
</trkpt>
<trkpt lat="48.525101" lon="10.363514">
<ele>381.172</ele>
<time>2020-09-10T12:19:45Z</time>
</trkpt>
<trkpt lat="48.52504" lon="10.363502">
<ele>381.172</ele>
<time>2020-09-10T12:19:46Z</time>
</trkpt>
<trkpt lat="48.524979" lon="10.363493">
<ele>381.172</ele>
<time>2020-09-10T12:19:47Z</time>
</trkpt>
<trkpt lat="48.524918" lon="10.363485">
<ele>381.172</ele>
<time>2020-09-10T12:19:48Z</time>
</trkpt>
<trkpt lat="48.52486" lon="10.363479">
<ele>381.172</ele>
<time>2020-09-10T12:19:49Z</time>
</trkpt>
<trkpt lat="48.524807" lon="10.363475">
<ele>381.172</ele>
<time>2020-09-10T12:19:50Z</time>
</trkpt>
<trkpt lat="48.524746" lon="10.363466">
<ele>381.172</ele>
<time>2020-09-10T12:19:51Z</time>
</trkpt>
<trkpt lat="48.524689" lon="10.363458">
<ele>381.172</ele>
<time>2020-09-10T12:19:52Z</time>
</trkpt>
<trkpt lat="48.524632" lon="10.363452">
<ele>381.172</ele>
<time>2020-09-10T12:19:53Z</time>
</trkpt>
<trkpt lat="48.52457" lon="10.363441">
<ele>381.172</ele>
<time>2020-09-10T12:19:54Z</time>
</trkpt>
<trkpt lat="48.524513" lon="10.36343">
<ele>381.172</ele>
<time>2020-09-10T12:19:55Z</time>
</trkpt>
<trkpt lat="48.524452" lon="10.363421">
<ele>381.172</ele>
<time>2020-09-10T12:19:56Z</time>
</trkpt>
<trkpt lat="48.524387" lon="10.363412">
<ele>381.172</ele>
<time>2020-09-10T12:19:57Z</time>
</trkpt>
<trkpt lat="48.524323" lon="10.363403">
<ele>381.172</ele>
<time>2020-09-10T12:19:58Z</time>
</trkpt>
<trkpt lat="48.524261" lon="10.363399">
<ele>381.172</ele>
<time>2020-09-10T12:19:59Z</time>
</trkpt>
<trkpt lat="48.5242" lon="10.36339">
<ele>381.172</ele>
<time>2020-09-10T12:20:00Z</time>
</trkpt>
<trkpt lat="48.524139" lon="10.363383">
<ele>381.172</ele>
<time>2020-09-10T12:20:01Z</time>
</trkpt>
<trkpt lat="48.524086" lon="10.363375">
<ele>381.172</ele>
<time>2020-09-10T12:20:02Z</time>
</trkpt>
<trkpt lat="48.524025" lon="10.363363">
<ele>381.172</ele>
<time>2020-09-10T12:20:03Z</time>
</trkpt>
<trkpt lat="48.523964" lon="10.363355">
<ele>381.172</ele>
<time>2020-09-10T12:20:04Z</time>
</trkpt>
<trkpt lat="48.523907" lon="10.363345">
<ele>381.172</ele>
<time>2020-09-10T12:20:05Z</time>
</trkpt>
<trkpt lat="48.523849" lon="10.363334">
<ele>381.172</ele>
<time>2020-09-10T12:20:06Z</time>
</trkpt>
<trkpt lat="48.523792" lon="10.363319">
<ele>381.172</ele>
<time>2020-09-10T12:20:07Z</time>
</trkpt>
<trkpt lat="48.523731" lon="10.363309">
<ele>381.172</ele>
<time>2020-09-10T12:20:08Z</time>
</trkpt>
<trkpt lat="48.523663" lon="10.3633">
<ele>381.172</ele>
<time>2020-09-10T12:20:09Z</time>
</trkpt>
<trkpt lat="48.523602" lon="10.363288">
<ele>381.172</ele>
<time>2020-09-10T12:20:10Z</time>
</trkpt>
<trkpt lat="48.523533" lon="10.363278">
<ele>381.172</ele>
<time>2020-09-10T12:20:11Z</time>
</trkpt>
<trkpt lat="48.523472" lon="10.363263">
<ele>381.172</ele>
<time>2020-09-10T12:20:12Z</time>
</trkpt>
<trkpt lat="48.523403" lon="10.363253">
<ele>381.172</ele>
<time>2020-09-10T12:20:13Z</time>
</trkpt>
<trkpt lat="48.523338" lon="10.363246">
<ele>381.172</ele>
<time>2020-09-10T12:20:14Z</time>
</trkpt>
<trkpt lat="48.52327" lon="10.363234">
<ele>381.172</ele>
<time>2020-09-10T12:20:15Z</time>
</trkpt>
<trkpt lat="48.523201" lon="10.363228">
<ele>381.172</ele>
<time>2020-09-10T12:20:16Z</time>
</trkpt>
<trkpt lat="48.523132" lon="10.363218">
<ele>381.172</ele>
<time>2020-09-10T12:20:17Z</time>
</trkpt>
<trkpt lat="48.52306" lon="10.363213">
<ele>381.172</ele>
<time>2020-09-10T12:20:18Z</time>
</trkpt>
<trkpt lat="48.522995" lon="10.363207">
<ele>381.172</ele>
<time>2020-09-10T12:20:19Z</time>
</trkpt>
<trkpt lat="48.52293" lon="10.363198">
<ele>381.172</ele>
<time>2020-09-10T12:20:20Z</time>
</trkpt>
<trkpt lat="48.522865" lon="10.363187">
<ele>381.172</ele>
<time>2020-09-10T12:20:21Z</time>
</trkpt>
<trkpt lat="48.5228" lon="10.363177">
<ele>380.909</ele>
<time>2020-09-10T12:20:22Z</time>
</trkpt>
<trkpt lat="48.522739" lon="10.363163">
<ele>380.703</ele>
<time>2020-09-10T12:20:23Z</time>
</trkpt>
<trkpt lat="48.522678" lon="10.363152">
<ele>380.548</ele>
<time>2020-09-10T12:20:24Z</time>
</trkpt>
<trkpt lat="48.522617" lon="10.363138">
<ele>380.429</ele>
<time>2020-09-10T12:20:25Z</time>
</trkpt>
<trkpt lat="48.522552" lon="10.363132">
<ele>380.348</ele>
<time>2020-09-10T12:20:26Z</time>
</trkpt>
<trkpt lat="48.522495" lon="10.363127">
<ele>380.294</ele>
<time>2020-09-10T12:20:27Z</time>
</trkpt>
<trkpt lat="48.522434" lon="10.363118">
<ele>380.251</ele>
<time>2020-09-10T12:20:28Z</time>
</trkpt>
<trkpt lat="48.522377" lon="10.36311">
<ele>380.224</ele>
<time>2020-09-10T12:20:29Z</time>
</trkpt>
<trkpt lat="48.52232" lon="10.363102">
<ele>380.224</ele>
<time>2020-09-10T12:20:30Z</time>
</trkpt>
<trkpt lat="48.522259" lon="10.363095">
<ele>380.472</ele>
<time>2020-09-10T12:20:31Z</time>
</trkpt>
<trkpt lat="48.522202" lon="10.363089">
<ele>380.664</ele>
<time>2020-09-10T12:20:32Z</time>
</trkpt>
<trkpt lat="48.522137" lon="10.363083">
<ele>380.811</ele>
<time>2020-09-10T12:20:33Z</time>
</trkpt>
<trkpt lat="48.522079" lon="10.363076">
<ele>380.92</ele>
<time>2020-09-10T12:20:34Z</time>
</trkpt>
<trkpt lat="48.522018" lon="10.363066">
<ele>380.998</ele>
<time>2020-09-10T12:20:35Z</time>
</trkpt>
<trkpt lat="48.521961" lon="10.363051">
<ele>381.044</ele>
<time>2020-09-10T12:20:36Z</time>
</trkpt>
<trkpt lat="48.521904" lon="10.363041">
<ele>381.066</ele>
<time>2020-09-10T12:20:37Z</time>
</trkpt>
<trkpt lat="48.521843" lon="10.363035">
<ele>381.086</ele>
<time>2020-09-10T12:20:38Z</time>
</trkpt>
<trkpt lat="48.521782" lon="10.36303">
<ele>381.086</ele>
<time>2020-09-10T12:20:39Z</time>
</trkpt>
<trkpt lat="48.521721" lon="10.363022">
<ele>381.086</ele>
<time>2020-09-10T12:20:40Z</time>
</trkpt>
<trkpt lat="48.521664" lon="10.363011">
<ele>381.086</ele>
<time>2020-09-10T12:20:41Z</time>
</trkpt>
<trkpt lat="48.521606" lon="10.363">
<ele>381.086</ele>
<time>2020-09-10T12:20:42Z</time>
</trkpt>
<trkpt lat="48.521549" lon="10.362992">
<ele>381.086</ele>
<time>2020-09-10T12:20:43Z</time>
</trkpt>
<trkpt lat="48.521488" lon="10.362984">
<ele>381.086</ele>
<time>2020-09-10T12:20:44Z</time>
</trkpt>
<trkpt lat="48.521427" lon="10.362976">
<ele>381.086</ele>
<time>2020-09-10T12:20:45Z</time>
</trkpt>
<trkpt lat="48.521366" lon="10.362967">
<ele>381.086</ele>
<time>2020-09-10T12:20:46Z</time>
</trkpt>
<trkpt lat="48.521305" lon="10.362962">
<ele>381.086</ele>
<time>2020-09-10T12:20:47Z</time>
</trkpt>
<trkpt lat="48.521244" lon="10.362951">
<ele>381.086</ele>
<time>2020-09-10T12:20:48Z</time>
</trkpt>
<trkpt lat="48.521183" lon="10.36294">
<ele>381.086</ele>
<time>2020-09-10T12:20:49Z</time>
</trkpt>
<trkpt lat="48.521122" lon="10.362928">
<ele>381.086</ele>
<time>2020-09-10T12:20:50Z</time>
</trkpt>
<trkpt lat="48.521057" lon="10.362917">
<ele>381.086</ele>
<time>2020-09-10T12:20:51Z</time>
</trkpt>
<trkpt lat="48.520996" lon="10.362905">
<ele>381.086</ele>
<time>2020-09-10T12:20:52Z</time>
</trkpt>
<trkpt lat="48.520931" lon="10.362897">
<ele>381.086</ele>
<time>2020-09-10T12:20:53Z</time>
</trkpt>
<trkpt lat="48.520866" lon="10.362888">
<ele>381.086</ele>
<time>2020-09-10T12:20:54Z</time>
</trkpt>
<trkpt lat="48.520805" lon="10.36288">
<ele>381.086</ele>
<time>2020-09-10T12:20:55Z</time>
</trkpt>
<trkpt lat="48.520744" lon="10.362869">
<ele>381.086</ele>
<time>2020-09-10T12:20:56Z</time>
</trkpt>
<trkpt lat="48.520679" lon="10.362861">
<ele>381.086</ele>
<time>2020-09-10T12:20:57Z</time>
</trkpt>
<trkpt lat="48.520618" lon="10.362848">
<ele>381.086</ele>
<time>2020-09-10T12:20:58Z</time>
</trkpt>
<trkpt lat="48.520557" lon="10.362838">
<ele>381.086</ele>
<time>2020-09-10T12:20:59Z</time>
</trkpt>
<trkpt lat="48.520493" lon="10.362829">
<ele>381.086</ele>
<time>2020-09-10T12:21:00Z</time>
</trkpt>
<trkpt lat="48.520432" lon="10.362822">
<ele>381.086</ele>
<time>2020-09-10T12:21:01Z</time>
</trkpt>
<trkpt lat="48.52037" lon="10.362812">
<ele>381.086</ele>
<time>2020-09-10T12:21:02Z</time>
</trkpt>
<trkpt lat="48.520309" lon="10.3628">
<ele>381.086</ele>
<time>2020-09-10T12:21:03Z</time>
</trkpt>
<trkpt lat="48.520248" lon="10.36279">
<ele>381.086</ele>
<time>2020-09-10T12:21:04Z</time>
</trkpt>
<trkpt lat="48.520184" lon="10.362779">
<ele>381.086</ele>
<time>2020-09-10T12:21:05Z</time>
</trkpt>
<trkpt lat="48.520123" lon="10.362768">
<ele>381.086</ele>
<time>2020-09-10T12:21:06Z</time>
</trkpt>
<trkpt lat="48.520061" lon="10.362759">
<ele>381.086</ele>
<time>2020-09-10T12:21:07Z</time>
</trkpt>
<trkpt lat="48.52" lon="10.362748">
<ele>381.086</ele>
<time>2020-09-10T12:21:08Z</time>
</trkpt>
<trkpt lat="48.519936" lon="10.362735">
<ele>381.086</ele>
<time>2020-09-10T12:21:09Z</time>
</trkpt>
<trkpt lat="48.519875" lon="10.362722">
<ele>381.086</ele>
<time>2020-09-10T12:21:10Z</time>
</trkpt>
<trkpt lat="48.519814" lon="10.362706">
<ele>381.086</ele>
<time>2020-09-10T12:21:11Z</time>
</trkpt>
<trkpt lat="48.519753" lon="10.36269">
<ele>381.086</ele>
<time>2020-09-10T12:21:12Z</time>
</trkpt>
<trkpt lat="48.519688" lon="10.362674">
<ele>381.086</ele>
<time>2020-09-10T12:21:13Z</time>
</trkpt>
<trkpt lat="48.519623" lon="10.362655">
<ele>381.086</ele>
<time>2020-09-10T12:21:14Z</time>
</trkpt>
<trkpt lat="48.519562" lon="10.362637">
<ele>381.086</ele>
<time>2020-09-10T12:21:15Z</time>
</trkpt>
<trkpt lat="48.519497" lon="10.362619">
<ele>381.086</ele>
<time>2020-09-10T12:21:16Z</time>
</trkpt>
<trkpt lat="48.519436" lon="10.362603">
<ele>381.086</ele>
<time>2020-09-10T12:21:17Z</time>
</trkpt>
<trkpt lat="48.519375" lon="10.362586">
<ele>381.086</ele>
<time>2020-09-10T12:21:18Z</time>
</trkpt>
<trkpt lat="48.519314" lon="10.362568">
<ele>381.086</ele>
<time>2020-09-10T12:21:19Z</time>
</trkpt>
<trkpt lat="48.519253" lon="10.362552">
<ele>381.086</ele>
<time>2020-09-10T12:21:20Z</time>
</trkpt>
<trkpt lat="48.519192" lon="10.362538">
<ele>381.086</ele>
<time>2020-09-10T12:21:21Z</time>
</trkpt>
<trkpt lat="48.519135" lon="10.362527">
<ele>381.086</ele>
<time>2020-09-10T12:21:22Z</time>
</trkpt>
<trkpt lat="48.51907" lon="10.362512">
<ele>381.086</ele>
<time>2020-09-10T12:21:23Z</time>
</trkpt>
<trkpt lat="48.519009" lon="10.362496">
<ele>381.086</ele>
<time>2020-09-10T12:21:24Z</time>
</trkpt>
<trkpt lat="48.518948" lon="10.362481">
<ele>381.086</ele>
<time>2020-09-10T12:21:25Z</time>
</trkpt>
<trkpt lat="48.518887" lon="10.362467">
<ele>381.086</ele>
<time>2020-09-10T12:21:26Z</time>
</trkpt>
<trkpt lat="48.518826" lon="10.362453">
<ele>381.086</ele>
<time>2020-09-10T12:21:27Z</time>
</trkpt>
<trkpt lat="48.518764" lon="10.362437">
<ele>381.086</ele>
<time>2020-09-10T12:21:28Z</time>
</trkpt>
<trkpt lat="48.518703" lon="10.362418">
<ele>381.086</ele>
<time>2020-09-10T12:21:29Z</time>
</trkpt>
<trkpt lat="48.518646" lon="10.3624">
<ele>381.086</ele>
<time>2020-09-10T12:21:30Z</time>
</trkpt>
<trkpt lat="48.518581" lon="10.362383">
<ele>381.086</ele>
<time>2020-09-10T12:21:31Z</time>
</trkpt>
<trkpt lat="48.51852" lon="10.362367">
<ele>381.086</ele>
<time>2020-09-10T12:21:32Z</time>
</trkpt>
<trkpt lat="48.518463" lon="10.362348">
<ele>381.086</ele>
<time>2020-09-10T12:21:33Z</time>
</trkpt>
<trkpt lat="48.518406" lon="10.36233">
<ele>381.086</ele>
<time>2020-09-10T12:21:34Z</time>
</trkpt>
<trkpt lat="48.518349" lon="10.362313">
<ele>381.086</ele>
<time>2020-09-10T12:21:35Z</time>
</trkpt>
<trkpt lat="48.518291" lon="10.3623">
<ele>381.086</ele>
<time>2020-09-10T12:21:36Z</time>
</trkpt>
<trkpt lat="48.51823" lon="10.362285">
<ele>381.086</ele>
<time>2020-09-10T12:21:37Z</time>
</trkpt>
<trkpt lat="48.518169" lon="10.36227">
<ele>381.086</ele>
<time>2020-09-10T12:21:38Z</time>
</trkpt>
<trkpt lat="48.518108" lon="10.362253">
<ele>381.086</ele>
<time>2020-09-10T12:21:39Z</time>
</trkpt>
<trkpt lat="48.518051" lon="10.362237">
<ele>381.086</ele>
<time>2020-09-10T12:21:40Z</time>
</trkpt>
<trkpt lat="48.517994" lon="10.362222">
<ele>381.086</ele>
<time>2020-09-10T12:21:41Z</time>
</trkpt>
<trkpt lat="48.517933" lon="10.362206">
<ele>381.086</ele>
<time>2020-09-10T12:21:42Z</time>
</trkpt>
<trkpt lat="48.517872" lon="10.362192">
<ele>381.086</ele>
<time>2020-09-10T12:21:43Z</time>
</trkpt>
<trkpt lat="48.517811" lon="10.362177">
<ele>381.086</ele>
<time>2020-09-10T12:21:44Z</time>
</trkpt>
<trkpt lat="48.517754" lon="10.362162">
<ele>381.086</ele>
<time>2020-09-10T12:21:45Z</time>
</trkpt>
<trkpt lat="48.517693" lon="10.362144">
<ele>381.086</ele>
<time>2020-09-10T12:21:46Z</time>
</trkpt>
<trkpt lat="48.517635" lon="10.362127">
<ele>381.086</ele>
<time>2020-09-10T12:21:47Z</time>
</trkpt>
<trkpt lat="48.517574" lon="10.362112">
<ele>381.086</ele>
<time>2020-09-10T12:21:48Z</time>
</trkpt>
<trkpt lat="48.517509" lon="10.362096">
<ele>381.086</ele>
<time>2020-09-10T12:21:49Z</time>
</trkpt>
<trkpt lat="48.517448" lon="10.362077">
<ele>381.086</ele>
<time>2020-09-10T12:21:50Z</time>
</trkpt>
<trkpt lat="48.517391" lon="10.362059">
<ele>381.086</ele>
<time>2020-09-10T12:21:51Z</time>
</trkpt>
<trkpt lat="48.517326" lon="10.36204">
<ele>381.086</ele>
<time>2020-09-10T12:21:52Z</time>
</trkpt>
<trkpt lat="48.517269" lon="10.362019">
<ele>381.086</ele>
<time>2020-09-10T12:21:53Z</time>
</trkpt>
<trkpt lat="48.517212" lon="10.361998">
<ele>381.086</ele>
<time>2020-09-10T12:21:54Z</time>
</trkpt>
<trkpt lat="48.517151" lon="10.361977">
<ele>381.086</ele>
<time>2020-09-10T12:21:55Z</time>
</trkpt>
<trkpt lat="48.517094" lon="10.361952">
<ele>381.086</ele>
<time>2020-09-10T12:21:56Z</time>
</trkpt>
<trkpt lat="48.517036" lon="10.361924">
<ele>381.086</ele>
<time>2020-09-10T12:21:57Z</time>
</trkpt>
<trkpt lat="48.516979" lon="10.361893">
<ele>381.086</ele>
<time>2020-09-10T12:21:58Z</time>
</trkpt>
<trkpt lat="48.516922" lon="10.361863">
<ele>381.086</ele>
<time>2020-09-10T12:21:59Z</time>
</trkpt>
<trkpt lat="48.516861" lon="10.361832">
<ele>381.086</ele>
<time>2020-09-10T12:22:00Z</time>
</trkpt>
<trkpt lat="48.516804" lon="10.361796">
<ele>381.086</ele>
<time>2020-09-10T12:22:01Z</time>
</trkpt>
<trkpt lat="48.516747" lon="10.36176">
<ele>381.086</ele>
<time>2020-09-10T12:22:02Z</time>
</trkpt>
<trkpt lat="48.516693" lon="10.361727">
<ele>381.086</ele>
<time>2020-09-10T12:22:03Z</time>
</trkpt>
<trkpt lat="48.516632" lon="10.361695">
<ele>381.086</ele>
<time>2020-09-10T12:22:04Z</time>
</trkpt>
<trkpt lat="48.516579" lon="10.361664">
<ele>381.086</ele>
<time>2020-09-10T12:22:05Z</time>
</trkpt>
<trkpt lat="48.516525" lon="10.361631">
<ele>381.086</ele>
<time>2020-09-10T12:22:06Z</time>
</trkpt>
<trkpt lat="48.516468" lon="10.361597">
<ele>381.086</ele>
<time>2020-09-10T12:22:07Z</time>
</trkpt>
<trkpt lat="48.516415" lon="10.361562">
<ele>381.086</ele>
<time>2020-09-10T12:22:08Z</time>
</trkpt>
<trkpt lat="48.516357" lon="10.361526">
<ele>381.086</ele>
<time>2020-09-10T12:22:09Z</time>
</trkpt>
<trkpt lat="48.516304" lon="10.361493">
<ele>381.086</ele>
<time>2020-09-10T12:22:10Z</time>
</trkpt>
<trkpt lat="48.516243" lon="10.361462">
<ele>381.086</ele>
<time>2020-09-10T12:22:11Z</time>
</trkpt>
<trkpt lat="48.51619" lon="10.361428">
<ele>381.086</ele>
<time>2020-09-10T12:22:12Z</time>
</trkpt>
<trkpt lat="48.516132" lon="10.361395">
<ele>381.086</ele>
<time>2020-09-10T12:22:13Z</time>
</trkpt>
<trkpt lat="48.516075" lon="10.361363">
<ele>381.086</ele>
<time>2020-09-10T12:22:14Z</time>
</trkpt>
<trkpt lat="48.516014" lon="10.361332">
<ele>381.086</ele>
<time>2020-09-10T12:22:15Z</time>
</trkpt>
<trkpt lat="48.515957" lon="10.3613">
<ele>381.086</ele>
<time>2020-09-10T12:22:16Z</time>
</trkpt>
<trkpt lat="48.515903" lon="10.361264">
<ele>381.086</ele>
<time>2020-09-10T12:22:17Z</time>
</trkpt>
<trkpt lat="48.515846" lon="10.36123">
<ele>381.086</ele>
<time>2020-09-10T12:22:18Z</time>
</trkpt>
<trkpt lat="48.515789" lon="10.361195">
<ele>381.086</ele>
<time>2020-09-10T12:22:19Z</time>
</trkpt>
<trkpt lat="48.515732" lon="10.361161">
<ele>381.086</ele>
<time>2020-09-10T12:22:20Z</time>
</trkpt>
<trkpt lat="48.515678" lon="10.361125">
<ele>381.086</ele>
<time>2020-09-10T12:22:21Z</time>
</trkpt>
<trkpt lat="48.515621" lon="10.361092">
<ele>381.086</ele>
<time>2020-09-10T12:22:22Z</time>
</trkpt>
<trkpt lat="48.515568" lon="10.361056">
<ele>381.086</ele>
<time>2020-09-10T12:22:23Z</time>
</trkpt>
<trkpt lat="48.515511" lon="10.361023">
<ele>381.086</ele>
<time>2020-09-10T12:22:24Z</time>
</trkpt>
<trkpt lat="48.515453" lon="10.36099">
<ele>381.086</ele>
<time>2020-09-10T12:22:25Z</time>
</trkpt>
<trkpt lat="48.515396" lon="10.360956">
<ele>381.086</ele>
<time>2020-09-10T12:22:26Z</time>
</trkpt>
<trkpt lat="48.515343" lon="10.360923">
<ele>381.086</ele>
<time>2020-09-10T12:22:27Z</time>
</trkpt>
<trkpt lat="48.515289" lon="10.360889">
<ele>381.086</ele>
<time>2020-09-10T12:22:28Z</time>
</trkpt>
<trkpt lat="48.515232" lon="10.360856">
<ele>381.086</ele>
<time>2020-09-10T12:22:29Z</time>
</trkpt>
<trkpt lat="48.515175" lon="10.360824">
<ele>381.086</ele>
<time>2020-09-10T12:22:30Z</time>
</trkpt>
<trkpt lat="48.515121" lon="10.360791">
<ele>381.086</ele>
<time>2020-09-10T12:22:31Z</time>
</trkpt>
<trkpt lat="48.515064" lon="10.360762">
<ele>381.086</ele>
<time>2020-09-10T12:22:32Z</time>
</trkpt>
<trkpt lat="48.515011" lon="10.360728">
<ele>381.086</ele>
<time>2020-09-10T12:22:33Z</time>
</trkpt>
<trkpt lat="48.514954" lon="10.360694">
<ele>381.086</ele>
<time>2020-09-10T12:22:34Z</time>
</trkpt>
<trkpt lat="48.514896" lon="10.360661">
<ele>381.086</ele>
<time>2020-09-10T12:22:35Z</time>
</trkpt>
<trkpt lat="48.514839" lon="10.360627">
<ele>381.086</ele>
<time>2020-09-10T12:22:36Z</time>
</trkpt>
<trkpt lat="48.514782" lon="10.360596">
<ele>381.086</ele>
<time>2020-09-10T12:22:37Z</time>
</trkpt>
<trkpt lat="48.514725" lon="10.360565">
<ele>381.086</ele>
<time>2020-09-10T12:22:38Z</time>
</trkpt>
<trkpt lat="48.514668" lon="10.360538">
<ele>381.086</ele>
<time>2020-09-10T12:22:39Z</time>
</trkpt>
<trkpt lat="48.514606" lon="10.360512">
<ele>381.086</ele>
<time>2020-09-10T12:22:40Z</time>
</trkpt>
<trkpt lat="48.514545" lon="10.360489">
<ele>381.086</ele>
<time>2020-09-10T12:22:41Z</time>
</trkpt>
<trkpt lat="48.514484" lon="10.360463">
<ele>381.086</ele>
<time>2020-09-10T12:22:42Z</time>
</trkpt>
<trkpt lat="48.514427" lon="10.36044">
<ele>381.086</ele>
<time>2020-09-10T12:22:43Z</time>
</trkpt>
<trkpt lat="48.51437" lon="10.36042">
<ele>381.086</ele>
<time>2020-09-10T12:22:44Z</time>
</trkpt>
<trkpt lat="48.514313" lon="10.3604">
<ele>381.086</ele>
<time>2020-09-10T12:22:45Z</time>
</trkpt>
<trkpt lat="48.514252" lon="10.360378">
<ele>381.086</ele>
<time>2020-09-10T12:22:46Z</time>
</trkpt>
<trkpt lat="48.514191" lon="10.360357">
<ele>381.086</ele>
<time>2020-09-10T12:22:47Z</time>
</trkpt>
<trkpt lat="48.51413" lon="10.360333">
<ele>381.086</ele>
<time>2020-09-10T12:22:48Z</time>
</trkpt>
<trkpt lat="48.514069" lon="10.360311">
<ele>381.086</ele>
<time>2020-09-10T12:22:49Z</time>
</trkpt>
<trkpt lat="48.514008" lon="10.360288">
<ele>381.086</ele>
<time>2020-09-10T12:22:50Z</time>
</trkpt>
<trkpt lat="48.513947" lon="10.360267">
<ele>381.086</ele>
<time>2020-09-10T12:22:51Z</time>
</trkpt>
<trkpt lat="48.513885" lon="10.360246">
<ele>381.086</ele>
<time>2020-09-10T12:22:52Z</time>
</trkpt>
<trkpt lat="48.513824" lon="10.360225">
<ele>381.086</ele>
<time>2020-09-10T12:22:53Z</time>
</trkpt>
<trkpt lat="48.51376" lon="10.360202">
<ele>381.086</ele>
<time>2020-09-10T12:22:54Z</time>
</trkpt>
<trkpt lat="48.513699" lon="10.36018">
<ele>381.086</ele>
<time>2020-09-10T12:22:55Z</time>
</trkpt>
<trkpt lat="48.513634" lon="10.360156">
<ele>381.086</ele>
<time>2020-09-10T12:22:56Z</time>
</trkpt>
<trkpt lat="48.513569" lon="10.360135">
<ele>381.086</ele>
<time>2020-09-10T12:22:57Z</time>
</trkpt>
<trkpt lat="48.513508" lon="10.360112">
<ele>381.086</ele>
<time>2020-09-10T12:22:58Z</time>
</trkpt>
<trkpt lat="48.513443" lon="10.36009">
<ele>381.086</ele>
<time>2020-09-10T12:22:59Z</time>
</trkpt>
<trkpt lat="48.513382" lon="10.360068">
<ele>381.086</ele>
<time>2020-09-10T12:23:00Z</time>
</trkpt>
<trkpt lat="48.513321" lon="10.360044">
<ele>381.086</ele>
<time>2020-09-10T12:23:01Z</time>
</trkpt>
<trkpt lat="48.513256" lon="10.360022">
<ele>381.086</ele>
<time>2020-09-10T12:23:02Z</time>
</trkpt>
<trkpt lat="48.513195" lon="10.359999">
<ele>381.086</ele>
<time>2020-09-10T12:23:03Z</time>
</trkpt>
<trkpt lat="48.513134" lon="10.359976">
<ele>381.086</ele>
<time>2020-09-10T12:23:04Z</time>
</trkpt>
<trkpt lat="48.513069" lon="10.359953">
<ele>381.086</ele>
<time>2020-09-10T12:23:05Z</time>
</trkpt>
<trkpt lat="48.513008" lon="10.359928">
<ele>381.086</ele>
<time>2020-09-10T12:23:06Z</time>
</trkpt>
<trkpt lat="48.512943" lon="10.359903">
<ele>381.086</ele>
<time>2020-09-10T12:23:07Z</time>
</trkpt>
<trkpt lat="48.512878" lon="10.359879">
<ele>381.086</ele>
<time>2020-09-10T12:23:08Z</time>
</trkpt>
<trkpt lat="48.512814" lon="10.359862">
<ele>381.086</ele>
<time>2020-09-10T12:23:09Z</time>
</trkpt>
<trkpt lat="48.512749" lon="10.359839">
<ele>381.086</ele>
<time>2020-09-10T12:23:10Z</time>
</trkpt>
<trkpt lat="48.512684" lon="10.359817">
<ele>381.086</ele>
<time>2020-09-10T12:23:11Z</time>
</trkpt>
<trkpt lat="48.512619" lon="10.359792">
<ele>381.086</ele>
<time>2020-09-10T12:23:12Z</time>
</trkpt>
<trkpt lat="48.512554" lon="10.359766">
<ele>381.086</ele>
<time>2020-09-10T12:23:13Z</time>
</trkpt>
<trkpt lat="48.512486" lon="10.359741">
<ele>381.086</ele>
<time>2020-09-10T12:23:14Z</time>
</trkpt>
<trkpt lat="48.512421" lon="10.359716">
<ele>381.086</ele>
<time>2020-09-10T12:23:15Z</time>
</trkpt>
<trkpt lat="48.512352" lon="10.359691">
<ele>381.086</ele>
<time>2020-09-10T12:23:16Z</time>
</trkpt>
<trkpt lat="48.512287" lon="10.359667">
<ele>381.086</ele>
<time>2020-09-10T12:23:17Z</time>
</trkpt>
<trkpt lat="48.512222" lon="10.359645">
<ele>381.086</ele>
<time>2020-09-10T12:23:18Z</time>
</trkpt>
<trkpt lat="48.512154" lon="10.359622">
<ele>381.086</ele>
<time>2020-09-10T12:23:19Z</time>
</trkpt>
<trkpt lat="48.512089" lon="10.359596">
<ele>381.086</ele>
<time>2020-09-10T12:23:20Z</time>
</trkpt>
<trkpt lat="48.51202" lon="10.359571">
<ele>381.086</ele>
<time>2020-09-10T12:23:21Z</time>
</trkpt>
<trkpt lat="48.511955" lon="10.359547">
<ele>381.086</ele>
<time>2020-09-10T12:23:22Z</time>
</trkpt>
<trkpt lat="48.51189" lon="10.359525">
<ele>381.086</ele>
<time>2020-09-10T12:23:23Z</time>
</trkpt>
<trkpt lat="48.511826" lon="10.359504">
<ele>381.086</ele>
<time>2020-09-10T12:23:24Z</time>
</trkpt>
<trkpt lat="48.511761" lon="10.359482">
<ele>381.086</ele>
<time>2020-09-10T12:23:25Z</time>
</trkpt>
<trkpt lat="48.511696" lon="10.35946">
<ele>381.086</ele>
<time>2020-09-10T12:23:26Z</time>
</trkpt>
<trkpt lat="48.511635" lon="10.359438">
<ele>381.086</ele>
<time>2020-09-10T12:23:27Z</time>
</trkpt>
<trkpt lat="48.51157" lon="10.359418">
<ele>381.086</ele>
<time>2020-09-10T12:23:28Z</time>
</trkpt>
<trkpt lat="48.511509" lon="10.359395">
<ele>381.086</ele>
<time>2020-09-10T12:23:29Z</time>
</trkpt>
<trkpt lat="48.511444" lon="10.35937">
<ele>381.086</ele>
<time>2020-09-10T12:23:30Z</time>
</trkpt>
<trkpt lat="48.511383" lon="10.359345">
<ele>381.086</ele>
<time>2020-09-10T12:23:31Z</time>
</trkpt>
<trkpt lat="48.511318" lon="10.359316">
<ele>381.086</ele>
<time>2020-09-10T12:23:32Z</time>
</trkpt>
<trkpt lat="48.511257" lon="10.35929">
<ele>381.086</ele>
<time>2020-09-10T12:23:33Z</time>
</trkpt>
<trkpt lat="48.511196" lon="10.359265">
<ele>381.086</ele>
<time>2020-09-10T12:23:34Z</time>
</trkpt>
<trkpt lat="48.511131" lon="10.359244">
<ele>381.086</ele>
<time>2020-09-10T12:23:35Z</time>
</trkpt>
<trkpt lat="48.51107" lon="10.359223">
<ele>381.086</ele>
<time>2020-09-10T12:23:36Z</time>
</trkpt>
<trkpt lat="48.511009" lon="10.359202">
<ele>381.086</ele>
<time>2020-09-10T12:23:37Z</time>
</trkpt>
<trkpt lat="48.510948" lon="10.359178">
<ele>381.086</ele>
<time>2020-09-10T12:23:38Z</time>
</trkpt>
<trkpt lat="48.510891" lon="10.359157">
<ele>381.086</ele>
<time>2020-09-10T12:23:39Z</time>
</trkpt>
<trkpt lat="48.51083" lon="10.359137">
<ele>381.086</ele>
<time>2020-09-10T12:23:40Z</time>
</trkpt>
<trkpt lat="48.510769" lon="10.359117">
<ele>381.086</ele>
<time>2020-09-10T12:23:41Z</time>
</trkpt>
<trkpt lat="48.510712" lon="10.359096">
<ele>381.086</ele>
<time>2020-09-10T12:23:42Z</time>
</trkpt>
<trkpt lat="48.510651" lon="10.359073">
<ele>381.086</ele>
<time>2020-09-10T12:23:43Z</time>
</trkpt>
<trkpt lat="48.51059" lon="10.35905">
<ele>381.086</ele>
<time>2020-09-10T12:23:44Z</time>
</trkpt>
<trkpt lat="48.510529" lon="10.359029">
<ele>381.086</ele>
<time>2020-09-10T12:23:45Z</time>
</trkpt>
<trkpt lat="48.510468" lon="10.359006">
<ele>381.086</ele>
<time>2020-09-10T12:23:46Z</time>
</trkpt>
<trkpt lat="48.510403" lon="10.358983">
<ele>381.086</ele>
<time>2020-09-10T12:23:47Z</time>
</trkpt>
<trkpt lat="48.510342" lon="10.35896">
<ele>381.086</ele>
<time>2020-09-10T12:23:48Z</time>
</trkpt>
<trkpt lat="48.510277" lon="10.35894">
<ele>381.086</ele>
<time>2020-09-10T12:23:49Z</time>
</trkpt>
<trkpt lat="48.510216" lon="10.358916">
<ele>381.086</ele>
<time>2020-09-10T12:23:50Z</time>
</trkpt>
<trkpt lat="48.510155" lon="10.358892">
<ele>381.086</ele>
<time>2020-09-10T12:23:51Z</time>
</trkpt>
<trkpt lat="48.51009" lon="10.358863">
<ele>381.086</ele>
<time>2020-09-10T12:23:52Z</time>
</trkpt>
<trkpt lat="48.510029" lon="10.358835">
<ele>381.086</ele>
<time>2020-09-10T12:23:53Z</time>
</trkpt>
<trkpt lat="48.509968" lon="10.358803">
<ele>381.086</ele>
<time>2020-09-10T12:23:54Z</time>
</trkpt>
<trkpt lat="48.509907" lon="10.358771">
<ele>381.086</ele>
<time>2020-09-10T12:23:55Z</time>
</trkpt>
<trkpt lat="48.509846" lon="10.358738">
<ele>381.086</ele>
<time>2020-09-10T12:23:56Z</time>
</trkpt>
<trkpt lat="48.509781" lon="10.358704">
<ele>381.086</ele>
<time>2020-09-10T12:23:57Z</time>
</trkpt>
<trkpt lat="48.509724" lon="10.358668">
<ele>381.086</ele>
<time>2020-09-10T12:23:58Z</time>
</trkpt>
<trkpt lat="48.509663" lon="10.35863">
<ele>381.086</ele>
<time>2020-09-10T12:23:59Z</time>
</trkpt>
<trkpt lat="48.509602" lon="10.358586">
<ele>381.086</ele>
<time>2020-09-10T12:24:00Z</time>
</trkpt>
<trkpt lat="48.509544" lon="10.358541">
<ele>381.086</ele>
<time>2020-09-10T12:24:01Z</time>
</trkpt>
<trkpt lat="48.509487" lon="10.358495">
<ele>381.086</ele>
<time>2020-09-10T12:24:02Z</time>
</trkpt>
<trkpt lat="48.509426" lon="10.358446">
<ele>381.086</ele>
<time>2020-09-10T12:24:03Z</time>
</trkpt>
<trkpt lat="48.509373" lon="10.358396">
<ele>381.086</ele>
<time>2020-09-10T12:24:04Z</time>
</trkpt>
<trkpt lat="48.509319" lon="10.358341">
<ele>381.086</ele>
<time>2020-09-10T12:24:05Z</time>
</trkpt>
<trkpt lat="48.509262" lon="10.358285">
<ele>381.086</ele>
<time>2020-09-10T12:24:06Z</time>
</trkpt>
<trkpt lat="48.509209" lon="10.358227">
<ele>381.086</ele>
<time>2020-09-10T12:24:07Z</time>
</trkpt>
<trkpt lat="48.509159" lon="10.358168">
<ele>381.086</ele>
<time>2020-09-10T12:24:08Z</time>
</trkpt>
<trkpt lat="48.509109" lon="10.358109">
<ele>381.086</ele>
<time>2020-09-10T12:24:09Z</time>
</trkpt>
<trkpt lat="48.509064" lon="10.358047">
<ele>381.086</ele>
<time>2020-09-10T12:24:10Z</time>
</trkpt>
<trkpt lat="48.509014" lon="10.357985">
<ele>381.086</ele>
<time>2020-09-10T12:24:11Z</time>
</trkpt>
<trkpt lat="48.508968" lon="10.357921">
<ele>381.349</ele>
<time>2020-09-10T12:24:12Z</time>
</trkpt>
<trkpt lat="48.508926" lon="10.357857">
<ele>381.555</ele>
<time>2020-09-10T12:24:13Z</time>
</trkpt>
<trkpt lat="48.508881" lon="10.357792">
<ele>381.713</ele>
<time>2020-09-10T12:24:14Z</time>
</trkpt>
<trkpt lat="48.508839" lon="10.357727">
<ele>381.828</ele>
<time>2020-09-10T12:24:15Z</time>
</trkpt>
<trkpt lat="48.508801" lon="10.357661">
<ele>381.913</ele>
<time>2020-09-10T12:24:16Z</time>
</trkpt>
<trkpt lat="48.508762" lon="10.357596">
<ele>381.965</ele>
<time>2020-09-10T12:24:17Z</time>
</trkpt>
<trkpt lat="48.508728" lon="10.357533">
<ele>382.006</ele>
<time>2020-09-10T12:24:18Z</time>
</trkpt>
<trkpt lat="48.508694" lon="10.35747">
<ele>382.033</ele>
<time>2020-09-10T12:24:19Z</time>
</trkpt>
<trkpt lat="48.508659" lon="10.357407">
<ele>382.033</ele>
<time>2020-09-10T12:24:20Z</time>
</trkpt>
<trkpt lat="48.508625" lon="10.357344">
<ele>382.033</ele>
<time>2020-09-10T12:24:21Z</time>
</trkpt>
<trkpt lat="48.508595" lon="10.357282">
<ele>382.033</ele>
<time>2020-09-10T12:24:22Z</time>
</trkpt>
<trkpt lat="48.508556" lon="10.357222">
<ele>382.033</ele>
<time>2020-09-10T12:24:23Z</time>
</trkpt>
<trkpt lat="48.508522" lon="10.357163">
<ele>382.033</ele>
<time>2020-09-10T12:24:24Z</time>
</trkpt>
<trkpt lat="48.508492" lon="10.357112">
<ele>382.033</ele>
<time>2020-09-10T12:24:25Z</time>
</trkpt>
<trkpt lat="48.508465" lon="10.357065">
<ele>382.033</ele>
<time>2020-09-10T12:24:26Z</time>
</trkpt>
<trkpt lat="48.508434" lon="10.357018">
<ele>382.033</ele>
<time>2020-09-10T12:24:27Z</time>
</trkpt>
<trkpt lat="48.508411" lon="10.356977">
<ele>382.033</ele>
<time>2020-09-10T12:24:28Z</time>
</trkpt>
<trkpt lat="48.508392" lon="10.356938">
<ele>382.033</ele>
<time>2020-09-10T12:24:29Z</time>
</trkpt>
<trkpt lat="48.508381" lon="10.356911">
<ele>382.033</ele>
<time>2020-09-10T12:24:30Z</time>
</trkpt>
<trkpt lat="48.508369" lon="10.356892">
<ele>382.033</ele>
<time>2020-09-10T12:24:31Z</time>
</trkpt>
<trkpt lat="48.508366" lon="10.356885">
<ele>382.033</ele>
<time>2020-09-10T12:24:32Z</time>
</trkpt>
<trkpt lat="48.508362" lon="10.356881">
<ele>382.033</ele>
<time>2020-09-10T12:24:33Z</time>
</trkpt>
<trkpt lat="48.508362" lon="10.356874">
<ele>382.033</ele>
<time>2020-09-10T12:24:34Z</time>
</trkpt>
<trkpt lat="48.508369" lon="10.356847">
<ele>382.033</ele>
<time>2020-09-10T12:24:38Z</time>
</trkpt>
<trkpt lat="48.508377" lon="10.356833">
<ele>382.033</ele>
<time>2020-09-10T12:24:39Z</time>
</trkpt>
<trkpt lat="48.508381" lon="10.356818">
<ele>382.033</ele>
<time>2020-09-10T12:24:40Z</time>
</trkpt>
<trkpt lat="48.508385" lon="10.356807">
<ele>382.033</ele>
<time>2020-09-10T12:24:41Z</time>
</trkpt>
<trkpt lat="48.508392" lon="10.356797">
<ele>382.033</ele>
<time>2020-09-10T12:24:42Z</time>
</trkpt>
<trkpt lat="48.5084" lon="10.356789">
<ele>382.033</ele>
<time>2020-09-10T12:24:43Z</time>
</trkpt>
<trkpt lat="48.508404" lon="10.356789">
<ele>382.033</ele>
<time>2020-09-10T12:24:44Z</time>
</trkpt>
<trkpt lat="48.508404" lon="10.35679">
<ele>382.033</ele>
<time>2020-09-10T12:24:45Z</time>
</trkpt>
<trkpt lat="48.508408" lon="10.356789">
<ele>382.033</ele>
<time>2020-09-10T12:24:47Z</time>
</trkpt>
<trkpt lat="48.508411" lon="10.356776">
<ele>382.033</ele>
<time>2020-09-10T12:31:23Z</time>
</trkpt>
<trkpt lat="48.508411" lon="10.35678">
<ele>382.033</ele>
<time>2020-09-10T12:31:24Z</time>
</trkpt>
<trkpt lat="48.508408" lon="10.356783">
<ele>382.033</ele>
<time>2020-09-10T12:31:25Z</time>
</trkpt>
<trkpt lat="48.508404" lon="10.356787">
<ele>382.033</ele>
<time>2020-09-10T12:31:26Z</time>
</trkpt>
<trkpt lat="48.508396" lon="10.356795">
<ele>382.033</ele>
<time>2020-09-10T12:31:27Z</time>
</trkpt>
<trkpt lat="48.508392" lon="10.356804">
<ele>382.033</ele>
<time>2020-09-10T12:31:28Z</time>
</trkpt>
<trkpt lat="48.508385" lon="10.356813">
<ele>382.033</ele>
<time>2020-09-10T12:31:29Z</time>
</trkpt>
<trkpt lat="48.508377" lon="10.356822">
<ele>382.033</ele>
<time>2020-09-10T12:31:30Z</time>
</trkpt>
<trkpt lat="48.508366" lon="10.356825">
<ele>382.033</ele>
<time>2020-09-10T12:31:31Z</time>
</trkpt>
<trkpt lat="48.508354" lon="10.356831">
<ele>382.033</ele>
<time>2020-09-10T12:31:32Z</time>
</trkpt>
<trkpt lat="48.508347" lon="10.356833">
<ele>382.033</ele>
<time>2020-09-10T12:31:33Z</time>
</trkpt>
<trkpt lat="48.508339" lon="10.356835">
<ele>382.033</ele>
<time>2020-09-10T12:31:34Z</time>
</trkpt>
<trkpt lat="48.508331" lon="10.356835">
<ele>382.033</ele>
<time>2020-09-10T12:31:35Z</time>
</trkpt>
<trkpt lat="48.508327" lon="10.356835">
<ele>382.033</ele>
<time>2020-09-10T12:31:36Z</time>
</trkpt>
<trkpt lat="48.508324" lon="10.356837">
<ele>382.033</ele>
<time>2020-09-10T12:31:37Z</time>
</trkpt>
<trkpt lat="48.50832" lon="10.356835">
<ele>382.033</ele>
<time>2020-09-10T12:31:38Z</time>
</trkpt>
<trkpt lat="48.508316" lon="10.356833">
<ele>382.033</ele>
<time>2020-09-10T12:31:39Z</time>
</trkpt>
<trkpt lat="48.508316" lon="10.356835">
<ele>382.033</ele>
<time>2020-09-10T12:31:40Z</time>
</trkpt>
<trkpt lat="48.508297" lon="10.356818">
<ele>382.033</ele>
<time>2020-09-10T12:31:43Z</time>
</trkpt>
<trkpt lat="48.508282" lon="10.356802">
<ele>382.033</ele>
<time>2020-09-10T12:31:44Z</time>
</trkpt>
<trkpt lat="48.50827" lon="10.356785">
<ele>382.033</ele>
<time>2020-09-10T12:31:45Z</time>
</trkpt>
<trkpt lat="48.508255" lon="10.356771">
<ele>382.033</ele>
<time>2020-09-10T12:31:46Z</time>
</trkpt>
<trkpt lat="48.50824" lon="10.356751">
<ele>382.033</ele>
<time>2020-09-10T12:31:47Z</time>
</trkpt>
<trkpt lat="48.508217" lon="10.35673">
<ele>382.033</ele>
<time>2020-09-10T12:31:48Z</time>
</trkpt>
<trkpt lat="48.508202" lon="10.356703">
<ele>382.033</ele>
<time>2020-09-10T12:31:49Z</time>
</trkpt>
<trkpt lat="48.508183" lon="10.356676">
<ele>382.033</ele>
<time>2020-09-10T12:31:50Z</time>
</trkpt>
<trkpt lat="48.508156" lon="10.35665">
<ele>382.033</ele>
<time>2020-09-10T12:31:51Z</time>
</trkpt>
<trkpt lat="48.508137" lon="10.356624">
<ele>382.033</ele>
<time>2020-09-10T12:31:52Z</time>
</trkpt>
<trkpt lat="48.50811" lon="10.356598">
<ele>382.033</ele>
<time>2020-09-10T12:31:53Z</time>
</trkpt>
<trkpt lat="48.508083" lon="10.356573">
<ele>382.033</ele>
<time>2020-09-10T12:31:54Z</time>
</trkpt>
<trkpt lat="48.508053" lon="10.356546">
<ele>382.033</ele>
<time>2020-09-10T12:31:55Z</time>
</trkpt>
<trkpt lat="48.508022" lon="10.356521">
<ele>382.033</ele>
<time>2020-09-10T12:31:56Z</time>
</trkpt>
<trkpt lat="48.507992" lon="10.356496">
<ele>382.033</ele>
<time>2020-09-10T12:31:57Z</time>
</trkpt>
<trkpt lat="48.507961" lon="10.356473">
<ele>382.033</ele>
<time>2020-09-10T12:31:58Z</time>
</trkpt>
<trkpt lat="48.507931" lon="10.356447">
<ele>382.033</ele>
<time>2020-09-10T12:31:59Z</time>
</trkpt>
<trkpt lat="48.5079" lon="10.356422">
<ele>382.033</ele>
<time>2020-09-10T12:32:00Z</time>
</trkpt>
<trkpt lat="48.507866" lon="10.356399">
<ele>382.033</ele>
<time>2020-09-10T12:32:01Z</time>
</trkpt>
<trkpt lat="48.507835" lon="10.356377">
<ele>382.033</ele>
<time>2020-09-10T12:32:02Z</time>
</trkpt>
<trkpt lat="48.507801" lon="10.356357">
<ele>382.033</ele>
<time>2020-09-10T12:32:03Z</time>
</trkpt>
<trkpt lat="48.507767" lon="10.356337">
<ele>382.033</ele>
<time>2020-09-10T12:32:04Z</time>
</trkpt>
<trkpt lat="48.507732" lon="10.356318">
<ele>382.033</ele>
<time>2020-09-10T12:32:05Z</time>
</trkpt>
<trkpt lat="48.507698" lon="10.3563">
<ele>382.033</ele>
<time>2020-09-10T12:32:06Z</time>
</trkpt>
<trkpt lat="48.507664" lon="10.356282">
<ele>382.033</ele>
<time>2020-09-10T12:32:07Z</time>
</trkpt>
<trkpt lat="48.507626" lon="10.356259">
<ele>382.033</ele>
<time>2020-09-10T12:32:08Z</time>
</trkpt>
<trkpt lat="48.507587" lon="10.356236">
<ele>382.033</ele>
<time>2020-09-10T12:32:09Z</time>
</trkpt>
<trkpt lat="48.507549" lon="10.356215">
<ele>382.033</ele>
<time>2020-09-10T12:32:10Z</time>
</trkpt>
<trkpt lat="48.507507" lon="10.356194">
<ele>382.033</ele>
<time>2020-09-10T12:32:11Z</time>
</trkpt>
<trkpt lat="48.507469" lon="10.356174">
<ele>382.033</ele>
<time>2020-09-10T12:32:12Z</time>
</trkpt>
<trkpt lat="48.507431" lon="10.356152">
<ele>382.033</ele>
<time>2020-09-10T12:32:13Z</time>
</trkpt>
<trkpt lat="48.507389" lon="10.356129">
<ele>382.033</ele>
<time>2020-09-10T12:32:14Z</time>
</trkpt>
<trkpt lat="48.507347" lon="10.356107">
<ele>382.033</ele>
<time>2020-09-10T12:32:15Z</time>
</trkpt>
<trkpt lat="48.507305" lon="10.356085">
<ele>382.033</ele>
<time>2020-09-10T12:32:16Z</time>
</trkpt>
<trkpt lat="48.507267" lon="10.356064">
<ele>382.033</ele>
<time>2020-09-10T12:32:17Z</time>
</trkpt>
<trkpt lat="48.507225" lon="10.35604">
<ele>382.033</ele>
<time>2020-09-10T12:32:18Z</time>
</trkpt>
<trkpt lat="48.507179" lon="10.356016">
<ele>382.033</ele>
<time>2020-09-10T12:32:19Z</time>
</trkpt>
<trkpt lat="48.507137" lon="10.355993">
<ele>382.033</ele>
<time>2020-09-10T12:32:20Z</time>
</trkpt>
<trkpt lat="48.507095" lon="10.355967">
<ele>382.033</ele>
<time>2020-09-10T12:32:21Z</time>
</trkpt>
<trkpt lat="48.50705" lon="10.355943">
<ele>382.033</ele>
<time>2020-09-10T12:32:22Z</time>
</trkpt>
<trkpt lat="48.507011" lon="10.35592">
<ele>382.033</ele>
<time>2020-09-10T12:32:23Z</time>
</trkpt>
<trkpt lat="48.506966" lon="10.355897">
<ele>382.033</ele>
<time>2020-09-10T12:32:24Z</time>
</trkpt>
<trkpt lat="48.50692" lon="10.355873">
<ele>382.033</ele>
<time>2020-09-10T12:32:25Z</time>
</trkpt>
<trkpt lat="48.506882" lon="10.355855">
<ele>382.033</ele>
<time>2020-09-10T12:32:26Z</time>
</trkpt>
<trkpt lat="48.506836" lon="10.355835">
<ele>382.033</ele>
<time>2020-09-10T12:32:27Z</time>
</trkpt>
<trkpt lat="48.506794" lon="10.355813">
<ele>382.033</ele>
<time>2020-09-10T12:32:28Z</time>
</trkpt>
<trkpt lat="48.506752" lon="10.35579">
<ele>382.033</ele>
<time>2020-09-10T12:32:29Z</time>
</trkpt>
<trkpt lat="48.50671" lon="10.355762">
<ele>382.033</ele>
<time>2020-09-10T12:32:30Z</time>
</trkpt>
<trkpt lat="48.506668" lon="10.355738">
<ele>382.033</ele>
<time>2020-09-10T12:32:31Z</time>
</trkpt>
<trkpt lat="48.506626" lon="10.355717">
<ele>382.033</ele>
<time>2020-09-10T12:32:32Z</time>
</trkpt>
<trkpt lat="48.506588" lon="10.355695">
<ele>382.033</ele>
<time>2020-09-10T12:32:33Z</time>
</trkpt>
<trkpt lat="48.506546" lon="10.355673">
<ele>382.033</ele>
<time>2020-09-10T12:32:34Z</time>
</trkpt>
<trkpt lat="48.506508" lon="10.355654">
<ele>382.033</ele>
<time>2020-09-10T12:32:35Z</time>
</trkpt>
<trkpt lat="48.506466" lon="10.355632">
<ele>382.033</ele>
<time>2020-09-10T12:32:36Z</time>
</trkpt>
<trkpt lat="48.506424" lon="10.35561">
<ele>382.033</ele>
<time>2020-09-10T12:32:37Z</time>
</trkpt>
<trkpt lat="48.506386" lon="10.355585">
<ele>382.033</ele>
<time>2020-09-10T12:32:38Z</time>
</trkpt>
<trkpt lat="48.50634" lon="10.355561">
<ele>382.033</ele>
<time>2020-09-10T12:32:39Z</time>
</trkpt>
<trkpt lat="48.506298" lon="10.355538">
<ele>382.033</ele>
<time>2020-09-10T12:32:40Z</time>
</trkpt>
<trkpt lat="48.50626" lon="10.355515">
<ele>382.033</ele>
<time>2020-09-10T12:32:41Z</time>
</trkpt>
<trkpt lat="48.506214" lon="10.355492">
<ele>382.033</ele>
<time>2020-09-10T12:32:42Z</time>
</trkpt>
<trkpt lat="48.506172" lon="10.35547">
<ele>382.033</ele>
<time>2020-09-10T12:32:43Z</time>
</trkpt>
<trkpt lat="48.50613" lon="10.355449">
<ele>382.033</ele>
<time>2020-09-10T12:32:44Z</time>
</trkpt>
<trkpt lat="48.506088" lon="10.355425">
<ele>382.033</ele>
<time>2020-09-10T12:32:45Z</time>
</trkpt>
<trkpt lat="48.506042" lon="10.3554">
<ele>382.033</ele>
<time>2020-09-10T12:32:46Z</time>
</trkpt>
<trkpt lat="48.506001" lon="10.355377">
<ele>382.033</ele>
<time>2020-09-10T12:32:47Z</time>
</trkpt>
<trkpt lat="48.505959" lon="10.355353">
<ele>382.033</ele>
<time>2020-09-10T12:32:48Z</time>
</trkpt>
<trkpt lat="48.505913" lon="10.355331">
<ele>382.033</ele>
<time>2020-09-10T12:32:49Z</time>
</trkpt>
<trkpt lat="48.505871" lon="10.355311">
<ele>382.033</ele>
<time>2020-09-10T12:32:50Z</time>
</trkpt>
<trkpt lat="48.505825" lon="10.355289">
<ele>382.033</ele>
<time>2020-09-10T12:32:51Z</time>
</trkpt>
<trkpt lat="48.505779" lon="10.355267">
<ele>382.033</ele>
<time>2020-09-10T12:32:52Z</time>
</trkpt>
<trkpt lat="48.505741" lon="10.355241">
<ele>382.033</ele>
<time>2020-09-10T12:32:53Z</time>
</trkpt>
<trkpt lat="48.505699" lon="10.355218">
<ele>382.033</ele>
<time>2020-09-10T12:32:54Z</time>
</trkpt>
<trkpt lat="48.505653" lon="10.355195">
<ele>382.033</ele>
<time>2020-09-10T12:32:55Z</time>
</trkpt>
<trkpt lat="48.505611" lon="10.35517">
<ele>382.033</ele>
<time>2020-09-10T12:32:56Z</time>
</trkpt>
<trkpt lat="48.505569" lon="10.355146">
<ele>382.033</ele>
<time>2020-09-10T12:32:57Z</time>
</trkpt>
<trkpt lat="48.505527" lon="10.355124">
<ele>382.033</ele>
<time>2020-09-10T12:32:58Z</time>
</trkpt>
<trkpt lat="48.505486" lon="10.355101">
<ele>382.033</ele>
<time>2020-09-10T12:32:59Z</time>
</trkpt>
<trkpt lat="48.505444" lon="10.355077">
<ele>382.033</ele>
<time>2020-09-10T12:33:00Z</time>
</trkpt>
<trkpt lat="48.505398" lon="10.355055">
<ele>382.033</ele>
<time>2020-09-10T12:33:01Z</time>
</trkpt>
<trkpt lat="48.505352" lon="10.355032">
<ele>382.033</ele>
<time>2020-09-10T12:33:02Z</time>
</trkpt>
<trkpt lat="48.505314" lon="10.355006">
<ele>382.033</ele>
<time>2020-09-10T12:33:03Z</time>
</trkpt>
<trkpt lat="48.505272" lon="10.354981">
<ele>382.033</ele>
<time>2020-09-10T12:33:04Z</time>
</trkpt>
<trkpt lat="48.505226" lon="10.35496">
<ele>382.033</ele>
<time>2020-09-10T12:33:05Z</time>
</trkpt>
<trkpt lat="48.505184" lon="10.354937">
<ele>382.033</ele>
<time>2020-09-10T12:33:06Z</time>
</trkpt>
<trkpt lat="48.505142" lon="10.354915">
<ele>382.033</ele>
<time>2020-09-10T12:33:07Z</time>
</trkpt>
<trkpt lat="48.5051" lon="10.354893">
<ele>382.033</ele>
<time>2020-09-10T12:33:08Z</time>
</trkpt>
<trkpt lat="48.505058" lon="10.35487">
<ele>382.033</ele>
<time>2020-09-10T12:33:09Z</time>
</trkpt>
<trkpt lat="48.505016" lon="10.354849">
<ele>382.033</ele>
<time>2020-09-10T12:33:10Z</time>
</trkpt>
<trkpt lat="48.504974" lon="10.354825">
<ele>382.033</ele>
<time>2020-09-10T12:33:11Z</time>
</trkpt>
<trkpt lat="48.504929" lon="10.354801">
<ele>382.29</ele>
<time>2020-09-10T12:33:12Z</time>
</trkpt>
<trkpt lat="48.504887" lon="10.354778">
<ele>382.491</ele>
<time>2020-09-10T12:33:13Z</time>
</trkpt>
<trkpt lat="48.504845" lon="10.354753">
<ele>382.646</ele>
<time>2020-09-10T12:33:14Z</time>
</trkpt>
<trkpt lat="48.504799" lon="10.354728">
<ele>382.764</ele>
<time>2020-09-10T12:33:15Z</time>
</trkpt>
<trkpt lat="48.504757" lon="10.354705">
<ele>382.844</ele>
<time>2020-09-10T12:33:16Z</time>
</trkpt>
<trkpt lat="48.504715" lon="10.35468">
<ele>382.902</ele>
<time>2020-09-10T12:33:17Z</time>
</trkpt>
<trkpt lat="48.504669" lon="10.354653">
<ele>382.955</ele>
<time>2020-09-10T12:33:18Z</time>
</trkpt>
<trkpt lat="48.504627" lon="10.354629">
<ele>382.981</ele>
<time>2020-09-10T12:33:19Z</time>
</trkpt>
<trkpt lat="48.504581" lon="10.354606">
<ele>382.981</ele>
<time>2020-09-10T12:33:20Z</time>
</trkpt>
<trkpt lat="48.504536" lon="10.354585">
<ele>382.981</ele>
<time>2020-09-10T12:33:21Z</time>
</trkpt>
<trkpt lat="48.504494" lon="10.354567">
<ele>382.981</ele>
<time>2020-09-10T12:33:22Z</time>
</trkpt>
<trkpt lat="48.504448" lon="10.354545">
<ele>382.981</ele>
<time>2020-09-10T12:33:23Z</time>
</trkpt>
<trkpt lat="48.504402" lon="10.35452">
<ele>382.981</ele>
<time>2020-09-10T12:33:24Z</time>
</trkpt>
<trkpt lat="48.50436" lon="10.354497">
<ele>382.981</ele>
<time>2020-09-10T12:33:25Z</time>
</trkpt>
<trkpt lat="48.504307" lon="10.354476">
<ele>382.981</ele>
<time>2020-09-10T12:33:26Z</time>
</trkpt>
<trkpt lat="48.504257" lon="10.354457">
<ele>382.981</ele>
<time>2020-09-10T12:33:27Z</time>
</trkpt>
<trkpt lat="48.504208" lon="10.354441">
<ele>382.981</ele>
<time>2020-09-10T12:33:28Z</time>
</trkpt>
<trkpt lat="48.504154" lon="10.354425">
<ele>382.981</ele>
<time>2020-09-10T12:33:29Z</time>
</trkpt>
<trkpt lat="48.504101" lon="10.354408">
<ele>382.981</ele>
<time>2020-09-10T12:33:30Z</time>
</trkpt>
<trkpt lat="48.504047" lon="10.354392">
<ele>382.981</ele>
<time>2020-09-10T12:33:31Z</time>
</trkpt>
<trkpt lat="48.503998" lon="10.354373">
<ele>382.981</ele>
<time>2020-09-10T12:33:32Z</time>
</trkpt>
<trkpt lat="48.503944" lon="10.354359">
<ele>382.981</ele>
<time>2020-09-10T12:33:33Z</time>
</trkpt>
<trkpt lat="48.503887" lon="10.35434">
<ele>382.981</ele>
<time>2020-09-10T12:33:34Z</time>
</trkpt>
<trkpt lat="48.503834" lon="10.354325">
<ele>382.981</ele>
<time>2020-09-10T12:33:35Z</time>
</trkpt>
<trkpt lat="48.50378" lon="10.354308">
<ele>382.981</ele>
<time>2020-09-10T12:33:36Z</time>
</trkpt>
<trkpt lat="48.503723" lon="10.354294">
<ele>382.981</ele>
<time>2020-09-10T12:33:37Z</time>
</trkpt>
<trkpt lat="48.50367" lon="10.354279">
<ele>382.981</ele>
<time>2020-09-10T12:33:38Z</time>
</trkpt>
<trkpt lat="48.503616" lon="10.354262">
<ele>382.981</ele>
<time>2020-09-10T12:33:39Z</time>
</trkpt>
<trkpt lat="48.503559" lon="10.354245">
<ele>382.981</ele>
<time>2020-09-10T12:33:40Z</time>
</trkpt>
<trkpt lat="48.503506" lon="10.354229">
<ele>382.981</ele>
<time>2020-09-10T12:33:41Z</time>
</trkpt>
<trkpt lat="48.503452" lon="10.354214">
<ele>382.981</ele>
<time>2020-09-10T12:33:42Z</time>
</trkpt>
<trkpt lat="48.503391" lon="10.354197">
<ele>382.981</ele>
<time>2020-09-10T12:33:43Z</time>
</trkpt>
<trkpt lat="48.503334" lon="10.354181">
<ele>382.981</ele>
<time>2020-09-10T12:33:44Z</time>
</trkpt>
<trkpt lat="48.503281" lon="10.354166">
<ele>382.981</ele>
<time>2020-09-10T12:33:45Z</time>
</trkpt>
<trkpt lat="48.503223" lon="10.354152">
<ele>382.981</ele>
<time>2020-09-10T12:33:46Z</time>
</trkpt>
<trkpt lat="48.503166" lon="10.354136">
<ele>382.981</ele>
<time>2020-09-10T12:33:47Z</time>
</trkpt>
<trkpt lat="48.503113" lon="10.35412">
<ele>382.981</ele>
<time>2020-09-10T12:33:48Z</time>
</trkpt>
<trkpt lat="48.503059" lon="10.354101">
<ele>383.239</ele>
<time>2020-09-10T12:33:49Z</time>
</trkpt>
<trkpt lat="48.503002" lon="10.354085">
<ele>383.435</ele>
<time>2020-09-10T12:33:50Z</time>
</trkpt>
<trkpt lat="48.502949" lon="10.354068">
<ele>383.586</ele>
<time>2020-09-10T12:33:51Z</time>
</trkpt>
<trkpt lat="48.502892" lon="10.354052">
<ele>383.694</ele>
<time>2020-09-10T12:33:52Z</time>
</trkpt>
<trkpt lat="48.502838" lon="10.354033">
<ele>383.774</ele>
<time>2020-09-10T12:33:53Z</time>
</trkpt>
<trkpt lat="48.502777" lon="10.354017">
<ele>383.821</ele>
<time>2020-09-10T12:33:54Z</time>
</trkpt>
<trkpt lat="48.50272" lon="10.353998">
<ele>383.843</ele>
<time>2020-09-10T12:33:55Z</time>
</trkpt>
<trkpt lat="48.502666" lon="10.353977">
<ele>383.843</ele>
<time>2020-09-10T12:33:56Z</time>
</trkpt>
<trkpt lat="48.502609" lon="10.353956">
<ele>383.843</ele>
<time>2020-09-10T12:33:57Z</time>
</trkpt>
<trkpt lat="48.502552" lon="10.353938">
<ele>383.843</ele>
<time>2020-09-10T12:33:58Z</time>
</trkpt>
<trkpt lat="48.502499" lon="10.353921">
<ele>383.843</ele>
<time>2020-09-10T12:33:59Z</time>
</trkpt>
<trkpt lat="48.502445" lon="10.353907">
<ele>383.843</ele>
<time>2020-09-10T12:34:00Z</time>
</trkpt>
<trkpt lat="48.502384" lon="10.353889">
<ele>383.843</ele>
<time>2020-09-10T12:34:01Z</time>
</trkpt>
<trkpt lat="48.502331" lon="10.353873">
<ele>383.843</ele>
<time>2020-09-10T12:34:02Z</time>
</trkpt>
<trkpt lat="48.502274" lon="10.353858">
<ele>383.843</ele>
<time>2020-09-10T12:34:03Z</time>
</trkpt>
<trkpt lat="48.50222" lon="10.353842">
<ele>383.843</ele>
<time>2020-09-10T12:34:04Z</time>
</trkpt>
<trkpt lat="48.502159" lon="10.353828">
<ele>383.843</ele>
<time>2020-09-10T12:34:05Z</time>
</trkpt>
<trkpt lat="48.502106" lon="10.353814">
<ele>383.843</ele>
<time>2020-09-10T12:34:06Z</time>
</trkpt>
<trkpt lat="48.502052" lon="10.353798">
<ele>383.843</ele>
<time>2020-09-10T12:34:07Z</time>
</trkpt>
<trkpt lat="48.501995" lon="10.353782">
<ele>383.843</ele>
<time>2020-09-10T12:34:08Z</time>
</trkpt>
<trkpt lat="48.501942" lon="10.353766">
<ele>383.843</ele>
<time>2020-09-10T12:34:09Z</time>
</trkpt>
<trkpt lat="48.501892" lon="10.353753">
<ele>383.843</ele>
<time>2020-09-10T12:34:10Z</time>
</trkpt>
<trkpt lat="48.501839" lon="10.353739">
<ele>383.843</ele>
<time>2020-09-10T12:34:11Z</time>
</trkpt>
<trkpt lat="48.501785" lon="10.353722">
<ele>383.843</ele>
<time>2020-09-10T12:34:12Z</time>
</trkpt>
<trkpt lat="48.501728" lon="10.353707">
<ele>383.843</ele>
<time>2020-09-10T12:34:13Z</time>
</trkpt>
<trkpt lat="48.501675" lon="10.35369">
<ele>383.843</ele>
<time>2020-09-10T12:34:14Z</time>
</trkpt>
<trkpt lat="48.501621" lon="10.353674">
<ele>383.843</ele>
<time>2020-09-10T12:34:15Z</time>
</trkpt>
<trkpt lat="48.501568" lon="10.353657">
<ele>383.843</ele>
<time>2020-09-10T12:34:16Z</time>
</trkpt>
<trkpt lat="48.501511" lon="10.353642">
<ele>383.843</ele>
<time>2020-09-10T12:34:17Z</time>
</trkpt>
<trkpt lat="48.501453" lon="10.353627">
<ele>383.843</ele>
<time>2020-09-10T12:34:18Z</time>
</trkpt>
<trkpt lat="48.5014" lon="10.353611">
<ele>383.843</ele>
<time>2020-09-10T12:34:19Z</time>
</trkpt>
<trkpt lat="48.501343" lon="10.353597">
<ele>383.843</ele>
<time>2020-09-10T12:34:20Z</time>
</trkpt>
<trkpt lat="48.501293" lon="10.35358">
<ele>383.843</ele>
<time>2020-09-10T12:34:21Z</time>
</trkpt>
<trkpt lat="48.50124" lon="10.353565">
<ele>383.843</ele>
<time>2020-09-10T12:34:22Z</time>
</trkpt>
<trkpt lat="48.501179" lon="10.353548">
<ele>383.843</ele>
<time>2020-09-10T12:34:23Z</time>
</trkpt>
<trkpt lat="48.501125" lon="10.35353">
<ele>383.843</ele>
<time>2020-09-10T12:34:24Z</time>
</trkpt>
<trkpt lat="48.501072" lon="10.353512">
<ele>383.843</ele>
<time>2020-09-10T12:34:25Z</time>
</trkpt>
<trkpt lat="48.501015" lon="10.353497">
<ele>384.074</ele>
<time>2020-09-10T12:34:26Z</time>
</trkpt>
<trkpt lat="48.500961" lon="10.353481">
<ele>384.238</ele>
<time>2020-09-10T12:34:27Z</time>
</trkpt>
<trkpt lat="48.500904" lon="10.353466">
<ele>384.408</ele>
<time>2020-09-10T12:34:28Z</time>
</trkpt>
<trkpt lat="48.500851" lon="10.353448">
<ele>384.543</ele>
<time>2020-09-10T12:34:29Z</time>
</trkpt>
<trkpt lat="48.500793" lon="10.353432">
<ele>384.645</ele>
<time>2020-09-10T12:34:30Z</time>
</trkpt>
<trkpt lat="48.50074" lon="10.353414">
<ele>384.72</ele>
<time>2020-09-10T12:34:31Z</time>
</trkpt>
<trkpt lat="48.500683" lon="10.353395">
<ele>384.768</ele>
<time>2020-09-10T12:34:32Z</time>
</trkpt>
<trkpt lat="48.500622" lon="10.353374">
<ele>384.791</ele>
<time>2020-09-10T12:34:33Z</time>
</trkpt>
<trkpt lat="48.500568" lon="10.353347">
<ele>384.791</ele>
<time>2020-09-10T12:34:34Z</time>
</trkpt>
<trkpt lat="48.500519" lon="10.35331">
<ele>384.791</ele>
<time>2020-09-10T12:34:35Z</time>
</trkpt>
<trkpt lat="48.500465" lon="10.353269">
<ele>384.791</ele>
<time>2020-09-10T12:34:36Z</time>
</trkpt>
<trkpt lat="48.500416" lon="10.353225">
<ele>384.791</ele>
<time>2020-09-10T12:34:37Z</time>
</trkpt>
<trkpt lat="48.500366" lon="10.353177">
<ele>384.791</ele>
<time>2020-09-10T12:34:38Z</time>
</trkpt>
<trkpt lat="48.500324" lon="10.353128">
<ele>384.791</ele>
<time>2020-09-10T12:34:39Z</time>
</trkpt>
<trkpt lat="48.500275" lon="10.353081">
<ele>384.791</ele>
<time>2020-09-10T12:34:40Z</time>
</trkpt>
<trkpt lat="48.500229" lon="10.353033">
<ele>384.791</ele>
<time>2020-09-10T12:34:41Z</time>
</trkpt>
<trkpt lat="48.500179" lon="10.352984">
<ele>384.791</ele>
<time>2020-09-10T12:34:42Z</time>
</trkpt>
<trkpt lat="48.500134" lon="10.352934">
<ele>384.791</ele>
<time>2020-09-10T12:34:43Z</time>
</trkpt>
<trkpt lat="48.50008" lon="10.352885">
<ele>384.791</ele>
<time>2020-09-10T12:34:44Z</time>
</trkpt>
<trkpt lat="48.500034" lon="10.352837">
<ele>384.791</ele>
<time>2020-09-10T12:34:45Z</time>
</trkpt>
<trkpt lat="48.499981" lon="10.352794">
<ele>384.791</ele>
<time>2020-09-10T12:34:46Z</time>
</trkpt>
<trkpt lat="48.499928" lon="10.352748">
<ele>384.791</ele>
<time>2020-09-10T12:34:47Z</time>
</trkpt>
<trkpt lat="48.49987" lon="10.352705">
<ele>384.791</ele>
<time>2020-09-10T12:34:48Z</time>
</trkpt>
<trkpt lat="48.499817" lon="10.352662">
<ele>384.791</ele>
<time>2020-09-10T12:34:49Z</time>
</trkpt>
<trkpt lat="48.499767" lon="10.352622">
<ele>384.791</ele>
<time>2020-09-10T12:34:50Z</time>
</trkpt>
<trkpt lat="48.49971" lon="10.352582">
<ele>384.791</ele>
<time>2020-09-10T12:34:51Z</time>
</trkpt>
<trkpt lat="48.499657" lon="10.35254">
<ele>384.791</ele>
<time>2020-09-10T12:34:52Z</time>
</trkpt>
<trkpt lat="48.499607" lon="10.352496">
<ele>384.791</ele>
<time>2020-09-10T12:34:53Z</time>
</trkpt>
<trkpt lat="48.499554" lon="10.352456">
<ele>384.791</ele>
<time>2020-09-10T12:34:54Z</time>
</trkpt>
<trkpt lat="48.4995" lon="10.352417">
<ele>384.791</ele>
<time>2020-09-10T12:34:55Z</time>
</trkpt>
<trkpt lat="48.499447" lon="10.352375">
<ele>384.791</ele>
<time>2020-09-10T12:34:56Z</time>
</trkpt>
<trkpt lat="48.49939" lon="10.352335">
<ele>384.791</ele>
<time>2020-09-10T12:34:57Z</time>
</trkpt>
<trkpt lat="48.499336" lon="10.352295">
<ele>384.791</ele>
<time>2020-09-10T12:34:58Z</time>
</trkpt>
<trkpt lat="48.499283" lon="10.352257">
<ele>384.791</ele>
<time>2020-09-10T12:34:59Z</time>
</trkpt>
<trkpt lat="48.499226" lon="10.352221">
<ele>384.791</ele>
<time>2020-09-10T12:35:00Z</time>
</trkpt>
<trkpt lat="48.499168" lon="10.352186">
<ele>384.791</ele>
<time>2020-09-10T12:35:01Z</time>
</trkpt>
<trkpt lat="48.499115" lon="10.352159">
<ele>384.791</ele>
<time>2020-09-10T12:35:02Z</time>
</trkpt>
<trkpt lat="48.499058" lon="10.352137">
<ele>384.791</ele>
<time>2020-09-10T12:35:03Z</time>
</trkpt>
<trkpt lat="48.498997" lon="10.352123">
<ele>384.791</ele>
<time>2020-09-10T12:35:04Z</time>
</trkpt>
<trkpt lat="48.498936" lon="10.352115">
<ele>384.791</ele>
<time>2020-09-10T12:35:05Z</time>
</trkpt>
<trkpt lat="48.498878" lon="10.35211">
<ele>384.791</ele>
<time>2020-09-10T12:35:06Z</time>
</trkpt>
<trkpt lat="48.498817" lon="10.352102">
<ele>384.791</ele>
<time>2020-09-10T12:35:07Z</time>
</trkpt>
<trkpt lat="48.49876" lon="10.352092">
<ele>384.791</ele>
<time>2020-09-10T12:35:08Z</time>
</trkpt>
<trkpt lat="48.498699" lon="10.352083">
<ele>384.791</ele>
<time>2020-09-10T12:35:09Z</time>
</trkpt>
<trkpt lat="48.498638" lon="10.352078">
<ele>384.791</ele>
<time>2020-09-10T12:35:10Z</time>
</trkpt>
<trkpt lat="48.498577" lon="10.352073">
<ele>384.791</ele>
<time>2020-09-10T12:35:11Z</time>
</trkpt>
<trkpt lat="48.49852" lon="10.352067">
<ele>384.791</ele>
<time>2020-09-10T12:35:12Z</time>
</trkpt>
<trkpt lat="48.498459" lon="10.352058">
<ele>384.791</ele>
<time>2020-09-10T12:35:13Z</time>
</trkpt>
<trkpt lat="48.498398" lon="10.352057">
<ele>384.79</ele>
<time>2020-09-10T12:35:14Z</time>
</trkpt>
<trkpt lat="48.498341" lon="10.352055">
<ele>384.791</ele>
<time>2020-09-10T12:35:15Z</time>
</trkpt>
<trkpt lat="48.49828" lon="10.352054">
<ele>384.791</ele>
<time>2020-09-10T12:35:16Z</time>
</trkpt>
<trkpt lat="48.498222" lon="10.35205">
<ele>384.791</ele>
<time>2020-09-10T12:35:17Z</time>
</trkpt>
<trkpt lat="48.498165" lon="10.35205">
<ele>384.791</ele>
<time>2020-09-10T12:35:18Z</time>
</trkpt>
<trkpt lat="48.498108" lon="10.352048">
<ele>384.791</ele>
<time>2020-09-10T12:35:19Z</time>
</trkpt>
<trkpt lat="48.498047" lon="10.352046">
<ele>384.791</ele>
<time>2020-09-10T12:35:20Z</time>
</trkpt>
<trkpt lat="48.497986" lon="10.352046">
<ele>384.791</ele>
<time>2020-09-10T12:35:21Z</time>
</trkpt>
<trkpt lat="48.497929" lon="10.352052">
<ele>384.791</ele>
<time>2020-09-10T12:35:22Z</time>
</trkpt>
<trkpt lat="48.497868" lon="10.352057">
<ele>384.791</ele>
<time>2020-09-10T12:35:23Z</time>
</trkpt>
<trkpt lat="48.49781" lon="10.352065">
<ele>384.791</ele>
<time>2020-09-10T12:35:24Z</time>
</trkpt>
<trkpt lat="48.497753" lon="10.352073">
<ele>384.791</ele>
<time>2020-09-10T12:35:25Z</time>
</trkpt>
<trkpt lat="48.497688" lon="10.352081">
<ele>384.791</ele>
<time>2020-09-10T12:35:26Z</time>
</trkpt>
<trkpt lat="48.497627" lon="10.35209">
<ele>384.791</ele>
<time>2020-09-10T12:35:27Z</time>
</trkpt>
<trkpt lat="48.49757" lon="10.352098">
<ele>384.791</ele>
<time>2020-09-10T12:35:28Z</time>
</trkpt>
<trkpt lat="48.497513" lon="10.352105">
<ele>384.791</ele>
<time>2020-09-10T12:35:29Z</time>
</trkpt>
<trkpt lat="48.497456" lon="10.352113">
<ele>384.791</ele>
<time>2020-09-10T12:35:30Z</time>
</trkpt>
<trkpt lat="48.497395" lon="10.352125">
<ele>384.791</ele>
<time>2020-09-10T12:35:31Z</time>
</trkpt>
<trkpt lat="48.497337" lon="10.352137">
<ele>384.791</ele>
<time>2020-09-10T12:35:32Z</time>
</trkpt>
<trkpt lat="48.497276" lon="10.352148">
<ele>384.791</ele>
<time>2020-09-10T12:35:33Z</time>
</trkpt>
<trkpt lat="48.497219" lon="10.352161">
<ele>384.791</ele>
<time>2020-09-10T12:35:34Z</time>
</trkpt>
<trkpt lat="48.497162" lon="10.352176">
<ele>384.791</ele>
<time>2020-09-10T12:35:35Z</time>
</trkpt>
<trkpt lat="48.497101" lon="10.352188">
<ele>384.791</ele>
<time>2020-09-10T12:35:36Z</time>
</trkpt>
<trkpt lat="48.497044" lon="10.352205">
<ele>384.791</ele>
<time>2020-09-10T12:35:37Z</time>
</trkpt>
<trkpt lat="48.496986" lon="10.352221">
<ele>384.791</ele>
<time>2020-09-10T12:35:38Z</time>
</trkpt>
<trkpt lat="48.496929" lon="10.352242">
<ele>384.791</ele>
<time>2020-09-10T12:35:39Z</time>
</trkpt>
<trkpt lat="48.496872" lon="10.352262">
<ele>384.791</ele>
<time>2020-09-10T12:35:40Z</time>
</trkpt>
<trkpt lat="48.496807" lon="10.352284">
<ele>384.791</ele>
<time>2020-09-10T12:35:41Z</time>
</trkpt>
<trkpt lat="48.49675" lon="10.352307">
<ele>384.791</ele>
<time>2020-09-10T12:35:42Z</time>
</trkpt>
<trkpt lat="48.496693" lon="10.352326">
<ele>384.791</ele>
<time>2020-09-10T12:35:43Z</time>
</trkpt>
<trkpt lat="48.496632" lon="10.352347">
<ele>384.791</ele>
<time>2020-09-10T12:35:44Z</time>
</trkpt>
<trkpt lat="48.496574" lon="10.352366">
<ele>384.791</ele>
<time>2020-09-10T12:35:45Z</time>
</trkpt>
<trkpt lat="48.496513" lon="10.352386">
<ele>384.791</ele>
<time>2020-09-10T12:35:46Z</time>
</trkpt>
<trkpt lat="48.496452" lon="10.352407">
<ele>384.791</ele>
<time>2020-09-10T12:35:47Z</time>
</trkpt>
<trkpt lat="48.496395" lon="10.352428">
<ele>384.791</ele>
<time>2020-09-10T12:35:48Z</time>
</trkpt>
<trkpt lat="48.496338" lon="10.352448">
<ele>384.791</ele>
<time>2020-09-10T12:35:49Z</time>
</trkpt>
<trkpt lat="48.496281" lon="10.352471">
<ele>384.791</ele>
<time>2020-09-10T12:35:50Z</time>
</trkpt>
<trkpt lat="48.49622" lon="10.352493">
<ele>384.791</ele>
<time>2020-09-10T12:35:51Z</time>
</trkpt>
<trkpt lat="48.496162" lon="10.352513">
<ele>384.791</ele>
<time>2020-09-10T12:35:52Z</time>
</trkpt>
<trkpt lat="48.496105" lon="10.352536">
<ele>384.791</ele>
<time>2020-09-10T12:35:53Z</time>
</trkpt>
<trkpt lat="48.496048" lon="10.35256">
<ele>384.791</ele>
<time>2020-09-10T12:35:54Z</time>
</trkpt>
<trkpt lat="48.495987" lon="10.352582">
<ele>384.791</ele>
<time>2020-09-10T12:35:55Z</time>
</trkpt>
<trkpt lat="48.495926" lon="10.3526">
<ele>384.791</ele>
<time>2020-09-10T12:35:56Z</time>
</trkpt>
<trkpt lat="48.495869" lon="10.352622">
<ele>384.791</ele>
<time>2020-09-10T12:35:57Z</time>
</trkpt>
<trkpt lat="48.495811" lon="10.352643">
<ele>384.791</ele>
<time>2020-09-10T12:35:58Z</time>
</trkpt>
<trkpt lat="48.495754" lon="10.352665">
<ele>384.791</ele>
<time>2020-09-10T12:35:59Z</time>
</trkpt>
<trkpt lat="48.495697" lon="10.352687">
<ele>384.791</ele>
<time>2020-09-10T12:36:00Z</time>
</trkpt>
<trkpt lat="48.495636" lon="10.352708">
<ele>384.791</ele>
<time>2020-09-10T12:36:01Z</time>
</trkpt>
<trkpt lat="48.495579" lon="10.352731">
<ele>384.791</ele>
<time>2020-09-10T12:36:02Z</time>
</trkpt>
<trkpt lat="48.495518" lon="10.35275">
<ele>384.791</ele>
<time>2020-09-10T12:36:03Z</time>
</trkpt>
<trkpt lat="48.495461" lon="10.352772">
<ele>384.791</ele>
<time>2020-09-10T12:36:04Z</time>
</trkpt>
<trkpt lat="48.495403" lon="10.352796">
<ele>384.791</ele>
<time>2020-09-10T12:36:05Z</time>
</trkpt>
<trkpt lat="48.495338" lon="10.352818">
<ele>384.791</ele>
<time>2020-09-10T12:36:06Z</time>
</trkpt>
<trkpt lat="48.495281" lon="10.352839">
<ele>384.791</ele>
<time>2020-09-10T12:36:07Z</time>
</trkpt>
<trkpt lat="48.495224" lon="10.352863">
<ele>384.791</ele>
<time>2020-09-10T12:36:08Z</time>
</trkpt>
<trkpt lat="48.495167" lon="10.352886">
<ele>384.791</ele>
<time>2020-09-10T12:36:09Z</time>
</trkpt>
<trkpt lat="48.49511" lon="10.352907">
<ele>384.791</ele>
<time>2020-09-10T12:36:10Z</time>
</trkpt>
<trkpt lat="48.495049" lon="10.352928">
<ele>384.791</ele>
<time>2020-09-10T12:36:11Z</time>
</trkpt>
<trkpt lat="48.494991" lon="10.352948">
<ele>384.791</ele>
<time>2020-09-10T12:36:12Z</time>
</trkpt>
<trkpt lat="48.494934" lon="10.35297">
<ele>384.791</ele>
<time>2020-09-10T12:36:13Z</time>
</trkpt>
<trkpt lat="48.494873" lon="10.352991">
<ele>384.791</ele>
<time>2020-09-10T12:36:14Z</time>
</trkpt>
<trkpt lat="48.494816" lon="10.353013">
<ele>384.791</ele>
<time>2020-09-10T12:36:15Z</time>
</trkpt>
<trkpt lat="48.494755" lon="10.353033">
<ele>384.791</ele>
<time>2020-09-10T12:36:16Z</time>
</trkpt>
<trkpt lat="48.494694" lon="10.353051">
<ele>384.791</ele>
<time>2020-09-10T12:36:17Z</time>
</trkpt>
<trkpt lat="48.494633" lon="10.353072">
<ele>384.791</ele>
<time>2020-09-10T12:36:18Z</time>
</trkpt>
<trkpt lat="48.494576" lon="10.353089">
<ele>384.791</ele>
<time>2020-09-10T12:36:19Z</time>
</trkpt>
<trkpt lat="48.494514" lon="10.353106">
<ele>384.791</ele>
<time>2020-09-10T12:36:20Z</time>
</trkpt>
<trkpt lat="48.494457" lon="10.35312">
<ele>384.791</ele>
<time>2020-09-10T12:36:21Z</time>
</trkpt>
<trkpt lat="48.494396" lon="10.353133">
<ele>384.791</ele>
<time>2020-09-10T12:36:22Z</time>
</trkpt>
<trkpt lat="48.494335" lon="10.353148">
<ele>384.791</ele>
<time>2020-09-10T12:36:23Z</time>
</trkpt>
<trkpt lat="48.494278" lon="10.353163">
<ele>384.791</ele>
<time>2020-09-10T12:36:24Z</time>
</trkpt>
<trkpt lat="48.494217" lon="10.353175">
<ele>384.791</ele>
<time>2020-09-10T12:36:25Z</time>
</trkpt>
<trkpt lat="48.494156" lon="10.353187">
<ele>384.791</ele>
<time>2020-09-10T12:36:26Z</time>
</trkpt>
<trkpt lat="48.494099" lon="10.3532">
<ele>384.791</ele>
<time>2020-09-10T12:36:27Z</time>
</trkpt>
<trkpt lat="48.494038" lon="10.353213">
<ele>384.791</ele>
<time>2020-09-10T12:36:28Z</time>
</trkpt>
<trkpt lat="48.493977" lon="10.35323">
<ele>384.791</ele>
<time>2020-09-10T12:36:29Z</time>
</trkpt>
<trkpt lat="48.493916" lon="10.353245">
<ele>384.791</ele>
<time>2020-09-10T12:36:30Z</time>
</trkpt>
<trkpt lat="48.493855" lon="10.353261">
<ele>384.791</ele>
<time>2020-09-10T12:36:31Z</time>
</trkpt>
<trkpt lat="48.493797" lon="10.353282">
<ele>384.791</ele>
<time>2020-09-10T12:36:32Z</time>
</trkpt>
<trkpt lat="48.493736" lon="10.353305">
<ele>384.791</ele>
<time>2020-09-10T12:36:33Z</time>
</trkpt>
<trkpt lat="48.493679" lon="10.353333">
<ele>384.791</ele>
<time>2020-09-10T12:36:34Z</time>
</trkpt>
<trkpt lat="48.493622" lon="10.353365">
<ele>384.791</ele>
<time>2020-09-10T12:36:35Z</time>
</trkpt>
<trkpt lat="48.493565" lon="10.353399">
<ele>384.791</ele>
<time>2020-09-10T12:36:36Z</time>
</trkpt>
<trkpt lat="48.493511" lon="10.353438">
<ele>384.791</ele>
<time>2020-09-10T12:36:37Z</time>
</trkpt>
<trkpt lat="48.493454" lon="10.353478">
<ele>384.791</ele>
<time>2020-09-10T12:36:38Z</time>
</trkpt>
<trkpt lat="48.493408" lon="10.35352">
<ele>384.791</ele>
<time>2020-09-10T12:36:39Z</time>
</trkpt>
<trkpt lat="48.493366" lon="10.353567">
<ele>384.791</ele>
<time>2020-09-10T12:36:40Z</time>
</trkpt>
<trkpt lat="48.493332" lon="10.353621">
<ele>384.791</ele>
<time>2020-09-10T12:36:41Z</time>
</trkpt>
<trkpt lat="48.493313" lon="10.353686">
<ele>384.791</ele>
<time>2020-09-10T12:36:42Z</time>
</trkpt>
<trkpt lat="48.493309" lon="10.353764">
<ele>384.791</ele>
<time>2020-09-10T12:36:43Z</time>
</trkpt>
<trkpt lat="48.493313" lon="10.353846">
<ele>384.791</ele>
<time>2020-09-10T12:36:44Z</time>
</trkpt>
<trkpt lat="48.493324" lon="10.353927">
<ele>384.791</ele>
<time>2020-09-10T12:36:45Z</time>
</trkpt>
<trkpt lat="48.493336" lon="10.354009">
<ele>384.791</ele>
<time>2020-09-10T12:36:46Z</time>
</trkpt>
<trkpt lat="48.493343" lon="10.354092">
<ele>384.791</ele>
<time>2020-09-10T12:36:47Z</time>
</trkpt>
<trkpt lat="48.493351" lon="10.354172">
<ele>384.791</ele>
<time>2020-09-10T12:36:48Z</time>
</trkpt>
<trkpt lat="48.493351" lon="10.35425">
<ele>384.791</ele>
<time>2020-09-10T12:36:49Z</time>
</trkpt>
<trkpt lat="48.493359" lon="10.354327">
<ele>384.791</ele>
<time>2020-09-10T12:36:50Z</time>
</trkpt>
<trkpt lat="48.493362" lon="10.354399">
<ele>384.791</ele>
<time>2020-09-10T12:36:51Z</time>
</trkpt>
<trkpt lat="48.493359" lon="10.354464">
<ele>384.791</ele>
<time>2020-09-10T12:36:52Z</time>
</trkpt>
<trkpt lat="48.493362" lon="10.354533">
<ele>384.791</ele>
<time>2020-09-10T12:36:53Z</time>
</trkpt>
<trkpt lat="48.49337" lon="10.354609">
<ele>385.068</ele>
<time>2020-09-10T12:36:54Z</time>
</trkpt>
<trkpt lat="48.493378" lon="10.354687">
<ele>385.294</ele>
<time>2020-09-10T12:36:55Z</time>
</trkpt>
<trkpt lat="48.493385" lon="10.354767">
<ele>385.472</ele>
<time>2020-09-10T12:36:56Z</time>
</trkpt>
<trkpt lat="48.493397" lon="10.354845">
<ele>385.595</ele>
<time>2020-09-10T12:36:57Z</time>
</trkpt>
<trkpt lat="48.493408" lon="10.354925">
<ele>385.73</ele>
<time>2020-09-10T12:36:58Z</time>
</trkpt>
<trkpt lat="48.493416" lon="10.355006">
<ele>385.827</ele>
<time>2020-09-10T12:36:59Z</time>
</trkpt>
<trkpt lat="48.493416" lon="10.35509">
<ele>385.886</ele>
<time>2020-09-10T12:37:00Z</time>
</trkpt>
<trkpt lat="48.49342" lon="10.355173">
<ele>385.911</ele>
<time>2020-09-10T12:37:01Z</time>
</trkpt>
<trkpt lat="48.493423" lon="10.355255">
<ele>385.911</ele>
<time>2020-09-10T12:37:02Z</time>
</trkpt>
<trkpt lat="48.493423" lon="10.355339">
<ele>385.911</ele>
<time>2020-09-10T12:37:03Z</time>
</trkpt>
<trkpt lat="48.493427" lon="10.355423">
<ele>385.911</ele>
<time>2020-09-10T12:37:04Z</time>
</trkpt>
<trkpt lat="48.493431" lon="10.355509">
<ele>385.911</ele>
<time>2020-09-10T12:37:05Z</time>
</trkpt>
<trkpt lat="48.493435" lon="10.355593">
<ele>385.679</ele>
<time>2020-09-10T12:37:06Z</time>
</trkpt>
<trkpt lat="48.493439" lon="10.355679">
<ele>385.514</ele>
<time>2020-09-10T12:37:07Z</time>
</trkpt>
<trkpt lat="48.493443" lon="10.355764">
<ele>385.345</ele>
<time>2020-09-10T12:37:08Z</time>
</trkpt>
<trkpt lat="48.493446" lon="10.355853">
<ele>385.21</ele>
<time>2020-09-10T12:37:09Z</time>
</trkpt>
<trkpt lat="48.49345" lon="10.35594">
<ele>385.106</ele>
<time>2020-09-10T12:37:10Z</time>
</trkpt>
<trkpt lat="48.49345" lon="10.356029">
<ele>385.033</ele>
<time>2020-09-10T12:37:11Z</time>
</trkpt>
<trkpt lat="48.493454" lon="10.356116">
<ele>384.986</ele>
<time>2020-09-10T12:37:12Z</time>
</trkpt>
<trkpt lat="48.493458" lon="10.356203">
<ele>384.963</ele>
<time>2020-09-10T12:37:13Z</time>
</trkpt>
<trkpt lat="48.493465" lon="10.356292">
<ele>384.963</ele>
<time>2020-09-10T12:37:14Z</time>
</trkpt>
<trkpt lat="48.493469" lon="10.356377">
<ele>384.963</ele>
<time>2020-09-10T12:37:15Z</time>
</trkpt>
<trkpt lat="48.493469" lon="10.356463">
<ele>384.963</ele>
<time>2020-09-10T12:37:16Z</time>
</trkpt>
<trkpt lat="48.493469" lon="10.356548">
<ele>384.963</ele>
<time>2020-09-10T12:37:17Z</time>
</trkpt>
<trkpt lat="48.493473" lon="10.356635">
<ele>384.963</ele>
<time>2020-09-10T12:37:18Z</time>
</trkpt>
<trkpt lat="48.493477" lon="10.35672">
<ele>384.963</ele>
<time>2020-09-10T12:37:19Z</time>
</trkpt>
<trkpt lat="48.493477" lon="10.356806">
<ele>384.963</ele>
<time>2020-09-10T12:37:20Z</time>
</trkpt>
<trkpt lat="48.493473" lon="10.35689">
<ele>384.963</ele>
<time>2020-09-10T12:37:21Z</time>
</trkpt>
<trkpt lat="48.493473" lon="10.356976">
<ele>384.963</ele>
<time>2020-09-10T12:37:22Z</time>
</trkpt>
<trkpt lat="48.493481" lon="10.357059">
<ele>384.963</ele>
<time>2020-09-10T12:37:23Z</time>
</trkpt>
<trkpt lat="48.493481" lon="10.357143">
<ele>384.963</ele>
<time>2020-09-10T12:37:24Z</time>
</trkpt>
<trkpt lat="48.493481" lon="10.357222">
<ele>384.963</ele>
<time>2020-09-10T12:37:25Z</time>
</trkpt>
<trkpt lat="48.493481" lon="10.3573">
<ele>384.963</ele>
<time>2020-09-10T12:37:26Z</time>
</trkpt>
<trkpt lat="48.493481" lon="10.357378">
<ele>384.963</ele>
<time>2020-09-10T12:37:27Z</time>
</trkpt>
<trkpt lat="48.493477" lon="10.357455">
<ele>384.963</ele>
<time>2020-09-10T12:37:28Z</time>
</trkpt>
<trkpt lat="48.493473" lon="10.357535">
<ele>384.963</ele>
<time>2020-09-10T12:37:29Z</time>
</trkpt>
<trkpt lat="48.493465" lon="10.357613">
<ele>384.963</ele>
<time>2020-09-10T12:37:30Z</time>
</trkpt>
<trkpt lat="48.49345" lon="10.357694">
<ele>384.963</ele>
<time>2020-09-10T12:37:31Z</time>
</trkpt>
<trkpt lat="48.493435" lon="10.357768">
<ele>384.963</ele>
<time>2020-09-10T12:37:32Z</time>
</trkpt>
<trkpt lat="48.493412" lon="10.357841">
<ele>384.963</ele>
<time>2020-09-10T12:37:33Z</time>
</trkpt>
<trkpt lat="48.493385" lon="10.357915">
<ele>384.963</ele>
<time>2020-09-10T12:37:34Z</time>
</trkpt>
<trkpt lat="48.493359" lon="10.357988">
<ele>384.963</ele>
<time>2020-09-10T12:37:35Z</time>
</trkpt>
<trkpt lat="48.493328" lon="10.358057">
<ele>384.963</ele>
<time>2020-09-10T12:37:36Z</time>
</trkpt>
<trkpt lat="48.493298" lon="10.35812">
<ele>384.963</ele>
<time>2020-09-10T12:37:37Z</time>
</trkpt>
<trkpt lat="48.493267" lon="10.358187">
<ele>384.963</ele>
<time>2020-09-10T12:37:38Z</time>
</trkpt>
<trkpt lat="48.493237" lon="10.358258">
<ele>384.963</ele>
<time>2020-09-10T12:37:39Z</time>
</trkpt>
<trkpt lat="48.493202" lon="10.358335">
<ele>384.963</ele>
<time>2020-09-10T12:37:40Z</time>
</trkpt>
<trkpt lat="48.493172" lon="10.358408">
<ele>384.963</ele>
<time>2020-09-10T12:37:41Z</time>
</trkpt>
<trkpt lat="48.493137" lon="10.358479">
<ele>384.963</ele>
<time>2020-09-10T12:37:42Z</time>
</trkpt>
<trkpt lat="48.493099" lon="10.358557">
<ele>384.963</ele>
<time>2020-09-10T12:37:43Z</time>
</trkpt>
<trkpt lat="48.493061" lon="10.35863">
<ele>384.963</ele>
<time>2020-09-10T12:37:44Z</time>
</trkpt>
<trkpt lat="48.493027" lon="10.358702">
<ele>384.963</ele>
<time>2020-09-10T12:37:45Z</time>
</trkpt>
<trkpt lat="48.492992" lon="10.358773">
<ele>384.963</ele>
<time>2020-09-10T12:37:46Z</time>
</trkpt>
<trkpt lat="48.492958" lon="10.358844">
<ele>384.963</ele>
<time>2020-09-10T12:37:47Z</time>
</trkpt>
<trkpt lat="48.492924" lon="10.358915">
<ele>384.963</ele>
<time>2020-09-10T12:37:48Z</time>
</trkpt>
<trkpt lat="48.492893" lon="10.358989">
<ele>384.963</ele>
<time>2020-09-10T12:37:49Z</time>
</trkpt>
<trkpt lat="48.492859" lon="10.35906">
<ele>384.963</ele>
<time>2020-09-10T12:37:50Z</time>
</trkpt>
<trkpt lat="48.492825" lon="10.359129">
<ele>384.963</ele>
<time>2020-09-10T12:37:51Z</time>
</trkpt>
<trkpt lat="48.49279" lon="10.35919">
<ele>384.963</ele>
<time>2020-09-10T12:37:52Z</time>
</trkpt>
<trkpt lat="48.492752" lon="10.359251">
<ele>384.963</ele>
<time>2020-09-10T12:37:53Z</time>
</trkpt>
<trkpt lat="48.492714" lon="10.359315">
<ele>384.963</ele>
<time>2020-09-10T12:37:54Z</time>
</trkpt>
<trkpt lat="48.49268" lon="10.359379">
<ele>384.963</ele>
<time>2020-09-10T12:37:55Z</time>
</trkpt>
<trkpt lat="48.492645" lon="10.359437">
<ele>384.963</ele>
<time>2020-09-10T12:37:56Z</time>
</trkpt>
<trkpt lat="48.492611" lon="10.359493">
<ele>384.963</ele>
<time>2020-09-10T12:37:57Z</time>
</trkpt>
<trkpt lat="48.492577" lon="10.35955">
<ele>384.963</ele>
<time>2020-09-10T12:37:58Z</time>
</trkpt>
<trkpt lat="48.492538" lon="10.359609">
<ele>384.963</ele>
<time>2020-09-10T12:37:59Z</time>
</trkpt>
<trkpt lat="48.492504" lon="10.359665">
<ele>384.963</ele>
<time>2020-09-10T12:38:00Z</time>
</trkpt>
<trkpt lat="48.49247" lon="10.359712">
<ele>384.963</ele>
<time>2020-09-10T12:38:01Z</time>
</trkpt>
<trkpt lat="48.492439" lon="10.359756">
<ele>384.963</ele>
<time>2020-09-10T12:38:02Z</time>
</trkpt>
<trkpt lat="48.492405" lon="10.3598">
<ele>384.963</ele>
<time>2020-09-10T12:38:03Z</time>
</trkpt>
<trkpt lat="48.492374" lon="10.359845">
<ele>384.963</ele>
<time>2020-09-10T12:38:04Z</time>
</trkpt>
<trkpt lat="48.492348" lon="10.359899">
<ele>384.963</ele>
<time>2020-09-10T12:38:05Z</time>
</trkpt>
<trkpt lat="48.492329" lon="10.359952">
<ele>384.963</ele>
<time>2020-09-10T12:38:06Z</time>
</trkpt>
<trkpt lat="48.492306" lon="10.360013">
<ele>384.963</ele>
<time>2020-09-10T12:38:07Z</time>
</trkpt>
<trkpt lat="48.492287" lon="10.360097">
<ele>384.963</ele>
<time>2020-09-10T12:38:08Z</time>
</trkpt>
<trkpt lat="48.492264" lon="10.360182">
<ele>384.963</ele>
<time>2020-09-10T12:38:09Z</time>
</trkpt>
<trkpt lat="48.492241" lon="10.360262">
<ele>384.697</ele>
<time>2020-09-10T12:38:10Z</time>
</trkpt>
<trkpt lat="48.492214" lon="10.360335">
<ele>384.493</ele>
<time>2020-09-10T12:38:11Z</time>
</trkpt>
<trkpt lat="48.492195" lon="10.360414">
<ele>384.35</ele>
<time>2020-09-10T12:38:12Z</time>
</trkpt>
<trkpt lat="48.492172" lon="10.360497">
<ele>384.25</ele>
<time>2020-09-10T12:38:13Z</time>
</trkpt>
<trkpt lat="48.492146" lon="10.360587">
<ele>384.179</ele>
<time>2020-09-10T12:38:14Z</time>
</trkpt>
<trkpt lat="48.492115" lon="10.360671">
<ele>384.143</ele>
<time>2020-09-10T12:38:15Z</time>
</trkpt>
<trkpt lat="48.492096" lon="10.360753">
<ele>384.121</ele>
<time>2020-09-10T12:38:16Z</time>
</trkpt>
<trkpt lat="48.492073" lon="10.360828">
<ele>384.101</ele>
<time>2020-09-10T12:38:17Z</time>
</trkpt>
<trkpt lat="48.49205" lon="10.360895">
<ele>384.101</ele>
<time>2020-09-10T12:38:18Z</time>
</trkpt>
<trkpt lat="48.492031" lon="10.36097">
<ele>384.101</ele>
<time>2020-09-10T12:38:19Z</time>
</trkpt>
<trkpt lat="48.492016" lon="10.361047">
<ele>384.101</ele>
<time>2020-09-10T12:38:20Z</time>
</trkpt>
<trkpt lat="48.491989" lon="10.361123">
<ele>384.101</ele>
<time>2020-09-10T12:38:21Z</time>
</trkpt>
<trkpt lat="48.491974" lon="10.361199">
<ele>384.101</ele>
<time>2020-09-10T12:38:22Z</time>
</trkpt>
<trkpt lat="48.491951" lon="10.361297">
<ele>384.101</ele>
<time>2020-09-10T12:38:23Z</time>
</trkpt>
<trkpt lat="48.491924" lon="10.361382">
<ele>384.101</ele>
<time>2020-09-10T12:38:24Z</time>
</trkpt>
<trkpt lat="48.491901" lon="10.361468">
<ele>384.101</ele>
<time>2020-09-10T12:38:25Z</time>
</trkpt>
<trkpt lat="48.491879" lon="10.361549">
<ele>384.101</ele>
<time>2020-09-10T12:38:26Z</time>
</trkpt>
<trkpt lat="48.491863" lon="10.361631">
<ele>384.101</ele>
<time>2020-09-10T12:38:27Z</time>
</trkpt>
<trkpt lat="48.49184" lon="10.361709">
<ele>384.101</ele>
<time>2020-09-10T12:38:28Z</time>
</trkpt>
<trkpt lat="48.491817" lon="10.361792">
<ele>384.101</ele>
<time>2020-09-10T12:38:29Z</time>
</trkpt>
<trkpt lat="48.491795" lon="10.361882">
<ele>384.101</ele>
<time>2020-09-10T12:38:30Z</time>
</trkpt>
<trkpt lat="48.491776" lon="10.361965">
<ele>384.101</ele>
<time>2020-09-10T12:38:31Z</time>
</trkpt>
<trkpt lat="48.491753" lon="10.362037">
<ele>384.101</ele>
<time>2020-09-10T12:38:32Z</time>
</trkpt>
<trkpt lat="48.491737" lon="10.362103">
<ele>384.101</ele>
<time>2020-09-10T12:38:33Z</time>
</trkpt>
<trkpt lat="48.49173" lon="10.362169">
<ele>384.101</ele>
<time>2020-09-10T12:38:34Z</time>
</trkpt>
<trkpt lat="48.491722" lon="10.362232">
<ele>384.101</ele>
<time>2020-09-10T12:38:35Z</time>
</trkpt>
<trkpt lat="48.491722" lon="10.362309">
<ele>384.101</ele>
<time>2020-09-10T12:38:36Z</time>
</trkpt>
<trkpt lat="48.491722" lon="10.36239">
<ele>384.101</ele>
<time>2020-09-10T12:38:37Z</time>
</trkpt>
<trkpt lat="48.491722" lon="10.362467">
<ele>384.101</ele>
<time>2020-09-10T12:38:38Z</time>
</trkpt>
<trkpt lat="48.491722" lon="10.362547">
<ele>384.101</ele>
<time>2020-09-10T12:38:39Z</time>
</trkpt>
<trkpt lat="48.49173" lon="10.362625">
<ele>384.101</ele>
<time>2020-09-10T12:38:40Z</time>
</trkpt>
<trkpt lat="48.491734" lon="10.362691">
<ele>384.101</ele>
<time>2020-09-10T12:38:41Z</time>
</trkpt>
<trkpt lat="48.491741" lon="10.362766">
<ele>384.101</ele>
<time>2020-09-10T12:38:42Z</time>
</trkpt>
<trkpt lat="48.491745" lon="10.36285">
<ele>384.101</ele>
<time>2020-09-10T12:38:43Z</time>
</trkpt>
<trkpt lat="48.491753" lon="10.362926">
<ele>384.101</ele>
<time>2020-09-10T12:38:44Z</time>
</trkpt>
<trkpt lat="48.491756" lon="10.363">
<ele>384.101</ele>
<time>2020-09-10T12:38:45Z</time>
</trkpt>
<trkpt lat="48.491764" lon="10.363073">
<ele>384.101</ele>
<time>2020-09-10T12:38:46Z</time>
</trkpt>
<trkpt lat="48.491779" lon="10.36315">
<ele>384.101</ele>
<time>2020-09-10T12:38:47Z</time>
</trkpt>
<trkpt lat="48.491787" lon="10.363223">
<ele>384.101</ele>
<time>2020-09-10T12:38:48Z</time>
</trkpt>
<trkpt lat="48.491798" lon="10.363294">
<ele>384.101</ele>
<time>2020-09-10T12:38:49Z</time>
</trkpt>
<trkpt lat="48.49181" lon="10.363363">
<ele>384.101</ele>
<time>2020-09-10T12:38:50Z</time>
</trkpt>
<trkpt lat="48.491817" lon="10.363439">
<ele>384.101</ele>
<time>2020-09-10T12:38:51Z</time>
</trkpt>
<trkpt lat="48.491837" lon="10.363521">
<ele>384.101</ele>
<time>2020-09-10T12:38:52Z</time>
</trkpt>
<trkpt lat="48.491852" lon="10.363595">
<ele>384.101</ele>
<time>2020-09-10T12:38:53Z</time>
</trkpt>
<trkpt lat="48.491875" lon="10.363671">
<ele>384.101</ele>
<time>2020-09-10T12:38:54Z</time>
</trkpt>
<trkpt lat="48.491898" lon="10.363749">
<ele>384.343</ele>
<time>2020-09-10T12:38:55Z</time>
</trkpt>
<trkpt lat="48.491917" lon="10.363813">
<ele>384.534</ele>
<time>2020-09-10T12:38:56Z</time>
</trkpt>
<trkpt lat="48.491928" lon="10.363878">
<ele>384.664</ele>
<time>2020-09-10T12:38:57Z</time>
</trkpt>
<trkpt lat="48.491943" lon="10.363935">
<ele>384.796</ele>
<time>2020-09-10T12:38:58Z</time>
</trkpt>
<trkpt lat="48.491959" lon="10.364013">
<ele>384.897</ele>
<time>2020-09-10T12:38:59Z</time>
</trkpt>
<trkpt lat="48.491985" lon="10.364095">
<ele>384.972</ele>
<time>2020-09-10T12:39:00Z</time>
</trkpt>
<trkpt lat="48.492008" lon="10.364161">
<ele>385.025</ele>
<time>2020-09-10T12:39:01Z</time>
</trkpt>
<trkpt lat="48.492027" lon="10.364226">
<ele>385.049</ele>
<time>2020-09-10T12:39:02Z</time>
</trkpt>
<trkpt lat="48.492046" lon="10.36429">
<ele>385.049</ele>
<time>2020-09-10T12:39:03Z</time>
</trkpt>
<trkpt lat="48.492058" lon="10.364345">
<ele>385.049</ele>
<time>2020-09-10T12:39:04Z</time>
</trkpt>
<trkpt lat="48.492073" lon="10.364402">
<ele>385.049</ele>
<time>2020-09-10T12:39:05Z</time>
</trkpt>
<trkpt lat="48.492077" lon="10.364459">
<ele>385.049</ele>
<time>2020-09-10T12:39:06Z</time>
</trkpt>
<trkpt lat="48.492069" lon="10.364515">
<ele>385.245</ele>
<time>2020-09-10T12:39:07Z</time>
</trkpt>
<trkpt lat="48.492058" lon="10.364565">
<ele>385.432</ele>
<time>2020-09-10T12:39:08Z</time>
</trkpt>
<trkpt lat="48.492046" lon="10.364612">
<ele>385.6</ele>
<time>2020-09-10T12:39:09Z</time>
</trkpt>
<trkpt lat="48.492035" lon="10.364656">
<ele>385.734</ele>
<time>2020-09-10T12:39:10Z</time>
</trkpt>
<trkpt lat="48.49202" lon="10.3647">
<ele>385.841</ele>
<time>2020-09-10T12:39:11Z</time>
</trkpt>
<trkpt lat="48.491993" lon="10.364742">
<ele>385.924</ele>
<time>2020-09-10T12:39:12Z</time>
</trkpt>
<trkpt lat="48.49197" lon="10.364781">
<ele>385.973</ele>
<time>2020-09-10T12:39:13Z</time>
</trkpt>
<trkpt lat="48.49194" lon="10.364815">
<ele>385.997</ele>
<time>2020-09-10T12:39:14Z</time>
</trkpt>
<trkpt lat="48.491917" lon="10.364851">
<ele>385.997</ele>
<time>2020-09-10T12:39:15Z</time>
</trkpt>
<trkpt lat="48.491886" lon="10.364881">
<ele>386.273</ele>
<time>2020-09-10T12:39:16Z</time>
</trkpt>
<trkpt lat="48.491852" lon="10.364908">
<ele>386.471</ele>
<time>2020-09-10T12:39:17Z</time>
</trkpt>
<trkpt lat="48.491817" lon="10.364933">
<ele>386.673</ele>
<time>2020-09-10T12:39:18Z</time>
</trkpt>
<trkpt lat="48.491779" lon="10.364955">
<ele>386.828</ele>
<time>2020-09-10T12:39:19Z</time>
</trkpt>
<trkpt lat="48.491741" lon="10.364982">
<ele>386.945</ele>
<time>2020-09-10T12:39:20Z</time>
</trkpt>
<trkpt lat="48.491699" lon="10.365005">
<ele>387.034</ele>
<time>2020-09-10T12:39:21Z</time>
</trkpt>
<trkpt lat="48.491657" lon="10.365028">
<ele>387.09</ele>
<time>2020-09-10T12:39:22Z</time>
</trkpt>
<trkpt lat="48.491619" lon="10.36505">
<ele>387.118</ele>
<time>2020-09-10T12:39:23Z</time>
</trkpt>
<trkpt lat="48.49157" lon="10.365073">
<ele>387.118</ele>
<time>2020-09-10T12:39:24Z</time>
</trkpt>
<trkpt lat="48.491528" lon="10.365102">
<ele>387.118</ele>
<time>2020-09-10T12:39:25Z</time>
</trkpt>
<trkpt lat="48.491478" lon="10.365128">
<ele>387.118</ele>
<time>2020-09-10T12:39:26Z</time>
</trkpt>
<trkpt lat="48.491428" lon="10.365157">
<ele>387.118</ele>
<time>2020-09-10T12:39:27Z</time>
</trkpt>
<trkpt lat="48.491386" lon="10.36518">
<ele>387.118</ele>
<time>2020-09-10T12:39:28Z</time>
</trkpt>
<trkpt lat="48.491337" lon="10.365205">
<ele>387.118</ele>
<time>2020-09-10T12:39:29Z</time>
</trkpt>
<trkpt lat="48.491295" lon="10.365227">
<ele>387.118</ele>
<time>2020-09-10T12:39:30Z</time>
</trkpt>
<trkpt lat="48.491249" lon="10.365249">
<ele>387.118</ele>
<time>2020-09-10T12:39:31Z</time>
</trkpt>
<trkpt lat="48.491203" lon="10.36527">
<ele>387.118</ele>
<time>2020-09-10T12:39:32Z</time>
</trkpt>
<trkpt lat="48.491158" lon="10.365292">
<ele>387.118</ele>
<time>2020-09-10T12:39:33Z</time>
</trkpt>
<trkpt lat="48.491112" lon="10.365314">
<ele>387.118</ele>
<time>2020-09-10T12:39:34Z</time>
</trkpt>
<trkpt lat="48.49107" lon="10.365334">
<ele>387.118</ele>
<time>2020-09-10T12:39:35Z</time>
</trkpt>
<trkpt lat="48.491024" lon="10.365355">
<ele>387.118</ele>
<time>2020-09-10T12:39:36Z</time>
</trkpt>
<trkpt lat="48.490974" lon="10.365376">
<ele>387.118</ele>
<time>2020-09-10T12:39:37Z</time>
</trkpt>
<trkpt lat="48.490929" lon="10.3654">
<ele>387.118</ele>
<time>2020-09-10T12:39:38Z</time>
</trkpt>
<trkpt lat="48.490875" lon="10.365423">
<ele>387.118</ele>
<time>2020-09-10T12:39:39Z</time>
</trkpt>
<trkpt lat="48.490826" lon="10.365448">
<ele>387.118</ele>
<time>2020-09-10T12:39:40Z</time>
</trkpt>
<trkpt lat="48.490776" lon="10.365483">
<ele>387.118</ele>
<time>2020-09-10T12:39:41Z</time>
</trkpt>
<trkpt lat="48.49073" lon="10.365523">
<ele>387.118</ele>
<time>2020-09-10T12:39:42Z</time>
</trkpt>
<trkpt lat="48.490685" lon="10.365565">
<ele>386.883</ele>
<time>2020-09-10T12:39:43Z</time>
</trkpt>
<trkpt lat="48.490646" lon="10.365605">
<ele>386.707</ele>
<time>2020-09-10T12:39:44Z</time>
</trkpt>
<trkpt lat="48.490608" lon="10.365637">
<ele>386.574</ele>
<time>2020-09-10T12:39:45Z</time>
</trkpt>
<trkpt lat="48.49057" lon="10.365657">
<ele>386.473</ele>
<time>2020-09-10T12:39:46Z</time>
</trkpt>
<trkpt lat="48.490524" lon="10.365657">
<ele>386.402</ele>
<time>2020-09-10T12:39:47Z</time>
</trkpt>
<trkpt lat="48.490482" lon="10.365632">
<ele>386.329</ele>
<time>2020-09-10T12:39:48Z</time>
</trkpt>
<trkpt lat="48.490448" lon="10.36559">
<ele>386.28</ele>
<time>2020-09-10T12:39:49Z</time>
</trkpt>
<trkpt lat="48.49041" lon="10.365551">
<ele>386.255</ele>
<time>2020-09-10T12:39:50Z</time>
</trkpt>
<trkpt lat="48.490364" lon="10.365525">
<ele>386.255</ele>
<time>2020-09-10T12:39:51Z</time>
</trkpt>
<trkpt lat="48.490318" lon="10.365523">
<ele>386.255</ele>
<time>2020-09-10T12:39:52Z</time>
</trkpt>
<trkpt lat="48.49028" lon="10.365544">
<ele>385.979</ele>
<time>2020-09-10T12:39:53Z</time>
</trkpt>
<trkpt lat="48.490238" lon="10.365565">
<ele>385.767</ele>
<time>2020-09-10T12:39:54Z</time>
</trkpt>
<trkpt lat="48.490189" lon="10.365577">
<ele>385.604</ele>
<time>2020-09-10T12:39:55Z</time>
</trkpt>
<trkpt lat="48.490135" lon="10.365586">
<ele>385.48</ele>
<time>2020-09-10T12:39:56Z</time>
</trkpt>
<trkpt lat="48.490086" lon="10.365599">
<ele>385.395</ele>
<time>2020-09-10T12:39:57Z</time>
</trkpt>
<trkpt lat="48.490032" lon="10.365614">
<ele>385.306</ele>
<time>2020-09-10T12:39:58Z</time>
</trkpt>
<trkpt lat="48.489975" lon="10.365626">
<ele>385.248</ele>
<time>2020-09-10T12:39:59Z</time>
</trkpt>
<trkpt lat="48.489918" lon="10.365644">
<ele>385.221</ele>
<time>2020-09-10T12:40:00Z</time>
</trkpt>
<trkpt lat="48.489861" lon="10.365662">
<ele>385.221</ele>
<time>2020-09-10T12:40:01Z</time>
</trkpt>
<trkpt lat="48.489799" lon="10.365677">
<ele>385.221</ele>
<time>2020-09-10T12:40:02Z</time>
</trkpt>
<trkpt lat="48.489738" lon="10.365688">
<ele>385.221</ele>
<time>2020-09-10T12:40:03Z</time>
</trkpt>
<trkpt lat="48.489681" lon="10.365704">
<ele>384.949</ele>
<time>2020-09-10T12:40:04Z</time>
</trkpt>
<trkpt lat="48.48962" lon="10.365718">
<ele>384.738</ele>
<time>2020-09-10T12:40:05Z</time>
</trkpt>
<trkpt lat="48.489559" lon="10.365733">
<ele>384.577</ele>
<time>2020-09-10T12:40:06Z</time>
</trkpt>
<trkpt lat="48.489502" lon="10.365746">
<ele>384.47</ele>
<time>2020-09-10T12:40:07Z</time>
</trkpt>
<trkpt lat="48.489441" lon="10.36576">
<ele>384.355</ele>
<time>2020-09-10T12:40:08Z</time>
</trkpt>
<trkpt lat="48.489376" lon="10.36577">
<ele>384.27</ele>
<time>2020-09-10T12:40:09Z</time>
</trkpt>
<trkpt lat="48.489315" lon="10.365779">
<ele>384.214</ele>
<time>2020-09-10T12:40:10Z</time>
</trkpt>
<trkpt lat="48.489254" lon="10.365788">
<ele>384.187</ele>
<time>2020-09-10T12:40:11Z</time>
</trkpt>
<trkpt lat="48.489193" lon="10.365795">
<ele>384.187</ele>
<time>2020-09-10T12:40:12Z</time>
</trkpt>
<trkpt lat="48.489132" lon="10.365804">
<ele>384.187</ele>
<time>2020-09-10T12:40:13Z</time>
</trkpt>
<trkpt lat="48.489067" lon="10.365808">
<ele>384.187</ele>
<time>2020-09-10T12:40:14Z</time>
</trkpt>
<trkpt lat="48.489006" lon="10.365812">
<ele>384.187</ele>
<time>2020-09-10T12:40:15Z</time>
</trkpt>
<trkpt lat="48.488941" lon="10.365815">
<ele>383.956</ele>
<time>2020-09-10T12:40:16Z</time>
</trkpt>
<trkpt lat="48.488876" lon="10.365819">
<ele>383.792</ele>
<time>2020-09-10T12:40:17Z</time>
</trkpt>
<trkpt lat="48.488815" lon="10.36582">
<ele>383.623</ele>
<time>2020-09-10T12:40:18Z</time>
</trkpt>
<trkpt lat="48.48875" lon="10.365819">
<ele>383.486</ele>
<time>2020-09-10T12:40:19Z</time>
</trkpt>
<trkpt lat="48.488686" lon="10.365815">
<ele>383.383</ele>
<time>2020-09-10T12:40:20Z</time>
</trkpt>
<trkpt lat="48.488621" lon="10.365807">
<ele>383.309</ele>
<time>2020-09-10T12:40:21Z</time>
</trkpt>
<trkpt lat="48.488556" lon="10.365795">
<ele>383.263</ele>
<time>2020-09-10T12:40:22Z</time>
</trkpt>
<trkpt lat="48.488491" lon="10.36578">
<ele>383.24</ele>
<time>2020-09-10T12:40:23Z</time>
</trkpt>
<trkpt lat="48.488426" lon="10.365762">
<ele>383.24</ele>
<time>2020-09-10T12:40:24Z</time>
</trkpt>
<trkpt lat="48.488361" lon="10.36574">
<ele>383.24</ele>
<time>2020-09-10T12:40:25Z</time>
</trkpt>
<trkpt lat="48.488297" lon="10.365715">
<ele>383.24</ele>
<time>2020-09-10T12:40:26Z</time>
</trkpt>
<trkpt lat="48.488232" lon="10.365688">
<ele>383.028</ele>
<time>2020-09-10T12:40:27Z</time>
</trkpt>
<trkpt lat="48.488167" lon="10.36566">
<ele>382.829</ele>
<time>2020-09-10T12:40:28Z</time>
</trkpt>
<trkpt lat="48.488106" lon="10.36563">
<ele>382.666</ele>
<time>2020-09-10T12:40:29Z</time>
</trkpt>
<trkpt lat="48.488041" lon="10.365597">
<ele>382.534</ele>
<time>2020-09-10T12:40:30Z</time>
</trkpt>
<trkpt lat="48.48798" lon="10.365563">
<ele>382.433</ele>
<time>2020-09-10T12:40:31Z</time>
</trkpt>
<trkpt lat="48.487915" lon="10.365526">
<ele>382.361</ele>
<time>2020-09-10T12:40:32Z</time>
</trkpt>
<trkpt lat="48.487854" lon="10.365486">
<ele>382.315</ele>
<time>2020-09-10T12:40:33Z</time>
</trkpt>
<trkpt lat="48.487789" lon="10.365448">
<ele>382.292</ele>
<time>2020-09-10T12:40:34Z</time>
</trkpt>
<trkpt lat="48.487732" lon="10.365408">
<ele>382.292</ele>
<time>2020-09-10T12:40:35Z</time>
</trkpt>
<trkpt lat="48.487671" lon="10.365372">
<ele>382.292</ele>
<time>2020-09-10T12:40:36Z</time>
</trkpt>
<trkpt lat="48.487614" lon="10.365336">
<ele>382.292</ele>
<time>2020-09-10T12:40:37Z</time>
</trkpt>
<trkpt lat="48.487556" lon="10.365301">
<ele>382.292</ele>
<time>2020-09-10T12:40:38Z</time>
</trkpt>
<trkpt lat="48.487499" lon="10.365268">
<ele>382.292</ele>
<time>2020-09-10T12:40:39Z</time>
</trkpt>
<trkpt lat="48.487446" lon="10.365232">
<ele>382.292</ele>
<time>2020-09-10T12:40:40Z</time>
</trkpt>
<trkpt lat="48.487392" lon="10.365195">
<ele>382.292</ele>
<time>2020-09-10T12:40:41Z</time>
</trkpt>
<trkpt lat="48.487343" lon="10.365153">
<ele>382.292</ele>
<time>2020-09-10T12:40:42Z</time>
</trkpt>
<trkpt lat="48.487289" lon="10.365113">
<ele>382.292</ele>
<time>2020-09-10T12:40:43Z</time>
</trkpt>
<trkpt lat="48.487236" lon="10.365071">
<ele>382.292</ele>
<time>2020-09-10T12:40:44Z</time>
</trkpt>
<trkpt lat="48.48719" lon="10.365031">
<ele>382.292</ele>
<time>2020-09-10T12:40:45Z</time>
</trkpt>
<trkpt lat="48.487144" lon="10.364995">
<ele>382.517</ele>
<time>2020-09-10T12:40:46Z</time>
</trkpt>
<trkpt lat="48.487103" lon="10.36496">
<ele>382.681</ele>
<time>2020-09-10T12:40:47Z</time>
</trkpt>
<trkpt lat="48.487068" lon="10.364922">
<ele>382.845</ele>
<time>2020-09-10T12:40:48Z</time>
</trkpt>
<trkpt lat="48.487045" lon="10.364886">
<ele>382.977</ele>
<time>2020-09-10T12:40:49Z</time>
</trkpt>
<trkpt lat="48.487022" lon="10.364855">
<ele>383.069</ele>
<time>2020-09-10T12:40:50Z</time>
</trkpt>
<trkpt lat="48.486992" lon="10.364832">
<ele>383.355</ele>
<time>2020-09-10T12:40:51Z</time>
</trkpt>
<trkpt lat="48.486961" lon="10.364825">
<ele>383.594</ele>
<time>2020-09-10T12:40:52Z</time>
</trkpt>
<trkpt lat="48.486923" lon="10.364842">
<ele>383.782</ele>
<time>2020-09-10T12:40:53Z</time>
</trkpt>
<trkpt lat="48.486897" lon="10.364879">
<ele>383.94</ele>
<time>2020-09-10T12:40:54Z</time>
</trkpt>
<trkpt lat="48.486881" lon="10.364935">
<ele>384.275</ele>
<time>2020-09-10T12:40:55Z</time>
</trkpt>
<trkpt lat="48.486874" lon="10.365005">
<ele>384.54</ele>
<time>2020-09-10T12:40:56Z</time>
</trkpt>
<trkpt lat="48.486862" lon="10.365077">
<ele>384.73</ele>
<time>2020-09-10T12:40:57Z</time>
</trkpt>
<trkpt lat="48.486851" lon="10.365145">
<ele>384.898</ele>
<time>2020-09-10T12:40:58Z</time>
</trkpt>
<trkpt lat="48.486828" lon="10.365213">
<ele>385.002</ele>
<time>2020-09-10T12:40:59Z</time>
</trkpt>
<trkpt lat="48.486797" lon="10.365282">
<ele>385.073</ele>
<time>2020-09-10T12:41:00Z</time>
</trkpt>
<trkpt lat="48.486771" lon="10.365348">
<ele>385.115</ele>
<time>2020-09-10T12:41:01Z</time>
</trkpt>
<trkpt lat="48.486752" lon="10.365421">
<ele>385.135</ele>
<time>2020-09-10T12:41:02Z</time>
</trkpt>
<trkpt lat="48.486732" lon="10.365497">
<ele>384.874</ele>
<time>2020-09-10T12:41:03Z</time>
</trkpt>
<trkpt lat="48.48671" lon="10.365574">
<ele>384.678</ele>
<time>2020-09-10T12:41:04Z</time>
</trkpt>
<trkpt lat="48.486694" lon="10.365653">
<ele>384.531</ele>
<time>2020-09-10T12:41:05Z</time>
</trkpt>
<trkpt lat="48.486679" lon="10.365731">
<ele>384.417</ele>
<time>2020-09-10T12:41:06Z</time>
</trkpt>
<trkpt lat="48.486664" lon="10.365808">
<ele>384.342</ele>
<time>2020-09-10T12:41:07Z</time>
</trkpt>
<trkpt lat="48.486645" lon="10.365892">
<ele>384.263</ele>
<time>2020-09-10T12:41:08Z</time>
</trkpt>
<trkpt lat="48.486629" lon="10.365972">
<ele>384.211</ele>
<time>2020-09-10T12:41:09Z</time>
</trkpt>
<trkpt lat="48.486614" lon="10.366052">
<ele>384.187</ele>
<time>2020-09-10T12:41:10Z</time>
</trkpt>
<trkpt lat="48.486595" lon="10.366129">
<ele>384.187</ele>
<time>2020-09-10T12:41:11Z</time>
</trkpt>
<trkpt lat="48.486572" lon="10.366202">
<ele>384.187</ele>
<time>2020-09-10T12:41:12Z</time>
</trkpt>
<trkpt lat="48.486553" lon="10.366275">
<ele>384.187</ele>
<time>2020-09-10T12:41:13Z</time>
</trkpt>
<trkpt lat="48.486526" lon="10.366343">
<ele>383.925</ele>
<time>2020-09-10T12:41:14Z</time>
</trkpt>
<trkpt lat="48.486488" lon="10.3664">
<ele>383.719</ele>
<time>2020-09-10T12:41:15Z</time>
</trkpt>
<trkpt lat="48.486446" lon="10.36644">
<ele>383.559</ele>
<time>2020-09-10T12:41:16Z</time>
</trkpt>
<trkpt lat="48.486404" lon="10.366462">
<ele>383.445</ele>
<time>2020-09-10T12:41:17Z</time>
</trkpt>
<trkpt lat="48.486351" lon="10.366468">
<ele>383.325</ele>
<time>2020-09-10T12:41:18Z</time>
</trkpt>
<trkpt lat="48.486305" lon="10.36647">
<ele>383.237</ele>
<time>2020-09-10T12:41:19Z</time>
</trkpt>
<trkpt lat="48.486256" lon="10.36647">
<ele>383.18</ele>
<time>2020-09-10T12:41:20Z</time>
</trkpt>
<trkpt lat="48.486206" lon="10.366467">
<ele>383.153</ele>
<time>2020-09-10T12:41:21Z</time>
</trkpt>
<trkpt lat="48.486153" lon="10.366456">
<ele>383.153</ele>
<time>2020-09-10T12:41:22Z</time>
</trkpt>
<trkpt lat="48.486107" lon="10.366446">
<ele>383.153</ele>
<time>2020-09-10T12:41:23Z</time>
</trkpt>
<trkpt lat="48.486053" lon="10.366428">
<ele>383.153</ele>
<time>2020-09-10T12:41:24Z</time>
</trkpt>
<trkpt lat="48.486004" lon="10.36641">
<ele>383.153</ele>
<time>2020-09-10T12:41:25Z</time>
</trkpt>
<trkpt lat="48.48595" lon="10.366388">
<ele>383.153</ele>
<time>2020-09-10T12:41:26Z</time>
</trkpt>
<trkpt lat="48.485901" lon="10.366366">
<ele>383.153</ele>
<time>2020-09-10T12:41:27Z</time>
</trkpt>
<trkpt lat="48.485851" lon="10.366343">
<ele>383.153</ele>
<time>2020-09-10T12:41:28Z</time>
</trkpt>
<trkpt lat="48.485802" lon="10.366318">
<ele>383.153</ele>
<time>2020-09-10T12:41:29Z</time>
</trkpt>
<trkpt lat="48.485752" lon="10.36629">
<ele>383.153</ele>
<time>2020-09-10T12:41:30Z</time>
</trkpt>
<trkpt lat="48.485703" lon="10.366261">
<ele>383.153</ele>
<time>2020-09-10T12:41:31Z</time>
</trkpt>
<trkpt lat="48.485653" lon="10.366234">
<ele>383.153</ele>
<time>2020-09-10T12:41:32Z</time>
</trkpt>
<trkpt lat="48.485596" lon="10.366208">
<ele>383.153</ele>
<time>2020-09-10T12:41:33Z</time>
</trkpt>
<trkpt lat="48.485546" lon="10.366185">
<ele>383.153</ele>
<time>2020-09-10T12:41:34Z</time>
</trkpt>
<trkpt lat="48.485493" lon="10.366165">
<ele>383.153</ele>
<time>2020-09-10T12:41:35Z</time>
</trkpt>
<trkpt lat="48.485435" lon="10.366145">
<ele>383.153</ele>
<time>2020-09-10T12:41:36Z</time>
</trkpt>
<trkpt lat="48.485382" lon="10.36613">
<ele>383.153</ele>
<time>2020-09-10T12:41:37Z</time>
</trkpt>
<trkpt lat="48.485329" lon="10.366114">
<ele>383.153</ele>
<time>2020-09-10T12:41:38Z</time>
</trkpt>
<trkpt lat="48.485275" lon="10.366097">
<ele>383.153</ele>
<time>2020-09-10T12:41:39Z</time>
</trkpt>
<trkpt lat="48.485222" lon="10.366076">
<ele>383.429</ele>
<time>2020-09-10T12:41:40Z</time>
</trkpt>
<trkpt lat="48.485168" lon="10.366058">
<ele>383.64</ele>
<time>2020-09-10T12:41:41Z</time>
</trkpt>
<trkpt lat="48.485111" lon="10.366041">
<ele>383.8</ele>
<time>2020-09-10T12:41:42Z</time>
</trkpt>
<trkpt lat="48.485058" lon="10.366025">
<ele>383.922</ele>
<time>2020-09-10T12:41:43Z</time>
</trkpt>
<trkpt lat="48.485001" lon="10.36601">
<ele>384.004</ele>
<time>2020-09-10T12:41:44Z</time>
</trkpt>
<trkpt lat="48.48494" lon="10.365998">
<ele>384.055</ele>
<time>2020-09-10T12:41:45Z</time>
</trkpt>
<trkpt lat="48.484882" lon="10.365985">
<ele>384.079</ele>
<time>2020-09-10T12:41:46Z</time>
</trkpt>
<trkpt lat="48.484829" lon="10.365973">
<ele>384.101</ele>
<time>2020-09-10T12:41:47Z</time>
</trkpt>
<trkpt lat="48.484776" lon="10.365958">
<ele>384.101</ele>
<time>2020-09-10T12:41:48Z</time>
</trkpt>
<trkpt lat="48.484722" lon="10.365945">
<ele>384.101</ele>
<time>2020-09-10T12:41:49Z</time>
</trkpt>
<trkpt lat="48.484669" lon="10.36593">
<ele>384.101</ele>
<time>2020-09-10T12:41:50Z</time>
</trkpt>
<trkpt lat="48.484615" lon="10.365913">
<ele>384.101</ele>
<time>2020-09-10T12:41:51Z</time>
</trkpt>
<trkpt lat="48.484566" lon="10.365893">
<ele>384.101</ele>
<time>2020-09-10T12:41:52Z</time>
</trkpt>
<trkpt lat="48.484516" lon="10.365871">
<ele>384.101</ele>
<time>2020-09-10T12:41:53Z</time>
</trkpt>
<trkpt lat="48.484463" lon="10.365852">
<ele>384.101</ele>
<time>2020-09-10T12:41:54Z</time>
</trkpt>
<trkpt lat="48.484413" lon="10.365838">
<ele>384.101</ele>
<time>2020-09-10T12:41:55Z</time>
</trkpt>
<trkpt lat="48.48436" lon="10.365827">
<ele>384.101</ele>
<time>2020-09-10T12:41:56Z</time>
</trkpt>
<trkpt lat="48.484306" lon="10.365823">
<ele>384.101</ele>
<time>2020-09-10T12:41:57Z</time>
</trkpt>
<trkpt lat="48.484257" lon="10.365836">
<ele>384.101</ele>
<time>2020-09-10T12:41:58Z</time>
</trkpt>
<trkpt lat="48.484207" lon="10.365865">
<ele>384.101</ele>
<time>2020-09-10T12:41:59Z</time>
</trkpt>
<trkpt lat="48.484158" lon="10.3659">
<ele>384.101</ele>
<time>2020-09-10T12:42:00Z</time>
</trkpt>
<trkpt lat="48.484108" lon="10.36594">
<ele>384.101</ele>
<time>2020-09-10T12:42:01Z</time>
</trkpt>
<trkpt lat="48.484058" lon="10.365978">
<ele>384.101</ele>
<time>2020-09-10T12:42:02Z</time>
</trkpt>
<trkpt lat="48.484009" lon="10.366014">
<ele>384.101</ele>
<time>2020-09-10T12:42:03Z</time>
</trkpt>
<trkpt lat="48.483959" lon="10.366038">
<ele>384.101</ele>
<time>2020-09-10T12:42:04Z</time>
</trkpt>
<trkpt lat="48.483906" lon="10.366056">
<ele>384.101</ele>
<time>2020-09-10T12:42:05Z</time>
</trkpt>
<trkpt lat="48.48386" lon="10.366066">
<ele>384.101</ele>
<time>2020-09-10T12:42:06Z</time>
</trkpt>
<trkpt lat="48.483822" lon="10.366062">
<ele>384.101</ele>
<time>2020-09-10T12:42:07Z</time>
</trkpt>
<trkpt lat="48.483784" lon="10.366032">
<ele>384.101</ele>
<time>2020-09-10T12:42:08Z</time>
</trkpt>
<trkpt lat="48.483757" lon="10.365982">
<ele>384.101</ele>
<time>2020-09-10T12:42:09Z</time>
</trkpt>
<trkpt lat="48.483734" lon="10.365922">
<ele>384.101</ele>
<time>2020-09-10T12:42:10Z</time>
</trkpt>
<trkpt lat="48.483715" lon="10.365858">
<ele>384.101</ele>
<time>2020-09-10T12:42:11Z</time>
</trkpt>
<trkpt lat="48.4837" lon="10.365791">
<ele>384.101</ele>
<time>2020-09-10T12:42:12Z</time>
</trkpt>
<trkpt lat="48.483677" lon="10.365725">
<ele>384.101</ele>
<time>2020-09-10T12:42:13Z</time>
</trkpt>
<trkpt lat="48.483654" lon="10.365658">
<ele>384.101</ele>
<time>2020-09-10T12:42:14Z</time>
</trkpt>
<trkpt lat="48.483631" lon="10.365592">
<ele>384.101</ele>
<time>2020-09-10T12:42:15Z</time>
</trkpt>
<trkpt lat="48.483604" lon="10.365525">
<ele>384.101</ele>
<time>2020-09-10T12:42:16Z</time>
</trkpt>
<trkpt lat="48.483582" lon="10.365458">
<ele>384.101</ele>
<time>2020-09-10T12:42:17Z</time>
</trkpt>
<trkpt lat="48.483559" lon="10.365394">
<ele>384.101</ele>
<time>2020-09-10T12:42:18Z</time>
</trkpt>
<trkpt lat="48.483532" lon="10.365334">
<ele>384.101</ele>
<time>2020-09-10T12:42:19Z</time>
</trkpt>
<trkpt lat="48.483498" lon="10.365291">
<ele>384.101</ele>
<time>2020-09-10T12:42:20Z</time>
</trkpt>
<trkpt lat="48.483456" lon="10.365257">
<ele>384.101</ele>
<time>2020-09-10T12:42:21Z</time>
</trkpt>
<trkpt lat="48.48341" lon="10.365245">
<ele>384.101</ele>
<time>2020-09-10T12:42:22Z</time>
</trkpt>
<trkpt lat="48.483356" lon="10.365247">
<ele>384.101</ele>
<time>2020-09-10T12:42:23Z</time>
</trkpt>
<trkpt lat="48.483311" lon="10.365262">
<ele>384.101</ele>
<time>2020-09-10T12:42:24Z</time>
</trkpt>
<trkpt lat="48.483261" lon="10.365276">
<ele>384.101</ele>
<time>2020-09-10T12:42:25Z</time>
</trkpt>
<trkpt lat="48.483212" lon="10.365291">
<ele>384.101</ele>
<time>2020-09-10T12:42:26Z</time>
</trkpt>
<trkpt lat="48.483158" lon="10.365301">
<ele>384.101</ele>
<time>2020-09-10T12:42:27Z</time>
</trkpt>
<trkpt lat="48.483112" lon="10.365312">
<ele>384.101</ele>
<time>2020-09-10T12:42:28Z</time>
</trkpt>
<trkpt lat="48.483059" lon="10.365322">
<ele>384.101</ele>
<time>2020-09-10T12:42:29Z</time>
</trkpt>
<trkpt lat="48.483006" lon="10.365331">
<ele>384.101</ele>
<time>2020-09-10T12:42:30Z</time>
</trkpt>
<trkpt lat="48.482952" lon="10.365336">
<ele>384.101</ele>
<time>2020-09-10T12:42:31Z</time>
</trkpt>
<trkpt lat="48.482903" lon="10.365345">
<ele>384.101</ele>
<time>2020-09-10T12:42:32Z</time>
</trkpt>
<trkpt lat="48.482853" lon="10.36535">
<ele>384.101</ele>
<time>2020-09-10T12:42:33Z</time>
</trkpt>
<trkpt lat="48.4828" lon="10.365347">
<ele>384.101</ele>
<time>2020-09-10T12:42:34Z</time>
</trkpt>
<trkpt lat="48.482754" lon="10.365332">
<ele>384.101</ele>
<time>2020-09-10T12:42:35Z</time>
</trkpt>
<trkpt lat="48.482704" lon="10.365308">
<ele>384.101</ele>
<time>2020-09-10T12:42:36Z</time>
</trkpt>
<trkpt lat="48.482658" lon="10.365276">
<ele>384.101</ele>
<time>2020-09-10T12:42:37Z</time>
</trkpt>
<trkpt lat="48.48262" lon="10.365236">
<ele>384.101</ele>
<time>2020-09-10T12:42:38Z</time>
</trkpt>
<trkpt lat="48.482578" lon="10.365192">
<ele>384.101</ele>
<time>2020-09-10T12:42:39Z</time>
</trkpt>
<trkpt lat="48.482544" lon="10.36514">
<ele>384.101</ele>
<time>2020-09-10T12:42:40Z</time>
</trkpt>
<trkpt lat="48.482513" lon="10.365082">
<ele>384.101</ele>
<time>2020-09-10T12:42:41Z</time>
</trkpt>
<trkpt lat="48.482491" lon="10.365015">
<ele>384.101</ele>
<time>2020-09-10T12:42:42Z</time>
</trkpt>
<trkpt lat="48.482468" lon="10.364945">
<ele>384.101</ele>
<time>2020-09-10T12:42:43Z</time>
</trkpt>
<trkpt lat="48.482452" lon="10.364872">
<ele>384.101</ele>
<time>2020-09-10T12:42:44Z</time>
</trkpt>
<trkpt lat="48.48243" lon="10.3648">
<ele>384.101</ele>
<time>2020-09-10T12:42:45Z</time>
</trkpt>
<trkpt lat="48.482403" lon="10.364737">
<ele>384.101</ele>
<time>2020-09-10T12:42:46Z</time>
</trkpt>
<trkpt lat="48.482368" lon="10.364683">
<ele>384.101</ele>
<time>2020-09-10T12:42:47Z</time>
</trkpt>
<trkpt lat="48.482327" lon="10.364639">
<ele>384.101</ele>
<time>2020-09-10T12:42:48Z</time>
</trkpt>
<trkpt lat="48.482281" lon="10.36461">
<ele>384.101</ele>
<time>2020-09-10T12:42:49Z</time>
</trkpt>
<trkpt lat="48.482235" lon="10.364592">
<ele>384.101</ele>
<time>2020-09-10T12:42:50Z</time>
</trkpt>
<trkpt lat="48.482182" lon="10.364581">
<ele>384.101</ele>
<time>2020-09-10T12:42:51Z</time>
</trkpt>
<trkpt lat="48.482132" lon="10.364578">
<ele>384.101</ele>
<time>2020-09-10T12:42:52Z</time>
</trkpt>
<trkpt lat="48.482079" lon="10.36458">
<ele>384.101</ele>
<time>2020-09-10T12:42:53Z</time>
</trkpt>
<trkpt lat="48.482029" lon="10.364581">
<ele>384.101</ele>
<time>2020-09-10T12:42:54Z</time>
</trkpt>
<trkpt lat="48.481976" lon="10.364581">
<ele>384.101</ele>
<time>2020-09-10T12:42:55Z</time>
</trkpt>
<trkpt lat="48.481926" lon="10.364583">
<ele>384.101</ele>
<time>2020-09-10T12:42:56Z</time>
</trkpt>
<trkpt lat="48.481876" lon="10.364592">
<ele>384.101</ele>
<time>2020-09-10T12:42:57Z</time>
</trkpt>
<trkpt lat="48.481819" lon="10.364614">
<ele>384.101</ele>
<time>2020-09-10T12:42:58Z</time>
</trkpt>
<trkpt lat="48.481766" lon="10.364648">
<ele>384.365</ele>
<time>2020-09-10T12:42:59Z</time>
</trkpt>
<trkpt lat="48.481716" lon="10.364685">
<ele>384.563</ele>
<time>2020-09-10T12:43:00Z</time>
</trkpt>
<trkpt lat="48.481674" lon="10.364723">
<ele>384.713</ele>
<time>2020-09-10T12:43:01Z</time>
</trkpt>
<trkpt lat="48.481621" lon="10.364758">
<ele>384.821</ele>
<time>2020-09-10T12:43:02Z</time>
</trkpt>
<trkpt lat="48.481575" lon="10.364795">
<ele>384.894</ele>
<time>2020-09-10T12:43:03Z</time>
</trkpt>
<trkpt lat="48.481525" lon="10.364832">
<ele>384.942</ele>
<time>2020-09-10T12:43:04Z</time>
</trkpt>
<trkpt lat="48.481476" lon="10.36487">
<ele>384.963</ele>
<time>2020-09-10T12:43:05Z</time>
</trkpt>
<trkpt lat="48.481426" lon="10.36491">
<ele>384.963</ele>
<time>2020-09-10T12:43:06Z</time>
</trkpt>
<trkpt lat="48.48138" lon="10.364952">
<ele>384.963</ele>
<time>2020-09-10T12:43:07Z</time>
</trkpt>
<trkpt lat="48.481331" lon="10.364989">
<ele>384.963</ele>
<time>2020-09-10T12:43:08Z</time>
</trkpt>
<trkpt lat="48.481281" lon="10.365028">
<ele>384.963</ele>
<time>2020-09-10T12:43:09Z</time>
</trkpt>
<trkpt lat="48.481232" lon="10.365067">
<ele>384.963</ele>
<time>2020-09-10T12:43:10Z</time>
</trkpt>
<trkpt lat="48.481186" lon="10.365105">
<ele>384.963</ele>
<time>2020-09-10T12:43:11Z</time>
</trkpt>
<trkpt lat="48.481136" lon="10.365147">
<ele>384.963</ele>
<time>2020-09-10T12:43:12Z</time>
</trkpt>
<trkpt lat="48.481094" lon="10.365187">
<ele>384.963</ele>
<time>2020-09-10T12:43:13Z</time>
</trkpt>
<trkpt lat="48.481045" lon="10.365229">
<ele>384.963</ele>
<time>2020-09-10T12:43:14Z</time>
</trkpt>
<trkpt lat="48.480995" lon="10.365272">
<ele>384.963</ele>
<time>2020-09-10T12:43:15Z</time>
</trkpt>
<trkpt lat="48.480942" lon="10.365316">
<ele>384.963</ele>
<time>2020-09-10T12:43:16Z</time>
</trkpt>
<trkpt lat="48.480896" lon="10.36536">
<ele>384.963</ele>
<time>2020-09-10T12:43:17Z</time>
</trkpt>
<trkpt lat="48.480843" lon="10.365402">
<ele>384.963</ele>
<time>2020-09-10T12:43:18Z</time>
</trkpt>
<trkpt lat="48.480797" lon="10.365438">
<ele>384.963</ele>
<time>2020-09-10T12:43:19Z</time>
</trkpt>
<trkpt lat="48.480743" lon="10.365475">
<ele>384.963</ele>
<time>2020-09-10T12:43:20Z</time>
</trkpt>
<trkpt lat="48.480698" lon="10.36551">
<ele>384.963</ele>
<time>2020-09-10T12:43:21Z</time>
</trkpt>
<trkpt lat="48.480644" lon="10.365546">
<ele>384.963</ele>
<time>2020-09-10T12:43:22Z</time>
</trkpt>
<trkpt lat="48.480598" lon="10.365582">
<ele>384.963</ele>
<time>2020-09-10T12:43:23Z</time>
</trkpt>
<trkpt lat="48.480549" lon="10.36562">
<ele>384.963</ele>
<time>2020-09-10T12:43:24Z</time>
</trkpt>
<trkpt lat="48.480499" lon="10.365662">
<ele>384.963</ele>
<time>2020-09-10T12:43:25Z</time>
</trkpt>
<trkpt lat="48.480446" lon="10.365708">
<ele>384.963</ele>
<time>2020-09-10T12:43:26Z</time>
</trkpt>
<trkpt lat="48.4804" lon="10.365755">
<ele>384.963</ele>
<time>2020-09-10T12:43:27Z</time>
</trkpt>
<trkpt lat="48.48035" lon="10.365805">
<ele>384.963</ele>
<time>2020-09-10T12:43:28Z</time>
</trkpt>
<trkpt lat="48.480305" lon="10.365857">
<ele>384.963</ele>
<time>2020-09-10T12:43:29Z</time>
</trkpt>
<trkpt lat="48.480255" lon="10.365911">
<ele>384.963</ele>
<time>2020-09-10T12:43:30Z</time>
</trkpt>
<trkpt lat="48.480213" lon="10.365968">
<ele>384.963</ele>
<time>2020-09-10T12:43:31Z</time>
</trkpt>
<trkpt lat="48.480164" lon="10.366027">
<ele>384.963</ele>
<time>2020-09-10T12:43:32Z</time>
</trkpt>
<trkpt lat="48.480122" lon="10.366085">
<ele>384.963</ele>
<time>2020-09-10T12:43:33Z</time>
</trkpt>
<trkpt lat="48.480083" lon="10.366143">
<ele>384.963</ele>
<time>2020-09-10T12:43:34Z</time>
</trkpt>
<trkpt lat="48.480038" lon="10.366202">
<ele>384.963</ele>
<time>2020-09-10T12:43:35Z</time>
</trkpt>
<trkpt lat="48.48" lon="10.366261">
<ele>384.963</ele>
<time>2020-09-10T12:43:36Z</time>
</trkpt>
<trkpt lat="48.479961" lon="10.366323">
<ele>384.963</ele>
<time>2020-09-10T12:43:37Z</time>
</trkpt>
<trkpt lat="48.479923" lon="10.366385">
<ele>384.963</ele>
<time>2020-09-10T12:43:38Z</time>
</trkpt>
<trkpt lat="48.479889" lon="10.366446">
<ele>384.963</ele>
<time>2020-09-10T12:43:39Z</time>
</trkpt>
<trkpt lat="48.479855" lon="10.366502">
<ele>384.963</ele>
<time>2020-09-10T12:43:40Z</time>
</trkpt>
<trkpt lat="48.47982" lon="10.366554">
<ele>384.963</ele>
<time>2020-09-10T12:43:41Z</time>
</trkpt>
<trkpt lat="48.479797" lon="10.3666">
<ele>384.963</ele>
<time>2020-09-10T12:43:42Z</time>
</trkpt>
<trkpt lat="48.479778" lon="10.36664">
<ele>384.963</ele>
<time>2020-09-10T12:43:43Z</time>
</trkpt>
<trkpt lat="48.479759" lon="10.36667">
<ele>384.963</ele>
<time>2020-09-10T12:43:44Z</time>
</trkpt>
<trkpt lat="48.479748" lon="10.366693">
<ele>384.963</ele>
<time>2020-09-10T12:43:45Z</time>
</trkpt>
<trkpt lat="48.479733" lon="10.366712">
<ele>384.963</ele>
<time>2020-09-10T12:43:46Z</time>
</trkpt>
<trkpt lat="48.479725" lon="10.36673">
<ele>384.963</ele>
<time>2020-09-10T12:43:47Z</time>
</trkpt>
<trkpt lat="48.47971" lon="10.366745">
<ele>384.963</ele>
<time>2020-09-10T12:43:48Z</time>
</trkpt>
<trkpt lat="48.479694" lon="10.36676">
<ele>384.963</ele>
<time>2020-09-10T12:43:49Z</time>
</trkpt>
<trkpt lat="48.479679" lon="10.366768">
<ele>384.963</ele>
<time>2020-09-10T12:43:50Z</time>
</trkpt>
<trkpt lat="48.479668" lon="10.36678">
<ele>384.963</ele>
<time>2020-09-10T12:43:51Z</time>
</trkpt>
<trkpt lat="48.47966" lon="10.366799">
<ele>384.963</ele>
<time>2020-09-10T12:43:52Z</time>
</trkpt>
<trkpt lat="48.479641" lon="10.366825">
<ele>384.963</ele>
<time>2020-09-10T12:43:53Z</time>
</trkpt>
<trkpt lat="48.479626" lon="10.366863">
<ele>384.963</ele>
<time>2020-09-10T12:43:54Z</time>
</trkpt>
<trkpt lat="48.479622" lon="10.366919">
<ele>384.963</ele>
<time>2020-09-10T12:43:55Z</time>
</trkpt>
<trkpt lat="48.479626" lon="10.366977">
<ele>384.963</ele>
<time>2020-09-10T12:43:56Z</time>
</trkpt>
<trkpt lat="48.479633" lon="10.367028">
<ele>384.963</ele>
<time>2020-09-10T12:43:57Z</time>
</trkpt>
<trkpt lat="48.479645" lon="10.367084">
<ele>384.963</ele>
<time>2020-09-10T12:43:58Z</time>
</trkpt>
<trkpt lat="48.479656" lon="10.367141">
<ele>384.963</ele>
<time>2020-09-10T12:43:59Z</time>
</trkpt>
<trkpt lat="48.479664" lon="10.3672">
<ele>384.963</ele>
<time>2020-09-10T12:44:00Z</time>
</trkpt>
<trkpt lat="48.479675" lon="10.367263">
<ele>384.963</ele>
<time>2020-09-10T12:44:01Z</time>
</trkpt>
<trkpt lat="48.479687" lon="10.36733">
<ele>384.963</ele>
<time>2020-09-10T12:44:02Z</time>
</trkpt>
<trkpt lat="48.479698" lon="10.367396">
<ele>384.963</ele>
<time>2020-09-10T12:44:03Z</time>
</trkpt>
<trkpt lat="48.479713" lon="10.367465">
<ele>384.963</ele>
<time>2020-09-10T12:44:04Z</time>
</trkpt>
<trkpt lat="48.479729" lon="10.367533">
<ele>384.963</ele>
<time>2020-09-10T12:44:05Z</time>
</trkpt>
<trkpt lat="48.479744" lon="10.367605">
<ele>384.963</ele>
<time>2020-09-10T12:44:06Z</time>
</trkpt>
<trkpt lat="48.479755" lon="10.367675">
<ele>385.182</ele>
<time>2020-09-10T12:44:07Z</time>
</trkpt>
<trkpt lat="48.479774" lon="10.367748">
<ele>385.385</ele>
<time>2020-09-10T12:44:08Z</time>
</trkpt>
<trkpt lat="48.47979" lon="10.36782">
<ele>385.547</ele>
<time>2020-09-10T12:44:09Z</time>
</trkpt>
<trkpt lat="48.479809" lon="10.36789">
<ele>385.675</ele>
<time>2020-09-10T12:44:10Z</time>
</trkpt>
<trkpt lat="48.47982" lon="10.36796">
<ele>385.773</ele>
<time>2020-09-10T12:44:11Z</time>
</trkpt>
<trkpt lat="48.479839" lon="10.368032">
<ele>385.844</ele>
<time>2020-09-10T12:44:12Z</time>
</trkpt>
<trkpt lat="48.479855" lon="10.368105">
<ele>385.889</ele>
<time>2020-09-10T12:44:13Z</time>
</trkpt>
<trkpt lat="48.479874" lon="10.368178">
<ele>385.911</ele>
<time>2020-09-10T12:44:14Z</time>
</trkpt>
<trkpt lat="48.479889" lon="10.368254">
<ele>385.911</ele>
<time>2020-09-10T12:44:15Z</time>
</trkpt>
<trkpt lat="48.479908" lon="10.368329">
<ele>386.144</ele>
<time>2020-09-10T12:44:16Z</time>
</trkpt>
<trkpt lat="48.479927" lon="10.368406">
<ele>386.309</ele>
<time>2020-09-10T12:44:17Z</time>
</trkpt>
<trkpt lat="48.479942" lon="10.368482">
<ele>386.48</ele>
<time>2020-09-10T12:44:18Z</time>
</trkpt>
<trkpt lat="48.479958" lon="10.36856">
<ele>386.615</ele>
<time>2020-09-10T12:44:19Z</time>
</trkpt>
<trkpt lat="48.479973" lon="10.368639">
<ele>386.669</ele>
<time>2020-09-10T12:44:20Z</time>
</trkpt>
<trkpt lat="48.479988" lon="10.368722">
<ele>386.498</ele>
<time>2020-09-10T12:44:21Z</time>
</trkpt>
<trkpt lat="48.480007" lon="10.368803">
<ele>386.352</ele>
<time>2020-09-10T12:44:22Z</time>
</trkpt>
<trkpt lat="48.480022" lon="10.368888">
<ele>386.221</ele>
<time>2020-09-10T12:44:23Z</time>
</trkpt>
<trkpt lat="48.480045" lon="10.368975">
<ele>386.105</ele>
<time>2020-09-10T12:44:24Z</time>
</trkpt>
<trkpt lat="48.480061" lon="10.369061">
<ele>386.026</ele>
<time>2020-09-10T12:44:25Z</time>
</trkpt>
<trkpt lat="48.48008" lon="10.36915">
<ele>385.975</ele>
<time>2020-09-10T12:44:26Z</time>
</trkpt>
<trkpt lat="48.480091" lon="10.369242">
<ele>385.936</ele>
<time>2020-09-10T12:44:27Z</time>
</trkpt>
<trkpt lat="48.48011" lon="10.369333">
<ele>385.911</ele>
<time>2020-09-10T12:44:28Z</time>
</trkpt>
<trkpt lat="48.480125" lon="10.369423">
<ele>385.911</ele>
<time>2020-09-10T12:44:29Z</time>
</trkpt>
<trkpt lat="48.480145" lon="10.369513">
<ele>385.607</ele>
<time>2020-09-10T12:44:30Z</time>
</trkpt>
<trkpt lat="48.480156" lon="10.369605">
<ele>385.376</ele>
<time>2020-09-10T12:44:31Z</time>
</trkpt>
<trkpt lat="48.480167" lon="10.369693">
<ele>385.199</ele>
<time>2020-09-10T12:44:32Z</time>
</trkpt>
<trkpt lat="48.480179" lon="10.369785">
<ele>385.071</ele>
<time>2020-09-10T12:44:33Z</time>
</trkpt>
<trkpt lat="48.480194" lon="10.369875">
<ele>384.983</ele>
<time>2020-09-10T12:44:34Z</time>
</trkpt>
<trkpt lat="48.480206" lon="10.369965">
<ele>384.932</ele>
<time>2020-09-10T12:44:35Z</time>
</trkpt>
<trkpt lat="48.480217" lon="10.370053">
<ele>384.902</ele>
<time>2020-09-10T12:44:36Z</time>
</trkpt>
<trkpt lat="48.480228" lon="10.370143">
<ele>384.877</ele>
<time>2020-09-10T12:44:37Z</time>
</trkpt>
<trkpt lat="48.480244" lon="10.370234">
<ele>384.877</ele>
<time>2020-09-10T12:44:38Z</time>
</trkpt>
<trkpt lat="48.480255" lon="10.370321">
<ele>384.877</ele>
<time>2020-09-10T12:44:39Z</time>
</trkpt>
<trkpt lat="48.48027" lon="10.370409">
<ele>384.877</ele>
<time>2020-09-10T12:44:40Z</time>
</trkpt>
<trkpt lat="48.480282" lon="10.370495">
<ele>384.877</ele>
<time>2020-09-10T12:44:41Z</time>
</trkpt>
<trkpt lat="48.480293" lon="10.370582">
<ele>384.877</ele>
<time>2020-09-10T12:44:42Z</time>
</trkpt>
<trkpt lat="48.480305" lon="10.370668">
<ele>384.877</ele>
<time>2020-09-10T12:44:43Z</time>
</trkpt>
<trkpt lat="48.480316" lon="10.370753">
<ele>384.877</ele>
<time>2020-09-10T12:44:44Z</time>
</trkpt>
<trkpt lat="48.480328" lon="10.370841">
<ele>384.877</ele>
<time>2020-09-10T12:44:45Z</time>
</trkpt>
<trkpt lat="48.480343" lon="10.370929">
<ele>384.877</ele>
<time>2020-09-10T12:44:46Z</time>
</trkpt>
<trkpt lat="48.480354" lon="10.371015">
<ele>384.877</ele>
<time>2020-09-10T12:44:47Z</time>
</trkpt>
<trkpt lat="48.480373" lon="10.371101">
<ele>384.877</ele>
<time>2020-09-10T12:44:48Z</time>
</trkpt>
<trkpt lat="48.480389" lon="10.37119">
<ele>384.877</ele>
<time>2020-09-10T12:44:49Z</time>
</trkpt>
<trkpt lat="48.480408" lon="10.371277">
<ele>384.877</ele>
<time>2020-09-10T12:44:50Z</time>
</trkpt>
<trkpt lat="48.480431" lon="10.371363">
<ele>384.877</ele>
<time>2020-09-10T12:44:51Z</time>
</trkpt>
<trkpt lat="48.480457" lon="10.371449">
<ele>384.877</ele>
<time>2020-09-10T12:44:52Z</time>
</trkpt>
<trkpt lat="48.480484" lon="10.371531">
<ele>384.877</ele>
<time>2020-09-10T12:44:53Z</time>
</trkpt>
<trkpt lat="48.480515" lon="10.371614">
<ele>384.877</ele>
<time>2020-09-10T12:44:54Z</time>
</trkpt>
<trkpt lat="48.480545" lon="10.371696">
<ele>384.877</ele>
<time>2020-09-10T12:44:55Z</time>
</trkpt>
<trkpt lat="48.480576" lon="10.371774">
<ele>384.877</ele>
<time>2020-09-10T12:44:56Z</time>
</trkpt>
<trkpt lat="48.48061" lon="10.371853">
<ele>384.877</ele>
<time>2020-09-10T12:44:57Z</time>
</trkpt>
<trkpt lat="48.48064" lon="10.371932">
<ele>384.877</ele>
<time>2020-09-10T12:44:58Z</time>
</trkpt>
<trkpt lat="48.480679" lon="10.372008">
<ele>384.877</ele>
<time>2020-09-10T12:44:59Z</time>
</trkpt>
<trkpt lat="48.480713" lon="10.372086">
<ele>384.877</ele>
<time>2020-09-10T12:45:00Z</time>
</trkpt>
<trkpt lat="48.480751" lon="10.372161">
<ele>384.877</ele>
<time>2020-09-10T12:45:01Z</time>
</trkpt>
<trkpt lat="48.480782" lon="10.372238">
<ele>384.877</ele>
<time>2020-09-10T12:45:02Z</time>
</trkpt>
<trkpt lat="48.48082" lon="10.372315">
<ele>384.877</ele>
<time>2020-09-10T12:45:03Z</time>
</trkpt>
<trkpt lat="48.480854" lon="10.372392">
<ele>384.655</ele>
<time>2020-09-10T12:45:04Z</time>
</trkpt>
<trkpt lat="48.480888" lon="10.372467">
<ele>384.481</ele>
<time>2020-09-10T12:45:05Z</time>
</trkpt>
<trkpt lat="48.480923" lon="10.372543">
<ele>384.347</ele>
<time>2020-09-10T12:45:06Z</time>
</trkpt>
<trkpt lat="48.480953" lon="10.372618">
<ele>384.255</ele>
<time>2020-09-10T12:45:07Z</time>
</trkpt>
<trkpt lat="48.480984" lon="10.372697">
<ele>384.156</ele>
<time>2020-09-10T12:45:08Z</time>
</trkpt>
<trkpt lat="48.48101" lon="10.372775">
<ele>384.083</ele>
<time>2020-09-10T12:45:09Z</time>
</trkpt>
<trkpt lat="48.481037" lon="10.372854">
<ele>384.037</ele>
<time>2020-09-10T12:45:10Z</time>
</trkpt>
<trkpt lat="48.48106" lon="10.372935">
<ele>384.015</ele>
<time>2020-09-10T12:45:11Z</time>
</trkpt>
<trkpt lat="48.481087" lon="10.373015">
<ele>384.246</ele>
<time>2020-09-10T12:45:12Z</time>
</trkpt>
<trkpt lat="48.481106" lon="10.373097">
<ele>384.431</ele>
<time>2020-09-10T12:45:13Z</time>
</trkpt>
<trkpt lat="48.481125" lon="10.373179">
<ele>384.569</ele>
<time>2020-09-10T12:45:14Z</time>
</trkpt>
<trkpt lat="48.481144" lon="10.373261">
<ele>384.674</ele>
<time>2020-09-10T12:45:15Z</time>
</trkpt>
<trkpt lat="48.481159" lon="10.373344">
<ele>384.749</ele>
<time>2020-09-10T12:45:16Z</time>
</trkpt>
<trkpt lat="48.481174" lon="10.373426">
<ele>384.804</ele>
<time>2020-09-10T12:45:17Z</time>
</trkpt>
<trkpt lat="48.48119" lon="10.37351">
<ele>384.853</ele>
<time>2020-09-10T12:45:18Z</time>
</trkpt>
<trkpt lat="48.481194" lon="10.373591">
<ele>384.877</ele>
<time>2020-09-10T12:45:19Z</time>
</trkpt>
<trkpt lat="48.481209" lon="10.373677">
<ele>384.877</ele>
<time>2020-09-10T12:45:20Z</time>
</trkpt>
<trkpt lat="48.481224" lon="10.373759">
<ele>384.877</ele>
<time>2020-09-10T12:45:21Z</time>
</trkpt>
<trkpt lat="48.481236" lon="10.373845">
<ele>384.877</ele>
<time>2020-09-10T12:45:22Z</time>
</trkpt>
<trkpt lat="48.481251" lon="10.37393">
<ele>384.877</ele>
<time>2020-09-10T12:45:23Z</time>
</trkpt>
<trkpt lat="48.481262" lon="10.374015">
<ele>384.877</ele>
<time>2020-09-10T12:45:24Z</time>
</trkpt>
<trkpt lat="48.481281" lon="10.374101">
<ele>384.877</ele>
<time>2020-09-10T12:45:25Z</time>
</trkpt>
<trkpt lat="48.481293" lon="10.374185">
<ele>384.877</ele>
<time>2020-09-10T12:45:26Z</time>
</trkpt>
<trkpt lat="48.481316" lon="10.374269">
<ele>384.877</ele>
<time>2020-09-10T12:45:27Z</time>
</trkpt>
<trkpt lat="48.481331" lon="10.374349">
<ele>384.877</ele>
<time>2020-09-10T12:45:28Z</time>
</trkpt>
<trkpt lat="48.481354" lon="10.374428">
<ele>384.877</ele>
<time>2020-09-10T12:45:29Z</time>
</trkpt>
<trkpt lat="48.481377" lon="10.374508">
<ele>384.877</ele>
<time>2020-09-10T12:45:30Z</time>
</trkpt>
<trkpt lat="48.481403" lon="10.37459">
<ele>384.877</ele>
<time>2020-09-10T12:45:31Z</time>
</trkpt>
<trkpt lat="48.48143" lon="10.37467">
<ele>384.877</ele>
<time>2020-09-10T12:45:32Z</time>
</trkpt>
<trkpt lat="48.481461" lon="10.37475">
<ele>384.877</ele>
<time>2020-09-10T12:45:33Z</time>
</trkpt>
<trkpt lat="48.481491" lon="10.374832">
<ele>384.877</ele>
<time>2020-09-10T12:45:34Z</time>
</trkpt>
<trkpt lat="48.481529" lon="10.374907">
<ele>384.877</ele>
<time>2020-09-10T12:45:35Z</time>
</trkpt>
<trkpt lat="48.481567" lon="10.374987">
<ele>384.877</ele>
<time>2020-09-10T12:45:36Z</time>
</trkpt>
<trkpt lat="48.481609" lon="10.375065">
<ele>384.877</ele>
<time>2020-09-10T12:45:37Z</time>
</trkpt>
<trkpt lat="48.481651" lon="10.375147">
<ele>384.661</ele>
<time>2020-09-10T12:45:38Z</time>
</trkpt>
<trkpt lat="48.481701" lon="10.375228">
<ele>384.511</ele>
<time>2020-09-10T12:45:39Z</time>
</trkpt>
<trkpt lat="48.48175" lon="10.37531">
<ele>384.07</ele>
<time>2020-09-10T12:45:40Z</time>
</trkpt>
<trkpt lat="48.481808" lon="10.375387">
<ele>383.713</ele>
<time>2020-09-10T12:45:41Z</time>
</trkpt>
<trkpt lat="48.481861" lon="10.375463">
<ele>383.484</ele>
<time>2020-09-10T12:45:42Z</time>
</trkpt>
<trkpt lat="48.481915" lon="10.375535">
<ele>383.032</ele>
<time>2020-09-10T12:45:43Z</time>
</trkpt>
<trkpt lat="48.481976" lon="10.375611">
<ele>382.688</ele>
<time>2020-09-10T12:45:44Z</time>
</trkpt>
<trkpt lat="48.48204" lon="10.375683">
<ele>382.437</ele>
<time>2020-09-10T12:45:45Z</time>
</trkpt>
<trkpt lat="48.482094" lon="10.375756">
<ele>382.271</ele>
<time>2020-09-10T12:45:46Z</time>
</trkpt>
<trkpt lat="48.482136" lon="10.375835">
<ele>382.175</ele>
<time>2020-09-10T12:45:47Z</time>
</trkpt>
<trkpt lat="48.482182" lon="10.375895">
<ele>382.104</ele>
<time>2020-09-10T12:45:48Z</time>
</trkpt>
<trkpt lat="48.482235" lon="10.375957">
<ele>382.056</ele>
<time>2020-09-10T12:45:49Z</time>
</trkpt>
<trkpt lat="48.482292" lon="10.376016">
<ele>382.033</ele>
<time>2020-09-10T12:45:50Z</time>
</trkpt>
<trkpt lat="48.482346" lon="10.37607">
<ele>382.033</ele>
<time>2020-09-10T12:45:51Z</time>
</trkpt>
<trkpt lat="48.482399" lon="10.376128">
<ele>382.033</ele>
<time>2020-09-10T12:45:52Z</time>
</trkpt>
<trkpt lat="48.48246" lon="10.376184">
<ele>382.033</ele>
<time>2020-09-10T12:45:53Z</time>
</trkpt>
<trkpt lat="48.482517" lon="10.376235">
<ele>382.033</ele>
<time>2020-09-10T12:45:54Z</time>
</trkpt>
<trkpt lat="48.482567" lon="10.376285">
<ele>382.231</ele>
<time>2020-09-10T12:45:55Z</time>
</trkpt>
<trkpt lat="48.48262" lon="10.376334">
<ele>382.636</ele>
<time>2020-09-10T12:45:56Z</time>
</trkpt>
<trkpt lat="48.482662" lon="10.376387">
<ele>382.927</ele>
<time>2020-09-10T12:45:57Z</time>
</trkpt>
<trkpt lat="48.482716" lon="10.376439">
<ele>383.213</ele>
<time>2020-09-10T12:45:58Z</time>
</trkpt>
<trkpt lat="48.482765" lon="10.376487">
<ele>383.425</ele>
<time>2020-09-10T12:45:59Z</time>
</trkpt>
<trkpt lat="48.482815" lon="10.376537">
<ele>383.833</ele>
<time>2020-09-10T12:46:00Z</time>
</trkpt>
<trkpt lat="48.482861" lon="10.376585">
<ele>384.151</ele>
<time>2020-09-10T12:46:01Z</time>
</trkpt>
<trkpt lat="48.482906" lon="10.376636">
<ele>384.391</ele>
<time>2020-09-10T12:46:02Z</time>
</trkpt>
<trkpt lat="48.482952" lon="10.376683">
<ele>384.549</ele>
<time>2020-09-10T12:46:03Z</time>
</trkpt>
<trkpt lat="48.482998" lon="10.376734">
<ele>384.678</ele>
<time>2020-09-10T12:46:04Z</time>
</trkpt>
<trkpt lat="48.48304" lon="10.376785">
<ele>384.97</ele>
<time>2020-09-10T12:46:05Z</time>
</trkpt>
<trkpt lat="48.483082" lon="10.37684">
<ele>385.182</ele>
<time>2020-09-10T12:46:06Z</time>
</trkpt>
<trkpt lat="48.483116" lon="10.3769">
<ele>385.338</ele>
<time>2020-09-10T12:46:07Z</time>
</trkpt>
<trkpt lat="48.483139" lon="10.376971">
<ele>385.478</ele>
<time>2020-09-10T12:46:08Z</time>
</trkpt>
<trkpt lat="48.483143" lon="10.377048">
<ele>385.586</ele>
<time>2020-09-10T12:46:09Z</time>
</trkpt>
<trkpt lat="48.483131" lon="10.377118">
<ele>385.657</ele>
<time>2020-09-10T12:46:10Z</time>
</trkpt>
<trkpt lat="48.483116" lon="10.377185">
<ele>385.935</ele>
<time>2020-09-10T12:46:11Z</time>
</trkpt>
<trkpt lat="48.483089" lon="10.37725">
<ele>386.152</ele>
<time>2020-09-10T12:46:12Z</time>
</trkpt>
<trkpt lat="48.483067" lon="10.377315">
<ele>386.36</ele>
<time>2020-09-10T12:46:13Z</time>
</trkpt>
<trkpt lat="48.483047" lon="10.377381">
<ele>386.478</ele>
<time>2020-09-10T12:46:14Z</time>
</trkpt>
<trkpt lat="48.483021" lon="10.37745">
<ele>386.563</ele>
<time>2020-09-10T12:46:15Z</time>
</trkpt>
<trkpt lat="48.482994" lon="10.377517">
<ele>386.616</ele>
<time>2020-09-10T12:46:16Z</time>
</trkpt>
<trkpt lat="48.482967" lon="10.377585">
<ele>386.659</ele>
<time>2020-09-10T12:46:17Z</time>
</trkpt>
<trkpt lat="48.482941" lon="10.377654">
<ele>386.686</ele>
<time>2020-09-10T12:46:18Z</time>
</trkpt>
<trkpt lat="48.482914" lon="10.377722">
<ele>386.686</ele>
<time>2020-09-10T12:46:19Z</time>
</trkpt>
<trkpt lat="48.482887" lon="10.377793">
<ele>386.686</ele>
<time>2020-09-10T12:46:20Z</time>
</trkpt>
<trkpt lat="48.482861" lon="10.377868">
<ele>386.686</ele>
<time>2020-09-10T12:46:21Z</time>
</trkpt>
<trkpt lat="48.482834" lon="10.377945">
<ele>386.686</ele>
<time>2020-09-10T12:46:22Z</time>
</trkpt>
<trkpt lat="48.482807" lon="10.378021">
<ele>386.686</ele>
<time>2020-09-10T12:46:23Z</time>
</trkpt>
<trkpt lat="48.482784" lon="10.3781">
<ele>386.686</ele>
<time>2020-09-10T12:46:24Z</time>
</trkpt>
<trkpt lat="48.482758" lon="10.378181">
<ele>386.686</ele>
<time>2020-09-10T12:46:25Z</time>
</trkpt>
<trkpt lat="48.482731" lon="10.378262">
<ele>386.686</ele>
<time>2020-09-10T12:46:26Z</time>
</trkpt>
<trkpt lat="48.482704" lon="10.37834">
<ele>386.472</ele>
<time>2020-09-10T12:46:27Z</time>
</trkpt>
<trkpt lat="48.482677" lon="10.378421">
<ele>386.271</ele>
<time>2020-09-10T12:46:28Z</time>
</trkpt>
<trkpt lat="48.482651" lon="10.378498">
<ele>386.109</ele>
<time>2020-09-10T12:46:29Z</time>
</trkpt>
<trkpt lat="48.482624" lon="10.378576">
<ele>385.979</ele>
<time>2020-09-10T12:46:30Z</time>
</trkpt>
<trkpt lat="48.482594" lon="10.378656">
<ele>385.879</ele>
<time>2020-09-10T12:46:31Z</time>
</trkpt>
<trkpt lat="48.482571" lon="10.378736">
<ele>385.808</ele>
<time>2020-09-10T12:46:32Z</time>
</trkpt>
<trkpt lat="48.48254" lon="10.378815">
<ele>385.761</ele>
<time>2020-09-10T12:46:33Z</time>
</trkpt>
<trkpt lat="48.482517" lon="10.378895">
<ele>385.738</ele>
<time>2020-09-10T12:46:34Z</time>
</trkpt>
<trkpt lat="48.482491" lon="10.378975">
<ele>385.738</ele>
<time>2020-09-10T12:46:35Z</time>
</trkpt>
<trkpt lat="48.482464" lon="10.379053">
<ele>385.738</ele>
<time>2020-09-10T12:46:36Z</time>
</trkpt>
<trkpt lat="48.482433" lon="10.379131">
<ele>385.738</ele>
<time>2020-09-10T12:46:37Z</time>
</trkpt>
<trkpt lat="48.482407" lon="10.379211">
<ele>385.738</ele>
<time>2020-09-10T12:46:38Z</time>
</trkpt>
<trkpt lat="48.48238" lon="10.379292">
<ele>385.738</ele>
<time>2020-09-10T12:46:39Z</time>
</trkpt>
<trkpt lat="48.482357" lon="10.379372">
<ele>385.738</ele>
<time>2020-09-10T12:46:40Z</time>
</trkpt>
<trkpt lat="48.482327" lon="10.379454">
<ele>385.738</ele>
<time>2020-09-10T12:46:41Z</time>
</trkpt>
<trkpt lat="48.4823" lon="10.379534">
<ele>385.738</ele>
<time>2020-09-10T12:46:42Z</time>
</trkpt>
<trkpt lat="48.482269" lon="10.379615">
<ele>385.738</ele>
<time>2020-09-10T12:46:43Z</time>
</trkpt>
<trkpt lat="48.482239" lon="10.379697">
<ele>385.738</ele>
<time>2020-09-10T12:46:44Z</time>
</trkpt>
<trkpt lat="48.482216" lon="10.379779">
<ele>385.738</ele>
<time>2020-09-10T12:46:45Z</time>
</trkpt>
<trkpt lat="48.482185" lon="10.379862">
<ele>385.738</ele>
<time>2020-09-10T12:46:46Z</time>
</trkpt>
<trkpt lat="48.482159" lon="10.379944">
<ele>385.738</ele>
<time>2020-09-10T12:46:47Z</time>
</trkpt>
<trkpt lat="48.482132" lon="10.380024">
<ele>385.738</ele>
<time>2020-09-10T12:46:48Z</time>
</trkpt>
<trkpt lat="48.482101" lon="10.380105">
<ele>385.997</ele>
<time>2020-09-10T12:46:49Z</time>
</trkpt>
<trkpt lat="48.482071" lon="10.380187">
<ele>386.197</ele>
<time>2020-09-10T12:46:50Z</time>
</trkpt>
<trkpt lat="48.482044" lon="10.380268">
<ele>386.344</ele>
<time>2020-09-10T12:46:51Z</time>
</trkpt>
<trkpt lat="48.482018" lon="10.38035">
<ele>386.457</ele>
<time>2020-09-10T12:46:52Z</time>
</trkpt>
<trkpt lat="48.481987" lon="10.380432">
<ele>386.529</ele>
<time>2020-09-10T12:46:53Z</time>
</trkpt>
<trkpt lat="48.48196" lon="10.380513">
<ele>386.576</ele>
<time>2020-09-10T12:46:54Z</time>
</trkpt>
<trkpt lat="48.48193" lon="10.380593">
<ele>386.601</ele>
<time>2020-09-10T12:46:55Z</time>
</trkpt>
<trkpt lat="48.481903" lon="10.380673">
<ele>386.601</ele>
<time>2020-09-10T12:46:56Z</time>
</trkpt>
<trkpt lat="48.481876" lon="10.380754">
<ele>386.601</ele>
<time>2020-09-10T12:46:57Z</time>
</trkpt>
<trkpt lat="48.481846" lon="10.380835">
<ele>386.601</ele>
<time>2020-09-10T12:46:58Z</time>
</trkpt>
<trkpt lat="48.481823" lon="10.380915">
<ele>386.601</ele>
<time>2020-09-10T12:46:59Z</time>
</trkpt>
<trkpt lat="48.481796" lon="10.380994">
<ele>386.601</ele>
<time>2020-09-10T12:47:00Z</time>
</trkpt>
<trkpt lat="48.48177" lon="10.381073">
<ele>386.601</ele>
<time>2020-09-10T12:47:01Z</time>
</trkpt>
<trkpt lat="48.481747" lon="10.381153">
<ele>386.601</ele>
<time>2020-09-10T12:47:02Z</time>
</trkpt>
<trkpt lat="48.481716" lon="10.381233">
<ele>386.601</ele>
<time>2020-09-10T12:47:03Z</time>
</trkpt>
<trkpt lat="48.481689" lon="10.381311">
<ele>386.601</ele>
<time>2020-09-10T12:47:04Z</time>
</trkpt>
<trkpt lat="48.481663" lon="10.38139">
<ele>386.601</ele>
<time>2020-09-10T12:47:05Z</time>
</trkpt>
<trkpt lat="48.481636" lon="10.381469">
<ele>386.601</ele>
<time>2020-09-10T12:47:06Z</time>
</trkpt>
<trkpt lat="48.481613" lon="10.381549">
<ele>386.601</ele>
<time>2020-09-10T12:47:07Z</time>
</trkpt>
<trkpt lat="48.481583" lon="10.381626">
<ele>386.601</ele>
<time>2020-09-10T12:47:08Z</time>
</trkpt>
<trkpt lat="48.481552" lon="10.381706">
<ele>386.601</ele>
<time>2020-09-10T12:47:09Z</time>
</trkpt>
<trkpt lat="48.481529" lon="10.381786">
<ele>386.601</ele>
<time>2020-09-10T12:47:10Z</time>
</trkpt>
<trkpt lat="48.481503" lon="10.381867">
<ele>386.601</ele>
<time>2020-09-10T12:47:11Z</time>
</trkpt>
<trkpt lat="48.481476" lon="10.381948">
<ele>386.601</ele>
<time>2020-09-10T12:47:12Z</time>
</trkpt>
<trkpt lat="48.481449" lon="10.382027">
<ele>386.601</ele>
<time>2020-09-10T12:47:13Z</time>
</trkpt>
<trkpt lat="48.481419" lon="10.382107">
<ele>386.6</ele>
<time>2020-09-10T12:47:14Z</time>
</trkpt>
<trkpt lat="48.481388" lon="10.382185">
<ele>386.601</ele>
<time>2020-09-10T12:47:15Z</time>
</trkpt>
<trkpt lat="48.481361" lon="10.382265">
<ele>386.601</ele>
<time>2020-09-10T12:47:16Z</time>
</trkpt>
<trkpt lat="48.481335" lon="10.382347">
<ele>386.601</ele>
<time>2020-09-10T12:47:17Z</time>
</trkpt>
<trkpt lat="48.481304" lon="10.382428">
<ele>386.601</ele>
<time>2020-09-10T12:47:18Z</time>
</trkpt>
<trkpt lat="48.481277" lon="10.38251">
<ele>386.601</ele>
<time>2020-09-10T12:47:19Z</time>
</trkpt>
<trkpt lat="48.481251" lon="10.382593">
<ele>386.601</ele>
<time>2020-09-10T12:47:20Z</time>
</trkpt>
<trkpt lat="48.481224" lon="10.382676">
<ele>386.601</ele>
<time>2020-09-10T12:47:21Z</time>
</trkpt>
<trkpt lat="48.481194" lon="10.38276">
<ele>386.601</ele>
<time>2020-09-10T12:47:22Z</time>
</trkpt>
<trkpt lat="48.481167" lon="10.38284">
<ele>386.601</ele>
<time>2020-09-10T12:47:23Z</time>
</trkpt>
<trkpt lat="48.481136" lon="10.382916">
<ele>386.601</ele>
<time>2020-09-10T12:47:24Z</time>
</trkpt>
<trkpt lat="48.481106" lon="10.382992">
<ele>386.601</ele>
<time>2020-09-10T12:47:25Z</time>
</trkpt>
<trkpt lat="48.481068" lon="10.383063">
<ele>386.829</ele>
<time>2020-09-10T12:47:26Z</time>
</trkpt>
<trkpt lat="48.481033" lon="10.38313">
<ele>386.993</ele>
<time>2020-09-10T12:47:27Z</time>
</trkpt>
<trkpt lat="48.480991" lon="10.383193">
<ele>387.161</ele>
<time>2020-09-10T12:47:28Z</time>
</trkpt>
<trkpt lat="48.480949" lon="10.38325">
<ele>387.295</ele>
<time>2020-09-10T12:47:29Z</time>
</trkpt>
<trkpt lat="48.480904" lon="10.383303">
<ele>387.4</ele>
<time>2020-09-10T12:47:30Z</time>
</trkpt>
<trkpt lat="48.480858" lon="10.38335">
<ele>387.477</ele>
<time>2020-09-10T12:47:31Z</time>
</trkpt>
<trkpt lat="48.480812" lon="10.383393">
<ele>387.525</ele>
<time>2020-09-10T12:47:32Z</time>
</trkpt>
<trkpt lat="48.48077" lon="10.38343">
<ele>387.549</ele>
<time>2020-09-10T12:47:33Z</time>
</trkpt>
<trkpt lat="48.480728" lon="10.383467">
<ele>387.549</ele>
<time>2020-09-10T12:47:34Z</time>
</trkpt>
<trkpt lat="48.480694" lon="10.383504">
<ele>387.549</ele>
<time>2020-09-10T12:47:35Z</time>
</trkpt>
<trkpt lat="48.480663" lon="10.383541">
<ele>387.549</ele>
<time>2020-09-10T12:47:36Z</time>
</trkpt>
<trkpt lat="48.480637" lon="10.38359">
<ele>387.549</ele>
<time>2020-09-10T12:47:37Z</time>
</trkpt>
<trkpt lat="48.480633" lon="10.383646">
<ele>387.549</ele>
<time>2020-09-10T12:47:38Z</time>
</trkpt>
<trkpt lat="48.480633" lon="10.383709">
<ele>387.809</ele>
<time>2020-09-10T12:47:39Z</time>
</trkpt>
<trkpt lat="48.480637" lon="10.38378">
<ele>388.026</ele>
<time>2020-09-10T12:47:40Z</time>
</trkpt>
<trkpt lat="48.480637" lon="10.383855">
<ele>388.2</ele>
<time>2020-09-10T12:47:41Z</time>
</trkpt>
<trkpt lat="48.480644" lon="10.383933">
<ele>388.332</ele>
<time>2020-09-10T12:47:42Z</time>
</trkpt>
<trkpt lat="48.480648" lon="10.384015">
<ele>388.423</ele>
<time>2020-09-10T12:47:43Z</time>
</trkpt>
<trkpt lat="48.480656" lon="10.384098">
<ele>388.475</ele>
<time>2020-09-10T12:47:44Z</time>
</trkpt>
<trkpt lat="48.480667" lon="10.384183">
<ele>388.497</ele>
<time>2020-09-10T12:47:45Z</time>
</trkpt>
<trkpt lat="48.480671" lon="10.384269">
<ele>388.497</ele>
<time>2020-09-10T12:47:46Z</time>
</trkpt>
<trkpt lat="48.480682" lon="10.384354">
<ele>388.497</ele>
<time>2020-09-10T12:47:47Z</time>
</trkpt>
<trkpt lat="48.480694" lon="10.38444">
<ele>388.497</ele>
<time>2020-09-10T12:47:48Z</time>
</trkpt>
<trkpt lat="48.480701" lon="10.384525">
<ele>388.497</ele>
<time>2020-09-10T12:47:49Z</time>
</trkpt>
<trkpt lat="48.480709" lon="10.384612">
<ele>388.497</ele>
<time>2020-09-10T12:47:50Z</time>
</trkpt>
<trkpt lat="48.480721" lon="10.384696">
<ele>388.497</ele>
<time>2020-09-10T12:47:51Z</time>
</trkpt>
<trkpt lat="48.480732" lon="10.384782">
<ele>388.497</ele>
<time>2020-09-10T12:47:52Z</time>
</trkpt>
<trkpt lat="48.48074" lon="10.384867">
<ele>388.497</ele>
<time>2020-09-10T12:47:53Z</time>
</trkpt>
<trkpt lat="48.480751" lon="10.384952">
<ele>388.497</ele>
<time>2020-09-10T12:47:54Z</time>
</trkpt>
<trkpt lat="48.480762" lon="10.385036">
<ele>388.497</ele>
<time>2020-09-10T12:47:55Z</time>
</trkpt>
<trkpt lat="48.480766" lon="10.385118">
<ele>388.497</ele>
<time>2020-09-10T12:47:56Z</time>
</trkpt>
<trkpt lat="48.480774" lon="10.385201">
<ele>388.497</ele>
<time>2020-09-10T12:47:57Z</time>
</trkpt>
<trkpt lat="48.480782" lon="10.385286">
<ele>388.497</ele>
<time>2020-09-10T12:47:58Z</time>
</trkpt>
<trkpt lat="48.480789" lon="10.385368">
<ele>388.497</ele>
<time>2020-09-10T12:47:59Z</time>
</trkpt>
<trkpt lat="48.480801" lon="10.38545">
<ele>388.497</ele>
<time>2020-09-10T12:48:00Z</time>
</trkpt>
<trkpt lat="48.480804" lon="10.385533">
<ele>388.736</ele>
<time>2020-09-10T12:48:01Z</time>
</trkpt>
<trkpt lat="48.480812" lon="10.385613">
<ele>388.924</ele>
<time>2020-09-10T12:48:02Z</time>
</trkpt>
<trkpt lat="48.480824" lon="10.385695">
<ele>389.067</ele>
<time>2020-09-10T12:48:03Z</time>
</trkpt>
<trkpt lat="48.480831" lon="10.385778">
<ele>389.176</ele>
<time>2020-09-10T12:48:04Z</time>
</trkpt>
<trkpt lat="48.480843" lon="10.385861">
<ele>389.247</ele>
<time>2020-09-10T12:48:05Z</time>
</trkpt>
<trkpt lat="48.480854" lon="10.385944">
<ele>389.297</ele>
<time>2020-09-10T12:48:06Z</time>
</trkpt>
<trkpt lat="48.480862" lon="10.386028">
<ele>389.335</ele>
<time>2020-09-10T12:48:07Z</time>
</trkpt>
<trkpt lat="48.480869" lon="10.38611">
<ele>389.59</ele>
<time>2020-09-10T12:48:08Z</time>
</trkpt>
<trkpt lat="48.480881" lon="10.386189">
<ele>389.784</ele>
<time>2020-09-10T12:48:09Z</time>
</trkpt>
<trkpt lat="48.480892" lon="10.38627">
<ele>389.944</ele>
<time>2020-09-10T12:48:10Z</time>
</trkpt>
<trkpt lat="48.480904" lon="10.386349">
<ele>390.044</ele>
<time>2020-09-10T12:48:11Z</time>
</trkpt>
<trkpt lat="48.480911" lon="10.386427">
<ele>390.379</ele>
<time>2020-09-10T12:48:12Z</time>
</trkpt>
<trkpt lat="48.480919" lon="10.386503">
<ele>390.65</ele>
<time>2020-09-10T12:48:13Z</time>
</trkpt>
<trkpt lat="48.48093" lon="10.386577">
<ele>390.86</ele>
<time>2020-09-10T12:48:14Z</time>
</trkpt>
<trkpt lat="48.480934" lon="10.38665">
<ele>391.013</ele>
<time>2020-09-10T12:48:15Z</time>
</trkpt>
<trkpt lat="48.480946" lon="10.386722">
<ele>391.113</ele>
<time>2020-09-10T12:48:16Z</time>
</trkpt>
<trkpt lat="48.480953" lon="10.386793">
<ele>391.175</ele>
<time>2020-09-10T12:48:17Z</time>
</trkpt>
<trkpt lat="48.480965" lon="10.386865">
<ele>391.454</ele>
<time>2020-09-10T12:48:18Z</time>
</trkpt>
<trkpt lat="48.480968" lon="10.386938">
<ele>391.673</ele>
<time>2020-09-10T12:48:19Z</time>
</trkpt>
<trkpt lat="48.480972" lon="10.387013">
<ele>391.833</ele>
<time>2020-09-10T12:48:20Z</time>
</trkpt>
<trkpt lat="48.480968" lon="10.387087">
<ele>391.964</ele>
<time>2020-09-10T12:48:21Z</time>
</trkpt>
<trkpt lat="48.480953" lon="10.387157">
<ele>392.065</ele>
<time>2020-09-10T12:48:22Z</time>
</trkpt>
<trkpt lat="48.48093" lon="10.387218">
<ele>392.136</ele>
<time>2020-09-10T12:48:23Z</time>
</trkpt>
<trkpt lat="48.480896" lon="10.387272">
<ele>392.182</ele>
<time>2020-09-10T12:48:24Z</time>
</trkpt>
<trkpt lat="48.480854" lon="10.387317">
<ele>392.204</ele>
<time>2020-09-10T12:48:25Z</time>
</trkpt>
<trkpt lat="48.480808" lon="10.387361">
<ele>392.204</ele>
<time>2020-09-10T12:48:26Z</time>
</trkpt>
<trkpt lat="48.480766" lon="10.387406">
<ele>392.204</ele>
<time>2020-09-10T12:48:27Z</time>
</trkpt>
<trkpt lat="48.480721" lon="10.387457">
<ele>392.204</ele>
<time>2020-09-10T12:48:28Z</time>
</trkpt>
<trkpt lat="48.480671" lon="10.387506">
<ele>392.204</ele>
<time>2020-09-10T12:48:29Z</time>
</trkpt>
<trkpt lat="48.480625" lon="10.387551">
<ele>392.204</ele>
<time>2020-09-10T12:48:30Z</time>
</trkpt>
<trkpt lat="48.480576" lon="10.387598">
<ele>392.204</ele>
<time>2020-09-10T12:48:31Z</time>
</trkpt>
<trkpt lat="48.48053" lon="10.387647">
<ele>392.204</ele>
<time>2020-09-10T12:48:32Z</time>
</trkpt>
<trkpt lat="48.48048" lon="10.387693">
<ele>392.204</ele>
<time>2020-09-10T12:48:33Z</time>
</trkpt>
<trkpt lat="48.480431" lon="10.387742">
<ele>392.204</ele>
<time>2020-09-10T12:48:34Z</time>
</trkpt>
<trkpt lat="48.480381" lon="10.38779">
<ele>392.204</ele>
<time>2020-09-10T12:48:35Z</time>
</trkpt>
<trkpt lat="48.480335" lon="10.387836">
<ele>392.204</ele>
<time>2020-09-10T12:48:36Z</time>
</trkpt>
<trkpt lat="48.480286" lon="10.387883">
<ele>392.204</ele>
<time>2020-09-10T12:48:37Z</time>
</trkpt>
<trkpt lat="48.480236" lon="10.387928">
<ele>392.204</ele>
<time>2020-09-10T12:48:38Z</time>
</trkpt>
<trkpt lat="48.480186" lon="10.387977">
<ele>392.204</ele>
<time>2020-09-10T12:48:39Z</time>
</trkpt>
<trkpt lat="48.480141" lon="10.388023">
<ele>392.204</ele>
<time>2020-09-10T12:48:40Z</time>
</trkpt>
<trkpt lat="48.480087" lon="10.38807">
<ele>392.204</ele>
<time>2020-09-10T12:48:41Z</time>
</trkpt>
<trkpt lat="48.480045" lon="10.388122">
<ele>392.204</ele>
<time>2020-09-10T12:48:42Z</time>
</trkpt>
<trkpt lat="48.480003" lon="10.388175">
<ele>392.204</ele>
<time>2020-09-10T12:48:43Z</time>
</trkpt>
<trkpt lat="48.479965" lon="10.388228">
<ele>392.204</ele>
<time>2020-09-10T12:48:44Z</time>
</trkpt>
<trkpt lat="48.479931" lon="10.388278">
<ele>392.204</ele>
<time>2020-09-10T12:48:45Z</time>
</trkpt>
<trkpt lat="48.479897" lon="10.388323">
<ele>392.204</ele>
<time>2020-09-10T12:48:46Z</time>
</trkpt>
<trkpt lat="48.479866" lon="10.388358">
<ele>392.204</ele>
<time>2020-09-10T12:48:47Z</time>
</trkpt>
<trkpt lat="48.479836" lon="10.388389">
<ele>392.204</ele>
<time>2020-09-10T12:48:48Z</time>
</trkpt>
<trkpt lat="48.479813" lon="10.388416">
<ele>392.204</ele>
<time>2020-09-10T12:48:49Z</time>
</trkpt>
<trkpt lat="48.47979" lon="10.38844">
<ele>392.204</ele>
<time>2020-09-10T12:48:50Z</time>
</trkpt>
<trkpt lat="48.479774" lon="10.388458">
<ele>392.204</ele>
<time>2020-09-10T12:48:51Z</time>
</trkpt>
<trkpt lat="48.479759" lon="10.388474">
<ele>392.204</ele>
<time>2020-09-10T12:48:52Z</time>
</trkpt>
<trkpt lat="48.479752" lon="10.388485">
<ele>392.204</ele>
<time>2020-09-10T12:48:53Z</time>
</trkpt>
<trkpt lat="48.479744" lon="10.388494">
<ele>392.204</ele>
<time>2020-09-10T12:48:54Z</time>
</trkpt>
<trkpt lat="48.479744" lon="10.388503">
<ele>392.204</ele>
<time>2020-09-10T12:48:55Z</time>
</trkpt>
<trkpt lat="48.479744" lon="10.388505">
<ele>392.204</ele>
<time>2020-09-10T12:48:57Z</time>
</trkpt>
<trkpt lat="48.479729" lon="10.388521">
<ele>392.204</ele>
<time>2020-09-10T12:49:00Z</time>
</trkpt>
<trkpt lat="48.479725" lon="10.388542">
<ele>392.204</ele>
<time>2020-09-10T12:49:01Z</time>
</trkpt>
<trkpt lat="48.479725" lon="10.38857">
<ele>392.204</ele>
<time>2020-09-10T12:49:02Z</time>
</trkpt>
<trkpt lat="48.479725" lon="10.388601">
<ele>392.204</ele>
<time>2020-09-10T12:49:03Z</time>
</trkpt>
<trkpt lat="48.479717" lon="10.388635">
<ele>392.204</ele>
<time>2020-09-10T12:49:04Z</time>
</trkpt>
<trkpt lat="48.479698" lon="10.388674">
<ele>392.204</ele>
<time>2020-09-10T12:49:05Z</time>
</trkpt>
<trkpt lat="48.479671" lon="10.388708">
<ele>392.204</ele>
<time>2020-09-10T12:49:06Z</time>
</trkpt>
<trkpt lat="48.479637" lon="10.388745">
<ele>392.204</ele>
<time>2020-09-10T12:49:07Z</time>
</trkpt>
<trkpt lat="48.479599" lon="10.388782">
<ele>392.204</ele>
<time>2020-09-10T12:49:08Z</time>
</trkpt>
<trkpt lat="48.479561" lon="10.388824">
<ele>392.204</ele>
<time>2020-09-10T12:49:09Z</time>
</trkpt>
<trkpt lat="48.479523" lon="10.388866">
<ele>392.204</ele>
<time>2020-09-10T12:49:10Z</time>
</trkpt>
<trkpt lat="48.479477" lon="10.38891">
<ele>392.204</ele>
<time>2020-09-10T12:49:11Z</time>
</trkpt>
<trkpt lat="48.479431" lon="10.388955">
<ele>392.204</ele>
<time>2020-09-10T12:49:12Z</time>
</trkpt>
<trkpt lat="48.479385" lon="10.389002">
<ele>392.204</ele>
<time>2020-09-10T12:49:13Z</time>
</trkpt>
<trkpt lat="48.479332" lon="10.389051">
<ele>392.204</ele>
<time>2020-09-10T12:49:14Z</time>
</trkpt>
<trkpt lat="48.479286" lon="10.389102">
<ele>392.204</ele>
<time>2020-09-10T12:49:15Z</time>
</trkpt>
<trkpt lat="48.479237" lon="10.389152">
<ele>392.204</ele>
<time>2020-09-10T12:49:16Z</time>
</trkpt>
<trkpt lat="48.479191" lon="10.389207">
<ele>392.204</ele>
<time>2020-09-10T12:49:17Z</time>
</trkpt>
<trkpt lat="48.479145" lon="10.389263">
<ele>392.204</ele>
<time>2020-09-10T12:49:18Z</time>
</trkpt>
<trkpt lat="48.479103" lon="10.389321">
<ele>392.204</ele>
<time>2020-09-10T12:49:19Z</time>
</trkpt>
<trkpt lat="48.479057" lon="10.389382">
<ele>392.204</ele>
<time>2020-09-10T12:49:20Z</time>
</trkpt>
<trkpt lat="48.479012" lon="10.389439">
<ele>392.204</ele>
<time>2020-09-10T12:49:21Z</time>
</trkpt>
<trkpt lat="48.478966" lon="10.389493">
<ele>391.92</ele>
<time>2020-09-10T12:49:22Z</time>
</trkpt>
<trkpt lat="48.478912" lon="10.389546">
<ele>391.698</ele>
<time>2020-09-10T12:49:23Z</time>
</trkpt>
<trkpt lat="48.47887" lon="10.3896">
<ele>391.533</ele>
<time>2020-09-10T12:49:24Z</time>
</trkpt>
<trkpt lat="48.478821" lon="10.38965">
<ele>391.413</ele>
<time>2020-09-10T12:49:25Z</time>
</trkpt>
<trkpt lat="48.478771" lon="10.389701">
<ele>391.33</ele>
<time>2020-09-10T12:49:26Z</time>
</trkpt>
<trkpt lat="48.478722" lon="10.38975">
<ele>391.283</ele>
<time>2020-09-10T12:49:27Z</time>
</trkpt>
<trkpt lat="48.478676" lon="10.389802">
<ele>391.259</ele>
<time>2020-09-10T12:49:28Z</time>
</trkpt>
<trkpt lat="48.478626" lon="10.389853">
<ele>391.256</ele>
<time>2020-09-10T12:49:29Z</time>
</trkpt>
<trkpt lat="48.47858" lon="10.389905">
<ele>391.256</ele>
<time>2020-09-10T12:49:30Z</time>
</trkpt>
<trkpt lat="48.478531" lon="10.389955">
<ele>391.256</ele>
<time>2020-09-10T12:49:31Z</time>
</trkpt>
<trkpt lat="48.478481" lon="10.390007">
<ele>391.256</ele>
<time>2020-09-10T12:49:32Z</time>
</trkpt>
<trkpt lat="48.478432" lon="10.390059">
<ele>391.256</ele>
<time>2020-09-10T12:49:33Z</time>
</trkpt>
<trkpt lat="48.478386" lon="10.390114">
<ele>391.256</ele>
<time>2020-09-10T12:49:34Z</time>
</trkpt>
<trkpt lat="48.47834" lon="10.390166">
<ele>391.256</ele>
<time>2020-09-10T12:49:35Z</time>
</trkpt>
<trkpt lat="48.478291" lon="10.390221">
<ele>391.256</ele>
<time>2020-09-10T12:49:36Z</time>
</trkpt>
<trkpt lat="48.478241" lon="10.390273">
<ele>391.256</ele>
<time>2020-09-10T12:49:37Z</time>
</trkpt>
<trkpt lat="48.478191" lon="10.390327">
<ele>391.256</ele>
<time>2020-09-10T12:49:38Z</time>
</trkpt>
<trkpt lat="48.478142" lon="10.390377">
<ele>391.256</ele>
<time>2020-09-10T12:49:39Z</time>
</trkpt>
<trkpt lat="48.478092" lon="10.390427">
<ele>391.256</ele>
<time>2020-09-10T12:49:40Z</time>
</trkpt>
<trkpt lat="48.478043" lon="10.390476">
<ele>391.256</ele>
<time>2020-09-10T12:49:41Z</time>
</trkpt>
<trkpt lat="48.477997" lon="10.390529">
<ele>391.256</ele>
<time>2020-09-10T12:49:42Z</time>
</trkpt>
<trkpt lat="48.477943" lon="10.390581">
<ele>391.256</ele>
<time>2020-09-10T12:49:43Z</time>
</trkpt>
<trkpt lat="48.477898" lon="10.390637">
<ele>391.256</ele>
<time>2020-09-10T12:49:44Z</time>
</trkpt>
<trkpt lat="48.477848" lon="10.390694">
<ele>391.256</ele>
<time>2020-09-10T12:49:45Z</time>
</trkpt>
<trkpt lat="48.477798" lon="10.390746">
<ele>391.256</ele>
<time>2020-09-10T12:49:46Z</time>
</trkpt>
<trkpt lat="48.477749" lon="10.390801">
<ele>391.256</ele>
<time>2020-09-10T12:49:47Z</time>
</trkpt>
<trkpt lat="48.477699" lon="10.390853">
<ele>391.256</ele>
<time>2020-09-10T12:49:48Z</time>
</trkpt>
<trkpt lat="48.477646" lon="10.390906">
<ele>391.256</ele>
<time>2020-09-10T12:49:49Z</time>
</trkpt>
<trkpt lat="48.4776" lon="10.39096">
<ele>391.256</ele>
<time>2020-09-10T12:49:50Z</time>
</trkpt>
<trkpt lat="48.477547" lon="10.391013">
<ele>391.256</ele>
<time>2020-09-10T12:49:51Z</time>
</trkpt>
<trkpt lat="48.477497" lon="10.391063">
<ele>391.256</ele>
<time>2020-09-10T12:49:52Z</time>
</trkpt>
<trkpt lat="48.477444" lon="10.391117">
<ele>391.256</ele>
<time>2020-09-10T12:49:53Z</time>
</trkpt>
<trkpt lat="48.477394" lon="10.39117">
<ele>391.256</ele>
<time>2020-09-10T12:49:54Z</time>
</trkpt>
<trkpt lat="48.477345" lon="10.391224">
<ele>391.514</ele>
<time>2020-09-10T12:49:55Z</time>
</trkpt>
<trkpt lat="48.477299" lon="10.391276">
<ele>391.716</ele>
<time>2020-09-10T12:49:56Z</time>
</trkpt>
<trkpt lat="48.477249" lon="10.391332">
<ele>391.867</ele>
<time>2020-09-10T12:49:57Z</time>
</trkpt>
<trkpt lat="48.477203" lon="10.391383">
<ele>391.981</ele>
<time>2020-09-10T12:49:58Z</time>
</trkpt>
<trkpt lat="48.477154" lon="10.391438">
<ele>392.064</ele>
<time>2020-09-10T12:49:59Z</time>
</trkpt>
<trkpt lat="48.477104" lon="10.39149">
<ele>392.123</ele>
<time>2020-09-10T12:50:00Z</time>
</trkpt>
<trkpt lat="48.477055" lon="10.391543">
<ele>392.178</ele>
<time>2020-09-10T12:50:01Z</time>
</trkpt>
<trkpt lat="48.477009" lon="10.391595">
<ele>392.204</ele>
<time>2020-09-10T12:50:02Z</time>
</trkpt>
<trkpt lat="48.476959" lon="10.391645">
<ele>392.204</ele>
<time>2020-09-10T12:50:03Z</time>
</trkpt>
<trkpt lat="48.476913" lon="10.391697">
<ele>392.204</ele>
<time>2020-09-10T12:50:04Z</time>
</trkpt>
<trkpt lat="48.476864" lon="10.391747">
<ele>392.461</ele>
<time>2020-09-10T12:50:05Z</time>
</trkpt>
<trkpt lat="48.476814" lon="10.3918">
<ele>392.663</ele>
<time>2020-09-10T12:50:06Z</time>
</trkpt>
<trkpt lat="48.476765" lon="10.39185">
<ele>392.817</ele>
<time>2020-09-10T12:50:07Z</time>
</trkpt>
<trkpt lat="48.476719" lon="10.3919">
<ele>392.93</ele>
<time>2020-09-10T12:50:08Z</time>
</trkpt>
<trkpt lat="48.476669" lon="10.391953">
<ele>392.993</ele>
<time>2020-09-10T12:50:09Z</time>
</trkpt>
<trkpt lat="48.476624" lon="10.392007">
<ele>393.267</ele>
<time>2020-09-10T12:50:10Z</time>
</trkpt>
<trkpt lat="48.476574" lon="10.39206">
<ele>393.501</ele>
<time>2020-09-10T12:50:11Z</time>
</trkpt>
<trkpt lat="48.476524" lon="10.39211">
<ele>393.676</ele>
<time>2020-09-10T12:50:12Z</time>
</trkpt>
<trkpt lat="48.476471" lon="10.39216">
<ele>393.777</ele>
<time>2020-09-10T12:50:13Z</time>
</trkpt>
<trkpt lat="48.476425" lon="10.392213">
<ele>394.108</ele>
<time>2020-09-10T12:50:14Z</time>
</trkpt>
<trkpt lat="48.476376" lon="10.392267">
<ele>394.375</ele>
<time>2020-09-10T12:50:15Z</time>
</trkpt>
<trkpt lat="48.476326" lon="10.39232">
<ele>394.579</ele>
<time>2020-09-10T12:50:16Z</time>
</trkpt>
<trkpt lat="48.47628" lon="10.392375">
<ele>394.727</ele>
<time>2020-09-10T12:50:17Z</time>
</trkpt>
<trkpt lat="48.476234" lon="10.392428">
<ele>394.842</ele>
<time>2020-09-10T12:50:18Z</time>
</trkpt>
<trkpt lat="48.476185" lon="10.39248">
<ele>394.884</ele>
<time>2020-09-10T12:50:19Z</time>
</trkpt>
<trkpt lat="48.476139" lon="10.392529">
<ele>395.128</ele>
<time>2020-09-10T12:50:20Z</time>
</trkpt>
<trkpt lat="48.476089" lon="10.39258">
<ele>395.335</ele>
<time>2020-09-10T12:50:21Z</time>
</trkpt>
<trkpt lat="48.47604" lon="10.392632">
<ele>395.484</ele>
<time>2020-09-10T12:50:22Z</time>
</trkpt>
<trkpt lat="48.475994" lon="10.392684">
<ele>395.604</ele>
<time>2020-09-10T12:50:23Z</time>
</trkpt>
<trkpt lat="48.475941" lon="10.392735">
<ele>395.696</ele>
<time>2020-09-10T12:50:24Z</time>
</trkpt>
<trkpt lat="48.475895" lon="10.392789">
<ele>395.763</ele>
<time>2020-09-10T12:50:25Z</time>
</trkpt>
<trkpt lat="48.475845" lon="10.392838">
<ele>395.806</ele>
<time>2020-09-10T12:50:26Z</time>
</trkpt>
<trkpt lat="48.475796" lon="10.392888">
<ele>395.827</ele>
<time>2020-09-10T12:50:27Z</time>
</trkpt>
<trkpt lat="48.475746" lon="10.392938">
<ele>396.086</ele>
<time>2020-09-10T12:50:28Z</time>
</trkpt>
<trkpt lat="48.4757" lon="10.392988">
<ele>396.29</ele>
<time>2020-09-10T12:50:29Z</time>
</trkpt>
<trkpt lat="48.475651" lon="10.393039">
<ele>396.43</ele>
<time>2020-09-10T12:50:30Z</time>
</trkpt>
<trkpt lat="48.475605" lon="10.393086">
<ele>396.58</ele>
<time>2020-09-10T12:50:31Z</time>
</trkpt>
<trkpt lat="48.475555" lon="10.393135">
<ele>396.696</ele>
<time>2020-09-10T12:50:32Z</time>
</trkpt>
<trkpt lat="48.47551" lon="10.393185">
<ele>396.781</ele>
<time>2020-09-10T12:50:33Z</time>
</trkpt>
<trkpt lat="48.475456" lon="10.393231">
<ele>396.836</ele>
<time>2020-09-10T12:50:34Z</time>
</trkpt>
<trkpt lat="48.475407" lon="10.393278">
<ele>396.862</ele>
<time>2020-09-10T12:50:35Z</time>
</trkpt>
<trkpt lat="48.475357" lon="10.393327">
<ele>396.862</ele>
<time>2020-09-10T12:50:36Z</time>
</trkpt>
<trkpt lat="48.475304" lon="10.393375">
<ele>396.862</ele>
<time>2020-09-10T12:50:37Z</time>
</trkpt>
<trkpt lat="48.475254" lon="10.393422">
<ele>396.862</ele>
<time>2020-09-10T12:50:38Z</time>
</trkpt>
<trkpt lat="48.475201" lon="10.393468">
<ele>396.862</ele>
<time>2020-09-10T12:50:39Z</time>
</trkpt>
<trkpt lat="48.475147" lon="10.393515">
<ele>396.862</ele>
<time>2020-09-10T12:50:40Z</time>
</trkpt>
<trkpt lat="48.475094" lon="10.393562">
<ele>396.862</ele>
<time>2020-09-10T12:50:41Z</time>
</trkpt>
<trkpt lat="48.47504" lon="10.393604">
<ele>396.862</ele>
<time>2020-09-10T12:50:42Z</time>
</trkpt>
<trkpt lat="48.474987" lon="10.393652">
<ele>396.862</ele>
<time>2020-09-10T12:50:43Z</time>
</trkpt>
<trkpt lat="48.47493" lon="10.393701">
<ele>396.862</ele>
<time>2020-09-10T12:50:44Z</time>
</trkpt>
<trkpt lat="48.474869" lon="10.393744">
<ele>396.862</ele>
<time>2020-09-10T12:50:45Z</time>
</trkpt>
<trkpt lat="48.474808" lon="10.393788">
<ele>396.862</ele>
<time>2020-09-10T12:50:46Z</time>
</trkpt>
<trkpt lat="48.474747" lon="10.393828">
<ele>396.862</ele>
<time>2020-09-10T12:50:47Z</time>
</trkpt>
<trkpt lat="48.474686" lon="10.393867">
<ele>396.862</ele>
<time>2020-09-10T12:50:48Z</time>
</trkpt>
<trkpt lat="48.474625" lon="10.393904">
<ele>396.862</ele>
<time>2020-09-10T12:50:49Z</time>
</trkpt>
<trkpt lat="48.47456" lon="10.393942">
<ele>396.667</ele>
<time>2020-09-10T12:50:50Z</time>
</trkpt>
<trkpt lat="48.474499" lon="10.393975">
<ele>396.485</ele>
<time>2020-09-10T12:50:51Z</time>
</trkpt>
<trkpt lat="48.474434" lon="10.394007">
<ele>396.337</ele>
<time>2020-09-10T12:50:52Z</time>
</trkpt>
<trkpt lat="48.474373" lon="10.394035">
<ele>396.219</ele>
<time>2020-09-10T12:50:53Z</time>
</trkpt>
<trkpt lat="48.474304" lon="10.394063">
<ele>396.128</ele>
<time>2020-09-10T12:50:54Z</time>
</trkpt>
<trkpt lat="48.474239" lon="10.394088">
<ele>396.062</ele>
<time>2020-09-10T12:50:55Z</time>
</trkpt>
<trkpt lat="48.474178" lon="10.394112">
<ele>396.02</ele>
<time>2020-09-10T12:50:56Z</time>
</trkpt>
<trkpt lat="48.474113" lon="10.394134">
<ele>395.999</ele>
<time>2020-09-10T12:50:57Z</time>
</trkpt>
<trkpt lat="48.474049" lon="10.394154">
<ele>395.999</ele>
<time>2020-09-10T12:50:58Z</time>
</trkpt>
<trkpt lat="48.47398" lon="10.394172">
<ele>395.999</ele>
<time>2020-09-10T12:50:59Z</time>
</trkpt>
<trkpt lat="48.473915" lon="10.394189">
<ele>395.999</ele>
<time>2020-09-10T12:51:00Z</time>
</trkpt>
<trkpt lat="48.473846" lon="10.394203">
<ele>395.999</ele>
<time>2020-09-10T12:51:01Z</time>
</trkpt>
<trkpt lat="48.473782" lon="10.394217">
<ele>395.999</ele>
<time>2020-09-10T12:51:02Z</time>
</trkpt>
<trkpt lat="48.473717" lon="10.394225">
<ele>395.999</ele>
<time>2020-09-10T12:51:03Z</time>
</trkpt>
<trkpt lat="48.473648" lon="10.394232">
<ele>395.999</ele>
<time>2020-09-10T12:51:04Z</time>
</trkpt>
<trkpt lat="48.473583" lon="10.394238">
<ele>395.999</ele>
<time>2020-09-10T12:51:05Z</time>
</trkpt>
<trkpt lat="48.473518" lon="10.394243">
<ele>395.999</ele>
<time>2020-09-10T12:51:06Z</time>
</trkpt>
<trkpt lat="48.473454" lon="10.394243">
<ele>395.999</ele>
<time>2020-09-10T12:51:07Z</time>
</trkpt>
<trkpt lat="48.473389" lon="10.394243">
<ele>395.999</ele>
<time>2020-09-10T12:51:08Z</time>
</trkpt>
<trkpt lat="48.473324" lon="10.394241">
<ele>395.999</ele>
<time>2020-09-10T12:51:09Z</time>
</trkpt>
<trkpt lat="48.473259" lon="10.39424">
<ele>395.999</ele>
<time>2020-09-10T12:51:10Z</time>
</trkpt>
<trkpt lat="48.47319" lon="10.394237">
<ele>395.999</ele>
<time>2020-09-10T12:51:11Z</time>
</trkpt>
<trkpt lat="48.473125" lon="10.394233">
<ele>395.999</ele>
<time>2020-09-10T12:51:12Z</time>
</trkpt>
<trkpt lat="48.473064" lon="10.39423">
<ele>395.999</ele>
<time>2020-09-10T12:51:13Z</time>
</trkpt>
<trkpt lat="48.473" lon="10.394226">
<ele>395.999</ele>
<time>2020-09-10T12:51:14Z</time>
</trkpt>
<trkpt lat="48.472939" lon="10.394218">
<ele>395.999</ele>
<time>2020-09-10T12:51:15Z</time>
</trkpt>
<trkpt lat="48.472878" lon="10.39421">
<ele>395.999</ele>
<time>2020-09-10T12:51:16Z</time>
</trkpt>
<trkpt lat="48.472813" lon="10.394203">
<ele>395.999</ele>
<time>2020-09-10T12:51:17Z</time>
</trkpt>
<trkpt lat="48.472748" lon="10.394195">
<ele>395.999</ele>
<time>2020-09-10T12:51:18Z</time>
</trkpt>
<trkpt lat="48.472683" lon="10.394187">
<ele>395.999</ele>
<time>2020-09-10T12:51:19Z</time>
</trkpt>
<trkpt lat="48.472618" lon="10.394176">
<ele>395.999</ele>
<time>2020-09-10T12:51:20Z</time>
</trkpt>
<trkpt lat="48.472557" lon="10.394168">
<ele>396.23</ele>
<time>2020-09-10T12:51:21Z</time>
</trkpt>
<trkpt lat="48.472492" lon="10.394159">
<ele>396.424</ele>
<time>2020-09-10T12:51:22Z</time>
</trkpt>
<trkpt lat="48.472431" lon="10.394151">
<ele>396.583</ele>
<time>2020-09-10T12:51:23Z</time>
</trkpt>
<trkpt lat="48.47237" lon="10.39414">
<ele>396.709</ele>
<time>2020-09-10T12:51:24Z</time>
</trkpt>
<trkpt lat="48.472309" lon="10.394128">
<ele>396.807</ele>
<time>2020-09-10T12:51:25Z</time>
</trkpt>
<trkpt lat="48.472248" lon="10.39412">
<ele>396.879</ele>
<time>2020-09-10T12:51:26Z</time>
</trkpt>
<trkpt lat="48.472187" lon="10.39411">
<ele>396.925</ele>
<time>2020-09-10T12:51:27Z</time>
</trkpt>
<trkpt lat="48.472122" lon="10.3941">
<ele>396.948</ele>
<time>2020-09-10T12:51:28Z</time>
</trkpt>
<trkpt lat="48.472061" lon="10.394088">
<ele>396.948</ele>
<time>2020-09-10T12:51:29Z</time>
</trkpt>
<trkpt lat="48.471996" lon="10.39408">
<ele>396.948</ele>
<time>2020-09-10T12:51:30Z</time>
</trkpt>
<trkpt lat="48.471931" lon="10.394073">
<ele>396.948</ele>
<time>2020-09-10T12:51:31Z</time>
</trkpt>
<trkpt lat="48.471867" lon="10.394069">
<ele>396.948</ele>
<time>2020-09-10T12:51:32Z</time>
</trkpt>
<trkpt lat="48.471802" lon="10.394063">
<ele>396.948</ele>
<time>2020-09-10T12:51:33Z</time>
</trkpt>
<trkpt lat="48.471733" lon="10.39406">
<ele>396.948</ele>
<time>2020-09-10T12:51:34Z</time>
</trkpt>
<trkpt lat="48.471664" lon="10.394056">
<ele>396.948</ele>
<time>2020-09-10T12:51:35Z</time>
</trkpt>
<trkpt lat="48.471592" lon="10.394054">
<ele>396.948</ele>
<time>2020-09-10T12:51:36Z</time>
</trkpt>
<trkpt lat="48.471523" lon="10.394056">
<ele>396.948</ele>
<time>2020-09-10T12:51:37Z</time>
</trkpt>
<trkpt lat="48.471455" lon="10.394058">
<ele>396.948</ele>
<time>2020-09-10T12:51:38Z</time>
</trkpt>
<trkpt lat="48.471378" lon="10.394058">
<ele>396.948</ele>
<time>2020-09-10T12:51:39Z</time>
</trkpt>
<trkpt lat="48.47131" lon="10.394061">
<ele>396.734</ele>
<time>2020-09-10T12:51:40Z</time>
</trkpt>
<trkpt lat="48.471241" lon="10.394069">
<ele>396.533</ele>
<time>2020-09-10T12:51:41Z</time>
</trkpt>
<trkpt lat="48.471169" lon="10.394075">
<ele>396.369</ele>
<time>2020-09-10T12:51:42Z</time>
</trkpt>
<trkpt lat="48.471096" lon="10.394085">
<ele>396.238</ele>
<time>2020-09-10T12:51:43Z</time>
</trkpt>
<trkpt lat="48.471024" lon="10.394094">
<ele>396.139</ele>
<time>2020-09-10T12:51:44Z</time>
</trkpt>
<trkpt lat="48.470955" lon="10.394105">
<ele>396.066</ele>
<time>2020-09-10T12:51:45Z</time>
</trkpt>
<trkpt lat="48.470879" lon="10.39412">
<ele>396.021</ele>
<time>2020-09-10T12:51:46Z</time>
</trkpt>
<trkpt lat="48.470806" lon="10.394136">
<ele>395.999</ele>
<time>2020-09-10T12:51:47Z</time>
</trkpt>
<trkpt lat="48.470734" lon="10.394156">
<ele>395.999</ele>
<time>2020-09-10T12:51:48Z</time>
</trkpt>
<trkpt lat="48.470665" lon="10.394174">
<ele>395.999</ele>
<time>2020-09-10T12:51:49Z</time>
</trkpt>
<trkpt lat="48.470596" lon="10.394193">
<ele>395.999</ele>
<time>2020-09-10T12:51:50Z</time>
</trkpt>
<trkpt lat="48.470524" lon="10.39422">
<ele>395.999</ele>
<time>2020-09-10T12:51:51Z</time>
</trkpt>
<trkpt lat="48.470455" lon="10.39425">
<ele>395.999</ele>
<time>2020-09-10T12:51:52Z</time>
</trkpt>
<trkpt lat="48.470383" lon="10.394281">
<ele>395.999</ele>
<time>2020-09-10T12:51:53Z</time>
</trkpt>
<trkpt lat="48.470314" lon="10.394312">
<ele>395.999</ele>
<time>2020-09-10T12:51:54Z</time>
</trkpt>
<trkpt lat="48.470245" lon="10.394341">
<ele>395.999</ele>
<time>2020-09-10T12:51:55Z</time>
</trkpt>
<trkpt lat="48.470177" lon="10.394373">
<ele>395.999</ele>
<time>2020-09-10T12:51:56Z</time>
</trkpt>
<trkpt lat="48.470108" lon="10.394404">
<ele>395.999</ele>
<time>2020-09-10T12:51:57Z</time>
</trkpt>
<trkpt lat="48.470043" lon="10.394444">
<ele>395.999</ele>
<time>2020-09-10T12:51:58Z</time>
</trkpt>
<trkpt lat="48.469975" lon="10.394484">
<ele>395.999</ele>
<time>2020-09-10T12:51:59Z</time>
</trkpt>
<trkpt lat="48.46991" lon="10.394526">
<ele>395.999</ele>
<time>2020-09-10T12:52:00Z</time>
</trkpt>
<trkpt lat="48.469845" lon="10.394567">
<ele>395.999</ele>
<time>2020-09-10T12:52:01Z</time>
</trkpt>
<trkpt lat="48.46978" lon="10.394609">
<ele>395.999</ele>
<time>2020-09-10T12:52:02Z</time>
</trkpt>
<trkpt lat="48.469715" lon="10.394653">
<ele>395.999</ele>
<time>2020-09-10T12:52:03Z</time>
</trkpt>
<trkpt lat="48.46965" lon="10.394698">
<ele>395.999</ele>
<time>2020-09-10T12:52:04Z</time>
</trkpt>
<trkpt lat="48.469585" lon="10.394744">
<ele>395.999</ele>
<time>2020-09-10T12:52:05Z</time>
</trkpt>
<trkpt lat="48.469521" lon="10.39479">
<ele>395.999</ele>
<time>2020-09-10T12:52:06Z</time>
</trkpt>
<trkpt lat="48.469456" lon="10.394835">
<ele>395.999</ele>
<time>2020-09-10T12:52:07Z</time>
</trkpt>
<trkpt lat="48.469387" lon="10.394882">
<ele>395.999</ele>
<time>2020-09-10T12:52:08Z</time>
</trkpt>
<trkpt lat="48.469322" lon="10.394926">
<ele>395.999</ele>
<time>2020-09-10T12:52:09Z</time>
</trkpt>
<trkpt lat="48.469254" lon="10.394975">
<ele>395.999</ele>
<time>2020-09-10T12:52:10Z</time>
</trkpt>
<trkpt lat="48.469189" lon="10.395023">
<ele>395.767</ele>
<time>2020-09-10T12:52:11Z</time>
</trkpt>
<trkpt lat="48.46912" lon="10.395072">
<ele>395.572</ele>
<time>2020-09-10T12:52:12Z</time>
</trkpt>
<trkpt lat="48.469051" lon="10.395121">
<ele>395.413</ele>
<time>2020-09-10T12:52:13Z</time>
</trkpt>
<trkpt lat="48.468983" lon="10.395168">
<ele>395.285</ele>
<time>2020-09-10T12:52:14Z</time>
</trkpt>
<trkpt lat="48.46891" lon="10.395217">
<ele>395.187</ele>
<time>2020-09-10T12:52:15Z</time>
</trkpt>
<trkpt lat="48.468842" lon="10.395264">
<ele>395.117</ele>
<time>2020-09-10T12:52:16Z</time>
</trkpt>
<trkpt lat="48.468773" lon="10.395311">
<ele>395.072</ele>
<time>2020-09-10T12:52:17Z</time>
</trkpt>
<trkpt lat="48.468704" lon="10.39536">
<ele>395.05</ele>
<time>2020-09-10T12:52:18Z</time>
</trkpt>
<trkpt lat="48.468639" lon="10.39541">
<ele>395.05</ele>
<time>2020-09-10T12:52:19Z</time>
</trkpt>
<trkpt lat="48.468571" lon="10.395458">
<ele>395.05</ele>
<time>2020-09-10T12:52:20Z</time>
</trkpt>
<trkpt lat="48.468502" lon="10.395509">
<ele>395.05</ele>
<time>2020-09-10T12:52:21Z</time>
</trkpt>
<trkpt lat="48.468433" lon="10.39556">
<ele>395.05</ele>
<time>2020-09-10T12:52:22Z</time>
</trkpt>
<trkpt lat="48.468365" lon="10.395614">
<ele>395.05</ele>
<time>2020-09-10T12:52:23Z</time>
</trkpt>
<trkpt lat="48.4683" lon="10.395672">
<ele>395.05</ele>
<time>2020-09-10T12:52:24Z</time>
</trkpt>
<trkpt lat="48.468235" lon="10.395726">
<ele>394.744</ele>
<time>2020-09-10T12:52:25Z</time>
</trkpt>
<trkpt lat="48.468166" lon="10.395781">
<ele>394.505</ele>
<time>2020-09-10T12:52:26Z</time>
</trkpt>
<trkpt lat="48.468098" lon="10.395826">
<ele>394.325</ele>
<time>2020-09-10T12:52:27Z</time>
</trkpt>
<trkpt lat="48.468029" lon="10.395868">
<ele>394.19</ele>
<time>2020-09-10T12:52:28Z</time>
</trkpt>
<trkpt lat="48.467957" lon="10.395906">
<ele>394.094</ele>
<time>2020-09-10T12:52:29Z</time>
</trkpt>
<trkpt lat="48.467888" lon="10.395947">
<ele>394.023</ele>
<time>2020-09-10T12:52:30Z</time>
</trkpt>
<trkpt lat="48.467823" lon="10.39599">
<ele>393.96</ele>
<time>2020-09-10T12:52:31Z</time>
</trkpt>
<trkpt lat="48.467754" lon="10.396038">
<ele>393.929</ele>
<time>2020-09-10T12:52:32Z</time>
</trkpt>
<trkpt lat="48.467686" lon="10.396089">
<ele>393.929</ele>
<time>2020-09-10T12:52:33Z</time>
</trkpt>
<trkpt lat="48.467621" lon="10.396139">
<ele>393.929</ele>
<time>2020-09-10T12:52:34Z</time>
</trkpt>
<trkpt lat="48.467552" lon="10.396192">
<ele>393.929</ele>
<time>2020-09-10T12:52:35Z</time>
</trkpt>
<trkpt lat="48.467484" lon="10.396242">
<ele>393.929</ele>
<time>2020-09-10T12:52:36Z</time>
</trkpt>
<trkpt lat="48.467419" lon="10.396295">
<ele>393.929</ele>
<time>2020-09-10T12:52:37Z</time>
</trkpt>
<trkpt lat="48.467358" lon="10.39635">
<ele>393.929</ele>
<time>2020-09-10T12:52:38Z</time>
</trkpt>
<trkpt lat="48.467297" lon="10.396407">
<ele>393.929</ele>
<time>2020-09-10T12:52:39Z</time>
</trkpt>
<trkpt lat="48.467236" lon="10.396466">
<ele>393.929</ele>
<time>2020-09-10T12:52:40Z</time>
</trkpt>
<trkpt lat="48.467171" lon="10.396526">
<ele>393.929</ele>
<time>2020-09-10T12:52:41Z</time>
</trkpt>
<trkpt lat="48.46711" lon="10.396584">
<ele>393.929</ele>
<time>2020-09-10T12:52:42Z</time>
</trkpt>
<trkpt lat="48.467052" lon="10.396642">
<ele>393.929</ele>
<time>2020-09-10T12:52:43Z</time>
</trkpt>
<trkpt lat="48.466991" lon="10.396703">
<ele>393.929</ele>
<time>2020-09-10T12:52:44Z</time>
</trkpt>
<trkpt lat="48.466934" lon="10.396767">
<ele>393.929</ele>
<time>2020-09-10T12:52:45Z</time>
</trkpt>
<trkpt lat="48.466877" lon="10.396831">
<ele>393.929</ele>
<time>2020-09-10T12:52:46Z</time>
</trkpt>
<trkpt lat="48.466816" lon="10.396895">
<ele>393.929</ele>
<time>2020-09-10T12:52:47Z</time>
</trkpt>
<trkpt lat="48.466759" lon="10.396962">
<ele>393.929</ele>
<time>2020-09-10T12:52:48Z</time>
</trkpt>
<trkpt lat="48.466705" lon="10.39703">
<ele>393.929</ele>
<time>2020-09-10T12:52:49Z</time>
</trkpt>
<trkpt lat="48.466648" lon="10.3971">
<ele>393.929</ele>
<time>2020-09-10T12:52:50Z</time>
</trkpt>
<trkpt lat="48.466591" lon="10.397168">
<ele>393.929</ele>
<time>2020-09-10T12:52:51Z</time>
</trkpt>
<trkpt lat="48.466541" lon="10.397239">
<ele>393.929</ele>
<time>2020-09-10T12:52:52Z</time>
</trkpt>
<trkpt lat="48.466488" lon="10.397306">
<ele>393.929</ele>
<time>2020-09-10T12:52:53Z</time>
</trkpt>
<trkpt lat="48.466434" lon="10.397377">
<ele>393.929</ele>
<time>2020-09-10T12:52:54Z</time>
</trkpt>
<trkpt lat="48.466385" lon="10.397447">
<ele>393.929</ele>
<time>2020-09-10T12:52:55Z</time>
</trkpt>
<trkpt lat="48.466331" lon="10.397515">
<ele>393.929</ele>
<time>2020-09-10T12:52:56Z</time>
</trkpt>
<trkpt lat="48.466282" lon="10.397583">
<ele>393.929</ele>
<time>2020-09-10T12:52:57Z</time>
</trkpt>
<trkpt lat="48.466228" lon="10.39765">
<ele>393.929</ele>
<time>2020-09-10T12:52:58Z</time>
</trkpt>
<trkpt lat="48.466179" lon="10.397717">
<ele>393.929</ele>
<time>2020-09-10T12:52:59Z</time>
</trkpt>
<trkpt lat="48.466129" lon="10.397783">
<ele>393.929</ele>
<time>2020-09-10T12:53:00Z</time>
</trkpt>
<trkpt lat="48.466084" lon="10.397851">
<ele>393.929</ele>
<time>2020-09-10T12:53:01Z</time>
</trkpt>
<trkpt lat="48.46603" lon="10.397922">
<ele>393.929</ele>
<time>2020-09-10T12:53:02Z</time>
</trkpt>
<trkpt lat="48.465984" lon="10.397989">
<ele>393.929</ele>
<time>2020-09-10T12:53:03Z</time>
</trkpt>
<trkpt lat="48.465935" lon="10.398056">
<ele>393.929</ele>
<time>2020-09-10T12:53:04Z</time>
</trkpt>
<trkpt lat="48.465885" lon="10.398125">
<ele>393.929</ele>
<time>2020-09-10T12:53:05Z</time>
</trkpt>
<trkpt lat="48.465836" lon="10.398192">
<ele>393.929</ele>
<time>2020-09-10T12:53:06Z</time>
</trkpt>
<trkpt lat="48.465786" lon="10.398258">
<ele>393.929</ele>
<time>2020-09-10T12:53:07Z</time>
</trkpt>
<trkpt lat="48.465736" lon="10.398325">
<ele>393.929</ele>
<time>2020-09-10T12:53:08Z</time>
</trkpt>
<trkpt lat="48.465687" lon="10.398394">
<ele>393.929</ele>
<time>2020-09-10T12:53:09Z</time>
</trkpt>
<trkpt lat="48.465641" lon="10.39846">
<ele>393.929</ele>
<time>2020-09-10T12:53:10Z</time>
</trkpt>
<trkpt lat="48.465588" lon="10.39853">
<ele>393.929</ele>
<time>2020-09-10T12:53:11Z</time>
</trkpt>
<trkpt lat="48.465534" lon="10.398601">
<ele>394.216</ele>
<time>2020-09-10T12:53:12Z</time>
</trkpt>
<trkpt lat="48.465477" lon="10.398672">
<ele>394.437</ele>
<time>2020-09-10T12:53:13Z</time>
</trkpt>
<trkpt lat="48.465427" lon="10.398746">
<ele>394.601</ele>
<time>2020-09-10T12:53:14Z</time>
</trkpt>
<trkpt lat="48.465378" lon="10.398819">
<ele>394.721</ele>
<time>2020-09-10T12:53:15Z</time>
</trkpt>
<trkpt lat="48.465321" lon="10.398891">
<ele>394.806</ele>
<time>2020-09-10T12:53:16Z</time>
</trkpt>
<trkpt lat="48.465267" lon="10.398965">
<ele>394.852</ele>
<time>2020-09-10T12:53:17Z</time>
</trkpt>
<trkpt lat="48.465218" lon="10.399038">
<ele>394.875</ele>
<time>2020-09-10T12:53:18Z</time>
</trkpt>
<trkpt lat="48.46516" lon="10.399112">
<ele>394.878</ele>
<time>2020-09-10T12:53:19Z</time>
</trkpt>
<trkpt lat="48.465107" lon="10.399185">
<ele>394.878</ele>
<time>2020-09-10T12:53:20Z</time>
</trkpt>
<trkpt lat="48.465054" lon="10.399259">
<ele>394.878</ele>
<time>2020-09-10T12:53:21Z</time>
</trkpt>
<trkpt lat="48.465" lon="10.399335">
<ele>394.593</ele>
<time>2020-09-10T12:53:22Z</time>
</trkpt>
<trkpt lat="48.464951" lon="10.399411">
<ele>394.374</ele>
<time>2020-09-10T12:53:23Z</time>
</trkpt>
<trkpt lat="48.464901" lon="10.399489">
<ele>394.21</ele>
<time>2020-09-10T12:53:24Z</time>
</trkpt>
<trkpt lat="48.464855" lon="10.399569">
<ele>394.09</ele>
<time>2020-09-10T12:53:25Z</time>
</trkpt>
<trkpt lat="48.464806" lon="10.399645">
<ele>394.004</ele>
<time>2020-09-10T12:53:26Z</time>
</trkpt>
<trkpt lat="48.46476" lon="10.399725">
<ele>393.956</ele>
<time>2020-09-10T12:53:27Z</time>
</trkpt>
<trkpt lat="48.464722" lon="10.399807">
<ele>393.932</ele>
<time>2020-09-10T12:53:28Z</time>
</trkpt>
<trkpt lat="48.46468" lon="10.399888">
<ele>393.929</ele>
<time>2020-09-10T12:53:29Z</time>
</trkpt>
<trkpt lat="48.464634" lon="10.399971">
<ele>393.929</ele>
<time>2020-09-10T12:53:30Z</time>
</trkpt>
<trkpt lat="48.464596" lon="10.400055">
<ele>393.929</ele>
<time>2020-09-10T12:53:31Z</time>
</trkpt>
<trkpt lat="48.464558" lon="10.400142">
<ele>393.929</ele>
<time>2020-09-10T12:53:32Z</time>
</trkpt>
<trkpt lat="48.464523" lon="10.40023">
<ele>393.929</ele>
<time>2020-09-10T12:53:33Z</time>
</trkpt>
<trkpt lat="48.464485" lon="10.400318">
<ele>393.929</ele>
<time>2020-09-10T12:53:34Z</time>
</trkpt>
<trkpt lat="48.464451" lon="10.400407">
<ele>393.929</ele>
<time>2020-09-10T12:53:35Z</time>
</trkpt>
<trkpt lat="48.464413" lon="10.400495">
<ele>393.929</ele>
<time>2020-09-10T12:53:36Z</time>
</trkpt>
<trkpt lat="48.464378" lon="10.400581">
<ele>393.929</ele>
<time>2020-09-10T12:53:37Z</time>
</trkpt>
<trkpt lat="48.464348" lon="10.400671">
<ele>393.929</ele>
<time>2020-09-10T12:53:38Z</time>
</trkpt>
<trkpt lat="48.464314" lon="10.400762">
<ele>393.929</ele>
<time>2020-09-10T12:53:39Z</time>
</trkpt>
<trkpt lat="48.464283" lon="10.400853">
<ele>393.929</ele>
<time>2020-09-10T12:53:40Z</time>
</trkpt>
<trkpt lat="48.464256" lon="10.400945">
<ele>393.929</ele>
<time>2020-09-10T12:53:41Z</time>
</trkpt>
<trkpt lat="48.46423" lon="10.40104">
<ele>393.929</ele>
<time>2020-09-10T12:53:42Z</time>
</trkpt>
<trkpt lat="48.464207" lon="10.401134">
<ele>393.929</ele>
<time>2020-09-10T12:53:43Z</time>
</trkpt>
<trkpt lat="48.464191" lon="10.401228">
<ele>393.929</ele>
<time>2020-09-10T12:53:44Z</time>
</trkpt>
<trkpt lat="48.464172" lon="10.401322">
<ele>393.929</ele>
<time>2020-09-10T12:53:45Z</time>
</trkpt>
<trkpt lat="48.464149" lon="10.401417">
<ele>393.929</ele>
<time>2020-09-10T12:53:46Z</time>
</trkpt>
<trkpt lat="48.464134" lon="10.40151">
<ele>393.929</ele>
<time>2020-09-10T12:53:47Z</time>
</trkpt>
<trkpt lat="48.464111" lon="10.401604">
<ele>393.929</ele>
<time>2020-09-10T12:53:48Z</time>
</trkpt>
<trkpt lat="48.464096" lon="10.401698">
<ele>393.929</ele>
<time>2020-09-10T12:53:49Z</time>
</trkpt>
<trkpt lat="48.464081" lon="10.401793">
<ele>394.158</ele>
<time>2020-09-10T12:53:50Z</time>
</trkpt>
<trkpt lat="48.464069" lon="10.401886">
<ele>394.375</ele>
<time>2020-09-10T12:53:51Z</time>
</trkpt>
<trkpt lat="48.464058" lon="10.401977">
<ele>394.553</ele>
<time>2020-09-10T12:53:52Z</time>
</trkpt>
<trkpt lat="48.464046" lon="10.402068">
<ele>394.696</ele>
<time>2020-09-10T12:53:53Z</time>
</trkpt>
<trkpt lat="48.464039" lon="10.402161">
<ele>394.806</ele>
<time>2020-09-10T12:53:54Z</time>
</trkpt>
<trkpt lat="48.464027" lon="10.40225">
<ele>394.887</ele>
<time>2020-09-10T12:53:55Z</time>
</trkpt>
<trkpt lat="48.464016" lon="10.40234">
<ele>394.939</ele>
<time>2020-09-10T12:53:56Z</time>
</trkpt>
<trkpt lat="48.464008" lon="10.402429">
<ele>394.964</ele>
<time>2020-09-10T12:53:57Z</time>
</trkpt>
<trkpt lat="48.464008" lon="10.402516">
<ele>394.964</ele>
<time>2020-09-10T12:53:58Z</time>
</trkpt>
<trkpt lat="48.464005" lon="10.402607">
<ele>394.964</ele>
<time>2020-09-10T12:53:59Z</time>
</trkpt>
<trkpt lat="48.464005" lon="10.402695">
<ele>394.964</ele>
<time>2020-09-10T12:54:00Z</time>
</trkpt>
<trkpt lat="48.464005" lon="10.402785">
<ele>394.964</ele>
<time>2020-09-10T12:54:01Z</time>
</trkpt>
<trkpt lat="48.464001" lon="10.402875">
<ele>394.964</ele>
<time>2020-09-10T12:54:02Z</time>
</trkpt>
<trkpt lat="48.464001" lon="10.402966">
<ele>394.964</ele>
<time>2020-09-10T12:54:03Z</time>
</trkpt>
<trkpt lat="48.464001" lon="10.403059">
<ele>394.964</ele>
<time>2020-09-10T12:54:04Z</time>
</trkpt>
<trkpt lat="48.464001" lon="10.40315">
<ele>394.964</ele>
<time>2020-09-10T12:54:05Z</time>
</trkpt>
<trkpt lat="48.464005" lon="10.403243">
<ele>395.194</ele>
<time>2020-09-10T12:54:06Z</time>
</trkpt>
<trkpt lat="48.464008" lon="10.403336">
<ele>395.374</ele>
<time>2020-09-10T12:54:07Z</time>
</trkpt>
<trkpt lat="48.464008" lon="10.403426">
<ele>395.512</ele>
<time>2020-09-10T12:54:08Z</time>
</trkpt>
<trkpt lat="48.464008" lon="10.403517">
<ele>395.613</ele>
<time>2020-09-10T12:54:09Z</time>
</trkpt>
<trkpt lat="48.464008" lon="10.403602">
<ele>395.684</ele>
<time>2020-09-10T12:54:10Z</time>
</trkpt>
<trkpt lat="48.464012" lon="10.403687">
<ele>395.757</ele>
<time>2020-09-10T12:54:11Z</time>
</trkpt>
<trkpt lat="48.464016" lon="10.403769">
<ele>395.804</ele>
<time>2020-09-10T12:54:12Z</time>
</trkpt>
<trkpt lat="48.464016" lon="10.403853">
<ele>395.827</ele>
<time>2020-09-10T12:54:13Z</time>
</trkpt>
<trkpt lat="48.464016" lon="10.403935">
<ele>395.827</ele>
<time>2020-09-10T12:54:14Z</time>
</trkpt>
<trkpt lat="48.46402" lon="10.404018">
<ele>395.827</ele>
<time>2020-09-10T12:54:15Z</time>
</trkpt>
<trkpt lat="48.46402" lon="10.404102">
<ele>396.073</ele>
<time>2020-09-10T12:54:16Z</time>
</trkpt>
<trkpt lat="48.464024" lon="10.404184">
<ele>396.269</ele>
<time>2020-09-10T12:54:17Z</time>
</trkpt>
<trkpt lat="48.464024" lon="10.404265">
<ele>396.422</ele>
<time>2020-09-10T12:54:18Z</time>
</trkpt>
<trkpt lat="48.464027" lon="10.404346">
<ele>396.537</ele>
<time>2020-09-10T12:54:19Z</time>
</trkpt>
<trkpt lat="48.464031" lon="10.404427">
<ele>396.617</ele>
<time>2020-09-10T12:54:20Z</time>
</trkpt>
<trkpt lat="48.464035" lon="10.404507">
<ele>396.696</ele>
<time>2020-09-10T12:54:21Z</time>
</trkpt>
<trkpt lat="48.464035" lon="10.404585">
<ele>397</ele>
<time>2020-09-10T12:54:22Z</time>
</trkpt>
<trkpt lat="48.464039" lon="10.404664">
<ele>397.235</ele>
<time>2020-09-10T12:54:23Z</time>
</trkpt>
<trkpt lat="48.464039" lon="10.404737">
<ele>397.498</ele>
<time>2020-09-10T12:54:24Z</time>
</trkpt>
<trkpt lat="48.464039" lon="10.40481">
<ele>397.635</ele>
<time>2020-09-10T12:54:25Z</time>
</trkpt>
<trkpt lat="48.464035" lon="10.40488">
<ele>397.728</ele>
<time>2020-09-10T12:54:26Z</time>
</trkpt>
<trkpt lat="48.464016" lon="10.404942">
<ele>397.784</ele>
<time>2020-09-10T12:54:27Z</time>
</trkpt>
<trkpt lat="48.463989" lon="10.404997">
<ele>397.807</ele>
<time>2020-09-10T12:54:28Z</time>
</trkpt>
<trkpt lat="48.463963" lon="10.405051">
<ele>397.811</ele>
<time>2020-09-10T12:54:29Z</time>
</trkpt>
<trkpt lat="48.463943" lon="10.405112">
<ele>397.811</ele>
<time>2020-09-10T12:54:30Z</time>
</trkpt>
<trkpt lat="48.46394" lon="10.405177">
<ele>397.811</ele>
<time>2020-09-10T12:54:31Z</time>
</trkpt>
<trkpt lat="48.463936" lon="10.405249">
<ele>397.811</ele>
<time>2020-09-10T12:54:32Z</time>
</trkpt>
<trkpt lat="48.463932" lon="10.40532">
<ele>397.811</ele>
<time>2020-09-10T12:54:33Z</time>
</trkpt>
<trkpt lat="48.463924" lon="10.405394">
<ele>397.811</ele>
<time>2020-09-10T12:54:34Z</time>
</trkpt>
<trkpt lat="48.463917" lon="10.405467">
<ele>397.811</ele>
<time>2020-09-10T12:54:35Z</time>
</trkpt>
<trkpt lat="48.463909" lon="10.405541">
<ele>397.811</ele>
<time>2020-09-10T12:54:36Z</time>
</trkpt>
<trkpt lat="48.463898" lon="10.405618">
<ele>397.811</ele>
<time>2020-09-10T12:54:37Z</time>
</trkpt>
<trkpt lat="48.463886" lon="10.405693">
<ele>397.811</ele>
<time>2020-09-10T12:54:38Z</time>
</trkpt>
<trkpt lat="48.463879" lon="10.40577">
<ele>397.811</ele>
<time>2020-09-10T12:54:39Z</time>
</trkpt>
<trkpt lat="48.463863" lon="10.405846">
<ele>397.811</ele>
<time>2020-09-10T12:54:40Z</time>
</trkpt>
<trkpt lat="48.463848" lon="10.40592">
<ele>397.811</ele>
<time>2020-09-10T12:54:41Z</time>
</trkpt>
<trkpt lat="48.463829" lon="10.405994">
<ele>397.811</ele>
<time>2020-09-10T12:54:42Z</time>
</trkpt>
<trkpt lat="48.46381" lon="10.406068">
<ele>397.811</ele>
<time>2020-09-10T12:54:43Z</time>
</trkpt>
<trkpt lat="48.463783" lon="10.406138">
<ele>397.811</ele>
<time>2020-09-10T12:54:44Z</time>
</trkpt>
<trkpt lat="48.46376" lon="10.40621">
<ele>397.811</ele>
<time>2020-09-10T12:54:45Z</time>
</trkpt>
<trkpt lat="48.463737" lon="10.40628">
<ele>397.811</ele>
<time>2020-09-10T12:54:46Z</time>
</trkpt>
<trkpt lat="48.463715" lon="10.40635">
<ele>397.811</ele>
<time>2020-09-10T12:54:47Z</time>
</trkpt>
<trkpt lat="48.463688" lon="10.406422">
<ele>397.811</ele>
<time>2020-09-10T12:54:48Z</time>
</trkpt>
<trkpt lat="48.463665" lon="10.40649">
<ele>397.811</ele>
<time>2020-09-10T12:54:49Z</time>
</trkpt>
<trkpt lat="48.463638" lon="10.406556">
<ele>397.811</ele>
<time>2020-09-10T12:54:50Z</time>
</trkpt>
<trkpt lat="48.463615" lon="10.406625">
<ele>397.811</ele>
<time>2020-09-10T12:54:51Z</time>
</trkpt>
<trkpt lat="48.463589" lon="10.406694">
<ele>397.811</ele>
<time>2020-09-10T12:54:52Z</time>
</trkpt>
<trkpt lat="48.463562" lon="10.406763">
<ele>397.811</ele>
<time>2020-09-10T12:54:53Z</time>
</trkpt>
<trkpt lat="48.463535" lon="10.406833">
<ele>397.811</ele>
<time>2020-09-10T12:54:54Z</time>
</trkpt>
<trkpt lat="48.463512" lon="10.406903">
<ele>398.071</ele>
<time>2020-09-10T12:54:55Z</time>
</trkpt>
<trkpt lat="48.46349" lon="10.406975">
<ele>398.273</ele>
<time>2020-09-10T12:54:56Z</time>
</trkpt>
<trkpt lat="48.463463" lon="10.407044">
<ele>398.426</ele>
<time>2020-09-10T12:54:57Z</time>
</trkpt>
<trkpt lat="48.46344" lon="10.407117">
<ele>398.54</ele>
<time>2020-09-10T12:54:58Z</time>
</trkpt>
<trkpt lat="48.463417" lon="10.407185">
<ele>398.623</ele>
<time>2020-09-10T12:54:59Z</time>
</trkpt>
<trkpt lat="48.46339" lon="10.407255">
<ele>398.681</ele>
<time>2020-09-10T12:55:00Z</time>
</trkpt>
<trkpt lat="48.463364" lon="10.407323">
<ele>398.734</ele>
<time>2020-09-10T12:55:01Z</time>
</trkpt>
<trkpt lat="48.463345" lon="10.407394">
<ele>398.76</ele>
<time>2020-09-10T12:55:02Z</time>
</trkpt>
<trkpt lat="48.463326" lon="10.407467">
<ele>398.76</ele>
<time>2020-09-10T12:55:03Z</time>
</trkpt>
<trkpt lat="48.46331" lon="10.407538">
<ele>398.76</ele>
<time>2020-09-10T12:55:04Z</time>
</trkpt>
<trkpt lat="48.463291" lon="10.407607">
<ele>398.76</ele>
<time>2020-09-10T12:55:05Z</time>
</trkpt>
<trkpt lat="48.463276" lon="10.407673">
<ele>398.76</ele>
<time>2020-09-10T12:55:06Z</time>
</trkpt>
<trkpt lat="48.463261" lon="10.40774">
<ele>398.76</ele>
<time>2020-09-10T12:55:07Z</time>
</trkpt>
<trkpt lat="48.463253" lon="10.407802">
<ele>398.76</ele>
<time>2020-09-10T12:55:08Z</time>
</trkpt>
<trkpt lat="48.463253" lon="10.407862">
<ele>398.76</ele>
<time>2020-09-10T12:55:09Z</time>
</trkpt>
<trkpt lat="48.463253" lon="10.407924">
<ele>398.76</ele>
<time>2020-09-10T12:55:10Z</time>
</trkpt>
<trkpt lat="48.463257" lon="10.407987">
<ele>398.76</ele>
<time>2020-09-10T12:55:11Z</time>
</trkpt>
<trkpt lat="48.463261" lon="10.408051">
<ele>399.031</ele>
<time>2020-09-10T12:55:12Z</time>
</trkpt>
<trkpt lat="48.463276" lon="10.408116">
<ele>399.249</ele>
<time>2020-09-10T12:55:13Z</time>
</trkpt>
<trkpt lat="48.463295" lon="10.408182">
<ele>399.418</ele>
<time>2020-09-10T12:55:14Z</time>
</trkpt>
<trkpt lat="48.463318" lon="10.408249">
<ele>399.545</ele>
<time>2020-09-10T12:55:15Z</time>
</trkpt>
<trkpt lat="48.463341" lon="10.40831">
<ele>399.62</ele>
<time>2020-09-10T12:55:16Z</time>
</trkpt>
<trkpt lat="48.463367" lon="10.408366">
<ele>399.907</ele>
<time>2020-09-10T12:55:17Z</time>
</trkpt>
<trkpt lat="48.46339" lon="10.408422">
<ele>400.107</ele>
<time>2020-09-10T12:55:18Z</time>
</trkpt>
<trkpt lat="48.463421" lon="10.408477">
<ele>400.247</ele>
<time>2020-09-10T12:55:19Z</time>
</trkpt>
<trkpt lat="48.463444" lon="10.408533">
<ele>400.336</ele>
<time>2020-09-10T12:55:20Z</time>
</trkpt>
<trkpt lat="48.463467" lon="10.40859">
<ele>400.429</ele>
<time>2020-09-10T12:55:21Z</time>
</trkpt>
<trkpt lat="48.46349" lon="10.408645">
<ele>400.726</ele>
<time>2020-09-10T12:55:22Z</time>
</trkpt>
<trkpt lat="48.463516" lon="10.408702">
<ele>400.966</ele>
<time>2020-09-10T12:55:23Z</time>
</trkpt>
<trkpt lat="48.463535" lon="10.408756">
<ele>401.151</ele>
<time>2020-09-10T12:55:24Z</time>
</trkpt>
<trkpt lat="48.463554" lon="10.408813">
<ele>401.356</ele>
<time>2020-09-10T12:55:25Z</time>
</trkpt>
<trkpt lat="48.46357" lon="10.408872">
<ele>401.434</ele>
<time>2020-09-10T12:55:26Z</time>
</trkpt>
<trkpt lat="48.463581" lon="10.408932">
<ele>401.727</ele>
<time>2020-09-10T12:55:27Z</time>
</trkpt>
<trkpt lat="48.463593" lon="10.40899">
<ele>401.952</ele>
<time>2020-09-10T12:55:28Z</time>
</trkpt>
<trkpt lat="48.463608" lon="10.409047">
<ele>402.071</ele>
<time>2020-09-10T12:55:29Z</time>
</trkpt>
<trkpt lat="48.463619" lon="10.409106">
<ele>402.391</ele>
<time>2020-09-10T12:55:30Z</time>
</trkpt>
<trkpt lat="48.463619" lon="10.409172">
<ele>402.681</ele>
<time>2020-09-10T12:55:31Z</time>
</trkpt>
<trkpt lat="48.463608" lon="10.409231">
<ele>402.916</ele>
<time>2020-09-10T12:55:32Z</time>
</trkpt>
<trkpt lat="48.463585" lon="10.409282">
<ele>403.087</ele>
<time>2020-09-10T12:55:33Z</time>
</trkpt>
<trkpt lat="48.463551" lon="10.409318">
<ele>403.205</ele>
<time>2020-09-10T12:55:34Z</time>
</trkpt>
<trkpt lat="48.463512" lon="10.409351">
<ele>403.271</ele>
<time>2020-09-10T12:55:35Z</time>
</trkpt>
<trkpt lat="48.46347" lon="10.409382">
<ele>403.314</ele>
<time>2020-09-10T12:55:36Z</time>
</trkpt>
<trkpt lat="48.463428" lon="10.409405">
<ele>403.335</ele>
<time>2020-09-10T12:55:37Z</time>
</trkpt>
<trkpt lat="48.463387" lon="10.409431">
<ele>403.335</ele>
<time>2020-09-10T12:55:38Z</time>
</trkpt>
<trkpt lat="48.463345" lon="10.409455">
<ele>403.335</ele>
<time>2020-09-10T12:55:39Z</time>
</trkpt>
<trkpt lat="48.463299" lon="10.409492">
<ele>403.335</ele>
<time>2020-09-10T12:55:40Z</time>
</trkpt>
<trkpt lat="48.463253" lon="10.409532">
<ele>403.335</ele>
<time>2020-09-10T12:55:41Z</time>
</trkpt>
<trkpt lat="48.463207" lon="10.409575">
<ele>403.335</ele>
<time>2020-09-10T12:55:42Z</time>
</trkpt>
<trkpt lat="48.463161" lon="10.409623">
<ele>403.335</ele>
<time>2020-09-10T12:55:43Z</time>
</trkpt>
<trkpt lat="48.463112" lon="10.409672">
<ele>403.335</ele>
<time>2020-09-10T12:55:44Z</time>
</trkpt>
<trkpt lat="48.463062" lon="10.409721">
<ele>403.335</ele>
<time>2020-09-10T12:55:45Z</time>
</trkpt>
<trkpt lat="48.463013" lon="10.409772">
<ele>403.335</ele>
<time>2020-09-10T12:55:46Z</time>
</trkpt>
<trkpt lat="48.462963" lon="10.409823">
<ele>403.335</ele>
<time>2020-09-10T12:55:47Z</time>
</trkpt>
<trkpt lat="48.46291" lon="10.409875">
<ele>403.111</ele>
<time>2020-09-10T12:55:48Z</time>
</trkpt>
<trkpt lat="48.46286" lon="10.409929">
<ele>402.967</ele>
<time>2020-09-10T12:55:49Z</time>
</trkpt>
<trkpt lat="48.462807" lon="10.409986">
<ele>402.607</ele>
<time>2020-09-10T12:55:50Z</time>
</trkpt>
<trkpt lat="48.462757" lon="10.410042">
<ele>402.282</ele>
<time>2020-09-10T12:55:51Z</time>
</trkpt>
<trkpt lat="48.462708" lon="10.410098">
<ele>402.024</ele>
<time>2020-09-10T12:55:52Z</time>
</trkpt>
<trkpt lat="48.462662" lon="10.410155">
<ele>401.827</ele>
<time>2020-09-10T12:55:53Z</time>
</trkpt>
<trkpt lat="48.462608" lon="10.410212">
<ele>401.683</ele>
<time>2020-09-10T12:55:54Z</time>
</trkpt>
<trkpt lat="48.462559" lon="10.410262">
<ele>401.59</ele>
<time>2020-09-10T12:55:55Z</time>
</trkpt>
<trkpt lat="48.462509" lon="10.41031">
<ele>401.544</ele>
<time>2020-09-10T12:55:56Z</time>
</trkpt>
<trkpt lat="48.462452" lon="10.41035">
<ele>401.522</ele>
<time>2020-09-10T12:55:57Z</time>
</trkpt>
<trkpt lat="48.462399" lon="10.41037">
<ele>401.522</ele>
<time>2020-09-10T12:55:58Z</time>
</trkpt>
<trkpt lat="48.462337" lon="10.410374">
<ele>401.522</ele>
<time>2020-09-10T12:55:59Z</time>
</trkpt>
<trkpt lat="48.462284" lon="10.410357">
<ele>401.522</ele>
<time>2020-09-10T12:56:00Z</time>
</trkpt>
<trkpt lat="48.462223" lon="10.410327">
<ele>401.522</ele>
<time>2020-09-10T12:56:01Z</time>
</trkpt>
<trkpt lat="48.46217" lon="10.410288">
<ele>401.522</ele>
<time>2020-09-10T12:56:02Z</time>
</trkpt>
<trkpt lat="48.462116" lon="10.410245">
<ele>401.522</ele>
<time>2020-09-10T12:56:03Z</time>
</trkpt>
<trkpt lat="48.462059" lon="10.410198">
<ele>401.522</ele>
<time>2020-09-10T12:56:04Z</time>
</trkpt>
<trkpt lat="48.462009" lon="10.410151">
<ele>401.522</ele>
<time>2020-09-10T12:56:05Z</time>
</trkpt>
<trkpt lat="48.461956" lon="10.41011">
<ele>401.522</ele>
<time>2020-09-10T12:56:06Z</time>
</trkpt>
<trkpt lat="48.461895" lon="10.410071">
<ele>401.522</ele>
<time>2020-09-10T12:56:07Z</time>
</trkpt>
<trkpt lat="48.461842" lon="10.410042">
<ele>401.522</ele>
<time>2020-09-10T12:56:08Z</time>
</trkpt>
<trkpt lat="48.461781" lon="10.410028">
<ele>401.522</ele>
<time>2020-09-10T12:56:09Z</time>
</trkpt>
<trkpt lat="48.46172" lon="10.410028">
<ele>401.522</ele>
<time>2020-09-10T12:56:10Z</time>
</trkpt>
<trkpt lat="48.461662" lon="10.41004">
<ele>401.522</ele>
<time>2020-09-10T12:56:11Z</time>
</trkpt>
<trkpt lat="48.461597" lon="10.410057">
<ele>401.522</ele>
<time>2020-09-10T12:56:12Z</time>
</trkpt>
<trkpt lat="48.46154" lon="10.410073">
<ele>401.522</ele>
<time>2020-09-10T12:56:13Z</time>
</trkpt>
<trkpt lat="48.461487" lon="10.410095">
<ele>401.522</ele>
<time>2020-09-10T12:56:14Z</time>
</trkpt>
<trkpt lat="48.46143" lon="10.410122">
<ele>401.522</ele>
<time>2020-09-10T12:56:15Z</time>
</trkpt>
<trkpt lat="48.461369" lon="10.410149">
<ele>401.522</ele>
<time>2020-09-10T12:56:16Z</time>
</trkpt>
<trkpt lat="48.461315" lon="10.410174">
<ele>401.522</ele>
<time>2020-09-10T12:56:17Z</time>
</trkpt>
<trkpt lat="48.461266" lon="10.410202">
<ele>401.522</ele>
<time>2020-09-10T12:56:18Z</time>
</trkpt>
<trkpt lat="48.461212" lon="10.410229">
<ele>401.522</ele>
<time>2020-09-10T12:56:19Z</time>
</trkpt>
<trkpt lat="48.461166" lon="10.41025">
<ele>401.522</ele>
<time>2020-09-10T12:56:20Z</time>
</trkpt>
<trkpt lat="48.461121" lon="10.410267">
<ele>401.522</ele>
<time>2020-09-10T12:56:21Z</time>
</trkpt>
<trkpt lat="48.461075" lon="10.410275">
<ele>401.522</ele>
<time>2020-09-10T12:56:22Z</time>
</trkpt>
<trkpt lat="48.461037" lon="10.410273">
<ele>401.522</ele>
<time>2020-09-10T12:56:23Z</time>
</trkpt>
<trkpt lat="48.461002" lon="10.410258">
<ele>401.522</ele>
<time>2020-09-10T12:56:24Z</time>
</trkpt>
<trkpt lat="48.460964" lon="10.410232">
<ele>401.522</ele>
<time>2020-09-10T12:56:25Z</time>
</trkpt>
<trkpt lat="48.460934" lon="10.410195">
<ele>401.522</ele>
<time>2020-09-10T12:56:26Z</time>
</trkpt>
<trkpt lat="48.460899" lon="10.410149">
<ele>401.522</ele>
<time>2020-09-10T12:56:27Z</time>
</trkpt>
<trkpt lat="48.460869" lon="10.410098">
<ele>401.522</ele>
<time>2020-09-10T12:56:28Z</time>
</trkpt>
<trkpt lat="48.460838" lon="10.41005">
<ele>401.522</ele>
<time>2020-09-10T12:56:29Z</time>
</trkpt>
<trkpt lat="48.460804" lon="10.410003">
<ele>401.522</ele>
<time>2020-09-10T12:56:30Z</time>
</trkpt>
<trkpt lat="48.460777" lon="10.409952">
<ele>401.522</ele>
<time>2020-09-10T12:56:31Z</time>
</trkpt>
<trkpt lat="48.460754" lon="10.4099">
<ele>401.522</ele>
<time>2020-09-10T12:56:32Z</time>
</trkpt>
<trkpt lat="48.460743" lon="10.409855">
<ele>401.522</ele>
<time>2020-09-10T12:56:33Z</time>
</trkpt>
<trkpt lat="48.460732" lon="10.40982">
<ele>401.522</ele>
<time>2020-09-10T12:56:34Z</time>
</trkpt>
<trkpt lat="48.460724" lon="10.409797">
<ele>401.522</ele>
<time>2020-09-10T12:56:35Z</time>
</trkpt>
<trkpt lat="48.460716" lon="10.409779">
<ele>401.522</ele>
<time>2020-09-10T12:56:36Z</time>
</trkpt>
<trkpt lat="48.460716" lon="10.40977">
<ele>401.522</ele>
<time>2020-09-10T12:56:37Z</time>
</trkpt>
<trkpt lat="48.460709" lon="10.409759">
<ele>401.522</ele>
<time>2020-09-10T12:56:38Z</time>
</trkpt>
<trkpt lat="48.460697" lon="10.409742">
<ele>401.522</ele>
<time>2020-09-10T12:56:39Z</time>
</trkpt>
<trkpt lat="48.460678" lon="10.409728">
<ele>401.522</ele>
<time>2020-09-10T12:56:40Z</time>
</trkpt>
<trkpt lat="48.460651" lon="10.409718">
<ele>401.522</ele>
<time>2020-09-10T12:56:41Z</time>
</trkpt>
<trkpt lat="48.460617" lon="10.409721">
<ele>401.522</ele>
<time>2020-09-10T12:56:42Z</time>
</trkpt>
<trkpt lat="48.460583" lon="10.409737">
<ele>401.522</ele>
<time>2020-09-10T12:56:43Z</time>
</trkpt>
<trkpt lat="48.460545" lon="10.409763">
<ele>401.522</ele>
<time>2020-09-10T12:56:44Z</time>
</trkpt>
<trkpt lat="48.460506" lon="10.409795">
<ele>401.522</ele>
<time>2020-09-10T12:56:45Z</time>
</trkpt>
<trkpt lat="48.460468" lon="10.40983">
<ele>401.522</ele>
<time>2020-09-10T12:56:46Z</time>
</trkpt>
<trkpt lat="48.460426" lon="10.40987">
<ele>401.522</ele>
<time>2020-09-10T12:56:47Z</time>
</trkpt>
<trkpt lat="48.460388" lon="10.40991">
<ele>401.522</ele>
<time>2020-09-10T12:56:48Z</time>
</trkpt>
<trkpt lat="48.460346" lon="10.40995">
<ele>401.522</ele>
<time>2020-09-10T12:56:49Z</time>
</trkpt>
<trkpt lat="48.4603" lon="10.409993">
<ele>401.522</ele>
<time>2020-09-10T12:56:50Z</time>
</trkpt>
<trkpt lat="48.460258" lon="10.410035">
<ele>401.522</ele>
<time>2020-09-10T12:56:51Z</time>
</trkpt>
<trkpt lat="48.460213" lon="10.410076">
<ele>401.522</ele>
<time>2020-09-10T12:56:52Z</time>
</trkpt>
<trkpt lat="48.460163" lon="10.410118">
<ele>401.522</ele>
<time>2020-09-10T12:56:53Z</time>
</trkpt>
<trkpt lat="48.460114" lon="10.41016">
<ele>401.522</ele>
<time>2020-09-10T12:56:54Z</time>
</trkpt>
<trkpt lat="48.46006" lon="10.410198">
<ele>401.522</ele>
<time>2020-09-10T12:56:55Z</time>
</trkpt>
<trkpt lat="48.460011" lon="10.410239">
<ele>401.262</ele>
<time>2020-09-10T12:56:56Z</time>
</trkpt>
<trkpt lat="48.459961" lon="10.410285">
<ele>401.063</ele>
<time>2020-09-10T12:56:57Z</time>
</trkpt>
<trkpt lat="48.459904" lon="10.41033">
<ele>400.912</ele>
<time>2020-09-10T12:56:58Z</time>
</trkpt>
<trkpt lat="48.459854" lon="10.410377">
<ele>400.801</ele>
<time>2020-09-10T12:56:59Z</time>
</trkpt>
<trkpt lat="48.459805" lon="10.410423">
<ele>400.725</ele>
<time>2020-09-10T12:57:00Z</time>
</trkpt>
<trkpt lat="48.459751" lon="10.41047">
<ele>400.647</ele>
<time>2020-09-10T12:57:01Z</time>
</trkpt>
<trkpt lat="48.459694" lon="10.410516">
<ele>400.597</ele>
<time>2020-09-10T12:57:02Z</time>
</trkpt>
<trkpt lat="48.459644" lon="10.410566">
<ele>400.573</ele>
<time>2020-09-10T12:57:03Z</time>
</trkpt>
<trkpt lat="48.459591" lon="10.410614">
<ele>400.572</ele>
<time>2020-09-10T12:57:04Z</time>
</trkpt>
<trkpt lat="48.459538" lon="10.410662">
<ele>400.572</ele>
<time>2020-09-10T12:57:05Z</time>
</trkpt>
<trkpt lat="48.45948" lon="10.410708">
<ele>400.572</ele>
<time>2020-09-10T12:57:06Z</time>
</trkpt>
<trkpt lat="48.459423" lon="10.410757">
<ele>400.572</ele>
<time>2020-09-10T12:57:07Z</time>
</trkpt>
<trkpt lat="48.45937" lon="10.410809">
<ele>400.572</ele>
<time>2020-09-10T12:57:08Z</time>
</trkpt>
<trkpt lat="48.459316" lon="10.41086">
<ele>400.36</ele>
<time>2020-09-10T12:57:09Z</time>
</trkpt>
<trkpt lat="48.459259" lon="10.410915">
<ele>400.209</ele>
<time>2020-09-10T12:57:10Z</time>
</trkpt>
<trkpt lat="48.459202" lon="10.410972">
<ele>400.054</ele>
<time>2020-09-10T12:57:11Z</time>
</trkpt>
<trkpt lat="48.459148" lon="10.411029">
<ele>399.932</ele>
<time>2020-09-10T12:57:12Z</time>
</trkpt>
<trkpt lat="48.459091" lon="10.411088">
<ele>399.84</ele>
<time>2020-09-10T12:57:13Z</time>
</trkpt>
<trkpt lat="48.459042" lon="10.41115">
<ele>399.773</ele>
<time>2020-09-10T12:57:14Z</time>
</trkpt>
<trkpt lat="48.458988" lon="10.411218">
<ele>399.729</ele>
<time>2020-09-10T12:57:15Z</time>
</trkpt>
<trkpt lat="48.458939" lon="10.411288">
<ele>399.709</ele>
<time>2020-09-10T12:57:16Z</time>
</trkpt>
<trkpt lat="48.458889" lon="10.41136">
<ele>399.709</ele>
<time>2020-09-10T12:57:17Z</time>
</trkpt>
<trkpt lat="48.458839" lon="10.411438">
<ele>399.47</ele>
<time>2020-09-10T12:57:18Z</time>
</trkpt>
<trkpt lat="48.458794" lon="10.41152">
<ele>399.281</ele>
<time>2020-09-10T12:57:19Z</time>
</trkpt>
<trkpt lat="48.458763" lon="10.411609">
<ele>399.152</ele>
<time>2020-09-10T12:57:20Z</time>
</trkpt>
<trkpt lat="48.458725" lon="10.411694">
<ele>399.015</ele>
<time>2020-09-10T12:57:21Z</time>
</trkpt>
<trkpt lat="48.458691" lon="10.411777">
<ele>398.908</ele>
<time>2020-09-10T12:57:22Z</time>
</trkpt>
<trkpt lat="48.458652" lon="10.41186">
<ele>398.833</ele>
<time>2020-09-10T12:57:23Z</time>
</trkpt>
<trkpt lat="48.458618" lon="10.411944">
<ele>398.784</ele>
<time>2020-09-10T12:57:24Z</time>
</trkpt>
<trkpt lat="48.458584" lon="10.412032">
<ele>398.76</ele>
<time>2020-09-10T12:57:25Z</time>
</trkpt>
<trkpt lat="48.458553" lon="10.412116">
<ele>398.76</ele>
<time>2020-09-10T12:57:26Z</time>
</trkpt>
<trkpt lat="48.458523" lon="10.412207">
<ele>398.76</ele>
<time>2020-09-10T12:57:27Z</time>
</trkpt>
<trkpt lat="48.458496" lon="10.412294">
<ele>398.76</ele>
<time>2020-09-10T12:57:28Z</time>
</trkpt>
<trkpt lat="48.458466" lon="10.412385">
<ele>398.76</ele>
<time>2020-09-10T12:57:29Z</time>
</trkpt>
<trkpt lat="48.458439" lon="10.412475">
<ele>398.76</ele>
<time>2020-09-10T12:57:30Z</time>
</trkpt>
<trkpt lat="48.458416" lon="10.412563">
<ele>398.76</ele>
<time>2020-09-10T12:57:31Z</time>
</trkpt>
<trkpt lat="48.458385" lon="10.412653">
<ele>398.76</ele>
<time>2020-09-10T12:57:32Z</time>
</trkpt>
<trkpt lat="48.458359" lon="10.412742">
<ele>398.76</ele>
<time>2020-09-10T12:57:33Z</time>
</trkpt>
<trkpt lat="48.458336" lon="10.412831">
<ele>398.76</ele>
<time>2020-09-10T12:57:34Z</time>
</trkpt>
<trkpt lat="48.458305" lon="10.412918">
<ele>398.76</ele>
<time>2020-09-10T12:57:35Z</time>
</trkpt>
<trkpt lat="48.458286" lon="10.413005">
<ele>398.76</ele>
<time>2020-09-10T12:57:36Z</time>
</trkpt>
<trkpt lat="48.45826" lon="10.413091">
<ele>398.76</ele>
<time>2020-09-10T12:57:37Z</time>
</trkpt>
<trkpt lat="48.458233" lon="10.413177">
<ele>398.76</ele>
<time>2020-09-10T12:57:38Z</time>
</trkpt>
<trkpt lat="48.458206" lon="10.413262">
<ele>398.76</ele>
<time>2020-09-10T12:57:39Z</time>
</trkpt>
<trkpt lat="48.458176" lon="10.413346">
<ele>398.76</ele>
<time>2020-09-10T12:57:40Z</time>
</trkpt>
<trkpt lat="48.458153" lon="10.413432">
<ele>398.76</ele>
<time>2020-09-10T12:57:41Z</time>
</trkpt>
<trkpt lat="48.458126" lon="10.413516">
<ele>398.76</ele>
<time>2020-09-10T12:57:42Z</time>
</trkpt>
<trkpt lat="48.458099" lon="10.413602">
<ele>398.76</ele>
<time>2020-09-10T12:57:43Z</time>
</trkpt>
<trkpt lat="48.458073" lon="10.413687">
<ele>398.76</ele>
<time>2020-09-10T12:57:44Z</time>
</trkpt>
<trkpt lat="48.458046" lon="10.41377">
<ele>398.76</ele>
<time>2020-09-10T12:57:45Z</time>
</trkpt>
<trkpt lat="48.458012" lon="10.413852">
<ele>398.76</ele>
<time>2020-09-10T12:57:46Z</time>
</trkpt>
<trkpt lat="48.457985" lon="10.413935">
<ele>398.76</ele>
<time>2020-09-10T12:57:47Z</time>
</trkpt>
<trkpt lat="48.457954" lon="10.414019">
<ele>398.76</ele>
<time>2020-09-10T12:57:48Z</time>
</trkpt>
<trkpt lat="48.457928" lon="10.414099">
<ele>398.76</ele>
<time>2020-09-10T12:57:49Z</time>
</trkpt>
<trkpt lat="48.457893" lon="10.414178">
<ele>398.76</ele>
<time>2020-09-10T12:57:50Z</time>
</trkpt>
<trkpt lat="48.457863" lon="10.414257">
<ele>398.76</ele>
<time>2020-09-10T12:57:51Z</time>
</trkpt>
<trkpt lat="48.457829" lon="10.414335">
<ele>398.76</ele>
<time>2020-09-10T12:57:52Z</time>
</trkpt>
<trkpt lat="48.457794" lon="10.414411">
<ele>398.76</ele>
<time>2020-09-10T12:57:53Z</time>
</trkpt>
<trkpt lat="48.45776" lon="10.414486">
<ele>398.76</ele>
<time>2020-09-10T12:57:54Z</time>
</trkpt>
<trkpt lat="48.457726" lon="10.414561">
<ele>398.76</ele>
<time>2020-09-10T12:57:55Z</time>
</trkpt>
<trkpt lat="48.457687" lon="10.414635">
<ele>398.76</ele>
<time>2020-09-10T12:57:56Z</time>
</trkpt>
<trkpt lat="48.457653" lon="10.41471">
<ele>398.76</ele>
<time>2020-09-10T12:57:57Z</time>
</trkpt>
<trkpt lat="48.457615" lon="10.414785">
<ele>398.76</ele>
<time>2020-09-10T12:57:58Z</time>
</trkpt>
<trkpt lat="48.457581" lon="10.414861">
<ele>398.76</ele>
<time>2020-09-10T12:57:59Z</time>
</trkpt>
<trkpt lat="48.457539" lon="10.414935">
<ele>398.76</ele>
<time>2020-09-10T12:58:00Z</time>
</trkpt>
<trkpt lat="48.457504" lon="10.415009">
<ele>398.76</ele>
<time>2020-09-10T12:58:01Z</time>
</trkpt>
<trkpt lat="48.457462" lon="10.415083">
<ele>398.76</ele>
<time>2020-09-10T12:58:02Z</time>
</trkpt>
<trkpt lat="48.457424" lon="10.415156">
<ele>398.76</ele>
<time>2020-09-10T12:58:03Z</time>
</trkpt>
<trkpt lat="48.457386" lon="10.41523">
<ele>398.76</ele>
<time>2020-09-10T12:58:04Z</time>
</trkpt>
<trkpt lat="48.457348" lon="10.415305">
<ele>398.76</ele>
<time>2020-09-10T12:58:05Z</time>
</trkpt>
<trkpt lat="48.45731" lon="10.41538">
<ele>398.76</ele>
<time>2020-09-10T12:58:06Z</time>
</trkpt>
<trkpt lat="48.457268" lon="10.415456">
<ele>399.116</ele>
<time>2020-09-10T12:58:07Z</time>
</trkpt>
<trkpt lat="48.45723" lon="10.415528">
<ele>399.184</ele>
<time>2020-09-10T12:58:08Z</time>
</trkpt>
<trkpt lat="48.457188" lon="10.415602">
<ele>399.235</ele>
<time>2020-09-10T12:58:09Z</time>
</trkpt>
<trkpt lat="48.45715" lon="10.415675">
<ele>399.278</ele>
<time>2020-09-10T12:58:10Z</time>
</trkpt>
<trkpt lat="48.457108" lon="10.41575">
<ele>399.308</ele>
<time>2020-09-10T12:58:11Z</time>
</trkpt>
<trkpt lat="48.457069" lon="10.415825">
<ele>399.323</ele>
<time>2020-09-10T12:58:12Z</time>
</trkpt>
<trkpt lat="48.457035" lon="10.415904">
<ele>399.326</ele>
<time>2020-09-10T12:58:13Z</time>
</trkpt>
<trkpt lat="48.457001" lon="10.415979">
<ele>399.317</ele>
<time>2020-09-10T12:58:14Z</time>
</trkpt>
<trkpt lat="48.456963" lon="10.416055">
<ele>399.299</ele>
<time>2020-09-10T12:58:15Z</time>
</trkpt>
<trkpt lat="48.456924" lon="10.41613">
<ele>399.278</ele>
<time>2020-09-10T12:58:16Z</time>
</trkpt>
<trkpt lat="48.456886" lon="10.416205">
<ele>399.278</ele>
<time>2020-09-10T12:58:17Z</time>
</trkpt>
<trkpt lat="48.456848" lon="10.41628">
<ele>399.278</ele>
<time>2020-09-10T12:58:18Z</time>
</trkpt>
<trkpt lat="48.45681" lon="10.416355">
<ele>399.278</ele>
<time>2020-09-10T12:58:19Z</time>
</trkpt>
<trkpt lat="48.456776" lon="10.416432">
<ele>399.278</ele>
<time>2020-09-10T12:58:20Z</time>
</trkpt>
<trkpt lat="48.456741" lon="10.416507">
<ele>399.278</ele>
<time>2020-09-10T12:58:21Z</time>
</trkpt>
<trkpt lat="48.456707" lon="10.416583">
<ele>399.278</ele>
<time>2020-09-10T12:58:22Z</time>
</trkpt>
<trkpt lat="48.456673" lon="10.416661">
<ele>399.278</ele>
<time>2020-09-10T12:58:23Z</time>
</trkpt>
<trkpt lat="48.456635" lon="10.416737">
<ele>399.569</ele>
<time>2020-09-10T12:58:24Z</time>
</trkpt>
<trkpt lat="48.456596" lon="10.416814">
<ele>399.794</ele>
<time>2020-09-10T12:58:25Z</time>
</trkpt>
<trkpt lat="48.456558" lon="10.416891">
<ele>399.966</ele>
<time>2020-09-10T12:58:26Z</time>
</trkpt>
<trkpt lat="48.456528" lon="10.416971">
<ele>400.097</ele>
<time>2020-09-10T12:58:27Z</time>
</trkpt>
<trkpt lat="48.456493" lon="10.417055">
<ele>400.182</ele>
<time>2020-09-10T12:58:28Z</time>
</trkpt>
<trkpt lat="48.456467" lon="10.417136">
<ele>400.241</ele>
<time>2020-09-10T12:58:29Z</time>
</trkpt>
<trkpt lat="48.456436" lon="10.417222">
<ele>400.285</ele>
<time>2020-09-10T12:58:30Z</time>
</trkpt>
<trkpt lat="48.456409" lon="10.417305">
<ele>400.313</ele>
<time>2020-09-10T12:58:31Z</time>
</trkpt>
<trkpt lat="48.456379" lon="10.417388">
<ele>400.313</ele>
<time>2020-09-10T12:58:32Z</time>
</trkpt>
<trkpt lat="48.456348" lon="10.417474">
<ele>400.313</ele>
<time>2020-09-10T12:58:33Z</time>
</trkpt>
<trkpt lat="48.456322" lon="10.417557">
<ele>400.313</ele>
<time>2020-09-10T12:58:34Z</time>
</trkpt>
<trkpt lat="48.456295" lon="10.417639">
<ele>400.313</ele>
<time>2020-09-10T12:58:35Z</time>
</trkpt>
<trkpt lat="48.456272" lon="10.417719">
<ele>400.313</ele>
<time>2020-09-10T12:58:36Z</time>
</trkpt>
<trkpt lat="48.456249" lon="10.417802">
<ele>400.313</ele>
<time>2020-09-10T12:58:37Z</time>
</trkpt>
<trkpt lat="48.456226" lon="10.417882">
<ele>400.313</ele>
<time>2020-09-10T12:58:38Z</time>
</trkpt>
<trkpt lat="48.456207" lon="10.417965">
<ele>400.52</ele>
<time>2020-09-10T12:58:39Z</time>
</trkpt>
<trkpt lat="48.456188" lon="10.418048">
<ele>400.668</ele>
<time>2020-09-10T12:58:40Z</time>
</trkpt>
<trkpt lat="48.456169" lon="10.41813">
<ele>400.822</ele>
<time>2020-09-10T12:58:41Z</time>
</trkpt>
<trkpt lat="48.45615" lon="10.418213">
<ele>400.946</ele>
<time>2020-09-10T12:58:42Z</time>
</trkpt>
<trkpt lat="48.456131" lon="10.418297">
<ele>401.043</ele>
<time>2020-09-10T12:58:43Z</time>
</trkpt>
<trkpt lat="48.456116" lon="10.418382">
<ele>401.104</ele>
<time>2020-09-10T12:58:44Z</time>
</trkpt>
<trkpt lat="48.456093" lon="10.418468">
<ele>401.384</ele>
<time>2020-09-10T12:58:45Z</time>
</trkpt>
<trkpt lat="48.456074" lon="10.418553">
<ele>401.603</ele>
<time>2020-09-10T12:58:46Z</time>
</trkpt>
<trkpt lat="48.456055" lon="10.41864">
<ele>401.794</ele>
<time>2020-09-10T12:58:47Z</time>
</trkpt>
<trkpt lat="48.456032" lon="10.418724">
<ele>401.906</ele>
<time>2020-09-10T12:58:48Z</time>
</trkpt>
<trkpt lat="48.456009" lon="10.418806">
<ele>401.989</ele>
<time>2020-09-10T12:58:49Z</time>
</trkpt>
<trkpt lat="48.45599" lon="10.41889">
<ele>402.048</ele>
<time>2020-09-10T12:58:50Z</time>
</trkpt>
<trkpt lat="48.455967" lon="10.418974">
<ele>402.353</ele>
<time>2020-09-10T12:58:51Z</time>
</trkpt>
<trkpt lat="48.455948" lon="10.419057">
<ele>402.588</ele>
<time>2020-09-10T12:58:52Z</time>
</trkpt>
<trkpt lat="48.455925" lon="10.419137">
<ele>402.761</ele>
<time>2020-09-10T12:58:53Z</time>
</trkpt>
<trkpt lat="48.455902" lon="10.419218">
<ele>402.901</ele>
<time>2020-09-10T12:58:54Z</time>
</trkpt>
<trkpt lat="48.455879" lon="10.419298">
<ele>403.008</ele>
<time>2020-09-10T12:58:55Z</time>
</trkpt>
<trkpt lat="48.455856" lon="10.419374">
<ele>403.087</ele>
<time>2020-09-10T12:58:56Z</time>
</trkpt>
<trkpt lat="48.455826" lon="10.419449">
<ele>403.137</ele>
<time>2020-09-10T12:58:57Z</time>
</trkpt>
<trkpt lat="48.455795" lon="10.419518">
<ele>403.162</ele>
<time>2020-09-10T12:58:58Z</time>
</trkpt>
<trkpt lat="48.455769" lon="10.41959">
<ele>403.162</ele>
<time>2020-09-10T12:58:59Z</time>
</trkpt>
<trkpt lat="48.455746" lon="10.419663">
<ele>403.162</ele>
<time>2020-09-10T12:59:00Z</time>
</trkpt>
<trkpt lat="48.455723" lon="10.419735">
<ele>403.162</ele>
<time>2020-09-10T12:59:01Z</time>
</trkpt>
<trkpt lat="48.455708" lon="10.419807">
<ele>403.162</ele>
<time>2020-09-10T12:59:02Z</time>
</trkpt>
<trkpt lat="48.455692" lon="10.41988">
<ele>403.162</ele>
<time>2020-09-10T12:59:03Z</time>
</trkpt>
<trkpt lat="48.455673" lon="10.419951">
<ele>403.162</ele>
<time>2020-09-10T12:59:04Z</time>
</trkpt>
<trkpt lat="48.455654" lon="10.420021">
<ele>403.162</ele>
<time>2020-09-10T12:59:05Z</time>
</trkpt>
<trkpt lat="48.455624" lon="10.420084">
<ele>403.162</ele>
<time>2020-09-10T12:59:06Z</time>
</trkpt>
<trkpt lat="48.455582" lon="10.420142">
<ele>403.162</ele>
<time>2020-09-10T12:59:07Z</time>
</trkpt>
<trkpt lat="48.455544" lon="10.420199">
<ele>403.162</ele>
<time>2020-09-10T12:59:08Z</time>
</trkpt>
<trkpt lat="48.455502" lon="10.420256">
<ele>403.162</ele>
<time>2020-09-10T12:59:09Z</time>
</trkpt>
<trkpt lat="48.45546" lon="10.42031">
<ele>403.162</ele>
<time>2020-09-10T12:59:10Z</time>
</trkpt>
<trkpt lat="48.455418" lon="10.420365">
<ele>403.162</ele>
<time>2020-09-10T12:59:11Z</time>
</trkpt>
<trkpt lat="48.455372" lon="10.420422">
<ele>403.162</ele>
<time>2020-09-10T12:59:12Z</time>
</trkpt>
<trkpt lat="48.455326" lon="10.420473">
<ele>403.162</ele>
<time>2020-09-10T12:59:13Z</time>
</trkpt>
<trkpt lat="48.455276" lon="10.420527">
<ele>403.162</ele>
<time>2020-09-10T12:59:14Z</time>
</trkpt>
<trkpt lat="48.455231" lon="10.420576">
<ele>403.162</ele>
<time>2020-09-10T12:59:15Z</time>
</trkpt>
<trkpt lat="48.455173" lon="10.420627">
<ele>403.162</ele>
<time>2020-09-10T12:59:16Z</time>
</trkpt>
<trkpt lat="48.45512" lon="10.420677">
<ele>403.162</ele>
<time>2020-09-10T12:59:17Z</time>
</trkpt>
<trkpt lat="48.455063" lon="10.420725">
<ele>403.162</ele>
<time>2020-09-10T12:59:18Z</time>
</trkpt>
<trkpt lat="48.455009" lon="10.420772">
<ele>403.162</ele>
<time>2020-09-10T12:59:19Z</time>
</trkpt>
<trkpt lat="48.454948" lon="10.420817">
<ele>403.162</ele>
<time>2020-09-10T12:59:20Z</time>
</trkpt>
<trkpt lat="48.454895" lon="10.420861">
<ele>402.905</ele>
<time>2020-09-10T12:59:21Z</time>
</trkpt>
<trkpt lat="48.454838" lon="10.420907">
<ele>402.693</ele>
<time>2020-09-10T12:59:22Z</time>
</trkpt>
<trkpt lat="48.454781" lon="10.42095">
<ele>402.52</ele>
<time>2020-09-10T12:59:23Z</time>
</trkpt>
<trkpt lat="48.45472" lon="10.420992">
<ele>402.384</ele>
<time>2020-09-10T12:59:24Z</time>
</trkpt>
<trkpt lat="48.454655" lon="10.421031">
<ele>402.278</ele>
<time>2020-09-10T12:59:25Z</time>
</trkpt>
<trkpt lat="48.45459" lon="10.421066">
<ele>402.2</ele>
<time>2020-09-10T12:59:26Z</time>
</trkpt>
<trkpt lat="48.454525" lon="10.421097">
<ele>402.15</ele>
<time>2020-09-10T12:59:27Z</time>
</trkpt>
<trkpt lat="48.45446" lon="10.421127">
<ele>402.126</ele>
<time>2020-09-10T12:59:28Z</time>
</trkpt>
<trkpt lat="48.454391" lon="10.421155">
<ele>402.126</ele>
<time>2020-09-10T12:59:29Z</time>
</trkpt>
<trkpt lat="48.454327" lon="10.421185">
<ele>402.126</ele>
<time>2020-09-10T12:59:30Z</time>
</trkpt>
<trkpt lat="48.454262" lon="10.421213">
<ele>402.126</ele>
<time>2020-09-10T12:59:31Z</time>
</trkpt>
<trkpt lat="48.454197" lon="10.42124">
<ele>401.867</ele>
<time>2020-09-10T12:59:32Z</time>
</trkpt>
<trkpt lat="48.454132" lon="10.421267">
<ele>401.669</ele>
<time>2020-09-10T12:59:33Z</time>
</trkpt>
<trkpt lat="48.454067" lon="10.421293">
<ele>401.516</ele>
<time>2020-09-10T12:59:34Z</time>
</trkpt>
<trkpt lat="48.453999" lon="10.421318">
<ele>401.406</ele>
<time>2020-09-10T12:59:35Z</time>
</trkpt>
<trkpt lat="48.453934" lon="10.421347">
<ele>401.331</ele>
<time>2020-09-10T12:59:36Z</time>
</trkpt>
<trkpt lat="48.453869" lon="10.421375">
<ele>401.284</ele>
<time>2020-09-10T12:59:37Z</time>
</trkpt>
<trkpt lat="48.453804" lon="10.421404">
<ele>401.263</ele>
<time>2020-09-10T12:59:38Z</time>
</trkpt>
<trkpt lat="48.453739" lon="10.421433">
<ele>401.263</ele>
<time>2020-09-10T12:59:39Z</time>
</trkpt>
<trkpt lat="48.453671" lon="10.421463">
<ele>401.263</ele>
<time>2020-09-10T12:59:40Z</time>
</trkpt>
<trkpt lat="48.453598" lon="10.421492">
<ele>401.263</ele>
<time>2020-09-10T12:59:41Z</time>
</trkpt>
<trkpt lat="48.453529" lon="10.421521">
<ele>401.263</ele>
<time>2020-09-10T12:59:42Z</time>
</trkpt>
<trkpt lat="48.453457" lon="10.421555">
<ele>400.983</ele>
<time>2020-09-10T12:59:43Z</time>
</trkpt>
<trkpt lat="48.453388" lon="10.421588">
<ele>400.766</ele>
<time>2020-09-10T12:59:44Z</time>
</trkpt>
<trkpt lat="48.45332" lon="10.421626">
<ele>400.605</ele>
<time>2020-09-10T12:59:45Z</time>
</trkpt>
<trkpt lat="48.453255" lon="10.421665">
<ele>400.488</ele>
<time>2020-09-10T12:59:46Z</time>
</trkpt>
<trkpt lat="48.453186" lon="10.421707">
<ele>400.409</ele>
<time>2020-09-10T12:59:47Z</time>
</trkpt>
<trkpt lat="48.453121" lon="10.42175">
<ele>400.362</ele>
<time>2020-09-10T12:59:48Z</time>
</trkpt>
<trkpt lat="48.453053" lon="10.421795">
<ele>400.335</ele>
<time>2020-09-10T12:59:49Z</time>
</trkpt>
<trkpt lat="48.452988" lon="10.421838">
<ele>400.313</ele>
<time>2020-09-10T12:59:50Z</time>
</trkpt>
<trkpt lat="48.452919" lon="10.42188">
<ele>400.313</ele>
<time>2020-09-10T12:59:51Z</time>
</trkpt>
<trkpt lat="48.452854" lon="10.421926">
<ele>400.313</ele>
<time>2020-09-10T12:59:52Z</time>
</trkpt>
<trkpt lat="48.452789" lon="10.421971">
<ele>400.313</ele>
<time>2020-09-10T12:59:53Z</time>
</trkpt>
<trkpt lat="48.452724" lon="10.422024">
<ele>400.046</ele>
<time>2020-09-10T12:59:54Z</time>
</trkpt>
<trkpt lat="48.45266" lon="10.422078">
<ele>399.84</ele>
<time>2020-09-10T12:59:55Z</time>
</trkpt>
<trkpt lat="48.452599" lon="10.422135">
<ele>399.683</ele>
<time>2020-09-10T12:59:56Z</time>
</trkpt>
<trkpt lat="48.452538" lon="10.422195">
<ele>399.567</ele>
<time>2020-09-10T12:59:57Z</time>
</trkpt>
<trkpt lat="48.45248" lon="10.422255">
<ele>399.486</ele>
<time>2020-09-10T12:59:58Z</time>
</trkpt>
<trkpt lat="48.452423" lon="10.422317">
<ele>399.432</ele>
<time>2020-09-10T12:59:59Z</time>
</trkpt>
<trkpt lat="48.45237" lon="10.422382">
<ele>399.391</ele>
<time>2020-09-10T13:00:00Z</time>
</trkpt>
<trkpt lat="48.452312" lon="10.422447">
<ele>399.364</ele>
<time>2020-09-10T13:00:01Z</time>
</trkpt>
<trkpt lat="48.452263" lon="10.422514">
<ele>399.364</ele>
<time>2020-09-10T13:00:02Z</time>
</trkpt>
<trkpt lat="48.452209" lon="10.422584">
<ele>399.364</ele>
<time>2020-09-10T13:00:03Z</time>
</trkpt>
<trkpt lat="48.452164" lon="10.422652">
<ele>399.364</ele>
<time>2020-09-10T13:00:04Z</time>
</trkpt>
<trkpt lat="48.45211" lon="10.422722">
<ele>399.364</ele>
<time>2020-09-10T13:00:05Z</time>
</trkpt>
<trkpt lat="48.452065" lon="10.422791">
<ele>399.364</ele>
<time>2020-09-10T13:00:06Z</time>
</trkpt>
<trkpt lat="48.452015" lon="10.422865">
<ele>399.364</ele>
<time>2020-09-10T13:00:07Z</time>
</trkpt>
<trkpt lat="48.451969" lon="10.422938">
<ele>399.364</ele>
<time>2020-09-10T13:00:08Z</time>
</trkpt>
<trkpt lat="48.451923" lon="10.423013">
<ele>399.364</ele>
<time>2020-09-10T13:00:09Z</time>
</trkpt>
<trkpt lat="48.451881" lon="10.42309">
<ele>399.364</ele>
<time>2020-09-10T13:00:10Z</time>
</trkpt>
<trkpt lat="48.451839" lon="10.423168">
<ele>399.364</ele>
<time>2020-09-10T13:00:11Z</time>
</trkpt>
<trkpt lat="48.451797" lon="10.423248">
<ele>399.364</ele>
<time>2020-09-10T13:00:12Z</time>
</trkpt>
<trkpt lat="48.451756" lon="10.423326">
<ele>399.364</ele>
<time>2020-09-10T13:00:13Z</time>
</trkpt>
<trkpt lat="48.451717" lon="10.423405">
<ele>399.364</ele>
<time>2020-09-10T13:00:14Z</time>
</trkpt>
<trkpt lat="48.451675" lon="10.423487">
<ele>399.364</ele>
<time>2020-09-10T13:00:15Z</time>
</trkpt>
<trkpt lat="48.451633" lon="10.423568">
<ele>399.615</ele>
<time>2020-09-10T13:00:16Z</time>
</trkpt>
<trkpt lat="48.451595" lon="10.423648">
<ele>399.812</ele>
<time>2020-09-10T13:00:17Z</time>
</trkpt>
<trkpt lat="48.451557" lon="10.42373">
<ele>399.963</ele>
<time>2020-09-10T13:00:18Z</time>
</trkpt>
<trkpt lat="48.451523" lon="10.423812">
<ele>400.076</ele>
<time>2020-09-10T13:00:19Z</time>
</trkpt>
<trkpt lat="48.451488" lon="10.423895">
<ele>400.155</ele>
<time>2020-09-10T13:00:20Z</time>
</trkpt>
<trkpt lat="48.451454" lon="10.423979">
<ele>400.235</ele>
<time>2020-09-10T13:00:21Z</time>
</trkpt>
<trkpt lat="48.45142" lon="10.424062">
<ele>400.496</ele>
<time>2020-09-10T13:00:22Z</time>
</trkpt>
<trkpt lat="48.451389" lon="10.424145">
<ele>400.697</ele>
<time>2020-09-10T13:00:23Z</time>
</trkpt>
<trkpt lat="48.451355" lon="10.424229">
<ele>400.921</ele>
<time>2020-09-10T13:00:24Z</time>
</trkpt>
<trkpt lat="48.451317" lon="10.424308">
<ele>401.029</ele>
<time>2020-09-10T13:00:25Z</time>
</trkpt>
<trkpt lat="48.451275" lon="10.424388">
<ele>401.105</ele>
<time>2020-09-10T13:00:26Z</time>
</trkpt>
<trkpt lat="48.451237" lon="10.42447">
<ele>401.155</ele>
<time>2020-09-10T13:00:27Z</time>
</trkpt>
<trkpt lat="48.451199" lon="10.424548">
<ele>401.177</ele>
<time>2020-09-10T13:00:28Z</time>
</trkpt>
<trkpt lat="48.451157" lon="10.424624">
<ele>401.177</ele>
<time>2020-09-10T13:00:29Z</time>
</trkpt>
<trkpt lat="48.451115" lon="10.4247">
<ele>401.177</ele>
<time>2020-09-10T13:00:30Z</time>
</trkpt>
<trkpt lat="48.451069" lon="10.424768">
<ele>401.177</ele>
<time>2020-09-10T13:00:31Z</time>
</trkpt>
<trkpt lat="48.451023" lon="10.424835">
<ele>401.177</ele>
<time>2020-09-10T13:00:32Z</time>
</trkpt>
<trkpt lat="48.450977" lon="10.4249">
<ele>401.177</ele>
<time>2020-09-10T13:00:33Z</time>
</trkpt>
<trkpt lat="48.450928" lon="10.424965">
<ele>400.935</ele>
<time>2020-09-10T13:00:34Z</time>
</trkpt>
<trkpt lat="48.450882" lon="10.425029">
<ele>400.748</ele>
<time>2020-09-10T13:00:35Z</time>
</trkpt>
<trkpt lat="48.450836" lon="10.425092">
<ele>400.603</ele>
<time>2020-09-10T13:00:36Z</time>
</trkpt>
<trkpt lat="48.450783" lon="10.425152">
<ele>400.497</ele>
<time>2020-09-10T13:00:37Z</time>
</trkpt>
<trkpt lat="48.450737" lon="10.42521">
<ele>400.422</ele>
<time>2020-09-10T13:00:38Z</time>
</trkpt>
<trkpt lat="48.450684" lon="10.425267">
<ele>400.375</ele>
<time>2020-09-10T13:00:39Z</time>
</trkpt>
<trkpt lat="48.450634" lon="10.425323">
<ele>400.338</ele>
<time>2020-09-10T13:00:40Z</time>
</trkpt>
<trkpt lat="48.450584" lon="10.42538">
<ele>400.313</ele>
<time>2020-09-10T13:00:41Z</time>
</trkpt>
<trkpt lat="48.450531" lon="10.425431">
<ele>400.313</ele>
<time>2020-09-10T13:00:42Z</time>
</trkpt>
<trkpt lat="48.450481" lon="10.425481">
<ele>400.313</ele>
<time>2020-09-10T13:00:43Z</time>
</trkpt>
<trkpt lat="48.450428" lon="10.425529">
<ele>400.313</ele>
<time>2020-09-10T13:00:44Z</time>
</trkpt>
<trkpt lat="48.450378" lon="10.425577">
<ele>400.313</ele>
<time>2020-09-10T13:00:45Z</time>
</trkpt>
<trkpt lat="48.450321" lon="10.42562">
<ele>400.313</ele>
<time>2020-09-10T13:00:46Z</time>
</trkpt>
<trkpt lat="48.450268" lon="10.425663">
<ele>400.535</ele>
<time>2020-09-10T13:00:47Z</time>
</trkpt>
<trkpt lat="48.450214" lon="10.425705">
<ele>400.709</ele>
<time>2020-09-10T13:00:48Z</time>
</trkpt>
<trkpt lat="48.450157" lon="10.425747">
<ele>400.844</ele>
<time>2020-09-10T13:00:49Z</time>
</trkpt>
<trkpt lat="48.4501" lon="10.425787">
<ele>400.937</ele>
<time>2020-09-10T13:00:50Z</time>
</trkpt>
<trkpt lat="48.450043" lon="10.425825">
<ele>401.039</ele>
<time>2020-09-10T13:00:51Z</time>
</trkpt>
<trkpt lat="48.449982" lon="10.42586">
<ele>401.11</ele>
<time>2020-09-10T13:00:52Z</time>
</trkpt>
<trkpt lat="48.449921" lon="10.425894">
<ele>401.155</ele>
<time>2020-09-10T13:00:53Z</time>
</trkpt>
<trkpt lat="48.44986" lon="10.425927">
<ele>401.177</ele>
<time>2020-09-10T13:00:54Z</time>
</trkpt>
<trkpt lat="48.449795" lon="10.425957">
<ele>401.177</ele>
<time>2020-09-10T13:00:55Z</time>
</trkpt>
<trkpt lat="48.44973" lon="10.425982">
<ele>401.177</ele>
<time>2020-09-10T13:00:56Z</time>
</trkpt>
<trkpt lat="48.449665" lon="10.426008">
<ele>401.177</ele>
<time>2020-09-10T13:00:57Z</time>
</trkpt>
<trkpt lat="48.449604" lon="10.426032">
<ele>401.177</ele>
<time>2020-09-10T13:00:58Z</time>
</trkpt>
<trkpt lat="48.449547" lon="10.426057">
<ele>401.177</ele>
<time>2020-09-10T13:00:59Z</time>
</trkpt>
<trkpt lat="48.449486" lon="10.426076">
<ele>401.177</ele>
<time>2020-09-10T13:01:00Z</time>
</trkpt>
<trkpt lat="48.449421" lon="10.426091">
<ele>401.177</ele>
<time>2020-09-10T13:01:01Z</time>
</trkpt>
<trkpt lat="48.44936" lon="10.426107">
<ele>401.177</ele>
<time>2020-09-10T13:01:02Z</time>
</trkpt>
<trkpt lat="48.449299" lon="10.42612">
<ele>401.177</ele>
<time>2020-09-10T13:01:03Z</time>
</trkpt>
<trkpt lat="48.449238" lon="10.426133">
<ele>400.936</ele>
<time>2020-09-10T13:01:04Z</time>
</trkpt>
<trkpt lat="48.449173" lon="10.426149">
<ele>400.748</ele>
<time>2020-09-10T13:01:05Z</time>
</trkpt>
<trkpt lat="48.449108" lon="10.426167">
<ele>400.603</ele>
<time>2020-09-10T13:01:06Z</time>
</trkpt>
<trkpt lat="48.449043" lon="10.426183">
<ele>400.497</ele>
<time>2020-09-10T13:01:07Z</time>
</trkpt>
<trkpt lat="48.448982" lon="10.426198">
<ele>400.424</ele>
<time>2020-09-10T13:01:08Z</time>
</trkpt>
<trkpt lat="48.448917" lon="10.426212">
<ele>400.375</ele>
<time>2020-09-10T13:01:09Z</time>
</trkpt>
<trkpt lat="48.448853" lon="10.426227">
<ele>400.337</ele>
<time>2020-09-10T13:01:10Z</time>
</trkpt>
<trkpt lat="48.448792" lon="10.42624">
<ele>400.313</ele>
<time>2020-09-10T13:01:11Z</time>
</trkpt>
<trkpt lat="48.44873" lon="10.426254">
<ele>400.313</ele>
<time>2020-09-10T13:01:12Z</time>
</trkpt>
<trkpt lat="48.448673" lon="10.426271">
<ele>400.313</ele>
<time>2020-09-10T13:01:13Z</time>
</trkpt>
<trkpt lat="48.448616" lon="10.426288">
<ele>400.313</ele>
<time>2020-09-10T13:01:14Z</time>
</trkpt>
<trkpt lat="48.448559" lon="10.426304">
<ele>400.313</ele>
<time>2020-09-10T13:01:15Z</time>
</trkpt>
<trkpt lat="48.448502" lon="10.426318">
<ele>400.313</ele>
<time>2020-09-10T13:01:16Z</time>
</trkpt>
<trkpt lat="48.448448" lon="10.426333">
<ele>400.313</ele>
<time>2020-09-10T13:01:17Z</time>
</trkpt>
<trkpt lat="48.448395" lon="10.426353">
<ele>400.313</ele>
<time>2020-09-10T13:01:18Z</time>
</trkpt>
<trkpt lat="48.448345" lon="10.42637">
<ele>400.313</ele>
<time>2020-09-10T13:01:19Z</time>
</trkpt>
<trkpt lat="48.448299" lon="10.426388">
<ele>400.313</ele>
<time>2020-09-10T13:01:20Z</time>
</trkpt>
<trkpt lat="48.448254" lon="10.426407">
<ele>400.313</ele>
<time>2020-09-10T13:01:21Z</time>
</trkpt>
<trkpt lat="48.448204" lon="10.426417">
<ele>400.313</ele>
<time>2020-09-10T13:01:22Z</time>
</trkpt>
<trkpt lat="48.448158" lon="10.426418">
<ele>400.313</ele>
<time>2020-09-10T13:01:23Z</time>
</trkpt>
<trkpt lat="48.448112" lon="10.426417">
<ele>400.313</ele>
<time>2020-09-10T13:01:24Z</time>
</trkpt>
<trkpt lat="48.448067" lon="10.426418">
<ele>400.313</ele>
<time>2020-09-10T13:01:25Z</time>
</trkpt>
<trkpt lat="48.448013" lon="10.426425">
<ele>400.313</ele>
<time>2020-09-10T13:01:26Z</time>
</trkpt>
<trkpt lat="48.447968" lon="10.426438">
<ele>400.313</ele>
<time>2020-09-10T13:01:27Z</time>
</trkpt>
<trkpt lat="48.447914" lon="10.426458">
<ele>400.313</ele>
<time>2020-09-10T13:01:28Z</time>
</trkpt>
<trkpt lat="48.447861" lon="10.426485">
<ele>400.313</ele>
<time>2020-09-10T13:01:29Z</time>
</trkpt>
<trkpt lat="48.447807" lon="10.426517">
<ele>400.313</ele>
<time>2020-09-10T13:01:30Z</time>
</trkpt>
<trkpt lat="48.44775" lon="10.426548">
<ele>400.313</ele>
<time>2020-09-10T13:01:31Z</time>
</trkpt>
<trkpt lat="48.447697" lon="10.426585">
<ele>400.313</ele>
<time>2020-09-10T13:01:32Z</time>
</trkpt>
<trkpt lat="48.447643" lon="10.42663">
<ele>400.313</ele>
<time>2020-09-10T13:01:33Z</time>
</trkpt>
<trkpt lat="48.447598" lon="10.42668">
<ele>400.313</ele>
<time>2020-09-10T13:01:34Z</time>
</trkpt>
<trkpt lat="48.447548" lon="10.426736">
<ele>400.313</ele>
<time>2020-09-10T13:01:35Z</time>
</trkpt>
<trkpt lat="48.447502" lon="10.426792">
<ele>400.313</ele>
<time>2020-09-10T13:01:36Z</time>
</trkpt>
<trkpt lat="48.447453" lon="10.426848">
<ele>400.313</ele>
<time>2020-09-10T13:01:37Z</time>
</trkpt>
<trkpt lat="48.447407" lon="10.426904">
<ele>400.313</ele>
<time>2020-09-10T13:01:38Z</time>
</trkpt>
<trkpt lat="48.447361" lon="10.426953">
<ele>400.313</ele>
<time>2020-09-10T13:01:39Z</time>
</trkpt>
<trkpt lat="48.447311" lon="10.427005">
<ele>400.313</ele>
<time>2020-09-10T13:01:40Z</time>
</trkpt>
<trkpt lat="48.447262" lon="10.427056">
<ele>400.313</ele>
<time>2020-09-10T13:01:41Z</time>
</trkpt>
<trkpt lat="48.44722" lon="10.427105">
<ele>400.313</ele>
<time>2020-09-10T13:01:42Z</time>
</trkpt>
<trkpt lat="48.44717" lon="10.427153">
<ele>400.585</ele>
<time>2020-09-10T13:01:43Z</time>
</trkpt>
<trkpt lat="48.447128" lon="10.427198">
<ele>400.794</ele>
<time>2020-09-10T13:01:44Z</time>
</trkpt>
<trkpt lat="48.44709" lon="10.42724">
<ele>400.955</ele>
<time>2020-09-10T13:01:45Z</time>
</trkpt>
<trkpt lat="48.447056" lon="10.427275">
<ele>401.073</ele>
<time>2020-09-10T13:01:46Z</time>
</trkpt>
<trkpt lat="48.447025" lon="10.42731">
<ele>401.157</ele>
<time>2020-09-10T13:01:47Z</time>
</trkpt>
<trkpt lat="48.446991" lon="10.42733">
<ele>401.208</ele>
<time>2020-09-10T13:01:48Z</time>
</trkpt>
<trkpt lat="48.446972" lon="10.427335">
<ele>401.237</ele>
<time>2020-09-10T13:01:49Z</time>
</trkpt>
<trkpt lat="48.446953" lon="10.42734">
<ele>401.263</ele>
<time>2020-09-10T13:01:50Z</time>
</trkpt>
<trkpt lat="48.446934" lon="10.427357">
<ele>401.263</ele>
<time>2020-09-10T13:01:51Z</time>
</trkpt>
<trkpt lat="48.446918" lon="10.427388">
<ele>401.263</ele>
<time>2020-09-10T13:01:52Z</time>
</trkpt>
<trkpt lat="48.446915" lon="10.427428">
<ele>401.263</ele>
<time>2020-09-10T13:01:53Z</time>
</trkpt>
<trkpt lat="48.446915" lon="10.42748">
<ele>401.263</ele>
<time>2020-09-10T13:01:54Z</time>
</trkpt>
<trkpt lat="48.446922" lon="10.427542">
<ele>401.523</ele>
<time>2020-09-10T13:01:55Z</time>
</trkpt>
<trkpt lat="48.446922" lon="10.427613">
<ele>401.759</ele>
<time>2020-09-10T13:01:56Z</time>
</trkpt>
<trkpt lat="48.446922" lon="10.427691">
<ele>401.94</ele>
<time>2020-09-10T13:01:57Z</time>
</trkpt>
<trkpt lat="48.446918" lon="10.427773">
<ele>402.049</ele>
<time>2020-09-10T13:01:58Z</time>
</trkpt>
<trkpt lat="48.446911" lon="10.427855">
<ele>402.095</ele>
<time>2020-09-10T13:01:59Z</time>
</trkpt>
<trkpt lat="48.446899" lon="10.427938">
<ele>402.443</ele>
<time>2020-09-10T13:02:00Z</time>
</trkpt>
<trkpt lat="48.446884" lon="10.428019">
<ele>402.733</ele>
<time>2020-09-10T13:02:01Z</time>
</trkpt>
<trkpt lat="48.446869" lon="10.42809">
<ele>402.929</ele>
<time>2020-09-10T13:02:02Z</time>
</trkpt>
<trkpt lat="48.446846" lon="10.428152">
<ele>403.044</ele>
<time>2020-09-10T13:02:03Z</time>
</trkpt>
<trkpt lat="48.446815" lon="10.428203">
<ele>403.409</ele>
<time>2020-09-10T13:02:04Z</time>
</trkpt>
<trkpt lat="48.446781" lon="10.42824">
<ele>403.698</ele>
<time>2020-09-10T13:02:05Z</time>
</trkpt>
<trkpt lat="48.446747" lon="10.428271">
<ele>403.924</ele>
<time>2020-09-10T13:02:06Z</time>
</trkpt>
<trkpt lat="48.446709" lon="10.428307">
<ele>404.066</ele>
<time>2020-09-10T13:02:07Z</time>
</trkpt>
<trkpt lat="48.446671" lon="10.428345">
<ele>404.438</ele>
<time>2020-09-10T13:02:08Z</time>
</trkpt>
<trkpt lat="48.446636" lon="10.428385">
<ele>404.689</ele>
<time>2020-09-10T13:02:09Z</time>
</trkpt>
<trkpt lat="48.446602" lon="10.428425">
<ele>404.883</ele>
<time>2020-09-10T13:02:10Z</time>
</trkpt>
<trkpt lat="48.446564" lon="10.428465">
<ele>405.06</ele>
<time>2020-09-10T13:02:11Z</time>
</trkpt>
<trkpt lat="48.446529" lon="10.428502">
<ele>405.171</ele>
<time>2020-09-10T13:02:12Z</time>
</trkpt>
<trkpt lat="48.446491" lon="10.428538">
<ele>405.251</ele>
<time>2020-09-10T13:02:13Z</time>
</trkpt>
<trkpt lat="48.446457" lon="10.428577">
<ele>405.299</ele>
<time>2020-09-10T13:02:14Z</time>
</trkpt>
<trkpt lat="48.446419" lon="10.428617">
<ele>405.321</ele>
<time>2020-09-10T13:02:15Z</time>
</trkpt>
<trkpt lat="48.446381" lon="10.428653">
<ele>405.547</ele>
<time>2020-09-10T13:02:16Z</time>
</trkpt>
<trkpt lat="48.446342" lon="10.428688">
<ele>405.728</ele>
<time>2020-09-10T13:02:17Z</time>
</trkpt>
<trkpt lat="48.446308" lon="10.428719">
<ele>405.865</ele>
<time>2020-09-10T13:02:18Z</time>
</trkpt>
<trkpt lat="48.44627" lon="10.428749">
<ele>405.966</ele>
<time>2020-09-10T13:02:19Z</time>
</trkpt>
<trkpt lat="48.446232" lon="10.428773">
<ele>406.041</ele>
<time>2020-09-10T13:02:20Z</time>
</trkpt>
<trkpt lat="48.446198" lon="10.428798">
<ele>406.114</ele>
<time>2020-09-10T13:02:21Z</time>
</trkpt>
<trkpt lat="48.446163" lon="10.428815">
<ele>406.162</ele>
<time>2020-09-10T13:02:22Z</time>
</trkpt>
<trkpt lat="48.446133" lon="10.428824">
<ele>406.185</ele>
<time>2020-09-10T13:02:23Z</time>
</trkpt>
<trkpt lat="48.446102" lon="10.428828">
<ele>406.185</ele>
<time>2020-09-10T13:02:24Z</time>
</trkpt>
<trkpt lat="48.446064" lon="10.428831">
<ele>406.185</ele>
<time>2020-09-10T13:02:25Z</time>
</trkpt>
<trkpt lat="48.446026" lon="10.428831">
<ele>406.185</ele>
<time>2020-09-10T13:02:26Z</time>
</trkpt>
<trkpt lat="48.445984" lon="10.428828">
<ele>406.185</ele>
<time>2020-09-10T13:02:27Z</time>
</trkpt>
<trkpt lat="48.445942" lon="10.428823">
<ele>405.964</ele>
<time>2020-09-10T13:02:28Z</time>
</trkpt>
<trkpt lat="48.445896" lon="10.428819">
<ele>405.784</ele>
<time>2020-09-10T13:02:29Z</time>
</trkpt>
<trkpt lat="48.445847" lon="10.42881">
<ele>405.665</ele>
<time>2020-09-10T13:02:30Z</time>
</trkpt>
<trkpt lat="48.445793" lon="10.428802">
<ele>405.531</ele>
<time>2020-09-10T13:02:31Z</time>
</trkpt>
<trkpt lat="48.445744" lon="10.428789">
<ele>405.447</ele>
<time>2020-09-10T13:02:32Z</time>
</trkpt>
<trkpt lat="48.44569" lon="10.428781">
<ele>405.131</ele>
<time>2020-09-10T13:02:33Z</time>
</trkpt>
<trkpt lat="48.445637" lon="10.42877">
<ele>404.89</ele>
<time>2020-09-10T13:02:34Z</time>
</trkpt>
<trkpt lat="48.445583" lon="10.428761">
<ele>404.717</ele>
<time>2020-09-10T13:02:35Z</time>
</trkpt>
<trkpt lat="48.445526" lon="10.428757">
<ele>404.539</ele>
<time>2020-09-10T13:02:36Z</time>
</trkpt>
<trkpt lat="48.445473" lon="10.428754">
<ele>404.467</ele>
<time>2020-09-10T13:02:37Z</time>
</trkpt>
<trkpt lat="48.445419" lon="10.428749">
<ele>404.419</ele>
<time>2020-09-10T13:02:38Z</time>
</trkpt>
<trkpt lat="48.445366" lon="10.428741">
<ele>404.392</ele>
<time>2020-09-10T13:02:39Z</time>
</trkpt>
<trkpt lat="48.445312" lon="10.428737">
<ele>404.371</ele>
<time>2020-09-10T13:02:40Z</time>
</trkpt>
<trkpt lat="48.445259" lon="10.428737">
<ele>404.371</ele>
<time>2020-09-10T13:02:41Z</time>
</trkpt>
<trkpt lat="48.445206" lon="10.428741">
<ele>404.371</ele>
<time>2020-09-10T13:02:42Z</time>
</trkpt>
<trkpt lat="48.445152" lon="10.428749">
<ele>404.074</ele>
<time>2020-09-10T13:02:43Z</time>
</trkpt>
<trkpt lat="48.445099" lon="10.428755">
<ele>403.842</ele>
<time>2020-09-10T13:02:44Z</time>
</trkpt>
<trkpt lat="48.445042" lon="10.42876">
<ele>403.665</ele>
<time>2020-09-10T13:02:45Z</time>
</trkpt>
<trkpt lat="48.444992" lon="10.428766">
<ele>403.534</ele>
<time>2020-09-10T13:02:46Z</time>
</trkpt>
<trkpt lat="48.444939" lon="10.428773">
<ele>403.445</ele>
<time>2020-09-10T13:02:47Z</time>
</trkpt>
<trkpt lat="48.444885" lon="10.428781">
<ele>403.39</ele>
<time>2020-09-10T13:02:48Z</time>
</trkpt>
<trkpt lat="48.444832" lon="10.428781">
<ele>403.36</ele>
<time>2020-09-10T13:02:49Z</time>
</trkpt>
<trkpt lat="48.444778" lon="10.428775">
<ele>403.335</ele>
<time>2020-09-10T13:02:50Z</time>
</trkpt>
<trkpt lat="48.444717" lon="10.428766">
<ele>403.335</ele>
<time>2020-09-10T13:02:51Z</time>
</trkpt>
<trkpt lat="48.444664" lon="10.428745">
<ele>403.335</ele>
<time>2020-09-10T13:02:52Z</time>
</trkpt>
<trkpt lat="48.444614" lon="10.428703">
<ele>403.335</ele>
<time>2020-09-10T13:02:53Z</time>
</trkpt>
<trkpt lat="48.444576" lon="10.428649">
<ele>403.335</ele>
<time>2020-09-10T13:02:54Z</time>
</trkpt>
<trkpt lat="48.444534" lon="10.42859">
<ele>403.335</ele>
<time>2020-09-10T13:02:55Z</time>
</trkpt>
<trkpt lat="48.444496" lon="10.428534">
<ele>403.335</ele>
<time>2020-09-10T13:02:56Z</time>
</trkpt>
<trkpt lat="48.444454" lon="10.42848">
<ele>403.335</ele>
<time>2020-09-10T13:02:57Z</time>
</trkpt>
<trkpt lat="48.444416" lon="10.428429">
<ele>403.335</ele>
<time>2020-09-10T13:02:58Z</time>
</trkpt>
<trkpt lat="48.444382" lon="10.428362">
<ele>403.335</ele>
<time>2020-09-10T13:02:59Z</time>
</trkpt>
<trkpt lat="48.444355" lon="10.428284">
<ele>403.335</ele>
<time>2020-09-10T13:03:00Z</time>
</trkpt>
<trkpt lat="48.444332" lon="10.428202">
<ele>403.335</ele>
<time>2020-09-10T13:03:01Z</time>
</trkpt>
<trkpt lat="48.444309" lon="10.428119">
<ele>403.073</ele>
<time>2020-09-10T13:03:02Z</time>
</trkpt>
<trkpt lat="48.444286" lon="10.428039">
<ele>402.869</ele>
<time>2020-09-10T13:03:03Z</time>
</trkpt>
<trkpt lat="48.444252" lon="10.427968">
<ele>402.718</ele>
<time>2020-09-10T13:03:04Z</time>
</trkpt>
<trkpt lat="48.444221" lon="10.427914">
<ele>402.611</ele>
<time>2020-09-10T13:03:05Z</time>
</trkpt>
<trkpt lat="48.44418" lon="10.427876">
<ele>402.537</ele>
<time>2020-09-10T13:03:06Z</time>
</trkpt>
<trkpt lat="48.444157" lon="10.42784">
<ele>402.493</ele>
<time>2020-09-10T13:03:07Z</time>
</trkpt>
<trkpt lat="48.444145" lon="10.427798">
<ele>402.471</ele>
<time>2020-09-10T13:03:08Z</time>
</trkpt>
<trkpt lat="48.444126" lon="10.42775">
<ele>402.471</ele>
<time>2020-09-10T13:03:09Z</time>
</trkpt>
<trkpt lat="48.444103" lon="10.427702">
<ele>402.471</ele>
<time>2020-09-10T13:03:10Z</time>
</trkpt>
<trkpt lat="48.444077" lon="10.427658">
<ele>402.471</ele>
<time>2020-09-10T13:03:11Z</time>
</trkpt>
<trkpt lat="48.444038" lon="10.427622">
<ele>402.184</ele>
<time>2020-09-10T13:03:12Z</time>
</trkpt>
<trkpt lat="48.444004" lon="10.427588">
<ele>401.94</ele>
<time>2020-09-10T13:03:13Z</time>
</trkpt>
<trkpt lat="48.443962" lon="10.427555">
<ele>401.735</ele>
<time>2020-09-10T13:03:14Z</time>
</trkpt>
<trkpt lat="48.443928" lon="10.427518">
<ele>401.609</ele>
<time>2020-09-10T13:03:15Z</time>
</trkpt>
<trkpt lat="48.44389" lon="10.42748">
<ele>401.253</ele>
<time>2020-09-10T13:03:16Z</time>
</trkpt>
<trkpt lat="48.443848" lon="10.427446">
<ele>400.998</ele>
<time>2020-09-10T13:03:17Z</time>
</trkpt>
<trkpt lat="48.443806" lon="10.427417">
<ele>400.826</ele>
<time>2020-09-10T13:03:18Z</time>
</trkpt>
<trkpt lat="48.443764" lon="10.427394">
<ele>400.717</ele>
<time>2020-09-10T13:03:19Z</time>
</trkpt>
<trkpt lat="48.443726" lon="10.427373">
<ele>400.64</ele>
<time>2020-09-10T13:03:20Z</time>
</trkpt>
<trkpt lat="48.443687" lon="10.427359">
<ele>400.561</ele>
<time>2020-09-10T13:03:21Z</time>
</trkpt>
<trkpt lat="48.443661" lon="10.42735">
<ele>400.511</ele>
<time>2020-09-10T13:03:22Z</time>
</trkpt>
<trkpt lat="48.443649" lon="10.427347">
<ele>400.486</ele>
<time>2020-09-10T13:03:23Z</time>
</trkpt>
<trkpt lat="48.443649" lon="10.427343">
<ele>400.486</ele>
<time>2020-09-10T13:03:25Z</time>
</trkpt>
<trkpt lat="48.443661" lon="10.42733">
<ele>400.486</ele>
<time>2020-09-10T13:04:01Z</time>
</trkpt>
<trkpt lat="48.443668" lon="10.427322">
<ele>400.486</ele>
<time>2020-09-10T13:04:02Z</time>
</trkpt>
<trkpt lat="48.44368" lon="10.42732">
<ele>400.486</ele>
<time>2020-09-10T13:04:03Z</time>
</trkpt>
<trkpt lat="48.443695" lon="10.427325">
<ele>400.486</ele>
<time>2020-09-10T13:04:04Z</time>
</trkpt>
<trkpt lat="48.44371" lon="10.427331">
<ele>400.486</ele>
<time>2020-09-10T13:04:05Z</time>
</trkpt>
<trkpt lat="48.443733" lon="10.427341">
<ele>400.486</ele>
<time>2020-09-10T13:04:06Z</time>
</trkpt>
<trkpt lat="48.443745" lon="10.427355">
<ele>400.486</ele>
<time>2020-09-10T13:04:07Z</time>
</trkpt>
<trkpt lat="48.443764" lon="10.42737">
<ele>400.486</ele>
<time>2020-09-10T13:04:08Z</time>
</trkpt>
<trkpt lat="48.443794" lon="10.427385">
<ele>400.486</ele>
<time>2020-09-10T13:04:09Z</time>
</trkpt>
<trkpt lat="48.443825" lon="10.427406">
<ele>400.486</ele>
<time>2020-09-10T13:04:10Z</time>
</trkpt>
<trkpt lat="48.443855" lon="10.427431">
<ele>400.486</ele>
<time>2020-09-10T13:04:11Z</time>
</trkpt>
<trkpt lat="48.44389" lon="10.427462">
<ele>400.486</ele>
<time>2020-09-10T13:04:12Z</time>
</trkpt>
<trkpt lat="48.44392" lon="10.427493">
<ele>400.486</ele>
<time>2020-09-10T13:04:13Z</time>
</trkpt>
<trkpt lat="48.443954" lon="10.427526">
<ele>400.486</ele>
<time>2020-09-10T13:04:14Z</time>
</trkpt>
<trkpt lat="48.443989" lon="10.427559">
<ele>400.486</ele>
<time>2020-09-10T13:04:15Z</time>
</trkpt>
<trkpt lat="48.444019" lon="10.427588">
<ele>400.486</ele>
<time>2020-09-10T13:04:16Z</time>
</trkpt>
<trkpt lat="48.444054" lon="10.427618">
<ele>400.486</ele>
<time>2020-09-10T13:04:17Z</time>
</trkpt>
<trkpt lat="48.444084" lon="10.427649">
<ele>400.486</ele>
<time>2020-09-10T13:04:18Z</time>
</trkpt>
<trkpt lat="48.444107" lon="10.427683">
<ele>400.733</ele>
<time>2020-09-10T13:04:19Z</time>
</trkpt>
<trkpt lat="48.444126" lon="10.427718">
<ele>400.919</ele>
<time>2020-09-10T13:04:20Z</time>
</trkpt>
<trkpt lat="48.444138" lon="10.427762">
<ele>401.064</ele>
<time>2020-09-10T13:04:21Z</time>
</trkpt>
<trkpt lat="48.444134" lon="10.4278">
<ele>401.17</ele>
<time>2020-09-10T13:04:22Z</time>
</trkpt>
<trkpt lat="48.444115" lon="10.427814">
<ele>401.24</ele>
<time>2020-09-10T13:04:23Z</time>
</trkpt>
<trkpt lat="48.444092" lon="10.427812">
<ele>401.503</ele>
<time>2020-09-10T13:04:24Z</time>
</trkpt>
<trkpt lat="48.444057" lon="10.427803">
<ele>401.716</ele>
<time>2020-09-10T13:04:25Z</time>
</trkpt>
<trkpt lat="48.444012" lon="10.427794">
<ele>401.877</ele>
<time>2020-09-10T13:04:26Z</time>
</trkpt>
<trkpt lat="48.443966" lon="10.427785">
<ele>402.022</ele>
<time>2020-09-10T13:04:27Z</time>
</trkpt>
<trkpt lat="48.443928" lon="10.427779">
<ele>402.426</ele>
<time>2020-09-10T13:04:28Z</time>
</trkpt>
<trkpt lat="48.443886" lon="10.427771">
<ele>402.741</ele>
<time>2020-09-10T13:04:29Z</time>
</trkpt>
<trkpt lat="48.443848" lon="10.427754">
<ele>402.939</ele>
<time>2020-09-10T13:04:30Z</time>
</trkpt>
<trkpt lat="48.44381" lon="10.427746">
<ele>403.361</ele>
<time>2020-09-10T13:04:31Z</time>
</trkpt>
<trkpt lat="48.443775" lon="10.427744">
<ele>403.699</ele>
<time>2020-09-10T13:04:32Z</time>
</trkpt>
<trkpt lat="48.443741" lon="10.427737">
<ele>404.148</ele>
<time>2020-09-10T13:04:33Z</time>
</trkpt>
<trkpt lat="48.443703" lon="10.427737">
<ele>404.498</ele>
<time>2020-09-10T13:04:34Z</time>
</trkpt>
<trkpt lat="48.443668" lon="10.427735">
<ele>404.744</ele>
<time>2020-09-10T13:04:35Z</time>
</trkpt>
<trkpt lat="48.44363" lon="10.427735">
<ele>404.936</ele>
<time>2020-09-10T13:04:36Z</time>
</trkpt>
<trkpt lat="48.443592" lon="10.427733">
<ele>405.327</ele>
<time>2020-09-10T13:04:37Z</time>
</trkpt>
<trkpt lat="48.443554" lon="10.427735">
<ele>405.619</ele>
<time>2020-09-10T13:04:38Z</time>
</trkpt>
<trkpt lat="48.443508" lon="10.427746">
<ele>405.833</ele>
<time>2020-09-10T13:04:39Z</time>
</trkpt>
<trkpt lat="48.443462" lon="10.427765">
<ele>405.981</ele>
<time>2020-09-10T13:04:40Z</time>
</trkpt>
<trkpt lat="48.443405" lon="10.427785">
<ele>406.068</ele>
<time>2020-09-10T13:04:41Z</time>
</trkpt>
<trkpt lat="48.443359" lon="10.427805">
<ele>406.129</ele>
<time>2020-09-10T13:04:42Z</time>
</trkpt>
<trkpt lat="48.443314" lon="10.427825">
<ele>406.168</ele>
<time>2020-09-10T13:04:43Z</time>
</trkpt>
<trkpt lat="48.443268" lon="10.427845">
<ele>406.185</ele>
<time>2020-09-10T13:04:44Z</time>
</trkpt>
<trkpt lat="48.443214" lon="10.427872">
<ele>406.185</ele>
<time>2020-09-10T13:04:45Z</time>
</trkpt>
<trkpt lat="48.443157" lon="10.427903">
<ele>406.185</ele>
<time>2020-09-10T13:04:46Z</time>
</trkpt>
<trkpt lat="48.443111" lon="10.427925">
<ele>406.185</ele>
<time>2020-09-10T13:04:47Z</time>
</trkpt>
<trkpt lat="48.443069" lon="10.427952">
<ele>406.185</ele>
<time>2020-09-10T13:04:48Z</time>
</trkpt>
<trkpt lat="48.443027" lon="10.427989">
<ele>406.185</ele>
<time>2020-09-10T13:04:49Z</time>
</trkpt>
<trkpt lat="48.442986" lon="10.428026">
<ele>406.185</ele>
<time>2020-09-10T13:04:50Z</time>
</trkpt>
<trkpt lat="48.442951" lon="10.428072">
<ele>406.185</ele>
<time>2020-09-10T13:04:51Z</time>
</trkpt>
<trkpt lat="48.442905" lon="10.428121">
<ele>406.185</ele>
<time>2020-09-10T13:04:52Z</time>
</trkpt>
<trkpt lat="48.44286" lon="10.428166">
<ele>406.185</ele>
<time>2020-09-10T13:04:53Z</time>
</trkpt>
<trkpt lat="48.442818" lon="10.428206">
<ele>406.185</ele>
<time>2020-09-10T13:04:54Z</time>
</trkpt>
<trkpt lat="48.442772" lon="10.428251">
<ele>406.423</ele>
<time>2020-09-10T13:04:55Z</time>
</trkpt>
<trkpt lat="48.442722" lon="10.428302">
<ele>406.592</ele>
<time>2020-09-10T13:04:56Z</time>
</trkpt>
<trkpt lat="48.44268" lon="10.428355">
<ele>406.759</ele>
<time>2020-09-10T13:04:57Z</time>
</trkpt>
<trkpt lat="48.442631" lon="10.428413">
<ele>406.896</ele>
<time>2020-09-10T13:04:58Z</time>
</trkpt>
<trkpt lat="48.442585" lon="10.428472">
<ele>406.789</ele>
<time>2020-09-10T13:04:59Z</time>
</trkpt>
<trkpt lat="48.442532" lon="10.428525">
<ele>406.69</ele>
<time>2020-09-10T13:05:00Z</time>
</trkpt>
<trkpt lat="48.442482" lon="10.428581">
<ele>406.596</ele>
<time>2020-09-10T13:05:01Z</time>
</trkpt>
<trkpt lat="48.442425" lon="10.428647">
<ele>406.507</ele>
<time>2020-09-10T13:05:02Z</time>
</trkpt>
<trkpt lat="48.44236" lon="10.428703">
<ele>406.464</ele>
<time>2020-09-10T13:05:03Z</time>
</trkpt>
<trkpt lat="48.442291" lon="10.428755">
<ele>406.109</ele>
<time>2020-09-10T13:05:04Z</time>
</trkpt>
<trkpt lat="48.442223" lon="10.428806">
<ele>405.847</ele>
<time>2020-09-10T13:05:05Z</time>
</trkpt>
<trkpt lat="48.442158" lon="10.428868">
<ele>405.67</ele>
<time>2020-09-10T13:05:06Z</time>
</trkpt>
<trkpt lat="48.442101" lon="10.428946">
<ele>405.505</ele>
<time>2020-09-10T13:05:07Z</time>
</trkpt>
<trkpt lat="48.442047" lon="10.429022">
<ele>405.15</ele>
<time>2020-09-10T13:05:08Z</time>
</trkpt>
<trkpt lat="48.441994" lon="10.429099">
<ele>404.877</ele>
<time>2020-09-10T13:05:09Z</time>
</trkpt>
<trkpt lat="48.441936" lon="10.429176">
<ele>404.673</ele>
<time>2020-09-10T13:05:10Z</time>
</trkpt>
<trkpt lat="48.441875" lon="10.429256">
<ele>404.521</ele>
<time>2020-09-10T13:05:11Z</time>
</trkpt>
<trkpt lat="48.441822" lon="10.429338">
<ele>404.36</ele>
<time>2020-09-10T13:05:12Z</time>
</trkpt>
<trkpt lat="48.441769" lon="10.429423">
<ele>404.311</ele>
<time>2020-09-10T13:05:13Z</time>
</trkpt>
<trkpt lat="48.441711" lon="10.429506">
<ele>404.285</ele>
<time>2020-09-10T13:05:14Z</time>
</trkpt>
<trkpt lat="48.441654" lon="10.429589">
<ele>404.48</ele>
<time>2020-09-10T13:05:15Z</time>
</trkpt>
<trkpt lat="48.441601" lon="10.429675">
<ele>404.498</ele>
<time>2020-09-10T13:05:16Z</time>
</trkpt>
<trkpt lat="48.441551" lon="10.429764">
<ele>404.697</ele>
<time>2020-09-10T13:05:17Z</time>
</trkpt>
<trkpt lat="48.441505" lon="10.42985">
<ele>404.839</ele>
<time>2020-09-10T13:05:18Z</time>
</trkpt>
<trkpt lat="48.441463" lon="10.429935">
<ele>405.184</ele>
<time>2020-09-10T13:05:19Z</time>
</trkpt>
<trkpt lat="48.441418" lon="10.430008">
<ele>405.431</ele>
<time>2020-09-10T13:05:20Z</time>
</trkpt>
<trkpt lat="48.441376" lon="10.430078">
<ele>405.882</ele>
<time>2020-09-10T13:05:21Z</time>
</trkpt>
<trkpt lat="48.441334" lon="10.430146">
<ele>406.245</ele>
<time>2020-09-10T13:05:22Z</time>
</trkpt>
<trkpt lat="48.441288" lon="10.430205">
<ele>406.524</ele>
<time>2020-09-10T13:05:23Z</time>
</trkpt>
<trkpt lat="48.441242" lon="10.430255">
<ele>406.731</ele>
<time>2020-09-10T13:05:24Z</time>
</trkpt>
<trkpt lat="48.441196" lon="10.430291">
<ele>407.071</ele>
<time>2020-09-10T13:05:25Z</time>
</trkpt>
<trkpt lat="48.441158" lon="10.430337">
<ele>407.342</ele>
<time>2020-09-10T13:05:26Z</time>
</trkpt>
<trkpt lat="48.44112" lon="10.430398">
<ele>407.568</ele>
<time>2020-09-10T13:05:27Z</time>
</trkpt>
<trkpt lat="48.441078" lon="10.430465">
<ele>407.735</ele>
<time>2020-09-10T13:05:28Z</time>
</trkpt>
<trkpt lat="48.441032" lon="10.430534">
<ele>407.844</ele>
<time>2020-09-10T13:05:29Z</time>
</trkpt>
<trkpt lat="48.440994" lon="10.430599">
<ele>407.923</ele>
<time>2020-09-10T13:05:30Z</time>
</trkpt>
<trkpt lat="48.440948" lon="10.430669">
<ele>407.974</ele>
<time>2020-09-10T13:05:31Z</time>
</trkpt>
<trkpt lat="48.440899" lon="10.430736">
<ele>407.998</ele>
<time>2020-09-10T13:05:32Z</time>
</trkpt>
<trkpt lat="48.440861" lon="10.430808">
<ele>407.998</ele>
<time>2020-09-10T13:05:33Z</time>
</trkpt>
<trkpt lat="48.440815" lon="10.430883">
<ele>407.752</ele>
<time>2020-09-10T13:05:34Z</time>
</trkpt>
<trkpt lat="48.440773" lon="10.430962">
<ele>407.563</ele>
<time>2020-09-10T13:05:35Z</time>
</trkpt>
<trkpt lat="48.440731" lon="10.431037">
<ele>407.439</ele>
<time>2020-09-10T13:05:36Z</time>
</trkpt>
<trkpt lat="48.440681" lon="10.431102">
<ele>407.301</ele>
<time>2020-09-10T13:05:37Z</time>
</trkpt>
<trkpt lat="48.440636" lon="10.431171">
<ele>407.202</ele>
<time>2020-09-10T13:05:38Z</time>
</trkpt>
<trkpt lat="48.440594" lon="10.431251">
<ele>406.89</ele>
<time>2020-09-10T13:05:39Z</time>
</trkpt>
<trkpt lat="48.440544" lon="10.431331">
<ele>406.644</ele>
<time>2020-09-10T13:05:40Z</time>
</trkpt>
<trkpt lat="48.440506" lon="10.431415">
<ele>406.461</ele>
<time>2020-09-10T13:05:41Z</time>
</trkpt>
<trkpt lat="48.440472" lon="10.431504">
<ele>406.276</ele>
<time>2020-09-10T13:05:42Z</time>
</trkpt>
<trkpt lat="48.440434" lon="10.431588">
<ele>406.193</ele>
<time>2020-09-10T13:05:43Z</time>
</trkpt>
<trkpt lat="48.440392" lon="10.431666">
<ele>406.143</ele>
<time>2020-09-10T13:05:44Z</time>
</trkpt>
<trkpt lat="48.440346" lon="10.431747">
<ele>406.119</ele>
<time>2020-09-10T13:05:45Z</time>
</trkpt>
<trkpt lat="48.440304" lon="10.431823">
<ele>406.098</ele>
<time>2020-09-10T13:05:46Z</time>
</trkpt>
<trkpt lat="48.440254" lon="10.4319">
<ele>406.098</ele>
<time>2020-09-10T13:05:47Z</time>
</trkpt>
<trkpt lat="48.440208" lon="10.431975">
<ele>406.098</ele>
<time>2020-09-10T13:05:48Z</time>
</trkpt>
<trkpt lat="48.44017" lon="10.432054">
<ele>406.098</ele>
<time>2020-09-10T13:05:49Z</time>
</trkpt>
<trkpt lat="48.440125" lon="10.432129">
<ele>406.098</ele>
<time>2020-09-10T13:05:50Z</time>
</trkpt>
<trkpt lat="48.440079" lon="10.432203">
<ele>406.098</ele>
<time>2020-09-10T13:05:51Z</time>
</trkpt>
<trkpt lat="48.440029" lon="10.432275">
<ele>406.098</ele>
<time>2020-09-10T13:05:52Z</time>
</trkpt>
<trkpt lat="48.439983" lon="10.432342">
<ele>405.855</ele>
<time>2020-09-10T13:05:53Z</time>
</trkpt>
<trkpt lat="48.43993" lon="10.432408">
<ele>405.694</ele>
<time>2020-09-10T13:05:54Z</time>
</trkpt>
<trkpt lat="48.439873" lon="10.43248">
<ele>405.334</ele>
<time>2020-09-10T13:05:55Z</time>
</trkpt>
<trkpt lat="48.439812" lon="10.432553">
<ele>404.781</ele>
<time>2020-09-10T13:05:56Z</time>
</trkpt>
<trkpt lat="48.439747" lon="10.432629">
<ele>404.267</ele>
<time>2020-09-10T13:05:57Z</time>
</trkpt>
<trkpt lat="48.439682" lon="10.432705">
<ele>403.871</ele>
<time>2020-09-10T13:05:58Z</time>
</trkpt>
<trkpt lat="48.439621" lon="10.43278">
<ele>403.577</ele>
<time>2020-09-10T13:05:59Z</time>
</trkpt>
<trkpt lat="48.43956" lon="10.43285">
<ele>403.372</ele>
<time>2020-09-10T13:06:00Z</time>
</trkpt>
<trkpt lat="48.439499" lon="10.43292">
<ele>403.251</ele>
<time>2020-09-10T13:06:01Z</time>
</trkpt>
<trkpt lat="48.439445" lon="10.432983">
<ele>403.184</ele>
<time>2020-09-10T13:06:02Z</time>
</trkpt>
<trkpt lat="48.439388" lon="10.433048">
<ele>403.162</ele>
<time>2020-09-10T13:06:03Z</time>
</trkpt>
<trkpt lat="48.439331" lon="10.433111">
<ele>403.162</ele>
<time>2020-09-10T13:06:04Z</time>
</trkpt>
<trkpt lat="48.43927" lon="10.433174">
<ele>403.162</ele>
<time>2020-09-10T13:06:05Z</time>
</trkpt>
<trkpt lat="48.439209" lon="10.433237">
<ele>403.162</ele>
<time>2020-09-10T13:06:06Z</time>
</trkpt>
<trkpt lat="48.439148" lon="10.433298">
<ele>403.162</ele>
<time>2020-09-10T13:06:07Z</time>
</trkpt>
<trkpt lat="48.439083" lon="10.433356">
<ele>403.162</ele>
<time>2020-09-10T13:06:08Z</time>
</trkpt>
<trkpt lat="48.439022" lon="10.433415">
<ele>403.162</ele>
<time>2020-09-10T13:06:09Z</time>
</trkpt>
<trkpt lat="48.438961" lon="10.433472">
<ele>403.162</ele>
<time>2020-09-10T13:06:10Z</time>
</trkpt>
<trkpt lat="48.4389" lon="10.433526">
<ele>403.162</ele>
<time>2020-09-10T13:06:11Z</time>
</trkpt>
<trkpt lat="48.438843" lon="10.433583">
<ele>403.162</ele>
<time>2020-09-10T13:06:12Z</time>
</trkpt>
<trkpt lat="48.438786" lon="10.433641">
<ele>403.382</ele>
<time>2020-09-10T13:06:13Z</time>
</trkpt>
<trkpt lat="48.438728" lon="10.433697">
<ele>403.553</ele>
<time>2020-09-10T13:06:14Z</time>
</trkpt>
<trkpt lat="48.438671" lon="10.433753">
<ele>403.689</ele>
<time>2020-09-10T13:06:15Z</time>
</trkpt>
<trkpt lat="48.43861" lon="10.433806">
<ele>403.781</ele>
<time>2020-09-10T13:06:16Z</time>
</trkpt>
<trkpt lat="48.438549" lon="10.433857">
<ele>403.882</ele>
<time>2020-09-10T13:06:17Z</time>
</trkpt>
<trkpt lat="48.438488" lon="10.4339">
<ele>403.955</ele>
<time>2020-09-10T13:06:18Z</time>
</trkpt>
<trkpt lat="48.438427" lon="10.433939">
<ele>404.003</ele>
<time>2020-09-10T13:06:19Z</time>
</trkpt>
<trkpt lat="48.438366" lon="10.433976">
<ele>404.026</ele>
<time>2020-09-10T13:06:20Z</time>
</trkpt>
<trkpt lat="48.438305" lon="10.434016">
<ele>404.026</ele>
<time>2020-09-10T13:06:21Z</time>
</trkpt>
<trkpt lat="48.438244" lon="10.434058">
<ele>404.026</ele>
<time>2020-09-10T13:06:22Z</time>
</trkpt>
<trkpt lat="48.438175" lon="10.434098">
<ele>404.026</ele>
<time>2020-09-10T13:06:23Z</time>
</trkpt>
<trkpt lat="48.43811" lon="10.434136">
<ele>404.026</ele>
<time>2020-09-10T13:06:24Z</time>
</trkpt>
<trkpt lat="48.438042" lon="10.434176">
<ele>404.026</ele>
<time>2020-09-10T13:06:25Z</time>
</trkpt>
<trkpt lat="48.437973" lon="10.434214">
<ele>404.026</ele>
<time>2020-09-10T13:06:26Z</time>
</trkpt>
<trkpt lat="48.437904" lon="10.434249">
<ele>404.026</ele>
<time>2020-09-10T13:06:27Z</time>
</trkpt>
<trkpt lat="48.437832" lon="10.434285">
<ele>404.026</ele>
<time>2020-09-10T13:06:28Z</time>
</trkpt>
<trkpt lat="48.437767" lon="10.434323">
<ele>404.026</ele>
<time>2020-09-10T13:06:29Z</time>
</trkpt>
<trkpt lat="48.437695" lon="10.434366">
<ele>404.026</ele>
<time>2020-09-10T13:06:30Z</time>
</trkpt>
<trkpt lat="48.437626" lon="10.434413">
<ele>403.765</ele>
<time>2020-09-10T13:06:31Z</time>
</trkpt>
<trkpt lat="48.437561" lon="10.434462">
<ele>403.563</ele>
<time>2020-09-10T13:06:32Z</time>
</trkpt>
<trkpt lat="48.437492" lon="10.43451">
<ele>403.407</ele>
<time>2020-09-10T13:06:33Z</time>
</trkpt>
<trkpt lat="48.437431" lon="10.43456">
<ele>403.295</ele>
<time>2020-09-10T13:06:34Z</time>
</trkpt>
<trkpt lat="48.43737" lon="10.434609">
<ele>403.214</ele>
<time>2020-09-10T13:06:35Z</time>
</trkpt>
<trkpt lat="48.437309" lon="10.434662">
<ele>403.155</ele>
<time>2020-09-10T13:06:36Z</time>
</trkpt>
<trkpt lat="48.437244" lon="10.434711">
<ele>403.102</ele>
<time>2020-09-10T13:06:37Z</time>
</trkpt>
<trkpt lat="48.437183" lon="10.434762">
<ele>403.277</ele>
<time>2020-09-10T13:06:38Z</time>
</trkpt>
<trkpt lat="48.437122" lon="10.434813">
<ele>403.321</ele>
<time>2020-09-10T13:06:39Z</time>
</trkpt>
<trkpt lat="48.437065" lon="10.434867">
<ele>403.514</ele>
<time>2020-09-10T13:06:40Z</time>
</trkpt>
<trkpt lat="48.437008" lon="10.434919">
<ele>403.664</ele>
<time>2020-09-10T13:06:41Z</time>
</trkpt>
<trkpt lat="48.436951" lon="10.434976">
<ele>403.772</ele>
<time>2020-09-10T13:06:42Z</time>
</trkpt>
<trkpt lat="48.436893" lon="10.435028">
<ele>403.847</ele>
<time>2020-09-10T13:06:43Z</time>
</trkpt>
<trkpt lat="48.43684" lon="10.435085">
<ele>403.889</ele>
<time>2020-09-10T13:06:44Z</time>
</trkpt>
<trkpt lat="48.436787" lon="10.43514">
<ele>404.164</ele>
<time>2020-09-10T13:06:45Z</time>
</trkpt>
<trkpt lat="48.436733" lon="10.435195">
<ele>404.367</ele>
<time>2020-09-10T13:06:46Z</time>
</trkpt>
<trkpt lat="48.436684" lon="10.435252">
<ele>404.55</ele>
<time>2020-09-10T13:06:47Z</time>
</trkpt>
<trkpt lat="48.43663" lon="10.435309">
<ele>404.699</ele>
<time>2020-09-10T13:06:48Z</time>
</trkpt>
<trkpt lat="48.436581" lon="10.435369">
<ele>404.813</ele>
<time>2020-09-10T13:06:49Z</time>
</trkpt>
<trkpt lat="48.436535" lon="10.435431">
<ele>404.896</ele>
<time>2020-09-10T13:06:50Z</time>
</trkpt>
<trkpt lat="48.436489" lon="10.435493">
<ele>404.95</ele>
<time>2020-09-10T13:06:51Z</time>
</trkpt>
<trkpt lat="48.436443" lon="10.435555">
<ele>404.975</ele>
<time>2020-09-10T13:06:52Z</time>
</trkpt>
<trkpt lat="48.436398" lon="10.435618">
<ele>404.975</ele>
<time>2020-09-10T13:06:53Z</time>
</trkpt>
<trkpt lat="48.436359" lon="10.435681">
<ele>404.975</ele>
<time>2020-09-10T13:06:54Z</time>
</trkpt>
<trkpt lat="48.436314" lon="10.435747">
<ele>405.204</ele>
<time>2020-09-10T13:06:55Z</time>
</trkpt>
<trkpt lat="48.436272" lon="10.435814">
<ele>405.368</ele>
<time>2020-09-10T13:06:56Z</time>
</trkpt>
<trkpt lat="48.436234" lon="10.435879">
<ele>405.536</ele>
<time>2020-09-10T13:06:57Z</time>
</trkpt>
<trkpt lat="48.436195" lon="10.435946">
<ele>405.673</ele>
<time>2020-09-10T13:06:58Z</time>
</trkpt>
<trkpt lat="48.436153" lon="10.43601">
<ele>405.778</ele>
<time>2020-09-10T13:06:59Z</time>
</trkpt>
<trkpt lat="48.436115" lon="10.436075">
<ele>405.854</ele>
<time>2020-09-10T13:07:00Z</time>
</trkpt>
<trkpt lat="48.436077" lon="10.436138">
<ele>405.898</ele>
<time>2020-09-10T13:07:01Z</time>
</trkpt>
<trkpt lat="48.436039" lon="10.4362">
<ele>406.195</ele>
<time>2020-09-10T13:07:02Z</time>
</trkpt>
<trkpt lat="48.436005" lon="10.436267">
<ele>406.448</ele>
<time>2020-09-10T13:07:03Z</time>
</trkpt>
<trkpt lat="48.43597" lon="10.43633">
<ele>406.626</ele>
<time>2020-09-10T13:07:04Z</time>
</trkpt>
<trkpt lat="48.435936" lon="10.436394">
<ele>406.763</ele>
<time>2020-09-10T13:07:05Z</time>
</trkpt>
<trkpt lat="48.435898" lon="10.436457">
<ele>406.857</ele>
<time>2020-09-10T13:07:06Z</time>
</trkpt>
<trkpt lat="48.435867" lon="10.43652">
<ele>406.955</ele>
<time>2020-09-10T13:07:07Z</time>
</trkpt>
<trkpt lat="48.435833" lon="10.436584">
<ele>407.018</ele>
<time>2020-09-10T13:07:08Z</time>
</trkpt>
<trkpt lat="48.435802" lon="10.436646">
<ele>407.048</ele>
<time>2020-09-10T13:07:09Z</time>
</trkpt>
<trkpt lat="48.435776" lon="10.436705">
<ele>407.048</ele>
<time>2020-09-10T13:07:10Z</time>
</trkpt>
<trkpt lat="48.435745" lon="10.436763">
<ele>407.048</ele>
<time>2020-09-10T13:07:11Z</time>
</trkpt>
<trkpt lat="48.435715" lon="10.43682">
<ele>407.048</ele>
<time>2020-09-10T13:07:12Z</time>
</trkpt>
<trkpt lat="48.435692" lon="10.436872">
<ele>407.048</ele>
<time>2020-09-10T13:07:13Z</time>
</trkpt>
<trkpt lat="48.435665" lon="10.436923">
<ele>407.048</ele>
<time>2020-09-10T13:07:14Z</time>
</trkpt>
<trkpt lat="48.435642" lon="10.436975">
<ele>407.048</ele>
<time>2020-09-10T13:07:15Z</time>
</trkpt>
<trkpt lat="48.435612" lon="10.437029">
<ele>407.288</ele>
<time>2020-09-10T13:07:16Z</time>
</trkpt>
<trkpt lat="48.435581" lon="10.437085">
<ele>407.521</ele>
<time>2020-09-10T13:07:17Z</time>
</trkpt>
<trkpt lat="48.435555" lon="10.437143">
<ele>407.72</ele>
<time>2020-09-10T13:07:18Z</time>
</trkpt>
<trkpt lat="48.435528" lon="10.437203">
<ele>407.879</ele>
<time>2020-09-10T13:07:19Z</time>
</trkpt>
<trkpt lat="48.435497" lon="10.437265">
<ele>408.004</ele>
<time>2020-09-10T13:07:20Z</time>
</trkpt>
<trkpt lat="48.435467" lon="10.437326">
<ele>408.093</ele>
<time>2020-09-10T13:07:21Z</time>
</trkpt>
<trkpt lat="48.435436" lon="10.437388">
<ele>408.146</ele>
<time>2020-09-10T13:07:22Z</time>
</trkpt>
<trkpt lat="48.435406" lon="10.437449">
<ele>408.171</ele>
<time>2020-09-10T13:07:23Z</time>
</trkpt>
<trkpt lat="48.435375" lon="10.437509">
<ele>408.171</ele>
<time>2020-09-10T13:07:24Z</time>
</trkpt>
<trkpt lat="48.435349" lon="10.437567">
<ele>408.171</ele>
<time>2020-09-10T13:07:25Z</time>
</trkpt>
<trkpt lat="48.435322" lon="10.437624">
<ele>408.171</ele>
<time>2020-09-10T13:07:26Z</time>
</trkpt>
<trkpt lat="48.435291" lon="10.437678">
<ele>408.171</ele>
<time>2020-09-10T13:07:27Z</time>
</trkpt>
<trkpt lat="48.435265" lon="10.437737">
<ele>408.171</ele>
<time>2020-09-10T13:07:28Z</time>
</trkpt>
<trkpt lat="48.435238" lon="10.43779">
<ele>408.171</ele>
<time>2020-09-10T13:07:29Z</time>
</trkpt>
<trkpt lat="48.435207" lon="10.43784">
<ele>408.171</ele>
<time>2020-09-10T13:07:30Z</time>
</trkpt>
<trkpt lat="48.435181" lon="10.437883">
<ele>408.171</ele>
<time>2020-09-10T13:07:31Z</time>
</trkpt>
<trkpt lat="48.435158" lon="10.437918">
<ele>408.171</ele>
<time>2020-09-10T13:07:32Z</time>
</trkpt>
<trkpt lat="48.435139" lon="10.437944">
<ele>408.171</ele>
<time>2020-09-10T13:07:33Z</time>
</trkpt>
<trkpt lat="48.435123" lon="10.437965">
<ele>408.171</ele>
<time>2020-09-10T13:07:34Z</time>
</trkpt>
<trkpt lat="48.435108" lon="10.437977">
<ele>408.171</ele>
<time>2020-09-10T13:07:35Z</time>
</trkpt>
<trkpt lat="48.435093" lon="10.437979">
<ele>408.171</ele>
<time>2020-09-10T13:07:36Z</time>
</trkpt>
<trkpt lat="48.435078" lon="10.437972">
<ele>408.171</ele>
<time>2020-09-10T13:07:37Z</time>
</trkpt>
<trkpt lat="48.435059" lon="10.437965">
<ele>408.171</ele>
<time>2020-09-10T13:07:38Z</time>
</trkpt>
<trkpt lat="48.43504" lon="10.437962">
<ele>408.171</ele>
<time>2020-09-10T13:07:39Z</time>
</trkpt>
<trkpt lat="48.435024" lon="10.43796">
<ele>408.171</ele>
<time>2020-09-10T13:07:40Z</time>
</trkpt>
<trkpt lat="48.435001" lon="10.43796">
<ele>408.171</ele>
<time>2020-09-10T13:07:41Z</time>
</trkpt>
<trkpt lat="48.434982" lon="10.437962">
<ele>408.171</ele>
<time>2020-09-10T13:07:42Z</time>
</trkpt>
<trkpt lat="48.434971" lon="10.437966">
<ele>408.171</ele>
<time>2020-09-10T13:07:43Z</time>
</trkpt>
<trkpt lat="48.434963" lon="10.43797">
<ele>408.171</ele>
<time>2020-09-10T13:07:44Z</time>
</trkpt>
<trkpt lat="48.434963" lon="10.437972">
<ele>408.171</ele>
<time>2020-09-10T13:07:45Z</time>
</trkpt>
<trkpt lat="48.43494" lon="10.43799">
<ele>408.171</ele>
<time>2020-09-10T13:07:55Z</time>
</trkpt>
<trkpt lat="48.434929" lon="10.438008">
<ele>408.171</ele>
<time>2020-09-10T13:07:56Z</time>
</trkpt>
<trkpt lat="48.43491" lon="10.438033">
<ele>408.171</ele>
<time>2020-09-10T13:07:57Z</time>
</trkpt>
<trkpt lat="48.434898" lon="10.438068">
<ele>408.171</ele>
<time>2020-09-10T13:07:58Z</time>
</trkpt>
<trkpt lat="48.434883" lon="10.438108">
<ele>408.171</ele>
<time>2020-09-10T13:07:59Z</time>
</trkpt>
<trkpt lat="48.434864" lon="10.438154">
<ele>408.171</ele>
<time>2020-09-10T13:08:00Z</time>
</trkpt>
<trkpt lat="48.434841" lon="10.438203">
<ele>408.171</ele>
<time>2020-09-10T13:08:01Z</time>
</trkpt>
<trkpt lat="48.434822" lon="10.438253">
<ele>408.171</ele>
<time>2020-09-10T13:08:02Z</time>
</trkpt>
<trkpt lat="48.434792" lon="10.4383">
<ele>408.171</ele>
<time>2020-09-10T13:08:03Z</time>
</trkpt>
<trkpt lat="48.434761" lon="10.438347">
<ele>408.171</ele>
<time>2020-09-10T13:08:04Z</time>
</trkpt>
<trkpt lat="48.434727" lon="10.438396">
<ele>408.171</ele>
<time>2020-09-10T13:08:05Z</time>
</trkpt>
<trkpt lat="48.434689" lon="10.438441">
<ele>408.171</ele>
<time>2020-09-10T13:08:06Z</time>
</trkpt>
<trkpt lat="48.43465" lon="10.438494">
<ele>408.171</ele>
<time>2020-09-10T13:08:07Z</time>
</trkpt>
<trkpt lat="48.434616" lon="10.438546">
<ele>408.171</ele>
<time>2020-09-10T13:08:08Z</time>
</trkpt>
<trkpt lat="48.434574" lon="10.438597">
<ele>408.171</ele>
<time>2020-09-10T13:08:09Z</time>
</trkpt>
<trkpt lat="48.434536" lon="10.438648">
<ele>408.171</ele>
<time>2020-09-10T13:08:10Z</time>
</trkpt>
<trkpt lat="48.43449" lon="10.438699">
<ele>408.433</ele>
<time>2020-09-10T13:08:11Z</time>
</trkpt>
<trkpt lat="48.434448" lon="10.438748">
<ele>408.629</ele>
<time>2020-09-10T13:08:12Z</time>
</trkpt>
<trkpt lat="48.43441" lon="10.438798">
<ele>408.778</ele>
<time>2020-09-10T13:08:13Z</time>
</trkpt>
<trkpt lat="48.434361" lon="10.438846">
<ele>408.891</ele>
<time>2020-09-10T13:08:14Z</time>
</trkpt>
<trkpt lat="48.434315" lon="10.438893">
<ele>408.967</ele>
<time>2020-09-10T13:08:15Z</time>
</trkpt>
<trkpt lat="48.434273" lon="10.43894">
<ele>409.046</ele>
<time>2020-09-10T13:08:16Z</time>
</trkpt>
<trkpt lat="48.434223" lon="10.438988">
<ele>409.097</ele>
<time>2020-09-10T13:08:17Z</time>
</trkpt>
<trkpt lat="48.434181" lon="10.439034">
<ele>409.121</ele>
<time>2020-09-10T13:08:18Z</time>
</trkpt>
<trkpt lat="48.434132" lon="10.439082">
<ele>409.121</ele>
<time>2020-09-10T13:08:19Z</time>
</trkpt>
<trkpt lat="48.434078" lon="10.439124">
<ele>409.121</ele>
<time>2020-09-10T13:08:20Z</time>
</trkpt>
<trkpt lat="48.434025" lon="10.439165">
<ele>409.121</ele>
<time>2020-09-10T13:08:21Z</time>
</trkpt>
<trkpt lat="48.433975" lon="10.439205">
<ele>409.121</ele>
<time>2020-09-10T13:08:22Z</time>
</trkpt>
<trkpt lat="48.433926" lon="10.439246">
<ele>409.121</ele>
<time>2020-09-10T13:08:23Z</time>
</trkpt>
<trkpt lat="48.433872" lon="10.439287">
<ele>409.121</ele>
<time>2020-09-10T13:08:24Z</time>
</trkpt>
<trkpt lat="48.433823" lon="10.439325">
<ele>409.121</ele>
<time>2020-09-10T13:08:25Z</time>
</trkpt>
<trkpt lat="48.433773" lon="10.439362">
<ele>409.121</ele>
<time>2020-09-10T13:08:26Z</time>
</trkpt>
<trkpt lat="48.433723" lon="10.439395">
<ele>409.121</ele>
<time>2020-09-10T13:08:27Z</time>
</trkpt>
<trkpt lat="48.43367" lon="10.439426">
<ele>409.121</ele>
<time>2020-09-10T13:08:28Z</time>
</trkpt>
<trkpt lat="48.43362" lon="10.439462">
<ele>409.121</ele>
<time>2020-09-10T13:08:29Z</time>
</trkpt>
<trkpt lat="48.433567" lon="10.439495">
<ele>409.121</ele>
<time>2020-09-10T13:08:30Z</time>
</trkpt>
<trkpt lat="48.433514" lon="10.439525">
<ele>409.348</ele>
<time>2020-09-10T13:08:31Z</time>
</trkpt>
<trkpt lat="48.43346" lon="10.439553">
<ele>409.527</ele>
<time>2020-09-10T13:08:32Z</time>
</trkpt>
<trkpt lat="48.433407" lon="10.439583">
<ele>409.666</ele>
<time>2020-09-10T13:08:33Z</time>
</trkpt>
<trkpt lat="48.433353" lon="10.43961">
<ele>409.772</ele>
<time>2020-09-10T13:08:34Z</time>
</trkpt>
<trkpt lat="48.433296" lon="10.439637">
<ele>409.843</ele>
<time>2020-09-10T13:08:35Z</time>
</trkpt>
<trkpt lat="48.433239" lon="10.439658">
<ele>409.916</ele>
<time>2020-09-10T13:08:36Z</time>
</trkpt>
<trkpt lat="48.433186" lon="10.439678">
<ele>409.963</ele>
<time>2020-09-10T13:08:37Z</time>
</trkpt>
<trkpt lat="48.433132" lon="10.439698">
<ele>409.985</ele>
<time>2020-09-10T13:08:38Z</time>
</trkpt>
<trkpt lat="48.433075" lon="10.439719">
<ele>409.985</ele>
<time>2020-09-10T13:08:39Z</time>
</trkpt>
<trkpt lat="48.433018" lon="10.439736">
<ele>409.985</ele>
<time>2020-09-10T13:08:40Z</time>
</trkpt>
<trkpt lat="48.432964" lon="10.439754">
<ele>409.985</ele>
<time>2020-09-10T13:08:41Z</time>
</trkpt>
<trkpt lat="48.432907" lon="10.439774">
<ele>410.272</ele>
<time>2020-09-10T13:08:42Z</time>
</trkpt>
<trkpt lat="48.43285" lon="10.43979">
<ele>410.498</ele>
<time>2020-09-10T13:08:43Z</time>
</trkpt>
<trkpt lat="48.432793" lon="10.439803">
<ele>410.677</ele>
<time>2020-09-10T13:08:44Z</time>
</trkpt>
<trkpt lat="48.432735" lon="10.439816">
<ele>410.797</ele>
<time>2020-09-10T13:08:45Z</time>
</trkpt>
<trkpt lat="48.432678" lon="10.439823">
<ele>410.927</ele>
<time>2020-09-10T13:08:46Z</time>
</trkpt>
<trkpt lat="48.432621" lon="10.439835">
<ele>411.02</ele>
<time>2020-09-10T13:08:47Z</time>
</trkpt>
<trkpt lat="48.432564" lon="10.439845">
<ele>411.079</ele>
<time>2020-09-10T13:08:48Z</time>
</trkpt>
<trkpt lat="48.43251" lon="10.439857">
<ele>411.108</ele>
<time>2020-09-10T13:08:49Z</time>
</trkpt>
<trkpt lat="48.432453" lon="10.439866">
<ele>411.343</ele>
<time>2020-09-10T13:08:50Z</time>
</trkpt>
<trkpt lat="48.432396" lon="10.439875">
<ele>411.526</ele>
<time>2020-09-10T13:08:51Z</time>
</trkpt>
<trkpt lat="48.432339" lon="10.439882">
<ele>411.667</ele>
<time>2020-09-10T13:08:52Z</time>
</trkpt>
<trkpt lat="48.432281" lon="10.439889">
<ele>411.772</ele>
<time>2020-09-10T13:08:53Z</time>
</trkpt>
<trkpt lat="48.432224" lon="10.439895">
<ele>411.846</ele>
<time>2020-09-10T13:08:54Z</time>
</trkpt>
<trkpt lat="48.432167" lon="10.439901">
<ele>411.9</ele>
<time>2020-09-10T13:08:55Z</time>
</trkpt>
<trkpt lat="48.43211" lon="10.43991">
<ele>412.18</ele>
<time>2020-09-10T13:08:56Z</time>
</trkpt>
<trkpt lat="48.432053" lon="10.439917">
<ele>412.399</ele>
<time>2020-09-10T13:08:57Z</time>
</trkpt>
<trkpt lat="48.431992" lon="10.439927">
<ele>412.559</ele>
<time>2020-09-10T13:08:58Z</time>
</trkpt>
<trkpt lat="48.431931" lon="10.439931">
<ele>412.688</ele>
<time>2020-09-10T13:08:59Z</time>
</trkpt>
<trkpt lat="48.431873" lon="10.439939">
<ele>412.784</ele>
<time>2020-09-10T13:09:00Z</time>
</trkpt>
<trkpt lat="48.431812" lon="10.439939">
<ele>412.856</ele>
<time>2020-09-10T13:09:01Z</time>
</trkpt>
<trkpt lat="48.431755" lon="10.439943">
<ele>412.901</ele>
<time>2020-09-10T13:09:02Z</time>
</trkpt>
<trkpt lat="48.431698" lon="10.439947">
<ele>412.923</ele>
<time>2020-09-10T13:09:03Z</time>
</trkpt>
<trkpt lat="48.431637" lon="10.439945">
<ele>412.923</ele>
<time>2020-09-10T13:09:04Z</time>
</trkpt>
<trkpt lat="48.431572" lon="10.439948">
<ele>413.134</ele>
<time>2020-09-10T13:09:05Z</time>
</trkpt>
<trkpt lat="48.431515" lon="10.439956">
<ele>413.333</ele>
<time>2020-09-10T13:09:06Z</time>
</trkpt>
<trkpt lat="48.431458" lon="10.439963">
<ele>413.498</ele>
<time>2020-09-10T13:09:07Z</time>
</trkpt>
<trkpt lat="48.4314" lon="10.43997">
<ele>413.628</ele>
<time>2020-09-10T13:09:08Z</time>
</trkpt>
<trkpt lat="48.431343" lon="10.439973">
<ele>413.73</ele>
<time>2020-09-10T13:09:09Z</time>
</trkpt>
<trkpt lat="48.431278" lon="10.439981">
<ele>413.803</ele>
<time>2020-09-10T13:09:10Z</time>
</trkpt>
<trkpt lat="48.431217" lon="10.439987">
<ele>413.851</ele>
<time>2020-09-10T13:09:11Z</time>
</trkpt>
<trkpt lat="48.43116" lon="10.43999">
<ele>413.873</ele>
<time>2020-09-10T13:09:12Z</time>
</trkpt>
<trkpt lat="48.431099" lon="10.439997">
<ele>413.873</ele>
<time>2020-09-10T13:09:13Z</time>
</trkpt>
<trkpt lat="48.431042" lon="10.440001">
<ele>413.873</ele>
<time>2020-09-10T13:09:14Z</time>
</trkpt>
<trkpt lat="48.430984" lon="10.440008">
<ele>413.873</ele>
<time>2020-09-10T13:09:15Z</time>
</trkpt>
<trkpt lat="48.430923" lon="10.440017">
<ele>413.873</ele>
<time>2020-09-10T13:09:16Z</time>
</trkpt>
<trkpt lat="48.430862" lon="10.440025">
<ele>413.873</ele>
<time>2020-09-10T13:09:17Z</time>
</trkpt>
<trkpt lat="48.430801" lon="10.44003">
<ele>413.873</ele>
<time>2020-09-10T13:09:18Z</time>
</trkpt>
<trkpt lat="48.430744" lon="10.440033">
<ele>413.873</ele>
<time>2020-09-10T13:09:19Z</time>
</trkpt>
<trkpt lat="48.430683" lon="10.440038">
<ele>413.873</ele>
<time>2020-09-10T13:09:20Z</time>
</trkpt>
<trkpt lat="48.430622" lon="10.440045">
<ele>413.873</ele>
<time>2020-09-10T13:09:21Z</time>
</trkpt>
<trkpt lat="48.430561" lon="10.440052">
<ele>413.873</ele>
<time>2020-09-10T13:09:22Z</time>
</trkpt>
<trkpt lat="48.4305" lon="10.440059">
<ele>413.873</ele>
<time>2020-09-10T13:09:23Z</time>
</trkpt>
<trkpt lat="48.430435" lon="10.440067">
<ele>413.873</ele>
<time>2020-09-10T13:09:24Z</time>
</trkpt>
<trkpt lat="48.430374" lon="10.440073">
<ele>413.873</ele>
<time>2020-09-10T13:09:25Z</time>
</trkpt>
<trkpt lat="48.430309" lon="10.440084">
<ele>413.873</ele>
<time>2020-09-10T13:09:26Z</time>
</trkpt>
<trkpt lat="48.430248" lon="10.440094">
<ele>413.873</ele>
<time>2020-09-10T13:09:27Z</time>
</trkpt>
<trkpt lat="48.430183" lon="10.440108">
<ele>413.873</ele>
<time>2020-09-10T13:09:28Z</time>
</trkpt>
<trkpt lat="48.430122" lon="10.440126">
<ele>413.873</ele>
<time>2020-09-10T13:09:29Z</time>
</trkpt>
<trkpt lat="48.430061" lon="10.440146">
<ele>413.873</ele>
<time>2020-09-10T13:09:30Z</time>
</trkpt>
<trkpt lat="48.429996" lon="10.44017">
<ele>413.873</ele>
<time>2020-09-10T13:09:31Z</time>
</trkpt>
<trkpt lat="48.429935" lon="10.440197">
<ele>413.873</ele>
<time>2020-09-10T13:09:32Z</time>
</trkpt>
<trkpt lat="48.429874" lon="10.440225">
<ele>413.873</ele>
<time>2020-09-10T13:09:33Z</time>
</trkpt>
<trkpt lat="48.42981" lon="10.440253">
<ele>413.873</ele>
<time>2020-09-10T13:09:34Z</time>
</trkpt>
<trkpt lat="48.429745" lon="10.440283">
<ele>413.641</ele>
<time>2020-09-10T13:09:35Z</time>
</trkpt>
<trkpt lat="48.42968" lon="10.440316">
<ele>413.422</ele>
<time>2020-09-10T13:09:36Z</time>
</trkpt>
<trkpt lat="48.429619" lon="10.440354">
<ele>413.242</ele>
<time>2020-09-10T13:09:37Z</time>
</trkpt>
<trkpt lat="48.429554" lon="10.440393">
<ele>413.098</ele>
<time>2020-09-10T13:09:38Z</time>
</trkpt>
<trkpt lat="48.429489" lon="10.44043">
<ele>412.99</ele>
<time>2020-09-10T13:09:39Z</time>
</trkpt>
<trkpt lat="48.429428" lon="10.440467">
<ele>412.91</ele>
<time>2020-09-10T13:09:40Z</time>
</trkpt>
<trkpt lat="48.429367" lon="10.440503">
<ele>412.861</ele>
<time>2020-09-10T13:09:41Z</time>
</trkpt>
<trkpt lat="48.429302" lon="10.44054">
<ele>412.836</ele>
<time>2020-09-10T13:09:42Z</time>
</trkpt>
<trkpt lat="48.429237" lon="10.440575">
<ele>412.836</ele>
<time>2020-09-10T13:09:43Z</time>
</trkpt>
<trkpt lat="48.429169" lon="10.440608">
<ele>412.836</ele>
<time>2020-09-10T13:09:44Z</time>
</trkpt>
<trkpt lat="48.4291" lon="10.440639">
<ele>412.836</ele>
<time>2020-09-10T13:09:45Z</time>
</trkpt>
<trkpt lat="48.429031" lon="10.440666">
<ele>412.836</ele>
<time>2020-09-10T13:09:46Z</time>
</trkpt>
<trkpt lat="48.428963" lon="10.440692">
<ele>412.836</ele>
<time>2020-09-10T13:09:47Z</time>
</trkpt>
<trkpt lat="48.428898" lon="10.440713">
<ele>412.836</ele>
<time>2020-09-10T13:09:48Z</time>
</trkpt>
<trkpt lat="48.428825" lon="10.440733">
<ele>412.836</ele>
<time>2020-09-10T13:09:49Z</time>
</trkpt>
<trkpt lat="48.428757" lon="10.44075">
<ele>412.836</ele>
<time>2020-09-10T13:09:50Z</time>
</trkpt>
<trkpt lat="48.428688" lon="10.440763">
<ele>412.836</ele>
<time>2020-09-10T13:09:51Z</time>
</trkpt>
<trkpt lat="48.428616" lon="10.44077">
<ele>412.836</ele>
<time>2020-09-10T13:09:52Z</time>
</trkpt>
<trkpt lat="48.428547" lon="10.440775">
<ele>412.836</ele>
<time>2020-09-10T13:09:53Z</time>
</trkpt>
<trkpt lat="48.428478" lon="10.440777">
<ele>412.606</ele>
<time>2020-09-10T13:09:54Z</time>
</trkpt>
<trkpt lat="48.42841" lon="10.440775">
<ele>412.442</ele>
<time>2020-09-10T13:09:55Z</time>
</trkpt>
<trkpt lat="48.428341" lon="10.440773">
<ele>412.272</ele>
<time>2020-09-10T13:09:56Z</time>
</trkpt>
<trkpt lat="48.428268" lon="10.440768">
<ele>412.137</ele>
<time>2020-09-10T13:09:57Z</time>
</trkpt>
<trkpt lat="48.4282" lon="10.440761">
<ele>412.032</ele>
<time>2020-09-10T13:09:58Z</time>
</trkpt>
<trkpt lat="48.428131" lon="10.44075">
<ele>411.957</ele>
<time>2020-09-10T13:09:59Z</time>
</trkpt>
<trkpt lat="48.428066" lon="10.440737">
<ele>411.909</ele>
<time>2020-09-10T13:10:00Z</time>
</trkpt>
<trkpt lat="48.427998" lon="10.440725">
<ele>411.886</ele>
<time>2020-09-10T13:10:01Z</time>
</trkpt>
<trkpt lat="48.427929" lon="10.44071">
<ele>411.886</ele>
<time>2020-09-10T13:10:02Z</time>
</trkpt>
<trkpt lat="48.42786" lon="10.440692">
<ele>411.886</ele>
<time>2020-09-10T13:10:03Z</time>
</trkpt>
<trkpt lat="48.427795" lon="10.44067">
<ele>411.886</ele>
<time>2020-09-10T13:10:04Z</time>
</trkpt>
<trkpt lat="48.427731" lon="10.44065">
<ele>411.886</ele>
<time>2020-09-10T13:10:05Z</time>
</trkpt>
<trkpt lat="48.427662" lon="10.44063">
<ele>411.886</ele>
<time>2020-09-10T13:10:06Z</time>
</trkpt>
<trkpt lat="48.427593" lon="10.440608">
<ele>411.886</ele>
<time>2020-09-10T13:10:07Z</time>
</trkpt>
<trkpt lat="48.427528" lon="10.440587">
<ele>411.886</ele>
<time>2020-09-10T13:10:08Z</time>
</trkpt>
<trkpt lat="48.427464" lon="10.440563">
<ele>411.886</ele>
<time>2020-09-10T13:10:09Z</time>
</trkpt>
<trkpt lat="48.427402" lon="10.44054">
<ele>411.886</ele>
<time>2020-09-10T13:10:10Z</time>
</trkpt>
<trkpt lat="48.427334" lon="10.440516">
<ele>411.886</ele>
<time>2020-09-10T13:10:11Z</time>
</trkpt>
<trkpt lat="48.427269" lon="10.44049">
<ele>411.886</ele>
<time>2020-09-10T13:10:12Z</time>
</trkpt>
<trkpt lat="48.427204" lon="10.440467">
<ele>411.886</ele>
<time>2020-09-10T13:10:13Z</time>
</trkpt>
<trkpt lat="48.427143" lon="10.44044">
<ele>411.634</ele>
<time>2020-09-10T13:10:14Z</time>
</trkpt>
<trkpt lat="48.427078" lon="10.440412">
<ele>411.454</ele>
<time>2020-09-10T13:10:15Z</time>
</trkpt>
<trkpt lat="48.427013" lon="10.440385">
<ele>411.269</ele>
<time>2020-09-10T13:10:16Z</time>
</trkpt>
<trkpt lat="48.426949" lon="10.44036">
<ele>411.121</ele>
<time>2020-09-10T13:10:17Z</time>
</trkpt>
<trkpt lat="48.426884" lon="10.440335">
<ele>411.008</ele>
<time>2020-09-10T13:10:18Z</time>
</trkpt>
<trkpt lat="48.426823" lon="10.440309">
<ele>410.928</ele>
<time>2020-09-10T13:10:19Z</time>
</trkpt>
<trkpt lat="48.426758" lon="10.440278">
<ele>410.874</ele>
<time>2020-09-10T13:10:20Z</time>
</trkpt>
<trkpt lat="48.426697" lon="10.440247">
<ele>410.849</ele>
<time>2020-09-10T13:10:21Z</time>
</trkpt>
<trkpt lat="48.42664" lon="10.440209">
<ele>410.849</ele>
<time>2020-09-10T13:10:22Z</time>
</trkpt>
<trkpt lat="48.426582" lon="10.440166">
<ele>410.849</ele>
<time>2020-09-10T13:10:23Z</time>
</trkpt>
<trkpt lat="48.42654" lon="10.440119">
<ele>410.849</ele>
<time>2020-09-10T13:10:24Z</time>
</trkpt>
<trkpt lat="48.426495" lon="10.440071">
<ele>410.849</ele>
<time>2020-09-10T13:10:25Z</time>
</trkpt>
<trkpt lat="48.426453" lon="10.440029">
<ele>410.849</ele>
<time>2020-09-10T13:10:26Z</time>
</trkpt>
<trkpt lat="48.426418" lon="10.439988">
<ele>410.849</ele>
<time>2020-09-10T13:10:27Z</time>
</trkpt>
<trkpt lat="48.426388" lon="10.439957">
<ele>410.849</ele>
<time>2020-09-10T13:10:28Z</time>
</trkpt>
<trkpt lat="48.426373" lon="10.43993">
<ele>410.849</ele>
<time>2020-09-10T13:10:29Z</time>
</trkpt>
<trkpt lat="48.426357" lon="10.439908">
<ele>410.849</ele>
<time>2020-09-10T13:10:30Z</time>
</trkpt>
<trkpt lat="48.426338" lon="10.439893">
<ele>410.849</ele>
<time>2020-09-10T13:10:31Z</time>
</trkpt>
<trkpt lat="48.426311" lon="10.439883">
<ele>410.849</ele>
<time>2020-09-10T13:10:32Z</time>
</trkpt>
<trkpt lat="48.426281" lon="10.43988">
<ele>410.849</ele>
<time>2020-09-10T13:10:33Z</time>
</trkpt>
<trkpt lat="48.426247" lon="10.439883">
<ele>410.849</ele>
<time>2020-09-10T13:10:34Z</time>
</trkpt>
<trkpt lat="48.426208" lon="10.439897">
<ele>410.849</ele>
<time>2020-09-10T13:10:35Z</time>
</trkpt>
<trkpt lat="48.42617" lon="10.43992">
<ele>410.849</ele>
<time>2020-09-10T13:10:36Z</time>
</trkpt>
<trkpt lat="48.426136" lon="10.439948">
<ele>410.849</ele>
<time>2020-09-10T13:10:37Z</time>
</trkpt>
<trkpt lat="48.426098" lon="10.439981">
<ele>410.849</ele>
<time>2020-09-10T13:10:38Z</time>
</trkpt>
<trkpt lat="48.426064" lon="10.440017">
<ele>410.849</ele>
<time>2020-09-10T13:10:39Z</time>
</trkpt>
<trkpt lat="48.426029" lon="10.44005">
<ele>410.849</ele>
<time>2020-09-10T13:10:40Z</time>
</trkpt>
<trkpt lat="48.425999" lon="10.440088">
<ele>410.849</ele>
<time>2020-09-10T13:10:41Z</time>
</trkpt>
<trkpt lat="48.425964" lon="10.440128">
<ele>410.849</ele>
<time>2020-09-10T13:10:42Z</time>
</trkpt>
<trkpt lat="48.42593" lon="10.440164">
<ele>410.849</ele>
<time>2020-09-10T13:10:43Z</time>
</trkpt>
<trkpt lat="48.425892" lon="10.440204">
<ele>410.849</ele>
<time>2020-09-10T13:10:44Z</time>
</trkpt>
<trkpt lat="48.425854" lon="10.440243">
<ele>410.849</ele>
<time>2020-09-10T13:10:45Z</time>
</trkpt>
<trkpt lat="48.425816" lon="10.440281">
<ele>410.849</ele>
<time>2020-09-10T13:10:46Z</time>
</trkpt>
<trkpt lat="48.425777" lon="10.44032">
<ele>410.849</ele>
<time>2020-09-10T13:10:47Z</time>
</trkpt>
<trkpt lat="48.425735" lon="10.440356">
<ele>410.849</ele>
<time>2020-09-10T13:10:48Z</time>
</trkpt>
<trkpt lat="48.425701" lon="10.440392">
<ele>410.849</ele>
<time>2020-09-10T13:10:49Z</time>
</trkpt>
<trkpt lat="48.425659" lon="10.44042">
<ele>410.849</ele>
<time>2020-09-10T13:10:50Z</time>
</trkpt>
<trkpt lat="48.425613" lon="10.440453">
<ele>410.849</ele>
<time>2020-09-10T13:10:51Z</time>
</trkpt>
<trkpt lat="48.425571" lon="10.440485">
<ele>410.849</ele>
<time>2020-09-10T13:10:52Z</time>
</trkpt>
<trkpt lat="48.425526" lon="10.440516">
<ele>410.849</ele>
<time>2020-09-10T13:10:53Z</time>
</trkpt>
<trkpt lat="48.425476" lon="10.440545">
<ele>410.849</ele>
<time>2020-09-10T13:10:54Z</time>
</trkpt>
<trkpt lat="48.425426" lon="10.440575">
<ele>410.849</ele>
<time>2020-09-10T13:10:55Z</time>
</trkpt>
<trkpt lat="48.425377" lon="10.440605">
<ele>410.849</ele>
<time>2020-09-10T13:10:56Z</time>
</trkpt>
<trkpt lat="48.42532" lon="10.440633">
<ele>410.849</ele>
<time>2020-09-10T13:10:57Z</time>
</trkpt>
<trkpt lat="48.425266" lon="10.440663">
<ele>410.849</ele>
<time>2020-09-10T13:10:58Z</time>
</trkpt>
<trkpt lat="48.425213" lon="10.440694">
<ele>410.849</ele>
<time>2020-09-10T13:10:59Z</time>
</trkpt>
<trkpt lat="48.425152" lon="10.440722">
<ele>410.849</ele>
<time>2020-09-10T13:11:00Z</time>
</trkpt>
<trkpt lat="48.425095" lon="10.440752">
<ele>410.849</ele>
<time>2020-09-10T13:11:01Z</time>
</trkpt>
<trkpt lat="48.425045" lon="10.440784">
<ele>410.849</ele>
<time>2020-09-10T13:11:02Z</time>
</trkpt>
<trkpt lat="48.424988" lon="10.440815">
<ele>410.849</ele>
<time>2020-09-10T13:11:03Z</time>
</trkpt>
<trkpt lat="48.424931" lon="10.440848">
<ele>410.849</ele>
<time>2020-09-10T13:11:04Z</time>
</trkpt>
<trkpt lat="48.424877" lon="10.440875">
<ele>410.849</ele>
<time>2020-09-10T13:11:05Z</time>
</trkpt>
<trkpt lat="48.424816" lon="10.440903">
<ele>410.849</ele>
<time>2020-09-10T13:11:06Z</time>
</trkpt>
<trkpt lat="48.424759" lon="10.440933">
<ele>410.849</ele>
<time>2020-09-10T13:11:07Z</time>
</trkpt>
<trkpt lat="48.424698" lon="10.440966">
<ele>410.849</ele>
<time>2020-09-10T13:11:08Z</time>
</trkpt>
<trkpt lat="48.424641" lon="10.440997">
<ele>410.849</ele>
<time>2020-09-10T13:11:09Z</time>
</trkpt>
<trkpt lat="48.424583" lon="10.441031">
<ele>410.849</ele>
<time>2020-09-10T13:11:10Z</time>
</trkpt>
<trkpt lat="48.424526" lon="10.441062">
<ele>410.849</ele>
<time>2020-09-10T13:11:11Z</time>
</trkpt>
<trkpt lat="48.424465" lon="10.441093">
<ele>410.849</ele>
<time>2020-09-10T13:11:12Z</time>
</trkpt>
<trkpt lat="48.424408" lon="10.441127">
<ele>410.849</ele>
<time>2020-09-10T13:11:13Z</time>
</trkpt>
<trkpt lat="48.424351" lon="10.441158">
<ele>410.849</ele>
<time>2020-09-10T13:11:14Z</time>
</trkpt>
<trkpt lat="48.424294" lon="10.441188">
<ele>410.849</ele>
<time>2020-09-10T13:11:15Z</time>
</trkpt>
<trkpt lat="48.424236" lon="10.441216">
<ele>410.849</ele>
<time>2020-09-10T13:11:16Z</time>
</trkpt>
<trkpt lat="48.424175" lon="10.441249">
<ele>410.849</ele>
<time>2020-09-10T13:11:17Z</time>
</trkpt>
<trkpt lat="48.424114" lon="10.441278">
<ele>410.849</ele>
<time>2020-09-10T13:11:18Z</time>
</trkpt>
<trkpt lat="48.424053" lon="10.441308">
<ele>410.849</ele>
<time>2020-09-10T13:11:19Z</time>
</trkpt>
<trkpt lat="48.423996" lon="10.441335">
<ele>410.849</ele>
<time>2020-09-10T13:11:20Z</time>
</trkpt>
<trkpt lat="48.423935" lon="10.441361">
<ele>410.849</ele>
<time>2020-09-10T13:11:21Z</time>
</trkpt>
<trkpt lat="48.423874" lon="10.44139">
<ele>410.849</ele>
<time>2020-09-10T13:11:22Z</time>
</trkpt>
<trkpt lat="48.423813" lon="10.441419">
<ele>410.849</ele>
<time>2020-09-10T13:11:23Z</time>
</trkpt>
<trkpt lat="48.423748" lon="10.441447">
<ele>410.849</ele>
<time>2020-09-10T13:11:24Z</time>
</trkpt>
<trkpt lat="48.423687" lon="10.441475">
<ele>410.849</ele>
<time>2020-09-10T13:11:25Z</time>
</trkpt>
<trkpt lat="48.423622" lon="10.441502">
<ele>410.849</ele>
<time>2020-09-10T13:11:26Z</time>
</trkpt>
<trkpt lat="48.423561" lon="10.441527">
<ele>410.849</ele>
<time>2020-09-10T13:11:27Z</time>
</trkpt>
<trkpt lat="48.423496" lon="10.441553">
<ele>410.849</ele>
<time>2020-09-10T13:11:28Z</time>
</trkpt>
<trkpt lat="48.423435" lon="10.441577">
<ele>410.849</ele>
<time>2020-09-10T13:11:29Z</time>
</trkpt>
<trkpt lat="48.42337" lon="10.4416">
<ele>410.849</ele>
<time>2020-09-10T13:11:30Z</time>
</trkpt>
<trkpt lat="48.423309" lon="10.441624">
<ele>410.849</ele>
<time>2020-09-10T13:11:31Z</time>
</trkpt>
<trkpt lat="48.423244" lon="10.441643">
<ele>410.849</ele>
<time>2020-09-10T13:11:32Z</time>
</trkpt>
<trkpt lat="48.423183" lon="10.441664">
<ele>410.849</ele>
<time>2020-09-10T13:11:33Z</time>
</trkpt>
<trkpt lat="48.423119" lon="10.441685">
<ele>410.849</ele>
<time>2020-09-10T13:11:34Z</time>
</trkpt>
<trkpt lat="48.423054" lon="10.441703">
<ele>410.849</ele>
<time>2020-09-10T13:11:35Z</time>
</trkpt>
<trkpt lat="48.422989" lon="10.441725">
<ele>410.849</ele>
<time>2020-09-10T13:11:36Z</time>
</trkpt>
<trkpt lat="48.422928" lon="10.441745">
<ele>410.849</ele>
<time>2020-09-10T13:11:37Z</time>
</trkpt>
<trkpt lat="48.422863" lon="10.441767">
<ele>410.849</ele>
<time>2020-09-10T13:11:38Z</time>
</trkpt>
<trkpt lat="48.422802" lon="10.441785">
<ele>410.849</ele>
<time>2020-09-10T13:11:39Z</time>
</trkpt>
<trkpt lat="48.422737" lon="10.441806">
<ele>410.849</ele>
<time>2020-09-10T13:11:40Z</time>
</trkpt>
<trkpt lat="48.422676" lon="10.441825">
<ele>410.849</ele>
<time>2020-09-10T13:11:41Z</time>
</trkpt>
<trkpt lat="48.422615" lon="10.441845">
<ele>410.849</ele>
<time>2020-09-10T13:11:42Z</time>
</trkpt>
<trkpt lat="48.422558" lon="10.441867">
<ele>410.849</ele>
<time>2020-09-10T13:11:43Z</time>
</trkpt>
<trkpt lat="48.422497" lon="10.441887">
<ele>410.849</ele>
<time>2020-09-10T13:11:44Z</time>
</trkpt>
<trkpt lat="48.422436" lon="10.441911">
<ele>410.849</ele>
<time>2020-09-10T13:11:45Z</time>
</trkpt>
<trkpt lat="48.422375" lon="10.441936">
<ele>410.849</ele>
<time>2020-09-10T13:11:46Z</time>
</trkpt>
<trkpt lat="48.422314" lon="10.441961">
<ele>410.849</ele>
<time>2020-09-10T13:11:47Z</time>
</trkpt>
<trkpt lat="48.422249" lon="10.44199">
<ele>410.849</ele>
<time>2020-09-10T13:11:48Z</time>
</trkpt>
<trkpt lat="48.422192" lon="10.442016">
<ele>410.849</ele>
<time>2020-09-10T13:11:49Z</time>
</trkpt>
<trkpt lat="48.422134" lon="10.44204">
<ele>410.849</ele>
<time>2020-09-10T13:11:50Z</time>
</trkpt>
<trkpt lat="48.422077" lon="10.442063">
<ele>410.849</ele>
<time>2020-09-10T13:11:51Z</time>
</trkpt>
<trkpt lat="48.42202" lon="10.442086">
<ele>410.849</ele>
<time>2020-09-10T13:11:52Z</time>
</trkpt>
<trkpt lat="48.421955" lon="10.442108">
<ele>410.849</ele>
<time>2020-09-10T13:11:53Z</time>
</trkpt>
<trkpt lat="48.421894" lon="10.442133">
<ele>411.079</ele>
<time>2020-09-10T13:11:54Z</time>
</trkpt>
<trkpt lat="48.421837" lon="10.442158">
<ele>411.243</ele>
<time>2020-09-10T13:11:55Z</time>
</trkpt>
<trkpt lat="48.42178" lon="10.442183">
<ele>411.413</ele>
<time>2020-09-10T13:11:56Z</time>
</trkpt>
<trkpt lat="48.421722" lon="10.442208">
<ele>411.55</ele>
<time>2020-09-10T13:11:57Z</time>
</trkpt>
<trkpt lat="48.421661" lon="10.442231">
<ele>411.653</ele>
<time>2020-09-10T13:11:58Z</time>
</trkpt>
<trkpt lat="48.421604" lon="10.442257">
<ele>411.729</ele>
<time>2020-09-10T13:11:59Z</time>
</trkpt>
<trkpt lat="48.421547" lon="10.44228">
<ele>411.776</ele>
<time>2020-09-10T13:12:00Z</time>
</trkpt>
<trkpt lat="48.421494" lon="10.442305">
<ele>411.799</ele>
<time>2020-09-10T13:12:01Z</time>
</trkpt>
<trkpt lat="48.42144" lon="10.442328">
<ele>411.799</ele>
<time>2020-09-10T13:12:02Z</time>
</trkpt>
<trkpt lat="48.421387" lon="10.442353">
<ele>411.799</ele>
<time>2020-09-10T13:12:03Z</time>
</trkpt>
<trkpt lat="48.421333" lon="10.442378">
<ele>411.799</ele>
<time>2020-09-10T13:12:04Z</time>
</trkpt>
<trkpt lat="48.421291" lon="10.4424">
<ele>411.799</ele>
<time>2020-09-10T13:12:05Z</time>
</trkpt>
<trkpt lat="48.421242" lon="10.442424">
<ele>411.799</ele>
<time>2020-09-10T13:12:06Z</time>
</trkpt>
<trkpt lat="48.421192" lon="10.442445">
<ele>412.048</ele>
<time>2020-09-10T13:12:07Z</time>
</trkpt>
<trkpt lat="48.421139" lon="10.442473">
<ele>412.246</ele>
<time>2020-09-10T13:12:08Z</time>
</trkpt>
<trkpt lat="48.421089" lon="10.442507">
<ele>412.4</ele>
<time>2020-09-10T13:12:09Z</time>
</trkpt>
<trkpt lat="48.421043" lon="10.442548">
<ele>412.514</ele>
<time>2020-09-10T13:12:10Z</time>
</trkpt>
<trkpt lat="48.421009" lon="10.442604">
<ele>412.593</ele>
<time>2020-09-10T13:12:11Z</time>
</trkpt>
<trkpt lat="48.420975" lon="10.442669">
<ele>412.634</ele>
<time>2020-09-10T13:12:12Z</time>
</trkpt>
<trkpt lat="48.42094" lon="10.442726">
<ele>412.921</ele>
<time>2020-09-10T13:12:13Z</time>
</trkpt>
<trkpt lat="48.420902" lon="10.442765">
<ele>413.128</ele>
<time>2020-09-10T13:12:14Z</time>
</trkpt>
<trkpt lat="48.420856" lon="10.44279">
<ele>413.267</ele>
<time>2020-09-10T13:12:15Z</time>
</trkpt>
<trkpt lat="48.420807" lon="10.442812">
<ele>413.414</ele>
<time>2020-09-10T13:12:16Z</time>
</trkpt>
<trkpt lat="48.420757" lon="10.442828">
<ele>413.531</ele>
<time>2020-09-10T13:12:17Z</time>
</trkpt>
<trkpt lat="48.420715" lon="10.442841">
<ele>413.619</ele>
<time>2020-09-10T13:12:18Z</time>
</trkpt>
<trkpt lat="48.420666" lon="10.442858">
<ele>413.674</ele>
<time>2020-09-10T13:12:19Z</time>
</trkpt>
<trkpt lat="48.42062" lon="10.442875">
<ele>413.701</ele>
<time>2020-09-10T13:12:20Z</time>
</trkpt>
<trkpt lat="48.42057" lon="10.442891">
<ele>413.701</ele>
<time>2020-09-10T13:12:21Z</time>
</trkpt>
<trkpt lat="48.420521" lon="10.442912">
<ele>413.701</ele>
<time>2020-09-10T13:12:22Z</time>
</trkpt>
<trkpt lat="48.420471" lon="10.442933">
<ele>413.701</ele>
<time>2020-09-10T13:12:23Z</time>
</trkpt>
<trkpt lat="48.420422" lon="10.44296">
<ele>413.701</ele>
<time>2020-09-10T13:12:24Z</time>
</trkpt>
<trkpt lat="48.420364" lon="10.442986">
<ele>413.917</ele>
<time>2020-09-10T13:12:25Z</time>
</trkpt>
<trkpt lat="48.420311" lon="10.44301">
<ele>414.125</ele>
<time>2020-09-10T13:12:26Z</time>
</trkpt>
<trkpt lat="48.420258" lon="10.443036">
<ele>414.289</ele>
<time>2020-09-10T13:12:27Z</time>
</trkpt>
<trkpt lat="48.4202" lon="10.443065">
<ele>414.42</ele>
<time>2020-09-10T13:12:28Z</time>
</trkpt>
<trkpt lat="48.420147" lon="10.443092">
<ele>414.516</ele>
<time>2020-09-10T13:12:29Z</time>
</trkpt>
<trkpt lat="48.420097" lon="10.443118">
<ele>414.576</ele>
<time>2020-09-10T13:12:30Z</time>
</trkpt>
<trkpt lat="48.42004" lon="10.443147">
<ele>414.86</ele>
<time>2020-09-10T13:12:31Z</time>
</trkpt>
<trkpt lat="48.419991" lon="10.443174">
<ele>415.076</ele>
<time>2020-09-10T13:12:32Z</time>
</trkpt>
<trkpt lat="48.419937" lon="10.443201">
<ele>415.221</ele>
<time>2020-09-10T13:12:33Z</time>
</trkpt>
<trkpt lat="48.419895" lon="10.443225">
<ele>415.61</ele>
<time>2020-09-10T13:12:34Z</time>
</trkpt>
<trkpt lat="48.419849" lon="10.443247">
<ele>415.901</ele>
<time>2020-09-10T13:12:35Z</time>
</trkpt>
<trkpt lat="48.419804" lon="10.443265">
<ele>416.181</ele>
<time>2020-09-10T13:12:36Z</time>
</trkpt>
<trkpt lat="48.41975" lon="10.44329">
<ele>416.394</ele>
<time>2020-09-10T13:12:37Z</time>
</trkpt>
<trkpt lat="48.419701" lon="10.44331">
<ele>416.544</ele>
<time>2020-09-10T13:12:38Z</time>
</trkpt>
<trkpt lat="48.419643" lon="10.443329">
<ele>416.636</ele>
<time>2020-09-10T13:12:39Z</time>
</trkpt>
<trkpt lat="48.419586" lon="10.443345">
<ele>416.697</ele>
<time>2020-09-10T13:12:40Z</time>
</trkpt>
<trkpt lat="48.419525" lon="10.44336">
<ele>416.726</ele>
<time>2020-09-10T13:12:41Z</time>
</trkpt>
<trkpt lat="48.419464" lon="10.443374">
<ele>416.726</ele>
<time>2020-09-10T13:12:42Z</time>
</trkpt>
<trkpt lat="48.419399" lon="10.44339">
<ele>416.726</ele>
<time>2020-09-10T13:12:43Z</time>
</trkpt>
<trkpt lat="48.419334" lon="10.443403">
<ele>416.726</ele>
<time>2020-09-10T13:12:44Z</time>
</trkpt>
<trkpt lat="48.419262" lon="10.443417">
<ele>416.726</ele>
<time>2020-09-10T13:12:45Z</time>
</trkpt>
<trkpt lat="48.419189" lon="10.443425">
<ele>416.726</ele>
<time>2020-09-10T13:12:46Z</time>
</trkpt>
<trkpt lat="48.419117" lon="10.443437">
<ele>416.424</ele>
<time>2020-09-10T13:12:47Z</time>
</trkpt>
<trkpt lat="48.419048" lon="10.443446">
<ele>416.204</ele>
<time>2020-09-10T13:12:48Z</time>
</trkpt>
<trkpt lat="48.418976" lon="10.443457">
<ele>416.041</ele>
<time>2020-09-10T13:12:49Z</time>
</trkpt>
<trkpt lat="48.418903" lon="10.443465">
<ele>415.924</ele>
<time>2020-09-10T13:12:50Z</time>
</trkpt>
<trkpt lat="48.418835" lon="10.443474">
<ele>415.849</ele>
<time>2020-09-10T13:12:51Z</time>
</trkpt>
<trkpt lat="48.418762" lon="10.443486">
<ele>415.8</ele>
<time>2020-09-10T13:12:52Z</time>
</trkpt>
<trkpt lat="48.418694" lon="10.443501">
<ele>415.775</ele>
<time>2020-09-10T13:12:53Z</time>
</trkpt>
<trkpt lat="48.418621" lon="10.443517">
<ele>415.775</ele>
<time>2020-09-10T13:12:54Z</time>
</trkpt>
<trkpt lat="48.418549" lon="10.443533">
<ele>415.775</ele>
<time>2020-09-10T13:12:55Z</time>
</trkpt>
<trkpt lat="48.418472" lon="10.443549">
<ele>415.521</ele>
<time>2020-09-10T13:12:56Z</time>
</trkpt>
<trkpt lat="48.4184" lon="10.443565">
<ele>415.306</ele>
<time>2020-09-10T13:12:57Z</time>
</trkpt>
<trkpt lat="48.418324" lon="10.443583">
<ele>415.13</ele>
<time>2020-09-10T13:12:58Z</time>
</trkpt>
<trkpt lat="48.418247" lon="10.443599">
<ele>414.991</ele>
<time>2020-09-10T13:12:59Z</time>
</trkpt>
<trkpt lat="48.418175" lon="10.443612">
<ele>414.885</ele>
<time>2020-09-10T13:13:00Z</time>
</trkpt>
<trkpt lat="48.418102" lon="10.443615">
<ele>414.81</ele>
<time>2020-09-10T13:13:01Z</time>
</trkpt>
<trkpt lat="48.41803" lon="10.443618">
<ele>414.761</ele>
<time>2020-09-10T13:13:02Z</time>
</trkpt>
<trkpt lat="48.417961" lon="10.44362">
<ele>414.738</ele>
<time>2020-09-10T13:13:03Z</time>
</trkpt>
<trkpt lat="48.417892" lon="10.44362">
<ele>414.738</ele>
<time>2020-09-10T13:13:04Z</time>
</trkpt>
<trkpt lat="48.417828" lon="10.443622">
<ele>414.738</ele>
<time>2020-09-10T13:13:05Z</time>
</trkpt>
<trkpt lat="48.417759" lon="10.443624">
<ele>414.738</ele>
<time>2020-09-10T13:13:06Z</time>
</trkpt>
<trkpt lat="48.417694" lon="10.443628">
<ele>414.738</ele>
<time>2020-09-10T13:13:07Z</time>
</trkpt>
<trkpt lat="48.417629" lon="10.443633">
<ele>414.738</ele>
<time>2020-09-10T13:13:08Z</time>
</trkpt>
<trkpt lat="48.417564" lon="10.443635">
<ele>414.738</ele>
<time>2020-09-10T13:13:09Z</time>
</trkpt>
<trkpt lat="48.417496" lon="10.443635">
<ele>414.738</ele>
<time>2020-09-10T13:13:10Z</time>
</trkpt>
<trkpt lat="48.417431" lon="10.44363">
<ele>414.738</ele>
<time>2020-09-10T13:13:11Z</time>
</trkpt>
<trkpt lat="48.41737" lon="10.443624">
<ele>414.738</ele>
<time>2020-09-10T13:13:12Z</time>
</trkpt>
<trkpt lat="48.417309" lon="10.443618">
<ele>414.738</ele>
<time>2020-09-10T13:13:13Z</time>
</trkpt>
<trkpt lat="48.417248" lon="10.443608">
<ele>414.738</ele>
<time>2020-09-10T13:13:14Z</time>
</trkpt>
<trkpt lat="48.417187" lon="10.4436">
<ele>414.947</ele>
<time>2020-09-10T13:13:15Z</time>
</trkpt>
<trkpt lat="48.417126" lon="10.443588">
<ele>415.144</ele>
<time>2020-09-10T13:13:16Z</time>
</trkpt>
<trkpt lat="48.417065" lon="10.443577">
<ele>415.307</ele>
<time>2020-09-10T13:13:17Z</time>
</trkpt>
<trkpt lat="48.417" lon="10.443566">
<ele>415.42</ele>
<time>2020-09-10T13:13:18Z</time>
</trkpt>
<trkpt lat="48.416939" lon="10.443557">
<ele>415.762</ele>
<time>2020-09-10T13:13:19Z</time>
</trkpt>
<trkpt lat="48.416882" lon="10.443549">
<ele>416.035</ele>
<time>2020-09-10T13:13:20Z</time>
</trkpt>
<trkpt lat="48.416821" lon="10.443547">
<ele>416.247</ele>
<time>2020-09-10T13:13:21Z</time>
</trkpt>
<trkpt lat="48.416763" lon="10.443545">
<ele>416.373</ele>
<time>2020-09-10T13:13:22Z</time>
</trkpt>
<trkpt lat="48.416706" lon="10.443547">
<ele>416.715</ele>
<time>2020-09-10T13:13:23Z</time>
</trkpt>
<trkpt lat="48.416645" lon="10.443548">
<ele>416.945</ele>
<time>2020-09-10T13:13:24Z</time>
</trkpt>
<trkpt lat="48.416588" lon="10.443543">
<ele>417.113</ele>
<time>2020-09-10T13:13:25Z</time>
</trkpt>
<trkpt lat="48.416527" lon="10.443541">
<ele>417.268</ele>
<time>2020-09-10T13:13:26Z</time>
</trkpt>
<trkpt lat="48.41647" lon="10.443537">
<ele>417.366</ele>
<time>2020-09-10T13:13:27Z</time>
</trkpt>
<trkpt lat="48.416409" lon="10.443533">
<ele>417.436</ele>
<time>2020-09-10T13:13:28Z</time>
</trkpt>
<trkpt lat="48.416348" lon="10.443528">
<ele>417.482</ele>
<time>2020-09-10T13:13:29Z</time>
</trkpt>
<trkpt lat="48.41629" lon="10.443523">
<ele>417.504</ele>
<time>2020-09-10T13:13:30Z</time>
</trkpt>
<trkpt lat="48.416229" lon="10.443518">
<ele>417.504</ele>
<time>2020-09-10T13:13:31Z</time>
</trkpt>
<trkpt lat="48.416172" lon="10.443513">
<ele>417.504</ele>
<time>2020-09-10T13:13:32Z</time>
</trkpt>
<trkpt lat="48.416111" lon="10.443509">
<ele>417.504</ele>
<time>2020-09-10T13:13:33Z</time>
</trkpt>
<trkpt lat="48.416054" lon="10.443505">
<ele>417.504</ele>
<time>2020-09-10T13:13:34Z</time>
</trkpt>
<trkpt lat="48.415989" lon="10.443503">
<ele>417.504</ele>
<time>2020-09-10T13:13:35Z</time>
</trkpt>
<trkpt lat="48.415932" lon="10.443501">
<ele>417.504</ele>
<time>2020-09-10T13:13:36Z</time>
</trkpt>
<trkpt lat="48.415871" lon="10.443501">
<ele>417.504</ele>
<time>2020-09-10T13:13:37Z</time>
</trkpt>
<trkpt lat="48.41581" lon="10.443501">
<ele>417.504</ele>
<time>2020-09-10T13:13:38Z</time>
</trkpt>
<trkpt lat="48.415749" lon="10.443499">
<ele>417.504</ele>
<time>2020-09-10T13:13:39Z</time>
</trkpt>
<trkpt lat="48.415688" lon="10.443497">
<ele>417.787</ele>
<time>2020-09-10T13:13:40Z</time>
</trkpt>
<trkpt lat="48.41563" lon="10.443495">
<ele>418.009</ele>
<time>2020-09-10T13:13:41Z</time>
</trkpt>
<trkpt lat="48.415565" lon="10.443493">
<ele>418.177</ele>
<time>2020-09-10T13:13:42Z</time>
</trkpt>
<trkpt lat="48.415508" lon="10.44349">
<ele>418.302</ele>
<time>2020-09-10T13:13:43Z</time>
</trkpt>
<trkpt lat="48.415447" lon="10.443486">
<ele>418.389</ele>
<time>2020-09-10T13:13:44Z</time>
</trkpt>
<trkpt lat="48.415386" lon="10.443484">
<ele>418.454</ele>
<time>2020-09-10T13:13:45Z</time>
</trkpt>
<trkpt lat="48.415329" lon="10.443483">
<ele>418.514</ele>
<time>2020-09-10T13:13:46Z</time>
</trkpt>
<trkpt lat="48.415268" lon="10.443484">
<ele>418.541</ele>
<time>2020-09-10T13:13:47Z</time>
</trkpt>
<trkpt lat="48.415211" lon="10.44349">
<ele>418.541</ele>
<time>2020-09-10T13:13:48Z</time>
</trkpt>
<trkpt lat="48.415161" lon="10.443495">
<ele>418.541</ele>
<time>2020-09-10T13:13:49Z</time>
</trkpt>
<trkpt lat="48.415115" lon="10.443501">
<ele>418.541</ele>
<time>2020-09-10T13:13:50Z</time>
</trkpt>
<trkpt lat="48.415077" lon="10.443507">
<ele>418.541</ele>
<time>2020-09-10T13:13:51Z</time>
</trkpt>
<trkpt lat="48.415039" lon="10.443513">
<ele>418.541</ele>
<time>2020-09-10T13:13:52Z</time>
</trkpt>
<trkpt lat="48.414997" lon="10.44352">
<ele>418.541</ele>
<time>2020-09-10T13:13:53Z</time>
</trkpt>
<trkpt lat="48.414955" lon="10.443528">
<ele>418.541</ele>
<time>2020-09-10T13:13:54Z</time>
</trkpt>
<trkpt lat="48.414913" lon="10.443535">
<ele>418.541</ele>
<time>2020-09-10T13:13:55Z</time>
</trkpt>
<trkpt lat="48.414867" lon="10.443547">
<ele>418.541</ele>
<time>2020-09-10T13:13:56Z</time>
</trkpt>
<trkpt lat="48.414818" lon="10.443557">
<ele>418.259</ele>
<time>2020-09-10T13:13:57Z</time>
</trkpt>
<trkpt lat="48.414772" lon="10.443568">
<ele>418.026</ele>
<time>2020-09-10T13:13:58Z</time>
</trkpt>
<trkpt lat="48.414719" lon="10.443581">
<ele>417.852</ele>
<time>2020-09-10T13:13:59Z</time>
</trkpt>
<trkpt lat="48.414661" lon="10.44359">
<ele>417.732</ele>
<time>2020-09-10T13:14:00Z</time>
</trkpt>
<trkpt lat="48.414608" lon="10.4436">
<ele>417.656</ele>
<time>2020-09-10T13:14:01Z</time>
</trkpt>
<trkpt lat="48.414555" lon="10.443614">
<ele>417.611</ele>
<time>2020-09-10T13:14:02Z</time>
</trkpt>
<trkpt lat="48.414494" lon="10.443628">
<ele>417.59</ele>
<time>2020-09-10T13:14:03Z</time>
</trkpt>
<trkpt lat="48.414436" lon="10.44364">
<ele>417.59</ele>
<time>2020-09-10T13:14:04Z</time>
</trkpt>
<trkpt lat="48.414379" lon="10.443653">
<ele>417.59</ele>
<time>2020-09-10T13:14:05Z</time>
</trkpt>
<trkpt lat="48.414318" lon="10.443666">
<ele>417.59</ele>
<time>2020-09-10T13:14:06Z</time>
</trkpt>
<trkpt lat="48.414253" lon="10.44368">
<ele>417.59</ele>
<time>2020-09-10T13:14:07Z</time>
</trkpt>
<trkpt lat="48.414192" lon="10.443693">
<ele>417.59</ele>
<time>2020-09-10T13:14:08Z</time>
</trkpt>
<trkpt lat="48.414127" lon="10.443707">
<ele>417.59</ele>
<time>2020-09-10T13:14:09Z</time>
</trkpt>
<trkpt lat="48.414062" lon="10.443721">
<ele>417.59</ele>
<time>2020-09-10T13:14:10Z</time>
</trkpt>
<trkpt lat="48.413998" lon="10.443738">
<ele>417.59</ele>
<time>2020-09-10T13:14:11Z</time>
</trkpt>
<trkpt lat="48.413933" lon="10.443756">
<ele>417.59</ele>
<time>2020-09-10T13:14:12Z</time>
</trkpt>
<trkpt lat="48.413868" lon="10.443777">
<ele>417.59</ele>
<time>2020-09-10T13:14:13Z</time>
</trkpt>
<trkpt lat="48.413803" lon="10.443794">
<ele>417.59</ele>
<time>2020-09-10T13:14:14Z</time>
</trkpt>
<trkpt lat="48.413734" lon="10.443817">
<ele>417.59</ele>
<time>2020-09-10T13:14:15Z</time>
</trkpt>
<trkpt lat="48.41367" lon="10.443838">
<ele>417.59</ele>
<time>2020-09-10T13:14:16Z</time>
</trkpt>
<trkpt lat="48.413597" lon="10.443859">
<ele>417.59</ele>
<time>2020-09-10T13:14:17Z</time>
</trkpt>
<trkpt lat="48.413528" lon="10.443875">
<ele>417.311</ele>
<time>2020-09-10T13:14:18Z</time>
</trkpt>
<trkpt lat="48.41346" lon="10.443893">
<ele>417.095</ele>
<time>2020-09-10T13:14:19Z</time>
</trkpt>
<trkpt lat="48.413391" lon="10.44391">
<ele>416.932</ele>
<time>2020-09-10T13:14:20Z</time>
</trkpt>
<trkpt lat="48.413322" lon="10.443924">
<ele>416.816</ele>
<time>2020-09-10T13:14:21Z</time>
</trkpt>
<trkpt lat="48.413254" lon="10.443938">
<ele>416.735</ele>
<time>2020-09-10T13:14:22Z</time>
</trkpt>
<trkpt lat="48.413181" lon="10.44395">
<ele>416.685</ele>
<time>2020-09-10T13:14:23Z</time>
</trkpt>
<trkpt lat="48.413113" lon="10.443966">
<ele>416.661</ele>
<time>2020-09-10T13:14:24Z</time>
</trkpt>
<trkpt lat="48.413036" lon="10.443981">
<ele>416.639</ele>
<time>2020-09-10T13:14:25Z</time>
</trkpt>
<trkpt lat="48.412956" lon="10.443981">
<ele>416.639</ele>
<time>2020-09-10T13:14:26Z</time>
</trkpt>
<trkpt lat="48.41288" lon="10.443978">
<ele>416.639</ele>
<time>2020-09-10T13:14:27Z</time>
</trkpt>
<trkpt lat="48.412796" lon="10.443976">
<ele>416.639</ele>
<time>2020-09-10T13:14:28Z</time>
</trkpt>
<trkpt lat="48.41272" lon="10.443974">
<ele>416.639</ele>
<time>2020-09-10T13:14:29Z</time>
</trkpt>
<trkpt lat="48.412636" lon="10.443974">
<ele>416.639</ele>
<time>2020-09-10T13:14:30Z</time>
</trkpt>
<trkpt lat="48.412594" lon="10.444022">
<ele>416.639</ele>
<time>2020-09-10T13:14:31Z</time>
</trkpt>
<trkpt lat="48.412533" lon="10.44409">
<ele>416.639</ele>
<time>2020-09-10T13:14:32Z</time>
</trkpt>
<trkpt lat="48.412453" lon="10.444139">
<ele>416.639</ele>
<time>2020-09-10T13:14:33Z</time>
</trkpt>
<trkpt lat="48.41238" lon="10.444174">
<ele>416.639</ele>
<time>2020-09-10T13:14:34Z</time>
</trkpt>
<trkpt lat="48.412315" lon="10.444205">
<ele>416.639</ele>
<time>2020-09-10T13:14:35Z</time>
</trkpt>
<trkpt lat="48.412247" lon="10.444241">
<ele>416.639</ele>
<time>2020-09-10T13:14:36Z</time>
</trkpt>
<trkpt lat="48.412186" lon="10.444263">
<ele>416.639</ele>
<time>2020-09-10T13:14:37Z</time>
</trkpt>
<trkpt lat="48.412128" lon="10.444283">
<ele>416.639</ele>
<time>2020-09-10T13:14:38Z</time>
</trkpt>
<trkpt lat="48.412067" lon="10.444307">
<ele>416.639</ele>
<time>2020-09-10T13:14:39Z</time>
</trkpt>
<trkpt lat="48.41201" lon="10.44433">
<ele>416.639</ele>
<time>2020-09-10T13:14:40Z</time>
</trkpt>
<trkpt lat="48.411953" lon="10.444349">
<ele>416.876</ele>
<time>2020-09-10T13:14:41Z</time>
</trkpt>
<trkpt lat="48.411896" lon="10.44437">
<ele>417.072</ele>
<time>2020-09-10T13:14:42Z</time>
</trkpt>
<trkpt lat="48.411842" lon="10.444391">
<ele>417.226</ele>
<time>2020-09-10T13:14:43Z</time>
</trkpt>
<trkpt lat="48.411785" lon="10.444418">
<ele>417.339</ele>
<time>2020-09-10T13:14:44Z</time>
</trkpt>
<trkpt lat="48.411736" lon="10.444444">
<ele>417.426</ele>
<time>2020-09-10T13:14:45Z</time>
</trkpt>
<trkpt lat="48.411686" lon="10.44447">
<ele>417.736</ele>
<time>2020-09-10T13:14:46Z</time>
</trkpt>
<trkpt lat="48.411644" lon="10.444495">
<ele>417.978</ele>
<time>2020-09-10T13:14:47Z</time>
</trkpt>
<trkpt lat="48.411594" lon="10.44452">
<ele>418.137</ele>
<time>2020-09-10T13:14:48Z</time>
</trkpt>
<trkpt lat="48.411552" lon="10.444547">
<ele>418.496</ele>
<time>2020-09-10T13:14:49Z</time>
</trkpt>
<trkpt lat="48.411507" lon="10.444571">
<ele>418.794</ele>
<time>2020-09-10T13:14:50Z</time>
</trkpt>
<trkpt lat="48.411457" lon="10.444589">
<ele>419.033</ele>
<time>2020-09-10T13:14:51Z</time>
</trkpt>
<trkpt lat="48.411407" lon="10.4446">
<ele>419.217</ele>
<time>2020-09-10T13:14:52Z</time>
</trkpt>
<trkpt lat="48.411358" lon="10.444615">
<ele>419.349</ele>
<time>2020-09-10T13:14:53Z</time>
</trkpt>
<trkpt lat="48.411304" lon="10.444626">
<ele>419.423</ele>
<time>2020-09-10T13:14:54Z</time>
</trkpt>
<trkpt lat="48.411255" lon="10.44464">
<ele>419.466</ele>
<time>2020-09-10T13:14:55Z</time>
</trkpt>
<trkpt lat="48.411201" lon="10.444657">
<ele>419.492</ele>
<time>2020-09-10T13:14:56Z</time>
</trkpt>
<trkpt lat="48.411156" lon="10.444674">
<ele>419.492</ele>
<time>2020-09-10T13:14:57Z</time>
</trkpt>
<trkpt lat="48.411106" lon="10.444695">
<ele>419.492</ele>
<time>2020-09-10T13:14:58Z</time>
</trkpt>
<trkpt lat="48.41106" lon="10.444715">
<ele>419.492</ele>
<time>2020-09-10T13:14:59Z</time>
</trkpt>
<trkpt lat="48.411015" lon="10.444732">
<ele>419.492</ele>
<time>2020-09-10T13:15:00Z</time>
</trkpt>
<trkpt lat="48.410969" lon="10.44475">
<ele>419.492</ele>
<time>2020-09-10T13:15:01Z</time>
</trkpt>
<trkpt lat="48.410931" lon="10.44477">
<ele>419.492</ele>
<time>2020-09-10T13:15:02Z</time>
</trkpt>
<trkpt lat="48.410892" lon="10.444789">
<ele>419.492</ele>
<time>2020-09-10T13:15:03Z</time>
</trkpt>
<trkpt lat="48.410862" lon="10.444797">
<ele>419.492</ele>
<time>2020-09-10T13:15:04Z</time>
</trkpt>
<trkpt lat="48.410839" lon="10.44479">
<ele>419.691</ele>
<time>2020-09-10T13:15:05Z</time>
</trkpt>
<trkpt lat="48.410824" lon="10.444764">
<ele>419.87</ele>
<time>2020-09-10T13:15:06Z</time>
</trkpt>
<trkpt lat="48.410816" lon="10.444727">
<ele>420.023</ele>
<time>2020-09-10T13:15:07Z</time>
</trkpt>
<trkpt lat="48.410812" lon="10.444682">
<ele>420.157</ele>
<time>2020-09-10T13:15:08Z</time>
</trkpt>
<trkpt lat="48.410805" lon="10.444633">
<ele>420.266</ele>
<time>2020-09-10T13:15:09Z</time>
</trkpt>
<trkpt lat="48.410782" lon="10.444592">
<ele>420.355</ele>
<time>2020-09-10T13:15:10Z</time>
</trkpt>
<trkpt lat="48.410751" lon="10.444569">
<ele>420.414</ele>
<time>2020-09-10T13:15:11Z</time>
</trkpt>
<trkpt lat="48.410713" lon="10.444557">
<ele>420.444</ele>
<time>2020-09-10T13:15:12Z</time>
</trkpt>
<trkpt lat="48.410675" lon="10.444545">
<ele>420.444</ele>
<time>2020-09-10T13:15:13Z</time>
</trkpt>
<trkpt lat="48.410629" lon="10.444527">
<ele>420.444</ele>
<time>2020-09-10T13:15:14Z</time>
</trkpt>
<trkpt lat="48.410587" lon="10.44451">
<ele>420.444</ele>
<time>2020-09-10T13:15:15Z</time>
</trkpt>
<trkpt lat="48.410542" lon="10.4445">
<ele>420.443</ele>
<time>2020-09-10T13:15:16Z</time>
</trkpt>
<trkpt lat="48.4105" lon="10.444507">
<ele>420.443</ele>
<time>2020-09-10T13:15:17Z</time>
</trkpt>
<trkpt lat="48.410465" lon="10.444531">
<ele>420.444</ele>
<time>2020-09-10T13:15:18Z</time>
</trkpt>
<trkpt lat="48.410435" lon="10.444563">
<ele>420.443</ele>
<time>2020-09-10T13:15:19Z</time>
</trkpt>
<trkpt lat="48.4104" lon="10.444598">
<ele>420.443</ele>
<time>2020-09-10T13:15:20Z</time>
</trkpt>
<trkpt lat="48.410362" lon="10.444628">
<ele>420.443</ele>
<time>2020-09-10T13:15:21Z</time>
</trkpt>
<trkpt lat="48.410324" lon="10.444655">
<ele>420.443</ele>
<time>2020-09-10T13:15:22Z</time>
</trkpt>
<trkpt lat="48.410282" lon="10.444687">
<ele>420.443</ele>
<time>2020-09-10T13:15:23Z</time>
</trkpt>
<trkpt lat="48.410236" lon="10.444718">
<ele>420.443</ele>
<time>2020-09-10T13:15:24Z</time>
</trkpt>
<trkpt lat="48.410187" lon="10.444747">
<ele>420.444</ele>
<time>2020-09-10T13:15:25Z</time>
</trkpt>
<trkpt lat="48.410141" lon="10.44477">
<ele>420.714</ele>
<time>2020-09-10T13:15:26Z</time>
</trkpt>
<trkpt lat="48.410091" lon="10.444792">
<ele>420.932</ele>
<time>2020-09-10T13:15:27Z</time>
</trkpt>
<trkpt lat="48.410049" lon="10.444813">
<ele>421.101</ele>
<time>2020-09-10T13:15:28Z</time>
</trkpt>
<trkpt lat="48.41" lon="10.44483">
<ele>421.235</ele>
<time>2020-09-10T13:15:29Z</time>
</trkpt>
<trkpt lat="48.409954" lon="10.444848">
<ele>421.337</ele>
<time>2020-09-10T13:15:30Z</time>
</trkpt>
<trkpt lat="48.409901" lon="10.444865">
<ele>421.396</ele>
<time>2020-09-10T13:15:31Z</time>
</trkpt>
<trkpt lat="48.409851" lon="10.444881">
<ele>421.663</ele>
<time>2020-09-10T13:15:32Z</time>
</trkpt>
<trkpt lat="48.409801" lon="10.444897">
<ele>421.869</ele>
<time>2020-09-10T13:15:33Z</time>
</trkpt>
<trkpt lat="48.409756" lon="10.444911">
<ele>422.015</ele>
<time>2020-09-10T13:15:34Z</time>
</trkpt>
<trkpt lat="48.409706" lon="10.444921">
<ele>422.109</ele>
<time>2020-09-10T13:15:35Z</time>
</trkpt>
<trkpt lat="48.40966" lon="10.444934">
<ele>422.208</ele>
<time>2020-09-10T13:15:36Z</time>
</trkpt>
<trkpt lat="48.409607" lon="10.444943">
<ele>422.276</ele>
<time>2020-09-10T13:15:37Z</time>
</trkpt>
<trkpt lat="48.409557" lon="10.444953">
<ele>422.576</ele>
<time>2020-09-10T13:15:38Z</time>
</trkpt>
<trkpt lat="48.4095" lon="10.44496">
<ele>422.812</ele>
<time>2020-09-10T13:15:39Z</time>
</trkpt>
<trkpt lat="48.409447" lon="10.444968">
<ele>423.057</ele>
<time>2020-09-10T13:15:40Z</time>
</trkpt>
<trkpt lat="48.409397" lon="10.444972">
<ele>423.193</ele>
<time>2020-09-10T13:15:41Z</time>
</trkpt>
<trkpt lat="48.40934" lon="10.444982">
<ele>423.282</ele>
<time>2020-09-10T13:15:42Z</time>
</trkpt>
<trkpt lat="48.409286" lon="10.444988">
<ele>423.336</ele>
<time>2020-09-10T13:15:43Z</time>
</trkpt>
<trkpt lat="48.409229" lon="10.444997">
<ele>423.362</ele>
<time>2020-09-10T13:15:44Z</time>
</trkpt>
<trkpt lat="48.409176" lon="10.445002">
<ele>423.384</ele>
<time>2020-09-10T13:15:45Z</time>
</trkpt>
<trkpt lat="48.409119" lon="10.445007">
<ele>423.384</ele>
<time>2020-09-10T13:15:46Z</time>
</trkpt>
<trkpt lat="48.409065" lon="10.445011">
<ele>423.384</ele>
<time>2020-09-10T13:15:47Z</time>
</trkpt>
<trkpt lat="48.409008" lon="10.445013">
<ele>423.384</ele>
<time>2020-09-10T13:15:48Z</time>
</trkpt>
<trkpt lat="48.408951" lon="10.445015">
<ele>423.384</ele>
<time>2020-09-10T13:15:49Z</time>
</trkpt>
<trkpt lat="48.408901" lon="10.445011">
<ele>423.384</ele>
<time>2020-09-10T13:15:50Z</time>
</trkpt>
<trkpt lat="48.408848" lon="10.445008">
<ele>423.384</ele>
<time>2020-09-10T13:15:51Z</time>
</trkpt>
<trkpt lat="48.408794" lon="10.445004">
<ele>423.384</ele>
<time>2020-09-10T13:15:52Z</time>
</trkpt>
<trkpt lat="48.408737" lon="10.445001">
<ele>423.384</ele>
<time>2020-09-10T13:15:53Z</time>
</trkpt>
<trkpt lat="48.40868" lon="10.444992">
<ele>423.384</ele>
<time>2020-09-10T13:15:54Z</time>
</trkpt>
<trkpt lat="48.408623" lon="10.444982">
<ele>423.384</ele>
<time>2020-09-10T13:15:55Z</time>
</trkpt>
<trkpt lat="48.408566" lon="10.444968">
<ele>423.384</ele>
<time>2020-09-10T13:15:56Z</time>
</trkpt>
<trkpt lat="48.408508" lon="10.444953">
<ele>423.384</ele>
<time>2020-09-10T13:15:57Z</time>
</trkpt>
<trkpt lat="48.408451" lon="10.444942">
<ele>423.384</ele>
<time>2020-09-10T13:15:58Z</time>
</trkpt>
<trkpt lat="48.408398" lon="10.44493">
<ele>423.384</ele>
<time>2020-09-10T13:15:59Z</time>
</trkpt>
<trkpt lat="48.40834" lon="10.44491">
<ele>423.149</ele>
<time>2020-09-10T13:16:00Z</time>
</trkpt>
<trkpt lat="48.408279" lon="10.44489">
<ele>422.964</ele>
<time>2020-09-10T13:16:01Z</time>
</trkpt>
<trkpt lat="48.408215" lon="10.444867">
<ele>422.822</ele>
<time>2020-09-10T13:16:02Z</time>
</trkpt>
<trkpt lat="48.408146" lon="10.444843">
<ele>422.717</ele>
<time>2020-09-10T13:16:03Z</time>
</trkpt>
<trkpt lat="48.408081" lon="10.444818">
<ele>422.644</ele>
<time>2020-09-10T13:16:04Z</time>
</trkpt>
<trkpt lat="48.40802" lon="10.444792">
<ele>422.59</ele>
<time>2020-09-10T13:16:05Z</time>
</trkpt>
<trkpt lat="48.407959" lon="10.444765">
<ele>422.541</ele>
<time>2020-09-10T13:16:06Z</time>
</trkpt>
<trkpt lat="48.407894" lon="10.444739">
<ele>422.519</ele>
<time>2020-09-10T13:16:07Z</time>
</trkpt>
<trkpt lat="48.407833" lon="10.444715">
<ele>422.241</ele>
<time>2020-09-10T13:16:08Z</time>
</trkpt>
<trkpt lat="48.407772" lon="10.444694">
<ele>422.034</ele>
<time>2020-09-10T13:16:09Z</time>
</trkpt>
<trkpt lat="48.407707" lon="10.444674">
<ele>421.873</ele>
<time>2020-09-10T13:16:10Z</time>
</trkpt>
<trkpt lat="48.407642" lon="10.444658">
<ele>421.755</ele>
<time>2020-09-10T13:16:11Z</time>
</trkpt>
<trkpt lat="48.407578" lon="10.44465">
<ele>421.666</ele>
<time>2020-09-10T13:16:12Z</time>
</trkpt>
<trkpt lat="48.407513" lon="10.444654">
<ele>421.614</ele>
<time>2020-09-10T13:16:13Z</time>
</trkpt>
<trkpt lat="48.407448" lon="10.444663">
<ele>421.59</ele>
<time>2020-09-10T13:16:14Z</time>
</trkpt>
<trkpt lat="48.407379" lon="10.44467">
<ele>421.568</ele>
<time>2020-09-10T13:16:15Z</time>
</trkpt>
<trkpt lat="48.407314" lon="10.444678">
<ele>421.568</ele>
<time>2020-09-10T13:16:16Z</time>
</trkpt>
<trkpt lat="48.407246" lon="10.444691">
<ele>421.568</ele>
<time>2020-09-10T13:16:17Z</time>
</trkpt>
<trkpt lat="48.407173" lon="10.444703">
<ele>421.265</ele>
<time>2020-09-10T13:16:18Z</time>
</trkpt>
<trkpt lat="48.407101" lon="10.444715">
<ele>421.029</ele>
<time>2020-09-10T13:16:19Z</time>
</trkpt>
<trkpt lat="48.407028" lon="10.444725">
<ele>420.853</ele>
<time>2020-09-10T13:16:20Z</time>
</trkpt>
<trkpt lat="48.406952" lon="10.444738">
<ele>420.722</ele>
<time>2020-09-10T13:16:21Z</time>
</trkpt>
<trkpt lat="48.406876" lon="10.44475">
<ele>420.648</ele>
<time>2020-09-10T13:16:22Z</time>
</trkpt>
<trkpt lat="48.406796" lon="10.444764">
<ele>420.322</ele>
<time>2020-09-10T13:16:23Z</time>
</trkpt>
<trkpt lat="48.406719" lon="10.444778">
<ele>420.116</ele>
<time>2020-09-10T13:16:24Z</time>
</trkpt>
<trkpt lat="48.406635" lon="10.444792">
<ele>419.699</ele>
<time>2020-09-10T13:16:25Z</time>
</trkpt>
<trkpt lat="48.406563" lon="10.4448">
<ele>419.347</ele>
<time>2020-09-10T13:16:26Z</time>
</trkpt>
<trkpt lat="48.406487" lon="10.444808">
<ele>419.097</ele>
<time>2020-09-10T13:16:27Z</time>
</trkpt>
<trkpt lat="48.40641" lon="10.444818">
<ele>418.663</ele>
<time>2020-09-10T13:16:28Z</time>
</trkpt>
<trkpt lat="48.406338" lon="10.444834">
<ele>418.333</ele>
<time>2020-09-10T13:16:29Z</time>
</trkpt>
<trkpt lat="48.406269" lon="10.444845">
<ele>418.086</ele>
<time>2020-09-10T13:16:30Z</time>
</trkpt>
<trkpt lat="48.4062" lon="10.44485">
<ele>417.922</ele>
<time>2020-09-10T13:16:31Z</time>
</trkpt>
<trkpt lat="48.406136" lon="10.444843">
<ele>417.81</ele>
<time>2020-09-10T13:16:32Z</time>
</trkpt>
<trkpt lat="48.406071" lon="10.444815">
<ele>417.721</ele>
<time>2020-09-10T13:16:33Z</time>
</trkpt>
<trkpt lat="48.406013" lon="10.44477">
<ele>417.698</ele>
<time>2020-09-10T13:16:34Z</time>
</trkpt>
<trkpt lat="48.405956" lon="10.44472">
<ele>417.677</ele>
<time>2020-09-10T13:16:35Z</time>
</trkpt>
<trkpt lat="48.405914" lon="10.444658">
<ele>417.676</ele>
<time>2020-09-10T13:16:36Z</time>
</trkpt>
<trkpt lat="48.405869" lon="10.444594">
<ele>417.676</ele>
<time>2020-09-10T13:16:37Z</time>
</trkpt>
<trkpt lat="48.405823" lon="10.444525">
<ele>417.676</ele>
<time>2020-09-10T13:16:38Z</time>
</trkpt>
<trkpt lat="48.405777" lon="10.444456">
<ele>417.676</ele>
<time>2020-09-10T13:16:39Z</time>
</trkpt>
<trkpt lat="48.405727" lon="10.444389">
<ele>417.676</ele>
<time>2020-09-10T13:16:40Z</time>
</trkpt>
<trkpt lat="48.405678" lon="10.444324">
<ele>417.676</ele>
<time>2020-09-10T13:16:41Z</time>
</trkpt>
<trkpt lat="48.405628" lon="10.444259">
<ele>417.676</ele>
<time>2020-09-10T13:16:42Z</time>
</trkpt>
<trkpt lat="48.405579" lon="10.444194">
<ele>417.676</ele>
<time>2020-09-10T13:16:43Z</time>
</trkpt>
<trkpt lat="48.405525" lon="10.44413">
<ele>417.441</ele>
<time>2020-09-10T13:16:44Z</time>
</trkpt>
<trkpt lat="48.405468" lon="10.444067">
<ele>417.276</ele>
<time>2020-09-10T13:16:45Z</time>
</trkpt>
<trkpt lat="48.405415" lon="10.444001">
<ele>417.108</ele>
<time>2020-09-10T13:16:46Z</time>
</trkpt>
<trkpt lat="48.405361" lon="10.443938">
<ele>416.973</ele>
<time>2020-09-10T13:16:47Z</time>
</trkpt>
<trkpt lat="48.405308" lon="10.443873">
<ele>416.87</ele>
<time>2020-09-10T13:16:48Z</time>
</trkpt>
<trkpt lat="48.405251" lon="10.44381">
<ele>416.796</ele>
<time>2020-09-10T13:16:49Z</time>
</trkpt>
<trkpt lat="48.405197" lon="10.443748">
<ele>416.751</ele>
<time>2020-09-10T13:16:50Z</time>
</trkpt>
<trkpt lat="48.405136" lon="10.443684">
<ele>416.492</ele>
<time>2020-09-10T13:16:51Z</time>
</trkpt>
<trkpt lat="48.405079" lon="10.443618">
<ele>416.274</ele>
<time>2020-09-10T13:16:52Z</time>
</trkpt>
<trkpt lat="48.405022" lon="10.443553">
<ele>416.122</ele>
<time>2020-09-10T13:16:53Z</time>
</trkpt>
<trkpt lat="48.404961" lon="10.44349">
<ele>416.01</ele>
<time>2020-09-10T13:16:54Z</time>
</trkpt>
<trkpt lat="48.4049" lon="10.443432">
<ele>415.931</ele>
<time>2020-09-10T13:16:55Z</time>
</trkpt>
<trkpt lat="48.404835" lon="10.443374">
<ele>415.638</ele>
<time>2020-09-10T13:16:56Z</time>
</trkpt>
<trkpt lat="48.404774" lon="10.443314">
<ele>415.409</ele>
<time>2020-09-10T13:16:57Z</time>
</trkpt>
<trkpt lat="48.404709" lon="10.443254">
<ele>415.239</ele>
<time>2020-09-10T13:16:58Z</time>
</trkpt>
<trkpt lat="48.404652" lon="10.443197">
<ele>415.125</ele>
<time>2020-09-10T13:16:59Z</time>
</trkpt>
<trkpt lat="48.404594" lon="10.443138">
<ele>415.037</ele>
<time>2020-09-10T13:17:00Z</time>
</trkpt>
<trkpt lat="48.404537" lon="10.443084">
<ele>414.972</ele>
<time>2020-09-10T13:17:01Z</time>
</trkpt>
<trkpt lat="48.40448" lon="10.443027">
<ele>414.93</ele>
<time>2020-09-10T13:17:02Z</time>
</trkpt>
<trkpt lat="48.404419" lon="10.442968">
<ele>414.91</ele>
<time>2020-09-10T13:17:03Z</time>
</trkpt>
<trkpt lat="48.404362" lon="10.442912">
<ele>414.682</ele>
<time>2020-09-10T13:17:04Z</time>
</trkpt>
<trkpt lat="48.404308" lon="10.442853">
<ele>414.517</ele>
<time>2020-09-10T13:17:05Z</time>
</trkpt>
<trkpt lat="48.404247" lon="10.4428">
<ele>414.348</ele>
<time>2020-09-10T13:17:06Z</time>
</trkpt>
<trkpt lat="48.404186" lon="10.442751">
<ele>414.21</ele>
<time>2020-09-10T13:17:07Z</time>
</trkpt>
<trkpt lat="48.404121" lon="10.442702">
<ele>414.106</ele>
<time>2020-09-10T13:17:08Z</time>
</trkpt>
<trkpt lat="48.404057" lon="10.442652">
<ele>414.031</ele>
<time>2020-09-10T13:17:09Z</time>
</trkpt>
<trkpt lat="48.403996" lon="10.442594">
<ele>413.982</ele>
<time>2020-09-10T13:17:10Z</time>
</trkpt>
<trkpt lat="48.403934" lon="10.442539">
<ele>413.96</ele>
<time>2020-09-10T13:17:11Z</time>
</trkpt>
<trkpt lat="48.403873" lon="10.442489">
<ele>413.96</ele>
<time>2020-09-10T13:17:12Z</time>
</trkpt>
<trkpt lat="48.403809" lon="10.44244">
<ele>413.96</ele>
<time>2020-09-10T13:17:13Z</time>
</trkpt>
<trkpt lat="48.403744" lon="10.4424">
<ele>413.96</ele>
<time>2020-09-10T13:17:14Z</time>
</trkpt>
<trkpt lat="48.403679" lon="10.442364">
<ele>413.96</ele>
<time>2020-09-10T13:17:15Z</time>
</trkpt>
<trkpt lat="48.40361" lon="10.442327">
<ele>413.96</ele>
<time>2020-09-10T13:17:16Z</time>
</trkpt>
<trkpt lat="48.403545" lon="10.442296">
<ele>413.96</ele>
<time>2020-09-10T13:17:17Z</time>
</trkpt>
<trkpt lat="48.403477" lon="10.442268">
<ele>413.96</ele>
<time>2020-09-10T13:17:18Z</time>
</trkpt>
<trkpt lat="48.403412" lon="10.442244">
<ele>413.96</ele>
<time>2020-09-10T13:17:19Z</time>
</trkpt>
<trkpt lat="48.403347" lon="10.442219">
<ele>413.96</ele>
<time>2020-09-10T13:17:20Z</time>
</trkpt>
<trkpt lat="48.403286" lon="10.442195">
<ele>413.96</ele>
<time>2020-09-10T13:17:21Z</time>
</trkpt>
<trkpt lat="48.403221" lon="10.442175">
<ele>413.96</ele>
<time>2020-09-10T13:17:22Z</time>
</trkpt>
<trkpt lat="48.403156" lon="10.442154">
<ele>413.96</ele>
<time>2020-09-10T13:17:23Z</time>
</trkpt>
<trkpt lat="48.403095" lon="10.442131">
<ele>413.96</ele>
<time>2020-09-10T13:17:24Z</time>
</trkpt>
<trkpt lat="48.403034" lon="10.44211">
<ele>413.96</ele>
<time>2020-09-10T13:17:25Z</time>
</trkpt>
<trkpt lat="48.402973" lon="10.442091">
<ele>413.96</ele>
<time>2020-09-10T13:17:26Z</time>
</trkpt>
<trkpt lat="48.402912" lon="10.442074">
<ele>413.96</ele>
<time>2020-09-10T13:17:27Z</time>
</trkpt>
<trkpt lat="48.402847" lon="10.442055">
<ele>413.96</ele>
<time>2020-09-10T13:17:28Z</time>
</trkpt>
<trkpt lat="48.402786" lon="10.44203">
<ele>413.96</ele>
<time>2020-09-10T13:17:29Z</time>
</trkpt>
<trkpt lat="48.402729" lon="10.44201">
<ele>413.96</ele>
<time>2020-09-10T13:17:30Z</time>
</trkpt>
<trkpt lat="48.402672" lon="10.441985">
<ele>413.96</ele>
<time>2020-09-10T13:17:31Z</time>
</trkpt>
<trkpt lat="48.402615" lon="10.44196">
<ele>413.96</ele>
<time>2020-09-10T13:17:32Z</time>
</trkpt>
<trkpt lat="48.402554" lon="10.441936">
<ele>413.96</ele>
<time>2020-09-10T13:17:33Z</time>
</trkpt>
<trkpt lat="48.402493" lon="10.441907">
<ele>413.96</ele>
<time>2020-09-10T13:17:34Z</time>
</trkpt>
<trkpt lat="48.402431" lon="10.441877">
<ele>413.96</ele>
<time>2020-09-10T13:17:35Z</time>
</trkpt>
<trkpt lat="48.40237" lon="10.441843">
<ele>413.96</ele>
<time>2020-09-10T13:17:36Z</time>
</trkpt>
<trkpt lat="48.402309" lon="10.441808">
<ele>413.96</ele>
<time>2020-09-10T13:17:37Z</time>
</trkpt>
<trkpt lat="48.402248" lon="10.441772">
<ele>413.677</ele>
<time>2020-09-10T13:17:38Z</time>
</trkpt>
<trkpt lat="48.402184" lon="10.441733">
<ele>413.46</ele>
<time>2020-09-10T13:17:39Z</time>
</trkpt>
<trkpt lat="48.402122" lon="10.441691">
<ele>413.3</ele>
<time>2020-09-10T13:17:40Z</time>
</trkpt>
<trkpt lat="48.402058" lon="10.441647">
<ele>413.184</ele>
<time>2020-09-10T13:17:41Z</time>
</trkpt>
<trkpt lat="48.402" lon="10.4416">
<ele>413.103</ele>
<time>2020-09-10T13:17:42Z</time>
</trkpt>
<trkpt lat="48.401936" lon="10.441553">
<ele>413.057</ele>
<time>2020-09-10T13:17:43Z</time>
</trkpt>
<trkpt lat="48.401875" lon="10.441504">
<ele>413.031</ele>
<time>2020-09-10T13:17:44Z</time>
</trkpt>
<trkpt lat="48.401814" lon="10.441454">
<ele>413.009</ele>
<time>2020-09-10T13:17:45Z</time>
</trkpt>
<trkpt lat="48.401752" lon="10.441405">
<ele>413.009</ele>
<time>2020-09-10T13:17:46Z</time>
</trkpt>
<trkpt lat="48.401695" lon="10.44136">
<ele>413.009</ele>
<time>2020-09-10T13:17:47Z</time>
</trkpt>
<trkpt lat="48.40163" lon="10.441323">
<ele>413.009</ele>
<time>2020-09-10T13:17:48Z</time>
</trkpt>
<trkpt lat="48.401577" lon="10.441282">
<ele>413.009</ele>
<time>2020-09-10T13:17:49Z</time>
</trkpt>
<trkpt lat="48.40152" lon="10.441249">
<ele>413.009</ele>
<time>2020-09-10T13:17:50Z</time>
</trkpt>
<trkpt lat="48.401463" lon="10.441223">
<ele>413.009</ele>
<time>2020-09-10T13:17:51Z</time>
</trkpt>
<trkpt lat="48.401398" lon="10.441212">
<ele>413.009</ele>
<time>2020-09-10T13:17:52Z</time>
</trkpt>
<trkpt lat="48.40134" lon="10.441214">
<ele>413.009</ele>
<time>2020-09-10T13:17:53Z</time>
</trkpt>
<trkpt lat="48.401287" lon="10.441225">
<ele>413.009</ele>
<time>2020-09-10T13:17:54Z</time>
</trkpt>
<trkpt lat="48.401241" lon="10.441243">
<ele>413.009</ele>
<time>2020-09-10T13:17:55Z</time>
</trkpt>
<trkpt lat="48.401203" lon="10.441258">
<ele>413.009</ele>
<time>2020-09-10T13:17:56Z</time>
</trkpt>
<trkpt lat="48.401165" lon="10.441267">
<ele>413.009</ele>
<time>2020-09-10T13:17:57Z</time>
</trkpt>
<trkpt lat="48.401134" lon="10.44127">
<ele>413.009</ele>
<time>2020-09-10T13:17:58Z</time>
</trkpt>
<trkpt lat="48.4011" lon="10.441265">
<ele>413.009</ele>
<time>2020-09-10T13:17:59Z</time>
</trkpt>
<trkpt lat="48.401066" lon="10.441247">
<ele>413.009</ele>
<time>2020-09-10T13:18:00Z</time>
</trkpt>
<trkpt lat="48.401031" lon="10.441216">
<ele>413.009</ele>
<time>2020-09-10T13:18:01Z</time>
</trkpt>
<trkpt lat="48.400993" lon="10.441192">
<ele>413.263</ele>
<time>2020-09-10T13:18:02Z</time>
</trkpt>
<trkpt lat="48.400955" lon="10.441169">
<ele>413.48</ele>
<time>2020-09-10T13:18:03Z</time>
</trkpt>
<trkpt lat="48.400902" lon="10.441145">
<ele>413.66</ele>
<time>2020-09-10T13:18:04Z</time>
</trkpt>
<trkpt lat="48.400852" lon="10.441118">
<ele>413.775</ele>
<time>2020-09-10T13:18:05Z</time>
</trkpt>
<trkpt lat="48.400799" lon="10.441092">
<ele>413.898</ele>
<time>2020-09-10T13:18:06Z</time>
</trkpt>
<trkpt lat="48.400753" lon="10.441071">
<ele>413.978</ele>
<time>2020-09-10T13:18:07Z</time>
</trkpt>
<trkpt lat="48.4007" lon="10.441043">
<ele>414.023</ele>
<time>2020-09-10T13:18:08Z</time>
</trkpt>
<trkpt lat="48.400646" lon="10.441023">
<ele>414.293</ele>
<time>2020-09-10T13:18:09Z</time>
</trkpt>
<trkpt lat="48.400593" lon="10.441002">
<ele>414.536</ele>
<time>2020-09-10T13:18:10Z</time>
</trkpt>
<trkpt lat="48.400536" lon="10.44098">
<ele>414.688</ele>
<time>2020-09-10T13:18:11Z</time>
</trkpt>
<trkpt lat="48.400482" lon="10.440957">
<ele>414.797</ele>
<time>2020-09-10T13:18:12Z</time>
</trkpt>
<trkpt lat="48.400429" lon="10.440937">
<ele>414.877</ele>
<time>2020-09-10T13:18:13Z</time>
</trkpt>
<trkpt lat="48.400372" lon="10.440917">
<ele>414.933</ele>
<time>2020-09-10T13:18:14Z</time>
</trkpt>
<trkpt lat="48.400314" lon="10.440895">
<ele>414.972</ele>
<time>2020-09-10T13:18:15Z</time>
</trkpt>
<trkpt lat="48.400257" lon="10.440876">
<ele>415.23</ele>
<time>2020-09-10T13:18:16Z</time>
</trkpt>
<trkpt lat="48.400204" lon="10.440857">
<ele>415.426</ele>
<time>2020-09-10T13:18:17Z</time>
</trkpt>
<trkpt lat="48.400143" lon="10.440833">
<ele>415.585</ele>
<time>2020-09-10T13:18:18Z</time>
</trkpt>
<trkpt lat="48.400085" lon="10.440808">
<ele>415.712</ele>
<time>2020-09-10T13:18:19Z</time>
</trkpt>
<trkpt lat="48.400028" lon="10.440784">
<ele>415.81</ele>
<time>2020-09-10T13:18:20Z</time>
</trkpt>
<trkpt lat="48.399967" lon="10.440761">
<ele>415.881</ele>
<time>2020-09-10T13:18:21Z</time>
</trkpt>
<trkpt lat="48.39991" lon="10.440738">
<ele>415.925</ele>
<time>2020-09-10T13:18:22Z</time>
</trkpt>
<trkpt lat="48.399853" lon="10.440719">
<ele>415.947</ele>
<time>2020-09-10T13:18:23Z</time>
</trkpt>
<trkpt lat="48.399792" lon="10.4407">
<ele>416.16</ele>
<time>2020-09-10T13:18:24Z</time>
</trkpt>
<trkpt lat="48.399734" lon="10.440681">
<ele>416.309</ele>
<time>2020-09-10T13:18:25Z</time>
</trkpt>
<trkpt lat="48.399677" lon="10.440661">
<ele>416.462</ele>
<time>2020-09-10T13:18:26Z</time>
</trkpt>
<trkpt lat="48.39962" lon="10.440643">
<ele>416.583</ele>
<time>2020-09-10T13:18:27Z</time>
</trkpt>
<trkpt lat="48.399563" lon="10.440626">
<ele>416.678</ele>
<time>2020-09-10T13:18:28Z</time>
</trkpt>
<trkpt lat="48.399506" lon="10.44061">
<ele>416.746</ele>
<time>2020-09-10T13:18:29Z</time>
</trkpt>
<trkpt lat="48.399452" lon="10.440593">
<ele>416.791</ele>
<time>2020-09-10T13:18:30Z</time>
</trkpt>
<trkpt lat="48.399395" lon="10.440577">
<ele>416.812</ele>
<time>2020-09-10T13:18:31Z</time>
</trkpt>
<trkpt lat="48.399334" lon="10.440563">
<ele>416.812</ele>
<time>2020-09-10T13:18:32Z</time>
</trkpt>
<trkpt lat="48.399281" lon="10.440552">
<ele>416.812</ele>
<time>2020-09-10T13:18:33Z</time>
</trkpt>
<trkpt lat="48.399223" lon="10.44054">
<ele>416.812</ele>
<time>2020-09-10T13:18:34Z</time>
</trkpt>
<trkpt lat="48.399166" lon="10.440525">
<ele>416.812</ele>
<time>2020-09-10T13:18:35Z</time>
</trkpt>
<trkpt lat="48.399109" lon="10.440512">
<ele>416.812</ele>
<time>2020-09-10T13:18:36Z</time>
</trkpt>
<trkpt lat="48.399055" lon="10.440498">
<ele>416.812</ele>
<time>2020-09-10T13:18:37Z</time>
</trkpt>
<trkpt lat="48.399002" lon="10.440484">
<ele>416.812</ele>
<time>2020-09-10T13:18:38Z</time>
</trkpt>
<trkpt lat="48.398945" lon="10.440472">
<ele>416.812</ele>
<time>2020-09-10T13:18:39Z</time>
</trkpt>
<trkpt lat="48.398895" lon="10.44046">
<ele>416.812</ele>
<time>2020-09-10T13:18:40Z</time>
</trkpt>
<trkpt lat="48.398842" lon="10.44045">
<ele>416.812</ele>
<time>2020-09-10T13:18:41Z</time>
</trkpt>
<trkpt lat="48.398792" lon="10.440444">
<ele>416.812</ele>
<time>2020-09-10T13:18:42Z</time>
</trkpt>
<trkpt lat="48.398743" lon="10.440445">
<ele>416.812</ele>
<time>2020-09-10T13:18:43Z</time>
</trkpt>
<trkpt lat="48.398708" lon="10.440453">
<ele>416.812</ele>
<time>2020-09-10T13:18:44Z</time>
</trkpt>
<trkpt lat="48.398678" lon="10.440458">
<ele>416.812</ele>
<time>2020-09-10T13:18:45Z</time>
</trkpt>
<trkpt lat="48.398643" lon="10.440458">
<ele>416.812</ele>
<time>2020-09-10T13:18:46Z</time>
</trkpt>
<trkpt lat="48.398605" lon="10.44045">
<ele>416.812</ele>
<time>2020-09-10T13:18:47Z</time>
</trkpt>
<trkpt lat="48.398563" lon="10.44043">
<ele>416.812</ele>
<time>2020-09-10T13:18:48Z</time>
</trkpt>
<trkpt lat="48.398521" lon="10.440407">
<ele>416.812</ele>
<time>2020-09-10T13:18:49Z</time>
</trkpt>
<trkpt lat="48.398483" lon="10.440383">
<ele>416.812</ele>
<time>2020-09-10T13:18:50Z</time>
</trkpt>
<trkpt lat="48.398445" lon="10.440365">
<ele>416.812</ele>
<time>2020-09-10T13:18:51Z</time>
</trkpt>
<trkpt lat="48.398403" lon="10.440348">
<ele>416.812</ele>
<time>2020-09-10T13:18:52Z</time>
</trkpt>
<trkpt lat="48.398354" lon="10.440337">
<ele>416.812</ele>
<time>2020-09-10T13:18:53Z</time>
</trkpt>
<trkpt lat="48.398312" lon="10.440323">
<ele>416.812</ele>
<time>2020-09-10T13:18:54Z</time>
</trkpt>
<trkpt lat="48.398266" lon="10.440313">
<ele>416.812</ele>
<time>2020-09-10T13:18:55Z</time>
</trkpt>
<trkpt lat="48.398216" lon="10.440304">
<ele>417.071</ele>
<time>2020-09-10T13:18:56Z</time>
</trkpt>
<trkpt lat="48.398167" lon="10.440293">
<ele>417.286</ele>
<time>2020-09-10T13:18:57Z</time>
</trkpt>
<trkpt lat="48.398121" lon="10.440285">
<ele>417.462</ele>
<time>2020-09-10T13:18:58Z</time>
</trkpt>
<trkpt lat="48.398067" lon="10.440275">
<ele>417.604</ele>
<time>2020-09-10T13:18:59Z</time>
</trkpt>
<trkpt lat="48.398022" lon="10.440269">
<ele>417.704</ele>
<time>2020-09-10T13:19:00Z</time>
</trkpt>
<trkpt lat="48.397972" lon="10.44026">
<ele>417.778</ele>
<time>2020-09-10T13:19:01Z</time>
</trkpt>
<trkpt lat="48.397923" lon="10.440251">
<ele>417.826</ele>
<time>2020-09-10T13:19:02Z</time>
</trkpt>
<trkpt lat="48.397865" lon="10.440247">
<ele>417.85</ele>
<time>2020-09-10T13:19:03Z</time>
</trkpt>
<trkpt lat="48.397816" lon="10.440241">
<ele>417.85</ele>
<time>2020-09-10T13:19:04Z</time>
</trkpt>
<trkpt lat="48.397758" lon="10.440239">
<ele>417.85</ele>
<time>2020-09-10T13:19:05Z</time>
</trkpt>
<trkpt lat="48.397697" lon="10.44023">
<ele>417.85</ele>
<time>2020-09-10T13:19:06Z</time>
</trkpt>
<trkpt lat="48.397644" lon="10.440218">
<ele>417.85</ele>
<time>2020-09-10T13:19:07Z</time>
</trkpt>
<trkpt lat="48.397591" lon="10.440204">
<ele>417.85</ele>
<time>2020-09-10T13:19:08Z</time>
</trkpt>
<trkpt lat="48.397537" lon="10.440195">
<ele>417.85</ele>
<time>2020-09-10T13:19:09Z</time>
</trkpt>
<trkpt lat="48.397484" lon="10.440187">
<ele>417.85</ele>
<time>2020-09-10T13:19:10Z</time>
</trkpt>
<trkpt lat="48.397434" lon="10.440178">
<ele>417.85</ele>
<time>2020-09-10T13:19:11Z</time>
</trkpt>
<trkpt lat="48.397377" lon="10.440168">
<ele>417.85</ele>
<time>2020-09-10T13:19:12Z</time>
</trkpt>
<trkpt lat="48.39732" lon="10.44016">
<ele>417.85</ele>
<time>2020-09-10T13:19:13Z</time>
</trkpt>
<trkpt lat="48.397259" lon="10.440151">
<ele>417.85</ele>
<time>2020-09-10T13:19:14Z</time>
</trkpt>
<trkpt lat="48.397202" lon="10.440138">
<ele>417.85</ele>
<time>2020-09-10T13:19:15Z</time>
</trkpt>
<trkpt lat="48.397144" lon="10.440125">
<ele>417.85</ele>
<time>2020-09-10T13:19:16Z</time>
</trkpt>
<trkpt lat="48.397083" lon="10.440119">
<ele>417.85</ele>
<time>2020-09-10T13:19:17Z</time>
</trkpt>
<trkpt lat="48.39703" lon="10.44011">
<ele>417.85</ele>
<time>2020-09-10T13:19:18Z</time>
</trkpt>
<trkpt lat="48.396976" lon="10.440099">
<ele>417.85</ele>
<time>2020-09-10T13:19:19Z</time>
</trkpt>
<trkpt lat="48.396915" lon="10.440088">
<ele>417.85</ele>
<time>2020-09-10T13:19:20Z</time>
</trkpt>
<trkpt lat="48.396862" lon="10.44008">
<ele>417.85</ele>
<time>2020-09-10T13:19:21Z</time>
</trkpt>
<trkpt lat="48.396809" lon="10.440073">
<ele>417.85</ele>
<time>2020-09-10T13:19:22Z</time>
</trkpt>
<trkpt lat="48.396751" lon="10.440068">
<ele>418.085</ele>
<time>2020-09-10T13:19:23Z</time>
</trkpt>
<trkpt lat="48.39669" lon="10.440062">
<ele>418.274</ele>
<time>2020-09-10T13:19:24Z</time>
</trkpt>
<trkpt lat="48.396629" lon="10.440055">
<ele>418.405</ele>
<time>2020-09-10T13:19:25Z</time>
</trkpt>
<trkpt lat="48.396576" lon="10.440046">
<ele>418.546</ele>
<time>2020-09-10T13:19:26Z</time>
</trkpt>
<trkpt lat="48.396523" lon="10.440037">
<ele>418.651</ele>
<time>2020-09-10T13:19:27Z</time>
</trkpt>
<trkpt lat="48.396465" lon="10.440029">
<ele>418.727</ele>
<time>2020-09-10T13:19:28Z</time>
</trkpt>
<trkpt lat="48.396412" lon="10.440021">
<ele>418.777</ele>
<time>2020-09-10T13:19:29Z</time>
</trkpt>
<trkpt lat="48.396362" lon="10.440015">
<ele>418.8</ele>
<time>2020-09-10T13:19:30Z</time>
</trkpt>
<trkpt lat="48.396305" lon="10.440008">
<ele>418.8</ele>
<time>2020-09-10T13:19:31Z</time>
</trkpt>
<trkpt lat="48.396255" lon="10.44">
<ele>418.801</ele>
<time>2020-09-10T13:19:32Z</time>
</trkpt>
<trkpt lat="48.396202" lon="10.43999">
<ele>418.8</ele>
<time>2020-09-10T13:19:33Z</time>
</trkpt>
<trkpt lat="48.396156" lon="10.439977">
<ele>418.8</ele>
<time>2020-09-10T13:19:34Z</time>
</trkpt>
<trkpt lat="48.396111" lon="10.439964">
<ele>418.8</ele>
<time>2020-09-10T13:19:35Z</time>
</trkpt>
<trkpt lat="48.396061" lon="10.439957">
<ele>418.801</ele>
<time>2020-09-10T13:19:36Z</time>
</trkpt>
<trkpt lat="48.396011" lon="10.43995">
<ele>419.051</ele>
<time>2020-09-10T13:19:37Z</time>
</trkpt>
<trkpt lat="48.395966" lon="10.439941">
<ele>419.248</ele>
<time>2020-09-10T13:19:38Z</time>
</trkpt>
<trkpt lat="48.395916" lon="10.439935">
<ele>419.399</ele>
<time>2020-09-10T13:19:39Z</time>
</trkpt>
<trkpt lat="48.39587" lon="10.43993">
<ele>419.513</ele>
<time>2020-09-10T13:19:40Z</time>
</trkpt>
<trkpt lat="48.395821" lon="10.439923">
<ele>419.591</ele>
<time>2020-09-10T13:19:41Z</time>
</trkpt>
<trkpt lat="48.395771" lon="10.439914">
<ele>419.639</ele>
<time>2020-09-10T13:19:42Z</time>
</trkpt>
<trkpt lat="48.395718" lon="10.439901">
<ele>419.666</ele>
<time>2020-09-10T13:19:43Z</time>
</trkpt>
<trkpt lat="48.395668" lon="10.439895">
<ele>419.665</ele>
<time>2020-09-10T13:19:44Z</time>
</trkpt>
<trkpt lat="48.395615" lon="10.43988">
<ele>419.665</ele>
<time>2020-09-10T13:19:45Z</time>
</trkpt>
<trkpt lat="48.395565" lon="10.43987">
<ele>419.666</ele>
<time>2020-09-10T13:19:46Z</time>
</trkpt>
<trkpt lat="48.395515" lon="10.439865">
<ele>419.666</ele>
<time>2020-09-10T13:19:47Z</time>
</trkpt>
<trkpt lat="48.39547" lon="10.439857">
<ele>419.666</ele>
<time>2020-09-10T13:19:48Z</time>
</trkpt>
<trkpt lat="48.39542" lon="10.439843">
<ele>419.666</ele>
<time>2020-09-10T13:19:49Z</time>
</trkpt>
<trkpt lat="48.395374" lon="10.439832">
<ele>419.665</ele>
<time>2020-09-10T13:19:50Z</time>
</trkpt>
<trkpt lat="48.395321" lon="10.439816">
<ele>419.914</ele>
<time>2020-09-10T13:19:51Z</time>
</trkpt>
<trkpt lat="48.395275" lon="10.439796">
<ele>420.112</ele>
<time>2020-09-10T13:19:52Z</time>
</trkpt>
<trkpt lat="48.395226" lon="10.439774">
<ele>420.263</ele>
<time>2020-09-10T13:19:53Z</time>
</trkpt>
<trkpt lat="48.39518" lon="10.439754">
<ele>420.381</ele>
<time>2020-09-10T13:19:54Z</time>
</trkpt>
<trkpt lat="48.39513" lon="10.439732">
<ele>420.46</ele>
<time>2020-09-10T13:19:55Z</time>
</trkpt>
<trkpt lat="48.395088" lon="10.439709">
<ele>420.539</ele>
<time>2020-09-10T13:19:56Z</time>
</trkpt>
<trkpt lat="48.395039" lon="10.439685">
<ele>420.592</ele>
<time>2020-09-10T13:19:57Z</time>
</trkpt>
<trkpt lat="48.394993" lon="10.439669">
<ele>420.617</ele>
<time>2020-09-10T13:19:58Z</time>
</trkpt>
<trkpt lat="48.394947" lon="10.439656">
<ele>420.617</ele>
<time>2020-09-10T13:19:59Z</time>
</trkpt>
<trkpt lat="48.394905" lon="10.439644">
<ele>420.617</ele>
<time>2020-09-10T13:20:00Z</time>
</trkpt>
<trkpt lat="48.394867" lon="10.439625">
<ele>420.617</ele>
<time>2020-09-10T13:20:01Z</time>
</trkpt>
<trkpt lat="48.394833" lon="10.439605">
<ele>420.617</ele>
<time>2020-09-10T13:20:02Z</time>
</trkpt>
<trkpt lat="48.394798" lon="10.439581">
<ele>420.617</ele>
<time>2020-09-10T13:20:03Z</time>
</trkpt>
<trkpt lat="48.394764" lon="10.43956">
<ele>420.617</ele>
<time>2020-09-10T13:20:04Z</time>
</trkpt>
<trkpt lat="48.394733" lon="10.439537">
<ele>420.617</ele>
<time>2020-09-10T13:20:05Z</time>
</trkpt>
<trkpt lat="48.394703" lon="10.439511">
<ele>420.617</ele>
<time>2020-09-10T13:20:06Z</time>
</trkpt>
<trkpt lat="48.394672" lon="10.439488">
<ele>420.617</ele>
<time>2020-09-10T13:20:07Z</time>
</trkpt>
<trkpt lat="48.394653" lon="10.439475">
<ele>420.617</ele>
<time>2020-09-10T13:20:08Z</time>
</trkpt>
<trkpt lat="48.394634" lon="10.439466">
<ele>420.617</ele>
<time>2020-09-10T13:20:09Z</time>
</trkpt>
<trkpt lat="48.394611" lon="10.439453">
<ele>420.617</ele>
<time>2020-09-10T13:20:10Z</time>
</trkpt>
<trkpt lat="48.394596" lon="10.439442">
<ele>420.617</ele>
<time>2020-09-10T13:20:11Z</time>
</trkpt>
<trkpt lat="48.394573" lon="10.43943">
<ele>420.617</ele>
<time>2020-09-10T13:20:12Z</time>
</trkpt>
<trkpt lat="48.394562" lon="10.43942">
<ele>420.617</ele>
<time>2020-09-10T13:20:13Z</time>
</trkpt>
<trkpt lat="48.39455" lon="10.439425">
<ele>420.617</ele>
<time>2020-09-10T13:20:14Z</time>
</trkpt>
<trkpt lat="48.394539" lon="10.439434">
<ele>420.617</ele>
<time>2020-09-10T13:20:15Z</time>
</trkpt>
<trkpt lat="48.394535" lon="10.439443">
<ele>420.574</ele>
<time>2020-09-10T13:20:16Z</time>
</trkpt>
<trkpt lat="48.394535" lon="10.439453">
<ele>420.537</ele>
<time>2020-09-10T13:20:17Z</time>
</trkpt>
<trkpt lat="48.394531" lon="10.439466">
<ele>420.678</ele>
<time>2020-09-10T13:20:18Z</time>
</trkpt>
<trkpt lat="48.394527" lon="10.439476">
<ele>420.84</ele>
<time>2020-09-10T13:20:19Z</time>
</trkpt>
<trkpt lat="48.39452" lon="10.439495">
<ele>420.988</ele>
<time>2020-09-10T13:20:20Z</time>
</trkpt>
<trkpt lat="48.394508" lon="10.439516">
<ele>421.131</ele>
<time>2020-09-10T13:20:21Z</time>
</trkpt>
<trkpt lat="48.394497" lon="10.439548">
<ele>421.241</ele>
<time>2020-09-10T13:20:22Z</time>
</trkpt>
<trkpt lat="48.394482" lon="10.43958">
<ele>421.305</ele>
<time>2020-09-10T13:20:23Z</time>
</trkpt>
<trkpt lat="48.394466" lon="10.439612">
<ele>421.354</ele>
<time>2020-09-10T13:20:24Z</time>
</trkpt>
<trkpt lat="48.39444" lon="10.439631">
<ele>421.381</ele>
<time>2020-09-10T13:20:25Z</time>
</trkpt>
<trkpt lat="48.394417" lon="10.439651">
<ele>421.395</ele>
<time>2020-09-10T13:20:26Z</time>
</trkpt>
<trkpt lat="48.39439" lon="10.43966">
<ele>421.395</ele>
<time>2020-09-10T13:20:27Z</time>
</trkpt>
<trkpt lat="48.39436" lon="10.439663">
<ele>421.395</ele>
<time>2020-09-10T13:20:28Z</time>
</trkpt>
<trkpt lat="48.394325" lon="10.439663">
<ele>421.395</ele>
<time>2020-09-10T13:20:29Z</time>
</trkpt>
<trkpt lat="48.394283" lon="10.439662">
<ele>421.395</ele>
<time>2020-09-10T13:20:30Z</time>
</trkpt>
<trkpt lat="48.394245" lon="10.439665">
<ele>421.395</ele>
<time>2020-09-10T13:20:31Z</time>
</trkpt>
<trkpt lat="48.394199" lon="10.43967">
<ele>421.395</ele>
<time>2020-09-10T13:20:32Z</time>
</trkpt>
<trkpt lat="48.39415" lon="10.43968">
<ele>421.395</ele>
<time>2020-09-10T13:20:33Z</time>
</trkpt>
<trkpt lat="48.394104" lon="10.439685">
<ele>421.395</ele>
<time>2020-09-10T13:20:34Z</time>
</trkpt>
<trkpt lat="48.394054" lon="10.439688">
<ele>421.395</ele>
<time>2020-09-10T13:20:35Z</time>
</trkpt>
<trkpt lat="48.394005" lon="10.439692">
<ele>421.395</ele>
<time>2020-09-10T13:20:36Z</time>
</trkpt>
<trkpt lat="48.393951" lon="10.439692">
<ele>421.395</ele>
<time>2020-09-10T13:20:37Z</time>
</trkpt>
<trkpt lat="48.393898" lon="10.439692">
<ele>421.395</ele>
<time>2020-09-10T13:20:38Z</time>
</trkpt>
<trkpt lat="48.393848" lon="10.43969">
<ele>421.395</ele>
<time>2020-09-10T13:20:39Z</time>
</trkpt>
<trkpt lat="48.393795" lon="10.439694">
<ele>421.395</ele>
<time>2020-09-10T13:20:40Z</time>
</trkpt>
<trkpt lat="48.393742" lon="10.439705">
<ele>421.395</ele>
<time>2020-09-10T13:20:41Z</time>
</trkpt>
<trkpt lat="48.393688" lon="10.439713">
<ele>421.395</ele>
<time>2020-09-10T13:20:42Z</time>
</trkpt>
<trkpt lat="48.393623" lon="10.439719">
<ele>421.395</ele>
<time>2020-09-10T13:20:43Z</time>
</trkpt>
<trkpt lat="48.393566" lon="10.439721">
<ele>421.395</ele>
<time>2020-09-10T13:20:44Z</time>
</trkpt>
<trkpt lat="48.393513" lon="10.439721">
<ele>421.395</ele>
<time>2020-09-10T13:20:45Z</time>
</trkpt>
<trkpt lat="48.393456" lon="10.439725">
<ele>421.395</ele>
<time>2020-09-10T13:20:46Z</time>
</trkpt>
<trkpt lat="48.393394" lon="10.439725">
<ele>421.395</ele>
<time>2020-09-10T13:20:47Z</time>
</trkpt>
<trkpt lat="48.393341" lon="10.439721">
<ele>421.395</ele>
<time>2020-09-10T13:20:48Z</time>
</trkpt>
<trkpt lat="48.393284" lon="10.439719">
<ele>421.395</ele>
<time>2020-09-10T13:20:49Z</time>
</trkpt>
<trkpt lat="48.39323" lon="10.439719">
<ele>421.395</ele>
<time>2020-09-10T13:20:50Z</time>
</trkpt>
<trkpt lat="48.393177" lon="10.439712">
<ele>421.395</ele>
<time>2020-09-10T13:20:51Z</time>
</trkpt>
<trkpt lat="48.393124" lon="10.439698">
<ele>421.395</ele>
<time>2020-09-10T13:20:52Z</time>
</trkpt>
<trkpt lat="48.39307" lon="10.43968">
<ele>421.395</ele>
<time>2020-09-10T13:20:53Z</time>
</trkpt>
<trkpt lat="48.393021" lon="10.43966">
<ele>421.395</ele>
<time>2020-09-10T13:20:54Z</time>
</trkpt>
<trkpt lat="48.392971" lon="10.439644">
<ele>421.395</ele>
<time>2020-09-10T13:20:55Z</time>
</trkpt>
<trkpt lat="48.392918" lon="10.43963">
<ele>421.395</ele>
<time>2020-09-10T13:20:56Z</time>
</trkpt>
<trkpt lat="48.392864" lon="10.439613">
<ele>421.395</ele>
<time>2020-09-10T13:20:57Z</time>
</trkpt>
<trkpt lat="48.392811" lon="10.439598">
<ele>421.395</ele>
<time>2020-09-10T13:20:58Z</time>
</trkpt>
<trkpt lat="48.392761" lon="10.439583">
<ele>421.395</ele>
<time>2020-09-10T13:20:59Z</time>
</trkpt>
<trkpt lat="48.392712" lon="10.439567">
<ele>421.395</ele>
<time>2020-09-10T13:21:00Z</time>
</trkpt>
<trkpt lat="48.392658" lon="10.439548">
<ele>421.395</ele>
<time>2020-09-10T13:21:01Z</time>
</trkpt>
<trkpt lat="48.392605" lon="10.43953">
<ele>421.616</ele>
<time>2020-09-10T13:21:02Z</time>
</trkpt>
<trkpt lat="48.392551" lon="10.439511">
<ele>421.791</ele>
<time>2020-09-10T13:21:03Z</time>
</trkpt>
<trkpt lat="48.392498" lon="10.439499">
<ele>421.927</ele>
<time>2020-09-10T13:21:04Z</time>
</trkpt>
<trkpt lat="48.392445" lon="10.439487">
<ele>422.02</ele>
<time>2020-09-10T13:21:05Z</time>
</trkpt>
<trkpt lat="48.392395" lon="10.43948">
<ele>422.12</ele>
<time>2020-09-10T13:21:06Z</time>
</trkpt>
<trkpt lat="48.392349" lon="10.439476">
<ele>422.192</ele>
<time>2020-09-10T13:21:07Z</time>
</trkpt>
<trkpt lat="48.392296" lon="10.43947">
<ele>422.237</ele>
<time>2020-09-10T13:21:08Z</time>
</trkpt>
<trkpt lat="48.392246" lon="10.439464">
<ele>422.26</ele>
<time>2020-09-10T13:21:09Z</time>
</trkpt>
<trkpt lat="48.392193" lon="10.439453">
<ele>422.26</ele>
<time>2020-09-10T13:21:10Z</time>
</trkpt>
<trkpt lat="48.392151" lon="10.439445">
<ele>422.26</ele>
<time>2020-09-10T13:21:11Z</time>
</trkpt>
<trkpt lat="48.392094" lon="10.439437">
<ele>422.26</ele>
<time>2020-09-10T13:21:12Z</time>
</trkpt>
<trkpt lat="48.39204" lon="10.439426">
<ele>422.26</ele>
<time>2020-09-10T13:21:13Z</time>
</trkpt>
<trkpt lat="48.391987" lon="10.439415">
<ele>422.26</ele>
<time>2020-09-10T13:21:14Z</time>
</trkpt>
<trkpt lat="48.391926" lon="10.439406">
<ele>422.26</ele>
<time>2020-09-10T13:21:15Z</time>
</trkpt>
<trkpt lat="48.391865" lon="10.439397">
<ele>422.26</ele>
<time>2020-09-10T13:21:16Z</time>
</trkpt>
<trkpt lat="48.391804" lon="10.439388">
<ele>422.26</ele>
<time>2020-09-10T13:21:17Z</time>
</trkpt>
<trkpt lat="48.391743" lon="10.439378">
<ele>422.26</ele>
<time>2020-09-10T13:21:18Z</time>
</trkpt>
<trkpt lat="48.391682" lon="10.439371">
<ele>422.26</ele>
<time>2020-09-10T13:21:19Z</time>
</trkpt>
<trkpt lat="48.391624" lon="10.439365">
<ele>422.26</ele>
<time>2020-09-10T13:21:20Z</time>
</trkpt>
<trkpt lat="48.391567" lon="10.439361">
<ele>422.26</ele>
<time>2020-09-10T13:21:21Z</time>
</trkpt>
<trkpt lat="48.391506" lon="10.439357">
<ele>422.26</ele>
<time>2020-09-10T13:21:22Z</time>
</trkpt>
<trkpt lat="48.391445" lon="10.439348">
<ele>422.26</ele>
<time>2020-09-10T13:21:23Z</time>
</trkpt>
<trkpt lat="48.391384" lon="10.439342">
<ele>422.26</ele>
<time>2020-09-10T13:21:24Z</time>
</trkpt>
<trkpt lat="48.391323" lon="10.439336">
<ele>422.26</ele>
<time>2020-09-10T13:21:25Z</time>
</trkpt>
<trkpt lat="48.391266" lon="10.439338">
<ele>422.26</ele>
<time>2020-09-10T13:21:26Z</time>
</trkpt>
<trkpt lat="48.391205" lon="10.439338">
<ele>422.26</ele>
<time>2020-09-10T13:21:27Z</time>
</trkpt>
<trkpt lat="48.391148" lon="10.439338">
<ele>422.26</ele>
<time>2020-09-10T13:21:28Z</time>
</trkpt>
<trkpt lat="48.39109" lon="10.439338">
<ele>422.26</ele>
<time>2020-09-10T13:21:29Z</time>
</trkpt>
<trkpt lat="48.391033" lon="10.439336">
<ele>422.26</ele>
<time>2020-09-10T13:21:30Z</time>
</trkpt>
<trkpt lat="48.390976" lon="10.439336">
<ele>422.26</ele>
<time>2020-09-10T13:21:31Z</time>
</trkpt>
<trkpt lat="48.390919" lon="10.439336">
<ele>422.26</ele>
<time>2020-09-10T13:21:32Z</time>
</trkpt>
<trkpt lat="48.390862" lon="10.439342">
<ele>422.494</ele>
<time>2020-09-10T13:21:33Z</time>
</trkpt>
<trkpt lat="48.390804" lon="10.439342">
<ele>422.682</ele>
<time>2020-09-10T13:21:34Z</time>
</trkpt>
<trkpt lat="48.390751" lon="10.439343">
<ele>422.813</ele>
<time>2020-09-10T13:21:35Z</time>
</trkpt>
<trkpt lat="48.39069" lon="10.439344">
<ele>422.954</ele>
<time>2020-09-10T13:21:36Z</time>
</trkpt>
<trkpt lat="48.390629" lon="10.43935">
<ele>423.061</ele>
<time>2020-09-10T13:21:37Z</time>
</trkpt>
<trkpt lat="48.390575" lon="10.439359">
<ele>423.139</ele>
<time>2020-09-10T13:21:38Z</time>
</trkpt>
<trkpt lat="48.390514" lon="10.439363">
<ele>423.188</ele>
<time>2020-09-10T13:21:39Z</time>
</trkpt>
<trkpt lat="48.390457" lon="10.439368">
<ele>423.211</ele>
<time>2020-09-10T13:21:40Z</time>
</trkpt>
<trkpt lat="48.390396" lon="10.439375">
<ele>423.211</ele>
<time>2020-09-10T13:21:41Z</time>
</trkpt>
<trkpt lat="48.390335" lon="10.439378">
<ele>423.211</ele>
<time>2020-09-10T13:21:42Z</time>
</trkpt>
<trkpt lat="48.390274" lon="10.43938">
<ele>423.211</ele>
<time>2020-09-10T13:21:43Z</time>
</trkpt>
<trkpt lat="48.390217" lon="10.43938">
<ele>423.211</ele>
<time>2020-09-10T13:21:44Z</time>
</trkpt>
<trkpt lat="48.39016" lon="10.439384">
<ele>423.211</ele>
<time>2020-09-10T13:21:45Z</time>
</trkpt>
<trkpt lat="48.390102" lon="10.43939">
<ele>423.211</ele>
<time>2020-09-10T13:21:46Z</time>
</trkpt>
<trkpt lat="48.390041" lon="10.439404">
<ele>423.493</ele>
<time>2020-09-10T13:21:47Z</time>
</trkpt>
<trkpt lat="48.389984" lon="10.439418">
<ele>423.711</ele>
<time>2020-09-10T13:21:48Z</time>
</trkpt>
<trkpt lat="48.389931" lon="10.43943">
<ele>423.877</ele>
<time>2020-09-10T13:21:49Z</time>
</trkpt>
<trkpt lat="48.389874" lon="10.439445">
<ele>423.999</ele>
<time>2020-09-10T13:21:50Z</time>
</trkpt>
<trkpt lat="48.389816" lon="10.439464">
<ele>424.087</ele>
<time>2020-09-10T13:21:51Z</time>
</trkpt>
<trkpt lat="48.389763" lon="10.439476">
<ele>424.136</ele>
<time>2020-09-10T13:21:52Z</time>
</trkpt>
<trkpt lat="48.389717" lon="10.439488">
<ele>424.163</ele>
<time>2020-09-10T13:21:53Z</time>
</trkpt>
<trkpt lat="48.389675" lon="10.439495">
<ele>424.163</ele>
<time>2020-09-10T13:21:54Z</time>
</trkpt>
<trkpt lat="48.389645" lon="10.439491">
<ele>424.163</ele>
<time>2020-09-10T13:21:55Z</time>
</trkpt>
<trkpt lat="48.389614" lon="10.439474">
<ele>424.163</ele>
<time>2020-09-10T13:21:56Z</time>
</trkpt>
<trkpt lat="48.389603" lon="10.439453">
<ele>424.163</ele>
<time>2020-09-10T13:21:57Z</time>
</trkpt>
<trkpt lat="48.389599" lon="10.439445">
<ele>424.364</ele>
<time>2020-09-10T13:21:58Z</time>
</trkpt>
<trkpt lat="48.389599" lon="10.439443">
<ele>424.524</ele>
<time>2020-09-10T13:21:59Z</time>
</trkpt>
<trkpt lat="48.389595" lon="10.439446">
<ele>424.662</ele>
<time>2020-09-10T13:22:00Z</time>
</trkpt>
<trkpt lat="48.389587" lon="10.439448">
<ele>424.782</ele>
<time>2020-09-10T13:22:06Z</time>
</trkpt>
<trkpt lat="48.38958" lon="10.43945">
<ele>424.866</ele>
<time>2020-09-10T13:22:07Z</time>
</trkpt>
<trkpt lat="48.389576" lon="10.439453">
<ele>424.934</ele>
<time>2020-09-10T13:22:08Z</time>
</trkpt>
<trkpt lat="48.389568" lon="10.439458">
<ele>424.978</ele>
<time>2020-09-10T13:22:09Z</time>
</trkpt>
<trkpt lat="48.389557" lon="10.439464">
<ele>425.028</ele>
<time>2020-09-10T13:22:10Z</time>
</trkpt>
<trkpt lat="48.389545" lon="10.439466">
<ele>425.028</ele>
<time>2020-09-10T13:22:11Z</time>
</trkpt>
<trkpt lat="48.389534" lon="10.439464">
<ele>425.028</ele>
<time>2020-09-10T13:22:12Z</time>
</trkpt>
<trkpt lat="48.389523" lon="10.439462">
<ele>425.028</ele>
<time>2020-09-10T13:22:13Z</time>
</trkpt>
<trkpt lat="48.389515" lon="10.43946">
<ele>425.028</ele>
<time>2020-09-10T13:22:14Z</time>
</trkpt>
<trkpt lat="48.389507" lon="10.43946">
<ele>425.028</ele>
<time>2020-09-10T13:22:15Z</time>
</trkpt>
<trkpt lat="48.3895" lon="10.43946">
<ele>425.028</ele>
<time>2020-09-10T13:22:16Z</time>
</trkpt>
<trkpt lat="48.389492" lon="10.439462">
<ele>425.028</ele>
<time>2020-09-10T13:22:17Z</time>
</trkpt>
<trkpt lat="48.389488" lon="10.439462">
<ele>425.028</ele>
<time>2020-09-10T13:22:18Z</time>
</trkpt>
<trkpt lat="48.389496" lon="10.439437">
<ele>425.028</ele>
<time>2020-09-10T13:26:18Z</time>
</trkpt>
<trkpt lat="48.389503" lon="10.439446">
<ele>425.086</ele>
<time>2020-09-10T13:26:19Z</time>
</trkpt>
<trkpt lat="48.389515" lon="10.439446">
<ele>425.351</ele>
<time>2020-09-10T13:26:20Z</time>
</trkpt>
<trkpt lat="48.389507" lon="10.439453">
<ele>425.352</ele>
<time>2020-09-10T13:26:21Z</time>
</trkpt>
<trkpt lat="48.389515" lon="10.439451">
<ele>425.561</ele>
<time>2020-09-10T13:26:22Z</time>
</trkpt>
<trkpt lat="48.389515" lon="10.43945">
<ele>425.617</ele>
<time>2020-09-10T13:26:23Z</time>
</trkpt>
<trkpt lat="48.389492" lon="10.439475">
<ele>425.837</ele>
<time>2020-09-10T13:26:27Z</time>
</trkpt>
<trkpt lat="48.389492" lon="10.439488">
<ele>425.631</ele>
<time>2020-09-10T13:26:28Z</time>
</trkpt>
<trkpt lat="48.389484" lon="10.439502">
<ele>425.658</ele>
<time>2020-09-10T13:26:29Z</time>
</trkpt>
<trkpt lat="48.389484" lon="10.439504">
<ele>425.642</ele>
<time>2020-09-10T13:26:31Z</time>
</trkpt>
<trkpt lat="48.389484" lon="10.439502">
<ele>425.669</ele>
<time>2020-09-10T13:26:32Z</time>
</trkpt>
<trkpt lat="48.389496" lon="10.439495">
<ele>425.901</ele>
<time>2020-09-10T13:26:37Z</time>
</trkpt>
<trkpt lat="48.389496" lon="10.4395">
<ele>426.045</ele>
<time>2020-09-10T13:26:38Z</time>
</trkpt>
<trkpt lat="48.389492" lon="10.43949">
<ele>426.088</ele>
<time>2020-09-10T13:26:39Z</time>
</trkpt>
<trkpt lat="48.389496" lon="10.439485">
<ele>426.322</ele>
<time>2020-09-10T13:26:40Z</time>
</trkpt>
<trkpt lat="48.389492" lon="10.43948">
<ele>426.312</ele>
<time>2020-09-10T13:26:41Z</time>
</trkpt>
<trkpt lat="48.389488" lon="10.439462">
<ele>426.352</ele>
<time>2020-09-10T13:26:49Z</time>
</trkpt>
<trkpt lat="48.389511" lon="10.439458">
<ele>426.327</ele>
<time>2020-09-10T13:26:50Z</time>
</trkpt>
<trkpt lat="48.389515" lon="10.439457">
<ele>426.265</ele>
<time>2020-09-10T13:26:51Z</time>
</trkpt>
<trkpt lat="48.389523" lon="10.439458">
<ele>426.246</ele>
<time>2020-09-10T13:26:52Z</time>
</trkpt>
<trkpt lat="48.38953" lon="10.439466">
<ele>426.227</ele>
<time>2020-09-10T13:26:57Z</time>
</trkpt>
<trkpt lat="48.38953" lon="10.439483">
<ele>426.188</ele>
<time>2020-09-10T13:26:58Z</time>
</trkpt>
<trkpt lat="48.38953" lon="10.439488">
<ele>426.155</ele>
<time>2020-09-10T13:26:59Z</time>
</trkpt>
<trkpt lat="48.38953" lon="10.439491">
<ele>426.153</ele>
<time>2020-09-10T13:27:00Z</time>
</trkpt>
<trkpt lat="48.389534" lon="10.439495">
<ele>426.153</ele>
<time>2020-09-10T13:27:01Z</time>
</trkpt>
<trkpt lat="48.389534" lon="10.4395">
<ele>426.153</ele>
<time>2020-09-10T13:27:09Z</time>
</trkpt>
<trkpt lat="48.389538" lon="10.439482">
<ele>426.153</ele>
<time>2020-09-10T13:27:10Z</time>
</trkpt>
<trkpt lat="48.389538" lon="10.439472">
<ele>426.153</ele>
<time>2020-09-10T13:27:11Z</time>
</trkpt>
<trkpt lat="48.389534" lon="10.439464">
<ele>426.153</ele>
<time>2020-09-10T13:27:12Z</time>
</trkpt>
<trkpt lat="48.389534" lon="10.439455">
<ele>426.153</ele>
<time>2020-09-10T13:27:13Z</time>
</trkpt>
<trkpt lat="48.38953" lon="10.439442">
<ele>426.153</ele>
<time>2020-09-10T13:27:16Z</time>
</trkpt>
<trkpt lat="48.389526" lon="10.439446">
<ele>426.153</ele>
<time>2020-09-10T13:27:17Z</time>
</trkpt>
<trkpt lat="48.389523" lon="10.439455">
<ele>426.153</ele>
<time>2020-09-10T13:27:18Z</time>
</trkpt>
<trkpt lat="48.389523" lon="10.439453">
<ele>426.153</ele>
<time>2020-09-10T13:27:19Z</time>
</trkpt>
<trkpt lat="48.389515" lon="10.439455">
<ele>426.153</ele>
<time>2020-09-10T13:27:20Z</time>
</trkpt>
<trkpt lat="48.389515" lon="10.439458">
<ele>426.153</ele>
<time>2020-09-10T13:27:21Z</time>
</trkpt>
<trkpt lat="48.389515" lon="10.439455">
<ele>426.153</ele>
<time>2020-09-10T13:27:23Z</time>
</trkpt>
<trkpt lat="48.389481" lon="10.439457">
<ele>426.153</ele>
<time>2020-09-10T13:27:29Z</time>
</trkpt>
<trkpt lat="48.389473" lon="10.43945">
<ele>426.153</ele>
<time>2020-09-10T13:27:30Z</time>
</trkpt>
<trkpt lat="48.389469" lon="10.439458">
<ele>426.153</ele>
<time>2020-09-10T13:27:31Z</time>
</trkpt>
<trkpt lat="48.389465" lon="10.439462">
<ele>426.153</ele>
<time>2020-09-10T13:27:32Z</time>
</trkpt>
<trkpt lat="48.389465" lon="10.439458">
<ele>426.153</ele>
<time>2020-09-10T13:27:33Z</time>
</trkpt>
<trkpt lat="48.389462" lon="10.439468">
<ele>426.153</ele>
<time>2020-09-10T13:27:38Z</time>
</trkpt>
<trkpt lat="48.389465" lon="10.439464">
<ele>426.153</ele>
<time>2020-09-10T13:27:39Z</time>
</trkpt>
<trkpt lat="48.389469" lon="10.439468">
<ele>426.153</ele>
<time>2020-09-10T13:27:40Z</time>
</trkpt>
<trkpt lat="48.389469" lon="10.439466">
<ele>426.153</ele>
<time>2020-09-10T13:27:41Z</time>
</trkpt>
<trkpt lat="48.389484" lon="10.439482">
<ele>426.153</ele>
<time>2020-09-10T13:27:57Z</time>
</trkpt>
<trkpt lat="48.389496" lon="10.439476">
<ele>426.153</ele>
<time>2020-09-10T13:27:58Z</time>
</trkpt>
<trkpt lat="48.389496" lon="10.439462">
<ele>426.153</ele>
<time>2020-09-10T13:27:59Z</time>
</trkpt>
<trkpt lat="48.389488" lon="10.439458">
<ele>426.153</ele>
<time>2020-09-10T13:28:00Z</time>
</trkpt>
<trkpt lat="48.389492" lon="10.439453">
<ele>426.153</ele>
<time>2020-09-10T13:28:01Z</time>
</trkpt>
<trkpt lat="48.389492" lon="10.439448">
<ele>426.153</ele>
<time>2020-09-10T13:28:02Z</time>
</trkpt>
<trkpt lat="48.389492" lon="10.43943">
<ele>426.153</ele>
<time>2020-09-10T13:28:19Z</time>
</trkpt>
<trkpt lat="48.389488" lon="10.439425">
<ele>426.153</ele>
<time>2020-09-10T13:28:20Z</time>
</trkpt>
<trkpt lat="48.389481" lon="10.439424">
<ele>426.153</ele>
<time>2020-09-10T13:28:21Z</time>
</trkpt>
<trkpt lat="48.389477" lon="10.439426">
<ele>426.153</ele>
<time>2020-09-10T13:28:22Z</time>
</trkpt>
<trkpt lat="48.389473" lon="10.439428">
<ele>426.153</ele>
<time>2020-09-10T13:28:23Z</time>
</trkpt>
<trkpt lat="48.389473" lon="10.439425">
<ele>426.153</ele>
<time>2020-09-10T13:28:24Z</time>
</trkpt>
<trkpt lat="48.389469" lon="10.439424">
<ele>426.153</ele>
<time>2020-09-10T13:28:25Z</time>
</trkpt>
<trkpt lat="48.389462" lon="10.439435">
<ele>426.153</ele>
<time>2020-09-10T13:28:26Z</time>
</trkpt>
<trkpt lat="48.389481" lon="10.439437">
<ele>426.153</ele>
<time>2020-09-10T13:28:27Z</time>
</trkpt>
<trkpt lat="48.389503" lon="10.439441">
<ele>426.153</ele>
<time>2020-09-10T13:28:28Z</time>
</trkpt>
<trkpt lat="48.389523" lon="10.439442">
<ele>426.153</ele>
<time>2020-09-10T13:28:29Z</time>
</trkpt>
<trkpt lat="48.389538" lon="10.439434">
<ele>426.153</ele>
<time>2020-09-10T13:28:30Z</time>
</trkpt>
<trkpt lat="48.389549" lon="10.439435">
<ele>426.153</ele>
<time>2020-09-10T13:28:31Z</time>
</trkpt>
<trkpt lat="48.389561" lon="10.439434">
<ele>426.153</ele>
<time>2020-09-10T13:28:32Z</time>
</trkpt>
<trkpt lat="48.389561" lon="10.439424">
<ele>426.153</ele>
<time>2020-09-10T13:28:33Z</time>
</trkpt>
<trkpt lat="48.389561" lon="10.439413">
<ele>426.153</ele>
<time>2020-09-10T13:28:34Z</time>
</trkpt>
<trkpt lat="48.389557" lon="10.439402">
<ele>426.153</ele>
<time>2020-09-10T13:28:35Z</time>
</trkpt>
<trkpt lat="48.389557" lon="10.439397">
<ele>426.153</ele>
<time>2020-09-10T13:28:36Z</time>
</trkpt>
<trkpt lat="48.389549" lon="10.439401">
<ele>426.153</ele>
<time>2020-09-10T13:28:37Z</time>
</trkpt>
<trkpt lat="48.389538" lon="10.439392">
<ele>426.153</ele>
<time>2020-09-10T13:28:38Z</time>
</trkpt>
<trkpt lat="48.38953" lon="10.439402">
<ele>426.153</ele>
<time>2020-09-10T13:28:39Z</time>
</trkpt>
<trkpt lat="48.389519" lon="10.439406">
<ele>426.153</ele>
<time>2020-09-10T13:28:40Z</time>
</trkpt>
<trkpt lat="48.389515" lon="10.439413">
<ele>426.153</ele>
<time>2020-09-10T13:28:41Z</time>
</trkpt>
<trkpt lat="48.389511" lon="10.43942">
<ele>426.153</ele>
<time>2020-09-10T13:28:42Z</time>
</trkpt>
<trkpt lat="48.389503" lon="10.43942">
<ele>426.153</ele>
<time>2020-09-10T13:28:43Z</time>
</trkpt>
<trkpt lat="48.3895" lon="10.43943">
<ele>426.153</ele>
<time>2020-09-10T13:28:44Z</time>
</trkpt>
<trkpt lat="48.389503" lon="10.439435">
<ele>426.153</ele>
<time>2020-09-10T13:28:45Z</time>
</trkpt>
<trkpt lat="48.389511" lon="10.439446">
<ele>426.153</ele>
<time>2020-09-10T13:28:47Z</time>
</trkpt>
<trkpt lat="48.389492" lon="10.439462">
<ele>426.153</ele>
<time>2020-09-10T13:28:49Z</time>
</trkpt>
<trkpt lat="48.389484" lon="10.439466">
<ele>426.153</ele>
<time>2020-09-10T13:28:50Z</time>
</trkpt>
<trkpt lat="48.389484" lon="10.439462">
<ele>426.153</ele>
<time>2020-09-10T13:28:51Z</time>
</trkpt>
<trkpt lat="48.389492" lon="10.439466">
<ele>426.153</ele>
<time>2020-09-10T13:28:52Z</time>
</trkpt>
<trkpt lat="48.389496" lon="10.439474">
<ele>426.153</ele>
<time>2020-09-10T13:28:53Z</time>
</trkpt>
<trkpt lat="48.389496" lon="10.439472">
<ele>426.153</ele>
<time>2020-09-10T13:28:54Z</time>
</trkpt>
<trkpt lat="48.389503" lon="10.439476">
<ele>426.153</ele>
<time>2020-09-10T13:28:55Z</time>
</trkpt>
<trkpt lat="48.389511" lon="10.439485">
<ele>426.153</ele>
<time>2020-09-10T13:28:56Z</time>
</trkpt>
<trkpt lat="48.389496" lon="10.439491">
<ele>426.153</ele>
<time>2020-09-10T13:28:57Z</time>
</trkpt>
<trkpt lat="48.3895" lon="10.439495">
<ele>426.153</ele>
<time>2020-09-10T13:28:58Z</time>
</trkpt>
<trkpt lat="48.3895" lon="10.439511">
<ele>426.153</ele>
<time>2020-09-10T13:28:59Z</time>
</trkpt>
<trkpt lat="48.389503" lon="10.439511">
<ele>426.153</ele>
<time>2020-09-10T13:29:00Z</time>
</trkpt>
<trkpt lat="48.3895" lon="10.439522">
<ele>426.153</ele>
<time>2020-09-10T13:29:01Z</time>
</trkpt>
<trkpt lat="48.389496" lon="10.439533">
<ele>426.153</ele>
<time>2020-09-10T13:29:02Z</time>
</trkpt>
<trkpt lat="48.3895" lon="10.439547">
<ele>426.153</ele>
<time>2020-09-10T13:29:03Z</time>
</trkpt>
<trkpt lat="48.389496" lon="10.439549">
<ele>426.153</ele>
<time>2020-09-10T13:29:04Z</time>
</trkpt>
<trkpt lat="48.389507" lon="10.439553">
<ele>426.153</ele>
<time>2020-09-10T13:29:05Z</time>
</trkpt>
<trkpt lat="48.389515" lon="10.439556">
<ele>426.153</ele>
<time>2020-09-10T13:29:06Z</time>
</trkpt>
<trkpt lat="48.389523" lon="10.439567">
<ele>426.153</ele>
<time>2020-09-10T13:29:07Z</time>
</trkpt>
<trkpt lat="48.389534" lon="10.439545">
<ele>426.153</ele>
<time>2020-09-10T13:29:08Z</time>
</trkpt>
<trkpt lat="48.389545" lon="10.439506">
<ele>426.153</ele>
<time>2020-09-10T13:29:09Z</time>
</trkpt>
<trkpt lat="48.389496" lon="10.439457">
<ele>426.153</ele>
<time>2020-09-10T13:29:10Z</time>
</trkpt>
<trkpt lat="48.3895" lon="10.439445">
<ele>426.153</ele>
<time>2020-09-10T13:29:11Z</time>
</trkpt>
<trkpt lat="48.389492" lon="10.439434">
<ele>426.153</ele>
<time>2020-09-10T13:29:12Z</time>
</trkpt>
<trkpt lat="48.389484" lon="10.439426">
<ele>426.153</ele>
<time>2020-09-10T13:29:13Z</time>
</trkpt>
<trkpt lat="48.389484" lon="10.439415">
<ele>426.153</ele>
<time>2020-09-10T13:29:14Z</time>
</trkpt>
<trkpt lat="48.389484" lon="10.439408">
<ele>426.153</ele>
<time>2020-09-10T13:29:15Z</time>
</trkpt>
<trkpt lat="48.389484" lon="10.439377">
<ele>426.153</ele>
<time>2020-09-10T13:29:41Z</time>
</trkpt>
<trkpt lat="48.389484" lon="10.43938">
<ele>426.153</ele>
<time>2020-09-10T13:29:42Z</time>
</trkpt>
<trkpt lat="48.389481" lon="10.439392">
<ele>426.153</ele>
<time>2020-09-10T13:29:43Z</time>
</trkpt>
<trkpt lat="48.389477" lon="10.439393">
<ele>426.153</ele>
<time>2020-09-10T13:29:44Z</time>
</trkpt>
<trkpt lat="48.389488" lon="10.439409">
<ele>426.153</ele>
<time>2020-09-10T13:29:46Z</time>
</trkpt>
<trkpt lat="48.389496" lon="10.439408">
<ele>426.153</ele>
<time>2020-09-10T13:29:47Z</time>
</trkpt>
<trkpt lat="48.389492" lon="10.439408">
<ele>426.153</ele>
<time>2020-09-10T13:29:48Z</time>
</trkpt>
<trkpt lat="48.389496" lon="10.439408">
<ele>426.153</ele>
<time>2020-09-10T13:29:49Z</time>
</trkpt>
<trkpt lat="48.389492" lon="10.439409">
<ele>426.153</ele>
<time>2020-09-10T13:29:50Z</time>
</trkpt>
<trkpt lat="48.389488" lon="10.43942">
<ele>426.153</ele>
<time>2020-09-10T13:29:59Z</time>
</trkpt>
<trkpt lat="48.389484" lon="10.439417">
<ele>426.153</ele>
<time>2020-09-10T13:30:00Z</time>
</trkpt>
<trkpt lat="48.389484" lon="10.439411">
<ele>426.153</ele>
<time>2020-09-10T13:30:01Z</time>
</trkpt>
<trkpt lat="48.389484" lon="10.439405">
<ele>426.153</ele>
<time>2020-09-10T13:30:02Z</time>
</trkpt>
<trkpt lat="48.389488" lon="10.439411">
<ele>426.153</ele>
<time>2020-09-10T13:30:03Z</time>
</trkpt>
<trkpt lat="48.389492" lon="10.439417">
<ele>426.153</ele>
<time>2020-09-10T13:30:04Z</time>
</trkpt>
<trkpt lat="48.389492" lon="10.439422">
<ele>426.153</ele>
<time>2020-09-10T13:30:05Z</time>
</trkpt>
<trkpt lat="48.389496" lon="10.439415">
<ele>426.153</ele>
<time>2020-09-10T13:30:06Z</time>
</trkpt>
<trkpt lat="48.389503" lon="10.439413">
<ele>426.153</ele>
<time>2020-09-10T13:30:09Z</time>
</trkpt>
<trkpt lat="48.389511" lon="10.439418">
<ele>426.153</ele>
<time>2020-09-10T13:30:10Z</time>
</trkpt>
<trkpt lat="48.389511" lon="10.439422">
<ele>426.153</ele>
<time>2020-09-10T13:30:11Z</time>
</trkpt>
<trkpt lat="48.389515" lon="10.439425">
<ele>426.153</ele>
<time>2020-09-10T13:30:12Z</time>
</trkpt>
<trkpt lat="48.389511" lon="10.439457">
<ele>426.153</ele>
<time>2020-09-10T13:30:15Z</time>
</trkpt>
<trkpt lat="48.389519" lon="10.439428">
<ele>426.153</ele>
<time>2020-09-10T13:30:16Z</time>
</trkpt>
<trkpt lat="48.389523" lon="10.43942">
<ele>426.153</ele>
<time>2020-09-10T13:30:17Z</time>
</trkpt>
<trkpt lat="48.389526" lon="10.439411">
<ele>426.153</ele>
<time>2020-09-10T13:30:18Z</time>
</trkpt>
<trkpt lat="48.389534" lon="10.439425">
<ele>426.153</ele>
<time>2020-09-10T13:30:19Z</time>
</trkpt>
<trkpt lat="48.389538" lon="10.439434">
<ele>426.153</ele>
<time>2020-09-10T13:30:20Z</time>
</trkpt>
<trkpt lat="48.389542" lon="10.439439">
<ele>426.153</ele>
<time>2020-09-10T13:30:21Z</time>
</trkpt>
<trkpt lat="48.389538" lon="10.439442">
<ele>426.153</ele>
<time>2020-09-10T13:30:22Z</time>
</trkpt>
<trkpt lat="48.389534" lon="10.439443">
<ele>426.153</ele>
<time>2020-09-10T13:30:23Z</time>
</trkpt>
<trkpt lat="48.389534" lon="10.439448">
<ele>426.153</ele>
<time>2020-09-10T13:30:24Z</time>
</trkpt>
<trkpt lat="48.389534" lon="10.439451">
<ele>426.153</ele>
<time>2020-09-10T13:30:25Z</time>
</trkpt>
<trkpt lat="48.389534" lon="10.439455">
<ele>426.153</ele>
<time>2020-09-10T13:30:26Z</time>
</trkpt>
<trkpt lat="48.389523" lon="10.439468">
<ele>426.153</ele>
<time>2020-09-10T13:30:27Z</time>
</trkpt>
<trkpt lat="48.3895" lon="10.43948">
<ele>426.153</ele>
<time>2020-09-10T13:30:28Z</time>
</trkpt>
<trkpt lat="48.389477" lon="10.439493">
<ele>426.153</ele>
<time>2020-09-10T13:30:29Z</time>
</trkpt>
<trkpt lat="48.38945" lon="10.43947">
<ele>426.153</ele>
<time>2020-09-10T13:30:30Z</time>
</trkpt>
<trkpt lat="48.38945" lon="10.439458">
<ele>426.153</ele>
<time>2020-09-10T13:30:31Z</time>
</trkpt>
<trkpt lat="48.38945" lon="10.439455">
<ele>426.153</ele>
<time>2020-09-10T13:30:32Z</time>
</trkpt>
<trkpt lat="48.38945" lon="10.439448">
<ele>426.153</ele>
<time>2020-09-10T13:30:33Z</time>
</trkpt>
<trkpt lat="48.389446" lon="10.439446">
<ele>426.153</ele>
<time>2020-09-10T13:30:34Z</time>
</trkpt>
<trkpt lat="48.389442" lon="10.439451">
<ele>426.153</ele>
<time>2020-09-10T13:30:35Z</time>
</trkpt>
<trkpt lat="48.389442" lon="10.439458">
<ele>426.153</ele>
<time>2020-09-10T13:30:36Z</time>
</trkpt>
<trkpt lat="48.389442" lon="10.439457">
<ele>426.153</ele>
<time>2020-09-10T13:30:37Z</time>
</trkpt>
<trkpt lat="48.389515" lon="10.439478">
<ele>426.153</ele>
<time>2020-09-10T13:30:56Z</time>
</trkpt>
<trkpt lat="48.389519" lon="10.439476">
<ele>426.153</ele>
<time>2020-09-10T13:30:57Z</time>
</trkpt>
<trkpt lat="48.389515" lon="10.439464">
<ele>426.153</ele>
<time>2020-09-10T13:30:58Z</time>
</trkpt>
<trkpt lat="48.389515" lon="10.439443">
<ele>426.153</ele>
<time>2020-09-10T13:30:59Z</time>
</trkpt>
<trkpt lat="48.389515" lon="10.439422">
<ele>426.153</ele>
<time>2020-09-10T13:31:00Z</time>
</trkpt>
<trkpt lat="48.389503" lon="10.439409">
<ele>426.153</ele>
<time>2020-09-10T13:31:01Z</time>
</trkpt>
<trkpt lat="48.389488" lon="10.439395">
<ele>426.153</ele>
<time>2020-09-10T13:31:02Z</time>
</trkpt>
<trkpt lat="48.389488" lon="10.439371">
<ele>426.153</ele>
<time>2020-09-10T13:31:03Z</time>
</trkpt>
<trkpt lat="48.389484" lon="10.439367">
<ele>426.153</ele>
<time>2020-09-10T13:31:04Z</time>
</trkpt>
<trkpt lat="48.389492" lon="10.439365">
<ele>426.153</ele>
<time>2020-09-10T13:31:05Z</time>
</trkpt>
<trkpt lat="48.389523" lon="10.439393">
<ele>426.153</ele>
<time>2020-09-10T13:31:06Z</time>
</trkpt>
<trkpt lat="48.389549" lon="10.439375">
<ele>426.153</ele>
<time>2020-09-10T13:31:07Z</time>
</trkpt>
<trkpt lat="48.389545" lon="10.439362">
<ele>426.153</ele>
<time>2020-09-10T13:31:08Z</time>
</trkpt>
<trkpt lat="48.389503" lon="10.439434">
<ele>426.153</ele>
<time>2020-09-10T13:31:09Z</time>
</trkpt>
<trkpt lat="48.389507" lon="10.439462">
<ele>426.153</ele>
<time>2020-09-10T13:31:10Z</time>
</trkpt>
<trkpt lat="48.389507" lon="10.439455">
<ele>426.153</ele>
<time>2020-09-10T13:31:11Z</time>
</trkpt>
<trkpt lat="48.389507" lon="10.439453">
<ele>426.153</ele>
<time>2020-09-10T13:31:12Z</time>
</trkpt>
<trkpt lat="48.389503" lon="10.439458">
<ele>426.153</ele>
<time>2020-09-10T13:31:13Z</time>
</trkpt>
<trkpt lat="48.3895" lon="10.439462">
<ele>426.153</ele>
<time>2020-09-10T13:31:14Z</time>
</trkpt>
<trkpt lat="48.389469" lon="10.439443">
<ele>426.153</ele>
<time>2020-09-10T13:31:19Z</time>
</trkpt>
<trkpt lat="48.389458" lon="10.439437">
<ele>426.153</ele>
<time>2020-09-10T13:31:20Z</time>
</trkpt>
<trkpt lat="48.389446" lon="10.439439">
<ele>426.153</ele>
<time>2020-09-10T13:31:21Z</time>
</trkpt>
<trkpt lat="48.389439" lon="10.439442">
<ele>426.153</ele>
<time>2020-09-10T13:31:22Z</time>
</trkpt>
<trkpt lat="48.389427" lon="10.439442">
<ele>426.153</ele>
<time>2020-09-10T13:31:23Z</time>
</trkpt>
<trkpt lat="48.389431" lon="10.439448">
<ele>426.153</ele>
<time>2020-09-10T13:31:24Z</time>
</trkpt>
<trkpt lat="48.389431" lon="10.439446">
<ele>426.153</ele>
<time>2020-09-10T13:31:25Z</time>
</trkpt>
<trkpt lat="48.389435" lon="10.439442">
<ele>426.153</ele>
<time>2020-09-10T13:31:26Z</time>
</trkpt>
<trkpt lat="48.38945" lon="10.439445">
<ele>426.153</ele>
<time>2020-09-10T13:31:27Z</time>
</trkpt>
<trkpt lat="48.389458" lon="10.439439">
<ele>426.153</ele>
<time>2020-09-10T13:31:28Z</time>
</trkpt>
<trkpt lat="48.38945" lon="10.439432">
<ele>426.153</ele>
<time>2020-09-10T13:31:29Z</time>
</trkpt>
<trkpt lat="48.389446" lon="10.43942">
<ele>426.153</ele>
<time>2020-09-10T13:31:30Z</time>
</trkpt>
<trkpt lat="48.389442" lon="10.439408">
<ele>426.153</ele>
<time>2020-09-10T13:31:31Z</time>
</trkpt>
<trkpt lat="48.389446" lon="10.439405">
<ele>426.153</ele>
<time>2020-09-10T13:31:32Z</time>
</trkpt>
<trkpt lat="48.389462" lon="10.43942">
<ele>426.153</ele>
<time>2020-09-10T13:31:33Z</time>
</trkpt>
<trkpt lat="48.389469" lon="10.439428">
<ele>426.153</ele>
<time>2020-09-10T13:31:34Z</time>
</trkpt>
<trkpt lat="48.389492" lon="10.439424">
<ele>426.153</ele>
<time>2020-09-10T13:31:35Z</time>
</trkpt>
<trkpt lat="48.389507" lon="10.439415">
<ele>426.153</ele>
<time>2020-09-10T13:31:36Z</time>
</trkpt>
<trkpt lat="48.389519" lon="10.43942">
<ele>426.153</ele>
<time>2020-09-10T13:31:37Z</time>
</trkpt>
<trkpt lat="48.389534" lon="10.439434">
<ele>426.153</ele>
<time>2020-09-10T13:31:38Z</time>
</trkpt>
<trkpt lat="48.389515" lon="10.439425">
<ele>426.153</ele>
<time>2020-09-10T13:31:39Z</time>
</trkpt>
<trkpt lat="48.389488" lon="10.439439">
<ele>426.153</ele>
<time>2020-09-10T13:31:40Z</time>
</trkpt>
<trkpt lat="48.389484" lon="10.43945">
<ele>426.153</ele>
<time>2020-09-10T13:31:41Z</time>
</trkpt>
<trkpt lat="48.38945" lon="10.439458">
<ele>426.153</ele>
<time>2020-09-10T13:31:42Z</time>
</trkpt>
<trkpt lat="48.389442" lon="10.439468">
<ele>426.153</ele>
<time>2020-09-10T13:31:43Z</time>
</trkpt>
<trkpt lat="48.389423" lon="10.439468">
<ele>426.153</ele>
<time>2020-09-10T13:31:44Z</time>
</trkpt>
<trkpt lat="48.389446" lon="10.4395">
<ele>426.153</ele>
<time>2020-09-10T13:31:45Z</time>
</trkpt>
<trkpt lat="48.38945" lon="10.439527">
<ele>426.153</ele>
<time>2020-09-10T13:31:46Z</time>
</trkpt>
<trkpt lat="48.389458" lon="10.439548">
<ele>426.153</ele>
<time>2020-09-10T13:31:47Z</time>
</trkpt>
<trkpt lat="48.389462" lon="10.439598">
<ele>426.153</ele>
<time>2020-09-10T13:31:48Z</time>
</trkpt>
<trkpt lat="48.389446" lon="10.43961">
<ele>426.153</ele>
<time>2020-09-10T13:31:49Z</time>
</trkpt>
<trkpt lat="48.389458" lon="10.439607">
<ele>426.153</ele>
<time>2020-09-10T13:31:50Z</time>
</trkpt>
<trkpt lat="48.389473" lon="10.43962">
<ele>426.153</ele>
<time>2020-09-10T13:31:51Z</time>
</trkpt>
<trkpt lat="48.389488" lon="10.439614">
<ele>426.153</ele>
<time>2020-09-10T13:31:52Z</time>
</trkpt>
<trkpt lat="48.389515" lon="10.439609">
<ele>426.153</ele>
<time>2020-09-10T13:31:53Z</time>
</trkpt>
<trkpt lat="48.389526" lon="10.439595">
<ele>426.153</ele>
<time>2020-09-10T13:31:54Z</time>
</trkpt>
<trkpt lat="48.38953" lon="10.439577">
<ele>426.153</ele>
<time>2020-09-10T13:31:55Z</time>
</trkpt>
<trkpt lat="48.389545" lon="10.439548">
<ele>426.153</ele>
<time>2020-09-10T13:31:56Z</time>
</trkpt>
<trkpt lat="48.389557" lon="10.439549">
<ele>426.153</ele>
<time>2020-09-10T13:31:57Z</time>
</trkpt>
<trkpt lat="48.389549" lon="10.439533">
<ele>426.153</ele>
<time>2020-09-10T13:31:58Z</time>
</trkpt>
<trkpt lat="48.38958" lon="10.439513">
<ele>426.153</ele>
<time>2020-09-10T13:31:59Z</time>
</trkpt>
<trkpt lat="48.389576" lon="10.439491">
<ele>426.153</ele>
<time>2020-09-10T13:32:00Z</time>
</trkpt>
<trkpt lat="48.389587" lon="10.439474">
<ele>426.153</ele>
<time>2020-09-10T13:32:01Z</time>
</trkpt>
<trkpt lat="48.389599" lon="10.439468">
<ele>426.153</ele>
<time>2020-09-10T13:32:02Z</time>
</trkpt>
<trkpt lat="48.389603" lon="10.439466">
<ele>426.153</ele>
<time>2020-09-10T13:32:03Z</time>
</trkpt>
<trkpt lat="48.389606" lon="10.439455">
<ele>426.153</ele>
<time>2020-09-10T13:32:04Z</time>
</trkpt>
<trkpt lat="48.389565" lon="10.439457">
<ele>426.153</ele>
<time>2020-09-10T13:32:05Z</time>
</trkpt>
<trkpt lat="48.389511" lon="10.439458">
<ele>426.153</ele>
<time>2020-09-10T13:32:06Z</time>
</trkpt>
<trkpt lat="48.3895" lon="10.439474">
<ele>426.153</ele>
<time>2020-09-10T13:32:07Z</time>
</trkpt>
<trkpt lat="48.389496" lon="10.439491">
<ele>426.153</ele>
<time>2020-09-10T13:32:08Z</time>
</trkpt>
<trkpt lat="48.389488" lon="10.439453">
<ele>426.153</ele>
<time>2020-09-10T13:32:09Z</time>
</trkpt>
<trkpt lat="48.389484" lon="10.439464">
<ele>426.153</ele>
<time>2020-09-10T13:32:10Z</time>
</trkpt>
<trkpt lat="48.389484" lon="10.439458">
<ele>426.153</ele>
<time>2020-09-10T13:32:11Z</time>
</trkpt>
<trkpt lat="48.389488" lon="10.439445">
<ele>426.153</ele>
<time>2020-09-10T13:32:12Z</time>
</trkpt>
<trkpt lat="48.389492" lon="10.43942">
<ele>426.153</ele>
<time>2020-09-10T13:32:13Z</time>
</trkpt>
<trkpt lat="48.389496" lon="10.439409">
<ele>426.153</ele>
<time>2020-09-10T13:32:14Z</time>
</trkpt>
<trkpt lat="48.389484" lon="10.439418">
<ele>426.153</ele>
<time>2020-09-10T13:32:15Z</time>
</trkpt>
<trkpt lat="48.389492" lon="10.439417">
<ele>426.153</ele>
<time>2020-09-10T13:32:16Z</time>
</trkpt>
<trkpt lat="48.389507" lon="10.439417">
<ele>426.153</ele>
<time>2020-09-10T13:32:17Z</time>
</trkpt>
<trkpt lat="48.389511" lon="10.439406">
<ele>426.153</ele>
<time>2020-09-10T13:32:18Z</time>
</trkpt>
<trkpt lat="48.3895" lon="10.439413">
<ele>426.153</ele>
<time>2020-09-10T13:32:19Z</time>
</trkpt>
<trkpt lat="48.3895" lon="10.439405">
<ele>426.153</ele>
<time>2020-09-10T13:32:20Z</time>
</trkpt>
<trkpt lat="48.389484" lon="10.439393">
<ele>426.153</ele>
<time>2020-09-10T13:32:21Z</time>
</trkpt>
<trkpt lat="48.389484" lon="10.439384">
<ele>426.153</ele>
<time>2020-09-10T13:32:22Z</time>
</trkpt>
<trkpt lat="48.3895" lon="10.439384">
<ele>426.153</ele>
<time>2020-09-10T13:32:23Z</time>
</trkpt>
<trkpt lat="48.389469" lon="10.439411">
<ele>426.153</ele>
<time>2020-09-10T13:32:24Z</time>
</trkpt>
<trkpt lat="48.389484" lon="10.439397">
<ele>426.153</ele>
<time>2020-09-10T13:32:25Z</time>
</trkpt>
<trkpt lat="48.3895" lon="10.439404">
<ele>426.153</ele>
<time>2020-09-10T13:32:26Z</time>
</trkpt>
<trkpt lat="48.389515" lon="10.439426">
<ele>426.153</ele>
<time>2020-09-10T13:32:27Z</time>
</trkpt>
<trkpt lat="48.389519" lon="10.439425">
<ele>426.153</ele>
<time>2020-09-10T13:32:28Z</time>
</trkpt>
<trkpt lat="48.389545" lon="10.439406">
<ele>426.153</ele>
<time>2020-09-10T13:32:29Z</time>
</trkpt>
<trkpt lat="48.389553" lon="10.439386">
<ele>426.153</ele>
<time>2020-09-10T13:32:30Z</time>
</trkpt>
<trkpt lat="48.389561" lon="10.439378">
<ele>426.153</ele>
<time>2020-09-10T13:32:31Z</time>
</trkpt>
<trkpt lat="48.389549" lon="10.439388">
<ele>426.153</ele>
<time>2020-09-10T13:32:32Z</time>
</trkpt>
<trkpt lat="48.389553" lon="10.439395">
<ele>426.153</ele>
<time>2020-09-10T13:32:33Z</time>
</trkpt>
<trkpt lat="48.389561" lon="10.439418">
<ele>426.153</ele>
<time>2020-09-10T13:32:34Z</time>
</trkpt>
<trkpt lat="48.389561" lon="10.439432">
<ele>426.153</ele>
<time>2020-09-10T13:32:35Z</time>
</trkpt>
<trkpt lat="48.389576" lon="10.439445">
<ele>426.153</ele>
<time>2020-09-10T13:32:36Z</time>
</trkpt>
<trkpt lat="48.389595" lon="10.439466">
<ele>426.153</ele>
<time>2020-09-10T13:32:37Z</time>
</trkpt>
<trkpt lat="48.389606" lon="10.439495">
<ele>426.153</ele>
<time>2020-09-10T13:32:38Z</time>
</trkpt>
<trkpt lat="48.389614" lon="10.4395">
<ele>426.153</ele>
<time>2020-09-10T13:32:39Z</time>
</trkpt>
<trkpt lat="48.389603" lon="10.439499">
<ele>426.153</ele>
<time>2020-09-10T13:32:40Z</time>
</trkpt>
<trkpt lat="48.389599" lon="10.43949">
<ele>426.153</ele>
<time>2020-09-10T13:32:41Z</time>
</trkpt>
<trkpt lat="48.389587" lon="10.439482">
<ele>426.153</ele>
<time>2020-09-10T13:32:42Z</time>
</trkpt>
<trkpt lat="48.389595" lon="10.439485">
<ele>426.153</ele>
<time>2020-09-10T13:32:43Z</time>
</trkpt>
<trkpt lat="48.389603" lon="10.439528">
<ele>426.153</ele>
<time>2020-09-10T13:32:44Z</time>
</trkpt>
<trkpt lat="48.389606" lon="10.439549">
<ele>426.153</ele>
<time>2020-09-10T13:32:45Z</time>
</trkpt>
<trkpt lat="48.389603" lon="10.43958">
<ele>426.153</ele>
<time>2020-09-10T13:32:46Z</time>
</trkpt>
<trkpt lat="48.389591" lon="10.43959">
<ele>426.153</ele>
<time>2020-09-10T13:32:47Z</time>
</trkpt>
<trkpt lat="48.389595" lon="10.439625">
<ele>426.153</ele>
<time>2020-09-10T13:32:48Z</time>
</trkpt>
<trkpt lat="48.389576" lon="10.439633">
<ele>426.153</ele>
<time>2020-09-10T13:32:49Z</time>
</trkpt>
<trkpt lat="48.38958" lon="10.439614">
<ele>426.153</ele>
<time>2020-09-10T13:32:50Z</time>
</trkpt>
<trkpt lat="48.389545" lon="10.439577">
<ele>426.153</ele>
<time>2020-09-10T13:32:51Z</time>
</trkpt>
<trkpt lat="48.389549" lon="10.439575">
<ele>426.153</ele>
<time>2020-09-10T13:32:52Z</time>
</trkpt>
<trkpt lat="48.389534" lon="10.439504">
<ele>426.153</ele>
<time>2020-09-10T13:32:53Z</time>
</trkpt>
<trkpt lat="48.389515" lon="10.439464">
<ele>426.153</ele>
<time>2020-09-10T13:32:54Z</time>
</trkpt>
<trkpt lat="48.389507" lon="10.439445">
<ele>426.153</ele>
<time>2020-09-10T13:32:55Z</time>
</trkpt>
<trkpt lat="48.389515" lon="10.439432">
<ele>426.153</ele>
<time>2020-09-10T13:32:56Z</time>
</trkpt>
<trkpt lat="48.389515" lon="10.439424">
<ele>426.153</ele>
<time>2020-09-10T13:32:57Z</time>
</trkpt>
<trkpt lat="48.3895" lon="10.439415">
<ele>426.153</ele>
<time>2020-09-10T13:32:58Z</time>
</trkpt>
<trkpt lat="48.389477" lon="10.439405">
<ele>426.153</ele>
<time>2020-09-10T13:32:59Z</time>
</trkpt>
<trkpt lat="48.389484" lon="10.439404">
<ele>426.153</ele>
<time>2020-09-10T13:33:00Z</time>
</trkpt>
<trkpt lat="48.389511" lon="10.43942">
<ele>426.153</ele>
<time>2020-09-10T13:33:01Z</time>
</trkpt>
<trkpt lat="48.389519" lon="10.439424">
<ele>426.153</ele>
<time>2020-09-10T13:33:02Z</time>
</trkpt>
<trkpt lat="48.389534" lon="10.43942">
<ele>426.153</ele>
<time>2020-09-10T13:33:03Z</time>
</trkpt>
<trkpt lat="48.389549" lon="10.439413">
<ele>426.153</ele>
<time>2020-09-10T13:33:04Z</time>
</trkpt>
<trkpt lat="48.389561" lon="10.439409">
<ele>426.153</ele>
<time>2020-09-10T13:33:05Z</time>
</trkpt>
<trkpt lat="48.389584" lon="10.439386">
<ele>426.153</ele>
<time>2020-09-10T13:33:06Z</time>
</trkpt>
<trkpt lat="48.389595" lon="10.43938">
<ele>426.153</ele>
<time>2020-09-10T13:33:07Z</time>
</trkpt>
<trkpt lat="48.38961" lon="10.439378">
<ele>426.153</ele>
<time>2020-09-10T13:33:08Z</time>
</trkpt>
<trkpt lat="48.389618" lon="10.439377">
<ele>426.153</ele>
<time>2020-09-10T13:33:09Z</time>
</trkpt>
<trkpt lat="48.389622" lon="10.43937">
<ele>426.153</ele>
<time>2020-09-10T13:33:10Z</time>
</trkpt>
<trkpt lat="48.389618" lon="10.439373">
<ele>426.153</ele>
<time>2020-09-10T13:33:11Z</time>
</trkpt>
<trkpt lat="48.389603" lon="10.439359">
<ele>426.153</ele>
<time>2020-09-10T13:33:16Z</time>
</trkpt>
<trkpt lat="48.389599" lon="10.43935">
<ele>426.153</ele>
<time>2020-09-10T13:33:17Z</time>
</trkpt>
<trkpt lat="48.38958" lon="10.439362">
<ele>426.153</ele>
<time>2020-09-10T13:33:19Z</time>
</trkpt>
<trkpt lat="48.38958" lon="10.439367">
<ele>426.153</ele>
<time>2020-09-10T13:33:20Z</time>
</trkpt>
<trkpt lat="48.389576" lon="10.439368">
<ele>426.153</ele>
<time>2020-09-10T13:33:21Z</time>
</trkpt>
<trkpt lat="48.38958" lon="10.439368">
<ele>426.153</ele>
<time>2020-09-10T13:33:22Z</time>
</trkpt>
<trkpt lat="48.389576" lon="10.439368">
<ele>426.153</ele>
<time>2020-09-10T13:33:23Z</time>
</trkpt>
<trkpt lat="48.38958" lon="10.439368">
<ele>426.153</ele>
<time>2020-09-10T13:33:26Z</time>
</trkpt>
<trkpt lat="48.38958" lon="10.439363">
<ele>426.153</ele>
<time>2020-09-10T13:33:27Z</time>
</trkpt>
<trkpt lat="48.38958" lon="10.439353">
<ele>426.153</ele>
<time>2020-09-10T13:33:28Z</time>
</trkpt>
<trkpt lat="48.389587" lon="10.439344">
<ele>426.153</ele>
<time>2020-09-10T13:33:29Z</time>
</trkpt>
<trkpt lat="48.389591" lon="10.43934">
<ele>426.153</ele>
<time>2020-09-10T13:33:30Z</time>
</trkpt>
<trkpt lat="48.389595" lon="10.439336">
<ele>426.153</ele>
<time>2020-09-10T13:33:31Z</time>
</trkpt>
<trkpt lat="48.389603" lon="10.439334">
<ele>426.153</ele>
<time>2020-09-10T13:33:32Z</time>
</trkpt>
<trkpt lat="48.389606" lon="10.439334">
<ele>426.153</ele>
<time>2020-09-10T13:33:33Z</time>
</trkpt>
<trkpt lat="48.389606" lon="10.439332">
<ele>426.153</ele>
<time>2020-09-10T13:33:34Z</time>
</trkpt>
<trkpt lat="48.389606" lon="10.43933">
<ele>426.153</ele>
<time>2020-09-10T13:33:35Z</time>
</trkpt>
<trkpt lat="48.389595" lon="10.439327">
<ele>426.153</ele>
<time>2020-09-10T13:33:36Z</time>
</trkpt>
<trkpt lat="48.389599" lon="10.439348">
<ele>426.153</ele>
<time>2020-09-10T13:33:39Z</time>
</trkpt>
<trkpt lat="48.389606" lon="10.439367">
<ele>426.153</ele>
<time>2020-09-10T13:33:40Z</time>
</trkpt>
<trkpt lat="48.38961" lon="10.439392">
<ele>426.153</ele>
<time>2020-09-10T13:33:41Z</time>
</trkpt>
<trkpt lat="48.389618" lon="10.439404">
<ele>426.153</ele>
<time>2020-09-10T13:33:42Z</time>
</trkpt>
<trkpt lat="48.389633" lon="10.439406">
<ele>426.153</ele>
<time>2020-09-10T13:33:43Z</time>
</trkpt>
<trkpt lat="48.389633" lon="10.439413">
<ele>426.153</ele>
<time>2020-09-10T13:33:44Z</time>
</trkpt>
<trkpt lat="48.389622" lon="10.439405">
<ele>426.153</ele>
<time>2020-09-10T13:33:45Z</time>
</trkpt>
<trkpt lat="48.389606" lon="10.439399">
<ele>426.153</ele>
<time>2020-09-10T13:33:46Z</time>
</trkpt>
<trkpt lat="48.389606" lon="10.439388">
<ele>426.153</ele>
<time>2020-09-10T13:33:47Z</time>
</trkpt>
<trkpt lat="48.389587" lon="10.439392">
<ele>426.153</ele>
<time>2020-09-10T13:33:48Z</time>
</trkpt>
<trkpt lat="48.389576" lon="10.439417">
<ele>426.153</ele>
<time>2020-09-10T13:33:49Z</time>
</trkpt>
<trkpt lat="48.38953" lon="10.439409">
<ele>426.153</ele>
<time>2020-09-10T13:33:50Z</time>
</trkpt>
<trkpt lat="48.389526" lon="10.439409">
<ele>426.153</ele>
<time>2020-09-10T13:33:51Z</time>
</trkpt>
<trkpt lat="48.389515" lon="10.439406">
<ele>426.153</ele>
<time>2020-09-10T13:33:52Z</time>
</trkpt>
<trkpt lat="48.389519" lon="10.439399">
<ele>426.153</ele>
<time>2020-09-10T13:33:53Z</time>
</trkpt>
<trkpt lat="48.389515" lon="10.439384">
<ele>426.153</ele>
<time>2020-09-10T13:33:54Z</time>
</trkpt>
<trkpt lat="48.389515" lon="10.439377">
<ele>426.153</ele>
<time>2020-09-10T13:33:56Z</time>
</trkpt>
<trkpt lat="48.389519" lon="10.439368">
<ele>426.153</ele>
<time>2020-09-10T13:33:57Z</time>
</trkpt>
<trkpt lat="48.389534" lon="10.439373">
<ele>426.153</ele>
<time>2020-09-10T13:33:58Z</time>
</trkpt>
<trkpt lat="48.389534" lon="10.439365">
<ele>426.153</ele>
<time>2020-09-10T13:33:59Z</time>
</trkpt>
<trkpt lat="48.389534" lon="10.439359">
<ele>426.153</ele>
<time>2020-09-10T13:34:00Z</time>
</trkpt>
<trkpt lat="48.38953" lon="10.439352">
<ele>426.153</ele>
<time>2020-09-10T13:34:01Z</time>
</trkpt>
<trkpt lat="48.389542" lon="10.439368">
<ele>426.153</ele>
<time>2020-09-10T13:34:04Z</time>
</trkpt>
<trkpt lat="48.389549" lon="10.43938">
<ele>426.153</ele>
<time>2020-09-10T13:34:05Z</time>
</trkpt>
<trkpt lat="48.389545" lon="10.439393">
<ele>426.153</ele>
<time>2020-09-10T13:34:06Z</time>
</trkpt>
<trkpt lat="48.389549" lon="10.439418">
<ele>426.153</ele>
<time>2020-09-10T13:34:07Z</time>
</trkpt>
<trkpt lat="48.389565" lon="10.439426">
<ele>426.153</ele>
<time>2020-09-10T13:34:08Z</time>
</trkpt>
<trkpt lat="48.38958" lon="10.439437">
<ele>426.153</ele>
<time>2020-09-10T13:34:09Z</time>
</trkpt>
<trkpt lat="48.389599" lon="10.439432">
<ele>426.153</ele>
<time>2020-09-10T13:34:10Z</time>
</trkpt>
<trkpt lat="48.389614" lon="10.439428">
<ele>426.153</ele>
<time>2020-09-10T13:34:11Z</time>
</trkpt>
<trkpt lat="48.389637" lon="10.439434">
<ele>426.153</ele>
<time>2020-09-10T13:34:12Z</time>
</trkpt>
<trkpt lat="48.389648" lon="10.439435">
<ele>426.153</ele>
<time>2020-09-10T13:34:13Z</time>
</trkpt>
<trkpt lat="48.389671" lon="10.439422">
<ele>426.153</ele>
<time>2020-09-10T13:34:14Z</time>
</trkpt>
<trkpt lat="48.389687" lon="10.439392">
<ele>426.153</ele>
<time>2020-09-10T13:34:15Z</time>
</trkpt>
<trkpt lat="48.38969" lon="10.439338">
<ele>426.153</ele>
<time>2020-09-10T13:34:16Z</time>
</trkpt>
<trkpt lat="48.38969" lon="10.439295">
<ele>426.153</ele>
<time>2020-09-10T13:34:17Z</time>
</trkpt>
<trkpt lat="48.389687" lon="10.439277">
<ele>426.153</ele>
<time>2020-09-10T13:34:18Z</time>
</trkpt>
<trkpt lat="48.389687" lon="10.439245">
<ele>426.153</ele>
<time>2020-09-10T13:34:19Z</time>
</trkpt>
<trkpt lat="48.389698" lon="10.43919">
<ele>426.153</ele>
<time>2020-09-10T13:34:20Z</time>
</trkpt>
<trkpt lat="48.389698" lon="10.43913">
<ele>426.153</ele>
<time>2020-09-10T13:34:21Z</time>
</trkpt>
<trkpt lat="48.389698" lon="10.43907">
<ele>426.153</ele>
<time>2020-09-10T13:34:22Z</time>
</trkpt>
<trkpt lat="48.389702" lon="10.439007">
<ele>426.153</ele>
<time>2020-09-10T13:34:23Z</time>
</trkpt>
<trkpt lat="48.389702" lon="10.43894">
<ele>426.153</ele>
<time>2020-09-10T13:34:24Z</time>
</trkpt>
<trkpt lat="48.389702" lon="10.438877">
<ele>426.153</ele>
<time>2020-09-10T13:34:25Z</time>
</trkpt>
<trkpt lat="48.389709" lon="10.438814">
<ele>426.153</ele>
<time>2020-09-10T13:34:26Z</time>
</trkpt>
<trkpt lat="48.389709" lon="10.438749">
<ele>426.153</ele>
<time>2020-09-10T13:34:27Z</time>
</trkpt>
<trkpt lat="48.389702" lon="10.438693">
<ele>426.153</ele>
<time>2020-09-10T13:34:28Z</time>
</trkpt>
<trkpt lat="48.389706" lon="10.438635">
<ele>426.153</ele>
<time>2020-09-10T13:34:29Z</time>
</trkpt>
<trkpt lat="48.389709" lon="10.438575">
<ele>426.153</ele>
<time>2020-09-10T13:34:30Z</time>
</trkpt>
<trkpt lat="48.389706" lon="10.438523">
<ele>426.153</ele>
<time>2020-09-10T13:34:31Z</time>
</trkpt>
<trkpt lat="48.389706" lon="10.438478">
<ele>426.153</ele>
<time>2020-09-10T13:34:32Z</time>
</trkpt>
<trkpt lat="48.389702" lon="10.438437">
<ele>426.153</ele>
<time>2020-09-10T13:34:33Z</time>
</trkpt>
<trkpt lat="48.389702" lon="10.438396">
<ele>426.153</ele>
<time>2020-09-10T13:34:34Z</time>
</trkpt>
<trkpt lat="48.389702" lon="10.438354">
<ele>426.153</ele>
<time>2020-09-10T13:34:35Z</time>
</trkpt>
<trkpt lat="48.389702" lon="10.438292">
<ele>426.153</ele>
<time>2020-09-10T13:34:36Z</time>
</trkpt>
<trkpt lat="48.389702" lon="10.438242">
<ele>426.153</ele>
<time>2020-09-10T13:34:37Z</time>
</trkpt>
<trkpt lat="48.389702" lon="10.438193">
<ele>426.153</ele>
<time>2020-09-10T13:34:38Z</time>
</trkpt>
<trkpt lat="48.389713" lon="10.438142">
<ele>426.153</ele>
<time>2020-09-10T13:34:39Z</time>
</trkpt>
<trkpt lat="48.389713" lon="10.438079">
<ele>426.153</ele>
<time>2020-09-10T13:34:40Z</time>
</trkpt>
<trkpt lat="48.389713" lon="10.438008">
<ele>426.153</ele>
<time>2020-09-10T13:34:41Z</time>
</trkpt>
<trkpt lat="48.389717" lon="10.437939">
<ele>426.153</ele>
<time>2020-09-10T13:34:42Z</time>
</trkpt>
<trkpt lat="48.389717" lon="10.437869">
<ele>426.153</ele>
<time>2020-09-10T13:34:43Z</time>
</trkpt>
<trkpt lat="48.389721" lon="10.4378">
<ele>425.878</ele>
<time>2020-09-10T13:34:44Z</time>
</trkpt>
<trkpt lat="48.389721" lon="10.437729">
<ele>425.657</ele>
<time>2020-09-10T13:34:45Z</time>
</trkpt>
<trkpt lat="48.389721" lon="10.437654">
<ele>425.521</ele>
<time>2020-09-10T13:34:46Z</time>
</trkpt>
<trkpt lat="48.389732" lon="10.437585">
<ele>425.379</ele>
<time>2020-09-10T13:34:47Z</time>
</trkpt>
<trkpt lat="48.389725" lon="10.437518">
<ele>425.274</ele>
<time>2020-09-10T13:34:48Z</time>
</trkpt>
<trkpt lat="48.389721" lon="10.437447">
<ele>425.195</ele>
<time>2020-09-10T13:34:49Z</time>
</trkpt>
<trkpt lat="48.389721" lon="10.437364">
<ele>425.141</ele>
<time>2020-09-10T13:34:50Z</time>
</trkpt>
<trkpt lat="48.389721" lon="10.437282">
<ele>425.115</ele>
<time>2020-09-10T13:34:51Z</time>
</trkpt>
<trkpt lat="48.389729" lon="10.437205">
<ele>425.115</ele>
<time>2020-09-10T13:34:52Z</time>
</trkpt>
<trkpt lat="48.389744" lon="10.43713">
<ele>425.115</ele>
<time>2020-09-10T13:34:53Z</time>
</trkpt>
<trkpt lat="48.389748" lon="10.43705">
<ele>425.115</ele>
<time>2020-09-10T13:34:54Z</time>
</trkpt>
<trkpt lat="48.389759" lon="10.436976">
<ele>424.878</ele>
<time>2020-09-10T13:34:55Z</time>
</trkpt>
<trkpt lat="48.389778" lon="10.436892">
<ele>424.712</ele>
<time>2020-09-10T13:34:56Z</time>
</trkpt>
<trkpt lat="48.38979" lon="10.436817">
<ele>424.557</ele>
<time>2020-09-10T13:34:57Z</time>
</trkpt>
<trkpt lat="48.389793" lon="10.43675">
<ele>424.217</ele>
<time>2020-09-10T13:34:58Z</time>
</trkpt>
<trkpt lat="48.38979" lon="10.436687">
<ele>424.154</ele>
<time>2020-09-10T13:34:59Z</time>
</trkpt>
<trkpt lat="48.38979" lon="10.436621">
<ele>424.117</ele>
<time>2020-09-10T13:35:00Z</time>
</trkpt>
<trkpt lat="48.389786" lon="10.436553">
<ele>423.899</ele>
<time>2020-09-10T13:35:01Z</time>
</trkpt>
<trkpt lat="48.389782" lon="10.436491">
<ele>423.989</ele>
<time>2020-09-10T13:35:02Z</time>
</trkpt>
<trkpt lat="48.389782" lon="10.436425">
<ele>423.736</ele>
<time>2020-09-10T13:35:03Z</time>
</trkpt>
<trkpt lat="48.389786" lon="10.436361">
<ele>423.652</ele>
<time>2020-09-10T13:35:04Z</time>
</trkpt>
<trkpt lat="48.389793" lon="10.436307">
<ele>423.611</ele>
<time>2020-09-10T13:35:05Z</time>
</trkpt>
<trkpt lat="48.389805" lon="10.436238">
<ele>423.47</ele>
<time>2020-09-10T13:35:06Z</time>
</trkpt>
<trkpt lat="48.389812" lon="10.436189">
<ele>423.18</ele>
<time>2020-09-10T13:35:07Z</time>
</trkpt>
<trkpt lat="48.38982" lon="10.43614">
<ele>423.01</ele>
<time>2020-09-10T13:35:08Z</time>
</trkpt>
<trkpt lat="48.389824" lon="10.436095">
<ele>422.759</ele>
<time>2020-09-10T13:35:09Z</time>
</trkpt>
<trkpt lat="48.389816" lon="10.436059">
<ele>422.489</ele>
<time>2020-09-10T13:35:10Z</time>
</trkpt>
<trkpt lat="48.389805" lon="10.43604">
<ele>422.836</ele>
<time>2020-09-10T13:35:11Z</time>
</trkpt>
<trkpt lat="48.389801" lon="10.436036">
<ele>422.451</ele>
<time>2020-09-10T13:35:12Z</time>
</trkpt>
<trkpt lat="48.389797" lon="10.436028">
<ele>422.42</ele>
<time>2020-09-10T13:35:13Z</time>
</trkpt>
<trkpt lat="48.389797" lon="10.436019">
<ele>422.303</ele>
<time>2020-09-10T13:35:14Z</time>
</trkpt>
<trkpt lat="48.38979" lon="10.436005">
<ele>421.984</ele>
<time>2020-09-10T13:35:15Z</time>
</trkpt>
<trkpt lat="48.389778" lon="10.435988">
<ele>421.715</ele>
<time>2020-09-10T13:35:16Z</time>
</trkpt>
<trkpt lat="48.389778" lon="10.435984">
<ele>421.756</ele>
<time>2020-09-10T13:35:17Z</time>
</trkpt>
<trkpt lat="48.389778" lon="10.435975">
<ele>421.786</ele>
<time>2020-09-10T13:35:18Z</time>
</trkpt>
<trkpt lat="48.389778" lon="10.435962">
<ele>421.653</ele>
<time>2020-09-10T13:35:19Z</time>
</trkpt>
<trkpt lat="48.389767" lon="10.435935">
<ele>421.523</ele>
<time>2020-09-10T13:35:20Z</time>
</trkpt>
<trkpt lat="48.389755" lon="10.435913">
<ele>421.45</ele>
<time>2020-09-10T13:35:21Z</time>
</trkpt>
<trkpt lat="48.389736" lon="10.435905">
<ele>421.405</ele>
<time>2020-09-10T13:35:22Z</time>
</trkpt>
<trkpt lat="48.389713" lon="10.435902">
<ele>421.334</ele>
<time>2020-09-10T13:35:23Z</time>
</trkpt>
<trkpt lat="48.389683" lon="10.435895">
<ele>421.339</ele>
<time>2020-09-10T13:35:24Z</time>
</trkpt>
<trkpt lat="48.389648" lon="10.435897">
<ele>421.323</ele>
<time>2020-09-10T13:35:25Z</time>
</trkpt>
<trkpt lat="48.38961" lon="10.435895">
<ele>421.318</ele>
<time>2020-09-10T13:35:26Z</time>
</trkpt>
<trkpt lat="48.389561" lon="10.435902">
<ele>421.309</ele>
<time>2020-09-10T13:35:27Z</time>
</trkpt>
<trkpt lat="48.389519" lon="10.435906">
<ele>421.309</ele>
<time>2020-09-10T13:35:28Z</time>
</trkpt>
<trkpt lat="48.389484" lon="10.435929">
<ele>421.309</ele>
<time>2020-09-10T13:35:29Z</time>
</trkpt>
<trkpt lat="48.38945" lon="10.435952">
<ele>421.4</ele>
<time>2020-09-10T13:35:30Z</time>
</trkpt>
<trkpt lat="48.389412" lon="10.43597">
<ele>421.457</ele>
<time>2020-09-10T13:35:31Z</time>
</trkpt>
<trkpt lat="48.389381" lon="10.435973">
<ele>421.497</ele>
<time>2020-09-10T13:35:32Z</time>
</trkpt>
<trkpt lat="48.389347" lon="10.43598">
<ele>421.526</ele>
<time>2020-09-10T13:35:33Z</time>
</trkpt>
<trkpt lat="48.389305" lon="10.435982">
<ele>421.545</ele>
<time>2020-09-10T13:35:34Z</time>
</trkpt>
<trkpt lat="48.389267" lon="10.435984">
<ele>421.559</ele>
<time>2020-09-10T13:35:35Z</time>
</trkpt>
<trkpt lat="48.389233" lon="10.435971">
<ele>421.567</ele>
<time>2020-09-10T13:35:36Z</time>
</trkpt>
<trkpt lat="48.389191" lon="10.435975">
<ele>421.569</ele>
<time>2020-09-10T13:35:37Z</time>
</trkpt>
<trkpt lat="48.38916" lon="10.435977">
<ele>421.569</ele>
<time>2020-09-10T13:35:38Z</time>
</trkpt>
<trkpt lat="48.389126" lon="10.435973">
<ele>421.569</ele>
<time>2020-09-10T13:35:39Z</time>
</trkpt>
<trkpt lat="48.389091" lon="10.435968">
<ele>421.569</ele>
<time>2020-09-10T13:35:40Z</time>
</trkpt>
<trkpt lat="48.38905" lon="10.435975">
<ele>421.569</ele>
<time>2020-09-10T13:35:41Z</time>
</trkpt>
<trkpt lat="48.389004" lon="10.435992">
<ele>421.569</ele>
<time>2020-09-10T13:35:42Z</time>
</trkpt>
<trkpt lat="48.388966" lon="10.435994">
<ele>421.569</ele>
<time>2020-09-10T13:35:43Z</time>
</trkpt>
<trkpt lat="48.388935" lon="10.436002">
<ele>421.569</ele>
<time>2020-09-10T13:35:44Z</time>
</trkpt>
<trkpt lat="48.388897" lon="10.436011">
<ele>421.652</ele>
<time>2020-09-10T13:35:45Z</time>
</trkpt>
<trkpt lat="48.388863" lon="10.436017">
<ele>421.724</ele>
<time>2020-09-10T13:35:46Z</time>
</trkpt>
<trkpt lat="48.388824" lon="10.436011">
<ele>421.781</ele>
<time>2020-09-10T13:35:47Z</time>
</trkpt>
<trkpt lat="48.388775" lon="10.436002">
<ele>421.826</ele>
<time>2020-09-10T13:35:48Z</time>
</trkpt>
<trkpt lat="48.388729" lon="10.436013">
<ele>421.862</ele>
<time>2020-09-10T13:35:49Z</time>
</trkpt>
<trkpt lat="48.38868" lon="10.436019">
<ele>421.888</ele>
<time>2020-09-10T13:35:50Z</time>
</trkpt>
<trkpt lat="48.388638" lon="10.436026">
<ele>421.907</ele>
<time>2020-09-10T13:35:51Z</time>
</trkpt>
<trkpt lat="48.388588" lon="10.436038">
<ele>421.915</ele>
<time>2020-09-10T13:35:52Z</time>
</trkpt>
<trkpt lat="48.388538" lon="10.43605">
<ele>421.915</ele>
<time>2020-09-10T13:35:53Z</time>
</trkpt>
<trkpt lat="48.388504" lon="10.436068">
<ele>421.915</ele>
<time>2020-09-10T13:35:54Z</time>
</trkpt>
<trkpt lat="48.388458" lon="10.436078">
<ele>421.915</ele>
<time>2020-09-10T13:35:55Z</time>
</trkpt>
<trkpt lat="48.388412" lon="10.43609">
<ele>421.915</ele>
<time>2020-09-10T13:35:56Z</time>
</trkpt>
<trkpt lat="48.388363" lon="10.436099">
<ele>421.915</ele>
<time>2020-09-10T13:35:57Z</time>
</trkpt>
<trkpt lat="48.388313" lon="10.436107">
<ele>421.915</ele>
<time>2020-09-10T13:35:58Z</time>
</trkpt>
<trkpt lat="48.388248" lon="10.436116">
<ele>421.915</ele>
<time>2020-09-10T13:35:59Z</time>
</trkpt>
<trkpt lat="48.388195" lon="10.436129">
<ele>421.915</ele>
<time>2020-09-10T13:36:00Z</time>
</trkpt>
<trkpt lat="48.388145" lon="10.436173">
<ele>421.915</ele>
<time>2020-09-10T13:36:01Z</time>
</trkpt>
<trkpt lat="48.388096" lon="10.43621">
<ele>421.915</ele>
<time>2020-09-10T13:36:02Z</time>
</trkpt>
<trkpt lat="48.38805" lon="10.436245">
<ele>421.915</ele>
<time>2020-09-10T13:36:03Z</time>
</trkpt>
<trkpt lat="48.388016" lon="10.436279">
<ele>421.85</ele>
<time>2020-09-10T13:36:04Z</time>
</trkpt>
<trkpt lat="48.387974" lon="10.436312">
<ele>421.58</ele>
<time>2020-09-10T13:36:05Z</time>
</trkpt>
<trkpt lat="48.387928" lon="10.436376">
<ele>421.401</ele>
<time>2020-09-10T13:36:06Z</time>
</trkpt>
<trkpt lat="48.387882" lon="10.436403">
<ele>421.203</ele>
<time>2020-09-10T13:36:07Z</time>
</trkpt>
<trkpt lat="48.387833" lon="10.436417">
<ele>421.028</ele>
<time>2020-09-10T13:36:08Z</time>
</trkpt>
<trkpt lat="48.387779" lon="10.436439">
<ele>420.902</ele>
<time>2020-09-10T13:36:09Z</time>
</trkpt>
<trkpt lat="48.387726" lon="10.436455">
<ele>420.808</ele>
<time>2020-09-10T13:36:10Z</time>
</trkpt>
<trkpt lat="48.387669" lon="10.436467">
<ele>420.748</ele>
<time>2020-09-10T13:36:11Z</time>
</trkpt>
<trkpt lat="48.387619" lon="10.436461">
<ele>420.704</ele>
<time>2020-09-10T13:36:12Z</time>
</trkpt>
<trkpt lat="48.387562" lon="10.43645">
<ele>420.704</ele>
<time>2020-09-10T13:36:13Z</time>
</trkpt>
<trkpt lat="48.387524" lon="10.436428">
<ele>420.704</ele>
<time>2020-09-10T13:36:14Z</time>
</trkpt>
<trkpt lat="48.387466" lon="10.436394">
<ele>420.704</ele>
<time>2020-09-10T13:36:15Z</time>
</trkpt>
<trkpt lat="48.387409" lon="10.43634">
<ele>420.704</ele>
<time>2020-09-10T13:36:16Z</time>
</trkpt>
<trkpt lat="48.387367" lon="10.436302">
<ele>420.704</ele>
<time>2020-09-10T13:36:17Z</time>
</trkpt>
<trkpt lat="48.387341" lon="10.436269">
<ele>420.704</ele>
<time>2020-09-10T13:36:18Z</time>
</trkpt>
<trkpt lat="48.387306" lon="10.436239">
<ele>420.704</ele>
<time>2020-09-10T13:36:19Z</time>
</trkpt>
<trkpt lat="48.387257" lon="10.436214">
<ele>420.704</ele>
<time>2020-09-10T13:36:20Z</time>
</trkpt>
<trkpt lat="48.387203" lon="10.436202">
<ele>420.704</ele>
<time>2020-09-10T13:36:21Z</time>
</trkpt>
<trkpt lat="48.387142" lon="10.436195">
<ele>420.704</ele>
<time>2020-09-10T13:36:22Z</time>
</trkpt>
<trkpt lat="48.387077" lon="10.4362">
<ele>420.704</ele>
<time>2020-09-10T13:36:23Z</time>
</trkpt>
<trkpt lat="48.38702" lon="10.436214">
<ele>420.704</ele>
<time>2020-09-10T13:36:24Z</time>
</trkpt>
<trkpt lat="48.386974" lon="10.436238">
<ele>420.704</ele>
<time>2020-09-10T13:36:25Z</time>
</trkpt>
<trkpt lat="48.38694" lon="10.436265">
<ele>420.704</ele>
<time>2020-09-10T13:36:26Z</time>
</trkpt>
<trkpt lat="48.386917" lon="10.436285">
<ele>420.704</ele>
<time>2020-09-10T13:36:27Z</time>
</trkpt>
<trkpt lat="48.386864" lon="10.436332">
<ele>420.704</ele>
<time>2020-09-10T13:36:28Z</time>
</trkpt>
<trkpt lat="48.386799" lon="10.436392">
<ele>420.704</ele>
<time>2020-09-10T13:36:29Z</time>
</trkpt>
<trkpt lat="48.386742" lon="10.436435">
<ele>420.704</ele>
<time>2020-09-10T13:36:30Z</time>
</trkpt>
<trkpt lat="48.386688" lon="10.436481">
<ele>420.704</ele>
<time>2020-09-10T13:36:31Z</time>
</trkpt>
<trkpt lat="48.386642" lon="10.436526">
<ele>420.704</ele>
<time>2020-09-10T13:36:32Z</time>
</trkpt>
<trkpt lat="48.3866" lon="10.436564">
<ele>420.704</ele>
<time>2020-09-10T13:36:33Z</time>
</trkpt>
<trkpt lat="48.386551" lon="10.436598">
<ele>420.704</ele>
<time>2020-09-10T13:36:34Z</time>
</trkpt>
<trkpt lat="48.386497" lon="10.436633">
<ele>420.704</ele>
<time>2020-09-10T13:36:35Z</time>
</trkpt>
<trkpt lat="48.386459" lon="10.436666">
<ele>420.704</ele>
<time>2020-09-10T13:36:36Z</time>
</trkpt>
<trkpt lat="48.386417" lon="10.436698">
<ele>420.704</ele>
<time>2020-09-10T13:36:37Z</time>
</trkpt>
<trkpt lat="48.386383" lon="10.436735">
<ele>420.704</ele>
<time>2020-09-10T13:36:38Z</time>
</trkpt>
<trkpt lat="48.386356" lon="10.436778">
<ele>420.984</ele>
<time>2020-09-10T13:36:39Z</time>
</trkpt>
<trkpt lat="48.386307" lon="10.436824">
<ele>421.218</ele>
<time>2020-09-10T13:36:40Z</time>
</trkpt>
<trkpt lat="48.386257" lon="10.43685">
<ele>421.401</ele>
<time>2020-09-10T13:36:41Z</time>
</trkpt>
<trkpt lat="48.386192" lon="10.436867">
<ele>421.532</ele>
<time>2020-09-10T13:36:42Z</time>
</trkpt>
<trkpt lat="48.386147" lon="10.436892">
<ele>421.632</ele>
<time>2020-09-10T13:36:43Z</time>
</trkpt>
<trkpt lat="48.386093" lon="10.436905">
<ele>421.68</ele>
<time>2020-09-10T13:36:44Z</time>
</trkpt>
<trkpt lat="48.38604" lon="10.43692">
<ele>421.936</ele>
<time>2020-09-10T13:36:45Z</time>
</trkpt>
<trkpt lat="48.385983" lon="10.436958">
<ele>422.101</ele>
<time>2020-09-10T13:36:46Z</time>
</trkpt>
<trkpt lat="48.385963" lon="10.43695">
<ele>422.205</ele>
<time>2020-09-10T13:36:47Z</time>
</trkpt>
<trkpt lat="48.385902" lon="10.43696">
<ele>422.28</ele>
<time>2020-09-10T13:36:48Z</time>
</trkpt>
<trkpt lat="48.385864" lon="10.436958">
<ele>422.35</ele>
<time>2020-09-10T13:36:49Z</time>
</trkpt>
<trkpt lat="48.385807" lon="10.436958">
<ele>422.405</ele>
<time>2020-09-10T13:36:50Z</time>
</trkpt>
<trkpt lat="48.385765" lon="10.436972">
<ele>422.686</ele>
<time>2020-09-10T13:36:51Z</time>
</trkpt>
<trkpt lat="48.385715" lon="10.436983">
<ele>422.903</ele>
<time>2020-09-10T13:36:52Z</time>
</trkpt>
<trkpt lat="48.385666" lon="10.436996">
<ele>423.115</ele>
<time>2020-09-10T13:36:53Z</time>
</trkpt>
<trkpt lat="48.385605" lon="10.436996">
<ele>423.243</ele>
<time>2020-09-10T13:36:54Z</time>
</trkpt>
<trkpt lat="48.385571" lon="10.437">
<ele>423.348</ele>
<time>2020-09-10T13:36:55Z</time>
</trkpt>
<trkpt lat="48.385536" lon="10.436998">
<ele>423.385</ele>
<time>2020-09-10T13:36:56Z</time>
</trkpt>
<trkpt lat="48.385502" lon="10.436996">
<ele>423.448</ele>
<time>2020-09-10T13:36:57Z</time>
</trkpt>
<trkpt lat="48.385452" lon="10.437005">
<ele>423.472</ele>
<time>2020-09-10T13:36:58Z</time>
</trkpt>
<trkpt lat="48.385406" lon="10.437005">
<ele>423.471</ele>
<time>2020-09-10T13:36:59Z</time>
</trkpt>
<trkpt lat="48.385361" lon="10.43699">
<ele>423.75</ele>
<time>2020-09-10T13:37:00Z</time>
</trkpt>
<trkpt lat="48.385319" lon="10.437006">
<ele>423.977</ele>
<time>2020-09-10T13:37:01Z</time>
</trkpt>
<trkpt lat="48.385265" lon="10.437034">
<ele>424.162</ele>
<time>2020-09-10T13:37:02Z</time>
</trkpt>
<trkpt lat="48.385181" lon="10.43705">
<ele>424.323</ele>
<time>2020-09-10T13:37:03Z</time>
</trkpt>
<trkpt lat="48.385113" lon="10.437069">
<ele>424.399</ele>
<time>2020-09-10T13:37:04Z</time>
</trkpt>
<trkpt lat="48.385048" lon="10.437092">
<ele>424.451</ele>
<time>2020-09-10T13:37:05Z</time>
</trkpt>
<trkpt lat="48.384998" lon="10.437108">
<ele>424.483</ele>
<time>2020-09-10T13:37:06Z</time>
</trkpt>
<trkpt lat="48.384964" lon="10.43713">
<ele>424.509</ele>
<time>2020-09-10T13:37:07Z</time>
</trkpt>
<trkpt lat="48.384918" lon="10.437144">
<ele>424.561</ele>
<time>2020-09-10T13:37:08Z</time>
</trkpt>
<trkpt lat="48.384865" lon="10.43718">
<ele>424.599</ele>
<time>2020-09-10T13:37:09Z</time>
</trkpt>
<trkpt lat="48.384823" lon="10.437232">
<ele>424.604</ele>
<time>2020-09-10T13:37:10Z</time>
</trkpt>
<trkpt lat="48.384773" lon="10.437265">
<ele>424.852</ele>
<time>2020-09-10T13:37:11Z</time>
</trkpt>
<trkpt lat="48.384724" lon="10.437305">
<ele>424.844</ele>
<time>2020-09-10T13:37:12Z</time>
</trkpt>
<trkpt lat="48.384682" lon="10.437344">
<ele>424.936</ele>
<time>2020-09-10T13:37:13Z</time>
</trkpt>
<trkpt lat="48.38464" lon="10.437375">
<ele>425.184</ele>
<time>2020-09-10T13:37:14Z</time>
</trkpt>
<trkpt lat="48.384586" lon="10.437396">
<ele>425.371</ele>
<time>2020-09-10T13:37:15Z</time>
</trkpt>
<trkpt lat="48.384541" lon="10.437415">
<ele>425.567</ele>
<time>2020-09-10T13:37:16Z</time>
</trkpt>
<trkpt lat="48.384491" lon="10.437437">
<ele>425.692</ele>
<time>2020-09-10T13:37:17Z</time>
</trkpt>
<trkpt lat="48.384445" lon="10.437449">
<ele>425.775</ele>
<time>2020-09-10T13:37:18Z</time>
</trkpt>
<trkpt lat="48.384388" lon="10.437494">
<ele>425.814</ele>
<time>2020-09-10T13:37:19Z</time>
</trkpt>
<trkpt lat="48.384342" lon="10.437545">
<ele>425.893</ele>
<time>2020-09-10T13:37:20Z</time>
</trkpt>
<trkpt lat="48.384296" lon="10.437587">
<ele>425.893</ele>
<time>2020-09-10T13:37:21Z</time>
</trkpt>
<trkpt lat="48.384243" lon="10.43762">
<ele>425.893</ele>
<time>2020-09-10T13:37:22Z</time>
</trkpt>
<trkpt lat="48.384209" lon="10.437649">
<ele>426.096</ele>
<time>2020-09-10T13:37:23Z</time>
</trkpt>
<trkpt lat="48.384171" lon="10.437668">
<ele>426.254</ele>
<time>2020-09-10T13:37:24Z</time>
</trkpt>
<trkpt lat="48.384132" lon="10.43769">
<ele>426.376</ele>
<time>2020-09-10T13:37:25Z</time>
</trkpt>
<trkpt lat="48.384094" lon="10.43771">
<ele>426.433</ele>
<time>2020-09-10T13:37:26Z</time>
</trkpt>
<trkpt lat="48.384064" lon="10.437735">
<ele>426.456</ele>
<time>2020-09-10T13:37:27Z</time>
</trkpt>
<trkpt lat="48.384029" lon="10.437755">
<ele>426.304</ele>
<time>2020-09-10T13:37:28Z</time>
</trkpt>
<trkpt lat="48.383987" lon="10.4378">
<ele>426.436</ele>
<time>2020-09-10T13:37:29Z</time>
</trkpt>
<trkpt lat="48.383938" lon="10.437839">
<ele>426.537</ele>
<time>2020-09-10T13:37:30Z</time>
</trkpt>
<trkpt lat="48.383892" lon="10.437878">
<ele>426.609</ele>
<time>2020-09-10T13:37:31Z</time>
</trkpt>
<trkpt lat="48.383854" lon="10.437913">
<ele>426.644</ele>
<time>2020-09-10T13:37:32Z</time>
</trkpt>
<trkpt lat="48.383816" lon="10.437943">
<ele>426.656</ele>
<time>2020-09-10T13:37:33Z</time>
</trkpt>
<trkpt lat="48.383778" lon="10.437982">
<ele>426.964</ele>
<time>2020-09-10T13:37:34Z</time>
</trkpt>
<trkpt lat="48.383743" lon="10.438016">
<ele>426.968</ele>
<time>2020-09-10T13:37:35Z</time>
</trkpt>
<trkpt lat="48.383701" lon="10.438047">
<ele>426.965</ele>
<time>2020-09-10T13:37:36Z</time>
</trkpt>
<trkpt lat="48.383667" lon="10.438068">
<ele>427.108</ele>
<time>2020-09-10T13:37:37Z</time>
</trkpt>
<trkpt lat="48.383636" lon="10.438102">
<ele>427.103</ele>
<time>2020-09-10T13:37:38Z</time>
</trkpt>
<trkpt lat="48.38361" lon="10.438154">
<ele>427.092</ele>
<time>2020-09-10T13:37:39Z</time>
</trkpt>
<trkpt lat="48.383583" lon="10.438207">
<ele>427.248</ele>
<time>2020-09-10T13:37:40Z</time>
</trkpt>
<trkpt lat="48.383549" lon="10.438251">
<ele>427.461</ele>
<time>2020-09-10T13:37:41Z</time>
</trkpt>
<trkpt lat="48.383518" lon="10.438293">
<ele>427.696</ele>
<time>2020-09-10T13:37:42Z</time>
</trkpt>
<trkpt lat="48.383488" lon="10.43833">
<ele>427.789</ele>
<time>2020-09-10T13:37:43Z</time>
</trkpt>
<trkpt lat="48.383457" lon="10.438368">
<ele>427.873</ele>
<time>2020-09-10T13:37:44Z</time>
</trkpt>
<trkpt lat="48.383434" lon="10.438405">
<ele>428.194</ele>
<time>2020-09-10T13:37:45Z</time>
</trkpt>
<trkpt lat="48.383408" lon="10.438433">
<ele>428.45</ele>
<time>2020-09-10T13:37:46Z</time>
</trkpt>
<trkpt lat="48.383381" lon="10.438462">
<ele>428.636</ele>
<time>2020-09-10T13:37:47Z</time>
</trkpt>
<trkpt lat="48.383343" lon="10.438487">
<ele>428.809</ele>
<time>2020-09-10T13:37:48Z</time>
</trkpt>
<trkpt lat="48.383305" lon="10.438521">
<ele>428.994</ele>
<time>2020-09-10T13:37:49Z</time>
</trkpt>
<trkpt lat="48.383263" lon="10.438565">
<ele>429.06</ele>
<time>2020-09-10T13:37:50Z</time>
</trkpt>
<trkpt lat="48.383224" lon="10.438606">
<ele>429.332</ele>
<time>2020-09-10T13:37:51Z</time>
</trkpt>
<trkpt lat="48.383194" lon="10.43866">
<ele>429.531</ele>
<time>2020-09-10T13:37:52Z</time>
</trkpt>
<trkpt lat="48.383175" lon="10.438717">
<ele>429.67</ele>
<time>2020-09-10T13:37:53Z</time>
</trkpt>
<trkpt lat="48.383141" lon="10.438758">
<ele>430.023</ele>
<time>2020-09-10T13:37:54Z</time>
</trkpt>
<trkpt lat="48.383114" lon="10.438795">
<ele>430.279</ele>
<time>2020-09-10T13:37:55Z</time>
</trkpt>
<trkpt lat="48.383076" lon="10.438828">
<ele>430.482</ele>
<time>2020-09-10T13:37:56Z</time>
</trkpt>
<trkpt lat="48.383045" lon="10.438856">
<ele>430.429</ele>
<time>2020-09-10T13:37:57Z</time>
</trkpt>
<trkpt lat="48.383018" lon="10.438885">
<ele>430.579</ele>
<time>2020-09-10T13:37:58Z</time>
</trkpt>
<trkpt lat="48.382984" lon="10.438912">
<ele>430.587</ele>
<time>2020-09-10T13:37:59Z</time>
</trkpt>
<trkpt lat="48.382957" lon="10.438944">
<ele>430.935</ele>
<time>2020-09-10T13:38:00Z</time>
</trkpt>
<trkpt lat="48.382927" lon="10.438986">
<ele>431.213</ele>
<time>2020-09-10T13:38:01Z</time>
</trkpt>
<trkpt lat="48.382896" lon="10.439015">
<ele>431.409</ele>
<time>2020-09-10T13:38:02Z</time>
</trkpt>
<trkpt lat="48.382866" lon="10.439049">
<ele>431.559</ele>
<time>2020-09-10T13:38:03Z</time>
</trkpt>
<trkpt lat="48.382835" lon="10.439091">
<ele>431.63</ele>
<time>2020-09-10T13:38:04Z</time>
</trkpt>
<trkpt lat="48.382809" lon="10.439127">
<ele>431.69</ele>
<time>2020-09-10T13:38:05Z</time>
</trkpt>
<trkpt lat="48.382778" lon="10.439147">
<ele>431.925</ele>
<time>2020-09-10T13:38:06Z</time>
</trkpt>
<trkpt lat="48.382755" lon="10.439172">
<ele>432.175</ele>
<time>2020-09-10T13:38:07Z</time>
</trkpt>
<trkpt lat="48.382713" lon="10.439201">
<ele>432.292</ele>
<time>2020-09-10T13:38:08Z</time>
</trkpt>
<trkpt lat="48.382687" lon="10.439243">
<ele>432.802</ele>
<time>2020-09-10T13:38:09Z</time>
</trkpt>
<trkpt lat="48.382656" lon="10.43929">
<ele>433.123</ele>
<time>2020-09-10T13:38:10Z</time>
</trkpt>
<trkpt lat="48.382629" lon="10.439332">
<ele>433.351</ele>
<time>2020-09-10T13:38:11Z</time>
</trkpt>
<trkpt lat="48.382591" lon="10.439371">
<ele>433.476</ele>
<time>2020-09-10T13:38:12Z</time>
</trkpt>
<trkpt lat="48.382549" lon="10.439404">
<ele>433.911</ele>
<time>2020-09-10T13:38:14Z</time>
</trkpt>
<trkpt lat="48.382511" lon="10.439432">
<ele>434.294</ele>
<time>2020-09-10T13:38:15Z</time>
</trkpt>
<trkpt lat="48.382446" lon="10.439495">
<ele>434.649</ele>
<time>2020-09-10T13:38:16Z</time>
</trkpt>
<trkpt lat="48.382416" lon="10.439528">
<ele>434.729</ele>
<time>2020-09-10T13:38:17Z</time>
</trkpt>
<trkpt lat="48.382378" lon="10.439555">
<ele>435.035</ele>
<time>2020-09-10T13:38:18Z</time>
</trkpt>
<trkpt lat="48.382317" lon="10.439577">
<ele>435.286</ele>
<time>2020-09-10T13:38:19Z</time>
</trkpt>
<trkpt lat="48.382275" lon="10.439602">
<ele>435.452</ele>
<time>2020-09-10T13:38:20Z</time>
</trkpt>
<trkpt lat="48.382225" lon="10.439621">
<ele>435.734</ele>
<time>2020-09-10T13:38:21Z</time>
</trkpt>
<trkpt lat="48.382183" lon="10.439635">
<ele>436.149</ele>
<time>2020-09-10T13:38:22Z</time>
</trkpt>
<trkpt lat="48.382141" lon="10.439649">
<ele>436.434</ele>
<time>2020-09-10T13:38:23Z</time>
</trkpt>
<trkpt lat="48.382103" lon="10.439656">
<ele>436.641</ele>
<time>2020-09-10T13:38:24Z</time>
</trkpt>
<trkpt lat="48.382072" lon="10.439663">
<ele>436.763</ele>
<time>2020-09-10T13:38:25Z</time>
</trkpt>
<trkpt lat="48.382042" lon="10.439672">
<ele>436.821</ele>
<time>2020-09-10T13:38:26Z</time>
</trkpt>
<trkpt lat="48.382015" lon="10.439669">
<ele>436.913</ele>
<time>2020-09-10T13:38:27Z</time>
</trkpt>
<trkpt lat="48.381985" lon="10.43965">
<ele>437.274</ele>
<time>2020-09-10T13:38:28Z</time>
</trkpt>
<trkpt lat="48.381943" lon="10.439638">
<ele>437.614</ele>
<time>2020-09-10T13:38:29Z</time>
</trkpt>
<trkpt lat="48.381912" lon="10.439637">
<ele>437.826</ele>
<time>2020-09-10T13:38:30Z</time>
</trkpt>
<trkpt lat="48.381874" lon="10.439651">
<ele>438.075</ele>
<time>2020-09-10T13:38:31Z</time>
</trkpt>
<trkpt lat="48.381844" lon="10.439663">
<ele>438.167</ele>
<time>2020-09-10T13:38:32Z</time>
</trkpt>
<trkpt lat="48.381813" lon="10.439682">
<ele>438.429</ele>
<time>2020-09-10T13:38:33Z</time>
</trkpt>
<trkpt lat="48.381783" lon="10.439711">
<ele>438.764</ele>
<time>2020-09-10T13:38:34Z</time>
</trkpt>
<trkpt lat="48.381741" lon="10.439738">
<ele>438.967</ele>
<time>2020-09-10T13:38:35Z</time>
</trkpt>
<trkpt lat="48.381706" lon="10.439759">
<ele>439.274</ele>
<time>2020-09-10T13:38:36Z</time>
</trkpt>
<trkpt lat="48.381683" lon="10.439761">
<ele>439.369</ele>
<time>2020-09-10T13:38:37Z</time>
</trkpt>
<trkpt lat="48.381649" lon="10.439792">
<ele>439.461</ele>
<time>2020-09-10T13:38:38Z</time>
</trkpt>
<trkpt lat="48.381622" lon="10.439833">
<ele>439.718</ele>
<time>2020-09-10T13:38:39Z</time>
</trkpt>
<trkpt lat="48.381577" lon="10.439854">
<ele>439.9</ele>
<time>2020-09-10T13:38:40Z</time>
</trkpt>
<trkpt lat="48.381546" lon="10.439865">
<ele>440</ele>
<time>2020-09-10T13:38:41Z</time>
</trkpt>
<trkpt lat="48.381504" lon="10.439885">
<ele>440.569</ele>
<time>2020-09-10T13:38:42Z</time>
</trkpt>
<trkpt lat="48.381474" lon="10.439908">
<ele>440.905</ele>
<time>2020-09-10T13:38:43Z</time>
</trkpt>
<trkpt lat="48.381435" lon="10.439931">
<ele>440.973</ele>
<time>2020-09-10T13:38:44Z</time>
</trkpt>
<trkpt lat="48.381424" lon="10.439952">
<ele>441.231</ele>
<time>2020-09-10T13:38:45Z</time>
</trkpt>
<trkpt lat="48.381382" lon="10.44">
<ele>441.416</ele>
<time>2020-09-10T13:38:46Z</time>
</trkpt>
<trkpt lat="48.381344" lon="10.440006">
<ele>441.557</ele>
<time>2020-09-10T13:38:47Z</time>
</trkpt>
<trkpt lat="48.381313" lon="10.440021">
<ele>441.661</ele>
<time>2020-09-10T13:38:48Z</time>
</trkpt>
<trkpt lat="48.381248" lon="10.440046">
<ele>441.733</ele>
<time>2020-09-10T13:38:49Z</time>
</trkpt>
<trkpt lat="48.38121" lon="10.440071">
<ele>441.829</ele>
<time>2020-09-10T13:38:50Z</time>
</trkpt>
<trkpt lat="48.38118" lon="10.440084">
<ele>442.111</ele>
<time>2020-09-10T13:38:51Z</time>
</trkpt>
<trkpt lat="48.381168" lon="10.440102">
<ele>442.123</ele>
<time>2020-09-10T13:38:52Z</time>
</trkpt>
<trkpt lat="48.381145" lon="10.440113">
<ele>442.347</ele>
<time>2020-09-10T13:38:53Z</time>
</trkpt>
<trkpt lat="48.381138" lon="10.440126">
<ele>442.6</ele>
<time>2020-09-10T13:38:54Z</time>
</trkpt>
<trkpt lat="48.381111" lon="10.440136">
<ele>442.662</ele>
<time>2020-09-10T13:38:55Z</time>
</trkpt>
<trkpt lat="48.381073" lon="10.440162">
<ele>442.765</ele>
<time>2020-09-10T13:38:56Z</time>
</trkpt>
<trkpt lat="48.38102" lon="10.440193">
<ele>442.835</ele>
<time>2020-09-10T13:38:57Z</time>
</trkpt>
<trkpt lat="48.380985" lon="10.440222">
<ele>442.97</ele>
<time>2020-09-10T13:38:58Z</time>
</trkpt>
<trkpt lat="48.380951" lon="10.440243">
<ele>443.298</ele>
<time>2020-09-10T13:38:59Z</time>
</trkpt>
<trkpt lat="48.380909" lon="10.440295">
<ele>443.495</ele>
<time>2020-09-10T13:39:00Z</time>
</trkpt>
<trkpt lat="48.380878" lon="10.440316">
<ele>443.623</ele>
<time>2020-09-10T13:39:01Z</time>
</trkpt>
<trkpt lat="48.380871" lon="10.440335">
<ele>443.641</ele>
<time>2020-09-10T13:39:02Z</time>
</trkpt>
<trkpt lat="48.380848" lon="10.440353">
<ele>443.681</ele>
<time>2020-09-10T13:39:03Z</time>
</trkpt>
<trkpt lat="48.380814" lon="10.440371">
<ele>443.721</ele>
<time>2020-09-10T13:39:04Z</time>
</trkpt>
<trkpt lat="48.380795" lon="10.44039">
<ele>443.933</ele>
<time>2020-09-10T13:39:05Z</time>
</trkpt>
<trkpt lat="48.380775" lon="10.440395">
<ele>444.194</ele>
<time>2020-09-10T13:39:06Z</time>
</trkpt>
<trkpt lat="48.380745" lon="10.440405">
<ele>444.522</ele>
<time>2020-09-10T13:39:07Z</time>
</trkpt>
<trkpt lat="48.380722" lon="10.440414">
<ele>444.681</ele>
<time>2020-09-10T13:39:08Z</time>
</trkpt>
<trkpt lat="48.38068" lon="10.440434">
<ele>444.842</ele>
<time>2020-09-10T13:39:09Z</time>
</trkpt>
<trkpt lat="48.380653" lon="10.440453">
<ele>444.929</ele>
<time>2020-09-10T13:39:10Z</time>
</trkpt>
<trkpt lat="48.38063" lon="10.440477">
<ele>444.952</ele>
<time>2020-09-10T13:39:11Z</time>
</trkpt>
<trkpt lat="48.380604" lon="10.440494">
<ele>445.03</ele>
<time>2020-09-10T13:39:12Z</time>
</trkpt>
<trkpt lat="48.380581" lon="10.44051">
<ele>445.258</ele>
<time>2020-09-10T13:39:13Z</time>
</trkpt>
<trkpt lat="48.38055" lon="10.440521">
<ele>445.333</ele>
<time>2020-09-10T13:39:14Z</time>
</trkpt>
<trkpt lat="48.380516" lon="10.440538">
<ele>445.603</ele>
<time>2020-09-10T13:39:15Z</time>
</trkpt>
<trkpt lat="48.380482" lon="10.440554">
<ele>445.567</ele>
<time>2020-09-10T13:39:16Z</time>
</trkpt>
<trkpt lat="48.380444" lon="10.440559">
<ele>445.717</ele>
<time>2020-09-10T13:39:17Z</time>
</trkpt>
<trkpt lat="48.380405" lon="10.440561">
<ele>445.705</ele>
<time>2020-09-10T13:39:18Z</time>
</trkpt>
<trkpt lat="48.38036" lon="10.440568">
<ele>445.872</ele>
<time>2020-09-10T13:39:19Z</time>
</trkpt>
<trkpt lat="48.380325" lon="10.440585">
<ele>445.877</ele>
<time>2020-09-10T13:39:20Z</time>
</trkpt>
<trkpt lat="48.380295" lon="10.440605">
<ele>446.084</ele>
<time>2020-09-10T13:39:21Z</time>
</trkpt>
<trkpt lat="48.380264" lon="10.440624">
<ele>446.404</ele>
<time>2020-09-10T13:39:22Z</time>
</trkpt>
<trkpt lat="48.380234" lon="10.440641">
<ele>446.583</ele>
<time>2020-09-10T13:39:23Z</time>
</trkpt>
<trkpt lat="48.380203" lon="10.440656">
<ele>446.706</ele>
<time>2020-09-10T13:39:24Z</time>
</trkpt>
<trkpt lat="48.380173" lon="10.440675">
<ele>446.799</ele>
<time>2020-09-10T13:39:25Z</time>
</trkpt>
<trkpt lat="48.380146" lon="10.440689">
<ele>446.905</ele>
<time>2020-09-10T13:39:26Z</time>
</trkpt>
<trkpt lat="48.380127" lon="10.4407">
<ele>446.948</ele>
<time>2020-09-10T13:39:27Z</time>
</trkpt>
<trkpt lat="48.380096" lon="10.440705">
<ele>447.022</ele>
<time>2020-09-10T13:39:28Z</time>
</trkpt>
<trkpt lat="48.380058" lon="10.44073">
<ele>447.023</ele>
<time>2020-09-10T13:39:29Z</time>
</trkpt>
<trkpt lat="48.380032" lon="10.440759">
<ele>447.023</ele>
<time>2020-09-10T13:39:30Z</time>
</trkpt>
<trkpt lat="48.380005" lon="10.440785">
<ele>447.023</ele>
<time>2020-09-10T13:39:31Z</time>
</trkpt>
<trkpt lat="48.379971" lon="10.440803">
<ele>447.259</ele>
<time>2020-09-10T13:39:32Z</time>
</trkpt>
<trkpt lat="48.379929" lon="10.440824">
<ele>447.451</ele>
<time>2020-09-10T13:39:33Z</time>
</trkpt>
<trkpt lat="48.379894" lon="10.440844">
<ele>447.595</ele>
<time>2020-09-10T13:39:34Z</time>
</trkpt>
<trkpt lat="48.379852" lon="10.440869">
<ele>447.701</ele>
<time>2020-09-10T13:39:35Z</time>
</trkpt>
<trkpt lat="48.37981" lon="10.44089">
<ele>447.751</ele>
<time>2020-09-10T13:39:36Z</time>
</trkpt>
<trkpt lat="48.379776" lon="10.440901">
<ele>447.818</ele>
<time>2020-09-10T13:39:37Z</time>
</trkpt>
<trkpt lat="48.379738" lon="10.440913">
<ele>447.871</ele>
<time>2020-09-10T13:39:38Z</time>
</trkpt>
<trkpt lat="48.379688" lon="10.440928">
<ele>448.105</ele>
<time>2020-09-10T13:39:39Z</time>
</trkpt>
<trkpt lat="48.379639" lon="10.440949">
<ele>448.424</ele>
<time>2020-09-10T13:39:40Z</time>
</trkpt>
<trkpt lat="48.379601" lon="10.440969">
<ele>448.349</ele>
<time>2020-09-10T13:39:41Z</time>
</trkpt>
<trkpt lat="48.379559" lon="10.440982">
<ele>448.549</ele>
<time>2020-09-10T13:39:42Z</time>
</trkpt>
<trkpt lat="48.379532" lon="10.440997">
<ele>448.653</ele>
<time>2020-09-10T13:39:43Z</time>
</trkpt>
<trkpt lat="48.379509" lon="10.441016">
<ele>448.806</ele>
<time>2020-09-10T13:39:44Z</time>
</trkpt>
<trkpt lat="48.379475" lon="10.441047">
<ele>448.913</ele>
<time>2020-09-10T13:39:45Z</time>
</trkpt>
<trkpt lat="48.379429" lon="10.441078">
<ele>448.984</ele>
<time>2020-09-10T13:39:46Z</time>
</trkpt>
<trkpt lat="48.379406" lon="10.441104">
<ele>449.147</ele>
<time>2020-09-10T13:39:47Z</time>
</trkpt>
<trkpt lat="48.379375" lon="10.441142">
<ele>449.167</ele>
<time>2020-09-10T13:39:48Z</time>
</trkpt>
<trkpt lat="48.379364" lon="10.441175">
<ele>449.2</ele>
<time>2020-09-10T13:39:49Z</time>
</trkpt>
<trkpt lat="48.37933" lon="10.441205">
<ele>449.224</ele>
<time>2020-09-10T13:39:50Z</time>
</trkpt>
<trkpt lat="48.379303" lon="10.441234">
<ele>449.244</ele>
<time>2020-09-10T13:39:51Z</time>
</trkpt>
<trkpt lat="48.379269" lon="10.441263">
<ele>449.262</ele>
<time>2020-09-10T13:39:52Z</time>
</trkpt>
<trkpt lat="48.379234" lon="10.441288">
<ele>449.268</ele>
<time>2020-09-10T13:39:53Z</time>
</trkpt>
<trkpt lat="48.379192" lon="10.441317">
<ele>449.272</ele>
<time>2020-09-10T13:39:54Z</time>
</trkpt>
<trkpt lat="48.379158" lon="10.44134">
<ele>449.276</ele>
<time>2020-09-10T13:39:55Z</time>
</trkpt>
<trkpt lat="48.379143" lon="10.441366">
<ele>449.277</ele>
<time>2020-09-10T13:39:56Z</time>
</trkpt>
<trkpt lat="48.379139" lon="10.441395">
<ele>449.277</ele>
<time>2020-09-10T13:39:57Z</time>
</trkpt>
<trkpt lat="48.379116" lon="10.441439">
<ele>449.277</ele>
<time>2020-09-10T13:39:58Z</time>
</trkpt>
<trkpt lat="48.379105" lon="10.441482">
<ele>449.541</ele>
<time>2020-09-10T13:39:59Z</time>
</trkpt>
<trkpt lat="48.379078" lon="10.441498">
<ele>449.726</ele>
<time>2020-09-10T13:40:00Z</time>
</trkpt>
<trkpt lat="48.379044" lon="10.441508">
<ele>449.871</ele>
<time>2020-09-10T13:40:01Z</time>
</trkpt>
<trkpt lat="48.379013" lon="10.441529">
<ele>449.984</ele>
<time>2020-09-10T13:40:02Z</time>
</trkpt>
<trkpt lat="48.378986" lon="10.441553">
<ele>450.078</ele>
<time>2020-09-10T13:40:03Z</time>
</trkpt>
<trkpt lat="48.378952" lon="10.441584">
<ele>450.128</ele>
<time>2020-09-10T13:40:04Z</time>
</trkpt>
<trkpt lat="48.378918" lon="10.441618">
<ele>450.144</ele>
<time>2020-09-10T13:40:05Z</time>
</trkpt>
<trkpt lat="48.378887" lon="10.441659">
<ele>450.149</ele>
<time>2020-09-10T13:40:06Z</time>
</trkpt>
<trkpt lat="48.378857" lon="10.441695">
<ele>450.145</ele>
<time>2020-09-10T13:40:07Z</time>
</trkpt>
<trkpt lat="48.378815" lon="10.441732">
<ele>450.145</ele>
<time>2020-09-10T13:40:08Z</time>
</trkpt>
<trkpt lat="48.378769" lon="10.441762">
<ele>450.145</ele>
<time>2020-09-10T13:40:09Z</time>
</trkpt>
<trkpt lat="48.37875" lon="10.44179">
<ele>450.145</ele>
<time>2020-09-10T13:40:10Z</time>
</trkpt>
<trkpt lat="48.378712" lon="10.441833">
<ele>450.118</ele>
<time>2020-09-10T13:40:11Z</time>
</trkpt>
<trkpt lat="48.378681" lon="10.441869">
<ele>450.098</ele>
<time>2020-09-10T13:40:12Z</time>
</trkpt>
<trkpt lat="48.378654" lon="10.441898">
<ele>450.265</ele>
<time>2020-09-10T13:40:13Z</time>
</trkpt>
<trkpt lat="48.378628" lon="10.441921">
<ele>450.259</ele>
<time>2020-09-10T13:40:14Z</time>
</trkpt>
<trkpt lat="48.378593" lon="10.441936">
<ele>450.489</ele>
<time>2020-09-10T13:40:15Z</time>
</trkpt>
<trkpt lat="48.378551" lon="10.441952">
<ele>450.668</ele>
<time>2020-09-10T13:40:16Z</time>
</trkpt>
<trkpt lat="48.378525" lon="10.441967">
<ele>450.774</ele>
<time>2020-09-10T13:40:17Z</time>
</trkpt>
<trkpt lat="48.378494" lon="10.441988">
<ele>450.846</ele>
<time>2020-09-10T13:40:18Z</time>
</trkpt>
<trkpt lat="48.378452" lon="10.442005">
<ele>450.901</ele>
<time>2020-09-10T13:40:19Z</time>
</trkpt>
<trkpt lat="48.378418" lon="10.442047">
<ele>450.972</ele>
<time>2020-09-10T13:40:20Z</time>
</trkpt>
<trkpt lat="48.378365" lon="10.442093">
<ele>451.006</ele>
<time>2020-09-10T13:40:21Z</time>
</trkpt>
<trkpt lat="48.378334" lon="10.442124">
<ele>451.03</ele>
<time>2020-09-10T13:40:22Z</time>
</trkpt>
<trkpt lat="48.378304" lon="10.442156">
<ele>451.015</ele>
<time>2020-09-10T13:40:23Z</time>
</trkpt>
<trkpt lat="48.378273" lon="10.442187">
<ele>451.013</ele>
<time>2020-09-10T13:40:24Z</time>
</trkpt>
<trkpt lat="48.378242" lon="10.442217">
<ele>451.013</ele>
<time>2020-09-10T13:40:25Z</time>
</trkpt>
<trkpt lat="48.378208" lon="10.442248">
<ele>451.037</ele>
<time>2020-09-10T13:40:26Z</time>
</trkpt>
<trkpt lat="48.37817" lon="10.44228">
<ele>451.056</ele>
<time>2020-09-10T13:40:27Z</time>
</trkpt>
<trkpt lat="48.378139" lon="10.442322">
<ele>451.07</ele>
<time>2020-09-10T13:40:28Z</time>
</trkpt>
<trkpt lat="48.378105" lon="10.442359">
<ele>451.222</ele>
<time>2020-09-10T13:40:29Z</time>
</trkpt>
<trkpt lat="48.378067" lon="10.442405">
<ele>451.196</ele>
<time>2020-09-10T13:40:30Z</time>
</trkpt>
<trkpt lat="48.378025" lon="10.442449">
<ele>451.168</ele>
<time>2020-09-10T13:40:31Z</time>
</trkpt>
<trkpt lat="48.377995" lon="10.442489">
<ele>451.375</ele>
<time>2020-09-10T13:40:32Z</time>
</trkpt>
<trkpt lat="48.377956" lon="10.442529">
<ele>451.533</ele>
<time>2020-09-10T13:40:33Z</time>
</trkpt>
<trkpt lat="48.377922" lon="10.442573">
<ele>451.677</ele>
<time>2020-09-10T13:40:34Z</time>
</trkpt>
<trkpt lat="48.377884" lon="10.442613">
<ele>451.782</ele>
<time>2020-09-10T13:40:35Z</time>
</trkpt>
<trkpt lat="48.377846" lon="10.442646">
<ele>451.875</ele>
<time>2020-09-10T13:40:36Z</time>
</trkpt>
<trkpt lat="48.377804" lon="10.442686">
<ele>451.943</ele>
<time>2020-09-10T13:40:37Z</time>
</trkpt>
<trkpt lat="48.377762" lon="10.442719">
<ele>452.007</ele>
<time>2020-09-10T13:40:38Z</time>
</trkpt>
<trkpt lat="48.377724" lon="10.442767">
<ele>452.027</ele>
<time>2020-09-10T13:40:39Z</time>
</trkpt>
<trkpt lat="48.377686" lon="10.44282">
<ele>452.052</ele>
<time>2020-09-10T13:40:40Z</time>
</trkpt>
<trkpt lat="48.377651" lon="10.442875">
<ele>452.052</ele>
<time>2020-09-10T13:40:41Z</time>
</trkpt>
<trkpt lat="48.377613" lon="10.442926">
<ele>452.052</ele>
<time>2020-09-10T13:40:42Z</time>
</trkpt>
<trkpt lat="48.377571" lon="10.442971">
<ele>452.052</ele>
<time>2020-09-10T13:40:43Z</time>
</trkpt>
<trkpt lat="48.377525" lon="10.443013">
<ele>452.052</ele>
<time>2020-09-10T13:40:44Z</time>
</trkpt>
<trkpt lat="48.377487" lon="10.443061">
<ele>452.052</ele>
<time>2020-09-10T13:40:45Z</time>
</trkpt>
<trkpt lat="48.377441" lon="10.4431">
<ele>452.052</ele>
<time>2020-09-10T13:40:46Z</time>
</trkpt>
<trkpt lat="48.377399" lon="10.443138">
<ele>452.052</ele>
<time>2020-09-10T13:40:47Z</time>
</trkpt>
<trkpt lat="48.377357" lon="10.44317">
<ele>452.052</ele>
<time>2020-09-10T13:40:48Z</time>
</trkpt>
<trkpt lat="48.377316" lon="10.443207">
<ele>452.052</ele>
<time>2020-09-10T13:40:49Z</time>
</trkpt>
<trkpt lat="48.377277" lon="10.443254">
<ele>452.052</ele>
<time>2020-09-10T13:40:50Z</time>
</trkpt>
<trkpt lat="48.377235" lon="10.4433">
<ele>452.052</ele>
<time>2020-09-10T13:40:51Z</time>
</trkpt>
<trkpt lat="48.377193" lon="10.443352">
<ele>452.052</ele>
<time>2020-09-10T13:40:52Z</time>
</trkpt>
<trkpt lat="48.377148" lon="10.443397">
<ele>452.052</ele>
<time>2020-09-10T13:40:53Z</time>
</trkpt>
<trkpt lat="48.377106" lon="10.443446">
<ele>452.052</ele>
<time>2020-09-10T13:40:54Z</time>
</trkpt>
<trkpt lat="48.377064" lon="10.443492">
<ele>452.052</ele>
<time>2020-09-10T13:40:55Z</time>
</trkpt>
<trkpt lat="48.377018" lon="10.443542">
<ele>452.052</ele>
<time>2020-09-10T13:40:56Z</time>
</trkpt>
<trkpt lat="48.376972" lon="10.443588">
<ele>452.052</ele>
<time>2020-09-10T13:40:57Z</time>
</trkpt>
<trkpt lat="48.376926" lon="10.443631">
<ele>452.142</ele>
<time>2020-09-10T13:40:58Z</time>
</trkpt>
<trkpt lat="48.376877" lon="10.443688">
<ele>452.442</ele>
<time>2020-09-10T13:40:59Z</time>
</trkpt>
<trkpt lat="48.376835" lon="10.443733">
<ele>452.663</ele>
<time>2020-09-10T13:41:00Z</time>
</trkpt>
<trkpt lat="48.376781" lon="10.443778">
<ele>452.836</ele>
<time>2020-09-10T13:41:01Z</time>
</trkpt>
<trkpt lat="48.376728" lon="10.44382">
<ele>452.969</ele>
<time>2020-09-10T13:41:02Z</time>
</trkpt>
<trkpt lat="48.376678" lon="10.443861">
<ele>453.064</ele>
<time>2020-09-10T13:41:03Z</time>
</trkpt>
<trkpt lat="48.376637" lon="10.4439">
<ele>453.122</ele>
<time>2020-09-10T13:41:04Z</time>
</trkpt>
<trkpt lat="48.376591" lon="10.443934">
<ele>453.154</ele>
<time>2020-09-10T13:41:05Z</time>
</trkpt>
<trkpt lat="48.376545" lon="10.443974">
<ele>453.18</ele>
<time>2020-09-10T13:41:06Z</time>
</trkpt>
<trkpt lat="48.376503" lon="10.444016">
<ele>453.18</ele>
<time>2020-09-10T13:41:07Z</time>
</trkpt>
<trkpt lat="48.37645" lon="10.444043">
<ele>453.18</ele>
<time>2020-09-10T13:41:08Z</time>
</trkpt>
<trkpt lat="48.376396" lon="10.444088">
<ele>453.18</ele>
<time>2020-09-10T13:41:09Z</time>
</trkpt>
<trkpt lat="48.376347" lon="10.444128">
<ele>453.18</ele>
<time>2020-09-10T13:41:10Z</time>
</trkpt>
<trkpt lat="48.376297" lon="10.444161">
<ele>453.18</ele>
<time>2020-09-10T13:41:11Z</time>
</trkpt>
<trkpt lat="48.376244" lon="10.444192">
<ele>453.18</ele>
<time>2020-09-10T13:41:12Z</time>
</trkpt>
<trkpt lat="48.37619" lon="10.444221">
<ele>453.18</ele>
<time>2020-09-10T13:41:13Z</time>
</trkpt>
<trkpt lat="48.376133" lon="10.444248">
<ele>453.18</ele>
<time>2020-09-10T13:41:14Z</time>
</trkpt>
<trkpt lat="48.37608" lon="10.444277">
<ele>453.18</ele>
<time>2020-09-10T13:41:15Z</time>
</trkpt>
<trkpt lat="48.376019" lon="10.444291">
<ele>453.18</ele>
<time>2020-09-10T13:41:16Z</time>
</trkpt>
<trkpt lat="48.375961" lon="10.444297">
<ele>453.18</ele>
<time>2020-09-10T13:41:17Z</time>
</trkpt>
<trkpt lat="48.375904" lon="10.444318">
<ele>453.18</ele>
<time>2020-09-10T13:41:18Z</time>
</trkpt>
<trkpt lat="48.375847" lon="10.444337">
<ele>453.18</ele>
<time>2020-09-10T13:41:19Z</time>
</trkpt>
<trkpt lat="48.37579" lon="10.444357">
<ele>453.18</ele>
<time>2020-09-10T13:41:20Z</time>
</trkpt>
<trkpt lat="48.375729" lon="10.444375">
<ele>453.18</ele>
<time>2020-09-10T13:41:21Z</time>
</trkpt>
<trkpt lat="48.375675" lon="10.444393">
<ele>453.18</ele>
<time>2020-09-10T13:41:22Z</time>
</trkpt>
<trkpt lat="48.375622" lon="10.444415">
<ele>453.18</ele>
<time>2020-09-10T13:41:23Z</time>
</trkpt>
<trkpt lat="48.375572" lon="10.44445">
<ele>453.18</ele>
<time>2020-09-10T13:41:24Z</time>
</trkpt>
<trkpt lat="48.375534" lon="10.444509">
<ele>453.18</ele>
<time>2020-09-10T13:41:25Z</time>
</trkpt>
<trkpt lat="48.375507" lon="10.444587">
<ele>453.18</ele>
<time>2020-09-10T13:41:26Z</time>
</trkpt>
<trkpt lat="48.375481" lon="10.444655">
<ele>453.408</ele>
<time>2020-09-10T13:41:27Z</time>
</trkpt>
<trkpt lat="48.375435" lon="10.444705">
<ele>453.602</ele>
<time>2020-09-10T13:41:28Z</time>
</trkpt>
<trkpt lat="48.375385" lon="10.444733">
<ele>453.649</ele>
<time>2020-09-10T13:41:29Z</time>
</trkpt>
<trkpt lat="48.375332" lon="10.444747">
<ele>453.54</ele>
<time>2020-09-10T13:41:30Z</time>
</trkpt>
<trkpt lat="48.375282" lon="10.444777">
<ele>453.444</ele>
<time>2020-09-10T13:41:31Z</time>
</trkpt>
<trkpt lat="48.375225" lon="10.444796">
<ele>453.36</ele>
<time>2020-09-10T13:41:32Z</time>
</trkpt>
<trkpt lat="48.375164" lon="10.44481">
<ele>453.31</ele>
<time>2020-09-10T13:41:33Z</time>
</trkpt>
<trkpt lat="48.375107" lon="10.444823">
<ele>453.172</ele>
<time>2020-09-10T13:41:34Z</time>
</trkpt>
<trkpt lat="48.375046" lon="10.444837">
<ele>453.054</ele>
<time>2020-09-10T13:41:35Z</time>
</trkpt>
<trkpt lat="48.374985" lon="10.444852">
<ele>453.223</ele>
<time>2020-09-10T13:41:36Z</time>
</trkpt>
<trkpt lat="48.374931" lon="10.444863">
<ele>453.165</ele>
<time>2020-09-10T13:41:37Z</time>
</trkpt>
<trkpt lat="48.37487" lon="10.444869">
<ele>453.174</ele>
<time>2020-09-10T13:41:38Z</time>
</trkpt>
<trkpt lat="48.374802" lon="10.444875">
<ele>453.419</ele>
<time>2020-09-10T13:41:39Z</time>
</trkpt>
<trkpt lat="48.374737" lon="10.444879">
<ele>453.605</ele>
<time>2020-09-10T13:41:40Z</time>
</trkpt>
<trkpt lat="48.374676" lon="10.444879">
<ele>453.744</ele>
<time>2020-09-10T13:41:41Z</time>
</trkpt>
<trkpt lat="48.374619" lon="10.444879">
<ele>453.852</ele>
<time>2020-09-10T13:41:42Z</time>
</trkpt>
<trkpt lat="48.374554" lon="10.444883">
<ele>453.942</ele>
<time>2020-09-10T13:41:43Z</time>
</trkpt>
<trkpt lat="48.3745" lon="10.444883">
<ele>453.997</ele>
<time>2020-09-10T13:41:44Z</time>
</trkpt>
<trkpt lat="48.374447" lon="10.444883">
<ele>454.047</ele>
<time>2020-09-10T13:41:45Z</time>
</trkpt>
<trkpt lat="48.374386" lon="10.444885">
<ele>454.047</ele>
<time>2020-09-10T13:41:46Z</time>
</trkpt>
<trkpt lat="48.374321" lon="10.444886">
<ele>454.047</ele>
<time>2020-09-10T13:41:47Z</time>
</trkpt>
<trkpt lat="48.374264" lon="10.444881">
<ele>454.047</ele>
<time>2020-09-10T13:41:48Z</time>
</trkpt>
<trkpt lat="48.374207" lon="10.444863">
<ele>454.047</ele>
<time>2020-09-10T13:41:49Z</time>
</trkpt>
<trkpt lat="48.374146" lon="10.444854">
<ele>454.047</ele>
<time>2020-09-10T13:41:50Z</time>
</trkpt>
<trkpt lat="48.374092" lon="10.444848">
<ele>454.047</ele>
<time>2020-09-10T13:41:51Z</time>
</trkpt>
<trkpt lat="48.374043" lon="10.444839">
<ele>454.319</ele>
<time>2020-09-10T13:41:52Z</time>
</trkpt>
<trkpt lat="48.373985" lon="10.444838">
<ele>454.501</ele>
<time>2020-09-10T13:41:53Z</time>
</trkpt>
<trkpt lat="48.373932" lon="10.444837">
<ele>454.693</ele>
<time>2020-09-10T13:41:54Z</time>
</trkpt>
<trkpt lat="48.373875" lon="10.444838">
<ele>454.622</ele>
<time>2020-09-10T13:41:55Z</time>
</trkpt>
<trkpt lat="48.373825" lon="10.444841">
<ele>454.752</ele>
<time>2020-09-10T13:41:56Z</time>
</trkpt>
<trkpt lat="48.373768" lon="10.444845">
<ele>454.884</ele>
<time>2020-09-10T13:41:57Z</time>
</trkpt>
<trkpt lat="48.373711" lon="10.444843">
<ele>454.971</ele>
<time>2020-09-10T13:41:58Z</time>
</trkpt>
<trkpt lat="48.373642" lon="10.444837">
<ele>454.868</ele>
<time>2020-09-10T13:41:59Z</time>
</trkpt>
<trkpt lat="48.373596" lon="10.44483">
<ele>455.075</ele>
<time>2020-09-10T13:42:00Z</time>
</trkpt>
<trkpt lat="48.373547" lon="10.444823">
<ele>455.16</ele>
<time>2020-09-10T13:42:01Z</time>
</trkpt>
<trkpt lat="48.373497" lon="10.444827">
<ele>455.202</ele>
<time>2020-09-10T13:42:02Z</time>
</trkpt>
<trkpt lat="48.373444" lon="10.444827">
<ele>455.367</ele>
<time>2020-09-10T13:42:03Z</time>
</trkpt>
<trkpt lat="48.373398" lon="10.444825">
<ele>455.498</ele>
<time>2020-09-10T13:42:04Z</time>
</trkpt>
<trkpt lat="48.373348" lon="10.444827">
<ele>455.709</ele>
<time>2020-09-10T13:42:05Z</time>
</trkpt>
<trkpt lat="48.373299" lon="10.444832">
<ele>455.763</ele>
<time>2020-09-10T13:42:06Z</time>
</trkpt>
<trkpt lat="48.373241" lon="10.444832">
<ele>455.803</ele>
<time>2020-09-10T13:42:07Z</time>
</trkpt>
<trkpt lat="48.373184" lon="10.444821">
<ele>455.835</ele>
<time>2020-09-10T13:42:08Z</time>
</trkpt>
<trkpt lat="48.373131" lon="10.444812">
<ele>455.858</ele>
<time>2020-09-10T13:42:09Z</time>
</trkpt>
<trkpt lat="48.37307" lon="10.444808">
<ele>455.869</ele>
<time>2020-09-10T13:42:10Z</time>
</trkpt>
<trkpt lat="48.373001" lon="10.444813">
<ele>455.869</ele>
<time>2020-09-10T13:42:11Z</time>
</trkpt>
<trkpt lat="48.372932" lon="10.44482">
<ele>455.845</ele>
<time>2020-09-10T13:42:12Z</time>
</trkpt>
<trkpt lat="48.372864" lon="10.444817">
<ele>455.627</ele>
<time>2020-09-10T13:42:13Z</time>
</trkpt>
<trkpt lat="48.372795" lon="10.444818">
<ele>455.31</ele>
<time>2020-09-10T13:42:14Z</time>
</trkpt>
<trkpt lat="48.37273" lon="10.444823">
<ele>455.075</ele>
<time>2020-09-10T13:42:15Z</time>
</trkpt>
<trkpt lat="48.372662" lon="10.444838">
<ele>454.912</ele>
<time>2020-09-10T13:42:16Z</time>
</trkpt>
<trkpt lat="48.372597" lon="10.44485">
<ele>454.746</ele>
<time>2020-09-10T13:42:17Z</time>
</trkpt>
<trkpt lat="48.372524" lon="10.444869">
<ele>454.634</ele>
<time>2020-09-10T13:42:18Z</time>
</trkpt>
<trkpt lat="48.37244" lon="10.444899">
<ele>454.556</ele>
<time>2020-09-10T13:42:19Z</time>
</trkpt>
<trkpt lat="48.372372" lon="10.444917">
<ele>454.481</ele>
<time>2020-09-10T13:42:20Z</time>
</trkpt>
<trkpt lat="48.372307" lon="10.444928">
<ele>454.481</ele>
<time>2020-09-10T13:42:21Z</time>
</trkpt>
<trkpt lat="48.372238" lon="10.444937">
<ele>454.481</ele>
<time>2020-09-10T13:42:22Z</time>
</trkpt>
<trkpt lat="48.372177" lon="10.444942">
<ele>454.481</ele>
<time>2020-09-10T13:42:23Z</time>
</trkpt>
<trkpt lat="48.37212" lon="10.444946">
<ele>454.481</ele>
<time>2020-09-10T13:42:24Z</time>
</trkpt>
<trkpt lat="48.372059" lon="10.444959">
<ele>454.481</ele>
<time>2020-09-10T13:42:25Z</time>
</trkpt>
<trkpt lat="48.37199" lon="10.444968">
<ele>454.481</ele>
<time>2020-09-10T13:42:26Z</time>
</trkpt>
<trkpt lat="48.371925" lon="10.44498">
<ele>454.481</ele>
<time>2020-09-10T13:42:27Z</time>
</trkpt>
<trkpt lat="48.371864" lon="10.44499">
<ele>454.481</ele>
<time>2020-09-10T13:42:28Z</time>
</trkpt>
<trkpt lat="48.371803" lon="10.445022">
<ele>454.481</ele>
<time>2020-09-10T13:42:29Z</time>
</trkpt>
<trkpt lat="48.371754" lon="10.445045">
<ele>454.481</ele>
<time>2020-09-10T13:42:30Z</time>
</trkpt>
<trkpt lat="48.3717" lon="10.445058">
<ele>454.806</ele>
<time>2020-09-10T13:42:31Z</time>
</trkpt>
<trkpt lat="48.371647" lon="10.445074">
<ele>455.058</ele>
<time>2020-09-10T13:42:32Z</time>
</trkpt>
<trkpt lat="48.37159" lon="10.445086">
<ele>455.21</ele>
<time>2020-09-10T13:42:33Z</time>
</trkpt>
<trkpt lat="48.371532" lon="10.445106">
<ele>455.322</ele>
<time>2020-09-10T13:42:34Z</time>
</trkpt>
<trkpt lat="48.371479" lon="10.445118">
<ele>455.404</ele>
<time>2020-09-10T13:42:35Z</time>
</trkpt>
<trkpt lat="48.371429" lon="10.445125">
<ele>455.478</ele>
<time>2020-09-10T13:42:36Z</time>
</trkpt>
<trkpt lat="48.371384" lon="10.445135">
<ele>455.523</ele>
<time>2020-09-10T13:42:37Z</time>
</trkpt>
<trkpt lat="48.371334" lon="10.44514">
<ele>455.55</ele>
<time>2020-09-10T13:42:38Z</time>
</trkpt>
<trkpt lat="48.371273" lon="10.445151">
<ele>455.564</ele>
<time>2020-09-10T13:42:39Z</time>
</trkpt>
<trkpt lat="48.37122" lon="10.44517">
<ele>455.852</ele>
<time>2020-09-10T13:42:40Z</time>
</trkpt>
<trkpt lat="48.371162" lon="10.445195">
<ele>456.086</ele>
<time>2020-09-10T13:42:41Z</time>
</trkpt>
<trkpt lat="48.371098" lon="10.445227">
<ele>456.267</ele>
<time>2020-09-10T13:42:42Z</time>
</trkpt>
<trkpt lat="48.371048" lon="10.445256">
<ele>456.406</ele>
<time>2020-09-10T13:42:43Z</time>
</trkpt>
<trkpt lat="48.370998" lon="10.445282">
<ele>456.49</ele>
<time>2020-09-10T13:42:44Z</time>
</trkpt>
<trkpt lat="48.370945" lon="10.445309">
<ele>456.808</ele>
<time>2020-09-10T13:42:45Z</time>
</trkpt>
<trkpt lat="48.370899" lon="10.445334">
<ele>456.864</ele>
<time>2020-09-10T13:42:46Z</time>
</trkpt>
<trkpt lat="48.37085" lon="10.445363">
<ele>456.917</ele>
<time>2020-09-10T13:42:47Z</time>
</trkpt>
<trkpt lat="48.3708" lon="10.445395">
<ele>457.04</ele>
<time>2020-09-10T13:42:48Z</time>
</trkpt>
<trkpt lat="48.370743" lon="10.445449">
<ele>457.236</ele>
<time>2020-09-10T13:42:49Z</time>
</trkpt>
<trkpt lat="48.370701" lon="10.445481">
<ele>457.192</ele>
<time>2020-09-10T13:42:50Z</time>
</trkpt>
<trkpt lat="48.370644" lon="10.445529">
<ele>457.306</ele>
<time>2020-09-10T13:42:51Z</time>
</trkpt>
<trkpt lat="48.370602" lon="10.445566">
<ele>457.516</ele>
<time>2020-09-10T13:42:52Z</time>
</trkpt>
<trkpt lat="48.370552" lon="10.445601">
<ele>457.436</ele>
<time>2020-09-10T13:42:53Z</time>
</trkpt>
<trkpt lat="48.37051" lon="10.44563">
<ele>457.557</ele>
<time>2020-09-10T13:42:54Z</time>
</trkpt>
<trkpt lat="48.370461" lon="10.445667">
<ele>457.656</ele>
<time>2020-09-10T13:42:55Z</time>
</trkpt>
<trkpt lat="48.370415" lon="10.445695">
<ele>457.518</ele>
<time>2020-09-10T13:42:56Z</time>
</trkpt>
<trkpt lat="48.370361" lon="10.445718">
<ele>457.492</ele>
<time>2020-09-10T13:42:57Z</time>
</trkpt>
<trkpt lat="48.370304" lon="10.445742">
<ele>457.339</ele>
<time>2020-09-10T13:42:58Z</time>
</trkpt>
<trkpt lat="48.370251" lon="10.445776">
<ele>457.228</ele>
<time>2020-09-10T13:42:59Z</time>
</trkpt>
<trkpt lat="48.370193" lon="10.445816">
<ele>457.121</ele>
<time>2020-09-10T13:43:00Z</time>
</trkpt>
<trkpt lat="48.370136" lon="10.445855">
<ele>457.032</ele>
<time>2020-09-10T13:43:01Z</time>
</trkpt>
<trkpt lat="48.370075" lon="10.445902">
<ele>456.957</ele>
<time>2020-09-10T13:43:02Z</time>
</trkpt>
<trkpt lat="48.37001" lon="10.445942">
<ele>456.932</ele>
<time>2020-09-10T13:43:03Z</time>
</trkpt>
<trkpt lat="48.369946" lon="10.445985">
<ele>456.91</ele>
<time>2020-09-10T13:43:04Z</time>
</trkpt>
<trkpt lat="48.369881" lon="10.446027">
<ele>456.844</ele>
<time>2020-09-10T13:43:05Z</time>
</trkpt>
<trkpt lat="48.369823" lon="10.446068">
<ele>456.578</ele>
<time>2020-09-10T13:43:06Z</time>
</trkpt>
<trkpt lat="48.36977" lon="10.446105">
<ele>456.567</ele>
<time>2020-09-10T13:43:07Z</time>
</trkpt>
<trkpt lat="48.369717" lon="10.446126">
<ele>456.56</ele>
<time>2020-09-10T13:43:08Z</time>
</trkpt>
<trkpt lat="48.369659" lon="10.446157">
<ele>456.559</ele>
<time>2020-09-10T13:43:09Z</time>
</trkpt>
<trkpt lat="48.369598" lon="10.446189">
<ele>456.467</ele>
<time>2020-09-10T13:43:10Z</time>
</trkpt>
<trkpt lat="48.369541" lon="10.446223">
<ele>456.464</ele>
<time>2020-09-10T13:43:11Z</time>
</trkpt>
<trkpt lat="48.369484" lon="10.446264">
<ele>456.603</ele>
<time>2020-09-10T13:43:12Z</time>
</trkpt>
<trkpt lat="48.369434" lon="10.446303">
<ele>456.725</ele>
<time>2020-09-10T13:43:13Z</time>
</trkpt>
<trkpt lat="48.369385" lon="10.446327">
<ele>456.806</ele>
<time>2020-09-10T13:43:14Z</time>
</trkpt>
<trkpt lat="48.369335" lon="10.446348">
<ele>456.863</ele>
<time>2020-09-10T13:43:15Z</time>
</trkpt>
<trkpt lat="48.369286" lon="10.446382">
<ele>456.887</ele>
<time>2020-09-10T13:43:16Z</time>
</trkpt>
<trkpt lat="48.36924" lon="10.446413">
<ele>456.901</ele>
<time>2020-09-10T13:43:17Z</time>
</trkpt>
<trkpt lat="48.369183" lon="10.446448">
<ele>456.909</ele>
<time>2020-09-10T13:43:18Z</time>
</trkpt>
<trkpt lat="48.369118" lon="10.446495">
<ele>456.91</ele>
<time>2020-09-10T13:43:19Z</time>
</trkpt>
<trkpt lat="48.369061" lon="10.446535">
<ele>456.91</ele>
<time>2020-09-10T13:43:20Z</time>
</trkpt>
<trkpt lat="48.369011" lon="10.446573">
<ele>456.91</ele>
<time>2020-09-10T13:43:21Z</time>
</trkpt>
<trkpt lat="48.368961" lon="10.446597">
<ele>456.91</ele>
<time>2020-09-10T13:43:22Z</time>
</trkpt>
<trkpt lat="48.368908" lon="10.446616">
<ele>456.91</ele>
<time>2020-09-10T13:43:23Z</time>
</trkpt>
<trkpt lat="48.368855" lon="10.446631">
<ele>456.91</ele>
<time>2020-09-10T13:43:24Z</time>
</trkpt>
<trkpt lat="48.368805" lon="10.446644">
<ele>456.91</ele>
<time>2020-09-10T13:43:25Z</time>
</trkpt>
<trkpt lat="48.368748" lon="10.446651">
<ele>456.91</ele>
<time>2020-09-10T13:43:26Z</time>
</trkpt>
<trkpt lat="48.368698" lon="10.446669">
<ele>456.91</ele>
<time>2020-09-10T13:43:27Z</time>
</trkpt>
<trkpt lat="48.368649" lon="10.446683">
<ele>456.91</ele>
<time>2020-09-10T13:43:28Z</time>
</trkpt>
<trkpt lat="48.368587" lon="10.446695">
<ele>456.91</ele>
<time>2020-09-10T13:43:29Z</time>
</trkpt>
<trkpt lat="48.36853" lon="10.446715">
<ele>456.91</ele>
<time>2020-09-10T13:43:30Z</time>
</trkpt>
<trkpt lat="48.368469" lon="10.446742">
<ele>456.91</ele>
<time>2020-09-10T13:43:31Z</time>
</trkpt>
<trkpt lat="48.368412" lon="10.446767">
<ele>456.91</ele>
<time>2020-09-10T13:43:32Z</time>
</trkpt>
<trkpt lat="48.368359" lon="10.44678">
<ele>456.91</ele>
<time>2020-09-10T13:43:33Z</time>
</trkpt>
<trkpt lat="48.368301" lon="10.44679">
<ele>456.91</ele>
<time>2020-09-10T13:43:34Z</time>
</trkpt>
<trkpt lat="48.368248" lon="10.446798">
<ele>456.914</ele>
<time>2020-09-10T13:43:35Z</time>
</trkpt>
<trkpt lat="48.36821" lon="10.446825">
<ele>456.91</ele>
<time>2020-09-10T13:43:36Z</time>
</trkpt>
<trkpt lat="48.368172" lon="10.446852">
<ele>456.91</ele>
<time>2020-09-10T13:43:37Z</time>
</trkpt>
<trkpt lat="48.368149" lon="10.446872">
<ele>456.91</ele>
<time>2020-09-10T13:43:38Z</time>
</trkpt>
<trkpt lat="48.368126" lon="10.44688">
<ele>456.91</ele>
<time>2020-09-10T13:43:39Z</time>
</trkpt>
<trkpt lat="48.368107" lon="10.446901">
<ele>457.046</ele>
<time>2020-09-10T13:43:40Z</time>
</trkpt>
<trkpt lat="48.368088" lon="10.446914">
<ele>457.234</ele>
<time>2020-09-10T13:43:41Z</time>
</trkpt>
<trkpt lat="48.368076" lon="10.44693">
<ele>457.381</ele>
<time>2020-09-10T13:43:42Z</time>
</trkpt>
<trkpt lat="48.368073" lon="10.446959">
<ele>457.502</ele>
<time>2020-09-10T13:43:43Z</time>
</trkpt>
<trkpt lat="48.368065" lon="10.446995">
<ele>457.595</ele>
<time>2020-09-10T13:43:44Z</time>
</trkpt>
<trkpt lat="48.368038" lon="10.44703">
<ele>457.689</ele>
<time>2020-09-10T13:43:45Z</time>
</trkpt>
<trkpt lat="48.368004" lon="10.447066">
<ele>457.773</ele>
<time>2020-09-10T13:43:46Z</time>
</trkpt>
<trkpt lat="48.367966" lon="10.447087">
<ele>457.64</ele>
<time>2020-09-10T13:43:47Z</time>
</trkpt>
<trkpt lat="48.367931" lon="10.447097">
<ele>457.505</ele>
<time>2020-09-10T13:43:48Z</time>
</trkpt>
<trkpt lat="48.367893" lon="10.447119">
<ele>457.688</ele>
<time>2020-09-10T13:43:49Z</time>
</trkpt>
<trkpt lat="48.367859" lon="10.447135">
<ele>457.969</ele>
<time>2020-09-10T13:43:50Z</time>
</trkpt>
<trkpt lat="48.367817" lon="10.447159">
<ele>458.152</ele>
<time>2020-09-10T13:43:51Z</time>
</trkpt>
<trkpt lat="48.367783" lon="10.447175">
<ele>458.022</ele>
<time>2020-09-10T13:43:52Z</time>
</trkpt>
<trkpt lat="48.367748" lon="10.447184">
<ele>458.16</ele>
<time>2020-09-10T13:43:53Z</time>
</trkpt>
<trkpt lat="48.367714" lon="10.44719">
<ele>458.264</ele>
<time>2020-09-10T13:43:54Z</time>
</trkpt>
<trkpt lat="48.367672" lon="10.447202">
<ele>458.347</ele>
<time>2020-09-10T13:43:55Z</time>
</trkpt>
<trkpt lat="48.36763" lon="10.447217">
<ele>458.385</ele>
<time>2020-09-10T13:43:56Z</time>
</trkpt>
<trkpt lat="48.367584" lon="10.447227">
<ele>458.26</ele>
<time>2020-09-10T13:43:57Z</time>
</trkpt>
<trkpt lat="48.367538" lon="10.447228">
<ele>458.424</ele>
<time>2020-09-10T13:43:58Z</time>
</trkpt>
<trkpt lat="48.367493" lon="10.447233">
<ele>458.494</ele>
<time>2020-09-10T13:43:59Z</time>
</trkpt>
<trkpt lat="48.367435" lon="10.44724">
<ele>458.553</ele>
<time>2020-09-10T13:44:00Z</time>
</trkpt>
<trkpt lat="48.367382" lon="10.447248">
<ele>458.578</ele>
<time>2020-09-10T13:44:01Z</time>
</trkpt>
<trkpt lat="48.366726" lon="10.44712">
<ele>459.071</ele>
<time>2020-09-10T13:44:13Z</time>
</trkpt>
<trkpt lat="48.366669" lon="10.447104">
<ele>459.226</ele>
<time>2020-09-10T13:44:14Z</time>
</trkpt>
<trkpt lat="48.366615" lon="10.447092">
<ele>459.311</ele>
<time>2020-09-10T13:44:15Z</time>
</trkpt>
<trkpt lat="48.366566" lon="10.447085">
<ele>459.36</ele>
<time>2020-09-10T13:44:16Z</time>
</trkpt>
<trkpt lat="48.366512" lon="10.447077">
<ele>459.17</ele>
<time>2020-09-10T13:44:17Z</time>
</trkpt>
<trkpt lat="48.366467" lon="10.447062">
<ele>459.386</ele>
<time>2020-09-10T13:44:18Z</time>
</trkpt>
<trkpt lat="48.366428" lon="10.447046">
<ele>459.204</ele>
<time>2020-09-10T13:44:19Z</time>
</trkpt>
<trkpt lat="48.366375" lon="10.447045">
<ele>459.066</ele>
<time>2020-09-10T13:44:20Z</time>
</trkpt>
<trkpt lat="48.366325" lon="10.447043">
<ele>458.975</ele>
<time>2020-09-10T13:44:21Z</time>
</trkpt>
<trkpt lat="48.366268" lon="10.447046">
<ele>458.673</ele>
<time>2020-09-10T13:44:22Z</time>
</trkpt>
<trkpt lat="48.366215" lon="10.447052">
<ele>458.555</ele>
<time>2020-09-10T13:44:23Z</time>
</trkpt>
<trkpt lat="48.366161" lon="10.447062">
<ele>458.473</ele>
<time>2020-09-10T13:44:24Z</time>
</trkpt>
<trkpt lat="48.366108" lon="10.44707">
<ele>458.42</ele>
<time>2020-09-10T13:44:25Z</time>
</trkpt>
<trkpt lat="48.366043" lon="10.447071">
<ele>458.375</ele>
<time>2020-09-10T13:44:26Z</time>
</trkpt>
<trkpt lat="48.365982" lon="10.447079">
<ele>458.377</ele>
<time>2020-09-10T13:44:27Z</time>
</trkpt>
<trkpt lat="48.365921" lon="10.44709">
<ele>458.378</ele>
<time>2020-09-10T13:44:28Z</time>
</trkpt>
<trkpt lat="48.36586" lon="10.447104">
<ele>458.381</ele>
<time>2020-09-10T13:44:29Z</time>
</trkpt>
<trkpt lat="48.365795" lon="10.447125">
<ele>458.383</ele>
<time>2020-09-10T13:44:30Z</time>
</trkpt>
<trkpt lat="48.365723" lon="10.447155">
<ele>458.385</ele>
<time>2020-09-10T13:44:31Z</time>
</trkpt>
<trkpt lat="48.365658" lon="10.447185">
<ele>458.41</ele>
<time>2020-09-10T13:44:32Z</time>
</trkpt>
<trkpt lat="48.365589" lon="10.447224">
<ele>458.41</ele>
<time>2020-09-10T13:44:33Z</time>
</trkpt>
<trkpt lat="48.365524" lon="10.44726">
<ele>458.167</ele>
<time>2020-09-10T13:44:34Z</time>
</trkpt>
<trkpt lat="48.365456" lon="10.447293">
<ele>458.058</ele>
<time>2020-09-10T13:44:35Z</time>
</trkpt>
<trkpt lat="48.365383" lon="10.447325">
<ele>457.978</ele>
<time>2020-09-10T13:44:36Z</time>
</trkpt>
<trkpt lat="48.365307" lon="10.447351">
<ele>457.679</ele>
<time>2020-09-10T13:44:37Z</time>
</trkpt>
<trkpt lat="48.365234" lon="10.447385">
<ele>457.459</ele>
<time>2020-09-10T13:44:38Z</time>
</trkpt>
<trkpt lat="48.365166" lon="10.447446">
<ele>457.292</ele>
<time>2020-09-10T13:44:39Z</time>
</trkpt>
<trkpt lat="48.365097" lon="10.447488">
<ele>457.184</ele>
<time>2020-09-10T13:44:40Z</time>
</trkpt>
<trkpt lat="48.365032" lon="10.447516">
<ele>457.123</ele>
<time>2020-09-10T13:44:41Z</time>
</trkpt>
<trkpt lat="48.364975" lon="10.447549">
<ele>457.059</ele>
<time>2020-09-10T13:44:42Z</time>
</trkpt>
<trkpt lat="48.364918" lon="10.447585">
<ele>457.069</ele>
<time>2020-09-10T13:44:43Z</time>
</trkpt>
<trkpt lat="48.364853" lon="10.44761">
<ele>457.063</ele>
<time>2020-09-10T13:44:44Z</time>
</trkpt>
<trkpt lat="48.364792" lon="10.447637">
<ele>457.112</ele>
<time>2020-09-10T13:44:45Z</time>
</trkpt>
<trkpt lat="48.364723" lon="10.447674">
<ele>457.134</ele>
<time>2020-09-10T13:44:46Z</time>
</trkpt>
<trkpt lat="48.364655" lon="10.447705">
<ele>457.135</ele>
<time>2020-09-10T13:44:47Z</time>
</trkpt>
<trkpt lat="48.36459" lon="10.44773">
<ele>457.131</ele>
<time>2020-09-10T13:44:48Z</time>
</trkpt>
<trkpt lat="48.364521" lon="10.447782">
<ele>456.923</ele>
<time>2020-09-10T13:44:49Z</time>
</trkpt>
<trkpt lat="48.364468" lon="10.447838">
<ele>457.148</ele>
<time>2020-09-10T13:44:50Z</time>
</trkpt>
<trkpt lat="48.364407" lon="10.447886">
<ele>457.156</ele>
<time>2020-09-10T13:44:51Z</time>
</trkpt>
<trkpt lat="48.364342" lon="10.447926">
<ele>457.161</ele>
<time>2020-09-10T13:44:52Z</time>
</trkpt>
<trkpt lat="48.364285" lon="10.447955">
<ele>457.164</ele>
<time>2020-09-10T13:44:53Z</time>
</trkpt>
<trkpt lat="48.364227" lon="10.447985">
<ele>457.164</ele>
<time>2020-09-10T13:44:54Z</time>
</trkpt>
<trkpt lat="48.364162" lon="10.448015">
<ele>457.165</ele>
<time>2020-09-10T13:44:55Z</time>
</trkpt>
<trkpt lat="48.364105" lon="10.448047">
<ele>457.168</ele>
<time>2020-09-10T13:44:56Z</time>
</trkpt>
<trkpt lat="48.364044" lon="10.448081">
<ele>457.17</ele>
<time>2020-09-10T13:44:57Z</time>
</trkpt>
<trkpt lat="48.363991" lon="10.44811">
<ele>457.171</ele>
<time>2020-09-10T13:44:58Z</time>
</trkpt>
<trkpt lat="48.363941" lon="10.448142">
<ele>457.426</ele>
<time>2020-09-10T13:44:59Z</time>
</trkpt>
<trkpt lat="48.363892" lon="10.448192">
<ele>457.726</ele>
<time>2020-09-10T13:45:00Z</time>
</trkpt>
<trkpt lat="48.363831" lon="10.448232">
<ele>457.94</ele>
<time>2020-09-10T13:45:01Z</time>
</trkpt>
<trkpt lat="48.363777" lon="10.448269">
<ele>458.191</ele>
<time>2020-09-10T13:45:02Z</time>
</trkpt>
<trkpt lat="48.363716" lon="10.448297">
<ele>458.371</ele>
<time>2020-09-10T13:45:03Z</time>
</trkpt>
<trkpt lat="48.363663" lon="10.448319">
<ele>458.5</ele>
<time>2020-09-10T13:45:04Z</time>
</trkpt>
<trkpt lat="48.363598" lon="10.448349">
<ele>458.574</ele>
<time>2020-09-10T13:45:05Z</time>
</trkpt>
<trkpt lat="48.363533" lon="10.448379">
<ele>458.604</ele>
<time>2020-09-10T13:45:06Z</time>
</trkpt>
<trkpt lat="48.363472" lon="10.448385">
<ele>458.625</ele>
<time>2020-09-10T13:45:07Z</time>
</trkpt>
<trkpt lat="48.363407" lon="10.4484">
<ele>458.66</ele>
<time>2020-09-10T13:45:08Z</time>
</trkpt>
<trkpt lat="48.363335" lon="10.448424">
<ele>458.917</ele>
<time>2020-09-10T13:45:09Z</time>
</trkpt>
<trkpt lat="48.363262" lon="10.448448">
<ele>459.169</ele>
<time>2020-09-10T13:45:10Z</time>
</trkpt>
<trkpt lat="48.363209" lon="10.448466">
<ele>459.37</ele>
<time>2020-09-10T13:45:11Z</time>
</trkpt>
<trkpt lat="48.363152" lon="10.448487">
<ele>459.53</ele>
<time>2020-09-10T13:45:12Z</time>
</trkpt>
<trkpt lat="48.363094" lon="10.448498">
<ele>459.615</ele>
<time>2020-09-10T13:45:13Z</time>
</trkpt>
<trkpt lat="48.363045" lon="10.448512">
<ele>460</ele>
<time>2020-09-10T13:45:14Z</time>
</trkpt>
<trkpt lat="48.363003" lon="10.448522">
<ele>460.308</ele>
<time>2020-09-10T13:45:15Z</time>
</trkpt>
<trkpt lat="48.362953" lon="10.448533">
<ele>460.582</ele>
<time>2020-09-10T13:45:16Z</time>
</trkpt>
<trkpt lat="48.3629" lon="10.44855">
<ele>460.696</ele>
<time>2020-09-10T13:45:17Z</time>
</trkpt>
<trkpt lat="48.362846" lon="10.448563">
<ele>460.897</ele>
<time>2020-09-10T13:45:18Z</time>
</trkpt>
<trkpt lat="48.362782" lon="10.448586">
<ele>461.054</ele>
<time>2020-09-10T13:45:19Z</time>
</trkpt>
<trkpt lat="48.362728" lon="10.448619">
<ele>461.149</ele>
<time>2020-09-10T13:45:20Z</time>
</trkpt>
<trkpt lat="48.362667" lon="10.448631">
<ele>460.986</ele>
<time>2020-09-10T13:45:21Z</time>
</trkpt>
<trkpt lat="48.36261" lon="10.448648">
<ele>461.22</ele>
<time>2020-09-10T13:45:22Z</time>
</trkpt>
<trkpt lat="48.362556" lon="10.448655">
<ele>461.237</ele>
<time>2020-09-10T13:45:23Z</time>
</trkpt>
<trkpt lat="48.362495" lon="10.448657">
<ele>461.245</ele>
<time>2020-09-10T13:45:24Z</time>
</trkpt>
<trkpt lat="48.362442" lon="10.448659">
<ele>461.23</ele>
<time>2020-09-10T13:45:25Z</time>
</trkpt>
<trkpt lat="48.362385" lon="10.448667">
<ele>461.214</ele>
<time>2020-09-10T13:45:26Z</time>
</trkpt>
<trkpt lat="48.362328" lon="10.448659">
<ele>461.201</ele>
<time>2020-09-10T13:45:27Z</time>
</trkpt>
<trkpt lat="48.362274" lon="10.448667">
<ele>461.189</ele>
<time>2020-09-10T13:45:28Z</time>
</trkpt>
<trkpt lat="48.362221" lon="10.448669">
<ele>461.16</ele>
<time>2020-09-10T13:45:29Z</time>
</trkpt>
<trkpt lat="48.362179" lon="10.448667">
<ele>461.091</ele>
<time>2020-09-10T13:45:30Z</time>
</trkpt>
<trkpt lat="48.362118" lon="10.448673">
<ele>461.017</ele>
<time>2020-09-10T13:45:31Z</time>
</trkpt>
<trkpt lat="48.362057" lon="10.44868">
<ele>460.954</ele>
<time>2020-09-10T13:45:33Z</time>
</trkpt>
<trkpt lat="48.361938" lon="10.448709">
<ele>460.923</ele>
<time>2020-09-10T13:45:34Z</time>
</trkpt>
<trkpt lat="48.361877" lon="10.448715">
<ele>460.891</ele>
<time>2020-09-10T13:45:35Z</time>
</trkpt>
<trkpt lat="48.361809" lon="10.448722">
<ele>460.682</ele>
<time>2020-09-10T13:45:36Z</time>
</trkpt>
<trkpt lat="48.361748" lon="10.448724">
<ele>460.754</ele>
<time>2020-09-10T13:45:37Z</time>
</trkpt>
<trkpt lat="48.361694" lon="10.44873">
<ele>460.575</ele>
<time>2020-09-10T13:45:38Z</time>
</trkpt>
<trkpt lat="48.361641" lon="10.448751">
<ele>460.315</ele>
<time>2020-09-10T13:45:39Z</time>
</trkpt>
<trkpt lat="48.361584" lon="10.448773">
<ele>460.269</ele>
<time>2020-09-10T13:45:40Z</time>
</trkpt>
<trkpt lat="48.361526" lon="10.44878">
<ele>460.362</ele>
<time>2020-09-10T13:45:41Z</time>
</trkpt>
<trkpt lat="48.361473" lon="10.44878">
<ele>460.258</ele>
<time>2020-09-10T13:45:42Z</time>
</trkpt>
<trkpt lat="48.361416" lon="10.448787">
<ele>460.415</ele>
<time>2020-09-10T13:45:43Z</time>
</trkpt>
<trkpt lat="48.361355" lon="10.448789">
<ele>460.348</ele>
<time>2020-09-10T13:45:44Z</time>
</trkpt>
<trkpt lat="48.361298" lon="10.448798">
<ele>460.313</ele>
<time>2020-09-10T13:45:45Z</time>
</trkpt>
<trkpt lat="48.361252" lon="10.448833">
<ele>460.275</ele>
<time>2020-09-10T13:45:46Z</time>
</trkpt>
<trkpt lat="48.36121" lon="10.448876">
<ele>460.267</ele>
<time>2020-09-10T13:45:47Z</time>
</trkpt>
<trkpt lat="48.361179" lon="10.448923">
<ele>460.253</ele>
<time>2020-09-10T13:45:48Z</time>
</trkpt>
<trkpt lat="48.361153" lon="10.448981">
<ele>460.232</ele>
<time>2020-09-10T13:45:49Z</time>
</trkpt>
<trkpt lat="48.361134" lon="10.449043">
<ele>460.212</ele>
<time>2020-09-10T13:45:50Z</time>
</trkpt>
<trkpt lat="48.361118" lon="10.449108">
<ele>460.208</ele>
<time>2020-09-10T13:45:51Z</time>
</trkpt>
<trkpt lat="48.361103" lon="10.449166">
<ele>460.208</ele>
<time>2020-09-10T13:45:52Z</time>
</trkpt>
<trkpt lat="48.361088" lon="10.449214">
<ele>460.208</ele>
<time>2020-09-10T13:45:53Z</time>
</trkpt>
<trkpt lat="48.361069" lon="10.449239">
<ele>460.208</ele>
<time>2020-09-10T13:45:54Z</time>
</trkpt>
<trkpt lat="48.361046" lon="10.449248">
<ele>460.149</ele>
<time>2020-09-10T13:45:55Z</time>
</trkpt>
<trkpt lat="48.361019" lon="10.449266">
<ele>460.118</ele>
<time>2020-09-10T13:45:56Z</time>
</trkpt>
<trkpt lat="48.360996" lon="10.449235">
<ele>460.095</ele>
<time>2020-09-10T13:45:57Z</time>
</trkpt>
<trkpt lat="48.360985" lon="10.449193">
<ele>460.084</ele>
<time>2020-09-10T13:45:58Z</time>
</trkpt>
<trkpt lat="48.360962" lon="10.449141">
<ele>460.151</ele>
<time>2020-09-10T13:45:59Z</time>
</trkpt>
<trkpt lat="48.360954" lon="10.449086">
<ele>460.502</ele>
<time>2020-09-10T13:46:00Z</time>
</trkpt>
<trkpt lat="48.360943" lon="10.44903">
<ele>460.428</ele>
<time>2020-09-10T13:46:01Z</time>
</trkpt>
<trkpt lat="48.360928" lon="10.448963">
<ele>460.485</ele>
<time>2020-09-10T13:46:02Z</time>
</trkpt>
<trkpt lat="48.360909" lon="10.4489">
<ele>460.519</ele>
<time>2020-09-10T13:46:03Z</time>
</trkpt>
<trkpt lat="48.360882" lon="10.44885">
<ele>460.544</ele>
<time>2020-09-10T13:46:04Z</time>
</trkpt>
<trkpt lat="48.360844" lon="10.448813">
<ele>460.776</ele>
<time>2020-09-10T13:46:05Z</time>
</trkpt>
<trkpt lat="48.360794" lon="10.448793">
<ele>460.876</ele>
<time>2020-09-10T13:46:06Z</time>
</trkpt>
<trkpt lat="48.360737" lon="10.448782">
<ele>460.694</ele>
<time>2020-09-10T13:46:07Z</time>
</trkpt>
<trkpt lat="48.360687" lon="10.448773">
<ele>460.631</ele>
<time>2020-09-10T13:46:08Z</time>
</trkpt>
<trkpt lat="48.36063" lon="10.448778">
<ele>460.485</ele>
<time>2020-09-10T13:46:09Z</time>
</trkpt>
<trkpt lat="48.360584" lon="10.4488">
<ele>460.283</ele>
<time>2020-09-10T13:46:10Z</time>
</trkpt>
<trkpt lat="48.360535" lon="10.448807">
<ele>460.195</ele>
<time>2020-09-10T13:46:11Z</time>
</trkpt>
<trkpt lat="48.360489" lon="10.448813">
<ele>460.131</ele>
<time>2020-09-10T13:46:12Z</time>
</trkpt>
<trkpt lat="48.360439" lon="10.448797">
<ele>460.089</ele>
<time>2020-09-10T13:46:13Z</time>
</trkpt>
<trkpt lat="48.360394" lon="10.448789">
<ele>460.062</ele>
<time>2020-09-10T13:46:14Z</time>
</trkpt>
<trkpt lat="48.360344" lon="10.44878">
<ele>460.034</ele>
<time>2020-09-10T13:46:15Z</time>
</trkpt>
<trkpt lat="48.360283" lon="10.448773">
<ele>460.034</ele>
<time>2020-09-10T13:46:16Z</time>
</trkpt>
<trkpt lat="48.360241" lon="10.44875">
<ele>460.034</ele>
<time>2020-09-10T13:46:17Z</time>
</trkpt>
<trkpt lat="48.360188" lon="10.448732">
<ele>460.034</ele>
<time>2020-09-10T13:46:18Z</time>
</trkpt>
<trkpt lat="48.360138" lon="10.448689">
<ele>460.034</ele>
<time>2020-09-10T13:46:19Z</time>
</trkpt>
<trkpt lat="48.360077" lon="10.448678">
<ele>460.061</ele>
<time>2020-09-10T13:46:20Z</time>
</trkpt>
<trkpt lat="48.360012" lon="10.448682">
<ele>460.284</ele>
<time>2020-09-10T13:46:21Z</time>
</trkpt>
<trkpt lat="48.359959" lon="10.448684">
<ele>460.562</ele>
<time>2020-09-10T13:46:22Z</time>
</trkpt>
<trkpt lat="48.359909" lon="10.44868">
<ele>460.764</ele>
<time>2020-09-10T13:46:23Z</time>
</trkpt>
<trkpt lat="48.359856" lon="10.448689">
<ele>460.908</ele>
<time>2020-09-10T13:46:24Z</time>
</trkpt>
<trkpt lat="48.359806" lon="10.448692">
<ele>461.015</ele>
<time>2020-09-10T13:46:25Z</time>
</trkpt>
<trkpt lat="48.359756" lon="10.448689">
<ele>461.07</ele>
<time>2020-09-10T13:46:26Z</time>
</trkpt>
<trkpt lat="48.359695" lon="10.448684">
<ele>461.107</ele>
<time>2020-09-10T13:46:27Z</time>
</trkpt>
<trkpt lat="48.359638" lon="10.448692">
<ele>461.163</ele>
<time>2020-09-10T13:46:28Z</time>
</trkpt>
<trkpt lat="48.359581" lon="10.448709">
<ele>461.163</ele>
<time>2020-09-10T13:46:29Z</time>
</trkpt>
<trkpt lat="48.359524" lon="10.44872">
<ele>461.163</ele>
<time>2020-09-10T13:46:30Z</time>
</trkpt>
<trkpt lat="48.35947" lon="10.448733">
<ele>461.163</ele>
<time>2020-09-10T13:46:31Z</time>
</trkpt>
<trkpt lat="48.359417" lon="10.448749">
<ele>461.163</ele>
<time>2020-09-10T13:46:32Z</time>
</trkpt>
<trkpt lat="48.359364" lon="10.448764">
<ele>461.257</ele>
<time>2020-09-10T13:46:33Z</time>
</trkpt>
<trkpt lat="48.359314" lon="10.448769">
<ele>461.33</ele>
<time>2020-09-10T13:46:34Z</time>
</trkpt>
<trkpt lat="48.359261" lon="10.448778">
<ele>461.383</ele>
<time>2020-09-10T13:46:35Z</time>
</trkpt>
<trkpt lat="48.359207" lon="10.44878">
<ele>461.426</ele>
<time>2020-09-10T13:46:36Z</time>
</trkpt>
<trkpt lat="48.359161" lon="10.448769">
<ele>461.457</ele>
<time>2020-09-10T13:46:37Z</time>
</trkpt>
<trkpt lat="48.359112" lon="10.448766">
<ele>461.484</ele>
<time>2020-09-10T13:46:38Z</time>
</trkpt>
<trkpt lat="48.359062" lon="10.448738">
<ele>461.502</ele>
<time>2020-09-10T13:46:39Z</time>
</trkpt>
<trkpt lat="48.358997" lon="10.448741">
<ele>461.51</ele>
<time>2020-09-10T13:46:40Z</time>
</trkpt>
<trkpt lat="48.358936" lon="10.448745">
<ele>461.51</ele>
<time>2020-09-10T13:46:41Z</time>
</trkpt>
<trkpt lat="48.358879" lon="10.448757">
<ele>461.51</ele>
<time>2020-09-10T13:46:42Z</time>
</trkpt>
<trkpt lat="48.358826" lon="10.448769">
<ele>461.51</ele>
<time>2020-09-10T13:46:43Z</time>
</trkpt>
<trkpt lat="48.358772" lon="10.448782">
<ele>461.51</ele>
<time>2020-09-10T13:46:44Z</time>
</trkpt>
<trkpt lat="48.358723" lon="10.448798">
<ele>461.51</ele>
<time>2020-09-10T13:46:45Z</time>
</trkpt>
<trkpt lat="48.358662" lon="10.44882">
<ele>461.51</ele>
<time>2020-09-10T13:46:46Z</time>
</trkpt>
<trkpt lat="48.358608" lon="10.448839">
<ele>461.485</ele>
<time>2020-09-10T13:46:47Z</time>
</trkpt>
<trkpt lat="48.358555" lon="10.448852">
<ele>461.468</ele>
<time>2020-09-10T13:46:48Z</time>
</trkpt>
<trkpt lat="48.358501" lon="10.448871">
<ele>461.635</ele>
<time>2020-09-10T13:46:49Z</time>
</trkpt>
<trkpt lat="48.35844" lon="10.448888">
<ele>461.89</ele>
<time>2020-09-10T13:46:50Z</time>
</trkpt>
<trkpt lat="48.358383" lon="10.448913">
<ele>462.087</ele>
<time>2020-09-10T13:46:51Z</time>
</trkpt>
<trkpt lat="48.358322" lon="10.448936">
<ele>462.225</ele>
<time>2020-09-10T13:46:52Z</time>
</trkpt>
<trkpt lat="48.358261" lon="10.448958">
<ele>462.32</ele>
<time>2020-09-10T13:46:53Z</time>
</trkpt>
<trkpt lat="48.3582" lon="10.448981">
<ele>462.38</ele>
<time>2020-09-10T13:46:54Z</time>
</trkpt>
<trkpt lat="48.358131" lon="10.449002">
<ele>462.441</ele>
<time>2020-09-10T13:46:55Z</time>
</trkpt>
<trkpt lat="48.35807" lon="10.449012">
<ele>462.465</ele>
<time>2020-09-10T13:46:56Z</time>
</trkpt>
<trkpt lat="48.358006" lon="10.44901">
<ele>462.465</ele>
<time>2020-09-10T13:46:57Z</time>
</trkpt>
<trkpt lat="48.357952" lon="10.449015">
<ele>462.465</ele>
<time>2020-09-10T13:46:58Z</time>
</trkpt>
<trkpt lat="48.357903" lon="10.44901">
<ele>462.465</ele>
<time>2020-09-10T13:46:59Z</time>
</trkpt>
<trkpt lat="48.35783" lon="10.449037">
<ele>462.465</ele>
<time>2020-09-10T13:47:00Z</time>
</trkpt>
<trkpt lat="48.357765" lon="10.449061">
<ele>462.465</ele>
<time>2020-09-10T13:47:01Z</time>
</trkpt>
<trkpt lat="48.357704" lon="10.449083">
<ele>462.465</ele>
<time>2020-09-10T13:47:02Z</time>
</trkpt>
<trkpt lat="48.357643" lon="10.4491">
<ele>462.465</ele>
<time>2020-09-10T13:47:03Z</time>
</trkpt>
<trkpt lat="48.357578" lon="10.44912">
<ele>462.28</ele>
<time>2020-09-10T13:47:04Z</time>
</trkpt>
<trkpt lat="48.357521" lon="10.449139">
<ele>462.41</ele>
<time>2020-09-10T13:47:05Z</time>
</trkpt>
<trkpt lat="48.35746" lon="10.449165">
<ele>462.514</ele>
<time>2020-09-10T13:47:06Z</time>
</trkpt>
<trkpt lat="48.357403" lon="10.449188">
<ele>462.595</ele>
<time>2020-09-10T13:47:07Z</time>
</trkpt>
<trkpt lat="48.357346" lon="10.449212">
<ele>462.654</ele>
<time>2020-09-10T13:47:08Z</time>
</trkpt>
<trkpt lat="48.357288" lon="10.449248">
<ele>462.706</ele>
<time>2020-09-10T13:47:09Z</time>
</trkpt>
<trkpt lat="48.357231" lon="10.449306">
<ele>462.743</ele>
<time>2020-09-10T13:47:10Z</time>
</trkpt>
<trkpt lat="48.357166" lon="10.44934">
<ele>462.768</ele>
<time>2020-09-10T13:47:11Z</time>
</trkpt>
<trkpt lat="48.357105" lon="10.449363">
<ele>462.812</ele>
<time>2020-09-10T13:47:12Z</time>
</trkpt>
<trkpt lat="48.35704" lon="10.449387">
<ele>462.855</ele>
<time>2020-09-10T13:47:13Z</time>
</trkpt>
<trkpt lat="48.356972" lon="10.449409">
<ele>462.898</ele>
<time>2020-09-10T13:47:14Z</time>
</trkpt>
<trkpt lat="48.356903" lon="10.449426">
<ele>462.927</ele>
<time>2020-09-10T13:47:15Z</time>
</trkpt>
<trkpt lat="48.356842" lon="10.449438">
<ele>462.942</ele>
<time>2020-09-10T13:47:16Z</time>
</trkpt>
<trkpt lat="48.356789" lon="10.449434">
<ele>463.02</ele>
<time>2020-09-10T13:47:17Z</time>
</trkpt>
<trkpt lat="48.356735" lon="10.449442">
<ele>463.246</ele>
<time>2020-09-10T13:47:18Z</time>
</trkpt>
<trkpt lat="48.356682" lon="10.449455">
<ele>463.518</ele>
<time>2020-09-10T13:47:19Z</time>
</trkpt>
<trkpt lat="48.356625" lon="10.449489">
<ele>463.715</ele>
<time>2020-09-10T13:47:20Z</time>
</trkpt>
<trkpt lat="48.356579" lon="10.449522">
<ele>463.939</ele>
<time>2020-09-10T13:47:21Z</time>
</trkpt>
<trkpt lat="48.356525" lon="10.44955">
<ele>464.268</ele>
<time>2020-09-10T13:47:22Z</time>
</trkpt>
<trkpt lat="48.356476" lon="10.449581">
<ele>464.474</ele>
<time>2020-09-10T13:47:23Z</time>
</trkpt>
<trkpt lat="48.356426" lon="10.44961">
<ele>464.798</ele>
<time>2020-09-10T13:47:24Z</time>
</trkpt>
<trkpt lat="48.35638" lon="10.449634">
<ele>464.929</ele>
<time>2020-09-10T13:47:25Z</time>
</trkpt>
<trkpt lat="48.356339" lon="10.449658">
<ele>465.143</ele>
<time>2020-09-10T13:47:26Z</time>
</trkpt>
<trkpt lat="48.3563" lon="10.449679">
<ele>465.383</ele>
<time>2020-09-10T13:47:27Z</time>
</trkpt>
<trkpt lat="48.356262" lon="10.449703">
<ele>465.493</ele>
<time>2020-09-10T13:47:28Z</time>
</trkpt>
<trkpt lat="48.356216" lon="10.449734">
<ele>465.594</ele>
<time>2020-09-10T13:47:29Z</time>
</trkpt>
<trkpt lat="48.356171" lon="10.449774">
<ele>465.643</ele>
<time>2020-09-10T13:47:30Z</time>
</trkpt>
<trkpt lat="48.356133" lon="10.449818">
<ele>465.709</ele>
<time>2020-09-10T13:47:31Z</time>
</trkpt>
<trkpt lat="48.356094" lon="10.449866">
<ele>465.727</ele>
<time>2020-09-10T13:47:32Z</time>
</trkpt>
<trkpt lat="48.356052" lon="10.44991">
<ele>465.766</ele>
<time>2020-09-10T13:47:33Z</time>
</trkpt>
<trkpt lat="48.35601" lon="10.449956">
<ele>465.763</ele>
<time>2020-09-10T13:47:34Z</time>
</trkpt>
<trkpt lat="48.355965" lon="10.450005">
<ele>465.764</ele>
<time>2020-09-10T13:47:35Z</time>
</trkpt>
<trkpt lat="48.355915" lon="10.450055">
<ele>465.758</ele>
<time>2020-09-10T13:47:36Z</time>
</trkpt>
<trkpt lat="48.355865" lon="10.450091">
<ele>465.486</ele>
<time>2020-09-10T13:47:37Z</time>
</trkpt>
<trkpt lat="48.355812" lon="10.45015">
<ele>465.31</ele>
<time>2020-09-10T13:47:38Z</time>
</trkpt>
<trkpt lat="48.355747" lon="10.450191">
<ele>465.128</ele>
<time>2020-09-10T13:47:39Z</time>
</trkpt>
<trkpt lat="48.355686" lon="10.450262">
<ele>464.978</ele>
<time>2020-09-10T13:47:40Z</time>
</trkpt>
<trkpt lat="48.355644" lon="10.450358">
<ele>464.866</ele>
<time>2020-09-10T13:47:41Z</time>
</trkpt>
<trkpt lat="48.355606" lon="10.450459">
<ele>464.79</ele>
<time>2020-09-10T13:47:42Z</time>
</trkpt>
<trkpt lat="48.355576" lon="10.450559">
<ele>464.745</ele>
<time>2020-09-10T13:47:43Z</time>
</trkpt>
<trkpt lat="48.355545" lon="10.450662">
<ele>464.723</ele>
<time>2020-09-10T13:47:44Z</time>
</trkpt>
<trkpt lat="48.355515" lon="10.450758">
<ele>464.493</ele>
<time>2020-09-10T13:47:45Z</time>
</trkpt>
<trkpt lat="48.35548" lon="10.450842">
<ele>464.533</ele>
<time>2020-09-10T13:47:46Z</time>
</trkpt>
<trkpt lat="48.355453" lon="10.450896">
<ele>464.407</ele>
<time>2020-09-10T13:47:47Z</time>
</trkpt>
<trkpt lat="48.355412" lon="10.450967">
<ele>464.217</ele>
<time>2020-09-10T13:47:49Z</time>
</trkpt>
<trkpt lat="48.355392" lon="10.450999">
<ele>464.046</ele>
<time>2020-09-10T13:47:50Z</time>
</trkpt>
<trkpt lat="48.355373" lon="10.451023">
<ele>463.908</ele>
<time>2020-09-10T13:47:52Z</time>
</trkpt>
<trkpt lat="48.35535" lon="10.451054">
<ele>464.103</ele>
<time>2020-09-10T13:47:53Z</time>
</trkpt>
<trkpt lat="48.35535" lon="10.451062">
<ele>463.997</ele>
<time>2020-09-10T13:47:54Z</time>
</trkpt>
<trkpt lat="48.355354" lon="10.451072">
<ele>463.883</ele>
<time>2020-09-10T13:47:55Z</time>
</trkpt>
<trkpt lat="48.355347" lon="10.451096">
<ele>463.8</ele>
<time>2020-09-10T13:48:07Z</time>
</trkpt>
<trkpt lat="48.355347" lon="10.4511">
<ele>463.597</ele>
<time>2020-09-10T13:48:08Z</time>
</trkpt>
<trkpt lat="48.355347" lon="10.451103">
<ele>463.53</ele>
<time>2020-09-10T13:48:09Z</time>
</trkpt>
<trkpt lat="48.355343" lon="10.451105">
<ele>463.475</ele>
<time>2020-09-10T13:48:10Z</time>
</trkpt>
<trkpt lat="48.355339" lon="10.451115">
<ele>463.579</ele>
<time>2020-09-10T13:48:11Z</time>
</trkpt>
<trkpt lat="48.355335" lon="10.451127">
<ele>463.535</ele>
<time>2020-09-10T13:48:12Z</time>
</trkpt>
<trkpt lat="48.355335" lon="10.451132">
<ele>463.518</ele>
<time>2020-09-10T13:48:13Z</time>
</trkpt>
<trkpt lat="48.355331" lon="10.451143">
<ele>463.966</ele>
<time>2020-09-10T13:48:14Z</time>
</trkpt>
<trkpt lat="48.355331" lon="10.451141">
<ele>464.043</ele>
<time>2020-09-10T13:48:15Z</time>
</trkpt>
<trkpt lat="48.355339" lon="10.451141">
<ele>463.697</ele>
<time>2020-09-10T13:48:16Z</time>
</trkpt>
<trkpt lat="48.35535" lon="10.451138">
<ele>463.849</ele>
<time>2020-09-10T13:48:17Z</time>
</trkpt>
<trkpt lat="48.355354" lon="10.451137">
<ele>463.92</ele>
<time>2020-09-10T13:48:18Z</time>
</trkpt>
<trkpt lat="48.355377" lon="10.45112">
<ele>464.016</ele>
<time>2020-09-10T13:48:19Z</time>
</trkpt>
<trkpt lat="48.3554" lon="10.451089">
<ele>464.335</ele>
<time>2020-09-10T13:48:20Z</time>
</trkpt>
<trkpt lat="48.355427" lon="10.45106">
<ele>464.258</ele>
<time>2020-09-10T13:48:21Z</time>
</trkpt>
<trkpt lat="48.355446" lon="10.451032">
<ele>464.279</ele>
<time>2020-09-10T13:48:22Z</time>
</trkpt>
<trkpt lat="48.35545" lon="10.450991">
<ele>463.926</ele>
<time>2020-09-10T13:48:23Z</time>
</trkpt>
<trkpt lat="48.355442" lon="10.450936">
<ele>463.55</ele>
<time>2020-09-10T13:48:24Z</time>
</trkpt>
<trkpt lat="48.355419" lon="10.450877">
<ele>463.408</ele>
<time>2020-09-10T13:48:25Z</time>
</trkpt>
<trkpt lat="48.355396" lon="10.450809">
<ele>463.332</ele>
<time>2020-09-10T13:48:26Z</time>
</trkpt>
<trkpt lat="48.355358" lon="10.450733">
<ele>463.282</ele>
<time>2020-09-10T13:48:27Z</time>
</trkpt>
<trkpt lat="48.355328" lon="10.450657">
<ele>462.981</ele>
<time>2020-09-10T13:48:28Z</time>
</trkpt>
<trkpt lat="48.355286" lon="10.450572">
<ele>462.755</ele>
<time>2020-09-10T13:48:29Z</time>
</trkpt>
<trkpt lat="48.355251" lon="10.450477">
<ele>462.583</ele>
<time>2020-09-10T13:48:30Z</time>
</trkpt>
<trkpt lat="48.355217" lon="10.450383">
<ele>462.493</ele>
<time>2020-09-10T13:48:31Z</time>
</trkpt>
<trkpt lat="48.355186" lon="10.45031">
<ele>462.443</ele>
<time>2020-09-10T13:48:32Z</time>
</trkpt>
<trkpt lat="48.355148" lon="10.45024">
<ele>462.407</ele>
<time>2020-09-10T13:48:33Z</time>
</trkpt>
<trkpt lat="48.355118" lon="10.450168">
<ele>462.385</ele>
<time>2020-09-10T13:48:34Z</time>
</trkpt>
<trkpt lat="48.355103" lon="10.450087">
<ele>462.374</ele>
<time>2020-09-10T13:48:35Z</time>
</trkpt>
<trkpt lat="48.355072" lon="10.449991">
<ele>462.378</ele>
<time>2020-09-10T13:48:36Z</time>
</trkpt>
<trkpt lat="48.355022" lon="10.449939">
<ele>462.378</ele>
<time>2020-09-10T13:48:37Z</time>
</trkpt>
<trkpt lat="48.355" lon="10.449865">
<ele>462.378</ele>
<time>2020-09-10T13:48:38Z</time>
</trkpt>
<trkpt lat="48.35498" lon="10.449792">
<ele>462.378</ele>
<time>2020-09-10T13:48:39Z</time>
</trkpt>
<trkpt lat="48.35495" lon="10.449713">
<ele>462.378</ele>
<time>2020-09-10T13:48:40Z</time>
</trkpt>
<trkpt lat="48.354916" lon="10.449641">
<ele>462.378</ele>
<time>2020-09-10T13:48:41Z</time>
</trkpt>
<trkpt lat="48.354885" lon="10.449574">
<ele>462.712</ele>
<time>2020-09-10T13:48:42Z</time>
</trkpt>
<trkpt lat="48.354839" lon="10.449525">
<ele>462.968</ele>
<time>2020-09-10T13:48:43Z</time>
</trkpt>
<trkpt lat="48.354794" lon="10.449478">
<ele>463.159</ele>
<time>2020-09-10T13:48:44Z</time>
</trkpt>
<trkpt lat="48.35474" lon="10.449443">
<ele>463.316</ele>
<time>2020-09-10T13:48:45Z</time>
</trkpt>
<trkpt lat="48.354706" lon="10.449389">
<ele>463.193</ele>
<time>2020-09-10T13:48:46Z</time>
</trkpt>
<trkpt lat="48.354668" lon="10.449336">
<ele>463.075</ele>
<time>2020-09-10T13:48:47Z</time>
</trkpt>
<trkpt lat="48.354618" lon="10.449305">
<ele>462.965</ele>
<time>2020-09-10T13:48:48Z</time>
</trkpt>
<trkpt lat="48.354565" lon="10.449263">
<ele>462.859</ele>
<time>2020-09-10T13:48:49Z</time>
</trkpt>
<trkpt lat="48.354504" lon="10.449246">
<ele>462.82</ele>
<time>2020-09-10T13:48:50Z</time>
</trkpt>
<trkpt lat="48.354454" lon="10.44923">
<ele>462.764</ele>
<time>2020-09-10T13:48:51Z</time>
</trkpt>
<trkpt lat="48.354401" lon="10.449212">
<ele>462.967</ele>
<time>2020-09-10T13:48:52Z</time>
</trkpt>
<trkpt lat="48.354355" lon="10.449205">
<ele>462.875</ele>
<time>2020-09-10T13:48:53Z</time>
</trkpt>
<trkpt lat="48.354305" lon="10.449215">
<ele>462.819</ele>
<time>2020-09-10T13:48:54Z</time>
</trkpt>
<trkpt lat="48.354256" lon="10.449212">
<ele>462.787</ele>
<time>2020-09-10T13:48:55Z</time>
</trkpt>
<trkpt lat="48.35421" lon="10.449214">
<ele>462.981</ele>
<time>2020-09-10T13:48:56Z</time>
</trkpt>
<trkpt lat="48.354164" lon="10.449215">
<ele>463.131</ele>
<time>2020-09-10T13:48:57Z</time>
</trkpt>
<trkpt lat="48.354111" lon="10.449222">
<ele>463.247</ele>
<time>2020-09-10T13:48:58Z</time>
</trkpt>
<trkpt lat="48.354076" lon="10.449221">
<ele>463.33</ele>
<time>2020-09-10T13:48:59Z</time>
</trkpt>
<trkpt lat="48.354015" lon="10.449224">
<ele>463.394</ele>
<time>2020-09-10T13:49:00Z</time>
</trkpt>
<trkpt lat="48.353958" lon="10.449231">
<ele>463.457</ele>
<time>2020-09-10T13:49:01Z</time>
</trkpt>
<trkpt lat="48.353909" lon="10.449237">
<ele>463.75</ele>
<time>2020-09-10T13:49:02Z</time>
</trkpt>
<trkpt lat="48.353851" lon="10.449235">
<ele>464.004</ele>
<time>2020-09-10T13:49:03Z</time>
</trkpt>
<trkpt lat="48.353798" lon="10.449235">
<ele>464.198</ele>
<time>2020-09-10T13:49:04Z</time>
</trkpt>
<trkpt lat="48.353745" lon="10.44923">
<ele>464.38</ele>
<time>2020-09-10T13:49:05Z</time>
</trkpt>
<trkpt lat="48.353687" lon="10.449235">
<ele>464.56</ele>
<time>2020-09-10T13:49:06Z</time>
</trkpt>
<trkpt lat="48.353634" lon="10.449242">
<ele>464.697</ele>
<time>2020-09-10T13:49:07Z</time>
</trkpt>
<trkpt lat="48.353584" lon="10.44924">
<ele>464.762</ele>
<time>2020-09-10T13:49:08Z</time>
</trkpt>
<trkpt lat="48.353527" lon="10.449245">
<ele>464.808</ele>
<time>2020-09-10T13:49:09Z</time>
</trkpt>
<trkpt lat="48.353474" lon="10.449239">
<ele>464.831</ele>
<time>2020-09-10T13:49:10Z</time>
</trkpt>
<trkpt lat="48.35342" lon="10.44924">
<ele>464.95</ele>
<time>2020-09-10T13:49:11Z</time>
</trkpt>
<trkpt lat="48.353367" lon="10.449244">
<ele>464.914</ele>
<time>2020-09-10T13:49:12Z</time>
</trkpt>
<trkpt lat="48.35331" lon="10.44925">
<ele>464.81</ele>
<time>2020-09-10T13:49:13Z</time>
</trkpt>
<trkpt lat="48.353256" lon="10.449256">
<ele>464.807</ele>
<time>2020-09-10T13:49:14Z</time>
</trkpt>
<trkpt lat="48.353195" lon="10.449262">
<ele>464.607</ele>
<time>2020-09-10T13:49:15Z</time>
</trkpt>
<trkpt lat="48.353134" lon="10.44927">
<ele>464.378</ele>
<time>2020-09-10T13:49:16Z</time>
</trkpt>
<trkpt lat="48.353065" lon="10.449273">
<ele>464.208</ele>
<time>2020-09-10T13:49:17Z</time>
</trkpt>
<trkpt lat="48.353001" lon="10.449279">
<ele>464.092</ele>
<time>2020-09-10T13:49:18Z</time>
</trkpt>
<trkpt lat="48.352943" lon="10.44929">
<ele>464.007</ele>
<time>2020-09-10T13:49:19Z</time>
</trkpt>
<trkpt lat="48.352875" lon="10.449322">
<ele>463.964</ele>
<time>2020-09-10T13:49:20Z</time>
</trkpt>
<trkpt lat="48.352806" lon="10.449348">
<ele>463.856</ele>
<time>2020-09-10T13:49:21Z</time>
</trkpt>
<trkpt lat="48.352734" lon="10.449375">
<ele>463.809</ele>
<time>2020-09-10T13:49:22Z</time>
</trkpt>
<trkpt lat="48.352661" lon="10.449392">
<ele>463.575</ele>
<time>2020-09-10T13:49:23Z</time>
</trkpt>
<trkpt lat="48.352585" lon="10.449411">
<ele>463.514</ele>
<time>2020-09-10T13:49:24Z</time>
</trkpt>
<trkpt lat="48.352509" lon="10.449431">
<ele>463.254</ele>
<time>2020-09-10T13:49:25Z</time>
</trkpt>
<trkpt lat="48.352436" lon="10.449449">
<ele>463.127</ele>
<time>2020-09-10T13:49:26Z</time>
</trkpt>
<trkpt lat="48.352367" lon="10.449455">
<ele>463.042</ele>
<time>2020-09-10T13:49:27Z</time>
</trkpt>
<trkpt lat="48.352303" lon="10.449465">
<ele>462.992</ele>
<time>2020-09-10T13:49:28Z</time>
</trkpt>
<trkpt lat="48.352226" lon="10.44948">
<ele>462.966</ele>
<time>2020-09-10T13:49:29Z</time>
</trkpt>
<trkpt lat="48.352154" lon="10.449503">
<ele>462.952</ele>
<time>2020-09-10T13:49:30Z</time>
</trkpt>
<trkpt lat="48.352089" lon="10.449532">
<ele>463.132</ele>
<time>2020-09-10T13:49:31Z</time>
</trkpt>
<trkpt lat="48.352024" lon="10.449562">
<ele>463.286</ele>
<time>2020-09-10T13:49:32Z</time>
</trkpt>
<trkpt lat="48.351959" lon="10.449592">
<ele>463.444</ele>
<time>2020-09-10T13:49:33Z</time>
</trkpt>
<trkpt lat="48.351894" lon="10.449616">
<ele>463.55</ele>
<time>2020-09-10T13:49:34Z</time>
</trkpt>
<trkpt lat="48.351841" lon="10.449645">
<ele>463.641</ele>
<time>2020-09-10T13:49:35Z</time>
</trkpt>
<trkpt lat="48.35178" lon="10.449669">
<ele>463.706</ele>
<time>2020-09-10T13:49:36Z</time>
</trkpt>
<trkpt lat="48.351719" lon="10.449692">
<ele>463.746</ele>
<time>2020-09-10T13:49:37Z</time>
</trkpt>
<trkpt lat="48.351662" lon="10.449705">
<ele>463.768</ele>
<time>2020-09-10T13:49:38Z</time>
</trkpt>
<trkpt lat="48.351593" lon="10.449732">
<ele>463.768</ele>
<time>2020-09-10T13:49:39Z</time>
</trkpt>
<trkpt lat="48.351536" lon="10.449765">
<ele>463.768</ele>
<time>2020-09-10T13:49:40Z</time>
</trkpt>
<trkpt lat="48.351486" lon="10.449792">
<ele>463.996</ele>
<time>2020-09-10T13:49:41Z</time>
</trkpt>
<trkpt lat="48.351437" lon="10.44982">
<ele>464.19</ele>
<time>2020-09-10T13:49:42Z</time>
</trkpt>
<trkpt lat="48.351379" lon="10.449848">
<ele>464.351</ele>
<time>2020-09-10T13:49:43Z</time>
</trkpt>
<trkpt lat="48.351334" lon="10.449883">
<ele>464.475</ele>
<time>2020-09-10T13:49:44Z</time>
</trkpt>
<trkpt lat="48.351284" lon="10.449915">
<ele>464.576</ele>
<time>2020-09-10T13:49:45Z</time>
</trkpt>
<trkpt lat="48.351231" lon="10.449947">
<ele>464.649</ele>
<time>2020-09-10T13:49:46Z</time>
</trkpt>
<trkpt lat="48.351181" lon="10.449977">
<ele>464.696</ele>
<time>2020-09-10T13:49:47Z</time>
</trkpt>
<trkpt lat="48.351128" lon="10.450005">
<ele>464.723</ele>
<time>2020-09-10T13:49:48Z</time>
</trkpt>
<trkpt lat="48.351074" lon="10.450033">
<ele>464.723</ele>
<time>2020-09-10T13:49:49Z</time>
</trkpt>
<trkpt lat="48.351032" lon="10.45006">
<ele>464.996</ele>
<time>2020-09-10T13:49:50Z</time>
</trkpt>
<trkpt lat="48.350983" lon="10.45009">
<ele>465.248</ele>
<time>2020-09-10T13:49:51Z</time>
</trkpt>
<trkpt lat="48.350925" lon="10.450117">
<ele>465.46</ele>
<time>2020-09-10T13:49:52Z</time>
</trkpt>
<trkpt lat="48.350876" lon="10.450142">
<ele>465.626</ele>
<time>2020-09-10T13:49:53Z</time>
</trkpt>
<trkpt lat="48.350822" lon="10.450168">
<ele>465.753</ele>
<time>2020-09-10T13:49:54Z</time>
</trkpt>
<trkpt lat="48.350777" lon="10.450203">
<ele>465.818</ele>
<time>2020-09-10T13:49:55Z</time>
</trkpt>
<trkpt lat="48.350727" lon="10.450233">
<ele>465.887</ele>
<time>2020-09-10T13:49:56Z</time>
</trkpt>
<trkpt lat="48.350681" lon="10.45025">
<ele>465.753</ele>
<time>2020-09-10T13:49:57Z</time>
</trkpt>
<trkpt lat="48.350643" lon="10.450268">
<ele>465.665</ele>
<time>2020-09-10T13:49:58Z</time>
</trkpt>
<trkpt lat="48.350594" lon="10.450274">
<ele>465.78</ele>
<time>2020-09-10T13:49:59Z</time>
</trkpt>
<trkpt lat="48.350548" lon="10.450295">
<ele>465.67</ele>
<time>2020-09-10T13:50:00Z</time>
</trkpt>
<trkpt lat="48.350502" lon="10.450322">
<ele>465.799</ele>
<time>2020-09-10T13:50:01Z</time>
</trkpt>
<trkpt lat="48.350452" lon="10.450348">
<ele>465.91</ele>
<time>2020-09-10T13:50:02Z</time>
</trkpt>
<trkpt lat="48.350399" lon="10.450369">
<ele>466.004</ele>
<time>2020-09-10T13:50:03Z</time>
</trkpt>
<trkpt lat="48.350353" lon="10.450397">
<ele>466.081</ele>
<time>2020-09-10T13:50:04Z</time>
</trkpt>
<trkpt lat="48.350304" lon="10.450415">
<ele>466.169</ele>
<time>2020-09-10T13:50:05Z</time>
</trkpt>
<trkpt lat="48.350262" lon="10.450434">
<ele>466.213</ele>
<time>2020-09-10T13:50:06Z</time>
</trkpt>
<trkpt lat="48.35022" lon="10.450448">
<ele>466.286</ele>
<time>2020-09-10T13:50:07Z</time>
</trkpt>
<trkpt lat="48.350182" lon="10.450481">
<ele>466.286</ele>
<time>2020-09-10T13:50:08Z</time>
</trkpt>
<trkpt lat="48.350143" lon="10.450501">
<ele>466.548</ele>
<time>2020-09-10T13:50:09Z</time>
</trkpt>
<trkpt lat="48.350101" lon="10.450523">
<ele>466.739</ele>
<time>2020-09-10T13:50:10Z</time>
</trkpt>
<trkpt lat="48.35004" lon="10.45055">
<ele>466.963</ele>
<time>2020-09-10T13:50:11Z</time>
</trkpt>
<trkpt lat="48.349991" lon="10.450579">
<ele>467.15</ele>
<time>2020-09-10T13:50:12Z</time>
</trkpt>
<trkpt lat="48.349945" lon="10.450603">
<ele>467.05</ele>
<time>2020-09-10T13:50:13Z</time>
</trkpt>
<trkpt lat="48.349899" lon="10.450616">
<ele>467.187</ele>
<time>2020-09-10T13:50:14Z</time>
</trkpt>
<trkpt lat="48.34985" lon="10.450624">
<ele>467.284</ele>
<time>2020-09-10T13:50:15Z</time>
</trkpt>
<trkpt lat="48.349804" lon="10.450641">
<ele>467.345</ele>
<time>2020-09-10T13:50:16Z</time>
</trkpt>
<trkpt lat="48.349762" lon="10.450647">
<ele>467.5</ele>
<time>2020-09-10T13:50:17Z</time>
</trkpt>
<trkpt lat="48.349705" lon="10.450662">
<ele>467.502</ele>
<time>2020-09-10T13:50:18Z</time>
</trkpt>
<trkpt lat="48.349659" lon="10.450682">
<ele>467.502</ele>
<time>2020-09-10T13:50:19Z</time>
</trkpt>
<trkpt lat="48.349609" lon="10.450697">
<ele>467.502</ele>
<time>2020-09-10T13:50:20Z</time>
</trkpt>
<trkpt lat="48.349548" lon="10.45071">
<ele>467.502</ele>
<time>2020-09-10T13:50:21Z</time>
</trkpt>
<trkpt lat="48.349483" lon="10.450727">
<ele>467.502</ele>
<time>2020-09-10T13:50:22Z</time>
</trkpt>
<trkpt lat="48.34943" lon="10.45074">
<ele>467.502</ele>
<time>2020-09-10T13:50:23Z</time>
</trkpt>
<trkpt lat="48.349369" lon="10.450758">
<ele>467.476</ele>
<time>2020-09-10T13:50:24Z</time>
</trkpt>
<trkpt lat="48.349308" lon="10.450777">
<ele>467.193</ele>
<time>2020-09-10T13:50:25Z</time>
</trkpt>
<trkpt lat="48.349247" lon="10.450796">
<ele>466.983</ele>
<time>2020-09-10T13:50:26Z</time>
</trkpt>
<trkpt lat="48.349186" lon="10.450802">
<ele>466.816</ele>
<time>2020-09-10T13:50:27Z</time>
</trkpt>
<trkpt lat="48.349117" lon="10.450809">
<ele>466.703</ele>
<time>2020-09-10T13:50:28Z</time>
</trkpt>
<trkpt lat="48.349045" lon="10.450813">
<ele>466.622</ele>
<time>2020-09-10T13:50:29Z</time>
</trkpt>
<trkpt lat="48.348976" lon="10.450838">
<ele>466.548</ele>
<time>2020-09-10T13:50:30Z</time>
</trkpt>
<trkpt lat="48.348911" lon="10.450858">
<ele>466.501</ele>
<time>2020-09-10T13:50:31Z</time>
</trkpt>
<trkpt lat="48.348846" lon="10.45088">
<ele>466.46</ele>
<time>2020-09-10T13:50:32Z</time>
</trkpt>
<trkpt lat="48.348785" lon="10.450893">
<ele>466.46</ele>
<time>2020-09-10T13:50:33Z</time>
</trkpt>
<trkpt lat="48.348721" lon="10.450913">
<ele>466.46</ele>
<time>2020-09-10T13:50:34Z</time>
</trkpt>
<trkpt lat="48.348663" lon="10.450924">
<ele>466.436</ele>
<time>2020-09-10T13:50:35Z</time>
</trkpt>
<trkpt lat="48.348602" lon="10.450927">
<ele>466.418</ele>
<time>2020-09-10T13:50:36Z</time>
</trkpt>
<trkpt lat="48.348537" lon="10.450924">
<ele>466.404</ele>
<time>2020-09-10T13:50:37Z</time>
</trkpt>
<trkpt lat="48.348473" lon="10.450928">
<ele>466.258</ele>
<time>2020-09-10T13:50:38Z</time>
</trkpt>
<trkpt lat="48.348408" lon="10.450949">
<ele>466.008</ele>
<time>2020-09-10T13:50:39Z</time>
</trkpt>
<trkpt lat="48.348347" lon="10.450958">
<ele>465.969</ele>
<time>2020-09-10T13:50:40Z</time>
</trkpt>
<trkpt lat="48.348289" lon="10.450963">
<ele>466.08</ele>
<time>2020-09-10T13:50:41Z</time>
</trkpt>
<trkpt lat="48.348225" lon="10.450965">
<ele>466.181</ele>
<time>2020-09-10T13:50:42Z</time>
</trkpt>
<trkpt lat="48.34816" lon="10.450967">
<ele>466.266</ele>
<time>2020-09-10T13:50:43Z</time>
</trkpt>
<trkpt lat="48.348103" lon="10.450974">
<ele>466.319</ele>
<time>2020-09-10T13:50:44Z</time>
</trkpt>
<trkpt lat="48.348049" lon="10.450985">
<ele>466.361</ele>
<time>2020-09-10T13:50:45Z</time>
</trkpt>
<trkpt lat="48.347988" lon="10.450994">
<ele>466.397</ele>
<time>2020-09-10T13:50:46Z</time>
</trkpt>
<trkpt lat="48.347931" lon="10.451008">
<ele>466.429</ele>
<time>2020-09-10T13:50:47Z</time>
</trkpt>
<trkpt lat="48.34787" lon="10.451031">
<ele>466.46</ele>
<time>2020-09-10T13:50:48Z</time>
</trkpt>
<trkpt lat="48.347809" lon="10.451056">
<ele>466.46</ele>
<time>2020-09-10T13:50:49Z</time>
</trkpt>
<trkpt lat="48.347755" lon="10.451094">
<ele>466.46</ele>
<time>2020-09-10T13:50:50Z</time>
</trkpt>
<trkpt lat="48.347694" lon="10.451105">
<ele>466.46</ele>
<time>2020-09-10T13:50:51Z</time>
</trkpt>
<trkpt lat="48.347633" lon="10.451118">
<ele>466.46</ele>
<time>2020-09-10T13:50:52Z</time>
</trkpt>
<trkpt lat="48.347572" lon="10.451127">
<ele>466.46</ele>
<time>2020-09-10T13:50:53Z</time>
</trkpt>
<trkpt lat="48.347519" lon="10.451141">
<ele>466.46</ele>
<time>2020-09-10T13:50:54Z</time>
</trkpt>
<trkpt lat="48.347462" lon="10.451157">
<ele>466.483</ele>
<time>2020-09-10T13:50:55Z</time>
</trkpt>
<trkpt lat="48.347404" lon="10.45119">
<ele>466.699</ele>
<time>2020-09-10T13:50:56Z</time>
</trkpt>
<trkpt lat="48.347347" lon="10.45121">
<ele>466.676</ele>
<time>2020-09-10T13:50:57Z</time>
</trkpt>
<trkpt lat="48.347294" lon="10.451219">
<ele>466.884</ele>
<time>2020-09-10T13:50:58Z</time>
</trkpt>
<trkpt lat="48.347248" lon="10.451232">
<ele>466.908</ele>
<time>2020-09-10T13:50:59Z</time>
</trkpt>
<trkpt lat="48.347179" lon="10.451232">
<ele>466.979</ele>
<time>2020-09-10T13:51:00Z</time>
</trkpt>
<trkpt lat="48.347115" lon="10.451244">
<ele>467.027</ele>
<time>2020-09-10T13:51:01Z</time>
</trkpt>
<trkpt lat="48.347054" lon="10.451259">
<ele>467.052</ele>
<time>2020-09-10T13:51:02Z</time>
</trkpt>
<trkpt lat="48.346996" lon="10.451274">
<ele>467.057</ele>
<time>2020-09-10T13:51:03Z</time>
</trkpt>
<trkpt lat="48.346939" lon="10.451288">
<ele>467.071</ele>
<time>2020-09-10T13:51:04Z</time>
</trkpt>
<trkpt lat="48.346882" lon="10.451309">
<ele>467.074</ele>
<time>2020-09-10T13:51:05Z</time>
</trkpt>
<trkpt lat="48.346828" lon="10.45132">
<ele>467.065</ele>
<time>2020-09-10T13:51:06Z</time>
</trkpt>
<trkpt lat="48.346771" lon="10.45133">
<ele>467.067</ele>
<time>2020-09-10T13:51:07Z</time>
</trkpt>
<trkpt lat="48.346718" lon="10.451337">
<ele>466.998</ele>
<time>2020-09-10T13:51:08Z</time>
</trkpt>
<trkpt lat="48.346668" lon="10.451348">
<ele>466.986</ele>
<time>2020-09-10T13:51:09Z</time>
</trkpt>
<trkpt lat="48.346619" lon="10.451375">
<ele>466.925</ele>
<time>2020-09-10T13:51:10Z</time>
</trkpt>
<trkpt lat="48.346573" lon="10.451393">
<ele>466.864</ele>
<time>2020-09-10T13:51:11Z</time>
</trkpt>
<trkpt lat="48.346531" lon="10.451408">
<ele>466.82</ele>
<time>2020-09-10T13:51:12Z</time>
</trkpt>
<trkpt lat="48.346489" lon="10.451416">
<ele>466.561</ele>
<time>2020-09-10T13:51:13Z</time>
</trkpt>
<trkpt lat="48.346455" lon="10.451408">
<ele>466.344</ele>
<time>2020-09-10T13:51:14Z</time>
</trkpt>
<trkpt lat="48.34642" lon="10.451372">
<ele>466.169</ele>
<time>2020-09-10T13:51:15Z</time>
</trkpt>
<trkpt lat="48.346382" lon="10.451341">
<ele>466.047</ele>
<time>2020-09-10T13:51:16Z</time>
</trkpt>
<trkpt lat="48.346352" lon="10.451307">
<ele>465.634</ele>
<time>2020-09-10T13:51:17Z</time>
</trkpt>
<trkpt lat="48.346325" lon="10.451272">
<ele>465.609</ele>
<time>2020-09-10T13:51:18Z</time>
</trkpt>
<trkpt lat="48.346291" lon="10.451241">
<ele>465.605</ele>
<time>2020-09-10T13:51:19Z</time>
</trkpt>
<trkpt lat="48.346256" lon="10.451227">
<ele>465.412</ele>
<time>2020-09-10T13:51:20Z</time>
</trkpt>
<trkpt lat="48.346214" lon="10.451213">
<ele>465.273</ele>
<time>2020-09-10T13:51:21Z</time>
</trkpt>
<trkpt lat="48.346176" lon="10.451206">
<ele>465.165</ele>
<time>2020-09-10T13:51:22Z</time>
</trkpt>
<trkpt lat="48.346127" lon="10.451203">
<ele>465.085</ele>
<time>2020-09-10T13:51:23Z</time>
</trkpt>
<trkpt lat="48.346077" lon="10.451206">
<ele>465.022</ele>
<time>2020-09-10T13:51:24Z</time>
</trkpt>
<trkpt lat="48.346024" lon="10.451217">
<ele>464.948</ele>
<time>2020-09-10T13:51:25Z</time>
</trkpt>
<trkpt lat="48.345966" lon="10.45123">
<ele>464.93</ele>
<time>2020-09-10T13:51:26Z</time>
</trkpt>
<trkpt lat="48.345917" lon="10.451232">
<ele>464.913</ele>
<time>2020-09-10T13:51:27Z</time>
</trkpt>
<trkpt lat="48.345863" lon="10.451241">
<ele>464.896</ele>
<time>2020-09-10T13:51:28Z</time>
</trkpt>
<trkpt lat="48.345798" lon="10.451248">
<ele>464.896</ele>
<time>2020-09-10T13:51:29Z</time>
</trkpt>
<trkpt lat="48.345734" lon="10.451262">
<ele>464.896</ele>
<time>2020-09-10T13:51:30Z</time>
</trkpt>
<trkpt lat="48.345673" lon="10.451278">
<ele>464.896</ele>
<time>2020-09-10T13:51:31Z</time>
</trkpt>
<trkpt lat="48.345608" lon="10.451297">
<ele>464.896</ele>
<time>2020-09-10T13:51:32Z</time>
</trkpt>
<trkpt lat="48.345547" lon="10.451309">
<ele>464.585</ele>
<time>2020-09-10T13:51:33Z</time>
</trkpt>
<trkpt lat="48.345482" lon="10.451317">
<ele>464.063</ele>
<time>2020-09-10T13:51:34Z</time>
</trkpt>
<trkpt lat="48.345421" lon="10.451324">
<ele>463.669</ele>
<time>2020-09-10T13:51:35Z</time>
</trkpt>
<trkpt lat="48.34536" lon="10.451337">
<ele>463.398</ele>
<time>2020-09-10T13:51:36Z</time>
</trkpt>
<trkpt lat="48.345303" lon="10.451335">
<ele>463.201</ele>
<time>2020-09-10T13:51:37Z</time>
</trkpt>
<trkpt lat="48.345245" lon="10.451339">
<ele>463.087</ele>
<time>2020-09-10T13:51:38Z</time>
</trkpt>
<trkpt lat="48.345188" lon="10.451313">
<ele>462.773</ele>
<time>2020-09-10T13:51:39Z</time>
</trkpt>
<trkpt lat="48.345139" lon="10.451309">
<ele>462.725</ele>
<time>2020-09-10T13:51:40Z</time>
</trkpt>
<trkpt lat="48.345078" lon="10.451325">
<ele>462.557</ele>
<time>2020-09-10T13:51:41Z</time>
</trkpt>
<trkpt lat="48.345016" lon="10.451333">
<ele>462.274</ele>
<time>2020-09-10T13:51:42Z</time>
</trkpt>
<trkpt lat="48.344944" lon="10.451344">
<ele>462.132</ele>
<time>2020-09-10T13:51:43Z</time>
</trkpt>
<trkpt lat="48.344868" lon="10.451365">
<ele>462.033</ele>
<time>2020-09-10T13:51:44Z</time>
</trkpt>
<trkpt lat="48.344784" lon="10.451385">
<ele>461.974</ele>
<time>2020-09-10T13:51:45Z</time>
</trkpt>
<trkpt lat="48.344704" lon="10.45141">
<ele>461.693</ele>
<time>2020-09-10T13:51:46Z</time>
</trkpt>
<trkpt lat="48.344601" lon="10.451449">
<ele>461.5</ele>
<time>2020-09-10T13:51:47Z</time>
</trkpt>
<trkpt lat="48.344517" lon="10.451464">
<ele>461.362</ele>
<time>2020-09-10T13:51:48Z</time>
</trkpt>
<trkpt lat="48.344433" lon="10.451498">
<ele>461.292</ele>
<time>2020-09-10T13:51:49Z</time>
</trkpt>
<trkpt lat="48.34436" lon="10.45152">
<ele>460.98</ele>
<time>2020-09-10T13:51:50Z</time>
</trkpt>
<trkpt lat="48.344269" lon="10.451527">
<ele>460.716</ele>
<time>2020-09-10T13:51:51Z</time>
</trkpt>
<trkpt lat="48.344181" lon="10.451527">
<ele>460.514</ele>
<time>2020-09-10T13:51:52Z</time>
</trkpt>
<trkpt lat="48.344093" lon="10.451513">
<ele>460.368</ele>
<time>2020-09-10T13:51:53Z</time>
</trkpt>
<trkpt lat="48.343998" lon="10.4515">
<ele>460.268</ele>
<time>2020-09-10T13:51:54Z</time>
</trkpt>
<trkpt lat="48.343906" lon="10.451485">
<ele>460.209</ele>
<time>2020-09-10T13:51:55Z</time>
</trkpt>
<trkpt lat="48.343822" lon="10.451462">
<ele>459.892</ele>
<time>2020-09-10T13:51:56Z</time>
</trkpt>
<trkpt lat="48.343731" lon="10.451428">
<ele>459.386</ele>
<time>2020-09-10T13:51:57Z</time>
</trkpt>
<trkpt lat="48.343651" lon="10.451382">
<ele>459.022</ele>
<time>2020-09-10T13:51:58Z</time>
</trkpt>
<trkpt lat="48.343563" lon="10.451315">
<ele>458.451</ele>
<time>2020-09-10T13:51:59Z</time>
</trkpt>
<trkpt lat="48.343472" lon="10.45126">
<ele>458.022</ele>
<time>2020-09-10T13:52:00Z</time>
</trkpt>
<trkpt lat="48.343403" lon="10.451192">
<ele>457.611</ele>
<time>2020-09-10T13:52:01Z</time>
</trkpt>
<trkpt lat="48.343319" lon="10.451123">
<ele>457.316</ele>
<time>2020-09-10T13:52:02Z</time>
</trkpt>
<trkpt lat="48.34325" lon="10.451048">
<ele>457.122</ele>
<time>2020-09-10T13:52:03Z</time>
</trkpt>
<trkpt lat="48.343182" lon="10.450961">
<ele>456.473</ele>
<time>2020-09-10T13:52:04Z</time>
</trkpt>
<trkpt lat="48.343109" lon="10.450885">
<ele>455.979</ele>
<time>2020-09-10T13:52:05Z</time>
</trkpt>
<trkpt lat="48.343029" lon="10.4508">
<ele>455.651</ele>
<time>2020-09-10T13:52:06Z</time>
</trkpt>
<trkpt lat="48.34296" lon="10.450697">
<ele>455.006</ele>
<time>2020-09-10T13:52:07Z</time>
</trkpt>
<trkpt lat="48.34288" lon="10.450614">
<ele>454.642</ele>
<time>2020-09-10T13:52:08Z</time>
</trkpt>
<trkpt lat="48.3428" lon="10.45053">
<ele>454.031</ele>
<time>2020-09-10T13:52:09Z</time>
</trkpt>
<trkpt lat="48.342728" lon="10.450436">
<ele>453.594</ele>
<time>2020-09-10T13:52:10Z</time>
</trkpt>
<trkpt lat="48.342651" lon="10.450341">
<ele>453.202</ele>
<time>2020-09-10T13:52:11Z</time>
</trkpt>
<trkpt lat="48.342571" lon="10.450255">
<ele>452.977</ele>
<time>2020-09-10T13:52:12Z</time>
</trkpt>
<trkpt lat="48.342484" lon="10.450165">
<ele>452.55</ele>
<time>2020-09-10T13:52:13Z</time>
</trkpt>
<trkpt lat="48.342407" lon="10.450063">
<ele>452.236</ele>
<time>2020-09-10T13:52:14Z</time>
</trkpt>
<trkpt lat="48.342323" lon="10.449964">
<ele>452.048</ele>
<time>2020-09-10T13:52:15Z</time>
</trkpt>
<trkpt lat="48.342243" lon="10.449862">
<ele>451.53</ele>
<time>2020-09-10T13:52:16Z</time>
</trkpt>
<trkpt lat="48.342163" lon="10.449765">
<ele>451.058</ele>
<time>2020-09-10T13:52:17Z</time>
</trkpt>
<trkpt lat="48.342083" lon="10.449663">
<ele>450.783</ele>
<time>2020-09-10T13:52:18Z</time>
</trkpt>
<trkpt lat="48.341984" lon="10.449587">
<ele>450.593</ele>
<time>2020-09-10T13:52:19Z</time>
</trkpt>
<trkpt lat="48.341896" lon="10.44947">
<ele>450.458</ele>
<time>2020-09-10T13:52:20Z</time>
</trkpt>
<trkpt lat="48.341869" lon="10.44932">
<ele>450.342</ele>
<time>2020-09-10T13:52:21Z</time>
</trkpt>
<trkpt lat="48.341831" lon="10.449182">
<ele>450.267</ele>
<time>2020-09-10T13:52:22Z</time>
</trkpt>
<trkpt lat="48.341808" lon="10.449042">
<ele>450.231</ele>
<time>2020-09-10T13:52:23Z</time>
</trkpt>
<trkpt lat="48.341766" lon="10.448907">
<ele>450.231</ele>
<time>2020-09-10T13:52:24Z</time>
</trkpt>
<trkpt lat="48.341713" lon="10.448792">
<ele>450.231</ele>
<time>2020-09-10T13:52:25Z</time>
</trkpt>
<trkpt lat="48.341656" lon="10.448693">
<ele>450.231</ele>
<time>2020-09-10T13:52:26Z</time>
</trkpt>
<trkpt lat="48.341591" lon="10.448602">
<ele>450.231</ele>
<time>2020-09-10T13:52:27Z</time>
</trkpt>
<trkpt lat="48.341507" lon="10.448538">
<ele>450.231</ele>
<time>2020-09-10T13:52:28Z</time>
</trkpt>
<trkpt lat="48.341431" lon="10.448466">
<ele>450.211</ele>
<time>2020-09-10T13:52:29Z</time>
</trkpt>
<trkpt lat="48.341358" lon="10.448397">
<ele>450.196</ele>
<time>2020-09-10T13:52:30Z</time>
</trkpt>
<trkpt lat="48.341293" lon="10.448359">
<ele>449.957</ele>
<time>2020-09-10T13:52:31Z</time>
</trkpt>
<trkpt lat="48.341202" lon="10.448365">
<ele>449.78</ele>
<time>2020-09-10T13:52:32Z</time>
</trkpt>
<trkpt lat="48.341106" lon="10.448359">
<ele>449.368</ele>
<time>2020-09-10T13:52:33Z</time>
</trkpt>
<trkpt lat="48.341003" lon="10.448359">
<ele>449.022</ele>
<time>2020-09-10T13:52:34Z</time>
</trkpt>
<trkpt lat="48.340897" lon="10.448359">
<ele>448.798</ele>
<time>2020-09-10T13:52:35Z</time>
</trkpt>
<trkpt lat="48.34079" lon="10.448357">
<ele>448.327</ele>
<time>2020-09-10T13:52:36Z</time>
</trkpt>
<trkpt lat="48.340679" lon="10.448359">
<ele>447.955</ele>
<time>2020-09-10T13:52:37Z</time>
</trkpt>
<trkpt lat="48.340591" lon="10.448339">
<ele>447.692</ele>
<time>2020-09-10T13:52:38Z</time>
</trkpt>
<trkpt lat="48.3405" lon="10.448325">
<ele>447.545</ele>
<time>2020-09-10T13:52:39Z</time>
</trkpt>
<trkpt lat="48.340393" lon="10.448301">
<ele>447.147</ele>
<time>2020-09-10T13:52:40Z</time>
</trkpt>
<trkpt lat="48.340298" lon="10.448292">
<ele>446.821</ele>
<time>2020-09-10T13:52:41Z</time>
</trkpt>
<trkpt lat="48.340199" lon="10.448276">
<ele>446.298</ele>
<time>2020-09-10T13:52:42Z</time>
</trkpt>
<trkpt lat="48.340115" lon="10.448246">
<ele>445.879</ele>
<time>2020-09-10T13:52:43Z</time>
</trkpt>
<trkpt lat="48.340023" lon="10.448219">
<ele>445.607</ele>
<time>2020-09-10T13:52:44Z</time>
</trkpt>
<trkpt lat="48.33992" lon="10.448195">
<ele>444.857</ele>
<time>2020-09-10T13:52:45Z</time>
</trkpt>
<trkpt lat="48.339832" lon="10.448188">
<ele>444.312</ele>
<time>2020-09-10T13:52:46Z</time>
</trkpt>
<trkpt lat="48.339748" lon="10.448171">
<ele>443.607</ele>
<time>2020-09-10T13:52:47Z</time>
</trkpt>
<trkpt lat="48.339661" lon="10.448167">
<ele>442.64</ele>
<time>2020-09-10T13:52:48Z</time>
</trkpt>
<trkpt lat="48.339577" lon="10.448162">
<ele>442.086</ele>
<time>2020-09-10T13:52:49Z</time>
</trkpt>
<trkpt lat="48.339481" lon="10.44816">
<ele>441.349</ele>
<time>2020-09-10T13:52:50Z</time>
</trkpt>
<trkpt lat="48.339397" lon="10.448169">
<ele>440.732</ele>
<time>2020-09-10T13:52:51Z</time>
</trkpt>
<trkpt lat="48.33931" lon="10.448187">
<ele>440.029</ele>
<time>2020-09-10T13:52:52Z</time>
</trkpt>
<trkpt lat="48.339214" lon="10.44819">
<ele>439.565</ele>
<time>2020-09-10T13:52:53Z</time>
</trkpt>
<trkpt lat="48.339123" lon="10.448187">
<ele>438.904</ele>
<time>2020-09-10T13:52:54Z</time>
</trkpt>
<trkpt lat="48.339035" lon="10.448175">
<ele>438.44</ele>
<time>2020-09-10T13:52:55Z</time>
</trkpt>
<trkpt lat="48.33894" lon="10.448175">
<ele>438.123</ele>
<time>2020-09-10T13:52:56Z</time>
</trkpt>
<trkpt lat="48.338848" lon="10.448174">
<ele>437.886</ele>
<time>2020-09-10T13:52:57Z</time>
</trkpt>
<trkpt lat="48.338757" lon="10.448167">
<ele>437.719</ele>
<time>2020-09-10T13:52:58Z</time>
</trkpt>
<trkpt lat="48.33865" lon="10.448175">
<ele>437.415</ele>
<time>2020-09-10T13:52:59Z</time>
</trkpt>
<trkpt lat="48.338562" lon="10.448169">
<ele>437.206</ele>
<time>2020-09-10T13:53:00Z</time>
</trkpt>
<trkpt lat="48.33847" lon="10.448162">
<ele>437.01</ele>
<time>2020-09-10T13:53:01Z</time>
</trkpt>
<trkpt lat="48.338383" lon="10.448172">
<ele>436.874</ele>
<time>2020-09-10T13:53:02Z</time>
</trkpt>
<trkpt lat="48.338299" lon="10.448175">
<ele>436.772</ele>
<time>2020-09-10T13:53:03Z</time>
</trkpt>
<trkpt lat="48.338234" lon="10.448187">
<ele>436.699</ele>
<time>2020-09-10T13:53:04Z</time>
</trkpt>
<trkpt lat="48.338165" lon="10.448212">
<ele>436.65</ele>
<time>2020-09-10T13:53:05Z</time>
</trkpt>
<trkpt lat="48.338093" lon="10.44823">
<ele>436.626</ele>
<time>2020-09-10T13:53:06Z</time>
</trkpt>
<trkpt lat="48.338039" lon="10.448228">
<ele>436.626</ele>
<time>2020-09-10T13:53:07Z</time>
</trkpt>
<trkpt lat="48.337994" lon="10.448232">
<ele>436.626</ele>
<time>2020-09-10T13:53:08Z</time>
</trkpt>
<trkpt lat="48.337933" lon="10.448267">
<ele>436.626</ele>
<time>2020-09-10T13:53:09Z</time>
</trkpt>
<trkpt lat="48.337921" lon="10.448272">
<ele>436.626</ele>
<time>2020-09-10T13:53:10Z</time>
</trkpt>
<trkpt lat="48.337891" lon="10.448309">
<ele>436.626</ele>
<time>2020-09-10T13:53:11Z</time>
</trkpt>
<trkpt lat="48.337894" lon="10.44834">
<ele>436.626</ele>
<time>2020-09-10T13:53:12Z</time>
</trkpt>
<trkpt lat="48.337894" lon="10.44839">
<ele>436.626</ele>
<time>2020-09-10T13:53:13Z</time>
</trkpt>
<trkpt lat="48.337898" lon="10.44846">
<ele>436.732</ele>
<time>2020-09-10T13:53:14Z</time>
</trkpt>
<trkpt lat="48.33791" lon="10.448517">
<ele>436.827</ele>
<time>2020-09-10T13:53:15Z</time>
</trkpt>
<trkpt lat="48.337914" lon="10.448566">
<ele>436.903</ele>
<time>2020-09-10T13:53:16Z</time>
</trkpt>
<trkpt lat="48.337929" lon="10.448617">
<ele>436.96</ele>
<time>2020-09-10T13:53:17Z</time>
</trkpt>
<trkpt lat="48.337929" lon="10.448657">
<ele>437.016</ele>
<time>2020-09-10T13:53:18Z</time>
</trkpt>
<trkpt lat="48.337952" lon="10.448709">
<ele>437.076</ele>
<time>2020-09-10T13:53:19Z</time>
</trkpt>
<trkpt lat="48.337959" lon="10.448771">
<ele>437.34</ele>
<time>2020-09-10T13:53:20Z</time>
</trkpt>
<trkpt lat="48.337975" lon="10.448818">
<ele>437.557</ele>
<time>2020-09-10T13:53:21Z</time>
</trkpt>
<trkpt lat="48.337975" lon="10.448874">
<ele>437.749</ele>
<time>2020-09-10T13:53:22Z</time>
</trkpt>
<trkpt lat="48.337986" lon="10.448938">
<ele>437.9</ele>
<time>2020-09-10T13:53:23Z</time>
</trkpt>
<trkpt lat="48.337982" lon="10.449003">
<ele>438.027</ele>
<time>2020-09-10T13:53:24Z</time>
</trkpt>
<trkpt lat="48.33799" lon="10.449059">
<ele>438.112</ele>
<time>2020-09-10T13:53:25Z</time>
</trkpt>
<trkpt lat="48.337994" lon="10.449128">
<ele>438.163</ele>
<time>2020-09-10T13:53:26Z</time>
</trkpt>
<trkpt lat="48.33799" lon="10.449197">
<ele>438.207</ele>
<time>2020-09-10T13:53:27Z</time>
</trkpt>
<trkpt lat="48.33799" lon="10.449266">
<ele>438.226</ele>
<time>2020-09-10T13:53:28Z</time>
</trkpt>
<trkpt lat="48.338005" lon="10.449313">
<ele>438.237</ele>
<time>2020-09-10T13:53:29Z</time>
</trkpt>
<trkpt lat="48.338005" lon="10.449368">
<ele>438.481</ele>
<time>2020-09-10T13:53:30Z</time>
</trkpt>
<trkpt lat="48.337997" lon="10.44943">
<ele>438.496</ele>
<time>2020-09-10T13:53:31Z</time>
</trkpt>
<trkpt lat="48.337986" lon="10.449478">
<ele>438.507</ele>
<time>2020-09-10T13:53:32Z</time>
</trkpt>
<trkpt lat="48.337975" lon="10.449531">
<ele>438.511</ele>
<time>2020-09-10T13:53:33Z</time>
</trkpt>
<trkpt lat="48.337971" lon="10.449594">
<ele>438.506</ele>
<time>2020-09-10T13:53:34Z</time>
</trkpt>
<trkpt lat="48.337959" lon="10.449645">
<ele>438.601</ele>
<time>2020-09-10T13:53:35Z</time>
</trkpt>
<trkpt lat="48.337952" lon="10.449698">
<ele>438.786</ele>
<time>2020-09-10T13:53:36Z</time>
</trkpt>
<trkpt lat="48.33794" lon="10.449736">
<ele>438.795</ele>
<time>2020-09-10T13:53:37Z</time>
</trkpt>
<trkpt lat="48.337936" lon="10.449778">
<ele>438.643</ele>
<time>2020-09-10T13:53:38Z</time>
</trkpt>
<trkpt lat="48.337933" lon="10.449839">
<ele>438.536</ele>
<time>2020-09-10T13:53:39Z</time>
</trkpt>
<trkpt lat="48.337914" lon="10.449872">
<ele>438.489</ele>
<time>2020-09-10T13:53:40Z</time>
</trkpt>
<trkpt lat="48.337883" lon="10.449886">
<ele>438.434</ele>
<time>2020-09-10T13:53:41Z</time>
</trkpt>
<trkpt lat="48.337883" lon="10.449907">
<ele>438.241</ele>
<time>2020-09-10T13:53:42Z</time>
</trkpt>
<trkpt lat="48.337887" lon="10.449912">
<ele>438.087</ele>
<time>2020-09-10T13:53:43Z</time>
</trkpt>
<trkpt lat="48.337894" lon="10.44991">
<ele>438.283</ele>
<time>2020-09-10T13:53:44Z</time>
</trkpt>
<trkpt lat="48.337894" lon="10.449915">
<ele>437.973</ele>
<time>2020-09-10T13:53:45Z</time>
</trkpt>
<trkpt lat="48.337891" lon="10.44993">
<ele>437.63</ele>
<time>2020-09-10T13:53:48Z</time>
</trkpt>
<trkpt lat="48.337883" lon="10.449924">
<ele>437.599</ele>
<time>2020-09-10T13:53:49Z</time>
</trkpt>
<trkpt lat="48.337879" lon="10.449922">
<ele>437.572</ele>
<time>2020-09-10T13:53:50Z</time>
</trkpt>
<trkpt lat="48.337875" lon="10.449931">
<ele>437.583</ele>
<time>2020-09-10T13:53:51Z</time>
</trkpt>
<trkpt lat="48.337872" lon="10.449931">
<ele>437.631</ele>
<time>2020-09-10T13:53:52Z</time>
</trkpt>
<trkpt lat="48.337864" lon="10.449945">
<ele>438.043</ele>
<time>2020-09-10T13:54:00Z</time>
</trkpt>
<trkpt lat="48.337864" lon="10.449953">
<ele>438.093</ele>
<time>2020-09-10T13:54:01Z</time>
</trkpt>
<trkpt lat="48.337864" lon="10.449948">
<ele>437.938</ele>
<time>2020-09-10T13:54:02Z</time>
</trkpt>
<trkpt lat="48.33786" lon="10.449931">
<ele>437.796</ele>
<time>2020-09-10T13:54:03Z</time>
</trkpt>
<trkpt lat="48.337864" lon="10.449937">
<ele>438.034</ele>
<time>2020-09-10T13:54:04Z</time>
</trkpt>
<trkpt lat="48.337864" lon="10.449952">
<ele>438.203</ele>
<time>2020-09-10T13:54:06Z</time>
</trkpt>
<trkpt lat="48.337864" lon="10.449979">
<ele>438.338</ele>
<time>2020-09-10T13:54:07Z</time>
</trkpt>
<trkpt lat="48.337864" lon="10.450008">
<ele>438.196</ele>
<time>2020-09-10T13:54:08Z</time>
</trkpt>
<trkpt lat="48.337856" lon="10.450029">
<ele>438.295</ele>
<time>2020-09-10T13:54:09Z</time>
</trkpt>
<trkpt lat="48.337845" lon="10.450055">
<ele>438.394</ele>
<time>2020-09-10T13:54:10Z</time>
</trkpt>
<trkpt lat="48.337833" lon="10.45009">
<ele>438.416</ele>
<time>2020-09-10T13:54:11Z</time>
</trkpt>
<trkpt lat="48.337826" lon="10.450128">
<ele>438.478</ele>
<time>2020-09-10T13:54:12Z</time>
</trkpt>
<trkpt lat="48.337811" lon="10.450168">
<ele>438.49</ele>
<time>2020-09-10T13:54:13Z</time>
</trkpt>
<trkpt lat="48.337799" lon="10.450209">
<ele>438.169</ele>
<time>2020-09-10T13:54:14Z</time>
</trkpt>
<trkpt lat="48.337791" lon="10.450253">
<ele>438.24</ele>
<time>2020-09-10T13:54:15Z</time>
</trkpt>
<trkpt lat="48.337788" lon="10.450305">
<ele>438.287</ele>
<time>2020-09-10T13:54:16Z</time>
</trkpt>
<trkpt lat="48.337788" lon="10.450369">
<ele>438.322</ele>
<time>2020-09-10T13:54:17Z</time>
</trkpt>
<trkpt lat="48.337784" lon="10.450438">
<ele>438.352</ele>
<time>2020-09-10T13:54:18Z</time>
</trkpt>
<trkpt lat="48.337776" lon="10.450505">
<ele>438.374</ele>
<time>2020-09-10T13:54:19Z</time>
</trkpt>
<trkpt lat="48.337772" lon="10.450574">
<ele>438.331</ele>
<time>2020-09-10T13:54:20Z</time>
</trkpt>
<trkpt lat="48.337772" lon="10.450642">
<ele>438.121</ele>
<time>2020-09-10T13:54:21Z</time>
</trkpt>
<trkpt lat="48.337769" lon="10.450708">
<ele>438.037</ele>
<time>2020-09-10T13:54:22Z</time>
</trkpt>
<trkpt lat="48.337757" lon="10.450775">
<ele>438.035</ele>
<time>2020-09-10T13:54:23Z</time>
</trkpt>
<trkpt lat="48.337749" lon="10.450849">
<ele>438.205</ele>
<time>2020-09-10T13:54:24Z</time>
</trkpt>
<trkpt lat="48.337746" lon="10.450915">
<ele>438.329</ele>
<time>2020-09-10T13:54:25Z</time>
</trkpt>
<trkpt lat="48.337738" lon="10.450978">
<ele>438.429</ele>
<time>2020-09-10T13:54:26Z</time>
</trkpt>
<trkpt lat="48.337734" lon="10.451043">
<ele>438.512</ele>
<time>2020-09-10T13:54:27Z</time>
</trkpt>
<trkpt lat="48.33773" lon="10.451096">
<ele>438.579</ele>
<time>2020-09-10T13:54:28Z</time>
</trkpt>
<trkpt lat="48.337715" lon="10.451146">
<ele>438.634</ele>
<time>2020-09-10T13:54:29Z</time>
</trkpt>
<trkpt lat="48.337711" lon="10.451208">
<ele>438.681</ele>
<time>2020-09-10T13:54:30Z</time>
</trkpt>
<trkpt lat="48.337704" lon="10.451265">
<ele>438.705</ele>
<time>2020-09-10T13:54:31Z</time>
</trkpt>
<trkpt lat="48.337704" lon="10.451328">
<ele>438.705</ele>
<time>2020-09-10T13:54:32Z</time>
</trkpt>
<trkpt lat="48.337704" lon="10.451395">
<ele>438.705</ele>
<time>2020-09-10T13:54:33Z</time>
</trkpt>
<trkpt lat="48.337711" lon="10.451468">
<ele>438.705</ele>
<time>2020-09-10T13:54:34Z</time>
</trkpt>
<trkpt lat="48.337711" lon="10.45154">
<ele>438.705</ele>
<time>2020-09-10T13:54:35Z</time>
</trkpt>
<trkpt lat="48.337711" lon="10.451612">
<ele>438.705</ele>
<time>2020-09-10T13:54:36Z</time>
</trkpt>
<trkpt lat="48.337715" lon="10.451685">
<ele>438.705</ele>
<time>2020-09-10T13:54:37Z</time>
</trkpt>
<trkpt lat="48.337715" lon="10.451747">
<ele>438.705</ele>
<time>2020-09-10T13:54:38Z</time>
</trkpt>
<trkpt lat="48.337723" lon="10.451805">
<ele>438.705</ele>
<time>2020-09-10T13:54:39Z</time>
</trkpt>
<trkpt lat="48.337708" lon="10.451881">
<ele>438.705</ele>
<time>2020-09-10T13:54:40Z</time>
</trkpt>
<trkpt lat="48.337692" lon="10.45195">
<ele>438.705</ele>
<time>2020-09-10T13:54:41Z</time>
</trkpt>
<trkpt lat="48.337681" lon="10.452017">
<ele>438.705</ele>
<time>2020-09-10T13:54:42Z</time>
</trkpt>
<trkpt lat="48.337677" lon="10.45208">
<ele>438.705</ele>
<time>2020-09-10T13:54:43Z</time>
</trkpt>
<trkpt lat="48.337669" lon="10.452139">
<ele>438.654</ele>
<time>2020-09-10T13:54:44Z</time>
</trkpt>
<trkpt lat="48.337658" lon="10.452206">
<ele>438.614</ele>
<time>2020-09-10T13:54:45Z</time>
</trkpt>
<trkpt lat="48.33765" lon="10.452267">
<ele>438.582</ele>
<time>2020-09-10T13:54:46Z</time>
</trkpt>
<trkpt lat="48.33765" lon="10.452345">
<ele>438.561</ele>
<time>2020-09-10T13:54:47Z</time>
</trkpt>
<trkpt lat="48.337635" lon="10.452414">
<ele>438.547</ele>
<time>2020-09-10T13:54:48Z</time>
</trkpt>
<trkpt lat="48.337624" lon="10.452501">
<ele>438.759</ele>
<time>2020-09-10T13:54:49Z</time>
</trkpt>
<trkpt lat="48.337616" lon="10.452566">
<ele>438.93</ele>
<time>2020-09-10T13:54:50Z</time>
</trkpt>
<trkpt lat="48.337608" lon="10.45261">
<ele>439.065</ele>
<time>2020-09-10T13:54:51Z</time>
</trkpt>
<trkpt lat="48.337589" lon="10.452638">
<ele>439.114</ele>
<time>2020-09-10T13:54:52Z</time>
</trkpt>
<trkpt lat="48.337582" lon="10.452667">
<ele>439.233</ele>
<time>2020-09-10T13:54:53Z</time>
</trkpt>
<trkpt lat="48.337547" lon="10.452682">
<ele>439.314</ele>
<time>2020-09-10T13:54:54Z</time>
</trkpt>
<trkpt lat="48.337517" lon="10.452683">
<ele>439.376</ele>
<time>2020-09-10T13:54:55Z</time>
</trkpt>
<trkpt lat="48.337486" lon="10.452683">
<ele>439.586</ele>
<time>2020-09-10T13:54:56Z</time>
</trkpt>
<trkpt lat="48.337467" lon="10.45268">
<ele>439.749</ele>
<time>2020-09-10T13:54:57Z</time>
</trkpt>
<trkpt lat="48.33744" lon="10.452668">
<ele>440.192</ele>
<time>2020-09-10T13:54:58Z</time>
</trkpt>
<trkpt lat="48.337414" lon="10.452665">
<ele>440.503</ele>
<time>2020-09-10T13:54:59Z</time>
</trkpt>
<trkpt lat="48.337387" lon="10.452668">
<ele>440.662</ele>
<time>2020-09-10T13:55:00Z</time>
</trkpt>
<trkpt lat="48.337349" lon="10.452668">
<ele>440.833</ele>
<time>2020-09-10T13:55:01Z</time>
</trkpt>
<trkpt lat="48.337311" lon="10.452678">
<ele>440.914</ele>
<time>2020-09-10T13:55:02Z</time>
</trkpt>
<trkpt lat="48.337269" lon="10.45269">
<ele>440.978</ele>
<time>2020-09-10T13:55:03Z</time>
</trkpt>
<trkpt lat="48.337223" lon="10.452701">
<ele>441.289</ele>
<time>2020-09-10T13:55:04Z</time>
</trkpt>
<trkpt lat="48.337185" lon="10.452706">
<ele>441.459</ele>
<time>2020-09-10T13:55:05Z</time>
</trkpt>
<trkpt lat="48.337143" lon="10.452708">
<ele>441.873</ele>
<time>2020-09-10T13:55:06Z</time>
</trkpt>
<trkpt lat="48.337093" lon="10.452717">
<ele>442.249</ele>
<time>2020-09-10T13:55:07Z</time>
</trkpt>
<trkpt lat="48.337055" lon="10.452742">
<ele>442.753</ele>
<time>2020-09-10T13:55:08Z</time>
</trkpt>
<trkpt lat="48.33699" lon="10.452767">
<ele>443.045</ele>
<time>2020-09-10T13:55:09Z</time>
</trkpt>
<trkpt lat="48.336952" lon="10.452767">
<ele>443.515</ele>
<time>2020-09-10T13:55:10Z</time>
</trkpt>
<trkpt lat="48.336922" lon="10.452764">
<ele>443.872</ele>
<time>2020-09-10T13:55:11Z</time>
</trkpt>
<trkpt lat="48.336918" lon="10.452746">
<ele>444.169</ele>
<time>2020-09-10T13:55:12Z</time>
</trkpt>
<trkpt lat="48.33691" lon="10.452717">
<ele>444.383</ele>
<time>2020-09-10T13:55:13Z</time>
</trkpt>
<trkpt lat="48.33691" lon="10.452685">
<ele>444.518</ele>
<time>2020-09-10T13:55:14Z</time>
</trkpt>
<trkpt lat="48.33691" lon="10.452655">
<ele>444.607</ele>
<time>2020-09-10T13:55:15Z</time>
</trkpt>
<trkpt lat="48.33691" lon="10.452617">
<ele>444.658</ele>
<time>2020-09-10T13:55:16Z</time>
</trkpt>
<trkpt lat="48.336914" lon="10.452581">
<ele>444.683</ele>
<time>2020-09-10T13:55:17Z</time>
</trkpt>
<trkpt lat="48.336918" lon="10.452541">
<ele>444.683</ele>
<time>2020-09-10T13:55:18Z</time>
</trkpt>
<trkpt lat="48.336918" lon="10.452515">
<ele>444.683</ele>
<time>2020-09-10T13:55:19Z</time>
</trkpt>
<trkpt lat="48.336922" lon="10.452465">
<ele>444.683</ele>
<time>2020-09-10T13:55:20Z</time>
</trkpt>
<trkpt lat="48.336918" lon="10.452412">
<ele>444.683</ele>
<time>2020-09-10T13:55:21Z</time>
</trkpt>
<trkpt lat="48.33691" lon="10.452353">
<ele>444.683</ele>
<time>2020-09-10T13:55:22Z</time>
</trkpt>
<trkpt lat="48.336899" lon="10.452305">
<ele>444.991</ele>
<time>2020-09-10T13:55:23Z</time>
</trkpt>
<trkpt lat="48.336895" lon="10.452256">
<ele>444.972</ele>
<time>2020-09-10T13:55:24Z</time>
</trkpt>
<trkpt lat="48.33688" lon="10.45221">
<ele>444.911</ele>
<time>2020-09-10T13:55:25Z</time>
</trkpt>
<trkpt lat="48.336872" lon="10.452162">
<ele>445.135</ele>
<time>2020-09-10T13:55:26Z</time>
</trkpt>
<trkpt lat="48.336864" lon="10.452108">
<ele>445.299</ele>
<time>2020-09-10T13:55:27Z</time>
</trkpt>
<trkpt lat="48.336849" lon="10.452074">
<ele>445.399</ele>
<time>2020-09-10T13:55:28Z</time>
</trkpt>
<trkpt lat="48.336834" lon="10.452035">
<ele>445.481</ele>
<time>2020-09-10T13:55:29Z</time>
</trkpt>
<trkpt lat="48.336826" lon="10.451985">
<ele>445.512</ele>
<time>2020-09-10T13:55:30Z</time>
</trkpt>
<trkpt lat="48.336815" lon="10.451941">
<ele>445.553</ele>
<time>2020-09-10T13:55:31Z</time>
</trkpt>
<trkpt lat="48.336803" lon="10.451903">
<ele>445.583</ele>
<time>2020-09-10T13:55:32Z</time>
</trkpt>
<trkpt lat="48.336784" lon="10.451862">
<ele>445.61</ele>
<time>2020-09-10T13:55:33Z</time>
</trkpt>
<trkpt lat="48.336761" lon="10.451829">
<ele>445.636</ele>
<time>2020-09-10T13:55:34Z</time>
</trkpt>
<trkpt lat="48.336735" lon="10.451801">
<ele>445.636</ele>
<time>2020-09-10T13:55:35Z</time>
</trkpt>
<trkpt lat="48.336716" lon="10.451768">
<ele>445.636</ele>
<time>2020-09-10T13:55:36Z</time>
</trkpt>
<trkpt lat="48.3367" lon="10.451745">
<ele>445.636</ele>
<time>2020-09-10T13:55:37Z</time>
</trkpt>
<trkpt lat="48.336674" lon="10.451725">
<ele>445.636</ele>
<time>2020-09-10T13:55:38Z</time>
</trkpt>
<trkpt lat="48.336639" lon="10.45172">
<ele>445.887</ele>
<time>2020-09-10T13:55:39Z</time>
</trkpt>
<trkpt lat="48.336613" lon="10.4517">
<ele>446.064</ele>
<time>2020-09-10T13:55:40Z</time>
</trkpt>
<trkpt lat="48.33659" lon="10.451668">
<ele>446.141</ele>
<time>2020-09-10T13:55:41Z</time>
</trkpt>
<trkpt lat="48.336559" lon="10.45164">
<ele>446.477</ele>
<time>2020-09-10T13:55:42Z</time>
</trkpt>
<trkpt lat="48.336529" lon="10.451615">
<ele>446.713</ele>
<time>2020-09-10T13:55:43Z</time>
</trkpt>
<trkpt lat="48.336494" lon="10.451594">
<ele>446.894</ele>
<time>2020-09-10T13:55:44Z</time>
</trkpt>
<trkpt lat="48.336468" lon="10.451565">
<ele>447.026</ele>
<time>2020-09-10T13:55:45Z</time>
</trkpt>
<trkpt lat="48.336441" lon="10.451531">
<ele>447.096</ele>
<time>2020-09-10T13:55:46Z</time>
</trkpt>
<trkpt lat="48.336407" lon="10.451498">
<ele>447.201</ele>
<time>2020-09-10T13:55:47Z</time>
</trkpt>
<trkpt lat="48.336376" lon="10.45147">
<ele>447.162</ele>
<time>2020-09-10T13:55:48Z</time>
</trkpt>
<trkpt lat="48.336349" lon="10.451447">
<ele>447.245</ele>
<time>2020-09-10T13:55:49Z</time>
</trkpt>
<trkpt lat="48.336315" lon="10.451414">
<ele>447.265</ele>
<time>2020-09-10T13:55:50Z</time>
</trkpt>
<trkpt lat="48.336269" lon="10.451377">
<ele>447.333</ele>
<time>2020-09-10T13:55:51Z</time>
</trkpt>
<trkpt lat="48.336231" lon="10.451335">
<ele>447.132</ele>
<time>2020-09-10T13:55:52Z</time>
</trkpt>
<trkpt lat="48.336189" lon="10.451288">
<ele>447.184</ele>
<time>2020-09-10T13:55:53Z</time>
</trkpt>
<trkpt lat="48.336151" lon="10.451243">
<ele>447.225</ele>
<time>2020-09-10T13:55:54Z</time>
</trkpt>
<trkpt lat="48.336117" lon="10.45119">
<ele>447.256</ele>
<time>2020-09-10T13:55:55Z</time>
</trkpt>
<trkpt lat="48.33609" lon="10.451125">
<ele>446.971</ele>
<time>2020-09-10T13:55:56Z</time>
</trkpt>
<trkpt lat="48.336067" lon="10.451065">
<ele>446.75</ele>
<time>2020-09-10T13:55:57Z</time>
</trkpt>
<trkpt lat="48.33604" lon="10.451003">
<ele>446.578</ele>
<time>2020-09-10T13:55:58Z</time>
</trkpt>
<trkpt lat="48.336025" lon="10.450952">
<ele>446.444</ele>
<time>2020-09-10T13:55:59Z</time>
</trkpt>
<trkpt lat="48.335983" lon="10.450889">
<ele>446.375</ele>
<time>2020-09-10T13:56:00Z</time>
</trkpt>
<trkpt lat="48.33593" lon="10.450831">
<ele>446.238</ele>
<time>2020-09-10T13:56:01Z</time>
</trkpt>
<trkpt lat="48.335888" lon="10.450775">
<ele>446.171</ele>
<time>2020-09-10T13:56:02Z</time>
</trkpt>
<trkpt lat="48.335846" lon="10.450717">
<ele>445.835</ele>
<time>2020-09-10T13:56:03Z</time>
</trkpt>
<trkpt lat="48.335789" lon="10.450662">
<ele>445.583</ele>
<time>2020-09-10T13:56:04Z</time>
</trkpt>
<trkpt lat="48.335739" lon="10.45061">
<ele>445.363</ele>
<time>2020-09-10T13:56:06Z</time>
</trkpt>
<trkpt lat="48.335659" lon="10.450495">
<ele>444.674</ele>
<time>2020-09-10T13:56:07Z</time>
</trkpt>
<trkpt lat="48.335613" lon="10.450432">
<ele>444.49</ele>
<time>2020-09-10T13:56:08Z</time>
</trkpt>
<trkpt lat="48.335587" lon="10.450378">
<ele>444.373</ele>
<time>2020-09-10T13:56:09Z</time>
</trkpt>
<trkpt lat="48.335552" lon="10.450327">
<ele>444.029</ele>
<time>2020-09-10T13:56:10Z</time>
</trkpt>
<trkpt lat="48.335526" lon="10.45027">
<ele>443.762</ele>
<time>2020-09-10T13:56:11Z</time>
</trkpt>
<trkpt lat="48.335495" lon="10.450201">
<ele>443.551</ele>
<time>2020-09-10T13:56:12Z</time>
</trkpt>
<trkpt lat="48.335476" lon="10.450131">
<ele>443.386</ele>
<time>2020-09-10T13:56:13Z</time>
</trkpt>
<trkpt lat="48.335472" lon="10.450058">
<ele>443.278</ele>
<time>2020-09-10T13:56:14Z</time>
</trkpt>
<trkpt lat="48.335468" lon="10.449995">
<ele>443.199</ele>
<time>2020-09-10T13:56:15Z</time>
</trkpt>
<trkpt lat="48.335457" lon="10.449953">
<ele>443.155</ele>
<time>2020-09-10T13:56:16Z</time>
</trkpt>
<trkpt lat="48.335445" lon="10.44992">
<ele>442.889</ele>
<time>2020-09-10T13:56:17Z</time>
</trkpt>
<trkpt lat="48.335438" lon="10.449893">
<ele>442.69</ele>
<time>2020-09-10T13:56:18Z</time>
</trkpt>
<trkpt lat="48.335423" lon="10.449868">
<ele>442.729</ele>
<time>2020-09-10T13:56:19Z</time>
</trkpt>
<trkpt lat="48.3354" lon="10.449847">
<ele>442.697</ele>
<time>2020-09-10T13:56:20Z</time>
</trkpt>
<trkpt lat="48.335365" lon="10.44982">
<ele>442.619</ele>
<time>2020-09-10T13:56:21Z</time>
</trkpt>
<trkpt lat="48.335335" lon="10.449807">
<ele>442.563</ele>
<time>2020-09-10T13:56:22Z</time>
</trkpt>
<trkpt lat="48.335308" lon="10.4498">
<ele>442.527</ele>
<time>2020-09-10T13:56:23Z</time>
</trkpt>
<trkpt lat="48.335285" lon="10.449793">
<ele>442.659</ele>
<time>2020-09-10T13:56:24Z</time>
</trkpt>
<trkpt lat="48.335236" lon="10.449812">
<ele>442.726</ele>
<time>2020-09-10T13:56:25Z</time>
</trkpt>
<trkpt lat="48.335194" lon="10.449826">
<ele>442.909</ele>
<time>2020-09-10T13:56:26Z</time>
</trkpt>
<trkpt lat="48.335163" lon="10.449851">
<ele>443.126</ele>
<time>2020-09-10T13:56:27Z</time>
</trkpt>
<trkpt lat="48.335144" lon="10.449857">
<ele>443.181</ele>
<time>2020-09-10T13:56:28Z</time>
</trkpt>
<trkpt lat="48.335129" lon="10.449877">
<ele>443.185</ele>
<time>2020-09-10T13:56:29Z</time>
</trkpt>
<trkpt lat="48.335106" lon="10.449895">
<ele>443.193</ele>
<time>2020-09-10T13:56:30Z</time>
</trkpt>
<trkpt lat="48.335075" lon="10.449912">
<ele>443.409</ele>
<time>2020-09-10T13:56:31Z</time>
</trkpt>
<trkpt lat="48.335049" lon="10.449918">
<ele>443.389</ele>
<time>2020-09-10T13:56:32Z</time>
</trkpt>
<trkpt lat="48.335007" lon="10.449918">
<ele>443.6</ele>
<time>2020-09-10T13:56:33Z</time>
</trkpt>
<trkpt lat="48.334976" lon="10.449918">
<ele>443.734</ele>
<time>2020-09-10T13:56:34Z</time>
</trkpt>
<trkpt lat="48.334938" lon="10.44993">
<ele>443.846</ele>
<time>2020-09-10T13:56:35Z</time>
</trkpt>
<trkpt lat="48.334908" lon="10.449935">
<ele>443.938</ele>
<time>2020-09-10T13:56:36Z</time>
</trkpt>
<trkpt lat="48.334877" lon="10.449947">
<ele>443.976</ele>
<time>2020-09-10T13:56:37Z</time>
</trkpt>
<trkpt lat="48.33485" lon="10.449956">
<ele>444.016</ele>
<time>2020-09-10T13:56:38Z</time>
</trkpt>
<trkpt lat="48.334824" lon="10.449979">
<ele>444.042</ele>
<time>2020-09-10T13:56:39Z</time>
</trkpt>
<trkpt lat="48.334778" lon="10.44996">
<ele>444.076</ele>
<time>2020-09-10T13:56:40Z</time>
</trkpt>
<trkpt lat="48.334728" lon="10.44996">
<ele>444.076</ele>
<time>2020-09-10T13:56:41Z</time>
</trkpt>
<trkpt lat="48.33469" lon="10.449956">
<ele>444.355</ele>
<time>2020-09-10T13:56:42Z</time>
</trkpt>
<trkpt lat="48.33466" lon="10.449955">
<ele>444.641</ele>
<time>2020-09-10T13:56:43Z</time>
</trkpt>
<trkpt lat="48.334618" lon="10.449952">
<ele>444.866</ele>
<time>2020-09-10T13:56:45Z</time>
</trkpt>
<trkpt lat="48.334541" lon="10.449947">
<ele>445.107</ele>
<time>2020-09-10T13:56:46Z</time>
</trkpt>
<trkpt lat="48.334518" lon="10.449939">
<ele>445.16</ele>
<time>2020-09-10T13:56:47Z</time>
</trkpt>
<trkpt lat="48.334488" lon="10.449926">
<ele>445.187</ele>
<time>2020-09-10T13:56:48Z</time>
</trkpt>
<trkpt lat="48.334454" lon="10.449915">
<ele>445.198</ele>
<time>2020-09-10T13:56:49Z</time>
</trkpt>
<trkpt lat="48.334423" lon="10.449905">
<ele>445.203</ele>
<time>2020-09-10T13:56:50Z</time>
</trkpt>
<trkpt lat="48.334385" lon="10.449907">
<ele>445.203</ele>
<time>2020-09-10T13:56:51Z</time>
</trkpt>
<trkpt lat="48.334332" lon="10.449907">
<ele>445.203</ele>
<time>2020-09-10T13:56:52Z</time>
</trkpt>
<trkpt lat="48.33429" lon="10.449907">
<ele>445.176</ele>
<time>2020-09-10T13:56:54Z</time>
</trkpt>
<trkpt lat="48.334194" lon="10.449908">
<ele>445.138</ele>
<time>2020-09-10T13:56:55Z</time>
</trkpt>
<trkpt lat="48.33416" lon="10.449907">
<ele>445.129</ele>
<time>2020-09-10T13:56:56Z</time>
</trkpt>
<trkpt lat="48.334133" lon="10.44991">
<ele>445.342</ele>
<time>2020-09-10T13:56:57Z</time>
</trkpt>
<trkpt lat="48.334095" lon="10.449926">
<ele>445.514</ele>
<time>2020-09-10T13:56:58Z</time>
</trkpt>
<trkpt lat="48.334053" lon="10.449935">
<ele>445.545</ele>
<time>2020-09-10T13:56:59Z</time>
</trkpt>
<trkpt lat="48.334015" lon="10.44995">
<ele>445.701</ele>
<time>2020-09-10T13:57:00Z</time>
</trkpt>
<trkpt lat="48.333973" lon="10.449968">
<ele>445.865</ele>
<time>2020-09-10T13:57:01Z</time>
</trkpt>
<trkpt lat="48.333931" lon="10.44998">
<ele>446.011</ele>
<time>2020-09-10T13:57:02Z</time>
</trkpt>
<trkpt lat="48.333889" lon="10.449986">
<ele>446.121</ele>
<time>2020-09-10T13:57:03Z</time>
</trkpt>
<trkpt lat="48.333855" lon="10.449989">
<ele>446.198</ele>
<time>2020-09-10T13:57:04Z</time>
</trkpt>
<trkpt lat="48.333817" lon="10.449998">
<ele>446.233</ele>
<time>2020-09-10T13:57:05Z</time>
</trkpt>
<trkpt lat="48.333771" lon="10.450006">
<ele>446.239</ele>
<time>2020-09-10T13:57:06Z</time>
</trkpt>
<trkpt lat="48.333736" lon="10.450025">
<ele>446.243</ele>
<time>2020-09-10T13:57:07Z</time>
</trkpt>
<trkpt lat="48.333683" lon="10.450038">
<ele>446.398</ele>
<time>2020-09-10T13:57:08Z</time>
</trkpt>
<trkpt lat="48.333622" lon="10.450046">
<ele>446.413</ele>
<time>2020-09-10T13:57:09Z</time>
</trkpt>
<trkpt lat="48.333565" lon="10.450047">
<ele>446.623</ele>
<time>2020-09-10T13:57:10Z</time>
</trkpt>
<trkpt lat="48.333508" lon="10.450055">
<ele>446.778</ele>
<time>2020-09-10T13:57:11Z</time>
</trkpt>
<trkpt lat="48.333469" lon="10.450063">
<ele>446.884</ele>
<time>2020-09-10T13:57:12Z</time>
</trkpt>
<trkpt lat="48.333424" lon="10.450068">
<ele>446.954</ele>
<time>2020-09-10T13:57:13Z</time>
</trkpt>
<trkpt lat="48.333378" lon="10.450068">
<ele>446.993</ele>
<time>2020-09-10T13:57:14Z</time>
</trkpt>
<trkpt lat="48.333313" lon="10.450073">
<ele>447.012</ele>
<time>2020-09-10T13:57:15Z</time>
</trkpt>
<trkpt lat="48.333263" lon="10.450093">
<ele>447.019</ele>
<time>2020-09-10T13:57:16Z</time>
</trkpt>
<trkpt lat="48.333195" lon="10.450122">
<ele>447.022</ele>
<time>2020-09-10T13:57:17Z</time>
</trkpt>
<trkpt lat="48.333145" lon="10.450142">
<ele>447.023</ele>
<time>2020-09-10T13:57:18Z</time>
</trkpt>
<trkpt lat="48.333084" lon="10.450163">
<ele>447.023</ele>
<time>2020-09-10T13:57:19Z</time>
</trkpt>
<trkpt lat="48.333035" lon="10.450184">
<ele>447.023</ele>
<time>2020-09-10T13:57:20Z</time>
</trkpt>
<trkpt lat="48.332985" lon="10.450196">
<ele>447.023</ele>
<time>2020-09-10T13:57:21Z</time>
</trkpt>
<trkpt lat="48.332935" lon="10.450212">
<ele>447.023</ele>
<time>2020-09-10T13:57:22Z</time>
</trkpt>
<trkpt lat="48.332882" lon="10.450231">
<ele>447.337</ele>
<time>2020-09-10T13:57:23Z</time>
</trkpt>
<trkpt lat="48.332832" lon="10.450252">
<ele>447.588</ele>
<time>2020-09-10T13:57:24Z</time>
</trkpt>
<trkpt lat="48.332787" lon="10.45026">
<ele>447.564</ele>
<time>2020-09-10T13:57:25Z</time>
</trkpt>
<trkpt lat="48.332729" lon="10.450266">
<ele>447.742</ele>
<time>2020-09-10T13:57:26Z</time>
</trkpt>
<trkpt lat="48.332668" lon="10.45026">
<ele>447.853</ele>
<time>2020-09-10T13:57:27Z</time>
</trkpt>
<trkpt lat="48.332619" lon="10.45026">
<ele>447.938</ele>
<time>2020-09-10T13:57:28Z</time>
</trkpt>
<trkpt lat="48.332561" lon="10.450262">
<ele>447.98</ele>
<time>2020-09-10T13:57:29Z</time>
</trkpt>
<trkpt lat="48.3325" lon="10.450233">
<ele>447.994</ele>
<time>2020-09-10T13:57:30Z</time>
</trkpt>
<trkpt lat="48.332451" lon="10.450222">
<ele>447.989</ele>
<time>2020-09-10T13:57:31Z</time>
</trkpt>
<trkpt lat="48.332397" lon="10.450213">
<ele>447.981</ele>
<time>2020-09-10T13:57:32Z</time>
</trkpt>
<trkpt lat="48.332344" lon="10.45021">
<ele>447.952</ele>
<time>2020-09-10T13:57:33Z</time>
</trkpt>
<trkpt lat="48.332291" lon="10.450212">
<ele>447.659</ele>
<time>2020-09-10T13:57:34Z</time>
</trkpt>
<trkpt lat="48.332233" lon="10.45022">
<ele>447.419</ele>
<time>2020-09-10T13:57:35Z</time>
</trkpt>
<trkpt lat="48.332172" lon="10.450234">
<ele>447.225</ele>
<time>2020-09-10T13:57:36Z</time>
</trkpt>
<trkpt lat="48.332119" lon="10.450257">
<ele>447.092</ele>
<time>2020-09-10T13:57:37Z</time>
</trkpt>
<trkpt lat="48.332085" lon="10.450266">
<ele>446.997</ele>
<time>2020-09-10T13:57:38Z</time>
</trkpt>
<trkpt lat="48.332035" lon="10.450274">
<ele>446.929</ele>
<time>2020-09-10T13:57:39Z</time>
</trkpt>
<trkpt lat="48.331978" lon="10.450283">
<ele>446.879</ele>
<time>2020-09-10T13:57:40Z</time>
</trkpt>
<trkpt lat="48.331921" lon="10.450295">
<ele>446.85</ele>
<time>2020-09-10T13:57:41Z</time>
</trkpt>
<trkpt lat="48.331867" lon="10.450312">
<ele>446.85</ele>
<time>2020-09-10T13:57:42Z</time>
</trkpt>
<trkpt lat="48.331814" lon="10.450322">
<ele>446.85</ele>
<time>2020-09-10T13:57:43Z</time>
</trkpt>
<trkpt lat="48.331757" lon="10.450331">
<ele>446.85</ele>
<time>2020-09-10T13:57:44Z</time>
</trkpt>
<trkpt lat="48.331699" lon="10.450339">
<ele>446.85</ele>
<time>2020-09-10T13:57:45Z</time>
</trkpt>
<trkpt lat="48.331642" lon="10.45035">
<ele>446.85</ele>
<time>2020-09-10T13:57:46Z</time>
</trkpt>
<trkpt lat="48.331589" lon="10.450358">
<ele>447.186</ele>
<time>2020-09-10T13:57:47Z</time>
</trkpt>
<trkpt lat="48.331539" lon="10.450356">
<ele>447.194</ele>
<time>2020-09-10T13:57:48Z</time>
</trkpt>
<trkpt lat="48.33149" lon="10.450338">
<ele>447.197</ele>
<time>2020-09-10T13:57:49Z</time>
</trkpt>
<trkpt lat="48.331436" lon="10.450343">
<ele>447.361</ele>
<time>2020-09-10T13:57:50Z</time>
</trkpt>
<trkpt lat="48.331379" lon="10.450354">
<ele>447.598</ele>
<time>2020-09-10T13:57:51Z</time>
</trkpt>
<trkpt lat="48.331322" lon="10.450365">
<ele>447.783</ele>
<time>2020-09-10T13:57:52Z</time>
</trkpt>
<trkpt lat="48.331268" lon="10.450375">
<ele>447.929</ele>
<time>2020-09-10T13:57:53Z</time>
</trkpt>
<trkpt lat="48.331207" lon="10.450377">
<ele>448.037</ele>
<time>2020-09-10T13:57:54Z</time>
</trkpt>
<trkpt lat="48.331146" lon="10.450385">
<ele>448.153</ele>
<time>2020-09-10T13:57:55Z</time>
</trkpt>
<trkpt lat="48.331089" lon="10.450397">
<ele>448.186</ele>
<time>2020-09-10T13:57:56Z</time>
</trkpt>
<trkpt lat="48.331028" lon="10.450408">
<ele>448.213</ele>
<time>2020-09-10T13:57:57Z</time>
</trkpt>
<trkpt lat="48.330967" lon="10.450421">
<ele>448.237</ele>
<time>2020-09-10T13:57:58Z</time>
</trkpt>
<trkpt lat="48.330914" lon="10.450423">
<ele>448.237</ele>
<time>2020-09-10T13:57:59Z</time>
</trkpt>
<trkpt lat="48.33086" lon="10.450432">
<ele>448.45</ele>
<time>2020-09-10T13:58:00Z</time>
</trkpt>
<trkpt lat="48.330803" lon="10.45045">
<ele>448.648</ele>
<time>2020-09-10T13:58:01Z</time>
</trkpt>
<trkpt lat="48.330742" lon="10.450467">
<ele>448.789</ele>
<time>2020-09-10T13:58:02Z</time>
</trkpt>
<trkpt lat="48.330692" lon="10.450474">
<ele>449.136</ele>
<time>2020-09-10T13:58:03Z</time>
</trkpt>
<trkpt lat="48.330643" lon="10.450483">
<ele>449.217</ele>
<time>2020-09-10T13:58:04Z</time>
</trkpt>
<trkpt lat="48.330597" lon="10.450497">
<ele>449.421</ele>
<time>2020-09-10T13:58:05Z</time>
</trkpt>
<trkpt lat="48.330536" lon="10.450505">
<ele>449.443</ele>
<time>2020-09-10T13:58:06Z</time>
</trkpt>
<trkpt lat="48.330467" lon="10.450511">
<ele>449.436</ele>
<time>2020-09-10T13:58:07Z</time>
</trkpt>
<trkpt lat="48.330402" lon="10.450505">
<ele>449.406</ele>
<time>2020-09-10T13:58:08Z</time>
</trkpt>
<trkpt lat="48.330341" lon="10.450486">
<ele>449.39</ele>
<time>2020-09-10T13:58:09Z</time>
</trkpt>
<trkpt lat="48.33028" lon="10.450469">
<ele>449.266</ele>
<time>2020-09-10T13:58:10Z</time>
</trkpt>
<trkpt lat="48.330219" lon="10.450452">
<ele>448.987</ele>
<time>2020-09-10T13:58:11Z</time>
</trkpt>
<trkpt lat="48.330158" lon="10.450439">
<ele>449.007</ele>
<time>2020-09-10T13:58:12Z</time>
</trkpt>
<trkpt lat="48.330097" lon="10.450427">
<ele>449.02</ele>
<time>2020-09-10T13:58:13Z</time>
</trkpt>
<trkpt lat="48.330032" lon="10.450423">
<ele>448.837</ele>
<time>2020-09-10T13:58:14Z</time>
</trkpt>
<trkpt lat="48.329975" lon="10.450423">
<ele>448.683</ele>
<time>2020-09-10T13:58:15Z</time>
</trkpt>
<trkpt lat="48.329914" lon="10.450423">
<ele>448.558</ele>
<time>2020-09-10T13:58:16Z</time>
</trkpt>
<trkpt lat="48.329849" lon="10.450434">
<ele>448.464</ele>
<time>2020-09-10T13:58:17Z</time>
</trkpt>
<trkpt lat="48.329792" lon="10.450438">
<ele>448.536</ele>
<time>2020-09-10T13:58:18Z</time>
</trkpt>
<trkpt lat="48.32975" lon="10.450443">
<ele>448.644</ele>
<time>2020-09-10T13:58:19Z</time>
</trkpt>
<trkpt lat="48.329704" lon="10.450441">
<ele>448.739</ele>
<time>2020-09-10T13:58:20Z</time>
</trkpt>
<trkpt lat="48.329647" lon="10.450443">
<ele>448.851</ele>
<time>2020-09-10T13:58:21Z</time>
</trkpt>
<trkpt lat="48.329594" lon="10.450443">
<ele>448.868</ele>
<time>2020-09-10T13:58:22Z</time>
</trkpt>
<trkpt lat="48.329536" lon="10.450439">
<ele>449.239</ele>
<time>2020-09-10T13:58:23Z</time>
</trkpt>
<trkpt lat="48.329494" lon="10.450439">
<ele>449.337</ele>
<time>2020-09-10T13:58:24Z</time>
</trkpt>
<trkpt lat="48.329437" lon="10.450441">
<ele>449.404</ele>
<time>2020-09-10T13:58:25Z</time>
</trkpt>
<trkpt lat="48.329388" lon="10.450439">
<ele>449.588</ele>
<time>2020-09-10T13:58:26Z</time>
</trkpt>
<trkpt lat="48.329338" lon="10.450443">
<ele>449.848</ele>
<time>2020-09-10T13:58:27Z</time>
</trkpt>
<trkpt lat="48.3293" lon="10.450441">
<ele>450.002</ele>
<time>2020-09-10T13:58:28Z</time>
</trkpt>
<trkpt lat="48.329269" lon="10.450436">
<ele>450.109</ele>
<time>2020-09-10T13:58:29Z</time>
</trkpt>
<trkpt lat="48.329243" lon="10.450436">
<ele>450.189</ele>
<time>2020-09-10T13:58:30Z</time>
</trkpt>
<trkpt lat="48.329216" lon="10.450439">
<ele>450.306</ele>
<time>2020-09-10T13:58:31Z</time>
</trkpt>
<trkpt lat="48.329185" lon="10.450452">
<ele>450.339</ele>
<time>2020-09-10T13:58:32Z</time>
</trkpt>
<trkpt lat="48.329163" lon="10.450457">
<ele>450.571</ele>
<time>2020-09-10T13:58:33Z</time>
</trkpt>
<trkpt lat="48.32914" lon="10.450459">
<ele>450.551</ele>
<time>2020-09-10T13:58:34Z</time>
</trkpt>
<trkpt lat="48.329124" lon="10.450453">
<ele>450.57</ele>
<time>2020-09-10T13:58:35Z</time>
</trkpt>
<trkpt lat="48.329117" lon="10.450453">
<ele>450.632</ele>
<time>2020-09-10T13:58:36Z</time>
</trkpt>
<trkpt lat="48.329105" lon="10.450477">
<ele>450.701</ele>
<time>2020-09-10T13:58:37Z</time>
</trkpt>
<trkpt lat="48.329098" lon="10.450481">
<ele>450.767</ele>
<time>2020-09-10T13:58:38Z</time>
</trkpt>
<trkpt lat="48.329117" lon="10.450465">
<ele>450.815</ele>
<time>2020-09-10T13:58:39Z</time>
</trkpt>
<trkpt lat="48.329159" lon="10.450443">
<ele>450.855</ele>
<time>2020-09-10T13:58:40Z</time>
</trkpt>
<trkpt lat="48.329174" lon="10.450441">
<ele>450.912</ele>
<time>2020-09-10T13:58:41Z</time>
</trkpt>
<trkpt lat="48.329205" lon="10.450453">
<ele>450.555</ele>
<time>2020-09-10T13:58:42Z</time>
</trkpt>
<trkpt lat="48.329208" lon="10.450465">
<ele>450.542</ele>
<time>2020-09-10T13:58:43Z</time>
</trkpt>
<trkpt lat="48.329216" lon="10.450463">
<ele>450.631</ele>
<time>2020-09-10T13:58:44Z</time>
</trkpt>
<trkpt lat="48.329216" lon="10.45046">
<ele>450.984</ele>
<time>2020-09-10T13:58:45Z</time>
</trkpt>
<trkpt lat="48.329208" lon="10.450423">
<ele>451.009</ele>
<time>2020-09-10T13:58:48Z</time>
</trkpt>
<trkpt lat="48.329205" lon="10.450427">
<ele>451.108</ele>
<time>2020-09-10T13:58:49Z</time>
</trkpt>
<trkpt lat="48.329201" lon="10.45043">
<ele>450.938</ele>
<time>2020-09-10T13:58:50Z</time>
</trkpt>
<trkpt lat="48.329197" lon="10.450429">
<ele>450.778</ele>
<time>2020-09-10T13:58:51Z</time>
</trkpt>
<trkpt lat="48.329193" lon="10.450429">
<ele>450.643</ele>
<time>2020-09-10T13:58:52Z</time>
</trkpt>
<trkpt lat="48.329189" lon="10.450434">
<ele>450.509</ele>
<time>2020-09-10T13:58:53Z</time>
</trkpt>
<trkpt lat="48.329185" lon="10.450437">
<ele>450.467</ele>
<time>2020-09-10T13:58:54Z</time>
</trkpt>
<trkpt lat="48.329182" lon="10.450436">
<ele>450.393</ele>
<time>2020-09-10T13:58:55Z</time>
</trkpt>
<trkpt lat="48.329178" lon="10.450434">
<ele>450.358</ele>
<time>2020-09-10T13:58:56Z</time>
</trkpt>
<trkpt lat="48.329178" lon="10.450425">
<ele>450.257</ele>
<time>2020-09-10T13:58:57Z</time>
</trkpt>
<trkpt lat="48.329174" lon="10.450429">
<ele>450.231</ele>
<time>2020-09-10T13:58:58Z</time>
</trkpt>
<trkpt lat="48.329174" lon="10.450421">
<ele>450.231</ele>
<time>2020-09-10T13:58:59Z</time>
</trkpt>
<trkpt lat="48.329178" lon="10.450436">
<ele>450.231</ele>
<time>2020-09-10T13:59:00Z</time>
</trkpt>
<trkpt lat="48.329182" lon="10.450455">
<ele>450.231</ele>
<time>2020-09-10T13:59:01Z</time>
</trkpt>
<trkpt lat="48.329182" lon="10.45047">
<ele>450.231</ele>
<time>2020-09-10T13:59:02Z</time>
</trkpt>
<trkpt lat="48.329182" lon="10.450483">
<ele>450.231</ele>
<time>2020-09-10T13:59:03Z</time>
</trkpt>
<trkpt lat="48.329178" lon="10.450492">
<ele>450.231</ele>
<time>2020-09-10T13:59:04Z</time>
</trkpt>
<trkpt lat="48.329182" lon="10.450501">
<ele>450.231</ele>
<time>2020-09-10T13:59:05Z</time>
</trkpt>
<trkpt lat="48.329189" lon="10.450515">
<ele>450.231</ele>
<time>2020-09-10T13:59:06Z</time>
</trkpt>
<trkpt lat="48.329201" lon="10.450523">
<ele>450.231</ele>
<time>2020-09-10T13:59:07Z</time>
</trkpt>
<trkpt lat="48.329201" lon="10.450543">
<ele>450.231</ele>
<time>2020-09-10T13:59:08Z</time>
</trkpt>
<trkpt lat="48.329201" lon="10.450532">
<ele>450.231</ele>
<time>2020-09-10T13:59:09Z</time>
</trkpt>
<trkpt lat="48.329205" lon="10.450557">
<ele>450.231</ele>
<time>2020-09-10T13:59:10Z</time>
</trkpt>
<trkpt lat="48.329208" lon="10.450575">
<ele>450.231</ele>
<time>2020-09-10T13:59:11Z</time>
</trkpt>
<trkpt lat="48.329208" lon="10.450584">
<ele>450.231</ele>
<time>2020-09-10T13:59:12Z</time>
</trkpt>
<trkpt lat="48.329205" lon="10.450577">
<ele>450.231</ele>
<time>2020-09-10T13:59:15Z</time>
</trkpt>
<trkpt lat="48.329197" lon="10.450577">
<ele>450.231</ele>
<time>2020-09-10T13:59:16Z</time>
</trkpt>
<trkpt lat="48.329197" lon="10.450572">
<ele>450.231</ele>
<time>2020-09-10T13:59:17Z</time>
</trkpt>
<trkpt lat="48.329189" lon="10.45055">
<ele>450.157</ele>
<time>2020-09-10T13:59:18Z</time>
</trkpt>
<trkpt lat="48.329185" lon="10.450534">
<ele>450.231</ele>
<time>2020-09-10T13:59:19Z</time>
</trkpt>
<trkpt lat="48.329185" lon="10.450521">
<ele>450.424</ele>
<time>2020-09-10T13:59:20Z</time>
</trkpt>
<trkpt lat="48.329185" lon="10.45052">
<ele>450.353</ele>
<time>2020-09-10T13:59:21Z</time>
</trkpt>
<trkpt lat="48.329166" lon="10.450509">
<ele>450.497</ele>
<time>2020-09-10T13:59:26Z</time>
</trkpt>
<trkpt lat="48.329144" lon="10.450507">
<ele>450.823</ele>
<time>2020-09-10T13:59:27Z</time>
</trkpt>
<trkpt lat="48.32914" lon="10.450507">
<ele>450.622</ele>
<time>2020-09-10T13:59:28Z</time>
</trkpt>
<trkpt lat="48.329117" lon="10.450492">
<ele>450.402</ele>
<time>2020-09-10T13:59:29Z</time>
</trkpt>
<trkpt lat="48.329109" lon="10.450488">
<ele>450.409</ele>
<time>2020-09-10T13:59:30Z</time>
</trkpt>
<trkpt lat="48.329117" lon="10.450492">
<ele>450.429</ele>
<time>2020-09-10T13:59:31Z</time>
</trkpt>
<trkpt lat="48.329117" lon="10.450475">
<ele>450.15</ele>
<time>2020-09-10T13:59:32Z</time>
</trkpt>
<trkpt lat="48.329128" lon="10.45047">
<ele>450.053</ele>
<time>2020-09-10T13:59:33Z</time>
</trkpt>
<trkpt lat="48.32914" lon="10.450474">
<ele>450.184</ele>
<time>2020-09-10T13:59:34Z</time>
</trkpt>
<trkpt lat="48.329155" lon="10.450478">
<ele>449.938</ele>
<time>2020-09-10T13:59:35Z</time>
</trkpt>
<trkpt lat="48.329163" lon="10.450483">
<ele>449.913</ele>
<time>2020-09-10T13:59:36Z</time>
</trkpt>
<trkpt lat="48.329155" lon="10.45047">
<ele>449.836</ele>
<time>2020-09-10T13:59:38Z</time>
</trkpt>
<trkpt lat="48.329144" lon="10.450448">
<ele>449.897</ele>
<time>2020-09-10T13:59:39Z</time>
</trkpt>
<trkpt lat="48.329151" lon="10.450439">
<ele>450.081</ele>
<time>2020-09-10T13:59:40Z</time>
</trkpt>
<trkpt lat="48.329155" lon="10.450453">
<ele>450.107</ele>
<time>2020-09-10T13:59:41Z</time>
</trkpt>
<trkpt lat="48.329163" lon="10.450465">
<ele>450.118</ele>
<time>2020-09-10T13:59:42Z</time>
</trkpt>
<trkpt lat="48.32917" lon="10.450477">
<ele>450.152</ele>
<time>2020-09-10T13:59:43Z</time>
</trkpt>
<trkpt lat="48.32917" lon="10.450453">
<ele>450.199</ele>
<time>2020-09-10T14:00:09Z</time>
</trkpt>
<trkpt lat="48.32917" lon="10.450452">
<ele>450.221</ele>
<time>2020-09-10T14:00:12Z</time>
</trkpt>
<trkpt lat="48.32917" lon="10.450453">
<ele>450.248</ele>
<time>2020-09-10T14:00:13Z</time>
</trkpt>
<trkpt lat="48.329174" lon="10.450452">
<ele>450.251</ele>
<time>2020-09-10T14:00:21Z</time>
</trkpt>
<trkpt lat="48.329178" lon="10.450453">
<ele>450.136</ele>
<time>2020-09-10T14:00:22Z</time>
</trkpt>
<trkpt lat="48.329178" lon="10.450455">
<ele>450.033</ele>
<time>2020-09-10T14:00:23Z</time>
</trkpt>
<trkpt lat="48.329182" lon="10.450457">
<ele>450.139</ele>
<time>2020-09-10T14:00:24Z</time>
</trkpt>
<trkpt lat="48.32917" lon="10.450439">
<ele>450.214</ele>
<time>2020-09-10T14:01:53Z</time>
</trkpt>
<trkpt lat="48.329159" lon="10.450441">
<ele>450.29</ele>
<time>2020-09-10T14:01:54Z</time>
</trkpt>
<trkpt lat="48.32914" lon="10.450445">
<ele>450.382</ele>
<time>2020-09-10T14:01:55Z</time>
</trkpt>
<trkpt lat="48.329117" lon="10.450446">
<ele>450.429</ele>
<time>2020-09-10T14:01:56Z</time>
</trkpt>
<trkpt lat="48.329094" lon="10.450452">
<ele>450.454</ele>
<time>2020-09-10T14:01:57Z</time>
</trkpt>
<trkpt lat="48.329067" lon="10.450455">
<ele>450.462</ele>
<time>2020-09-10T14:01:58Z</time>
</trkpt>
<trkpt lat="48.329033" lon="10.450459">
<ele>450.488</ele>
<time>2020-09-10T14:01:59Z</time>
</trkpt>
<trkpt lat="48.329002" lon="10.450463">
<ele>450.358</ele>
<time>2020-09-10T14:02:00Z</time>
</trkpt>
<trkpt lat="48.328968" lon="10.450474">
<ele>450.339</ele>
<time>2020-09-10T14:02:01Z</time>
</trkpt>
<trkpt lat="48.328934" lon="10.450481">
<ele>450.226</ele>
<time>2020-09-10T14:02:02Z</time>
</trkpt>
<trkpt lat="48.328892" lon="10.450488">
<ele>450.144</ele>
<time>2020-09-10T14:02:03Z</time>
</trkpt>
<trkpt lat="48.328854" lon="10.45049">
<ele>450.083</ele>
<time>2020-09-10T14:02:04Z</time>
</trkpt>
<trkpt lat="48.328815" lon="10.450495">
<ele>450.037</ele>
<time>2020-09-10T14:02:05Z</time>
</trkpt>
<trkpt lat="48.328781" lon="10.450495">
<ele>450.004</ele>
<time>2020-09-10T14:02:06Z</time>
</trkpt>
<trkpt lat="48.328747" lon="10.450499">
<ele>449.982</ele>
<time>2020-09-10T14:02:07Z</time>
</trkpt>
<trkpt lat="48.328712" lon="10.450503">
<ele>449.975</ele>
<time>2020-09-10T14:02:08Z</time>
</trkpt>
<trkpt lat="48.328674" lon="10.450505">
<ele>450.097</ele>
<time>2020-09-10T14:02:09Z</time>
</trkpt>
<trkpt lat="48.32864" lon="10.450505">
<ele>450.111</ele>
<time>2020-09-10T14:02:10Z</time>
</trkpt>
<trkpt lat="48.328606" lon="10.450509">
<ele>449.966</ele>
<time>2020-09-10T14:02:11Z</time>
</trkpt>
<trkpt lat="48.328575" lon="10.450509">
<ele>449.849</ele>
<time>2020-09-10T14:02:12Z</time>
</trkpt>
<trkpt lat="48.328541" lon="10.450513">
<ele>449.756</ele>
<time>2020-09-10T14:02:13Z</time>
</trkpt>
<trkpt lat="48.32851" lon="10.45052">
<ele>449.683</ele>
<time>2020-09-10T14:02:14Z</time>
</trkpt>
<trkpt lat="48.328476" lon="10.450523">
<ele>449.626</ele>
<time>2020-09-10T14:02:15Z</time>
</trkpt>
<trkpt lat="48.328442" lon="10.450525">
<ele>449.589</ele>
<time>2020-09-10T14:02:16Z</time>
</trkpt>
<trkpt lat="48.328407" lon="10.450523">
<ele>449.562</ele>
<time>2020-09-10T14:02:17Z</time>
</trkpt>
<trkpt lat="48.328369" lon="10.450521">
<ele>449.538</ele>
<time>2020-09-10T14:02:18Z</time>
</trkpt>
<trkpt lat="48.328331" lon="10.450519">
<ele>449.538</ele>
<time>2020-09-10T14:02:19Z</time>
</trkpt>
<trkpt lat="48.328293" lon="10.450517">
<ele>449.538</ele>
<time>2020-09-10T14:02:20Z</time>
</trkpt>
<trkpt lat="48.328251" lon="10.450515">
<ele>449.538</ele>
<time>2020-09-10T14:02:21Z</time>
</trkpt>
<trkpt lat="48.328209" lon="10.450513">
<ele>449.538</ele>
<time>2020-09-10T14:02:22Z</time>
</trkpt>
<trkpt lat="48.328167" lon="10.45051">
<ele>449.301</ele>
<time>2020-09-10T14:02:23Z</time>
</trkpt>
<trkpt lat="48.328125" lon="10.450507">
<ele>449.119</ele>
<time>2020-09-10T14:02:24Z</time>
</trkpt>
<trkpt lat="48.328083" lon="10.450497">
<ele>448.984</ele>
<time>2020-09-10T14:02:25Z</time>
</trkpt>
<trkpt lat="48.328045" lon="10.450485">
<ele>448.885</ele>
<time>2020-09-10T14:02:26Z</time>
</trkpt>
<trkpt lat="48.328007" lon="10.450474">
<ele>448.779</ele>
<time>2020-09-10T14:02:27Z</time>
</trkpt>
<trkpt lat="48.327965" lon="10.450463">
<ele>448.7</ele>
<time>2020-09-10T14:02:28Z</time>
</trkpt>
<trkpt lat="48.327923" lon="10.450455">
<ele>448.662</ele>
<time>2020-09-10T14:02:29Z</time>
</trkpt>
<trkpt lat="48.327877" lon="10.450443">
<ele>448.594</ele>
<time>2020-09-10T14:02:30Z</time>
</trkpt>
<trkpt lat="48.327835" lon="10.450427">
<ele>448.308</ele>
<time>2020-09-10T14:02:31Z</time>
</trkpt>
<trkpt lat="48.327782" lon="10.450412">
<ele>448.089</ele>
<time>2020-09-10T14:02:32Z</time>
</trkpt>
<trkpt lat="48.327732" lon="10.450396">
<ele>447.908</ele>
<time>2020-09-10T14:02:33Z</time>
</trkpt>
<trkpt lat="48.327675" lon="10.450379">
<ele>447.768</ele>
<time>2020-09-10T14:02:34Z</time>
</trkpt>
<trkpt lat="48.327621" lon="10.450367">
<ele>447.709</ele>
<time>2020-09-10T14:02:35Z</time>
</trkpt>
<trkpt lat="48.327564" lon="10.45035">
<ele>447.657</ele>
<time>2020-09-10T14:02:36Z</time>
</trkpt>
<trkpt lat="48.327507" lon="10.450331">
<ele>447.399</ele>
<time>2020-09-10T14:02:37Z</time>
</trkpt>
<trkpt lat="48.327454" lon="10.450308">
<ele>447.208</ele>
<time>2020-09-10T14:02:38Z</time>
</trkpt>
<trkpt lat="48.327396" lon="10.450285">
<ele>446.982</ele>
<time>2020-09-10T14:02:39Z</time>
</trkpt>
<trkpt lat="48.327335" lon="10.450262">
<ele>446.906</ele>
<time>2020-09-10T14:02:40Z</time>
</trkpt>
<trkpt lat="48.327278" lon="10.450233">
<ele>446.832</ele>
<time>2020-09-10T14:02:41Z</time>
</trkpt>
<trkpt lat="48.327213" lon="10.450201">
<ele>446.787</ele>
<time>2020-09-10T14:02:42Z</time>
</trkpt>
<trkpt lat="48.327148" lon="10.450171">
<ele>446.767</ele>
<time>2020-09-10T14:02:43Z</time>
</trkpt>
<trkpt lat="48.327084" lon="10.450143">
<ele>446.566</ele>
<time>2020-09-10T14:02:44Z</time>
</trkpt>
<trkpt lat="48.327023" lon="10.450113">
<ele>446.287</ele>
<time>2020-09-10T14:02:45Z</time>
</trkpt>
<trkpt lat="48.326962" lon="10.450082">
<ele>446.103</ele>
<time>2020-09-10T14:02:46Z</time>
</trkpt>
<trkpt lat="48.326904" lon="10.450048">
<ele>445.966</ele>
<time>2020-09-10T14:02:47Z</time>
</trkpt>
<trkpt lat="48.326839" lon="10.450013">
<ele>445.874</ele>
<time>2020-09-10T14:02:48Z</time>
</trkpt>
<trkpt lat="48.326778" lon="10.449977">
<ele>445.81</ele>
<time>2020-09-10T14:02:49Z</time>
</trkpt>
<trkpt lat="48.326714" lon="10.449939">
<ele>445.761</ele>
<time>2020-09-10T14:02:50Z</time>
</trkpt>
<trkpt lat="48.326649" lon="10.4499">
<ele>445.728</ele>
<time>2020-09-10T14:02:51Z</time>
</trkpt>
<trkpt lat="48.32658" lon="10.449858">
<ele>445.723</ele>
<time>2020-09-10T14:02:52Z</time>
</trkpt>
<trkpt lat="48.326515" lon="10.449815">
<ele>445.723</ele>
<time>2020-09-10T14:02:53Z</time>
</trkpt>
<trkpt lat="48.326443" lon="10.449767">
<ele>445.446</ele>
<time>2020-09-10T14:02:54Z</time>
</trkpt>
<trkpt lat="48.32637" lon="10.449719">
<ele>445.237</ele>
<time>2020-09-10T14:02:55Z</time>
</trkpt>
<trkpt lat="48.326302" lon="10.449672">
<ele>445.111</ele>
<time>2020-09-10T14:02:56Z</time>
</trkpt>
<trkpt lat="48.326229" lon="10.449618">
<ele>444.749</ele>
<time>2020-09-10T14:02:57Z</time>
</trkpt>
<trkpt lat="48.326157" lon="10.449565">
<ele>444.489</ele>
<time>2020-09-10T14:02:58Z</time>
</trkpt>
<trkpt lat="48.32608" lon="10.44951">
<ele>444.33</ele>
<time>2020-09-10T14:02:59Z</time>
</trkpt>
<trkpt lat="48.326008" lon="10.449453">
<ele>443.945</ele>
<time>2020-09-10T14:03:00Z</time>
</trkpt>
<trkpt lat="48.325935" lon="10.449396">
<ele>443.619</ele>
<time>2020-09-10T14:03:01Z</time>
</trkpt>
<trkpt lat="48.325863" lon="10.449342">
<ele>443.388</ele>
<time>2020-09-10T14:03:02Z</time>
</trkpt>
<trkpt lat="48.32579" lon="10.449288">
<ele>443.212</ele>
<time>2020-09-10T14:03:03Z</time>
</trkpt>
<trkpt lat="48.325718" lon="10.449237">
<ele>443.091</ele>
<time>2020-09-10T14:03:04Z</time>
</trkpt>
<trkpt lat="48.325649" lon="10.449189">
<ele>443.019</ele>
<time>2020-09-10T14:03:05Z</time>
</trkpt>
<trkpt lat="48.325573" lon="10.449147">
<ele>442.973</ele>
<time>2020-09-10T14:03:06Z</time>
</trkpt>
<trkpt lat="48.3255" lon="10.449107">
<ele>442.95</ele>
<time>2020-09-10T14:03:07Z</time>
</trkpt>
<trkpt lat="48.325428" lon="10.449065">
<ele>442.95</ele>
<time>2020-09-10T14:03:08Z</time>
</trkpt>
<trkpt lat="48.325359" lon="10.449023">
<ele>442.95</ele>
<time>2020-09-10T14:03:09Z</time>
</trkpt>
<trkpt lat="48.325291" lon="10.448979">
<ele>442.95</ele>
<time>2020-09-10T14:03:10Z</time>
</trkpt>
<trkpt lat="48.325226" lon="10.448937">
<ele>442.95</ele>
<time>2020-09-10T14:03:11Z</time>
</trkpt>
<trkpt lat="48.325153" lon="10.44889">
<ele>442.95</ele>
<time>2020-09-10T14:03:12Z</time>
</trkpt>
<trkpt lat="48.325077" lon="10.448847">
<ele>442.95</ele>
<time>2020-09-10T14:03:13Z</time>
</trkpt>
<trkpt lat="48.325001" lon="10.448805">
<ele>442.95</ele>
<time>2020-09-10T14:03:14Z</time>
</trkpt>
<trkpt lat="48.324924" lon="10.448766">
<ele>442.95</ele>
<time>2020-09-10T14:03:15Z</time>
</trkpt>
<trkpt lat="48.324844" lon="10.448724">
<ele>442.693</ele>
<time>2020-09-10T14:03:16Z</time>
</trkpt>
<trkpt lat="48.324764" lon="10.448685">
<ele>442.491</ele>
<time>2020-09-10T14:03:17Z</time>
</trkpt>
<trkpt lat="48.32468" lon="10.448648">
<ele>442.34</ele>
<time>2020-09-10T14:03:18Z</time>
</trkpt>
<trkpt lat="48.324596" lon="10.448615">
<ele>442.226</ele>
<time>2020-09-10T14:03:19Z</time>
</trkpt>
<trkpt lat="48.324509" lon="10.448586">
<ele>442.151</ele>
<time>2020-09-10T14:03:20Z</time>
</trkpt>
<trkpt lat="48.324421" lon="10.448555">
<ele>442.074</ele>
<time>2020-09-10T14:03:21Z</time>
</trkpt>
<trkpt lat="48.324333" lon="10.448526">
<ele>441.806</ele>
<time>2020-09-10T14:03:22Z</time>
</trkpt>
<trkpt lat="48.324245" lon="10.4485">
<ele>441.603</ele>
<time>2020-09-10T14:03:23Z</time>
</trkpt>
<trkpt lat="48.324154" lon="10.448477">
<ele>441.382</ele>
<time>2020-09-10T14:03:24Z</time>
</trkpt>
<trkpt lat="48.324062" lon="10.448456">
<ele>441.271</ele>
<time>2020-09-10T14:03:25Z</time>
</trkpt>
<trkpt lat="48.323971" lon="10.448437">
<ele>441.199</ele>
<time>2020-09-10T14:03:26Z</time>
</trkpt>
<trkpt lat="48.323883" lon="10.448419">
<ele>441.151</ele>
<time>2020-09-10T14:03:27Z</time>
</trkpt>
<trkpt lat="48.323792" lon="10.448401">
<ele>441.13</ele>
<time>2020-09-10T14:03:28Z</time>
</trkpt>
<trkpt lat="48.3237" lon="10.448386">
<ele>441.13</ele>
<time>2020-09-10T14:03:29Z</time>
</trkpt>
<trkpt lat="48.323605" lon="10.448374">
<ele>441.13</ele>
<time>2020-09-10T14:03:30Z</time>
</trkpt>
<trkpt lat="48.323509" lon="10.448359">
<ele>441.13</ele>
<time>2020-09-10T14:03:31Z</time>
</trkpt>
<trkpt lat="48.323414" lon="10.44835">
<ele>441.13</ele>
<time>2020-09-10T14:03:32Z</time>
</trkpt>
<trkpt lat="48.323315" lon="10.448342">
<ele>440.825</ele>
<time>2020-09-10T14:03:33Z</time>
</trkpt>
<trkpt lat="48.323215" lon="10.448335">
<ele>440.588</ele>
<time>2020-09-10T14:03:34Z</time>
</trkpt>
<trkpt lat="48.32312" lon="10.448332">
<ele>440.41</ele>
<time>2020-09-10T14:03:35Z</time>
</trkpt>
<trkpt lat="48.323025" lon="10.448328">
<ele>440.283</ele>
<time>2020-09-10T14:03:36Z</time>
</trkpt>
<trkpt lat="48.322926" lon="10.448326">
<ele>440.195</ele>
<time>2020-09-10T14:03:37Z</time>
</trkpt>
<trkpt lat="48.322826" lon="10.448326">
<ele>440.143</ele>
<time>2020-09-10T14:03:38Z</time>
</trkpt>
<trkpt lat="48.322735" lon="10.448328">
<ele>440.119</ele>
<time>2020-09-10T14:03:39Z</time>
</trkpt>
<trkpt lat="48.322639" lon="10.448325">
<ele>439.86</ele>
<time>2020-09-10T14:03:40Z</time>
</trkpt>
<trkpt lat="48.322552" lon="10.448319">
<ele>439.645</ele>
<time>2020-09-10T14:03:41Z</time>
</trkpt>
<trkpt lat="48.322472" lon="10.448318">
<ele>439.467</ele>
<time>2020-09-10T14:03:42Z</time>
</trkpt>
<trkpt lat="48.322395" lon="10.448319">
<ele>439.325</ele>
<time>2020-09-10T14:03:43Z</time>
</trkpt>
<trkpt lat="48.322323" lon="10.448316">
<ele>439.214</ele>
<time>2020-09-10T14:03:44Z</time>
</trkpt>
<trkpt lat="48.322247" lon="10.448307">
<ele>439.133</ele>
<time>2020-09-10T14:03:45Z</time>
</trkpt>
<trkpt lat="48.322174" lon="10.4483">
<ele>439.078</ele>
<time>2020-09-10T14:03:46Z</time>
</trkpt>
<trkpt lat="48.322102" lon="10.448297">
<ele>439.051</ele>
<time>2020-09-10T14:03:47Z</time>
</trkpt>
<trkpt lat="48.322033" lon="10.448295">
<ele>439.051</ele>
<time>2020-09-10T14:03:48Z</time>
</trkpt>
<trkpt lat="48.321964" lon="10.448293">
<ele>439.051</ele>
<time>2020-09-10T14:03:49Z</time>
</trkpt>
<trkpt lat="48.321896" lon="10.448293">
<ele>439.051</ele>
<time>2020-09-10T14:03:50Z</time>
</trkpt>
<trkpt lat="48.321823" lon="10.448293">
<ele>439.051</ele>
<time>2020-09-10T14:03:51Z</time>
</trkpt>
<trkpt lat="48.321754" lon="10.448295">
<ele>439.051</ele>
<time>2020-09-10T14:03:52Z</time>
</trkpt>
<trkpt lat="48.321686" lon="10.448297">
<ele>439.051</ele>
<time>2020-09-10T14:03:53Z</time>
</trkpt>
<trkpt lat="48.321621" lon="10.448298">
<ele>439.051</ele>
<time>2020-09-10T14:03:54Z</time>
</trkpt>
<trkpt lat="48.32156" lon="10.448301">
<ele>439.051</ele>
<time>2020-09-10T14:03:55Z</time>
</trkpt>
<trkpt lat="48.321499" lon="10.448303">
<ele>439.051</ele>
<time>2020-09-10T14:03:56Z</time>
</trkpt>
<trkpt lat="48.321438" lon="10.448303">
<ele>439.051</ele>
<time>2020-09-10T14:03:57Z</time>
</trkpt>
<trkpt lat="48.321381" lon="10.448309">
<ele>439.051</ele>
<time>2020-09-10T14:03:58Z</time>
</trkpt>
<trkpt lat="48.32132" lon="10.448316">
<ele>439.051</ele>
<time>2020-09-10T14:03:59Z</time>
</trkpt>
<trkpt lat="48.321266" lon="10.448325">
<ele>439.238</ele>
<time>2020-09-10T14:04:00Z</time>
</trkpt>
<trkpt lat="48.321209" lon="10.448337">
<ele>439.416</ele>
<time>2020-09-10T14:04:01Z</time>
</trkpt>
<trkpt lat="48.321152" lon="10.448347">
<ele>439.567</ele>
<time>2020-09-10T14:04:02Z</time>
</trkpt>
<trkpt lat="48.321091" lon="10.448347">
<ele>439.689</ele>
<time>2020-09-10T14:04:03Z</time>
</trkpt>
<trkpt lat="48.321033" lon="10.448345">
<ele>439.784</ele>
<time>2020-09-10T14:04:04Z</time>
</trkpt>
<trkpt lat="48.320972" lon="10.448342">
<ele>439.853</ele>
<time>2020-09-10T14:04:05Z</time>
</trkpt>
<trkpt lat="48.320911" lon="10.448339">
<ele>439.897</ele>
<time>2020-09-10T14:04:06Z</time>
</trkpt>
<trkpt lat="48.32085" lon="10.448335">
<ele>439.918</ele>
<time>2020-09-10T14:04:07Z</time>
</trkpt>
<trkpt lat="48.320786" lon="10.448334">
<ele>439.918</ele>
<time>2020-09-10T14:04:08Z</time>
</trkpt>
<trkpt lat="48.320724" lon="10.44833">
<ele>439.918</ele>
<time>2020-09-10T14:04:09Z</time>
</trkpt>
<trkpt lat="48.32066" lon="10.448328">
<ele>439.918</ele>
<time>2020-09-10T14:04:10Z</time>
</trkpt>
<trkpt lat="48.320599" lon="10.448326">
<ele>439.918</ele>
<time>2020-09-10T14:04:11Z</time>
</trkpt>
<trkpt lat="48.320534" lon="10.448326">
<ele>439.918</ele>
<time>2020-09-10T14:04:12Z</time>
</trkpt>
<trkpt lat="48.320473" lon="10.448328">
<ele>439.918</ele>
<time>2020-09-10T14:04:13Z</time>
</trkpt>
<trkpt lat="48.320408" lon="10.44833">
<ele>439.918</ele>
<time>2020-09-10T14:04:14Z</time>
</trkpt>
<trkpt lat="48.320347" lon="10.448335">
<ele>439.918</ele>
<time>2020-09-10T14:04:15Z</time>
</trkpt>
<trkpt lat="48.320282" lon="10.448339">
<ele>439.918</ele>
<time>2020-09-10T14:04:16Z</time>
</trkpt>
<trkpt lat="48.320217" lon="10.448343">
<ele>439.918</ele>
<time>2020-09-10T14:04:17Z</time>
</trkpt>
<trkpt lat="48.320148" lon="10.44835">
<ele>439.699</ele>
<time>2020-09-10T14:04:18Z</time>
</trkpt>
<trkpt lat="48.32008" lon="10.448357">
<ele>439.524</ele>
<time>2020-09-10T14:04:19Z</time>
</trkpt>
<trkpt lat="48.320011" lon="10.448365">
<ele>439.407</ele>
<time>2020-09-10T14:04:20Z</time>
</trkpt>
<trkpt lat="48.319946" lon="10.448372">
<ele>439.28</ele>
<time>2020-09-10T14:04:21Z</time>
</trkpt>
<trkpt lat="48.319878" lon="10.448379">
<ele>439.184</ele>
<time>2020-09-10T14:04:22Z</time>
</trkpt>
<trkpt lat="48.319809" lon="10.448386">
<ele>439.116</ele>
<time>2020-09-10T14:04:23Z</time>
</trkpt>
<trkpt lat="48.31974" lon="10.448395">
<ele>439.072</ele>
<time>2020-09-10T14:04:24Z</time>
</trkpt>
<trkpt lat="48.319672" lon="10.448405">
<ele>439.051</ele>
<time>2020-09-10T14:04:25Z</time>
</trkpt>
<trkpt lat="48.319603" lon="10.448417">
<ele>439.051</ele>
<time>2020-09-10T14:04:26Z</time>
</trkpt>
<trkpt lat="48.319534" lon="10.44843">
<ele>439.051</ele>
<time>2020-09-10T14:04:27Z</time>
</trkpt>
<trkpt lat="48.319466" lon="10.448445">
<ele>439.051</ele>
<time>2020-09-10T14:04:28Z</time>
</trkpt>
<trkpt lat="48.319397" lon="10.448462">
<ele>439.051</ele>
<time>2020-09-10T14:04:29Z</time>
</trkpt>
<trkpt lat="48.319328" lon="10.448482">
<ele>439.051</ele>
<time>2020-09-10T14:04:30Z</time>
</trkpt>
<trkpt lat="48.31926" lon="10.448502">
<ele>439.051</ele>
<time>2020-09-10T14:04:31Z</time>
</trkpt>
<trkpt lat="48.319191" lon="10.448522">
<ele>439.051</ele>
<time>2020-09-10T14:04:32Z</time>
</trkpt>
<trkpt lat="48.319122" lon="10.448542">
<ele>439.051</ele>
<time>2020-09-10T14:04:33Z</time>
</trkpt>
<trkpt lat="48.31905" lon="10.448562">
<ele>439.051</ele>
<time>2020-09-10T14:04:34Z</time>
</trkpt>
<trkpt lat="48.318981" lon="10.448582">
<ele>439.051</ele>
<time>2020-09-10T14:04:35Z</time>
</trkpt>
<trkpt lat="48.318916" lon="10.448602">
<ele>439.051</ele>
<time>2020-09-10T14:04:36Z</time>
</trkpt>
<trkpt lat="48.318848" lon="10.448622">
<ele>439.051</ele>
<time>2020-09-10T14:04:37Z</time>
</trkpt>
<trkpt lat="48.318779" lon="10.448642">
<ele>439.051</ele>
<time>2020-09-10T14:04:38Z</time>
</trkpt>
<trkpt lat="48.318714" lon="10.448662">
<ele>439.051</ele>
<time>2020-09-10T14:04:39Z</time>
</trkpt>
<trkpt lat="48.318649" lon="10.44868">
<ele>439.051</ele>
<time>2020-09-10T14:04:40Z</time>
</trkpt>
<trkpt lat="48.318588" lon="10.448695">
<ele>439.051</ele>
<time>2020-09-10T14:04:41Z</time>
</trkpt>
<trkpt lat="48.318527" lon="10.448709">
<ele>439.051</ele>
<time>2020-09-10T14:04:42Z</time>
</trkpt>
<trkpt lat="48.31847" lon="10.448729">
<ele>439.051</ele>
<time>2020-09-10T14:04:43Z</time>
</trkpt>
<trkpt lat="48.318413" lon="10.448747">
<ele>439.051</ele>
<time>2020-09-10T14:04:44Z</time>
</trkpt>
<trkpt lat="48.318359" lon="10.448767">
<ele>439.051</ele>
<time>2020-09-10T14:04:45Z</time>
</trkpt>
<trkpt lat="48.318306" lon="10.448785">
<ele>439.051</ele>
<time>2020-09-10T14:04:46Z</time>
</trkpt>
<trkpt lat="48.318256" lon="10.448805">
<ele>439.051</ele>
<time>2020-09-10T14:04:47Z</time>
</trkpt>
<trkpt lat="48.318214" lon="10.448825">
<ele>439.051</ele>
<time>2020-09-10T14:04:48Z</time>
</trkpt>
<trkpt lat="48.318169" lon="10.448845">
<ele>439.25</ele>
<time>2020-09-10T14:04:49Z</time>
</trkpt>
<trkpt lat="48.318123" lon="10.448865">
<ele>439.398</ele>
<time>2020-09-10T14:04:50Z</time>
</trkpt>
<trkpt lat="48.318085" lon="10.448883">
<ele>439.549</ele>
<time>2020-09-10T14:04:51Z</time>
</trkpt>
<trkpt lat="48.318047" lon="10.44889">
<ele>439.672</ele>
<time>2020-09-10T14:04:52Z</time>
</trkpt>
<trkpt lat="48.318012" lon="10.448885">
<ele>439.77</ele>
<time>2020-09-10T14:04:53Z</time>
</trkpt>
<trkpt lat="48.317982" lon="10.448862">
<ele>439.844</ele>
<time>2020-09-10T14:04:54Z</time>
</trkpt>
<trkpt lat="48.317955" lon="10.448827">
<ele>439.893</ele>
<time>2020-09-10T14:04:55Z</time>
</trkpt>
<trkpt lat="48.317928" lon="10.448783">
<ele>439.918</ele>
<time>2020-09-10T14:04:56Z</time>
</trkpt>
<trkpt lat="48.317905" lon="10.448733">
<ele>439.918</ele>
<time>2020-09-10T14:04:57Z</time>
</trkpt>
<trkpt lat="48.317883" lon="10.448678">
<ele>439.918</ele>
<time>2020-09-10T14:04:58Z</time>
</trkpt>
<trkpt lat="48.31786" lon="10.44862">
<ele>439.918</ele>
<time>2020-09-10T14:04:59Z</time>
</trkpt>
<trkpt lat="48.317841" lon="10.448562">
<ele>439.918</ele>
<time>2020-09-10T14:05:00Z</time>
</trkpt>
<trkpt lat="48.317822" lon="10.4485">
<ele>439.918</ele>
<time>2020-09-10T14:05:01Z</time>
</trkpt>
<trkpt lat="48.317799" lon="10.448437">
<ele>439.918</ele>
<time>2020-09-10T14:05:02Z</time>
</trkpt>
<trkpt lat="48.31778" lon="10.44837">
<ele>439.918</ele>
<time>2020-09-10T14:05:03Z</time>
</trkpt>
<trkpt lat="48.31776" lon="10.448301">
<ele>439.918</ele>
<time>2020-09-10T14:05:04Z</time>
</trkpt>
<trkpt lat="48.317738" lon="10.448232">
<ele>439.918</ele>
<time>2020-09-10T14:05:05Z</time>
</trkpt>
<trkpt lat="48.317722" lon="10.448158">
<ele>439.918</ele>
<time>2020-09-10T14:05:06Z</time>
</trkpt>
<trkpt lat="48.317703" lon="10.448087">
<ele>439.918</ele>
<time>2020-09-10T14:05:07Z</time>
</trkpt>
<trkpt lat="48.317688" lon="10.448016">
<ele>439.918</ele>
<time>2020-09-10T14:05:08Z</time>
</trkpt>
<trkpt lat="48.317665" lon="10.44795">
<ele>440.102</ele>
<time>2020-09-10T14:05:09Z</time>
</trkpt>
<trkpt lat="48.317646" lon="10.447886">
<ele>440.223</ele>
<time>2020-09-10T14:05:10Z</time>
</trkpt>
<trkpt lat="48.317623" lon="10.447825">
<ele>440.335</ele>
<time>2020-09-10T14:05:11Z</time>
</trkpt>
<trkpt lat="48.3176" lon="10.447766">
<ele>440.413</ele>
<time>2020-09-10T14:05:12Z</time>
</trkpt>
<trkpt lat="48.317585" lon="10.44771">
<ele>440.471</ele>
<time>2020-09-10T14:05:13Z</time>
</trkpt>
<trkpt lat="48.317566" lon="10.447655">
<ele>440.507</ele>
<time>2020-09-10T14:05:14Z</time>
</trkpt>
<trkpt lat="48.317551" lon="10.447603">
<ele>440.524</ele>
<time>2020-09-10T14:05:15Z</time>
</trkpt>
<trkpt lat="48.317532" lon="10.447552">
<ele>440.524</ele>
<time>2020-09-10T14:05:16Z</time>
</trkpt>
<trkpt lat="48.317513" lon="10.447498">
<ele>440.524</ele>
<time>2020-09-10T14:05:17Z</time>
</trkpt>
<trkpt lat="48.317493" lon="10.447446">
<ele>440.524</ele>
<time>2020-09-10T14:05:18Z</time>
</trkpt>
<trkpt lat="48.317471" lon="10.44739">
<ele>440.524</ele>
<time>2020-09-10T14:05:19Z</time>
</trkpt>
<trkpt lat="48.317448" lon="10.447331">
<ele>440.524</ele>
<time>2020-09-10T14:05:20Z</time>
</trkpt>
<trkpt lat="48.317421" lon="10.447273">
<ele>440.286</ele>
<time>2020-09-10T14:05:21Z</time>
</trkpt>
<trkpt lat="48.317387" lon="10.447217">
<ele>440.083</ele>
<time>2020-09-10T14:05:22Z</time>
</trkpt>
<trkpt lat="48.317348" lon="10.447159">
<ele>439.916</ele>
<time>2020-09-10T14:05:23Z</time>
</trkpt>
<trkpt lat="48.31731" lon="10.447098">
<ele>439.79</ele>
<time>2020-09-10T14:05:24Z</time>
</trkpt>
<trkpt lat="48.317272" lon="10.447042">
<ele>439.696</ele>
<time>2020-09-10T14:05:25Z</time>
</trkpt>
<trkpt lat="48.31723" lon="10.446985">
<ele>439.63</ele>
<time>2020-09-10T14:05:26Z</time>
</trkpt>
<trkpt lat="48.317181" lon="10.44693">
<ele>439.59</ele>
<time>2020-09-10T14:05:27Z</time>
</trkpt>
<trkpt lat="48.317139" lon="10.446875">
<ele>439.571</ele>
<time>2020-09-10T14:05:28Z</time>
</trkpt>
<trkpt lat="48.317093" lon="10.446817">
<ele>439.571</ele>
<time>2020-09-10T14:05:29Z</time>
</trkpt>
<trkpt lat="48.317047" lon="10.446758">
<ele>439.571</ele>
<time>2020-09-10T14:05:30Z</time>
</trkpt>
<trkpt lat="48.317005" lon="10.446705">
<ele>439.571</ele>
<time>2020-09-10T14:05:31Z</time>
</trkpt>
<trkpt lat="48.316967" lon="10.446651">
<ele>439.571</ele>
<time>2020-09-10T14:05:32Z</time>
</trkpt>
<trkpt lat="48.316921" lon="10.446597">
<ele>439.571</ele>
<time>2020-09-10T14:05:33Z</time>
</trkpt>
<trkpt lat="48.316879" lon="10.446555">
<ele>439.571</ele>
<time>2020-09-10T14:05:34Z</time>
</trkpt>
<trkpt lat="48.316826" lon="10.446528">
<ele>439.571</ele>
<time>2020-09-10T14:05:35Z</time>
</trkpt>
<trkpt lat="48.316772" lon="10.446524">
<ele>439.571</ele>
<time>2020-09-10T14:05:36Z</time>
</trkpt>
<trkpt lat="48.316719" lon="10.446535">
<ele>439.571</ele>
<time>2020-09-10T14:05:37Z</time>
</trkpt>
<trkpt lat="48.316662" lon="10.446557">
<ele>439.571</ele>
<time>2020-09-10T14:05:38Z</time>
</trkpt>
<trkpt lat="48.316608" lon="10.44658">
<ele>439.571</ele>
<time>2020-09-10T14:05:39Z</time>
</trkpt>
<trkpt lat="48.316555" lon="10.446606">
<ele>439.571</ele>
<time>2020-09-10T14:05:40Z</time>
</trkpt>
<trkpt lat="48.316494" lon="10.446629">
<ele>439.571</ele>
<time>2020-09-10T14:05:41Z</time>
</trkpt>
<trkpt lat="48.316437" lon="10.446651">
<ele>439.571</ele>
<time>2020-09-10T14:05:42Z</time>
</trkpt>
<trkpt lat="48.316376" lon="10.446675">
<ele>439.571</ele>
<time>2020-09-10T14:05:43Z</time>
</trkpt>
<trkpt lat="48.316319" lon="10.446698">
<ele>439.571</ele>
<time>2020-09-10T14:05:44Z</time>
</trkpt>
<trkpt lat="48.316257" lon="10.446725">
<ele>439.571</ele>
<time>2020-09-10T14:05:45Z</time>
</trkpt>
<trkpt lat="48.316196" lon="10.446753">
<ele>439.571</ele>
<time>2020-09-10T14:05:46Z</time>
</trkpt>
<trkpt lat="48.316132" lon="10.44678">
<ele>439.571</ele>
<time>2020-09-10T14:05:47Z</time>
</trkpt>
<trkpt lat="48.316071" lon="10.446807">
<ele>439.571</ele>
<time>2020-09-10T14:05:48Z</time>
</trkpt>
<trkpt lat="48.31601" lon="10.446836">
<ele>439.571</ele>
<time>2020-09-10T14:05:49Z</time>
</trkpt>
<trkpt lat="48.315952" lon="10.446865">
<ele>439.571</ele>
<time>2020-09-10T14:05:50Z</time>
</trkpt>
<trkpt lat="48.315895" lon="10.446893">
<ele>439.571</ele>
<time>2020-09-10T14:05:51Z</time>
</trkpt>
<trkpt lat="48.315838" lon="10.44692">
<ele>439.571</ele>
<time>2020-09-10T14:05:52Z</time>
</trkpt>
<trkpt lat="48.315777" lon="10.446945">
<ele>439.571</ele>
<time>2020-09-10T14:05:53Z</time>
</trkpt>
<trkpt lat="48.31572" lon="10.446968">
<ele>439.571</ele>
<time>2020-09-10T14:05:54Z</time>
</trkpt>
<trkpt lat="48.315662" lon="10.446994">
<ele>439.571</ele>
<time>2020-09-10T14:05:55Z</time>
</trkpt>
<trkpt lat="48.315605" lon="10.447019">
<ele>439.571</ele>
<time>2020-09-10T14:05:56Z</time>
</trkpt>
<trkpt lat="48.315544" lon="10.447045">
<ele>439.571</ele>
<time>2020-09-10T14:05:57Z</time>
</trkpt>
<trkpt lat="48.315487" lon="10.44707">
<ele>439.571</ele>
<time>2020-09-10T14:05:58Z</time>
</trkpt>
<trkpt lat="48.31543" lon="10.447094">
<ele>439.571</ele>
<time>2020-09-10T14:05:59Z</time>
</trkpt>
<trkpt lat="48.315372" lon="10.447115">
<ele>439.571</ele>
<time>2020-09-10T14:06:00Z</time>
</trkpt>
<trkpt lat="48.315315" lon="10.447138">
<ele>439.571</ele>
<time>2020-09-10T14:06:01Z</time>
</trkpt>
<trkpt lat="48.315254" lon="10.447164">
<ele>439.571</ele>
<time>2020-09-10T14:06:02Z</time>
</trkpt>
<trkpt lat="48.315197" lon="10.447186">
<ele>439.571</ele>
<time>2020-09-10T14:06:03Z</time>
</trkpt>
<trkpt lat="48.31514" lon="10.447209">
<ele>439.571</ele>
<time>2020-09-10T14:06:04Z</time>
</trkpt>
<trkpt lat="48.315079" lon="10.447235">
<ele>439.571</ele>
<time>2020-09-10T14:06:05Z</time>
</trkpt>
<trkpt lat="48.315022" lon="10.44726">
<ele>439.571</ele>
<time>2020-09-10T14:06:06Z</time>
</trkpt>
<trkpt lat="48.314957" lon="10.447283">
<ele>439.571</ele>
<time>2020-09-10T14:06:07Z</time>
</trkpt>
<trkpt lat="48.314899" lon="10.447308">
<ele>439.571</ele>
<time>2020-09-10T14:06:08Z</time>
</trkpt>
<trkpt lat="48.314842" lon="10.447333">
<ele>439.571</ele>
<time>2020-09-10T14:06:09Z</time>
</trkpt>
<trkpt lat="48.314781" lon="10.447356">
<ele>439.571</ele>
<time>2020-09-10T14:06:10Z</time>
</trkpt>
<trkpt lat="48.31472" lon="10.44738">
<ele>439.571</ele>
<time>2020-09-10T14:06:11Z</time>
</trkpt>
<trkpt lat="48.314663" lon="10.447404">
<ele>439.571</ele>
<time>2020-09-10T14:06:12Z</time>
</trkpt>
<trkpt lat="48.314602" lon="10.447427">
<ele>439.571</ele>
<time>2020-09-10T14:06:13Z</time>
</trkpt>
<trkpt lat="48.314541" lon="10.44745">
<ele>439.571</ele>
<time>2020-09-10T14:06:14Z</time>
</trkpt>
<trkpt lat="48.314484" lon="10.447472">
<ele>439.571</ele>
<time>2020-09-10T14:06:15Z</time>
</trkpt>
<trkpt lat="48.314426" lon="10.447496">
<ele>439.571</ele>
<time>2020-09-10T14:06:16Z</time>
</trkpt>
<trkpt lat="48.314365" lon="10.447519">
<ele>439.571</ele>
<time>2020-09-10T14:06:17Z</time>
</trkpt>
<trkpt lat="48.314304" lon="10.447543">
<ele>439.571</ele>
<time>2020-09-10T14:06:18Z</time>
</trkpt>
<trkpt lat="48.314247" lon="10.447567">
<ele>439.571</ele>
<time>2020-09-10T14:06:19Z</time>
</trkpt>
<trkpt lat="48.314186" lon="10.447588">
<ele>439.571</ele>
<time>2020-09-10T14:06:20Z</time>
</trkpt>
<trkpt lat="48.314129" lon="10.447612">
<ele>439.571</ele>
<time>2020-09-10T14:06:21Z</time>
</trkpt>
<trkpt lat="48.314072" lon="10.447635">
<ele>439.571</ele>
<time>2020-09-10T14:06:22Z</time>
</trkpt>
<trkpt lat="48.314011" lon="10.447659">
<ele>439.571</ele>
<time>2020-09-10T14:06:23Z</time>
</trkpt>
<trkpt lat="48.313953" lon="10.447685">
<ele>439.571</ele>
<time>2020-09-10T14:06:24Z</time>
</trkpt>
<trkpt lat="48.313896" lon="10.447714">
<ele>439.571</ele>
<time>2020-09-10T14:06:25Z</time>
</trkpt>
<trkpt lat="48.313839" lon="10.44774">
<ele>439.571</ele>
<time>2020-09-10T14:06:26Z</time>
</trkpt>
<trkpt lat="48.313782" lon="10.447763">
<ele>439.571</ele>
<time>2020-09-10T14:06:27Z</time>
</trkpt>
<trkpt lat="48.313721" lon="10.447787">
<ele>439.571</ele>
<time>2020-09-10T14:06:28Z</time>
</trkpt>
<trkpt lat="48.31366" lon="10.44781">
<ele>439.571</ele>
<time>2020-09-10T14:06:29Z</time>
</trkpt>
<trkpt lat="48.313602" lon="10.447835">
<ele>439.571</ele>
<time>2020-09-10T14:06:30Z</time>
</trkpt>
<trkpt lat="48.313545" lon="10.447861">
<ele>439.571</ele>
<time>2020-09-10T14:06:31Z</time>
</trkpt>
<trkpt lat="48.313488" lon="10.447886">
<ele>439.571</ele>
<time>2020-09-10T14:06:32Z</time>
</trkpt>
<trkpt lat="48.313423" lon="10.447911">
<ele>439.571</ele>
<time>2020-09-10T14:06:33Z</time>
</trkpt>
<trkpt lat="48.313366" lon="10.447934">
<ele>439.571</ele>
<time>2020-09-10T14:06:34Z</time>
</trkpt>
<trkpt lat="48.313309" lon="10.447959">
<ele>439.571</ele>
<time>2020-09-10T14:06:35Z</time>
</trkpt>
<trkpt lat="48.313251" lon="10.447984">
<ele>439.571</ele>
<time>2020-09-10T14:06:36Z</time>
</trkpt>
<trkpt lat="48.313198" lon="10.448007">
<ele>439.571</ele>
<time>2020-09-10T14:06:37Z</time>
</trkpt>
<trkpt lat="48.313141" lon="10.448029">
<ele>439.571</ele>
<time>2020-09-10T14:06:38Z</time>
</trkpt>
<trkpt lat="48.313084" lon="10.448051">
<ele>439.571</ele>
<time>2020-09-10T14:06:39Z</time>
</trkpt>
<trkpt lat="48.31303" lon="10.448074">
<ele>439.571</ele>
<time>2020-09-10T14:06:40Z</time>
</trkpt>
<trkpt lat="48.312973" lon="10.448098">
<ele>439.571</ele>
<time>2020-09-10T14:06:41Z</time>
</trkpt>
<trkpt lat="48.312923" lon="10.448122">
<ele>439.571</ele>
<time>2020-09-10T14:06:42Z</time>
</trkpt>
<trkpt lat="48.31287" lon="10.448147">
<ele>439.571</ele>
<time>2020-09-10T14:06:43Z</time>
</trkpt>
<trkpt lat="48.312817" lon="10.448169">
<ele>439.571</ele>
<time>2020-09-10T14:06:44Z</time>
</trkpt>
<trkpt lat="48.312767" lon="10.448188">
<ele>439.571</ele>
<time>2020-09-10T14:06:45Z</time>
</trkpt>
<trkpt lat="48.312721" lon="10.448212">
<ele>439.571</ele>
<time>2020-09-10T14:06:46Z</time>
</trkpt>
<trkpt lat="48.312679" lon="10.448245">
<ele>439.571</ele>
<time>2020-09-10T14:06:47Z</time>
</trkpt>
<trkpt lat="48.312649" lon="10.448293">
<ele>439.571</ele>
<time>2020-09-10T14:06:48Z</time>
</trkpt>
<trkpt lat="48.31263" lon="10.448359">
<ele>439.571</ele>
<time>2020-09-10T14:06:49Z</time>
</trkpt>
<trkpt lat="48.312622" lon="10.448435">
<ele>439.571</ele>
<time>2020-09-10T14:06:50Z</time>
</trkpt>
<trkpt lat="48.312626" lon="10.448508">
<ele>439.571</ele>
<time>2020-09-10T14:06:51Z</time>
</trkpt>
<trkpt lat="48.312634" lon="10.448586">
<ele>439.571</ele>
<time>2020-09-10T14:06:52Z</time>
</trkpt>
<trkpt lat="48.312645" lon="10.448662">
<ele>439.571</ele>
<time>2020-09-10T14:06:53Z</time>
</trkpt>
<trkpt lat="48.312656" lon="10.448738">
<ele>439.571</ele>
<time>2020-09-10T14:06:54Z</time>
</trkpt>
<trkpt lat="48.312675" lon="10.448814">
<ele>439.571</ele>
<time>2020-09-10T14:06:55Z</time>
</trkpt>
<trkpt lat="48.312687" lon="10.448894">
<ele>439.571</ele>
<time>2020-09-10T14:06:56Z</time>
</trkpt>
<trkpt lat="48.312702" lon="10.448969">
<ele>439.571</ele>
<time>2020-09-10T14:06:57Z</time>
</trkpt>
<trkpt lat="48.312721" lon="10.449045">
<ele>439.571</ele>
<time>2020-09-10T14:06:58Z</time>
</trkpt>
<trkpt lat="48.31274" lon="10.449121">
<ele>439.571</ele>
<time>2020-09-10T14:06:59Z</time>
</trkpt>
<trkpt lat="48.312752" lon="10.449198">
<ele>439.765</ele>
<time>2020-09-10T14:07:00Z</time>
</trkpt>
<trkpt lat="48.312771" lon="10.449277">
<ele>439.947</ele>
<time>2020-09-10T14:07:01Z</time>
</trkpt>
<trkpt lat="48.312786" lon="10.449353">
<ele>440.097</ele>
<time>2020-09-10T14:07:02Z</time>
</trkpt>
<trkpt lat="48.312801" lon="10.449424">
<ele>440.216</ele>
<time>2020-09-10T14:07:03Z</time>
</trkpt>
<trkpt lat="48.312809" lon="10.449489">
<ele>440.307</ele>
<time>2020-09-10T14:07:04Z</time>
</trkpt>
<trkpt lat="48.31282" lon="10.449553">
<ele>440.374</ele>
<time>2020-09-10T14:07:05Z</time>
</trkpt>
<trkpt lat="48.312832" lon="10.449616">
<ele>440.416</ele>
<time>2020-09-10T14:07:06Z</time>
</trkpt>
<trkpt lat="48.312836" lon="10.449681">
<ele>440.437</ele>
<time>2020-09-10T14:07:07Z</time>
</trkpt>
<trkpt lat="48.312828" lon="10.449742">
<ele>440.437</ele>
<time>2020-09-10T14:07:08Z</time>
</trkpt>
<trkpt lat="48.312809" lon="10.449786">
<ele>440.437</ele>
<time>2020-09-10T14:07:09Z</time>
</trkpt>
<trkpt lat="48.312778" lon="10.449823">
<ele>440.437</ele>
<time>2020-09-10T14:07:10Z</time>
</trkpt>
<trkpt lat="48.31274" lon="10.449848">
<ele>440.437</ele>
<time>2020-09-10T14:07:11Z</time>
</trkpt>
<trkpt lat="48.312698" lon="10.449872">
<ele>440.437</ele>
<time>2020-09-10T14:07:12Z</time>
</trkpt>
<trkpt lat="48.312649" lon="10.449897">
<ele>440.437</ele>
<time>2020-09-10T14:07:13Z</time>
</trkpt>
<trkpt lat="48.312603" lon="10.449924">
<ele>440.437</ele>
<time>2020-09-10T14:07:14Z</time>
</trkpt>
<trkpt lat="48.312546" lon="10.44995">
<ele>440.437</ele>
<time>2020-09-10T14:07:15Z</time>
</trkpt>
<trkpt lat="48.312496" lon="10.449973">
<ele>440.437</ele>
<time>2020-09-10T14:07:16Z</time>
</trkpt>
<trkpt lat="48.312443" lon="10.449993">
<ele>440.437</ele>
<time>2020-09-10T14:07:17Z</time>
</trkpt>
<trkpt lat="48.312382" lon="10.450012">
<ele>440.437</ele>
<time>2020-09-10T14:07:18Z</time>
</trkpt>
<trkpt lat="48.312328" lon="10.450029">
<ele>440.437</ele>
<time>2020-09-10T14:07:19Z</time>
</trkpt>
<trkpt lat="48.312271" lon="10.450046">
<ele>440.437</ele>
<time>2020-09-10T14:07:20Z</time>
</trkpt>
<trkpt lat="48.312218" lon="10.450058">
<ele>440.437</ele>
<time>2020-09-10T14:07:21Z</time>
</trkpt>
<trkpt lat="48.31216" lon="10.450071">
<ele>440.437</ele>
<time>2020-09-10T14:07:22Z</time>
</trkpt>
<trkpt lat="48.312103" lon="10.450087">
<ele>440.437</ele>
<time>2020-09-10T14:07:23Z</time>
</trkpt>
<trkpt lat="48.31205" lon="10.450105">
<ele>440.437</ele>
<time>2020-09-10T14:07:24Z</time>
</trkpt>
<trkpt lat="48.311989" lon="10.450124">
<ele>440.437</ele>
<time>2020-09-10T14:07:25Z</time>
</trkpt>
<trkpt lat="48.311932" lon="10.450142">
<ele>440.437</ele>
<time>2020-09-10T14:07:26Z</time>
</trkpt>
<trkpt lat="48.311878" lon="10.450159">
<ele>440.437</ele>
<time>2020-09-10T14:07:27Z</time>
</trkpt>
<trkpt lat="48.311821" lon="10.450176">
<ele>440.437</ele>
<time>2020-09-10T14:07:28Z</time>
</trkpt>
<trkpt lat="48.311764" lon="10.450196">
<ele>440.437</ele>
<time>2020-09-10T14:07:29Z</time>
</trkpt>
<trkpt lat="48.311703" lon="10.450218">
<ele>440.437</ele>
<time>2020-09-10T14:07:30Z</time>
</trkpt>
<trkpt lat="48.311642" lon="10.45024">
<ele>440.437</ele>
<time>2020-09-10T14:07:31Z</time>
</trkpt>
<trkpt lat="48.311581" lon="10.450264">
<ele>440.437</ele>
<time>2020-09-10T14:07:32Z</time>
</trkpt>
<trkpt lat="48.31152" lon="10.450283">
<ele>440.437</ele>
<time>2020-09-10T14:07:33Z</time>
</trkpt>
<trkpt lat="48.311462" lon="10.450303">
<ele>440.437</ele>
<time>2020-09-10T14:07:34Z</time>
</trkpt>
<trkpt lat="48.311401" lon="10.450323">
<ele>440.437</ele>
<time>2020-09-10T14:07:35Z</time>
</trkpt>
<trkpt lat="48.31134" lon="10.450339">
<ele>440.437</ele>
<time>2020-09-10T14:07:36Z</time>
</trkpt>
<trkpt lat="48.311275" lon="10.450356">
<ele>440.682</ele>
<time>2020-09-10T14:07:37Z</time>
</trkpt>
<trkpt lat="48.311218" lon="10.450372">
<ele>440.874</ele>
<time>2020-09-10T14:07:38Z</time>
</trkpt>
<trkpt lat="48.311157" lon="10.45039">
<ele>441.021</ele>
<time>2020-09-10T14:07:39Z</time>
</trkpt>
<trkpt lat="48.3111" lon="10.450406">
<ele>441.124</ele>
<time>2020-09-10T14:07:40Z</time>
</trkpt>
<trkpt lat="48.311043" lon="10.450425">
<ele>441.234</ele>
<time>2020-09-10T14:07:41Z</time>
</trkpt>
<trkpt lat="48.310982" lon="10.450441">
<ele>441.314</ele>
<time>2020-09-10T14:07:42Z</time>
</trkpt>
<trkpt lat="48.310921" lon="10.45046">
<ele>441.365</ele>
<time>2020-09-10T14:07:43Z</time>
</trkpt>
<trkpt lat="48.310863" lon="10.450478">
<ele>441.39</ele>
<time>2020-09-10T14:07:44Z</time>
</trkpt>
<trkpt lat="48.310806" lon="10.450495">
<ele>441.39</ele>
<time>2020-09-10T14:07:45Z</time>
</trkpt>
<trkpt lat="48.310749" lon="10.450511">
<ele>441.39</ele>
<time>2020-09-10T14:07:46Z</time>
</trkpt>
<trkpt lat="48.310688" lon="10.450532">
<ele>441.39</ele>
<time>2020-09-10T14:07:47Z</time>
</trkpt>
<trkpt lat="48.310631" lon="10.450551">
<ele>441.39</ele>
<time>2020-09-10T14:07:48Z</time>
</trkpt>
<trkpt lat="48.310574" lon="10.45057">
<ele>441.39</ele>
<time>2020-09-10T14:07:49Z</time>
</trkpt>
<trkpt lat="48.310516" lon="10.450588">
<ele>441.39</ele>
<time>2020-09-10T14:07:50Z</time>
</trkpt>
<trkpt lat="48.310459" lon="10.450608">
<ele>441.39</ele>
<time>2020-09-10T14:07:51Z</time>
</trkpt>
<trkpt lat="48.310398" lon="10.45063">
<ele>441.39</ele>
<time>2020-09-10T14:07:52Z</time>
</trkpt>
<trkpt lat="48.310341" lon="10.450653">
<ele>441.39</ele>
<time>2020-09-10T14:07:53Z</time>
</trkpt>
<trkpt lat="48.310287" lon="10.450681">
<ele>441.39</ele>
<time>2020-09-10T14:07:54Z</time>
</trkpt>
<trkpt lat="48.31023" lon="10.450706">
<ele>441.39</ele>
<time>2020-09-10T14:07:55Z</time>
</trkpt>
<trkpt lat="48.310173" lon="10.450733">
<ele>441.39</ele>
<time>2020-09-10T14:07:56Z</time>
</trkpt>
<trkpt lat="48.310123" lon="10.450762">
<ele>441.39</ele>
<time>2020-09-10T14:07:57Z</time>
</trkpt>
<trkpt lat="48.310066" lon="10.450791">
<ele>441.39</ele>
<time>2020-09-10T14:07:58Z</time>
</trkpt>
<trkpt lat="48.310013" lon="10.450823">
<ele>441.39</ele>
<time>2020-09-10T14:07:59Z</time>
</trkpt>
<trkpt lat="48.309967" lon="10.45086">
<ele>441.39</ele>
<time>2020-09-10T14:08:00Z</time>
</trkpt>
<trkpt lat="48.30991" lon="10.450898">
<ele>441.39</ele>
<time>2020-09-10T14:08:01Z</time>
</trkpt>
<trkpt lat="48.309864" lon="10.450942">
<ele>441.39</ele>
<time>2020-09-10T14:08:02Z</time>
</trkpt>
<trkpt lat="48.309811" lon="10.450989">
<ele>441.39</ele>
<time>2020-09-10T14:08:03Z</time>
</trkpt>
<trkpt lat="48.309769" lon="10.451039">
<ele>441.39</ele>
<time>2020-09-10T14:08:04Z</time>
</trkpt>
<trkpt lat="48.309723" lon="10.451089">
<ele>441.39</ele>
<time>2020-09-10T14:08:05Z</time>
</trkpt>
<trkpt lat="48.309677" lon="10.451137">
<ele>441.39</ele>
<time>2020-09-10T14:08:06Z</time>
</trkpt>
<trkpt lat="48.309635" lon="10.451186">
<ele>441.39</ele>
<time>2020-09-10T14:08:07Z</time>
</trkpt>
<trkpt lat="48.309589" lon="10.451237">
<ele>441.39</ele>
<time>2020-09-10T14:08:08Z</time>
</trkpt>
<trkpt lat="48.309544" lon="10.451286">
<ele>441.39</ele>
<time>2020-09-10T14:08:09Z</time>
</trkpt>
<trkpt lat="48.309498" lon="10.451342">
<ele>441.39</ele>
<time>2020-09-10T14:08:10Z</time>
</trkpt>
<trkpt lat="48.309448" lon="10.451397">
<ele>441.39</ele>
<time>2020-09-10T14:08:11Z</time>
</trkpt>
<trkpt lat="48.309406" lon="10.451453">
<ele>441.39</ele>
<time>2020-09-10T14:08:12Z</time>
</trkpt>
<trkpt lat="48.309361" lon="10.451512">
<ele>441.39</ele>
<time>2020-09-10T14:08:13Z</time>
</trkpt>
<trkpt lat="48.309319" lon="10.451569">
<ele>441.39</ele>
<time>2020-09-10T14:08:14Z</time>
</trkpt>
<trkpt lat="48.309277" lon="10.451623">
<ele>441.39</ele>
<time>2020-09-10T14:08:15Z</time>
</trkpt>
<trkpt lat="48.309231" lon="10.451678">
<ele>441.39</ele>
<time>2020-09-10T14:08:16Z</time>
</trkpt>
<trkpt lat="48.309185" lon="10.451733">
<ele>441.39</ele>
<time>2020-09-10T14:08:17Z</time>
</trkpt>
<trkpt lat="48.309143" lon="10.451787">
<ele>441.39</ele>
<time>2020-09-10T14:08:18Z</time>
</trkpt>
<trkpt lat="48.309097" lon="10.451841">
<ele>441.39</ele>
<time>2020-09-10T14:08:19Z</time>
</trkpt>
<trkpt lat="48.309052" lon="10.451899">
<ele>441.39</ele>
<time>2020-09-10T14:08:20Z</time>
</trkpt>
<trkpt lat="48.309006" lon="10.451953">
<ele>441.39</ele>
<time>2020-09-10T14:08:21Z</time>
</trkpt>
<trkpt lat="48.30896" lon="10.452003">
<ele>441.39</ele>
<time>2020-09-10T14:08:22Z</time>
</trkpt>
<trkpt lat="48.30891" lon="10.452055">
<ele>441.39</ele>
<time>2020-09-10T14:08:23Z</time>
</trkpt>
<trkpt lat="48.308861" lon="10.452107">
<ele>441.39</ele>
<time>2020-09-10T14:08:24Z</time>
</trkpt>
<trkpt lat="48.308815" lon="10.45216">
<ele>441.39</ele>
<time>2020-09-10T14:08:25Z</time>
</trkpt>
<trkpt lat="48.308765" lon="10.452213">
<ele>441.39</ele>
<time>2020-09-10T14:08:26Z</time>
</trkpt>
<trkpt lat="48.30872" lon="10.452269">
<ele>441.39</ele>
<time>2020-09-10T14:08:27Z</time>
</trkpt>
<trkpt lat="48.308674" lon="10.452321">
<ele>441.39</ele>
<time>2020-09-10T14:08:28Z</time>
</trkpt>
<trkpt lat="48.308624" lon="10.452375">
<ele>441.39</ele>
<time>2020-09-10T14:08:29Z</time>
</trkpt>
<trkpt lat="48.308575" lon="10.452428">
<ele>441.39</ele>
<time>2020-09-10T14:08:30Z</time>
</trkpt>
<trkpt lat="48.308533" lon="10.452482">
<ele>441.39</ele>
<time>2020-09-10T14:08:31Z</time>
</trkpt>
<trkpt lat="48.308483" lon="10.452535">
<ele>441.39</ele>
<time>2020-09-10T14:08:32Z</time>
</trkpt>
<trkpt lat="48.308437" lon="10.452588">
<ele>441.39</ele>
<time>2020-09-10T14:08:33Z</time>
</trkpt>
<trkpt lat="48.308395" lon="10.452641">
<ele>441.39</ele>
<time>2020-09-10T14:08:34Z</time>
</trkpt>
<trkpt lat="48.308346" lon="10.45269">
<ele>441.39</ele>
<time>2020-09-10T14:08:35Z</time>
</trkpt>
<trkpt lat="48.308304" lon="10.452738">
<ele>441.39</ele>
<time>2020-09-10T14:08:36Z</time>
</trkpt>
<trkpt lat="48.308258" lon="10.452786">
<ele>441.39</ele>
<time>2020-09-10T14:08:37Z</time>
</trkpt>
<trkpt lat="48.308212" lon="10.452833">
<ele>441.39</ele>
<time>2020-09-10T14:08:38Z</time>
</trkpt>
<trkpt lat="48.308178" lon="10.452878">
<ele>441.39</ele>
<time>2020-09-10T14:08:39Z</time>
</trkpt>
<trkpt lat="48.308136" lon="10.45292">
<ele>441.39</ele>
<time>2020-09-10T14:08:40Z</time>
</trkpt>
<trkpt lat="48.308098" lon="10.452963">
<ele>441.39</ele>
<time>2020-09-10T14:08:41Z</time>
</trkpt>
<trkpt lat="48.308064" lon="10.453004">
<ele>441.39</ele>
<time>2020-09-10T14:08:42Z</time>
</trkpt>
<trkpt lat="48.308033" lon="10.45304">
<ele>441.39</ele>
<time>2020-09-10T14:08:43Z</time>
</trkpt>
<trkpt lat="48.308006" lon="10.453072">
<ele>441.39</ele>
<time>2020-09-10T14:08:44Z</time>
</trkpt>
<trkpt lat="48.307987" lon="10.453096">
<ele>441.39</ele>
<time>2020-09-10T14:08:45Z</time>
</trkpt>
<trkpt lat="48.30798" lon="10.453112">
<ele>441.39</ele>
<time>2020-09-10T14:08:46Z</time>
</trkpt>
<trkpt lat="48.30798" lon="10.453114">
<ele>441.39</ele>
<time>2020-09-10T14:08:47Z</time>
</trkpt>
<trkpt lat="48.30798" lon="10.453117">
<ele>441.566</ele>
<time>2020-09-10T14:08:49Z</time>
</trkpt>
<trkpt lat="48.307968" lon="10.453126">
<ele>441.713</ele>
<time>2020-09-10T14:08:50Z</time>
</trkpt>
<trkpt lat="48.307957" lon="10.453142">
<ele>441.841</ele>
<time>2020-09-10T14:08:51Z</time>
</trkpt>
<trkpt lat="48.307941" lon="10.453167">
<ele>441.98</ele>
<time>2020-09-10T14:08:52Z</time>
</trkpt>
<trkpt lat="48.307915" lon="10.453197">
<ele>442.115</ele>
<time>2020-09-10T14:08:53Z</time>
</trkpt>
<trkpt lat="48.307884" lon="10.453233">
<ele>442.238</ele>
<time>2020-09-10T14:08:54Z</time>
</trkpt>
<trkpt lat="48.307854" lon="10.453273">
<ele>442.322</ele>
<time>2020-09-10T14:08:55Z</time>
</trkpt>
<trkpt lat="48.307816" lon="10.453314">
<ele>442.343</ele>
<time>2020-09-10T14:08:56Z</time>
</trkpt>
<trkpt lat="48.307774" lon="10.453355">
<ele>442.343</ele>
<time>2020-09-10T14:08:57Z</time>
</trkpt>
<trkpt lat="48.307732" lon="10.453398">
<ele>442.343</ele>
<time>2020-09-10T14:08:58Z</time>
</trkpt>
<trkpt lat="48.307686" lon="10.453442">
<ele>442.343</ele>
<time>2020-09-10T14:08:59Z</time>
</trkpt>
<trkpt lat="48.30764" lon="10.453485">
<ele>442.343</ele>
<time>2020-09-10T14:09:00Z</time>
</trkpt>
<trkpt lat="48.30759" lon="10.453526">
<ele>442.343</ele>
<time>2020-09-10T14:09:01Z</time>
</trkpt>
<trkpt lat="48.307545" lon="10.45356">
<ele>442.343</ele>
<time>2020-09-10T14:09:02Z</time>
</trkpt>
<trkpt lat="48.307503" lon="10.453588">
<ele>442.343</ele>
<time>2020-09-10T14:09:03Z</time>
</trkpt>
<trkpt lat="48.307453" lon="10.453616">
<ele>442.343</ele>
<time>2020-09-10T14:09:04Z</time>
</trkpt>
<trkpt lat="48.307404" lon="10.453643">
<ele>442.343</ele>
<time>2020-09-10T14:09:05Z</time>
</trkpt>
<trkpt lat="48.307354" lon="10.453667">
<ele>442.343</ele>
<time>2020-09-10T14:09:06Z</time>
</trkpt>
<trkpt lat="48.307301" lon="10.453689">
<ele>442.343</ele>
<time>2020-09-10T14:09:07Z</time>
</trkpt>
<trkpt lat="48.307247" lon="10.453709">
<ele>442.343</ele>
<time>2020-09-10T14:09:08Z</time>
</trkpt>
<trkpt lat="48.30719" lon="10.453735">
<ele>442.343</ele>
<time>2020-09-10T14:09:09Z</time>
</trkpt>
<trkpt lat="48.307133" lon="10.45376">
<ele>442.343</ele>
<time>2020-09-10T14:09:10Z</time>
</trkpt>
<trkpt lat="48.307076" lon="10.453781">
<ele>442.343</ele>
<time>2020-09-10T14:09:11Z</time>
</trkpt>
<trkpt lat="48.307018" lon="10.4538">
<ele>442.343</ele>
<time>2020-09-10T14:09:12Z</time>
</trkpt>
<trkpt lat="48.306961" lon="10.453819">
<ele>442.343</ele>
<time>2020-09-10T14:09:13Z</time>
</trkpt>
<trkpt lat="48.306904" lon="10.453842">
<ele>442.343</ele>
<time>2020-09-10T14:09:14Z</time>
</trkpt>
<trkpt lat="48.306847" lon="10.453861">
<ele>442.343</ele>
<time>2020-09-10T14:09:15Z</time>
</trkpt>
<trkpt lat="48.306789" lon="10.453882">
<ele>442.343</ele>
<time>2020-09-10T14:09:16Z</time>
</trkpt>
<trkpt lat="48.306736" lon="10.453903">
<ele>442.343</ele>
<time>2020-09-10T14:09:17Z</time>
</trkpt>
<trkpt lat="48.306675" lon="10.45393">
<ele>442.609</ele>
<time>2020-09-10T14:09:18Z</time>
</trkpt>
<trkpt lat="48.306618" lon="10.453958">
<ele>442.819</ele>
<time>2020-09-10T14:09:19Z</time>
</trkpt>
<trkpt lat="48.306564" lon="10.453985">
<ele>442.985</ele>
<time>2020-09-10T14:09:20Z</time>
</trkpt>
<trkpt lat="48.306511" lon="10.454014">
<ele>443.095</ele>
<time>2020-09-10T14:09:21Z</time>
</trkpt>
<trkpt lat="48.306454" lon="10.45404">
<ele>443.214</ele>
<time>2020-09-10T14:09:22Z</time>
</trkpt>
<trkpt lat="48.306396" lon="10.454064">
<ele>443.301</ele>
<time>2020-09-10T14:09:23Z</time>
</trkpt>
<trkpt lat="48.306343" lon="10.454092">
<ele>443.357</ele>
<time>2020-09-10T14:09:24Z</time>
</trkpt>
<trkpt lat="48.306286" lon="10.454121">
<ele>443.383</ele>
<time>2020-09-10T14:09:25Z</time>
</trkpt>
<trkpt lat="48.306229" lon="10.454148">
<ele>443.383</ele>
<time>2020-09-10T14:09:26Z</time>
</trkpt>
<trkpt lat="48.306175" lon="10.454177">
<ele>443.383</ele>
<time>2020-09-10T14:09:27Z</time>
</trkpt>
<trkpt lat="48.306118" lon="10.4542">
<ele>443.383</ele>
<time>2020-09-10T14:09:28Z</time>
</trkpt>
<trkpt lat="48.306061" lon="10.454224">
<ele>443.383</ele>
<time>2020-09-10T14:09:29Z</time>
</trkpt>
<trkpt lat="48.306004" lon="10.45425">
<ele>443.383</ele>
<time>2020-09-10T14:09:30Z</time>
</trkpt>
<trkpt lat="48.30595" lon="10.454278">
<ele>443.383</ele>
<time>2020-09-10T14:09:31Z</time>
</trkpt>
<trkpt lat="48.305893" lon="10.454303">
<ele>443.383</ele>
<time>2020-09-10T14:09:32Z</time>
</trkpt>
<trkpt lat="48.30584" lon="10.45433">
<ele>443.383</ele>
<time>2020-09-10T14:09:33Z</time>
</trkpt>
<trkpt lat="48.305786" lon="10.454357">
<ele>443.383</ele>
<time>2020-09-10T14:09:34Z</time>
</trkpt>
<trkpt lat="48.305733" lon="10.454378">
<ele>443.383</ele>
<time>2020-09-10T14:09:35Z</time>
</trkpt>
<trkpt lat="48.305679" lon="10.4544">
<ele>443.383</ele>
<time>2020-09-10T14:09:36Z</time>
</trkpt>
<trkpt lat="48.30563" lon="10.454423">
<ele>443.383</ele>
<time>2020-09-10T14:09:37Z</time>
</trkpt>
<trkpt lat="48.305573" lon="10.45445">
<ele>443.602</ele>
<time>2020-09-10T14:09:38Z</time>
</trkpt>
<trkpt lat="48.305527" lon="10.454477">
<ele>443.776</ele>
<time>2020-09-10T14:09:39Z</time>
</trkpt>
<trkpt lat="48.30547" lon="10.454502">
<ele>443.912</ele>
<time>2020-09-10T14:09:40Z</time>
</trkpt>
<trkpt lat="48.305416" lon="10.454527">
<ele>444.007</ele>
<time>2020-09-10T14:09:41Z</time>
</trkpt>
<trkpt lat="48.305367" lon="10.454553">
<ele>444.108</ele>
<time>2020-09-10T14:09:42Z</time>
</trkpt>
<trkpt lat="48.305309" lon="10.454578">
<ele>444.181</ele>
<time>2020-09-10T14:09:43Z</time>
</trkpt>
<trkpt lat="48.305256" lon="10.454603">
<ele>444.228</ele>
<time>2020-09-10T14:09:44Z</time>
</trkpt>
<trkpt lat="48.305202" lon="10.454628">
<ele>444.25</ele>
<time>2020-09-10T14:09:45Z</time>
</trkpt>
<trkpt lat="48.305145" lon="10.454649">
<ele>444.25</ele>
<time>2020-09-10T14:09:46Z</time>
</trkpt>
<trkpt lat="48.305096" lon="10.454672">
<ele>444.25</ele>
<time>2020-09-10T14:09:47Z</time>
</trkpt>
<trkpt lat="48.305046" lon="10.454695">
<ele>444.25</ele>
<time>2020-09-10T14:09:48Z</time>
</trkpt>
<trkpt lat="48.304989" lon="10.454721">
<ele>444.25</ele>
<time>2020-09-10T14:09:49Z</time>
</trkpt>
<trkpt lat="48.304935" lon="10.454748">
<ele>444.25</ele>
<time>2020-09-10T14:09:50Z</time>
</trkpt>
<trkpt lat="48.304882" lon="10.454775">
<ele>444.25</ele>
<time>2020-09-10T14:09:51Z</time>
</trkpt>
<trkpt lat="48.304825" lon="10.4548">
<ele>444.25</ele>
<time>2020-09-10T14:09:52Z</time>
</trkpt>
<trkpt lat="48.304771" lon="10.454825">
<ele>444.25</ele>
<time>2020-09-10T14:09:53Z</time>
</trkpt>
<trkpt lat="48.304722" lon="10.45485">
<ele>444.25</ele>
<time>2020-09-10T14:09:54Z</time>
</trkpt>
<trkpt lat="48.304665" lon="10.454877">
<ele>444.25</ele>
<time>2020-09-10T14:09:55Z</time>
</trkpt>
<trkpt lat="48.304611" lon="10.454903">
<ele>444.25</ele>
<time>2020-09-10T14:09:56Z</time>
</trkpt>
<trkpt lat="48.304558" lon="10.454927">
<ele>444.25</ele>
<time>2020-09-10T14:09:57Z</time>
</trkpt>
<trkpt lat="48.304501" lon="10.45495">
<ele>444.25</ele>
<time>2020-09-10T14:09:58Z</time>
</trkpt>
<trkpt lat="48.304447" lon="10.454971">
<ele>444.25</ele>
<time>2020-09-10T14:09:59Z</time>
</trkpt>
<trkpt lat="48.304394" lon="10.454993">
<ele>444.25</ele>
<time>2020-09-10T14:10:00Z</time>
</trkpt>
<trkpt lat="48.304337" lon="10.455017">
<ele>444.25</ele>
<time>2020-09-10T14:10:01Z</time>
</trkpt>
<trkpt lat="48.304283" lon="10.45504">
<ele>444.25</ele>
<time>2020-09-10T14:10:02Z</time>
</trkpt>
<trkpt lat="48.304226" lon="10.455064">
<ele>444.25</ele>
<time>2020-09-10T14:10:03Z</time>
</trkpt>
<trkpt lat="48.304169" lon="10.455091">
<ele>444.25</ele>
<time>2020-09-10T14:10:04Z</time>
</trkpt>
<trkpt lat="48.304115" lon="10.455115">
<ele>444.25</ele>
<time>2020-09-10T14:10:05Z</time>
</trkpt>
<trkpt lat="48.304062" lon="10.455141">
<ele>444.25</ele>
<time>2020-09-10T14:10:06Z</time>
</trkpt>
<trkpt lat="48.304005" lon="10.455167">
<ele>444.25</ele>
<time>2020-09-10T14:10:07Z</time>
</trkpt>
<trkpt lat="48.303951" lon="10.455194">
<ele>444.25</ele>
<time>2020-09-10T14:10:08Z</time>
</trkpt>
<trkpt lat="48.303894" lon="10.455218">
<ele>444.25</ele>
<time>2020-09-10T14:10:09Z</time>
</trkpt>
<trkpt lat="48.303841" lon="10.455245">
<ele>444.25</ele>
<time>2020-09-10T14:10:10Z</time>
</trkpt>
<trkpt lat="48.303783" lon="10.455274">
<ele>444.25</ele>
<time>2020-09-10T14:10:11Z</time>
</trkpt>
<trkpt lat="48.30373" lon="10.455297">
<ele>444.25</ele>
<time>2020-09-10T14:10:12Z</time>
</trkpt>
<trkpt lat="48.303677" lon="10.455321">
<ele>444.25</ele>
<time>2020-09-10T14:10:13Z</time>
</trkpt>
<trkpt lat="48.303616" lon="10.455343">
<ele>444.25</ele>
<time>2020-09-10T14:10:14Z</time>
</trkpt>
<trkpt lat="48.303562" lon="10.455368">
<ele>444.25</ele>
<time>2020-09-10T14:10:15Z</time>
</trkpt>
<trkpt lat="48.303509" lon="10.455392">
<ele>444.25</ele>
<time>2020-09-10T14:10:16Z</time>
</trkpt>
<trkpt lat="48.303448" lon="10.455418">
<ele>444.25</ele>
<time>2020-09-10T14:10:17Z</time>
</trkpt>
<trkpt lat="48.303394" lon="10.455441">
<ele>444.25</ele>
<time>2020-09-10T14:10:18Z</time>
</trkpt>
<trkpt lat="48.303341" lon="10.455462">
<ele>444.25</ele>
<time>2020-09-10T14:10:19Z</time>
</trkpt>
<trkpt lat="48.303288" lon="10.455477">
<ele>444.25</ele>
<time>2020-09-10T14:10:20Z</time>
</trkpt>
<trkpt lat="48.303234" lon="10.45549">
<ele>444.25</ele>
<time>2020-09-10T14:10:21Z</time>
</trkpt>
<trkpt lat="48.303185" lon="10.455498">
<ele>444.25</ele>
<time>2020-09-10T14:10:22Z</time>
</trkpt>
<trkpt lat="48.303135" lon="10.455506">
<ele>444.527</ele>
<time>2020-09-10T14:10:23Z</time>
</trkpt>
<trkpt lat="48.303089" lon="10.45551">
<ele>444.741</ele>
<time>2020-09-10T14:10:24Z</time>
</trkpt>
<trkpt lat="48.303047" lon="10.455517">
<ele>444.907</ele>
<time>2020-09-10T14:10:25Z</time>
</trkpt>
<trkpt lat="48.303013" lon="10.455531">
<ele>445.032</ele>
<time>2020-09-10T14:10:26Z</time>
</trkpt>
<trkpt lat="48.30299" lon="10.45556">
<ele>445.115</ele>
<time>2020-09-10T14:10:27Z</time>
</trkpt>
<trkpt lat="48.302982" lon="10.455596">
<ele>445.171</ele>
<time>2020-09-10T14:10:28Z</time>
</trkpt>
<trkpt lat="48.302982" lon="10.455637">
<ele>445.203</ele>
<time>2020-09-10T14:10:29Z</time>
</trkpt>
<trkpt lat="48.30299" lon="10.455677">
<ele>445.203</ele>
<time>2020-09-10T14:10:30Z</time>
</trkpt>
<trkpt lat="48.303001" lon="10.455715">
<ele>445.409</ele>
<time>2020-09-10T14:10:31Z</time>
</trkpt>
<trkpt lat="48.303017" lon="10.45576">
<ele>445.617</ele>
<time>2020-09-10T14:10:32Z</time>
</trkpt>
<trkpt lat="48.303028" lon="10.455812">
<ele>445.807</ele>
<time>2020-09-10T14:10:33Z</time>
</trkpt>
<trkpt lat="48.303047" lon="10.455874">
<ele>445.976</ele>
<time>2020-09-10T14:10:34Z</time>
</trkpt>
<trkpt lat="48.303059" lon="10.455935">
<ele>446.101</ele>
<time>2020-09-10T14:10:35Z</time>
</trkpt>
<trkpt lat="48.303082" lon="10.455994">
<ele>446.18</ele>
<time>2020-09-10T14:10:36Z</time>
</trkpt>
<trkpt lat="48.303097" lon="10.456055">
<ele>446.223</ele>
<time>2020-09-10T14:10:37Z</time>
</trkpt>
<trkpt lat="48.303116" lon="10.456117">
<ele>446.243</ele>
<time>2020-09-10T14:10:38Z</time>
</trkpt>
<trkpt lat="48.303135" lon="10.456179">
<ele>446.243</ele>
<time>2020-09-10T14:10:39Z</time>
</trkpt>
<trkpt lat="48.303162" lon="10.45624">
<ele>446.243</ele>
<time>2020-09-10T14:10:40Z</time>
</trkpt>
<trkpt lat="48.303188" lon="10.456306">
<ele>446.243</ele>
<time>2020-09-10T14:10:41Z</time>
</trkpt>
<trkpt lat="48.303207" lon="10.456375">
<ele>446.243</ele>
<time>2020-09-10T14:10:42Z</time>
</trkpt>
<trkpt lat="48.303238" lon="10.456442">
<ele>446.243</ele>
<time>2020-09-10T14:10:43Z</time>
</trkpt>
<trkpt lat="48.303272" lon="10.456501">
<ele>445.982</ele>
<time>2020-09-10T14:10:44Z</time>
</trkpt>
<trkpt lat="48.303314" lon="10.45655">
<ele>445.783</ele>
<time>2020-09-10T14:10:45Z</time>
</trkpt>
<trkpt lat="48.303356" lon="10.456592">
<ele>445.637</ele>
<time>2020-09-10T14:10:46Z</time>
</trkpt>
<trkpt lat="48.303402" lon="10.456632">
<ele>445.533</ele>
<time>2020-09-10T14:10:47Z</time>
</trkpt>
<trkpt lat="48.303448" lon="10.456667">
<ele>445.461</ele>
<time>2020-09-10T14:10:48Z</time>
</trkpt>
<trkpt lat="48.303497" lon="10.456704">
<ele>445.417</ele>
<time>2020-09-10T14:10:49Z</time>
</trkpt>
<trkpt lat="48.303543" lon="10.456739">
<ele>445.395</ele>
<time>2020-09-10T14:10:50Z</time>
</trkpt>
<trkpt lat="48.303589" lon="10.456772">
<ele>445.376</ele>
<time>2020-09-10T14:10:51Z</time>
</trkpt>
<trkpt lat="48.303638" lon="10.456803">
<ele>445.376</ele>
<time>2020-09-10T14:10:52Z</time>
</trkpt>
<trkpt lat="48.30368" lon="10.456837">
<ele>445.376</ele>
<time>2020-09-10T14:10:53Z</time>
</trkpt>
<trkpt lat="48.303726" lon="10.456872">
<ele>445.376</ele>
<time>2020-09-10T14:10:54Z</time>
</trkpt>
<trkpt lat="48.303772" lon="10.456907">
<ele>445.376</ele>
<time>2020-09-10T14:10:55Z</time>
</trkpt>
<trkpt lat="48.303814" lon="10.456942">
<ele>445.376</ele>
<time>2020-09-10T14:10:56Z</time>
</trkpt>
<trkpt lat="48.303856" lon="10.456979">
<ele>445.376</ele>
<time>2020-09-10T14:10:57Z</time>
</trkpt>
<trkpt lat="48.303894" lon="10.457015">
<ele>445.376</ele>
<time>2020-09-10T14:10:58Z</time>
</trkpt>
<trkpt lat="48.303925" lon="10.457058">
<ele>445.376</ele>
<time>2020-09-10T14:10:59Z</time>
</trkpt>
<trkpt lat="48.303947" lon="10.457104">
<ele>445.376</ele>
<time>2020-09-10T14:11:00Z</time>
</trkpt>
<trkpt lat="48.303967" lon="10.45715">
<ele>445.376</ele>
<time>2020-09-10T14:11:01Z</time>
</trkpt>
<trkpt lat="48.30397" lon="10.457196">
<ele>445.376</ele>
<time>2020-09-10T14:11:02Z</time>
</trkpt>
<trkpt lat="48.303974" lon="10.457227">
<ele>445.376</ele>
<time>2020-09-10T14:11:03Z</time>
</trkpt>
<trkpt lat="48.303967" lon="10.457255">
<ele>445.376</ele>
<time>2020-09-10T14:11:04Z</time>
</trkpt>
<trkpt lat="48.303951" lon="10.457278">
<ele>445.376</ele>
<time>2020-09-10T14:11:05Z</time>
</trkpt>
<trkpt lat="48.303932" lon="10.457296">
<ele>445.376</ele>
<time>2020-09-10T14:11:06Z</time>
</trkpt>
<trkpt lat="48.303905" lon="10.45732">
<ele>445.376</ele>
<time>2020-09-10T14:11:07Z</time>
</trkpt>
<trkpt lat="48.303883" lon="10.457333">
<ele>445.376</ele>
<time>2020-09-10T14:11:08Z</time>
</trkpt>
<trkpt lat="48.303852" lon="10.45734">
<ele>445.676</ele>
<time>2020-09-10T14:11:09Z</time>
</trkpt>
<trkpt lat="48.303814" lon="10.457345">
<ele>445.937</ele>
<time>2020-09-10T14:11:10Z</time>
</trkpt>
<trkpt lat="48.303783" lon="10.457343">
<ele>446.124</ele>
<time>2020-09-10T14:11:11Z</time>
</trkpt>
<trkpt lat="48.303741" lon="10.457347">
<ele>446.304</ele>
<time>2020-09-10T14:11:12Z</time>
</trkpt>
<trkpt lat="48.303696" lon="10.457352">
<ele>446.433</ele>
<time>2020-09-10T14:11:13Z</time>
</trkpt>
<trkpt lat="48.30365" lon="10.457348">
<ele>446.517</ele>
<time>2020-09-10T14:11:14Z</time>
</trkpt>
<trkpt lat="48.303612" lon="10.457336">
<ele>446.565</ele>
<time>2020-09-10T14:11:15Z</time>
</trkpt>
<trkpt lat="48.303562" lon="10.457329">
<ele>446.59</ele>
<time>2020-09-10T14:11:16Z</time>
</trkpt>
<trkpt lat="48.303516" lon="10.45732">
<ele>446.59</ele>
<time>2020-09-10T14:11:17Z</time>
</trkpt>
<trkpt lat="48.303471" lon="10.457314">
<ele>446.59</ele>
<time>2020-09-10T14:11:18Z</time>
</trkpt>
<trkpt lat="48.303421" lon="10.457307">
<ele>446.59</ele>
<time>2020-09-10T14:11:19Z</time>
</trkpt>
<trkpt lat="48.303379" lon="10.457301">
<ele>446.59</ele>
<time>2020-09-10T14:11:20Z</time>
</trkpt>
<trkpt lat="48.303329" lon="10.457298">
<ele>446.59</ele>
<time>2020-09-10T14:11:21Z</time>
</trkpt>
<trkpt lat="48.303288" lon="10.457299">
<ele>446.59</ele>
<time>2020-09-10T14:11:22Z</time>
</trkpt>
<trkpt lat="48.303242" lon="10.457301">
<ele>446.59</ele>
<time>2020-09-10T14:11:23Z</time>
</trkpt>
<trkpt lat="48.303196" lon="10.457307">
<ele>446.59</ele>
<time>2020-09-10T14:11:24Z</time>
</trkpt>
<trkpt lat="48.303154" lon="10.457315">
<ele>446.59</ele>
<time>2020-09-10T14:11:25Z</time>
</trkpt>
<trkpt lat="48.303108" lon="10.457324">
<ele>446.59</ele>
<time>2020-09-10T14:11:26Z</time>
</trkpt>
<trkpt lat="48.303062" lon="10.45734">
<ele>446.59</ele>
<time>2020-09-10T14:11:27Z</time>
</trkpt>
<trkpt lat="48.30302" lon="10.45736">
<ele>446.59</ele>
<time>2020-09-10T14:11:28Z</time>
</trkpt>
<trkpt lat="48.302979" lon="10.457381">
<ele>446.59</ele>
<time>2020-09-10T14:11:29Z</time>
</trkpt>
<trkpt lat="48.302929" lon="10.457405">
<ele>446.59</ele>
<time>2020-09-10T14:11:30Z</time>
</trkpt>
<trkpt lat="48.302883" lon="10.457427">
<ele>446.59</ele>
<time>2020-09-10T14:11:31Z</time>
</trkpt>
<trkpt lat="48.302837" lon="10.45745">
<ele>446.59</ele>
<time>2020-09-10T14:11:32Z</time>
</trkpt>
<trkpt lat="48.302788" lon="10.457477">
<ele>446.59</ele>
<time>2020-09-10T14:11:33Z</time>
</trkpt>
<trkpt lat="48.302738" lon="10.457502">
<ele>446.59</ele>
<time>2020-09-10T14:11:34Z</time>
</trkpt>
<trkpt lat="48.302692" lon="10.457523">
<ele>446.59</ele>
<time>2020-09-10T14:11:35Z</time>
</trkpt>
<trkpt lat="48.302643" lon="10.457541">
<ele>446.59</ele>
<time>2020-09-10T14:11:36Z</time>
</trkpt>
<trkpt lat="48.302597" lon="10.457565">
<ele>446.59</ele>
<time>2020-09-10T14:11:37Z</time>
</trkpt>
<trkpt lat="48.302547" lon="10.457584">
<ele>446.59</ele>
<time>2020-09-10T14:11:38Z</time>
</trkpt>
<trkpt lat="48.302494" lon="10.457607">
<ele>446.59</ele>
<time>2020-09-10T14:11:39Z</time>
</trkpt>
<trkpt lat="48.302441" lon="10.457625">
<ele>446.59</ele>
<time>2020-09-10T14:11:40Z</time>
</trkpt>
<trkpt lat="48.302391" lon="10.457644">
<ele>446.59</ele>
<time>2020-09-10T14:11:41Z</time>
</trkpt>
<trkpt lat="48.302338" lon="10.457666">
<ele>446.59</ele>
<time>2020-09-10T14:11:42Z</time>
</trkpt>
<trkpt lat="48.30228" lon="10.457686">
<ele>446.59</ele>
<time>2020-09-10T14:11:43Z</time>
</trkpt>
<trkpt lat="48.302223" lon="10.457708">
<ele>446.59</ele>
<time>2020-09-10T14:11:44Z</time>
</trkpt>
<trkpt lat="48.302174" lon="10.457733">
<ele>446.59</ele>
<time>2020-09-10T14:11:45Z</time>
</trkpt>
<trkpt lat="48.30212" lon="10.457756">
<ele>446.59</ele>
<time>2020-09-10T14:11:46Z</time>
</trkpt>
<trkpt lat="48.302067" lon="10.457777">
<ele>446.59</ele>
<time>2020-09-10T14:11:47Z</time>
</trkpt>
<trkpt lat="48.302013" lon="10.457798">
<ele>446.59</ele>
<time>2020-09-10T14:11:48Z</time>
</trkpt>
<trkpt lat="48.301956" lon="10.457817">
<ele>446.59</ele>
<time>2020-09-10T14:11:49Z</time>
</trkpt>
<trkpt lat="48.301903" lon="10.457835">
<ele>446.59</ele>
<time>2020-09-10T14:11:50Z</time>
</trkpt>
<trkpt lat="48.301849" lon="10.457852">
<ele>446.59</ele>
<time>2020-09-10T14:11:51Z</time>
</trkpt>
<trkpt lat="48.301792" lon="10.457869">
<ele>446.59</ele>
<time>2020-09-10T14:11:52Z</time>
</trkpt>
<trkpt lat="48.301739" lon="10.457886">
<ele>446.59</ele>
<time>2020-09-10T14:11:53Z</time>
</trkpt>
<trkpt lat="48.301685" lon="10.457898">
<ele>446.59</ele>
<time>2020-09-10T14:11:54Z</time>
</trkpt>
<trkpt lat="48.301628" lon="10.457913">
<ele>446.59</ele>
<time>2020-09-10T14:11:55Z</time>
</trkpt>
<trkpt lat="48.301575" lon="10.457925">
<ele>446.59</ele>
<time>2020-09-10T14:11:56Z</time>
</trkpt>
<trkpt lat="48.301521" lon="10.457935">
<ele>446.59</ele>
<time>2020-09-10T14:11:57Z</time>
</trkpt>
<trkpt lat="48.301464" lon="10.457938">
<ele>446.59</ele>
<time>2020-09-10T14:11:58Z</time>
</trkpt>
<trkpt lat="48.301411" lon="10.45794">
<ele>446.59</ele>
<time>2020-09-10T14:11:59Z</time>
</trkpt>
<trkpt lat="48.301361" lon="10.457942">
<ele>446.59</ele>
<time>2020-09-10T14:12:00Z</time>
</trkpt>
<trkpt lat="48.301308" lon="10.457947">
<ele>446.59</ele>
<time>2020-09-10T14:12:01Z</time>
</trkpt>
<trkpt lat="48.301262" lon="10.457952">
<ele>446.59</ele>
<time>2020-09-10T14:12:02Z</time>
</trkpt>
<trkpt lat="48.301216" lon="10.457961">
<ele>446.59</ele>
<time>2020-09-10T14:12:03Z</time>
</trkpt>
<trkpt lat="48.30117" lon="10.457972">
<ele>446.59</ele>
<time>2020-09-10T14:12:04Z</time>
</trkpt>
<trkpt lat="48.301128" lon="10.457984">
<ele>446.59</ele>
<time>2020-09-10T14:12:05Z</time>
</trkpt>
<trkpt lat="48.301083" lon="10.457998">
<ele>446.84</ele>
<time>2020-09-10T14:12:06Z</time>
</trkpt>
<trkpt lat="48.301037" lon="10.458005">
<ele>447.041</ele>
<time>2020-09-10T14:12:07Z</time>
</trkpt>
<trkpt lat="48.300983" lon="10.458012">
<ele>447.2</ele>
<time>2020-09-10T14:12:08Z</time>
</trkpt>
<trkpt lat="48.30093" lon="10.458022">
<ele>447.321</ele>
<time>2020-09-10T14:12:09Z</time>
</trkpt>
<trkpt lat="48.300873" lon="10.458032">
<ele>447.405</ele>
<time>2020-09-10T14:12:10Z</time>
</trkpt>
<trkpt lat="48.300823" lon="10.458043">
<ele>447.467</ele>
<time>2020-09-10T14:12:11Z</time>
</trkpt>
<trkpt lat="48.300766" lon="10.458063">
<ele>447.52</ele>
<time>2020-09-10T14:12:12Z</time>
</trkpt>
<trkpt lat="48.300709" lon="10.458085">
<ele>447.543</ele>
<time>2020-09-10T14:12:13Z</time>
</trkpt>
<trkpt lat="48.300648" lon="10.458105">
<ele>447.543</ele>
<time>2020-09-10T14:12:14Z</time>
</trkpt>
<trkpt lat="48.300591" lon="10.458127">
<ele>447.543</ele>
<time>2020-09-10T14:12:15Z</time>
</trkpt>
<trkpt lat="48.300533" lon="10.45815">
<ele>447.543</ele>
<time>2020-09-10T14:12:16Z</time>
</trkpt>
<trkpt lat="48.300476" lon="10.458177">
<ele>447.543</ele>
<time>2020-09-10T14:12:17Z</time>
</trkpt>
<trkpt lat="48.300415" lon="10.458201">
<ele>447.543</ele>
<time>2020-09-10T14:12:18Z</time>
</trkpt>
<trkpt lat="48.300358" lon="10.458228">
<ele>447.543</ele>
<time>2020-09-10T14:12:19Z</time>
</trkpt>
<trkpt lat="48.300301" lon="10.458255">
<ele>447.543</ele>
<time>2020-09-10T14:12:20Z</time>
</trkpt>
<trkpt lat="48.300243" lon="10.458285">
<ele>447.543</ele>
<time>2020-09-10T14:12:21Z</time>
</trkpt>
<trkpt lat="48.300186" lon="10.458315">
<ele>447.543</ele>
<time>2020-09-10T14:12:22Z</time>
</trkpt>
<trkpt lat="48.300125" lon="10.458344">
<ele>447.543</ele>
<time>2020-09-10T14:12:23Z</time>
</trkpt>
<trkpt lat="48.300072" lon="10.458375">
<ele>447.543</ele>
<time>2020-09-10T14:12:24Z</time>
</trkpt>
<trkpt lat="48.300022" lon="10.458408">
<ele>447.543</ele>
<time>2020-09-10T14:12:25Z</time>
</trkpt>
<trkpt lat="48.299965" lon="10.458442">
<ele>447.543</ele>
<time>2020-09-10T14:12:26Z</time>
</trkpt>
<trkpt lat="48.299915" lon="10.458473">
<ele>447.543</ele>
<time>2020-09-10T14:12:27Z</time>
</trkpt>
<trkpt lat="48.299862" lon="10.458502">
<ele>447.543</ele>
<time>2020-09-10T14:12:28Z</time>
</trkpt>
<trkpt lat="48.299809" lon="10.458525">
<ele>447.543</ele>
<time>2020-09-10T14:12:29Z</time>
</trkpt>
<trkpt lat="48.299759" lon="10.458538">
<ele>447.543</ele>
<time>2020-09-10T14:12:30Z</time>
</trkpt>
<trkpt lat="48.299706" lon="10.458538">
<ele>447.543</ele>
<time>2020-09-10T14:12:31Z</time>
</trkpt>
<trkpt lat="48.29966" lon="10.45852">
<ele>447.543</ele>
<time>2020-09-10T14:12:32Z</time>
</trkpt>
<trkpt lat="48.299614" lon="10.458489">
<ele>447.543</ele>
<time>2020-09-10T14:12:33Z</time>
</trkpt>
<trkpt lat="48.299572" lon="10.458462">
<ele>447.543</ele>
<time>2020-09-10T14:12:34Z</time>
</trkpt>
<trkpt lat="48.299538" lon="10.458446">
<ele>447.543</ele>
<time>2020-09-10T14:12:35Z</time>
</trkpt>
<trkpt lat="48.2995" lon="10.458448">
<ele>447.543</ele>
<time>2020-09-10T14:12:36Z</time>
</trkpt>
<trkpt lat="48.299461" lon="10.458464">
<ele>447.543</ele>
<time>2020-09-10T14:12:37Z</time>
</trkpt>
<trkpt lat="48.299423" lon="10.458485">
<ele>447.751</ele>
<time>2020-09-10T14:12:38Z</time>
</trkpt>
<trkpt lat="48.299385" lon="10.458514">
<ele>447.922</ele>
<time>2020-09-10T14:12:39Z</time>
</trkpt>
<trkpt lat="48.299351" lon="10.458558">
<ele>448.062</ele>
<time>2020-09-10T14:12:40Z</time>
</trkpt>
<trkpt lat="48.299324" lon="10.458613">
<ele>448.158</ele>
<time>2020-09-10T14:12:41Z</time>
</trkpt>
<trkpt lat="48.299301" lon="10.458675">
<ele>448.266</ele>
<time>2020-09-10T14:12:42Z</time>
</trkpt>
<trkpt lat="48.299274" lon="10.458738">
<ele>448.344</ele>
<time>2020-09-10T14:12:43Z</time>
</trkpt>
<trkpt lat="48.299248" lon="10.458799">
<ele>448.39</ele>
<time>2020-09-10T14:12:44Z</time>
</trkpt>
<trkpt lat="48.299217" lon="10.458856">
<ele>448.411</ele>
<time>2020-09-10T14:12:45Z</time>
</trkpt>
<trkpt lat="48.299179" lon="10.458899">
<ele>448.41</ele>
<time>2020-09-10T14:12:46Z</time>
</trkpt>
<trkpt lat="48.299133" lon="10.458935">
<ele>448.41</ele>
<time>2020-09-10T14:12:47Z</time>
</trkpt>
<trkpt lat="48.299084" lon="10.458968">
<ele>448.41</ele>
<time>2020-09-10T14:12:48Z</time>
</trkpt>
<trkpt lat="48.299038" lon="10.459001">
<ele>448.41</ele>
<time>2020-09-10T14:12:49Z</time>
</trkpt>
<trkpt lat="48.298988" lon="10.459028">
<ele>448.196</ele>
<time>2020-09-10T14:12:50Z</time>
</trkpt>
<trkpt lat="48.298943" lon="10.459055">
<ele>448.045</ele>
<time>2020-09-10T14:12:51Z</time>
</trkpt>
<trkpt lat="48.298889" lon="10.459084">
<ele>447.89</ele>
<time>2020-09-10T14:12:52Z</time>
</trkpt>
<trkpt lat="48.298843" lon="10.459111">
<ele>447.768</ele>
<time>2020-09-10T14:12:53Z</time>
</trkpt>
<trkpt lat="48.298786" lon="10.459139">
<ele>447.674</ele>
<time>2020-09-10T14:12:54Z</time>
</trkpt>
<trkpt lat="48.298737" lon="10.459162">
<ele>447.608</ele>
<time>2020-09-10T14:12:55Z</time>
</trkpt>
<trkpt lat="48.298683" lon="10.459187">
<ele>447.564</ele>
<time>2020-09-10T14:12:56Z</time>
</trkpt>
<trkpt lat="48.29863" lon="10.459213">
<ele>447.543</ele>
<time>2020-09-10T14:12:57Z</time>
</trkpt>
<trkpt lat="48.298576" lon="10.45924">
<ele>447.543</ele>
<time>2020-09-10T14:12:58Z</time>
</trkpt>
<trkpt lat="48.298523" lon="10.459267">
<ele>447.543</ele>
<time>2020-09-10T14:12:59Z</time>
</trkpt>
<trkpt lat="48.298466" lon="10.459291">
<ele>447.543</ele>
<time>2020-09-10T14:13:00Z</time>
</trkpt>
<trkpt lat="48.298416" lon="10.459318">
<ele>447.543</ele>
<time>2020-09-10T14:13:01Z</time>
</trkpt>
<trkpt lat="48.298363" lon="10.459345">
<ele>447.543</ele>
<time>2020-09-10T14:13:02Z</time>
</trkpt>
<trkpt lat="48.298302" lon="10.45937">
<ele>447.543</ele>
<time>2020-09-10T14:13:03Z</time>
</trkpt>
<trkpt lat="48.298248" lon="10.459398">
<ele>447.543</ele>
<time>2020-09-10T14:13:04Z</time>
</trkpt>
<trkpt lat="48.298195" lon="10.459428">
<ele>447.543</ele>
<time>2020-09-10T14:13:05Z</time>
</trkpt>
<trkpt lat="48.298134" lon="10.459456">
<ele>447.543</ele>
<time>2020-09-10T14:13:06Z</time>
</trkpt>
<trkpt lat="48.298084" lon="10.459482">
<ele>447.543</ele>
<time>2020-09-10T14:13:07Z</time>
</trkpt>
<trkpt lat="48.298031" lon="10.459505">
<ele>447.543</ele>
<time>2020-09-10T14:13:08Z</time>
</trkpt>
<trkpt lat="48.297974" lon="10.45953">
<ele>447.543</ele>
<time>2020-09-10T14:13:09Z</time>
</trkpt>
<trkpt lat="48.29792" lon="10.459557">
<ele>447.543</ele>
<time>2020-09-10T14:13:10Z</time>
</trkpt>
<trkpt lat="48.297871" lon="10.459583">
<ele>447.543</ele>
<time>2020-09-10T14:13:11Z</time>
</trkpt>
<trkpt lat="48.297813" lon="10.459606">
<ele>447.543</ele>
<time>2020-09-10T14:13:12Z</time>
</trkpt>
<trkpt lat="48.29776" lon="10.459627">
<ele>447.543</ele>
<time>2020-09-10T14:13:13Z</time>
</trkpt>
<trkpt lat="48.297707" lon="10.459646">
<ele>447.543</ele>
<time>2020-09-10T14:13:14Z</time>
</trkpt>
<trkpt lat="48.297653" lon="10.45967">
<ele>447.785</ele>
<time>2020-09-10T14:13:15Z</time>
</trkpt>
<trkpt lat="48.297604" lon="10.459694">
<ele>447.973</ele>
<time>2020-09-10T14:13:16Z</time>
</trkpt>
<trkpt lat="48.297546" lon="10.459715">
<ele>448.117</ele>
<time>2020-09-10T14:13:17Z</time>
</trkpt>
<trkpt lat="48.297497" lon="10.459738">
<ele>448.223</ele>
<time>2020-09-10T14:13:18Z</time>
</trkpt>
<trkpt lat="48.297443" lon="10.459762">
<ele>448.298</ele>
<time>2020-09-10T14:13:19Z</time>
</trkpt>
<trkpt lat="48.29739" lon="10.459784">
<ele>448.347</ele>
<time>2020-09-10T14:13:20Z</time>
</trkpt>
<trkpt lat="48.29734" lon="10.459805">
<ele>448.386</ele>
<time>2020-09-10T14:13:21Z</time>
</trkpt>
<trkpt lat="48.297287" lon="10.459824">
<ele>448.41</ele>
<time>2020-09-10T14:13:22Z</time>
</trkpt>
<trkpt lat="48.297237" lon="10.459843">
<ele>448.41</ele>
<time>2020-09-10T14:13:23Z</time>
</trkpt>
<trkpt lat="48.297188" lon="10.459862">
<ele>448.411</ele>
<time>2020-09-10T14:13:24Z</time>
</trkpt>
<trkpt lat="48.297138" lon="10.45988">
<ele>448.41</ele>
<time>2020-09-10T14:13:25Z</time>
</trkpt>
<trkpt lat="48.297089" lon="10.459899">
<ele>448.41</ele>
<time>2020-09-10T14:13:26Z</time>
</trkpt>
<trkpt lat="48.297039" lon="10.459915">
<ele>448.41</ele>
<time>2020-09-10T14:13:27Z</time>
</trkpt>
<trkpt lat="48.296989" lon="10.459931">
<ele>448.653</ele>
<time>2020-09-10T14:13:28Z</time>
</trkpt>
<trkpt lat="48.296936" lon="10.459951">
<ele>448.844</ele>
<time>2020-09-10T14:13:29Z</time>
</trkpt>
<trkpt lat="48.29689" lon="10.459972">
<ele>448.995</ele>
<time>2020-09-10T14:13:30Z</time>
</trkpt>
<trkpt lat="48.296837" lon="10.45999">
<ele>449.097</ele>
<time>2020-09-10T14:13:31Z</time>
</trkpt>
<trkpt lat="48.296787" lon="10.460009">
<ele>449.209</ele>
<time>2020-09-10T14:13:32Z</time>
</trkpt>
<trkpt lat="48.296738" lon="10.460025">
<ele>449.289</ele>
<time>2020-09-10T14:13:33Z</time>
</trkpt>
<trkpt lat="48.296688" lon="10.460042">
<ele>449.34</ele>
<time>2020-09-10T14:13:34Z</time>
</trkpt>
<trkpt lat="48.296635" lon="10.460056">
<ele>449.364</ele>
<time>2020-09-10T14:13:35Z</time>
</trkpt>
<trkpt lat="48.296581" lon="10.460073">
<ele>449.624</ele>
<time>2020-09-10T14:13:36Z</time>
</trkpt>
<trkpt lat="48.296535" lon="10.460085">
<ele>449.826</ele>
<time>2020-09-10T14:13:37Z</time>
</trkpt>
<trkpt lat="48.296486" lon="10.460096">
<ele>449.98</ele>
<time>2020-09-10T14:13:38Z</time>
</trkpt>
<trkpt lat="48.29644" lon="10.460112">
<ele>450.094</ele>
<time>2020-09-10T14:13:39Z</time>
</trkpt>
<trkpt lat="48.296394" lon="10.460128">
<ele>450.177</ele>
<time>2020-09-10T14:13:40Z</time>
</trkpt>
<trkpt lat="48.296349" lon="10.460142">
<ele>450.238</ele>
<time>2020-09-10T14:13:41Z</time>
</trkpt>
<trkpt lat="48.296303" lon="10.460158">
<ele>450.496</ele>
<time>2020-09-10T14:13:42Z</time>
</trkpt>
<trkpt lat="48.296257" lon="10.460174">
<ele>450.697</ele>
<time>2020-09-10T14:13:43Z</time>
</trkpt>
<trkpt lat="48.296211" lon="10.46019">
<ele>450.843</ele>
<time>2020-09-10T14:13:44Z</time>
</trkpt>
<trkpt lat="48.296162" lon="10.46021">
<ele>450.964</ele>
<time>2020-09-10T14:13:45Z</time>
</trkpt>
<trkpt lat="48.296116" lon="10.46023">
<ele>451.057</ele>
<time>2020-09-10T14:13:46Z</time>
</trkpt>
<trkpt lat="48.296078" lon="10.460249">
<ele>451.113</ele>
<time>2020-09-10T14:13:47Z</time>
</trkpt>
<trkpt lat="48.296032" lon="10.460266">
<ele>451.414</ele>
<time>2020-09-10T14:13:48Z</time>
</trkpt>
<trkpt lat="48.295986" lon="10.460285">
<ele>451.649</ele>
<time>2020-09-10T14:13:49Z</time>
</trkpt>
<trkpt lat="48.295944" lon="10.460303">
<ele>451.822</ele>
<time>2020-09-10T14:13:50Z</time>
</trkpt>
<trkpt lat="48.295898" lon="10.460324">
<ele>451.934</ele>
<time>2020-09-10T14:13:51Z</time>
</trkpt>
<trkpt lat="48.295853" lon="10.460347">
<ele>452.053</ele>
<time>2020-09-10T14:13:52Z</time>
</trkpt>
<trkpt lat="48.295811" lon="10.460364">
<ele>452.141</ele>
<time>2020-09-10T14:13:53Z</time>
</trkpt>
<trkpt lat="48.295765" lon="10.460387">
<ele>452.199</ele>
<time>2020-09-10T14:13:54Z</time>
</trkpt>
<trkpt lat="48.295719" lon="10.460412">
<ele>452.226</ele>
<time>2020-09-10T14:13:55Z</time>
</trkpt>
<trkpt lat="48.29567" lon="10.460438">
<ele>452.226</ele>
<time>2020-09-10T14:13:56Z</time>
</trkpt>
<trkpt lat="48.295624" lon="10.460462">
<ele>452.226</ele>
<time>2020-09-10T14:13:57Z</time>
</trkpt>
<trkpt lat="48.295582" lon="10.460488">
<ele>452.226</ele>
<time>2020-09-10T14:13:58Z</time>
</trkpt>
<trkpt lat="48.295536" lon="10.460517">
<ele>452.226</ele>
<time>2020-09-10T14:13:59Z</time>
</trkpt>
<trkpt lat="48.295494" lon="10.460546">
<ele>452.458</ele>
<time>2020-09-10T14:14:00Z</time>
</trkpt>
<trkpt lat="48.295456" lon="10.460576">
<ele>452.623</ele>
<time>2020-09-10T14:14:01Z</time>
</trkpt>
<trkpt lat="48.29541" lon="10.460603">
<ele>452.79</ele>
<time>2020-09-10T14:14:02Z</time>
</trkpt>
<trkpt lat="48.295368" lon="10.460632">
<ele>452.923</ele>
<time>2020-09-10T14:14:03Z</time>
</trkpt>
<trkpt lat="48.295326" lon="10.460662">
<ele>453.031</ele>
<time>2020-09-10T14:14:04Z</time>
</trkpt>
<trkpt lat="48.295284" lon="10.460691">
<ele>453.107</ele>
<time>2020-09-10T14:14:05Z</time>
</trkpt>
<trkpt lat="48.295242" lon="10.46072">
<ele>453.155</ele>
<time>2020-09-10T14:14:06Z</time>
</trkpt>
<trkpt lat="48.2952" lon="10.460752">
<ele>453.18</ele>
<time>2020-09-10T14:14:07Z</time>
</trkpt>
<trkpt lat="48.295155" lon="10.460785">
<ele>453.451</ele>
<time>2020-09-10T14:14:08Z</time>
</trkpt>
<trkpt lat="48.295113" lon="10.460818">
<ele>453.661</ele>
<time>2020-09-10T14:14:09Z</time>
</trkpt>
<trkpt lat="48.295071" lon="10.460852">
<ele>453.825</ele>
<time>2020-09-10T14:14:10Z</time>
</trkpt>
<trkpt lat="48.295029" lon="10.460888">
<ele>453.934</ele>
<time>2020-09-10T14:14:11Z</time>
</trkpt>
<trkpt lat="48.294983" lon="10.460925">
<ele>454.056</ele>
<time>2020-09-10T14:14:12Z</time>
</trkpt>
<trkpt lat="48.294941" lon="10.460965">
<ele>454.141</ele>
<time>2020-09-10T14:14:13Z</time>
</trkpt>
<trkpt lat="48.294903" lon="10.461008">
<ele>454.195</ele>
<time>2020-09-10T14:14:14Z</time>
</trkpt>
<trkpt lat="48.294857" lon="10.46105">
<ele>454.221</ele>
<time>2020-09-10T14:14:15Z</time>
</trkpt>
<trkpt lat="48.294815" lon="10.461091">
<ele>454.221</ele>
<time>2020-09-10T14:14:16Z</time>
</trkpt>
<trkpt lat="48.294773" lon="10.461133">
<ele>454.221</ele>
<time>2020-09-10T14:14:17Z</time>
</trkpt>
<trkpt lat="48.294727" lon="10.461175">
<ele>454.221</ele>
<time>2020-09-10T14:14:18Z</time>
</trkpt>
<trkpt lat="48.294685" lon="10.461219">
<ele>454.221</ele>
<time>2020-09-10T14:14:19Z</time>
</trkpt>
<trkpt lat="48.294647" lon="10.461264">
<ele>454.433</ele>
<time>2020-09-10T14:14:20Z</time>
</trkpt>
<trkpt lat="48.294605" lon="10.461308">
<ele>454.583</ele>
<time>2020-09-10T14:14:21Z</time>
</trkpt>
<trkpt lat="48.294563" lon="10.461353">
<ele>454.736</ele>
<time>2020-09-10T14:14:22Z</time>
</trkpt>
<trkpt lat="48.294521" lon="10.461399">
<ele>454.859</ele>
<time>2020-09-10T14:14:23Z</time>
</trkpt>
<trkpt lat="48.294479" lon="10.461443">
<ele>454.954</ele>
<time>2020-09-10T14:14:24Z</time>
</trkpt>
<trkpt lat="48.294437" lon="10.46149">
<ele>455.023</ele>
<time>2020-09-10T14:14:25Z</time>
</trkpt>
<trkpt lat="48.294395" lon="10.461538">
<ele>455.067</ele>
<time>2020-09-10T14:14:26Z</time>
</trkpt>
<trkpt lat="48.294353" lon="10.461586">
<ele>455.089</ele>
<time>2020-09-10T14:14:27Z</time>
</trkpt>
<trkpt lat="48.294315" lon="10.461636">
<ele>455.089</ele>
<time>2020-09-10T14:14:28Z</time>
</trkpt>
<trkpt lat="48.294273" lon="10.461682">
<ele>455.089</ele>
<time>2020-09-10T14:14:29Z</time>
</trkpt>
<trkpt lat="48.294235" lon="10.46173">
<ele>455.089</ele>
<time>2020-09-10T14:14:30Z</time>
</trkpt>
<trkpt lat="48.294193" lon="10.461781">
<ele>455.089</ele>
<time>2020-09-10T14:14:31Z</time>
</trkpt>
<trkpt lat="48.294155" lon="10.461828">
<ele>455.088</ele>
<time>2020-09-10T14:14:32Z</time>
</trkpt>
<trkpt lat="48.294117" lon="10.461879">
<ele>455.089</ele>
<time>2020-09-10T14:14:33Z</time>
</trkpt>
<trkpt lat="48.294075" lon="10.461926">
<ele>455.089</ele>
<time>2020-09-10T14:14:34Z</time>
</trkpt>
<trkpt lat="48.294033" lon="10.461973">
<ele>455.089</ele>
<time>2020-09-10T14:14:35Z</time>
</trkpt>
<trkpt lat="48.293995" lon="10.462022">
<ele>455.089</ele>
<time>2020-09-10T14:14:36Z</time>
</trkpt>
<trkpt lat="48.293957" lon="10.46207">
<ele>455.089</ele>
<time>2020-09-10T14:14:37Z</time>
</trkpt>
<trkpt lat="48.293919" lon="10.46212">
<ele>455.089</ele>
<time>2020-09-10T14:14:38Z</time>
</trkpt>
<trkpt lat="48.293877" lon="10.462169">
<ele>455.088</ele>
<time>2020-09-10T14:14:39Z</time>
</trkpt>
<trkpt lat="48.293835" lon="10.462214">
<ele>455.089</ele>
<time>2020-09-10T14:14:40Z</time>
</trkpt>
<trkpt lat="48.293797" lon="10.46226">
<ele>455.089</ele>
<time>2020-09-10T14:14:41Z</time>
</trkpt>
<trkpt lat="48.293755" lon="10.462303">
<ele>455.089</ele>
<time>2020-09-10T14:14:42Z</time>
</trkpt>
<trkpt lat="48.293713" lon="10.462346">
<ele>455.089</ele>
<time>2020-09-10T14:14:43Z</time>
</trkpt>
<trkpt lat="48.293671" lon="10.462393">
<ele>455.089</ele>
<time>2020-09-10T14:14:44Z</time>
</trkpt>
<trkpt lat="48.293636" lon="10.462439">
<ele>455.089</ele>
<time>2020-09-10T14:14:45Z</time>
</trkpt>
<trkpt lat="48.293594" lon="10.462482">
<ele>455.089</ele>
<time>2020-09-10T14:14:46Z</time>
</trkpt>
<trkpt lat="48.293556" lon="10.462526">
<ele>455.089</ele>
<time>2020-09-10T14:14:47Z</time>
</trkpt>
<trkpt lat="48.29351" lon="10.462568">
<ele>455.089</ele>
<time>2020-09-10T14:14:48Z</time>
</trkpt>
<trkpt lat="48.293472" lon="10.462606">
<ele>455.089</ele>
<time>2020-09-10T14:14:49Z</time>
</trkpt>
<trkpt lat="48.29343" lon="10.462644">
<ele>455.089</ele>
<time>2020-09-10T14:14:50Z</time>
</trkpt>
<trkpt lat="48.293385" lon="10.462682">
<ele>455.089</ele>
<time>2020-09-10T14:14:51Z</time>
</trkpt>
<trkpt lat="48.293343" lon="10.462719">
<ele>455.089</ele>
<time>2020-09-10T14:14:52Z</time>
</trkpt>
<trkpt lat="48.293304" lon="10.462753">
<ele>455.089</ele>
<time>2020-09-10T14:14:53Z</time>
</trkpt>
<trkpt lat="48.293255" lon="10.462785">
<ele>455.089</ele>
<time>2020-09-10T14:14:54Z</time>
</trkpt>
<trkpt lat="48.293213" lon="10.462817">
<ele>455.089</ele>
<time>2020-09-10T14:14:55Z</time>
</trkpt>
<trkpt lat="48.293159" lon="10.46284">
<ele>455.089</ele>
<time>2020-09-10T14:14:56Z</time>
</trkpt>
<trkpt lat="48.293106" lon="10.462858">
<ele>455.089</ele>
<time>2020-09-10T14:14:57Z</time>
</trkpt>
<trkpt lat="48.293049" lon="10.462868">
<ele>454.86</ele>
<time>2020-09-10T14:14:58Z</time>
</trkpt>
<trkpt lat="48.292984" lon="10.462873">
<ele>454.71</ele>
<time>2020-09-10T14:14:59Z</time>
</trkpt>
<trkpt lat="48.292915" lon="10.462882">
<ele>454.31</ele>
<time>2020-09-10T14:15:00Z</time>
</trkpt>
<trkpt lat="48.292847" lon="10.462897">
<ele>454.031</ele>
<time>2020-09-10T14:15:01Z</time>
</trkpt>
<trkpt lat="48.292774" lon="10.462918">
<ele>453.505</ele>
<time>2020-09-10T14:15:02Z</time>
</trkpt>
<trkpt lat="48.292702" lon="10.462943">
<ele>453.157</ele>
<time>2020-09-10T14:15:03Z</time>
</trkpt>
<trkpt lat="48.292633" lon="10.462967">
<ele>452.61</ele>
<time>2020-09-10T14:15:04Z</time>
</trkpt>
<trkpt lat="48.292568" lon="10.462988">
<ele>452.21</ele>
<time>2020-09-10T14:15:05Z</time>
</trkpt>
<trkpt lat="48.292507" lon="10.463012">
<ele>451.926</ele>
<time>2020-09-10T14:15:06Z</time>
</trkpt>
<trkpt lat="48.29245" lon="10.463046">
<ele>451.726</ele>
<time>2020-09-10T14:15:07Z</time>
</trkpt>
<trkpt lat="48.292397" lon="10.463074">
<ele>451.596</ele>
<time>2020-09-10T14:15:08Z</time>
</trkpt>
<trkpt lat="48.292351" lon="10.463113">
<ele>451.509</ele>
<time>2020-09-10T14:15:09Z</time>
</trkpt>
<trkpt lat="48.292316" lon="10.463157">
<ele>451.468</ele>
<time>2020-09-10T14:15:10Z</time>
</trkpt>
<trkpt lat="48.292286" lon="10.463199">
<ele>451.445</ele>
<time>2020-09-10T14:15:11Z</time>
</trkpt>
<trkpt lat="48.292252" lon="10.463235">
<ele>451.445</ele>
<time>2020-09-10T14:15:12Z</time>
</trkpt>
<trkpt lat="48.292206" lon="10.463268">
<ele>451.445</ele>
<time>2020-09-10T14:15:13Z</time>
</trkpt>
<trkpt lat="48.292168" lon="10.4633">
<ele>451.676</ele>
<time>2020-09-10T14:15:14Z</time>
</trkpt>
<trkpt lat="48.292122" lon="10.46333">
<ele>451.869</ele>
<time>2020-09-10T14:15:15Z</time>
</trkpt>
<trkpt lat="48.292072" lon="10.463365">
<ele>451.999</ele>
<time>2020-09-10T14:15:16Z</time>
</trkpt>
<trkpt lat="48.292034" lon="10.463386">
<ele>452.38</ele>
<time>2020-09-10T14:15:17Z</time>
</trkpt>
<trkpt lat="48.291992" lon="10.463404">
<ele>452.671</ele>
<time>2020-09-10T14:15:18Z</time>
</trkpt>
<trkpt lat="48.291954" lon="10.463415">
<ele>452.871</ele>
<time>2020-09-10T14:15:19Z</time>
</trkpt>
<trkpt lat="48.29192" lon="10.463427">
<ele>452.983</ele>
<time>2020-09-10T14:15:20Z</time>
</trkpt>
<trkpt lat="48.291885" lon="10.463435">
<ele>453.363</ele>
<time>2020-09-10T14:15:21Z</time>
</trkpt>
<trkpt lat="48.291855" lon="10.463447">
<ele>453.681</ele>
<time>2020-09-10T14:15:22Z</time>
</trkpt>
<trkpt lat="48.291824" lon="10.463463">
<ele>453.933</ele>
<time>2020-09-10T14:15:23Z</time>
</trkpt>
<trkpt lat="48.291794" lon="10.463482">
<ele>454.131</ele>
<time>2020-09-10T14:15:24Z</time>
</trkpt>
<trkpt lat="48.291767" lon="10.463496">
<ele>454.277</ele>
<time>2020-09-10T14:15:25Z</time>
</trkpt>
<trkpt lat="48.29174" lon="10.463515">
<ele>454.197</ele>
<time>2020-09-10T14:15:26Z</time>
</trkpt>
<trkpt lat="48.291706" lon="10.463536">
<ele>454.106</ele>
<time>2020-09-10T14:15:27Z</time>
</trkpt>
<trkpt lat="48.291676" lon="10.463553">
<ele>454.002</ele>
<time>2020-09-10T14:15:28Z</time>
</trkpt>
<trkpt lat="48.291637" lon="10.463568">
<ele>453.932</ele>
<time>2020-09-10T14:15:29Z</time>
</trkpt>
<trkpt lat="48.291599" lon="10.463583">
<ele>453.827</ele>
<time>2020-09-10T14:15:30Z</time>
</trkpt>
<trkpt lat="48.291561" lon="10.463598">
<ele>453.755</ele>
<time>2020-09-10T14:15:31Z</time>
</trkpt>
<trkpt lat="48.291519" lon="10.463614">
<ele>453.681</ele>
<time>2020-09-10T14:15:32Z</time>
</trkpt>
<trkpt lat="48.291481" lon="10.463629">
<ele>453.634</ele>
<time>2020-09-10T14:15:33Z</time>
</trkpt>
<trkpt lat="48.291431" lon="10.463643">
<ele>453.613</ele>
<time>2020-09-10T14:15:34Z</time>
</trkpt>
<trkpt lat="48.291389" lon="10.463658">
<ele>453.613</ele>
<time>2020-09-10T14:15:35Z</time>
</trkpt>
<trkpt lat="48.291348" lon="10.463673">
<ele>453.613</ele>
<time>2020-09-10T14:15:36Z</time>
</trkpt>
<trkpt lat="48.291298" lon="10.463689">
<ele>453.613</ele>
<time>2020-09-10T14:15:37Z</time>
</trkpt>
<trkpt lat="48.291256" lon="10.463705">
<ele>453.613</ele>
<time>2020-09-10T14:15:38Z</time>
</trkpt>
<trkpt lat="48.291214" lon="10.463725">
<ele>453.613</ele>
<time>2020-09-10T14:15:39Z</time>
</trkpt>
<trkpt lat="48.291168" lon="10.463745">
<ele>453.613</ele>
<time>2020-09-10T14:15:40Z</time>
</trkpt>
<trkpt lat="48.291126" lon="10.463765">
<ele>453.613</ele>
<time>2020-09-10T14:15:41Z</time>
</trkpt>
<trkpt lat="48.291084" lon="10.463788">
<ele>453.613</ele>
<time>2020-09-10T14:15:42Z</time>
</trkpt>
<trkpt lat="48.291039" lon="10.463815">
<ele>453.613</ele>
<time>2020-09-10T14:15:43Z</time>
</trkpt>
<trkpt lat="48.290997" lon="10.46384">
<ele>453.613</ele>
<time>2020-09-10T14:15:44Z</time>
</trkpt>
<trkpt lat="48.290955" lon="10.463867">
<ele>453.613</ele>
<time>2020-09-10T14:15:45Z</time>
</trkpt>
<trkpt lat="48.290909" lon="10.463895">
<ele>453.613</ele>
<time>2020-09-10T14:15:46Z</time>
</trkpt>
<trkpt lat="48.290867" lon="10.463925">
<ele>453.613</ele>
<time>2020-09-10T14:15:47Z</time>
</trkpt>
<trkpt lat="48.290829" lon="10.463957">
<ele>453.613</ele>
<time>2020-09-10T14:15:48Z</time>
</trkpt>
<trkpt lat="48.290787" lon="10.463986">
<ele>453.613</ele>
<time>2020-09-10T14:15:49Z</time>
</trkpt>
<trkpt lat="48.290745" lon="10.464016">
<ele>453.613</ele>
<time>2020-09-10T14:15:50Z</time>
</trkpt>
<trkpt lat="48.290703" lon="10.464049">
<ele>453.613</ele>
<time>2020-09-10T14:15:51Z</time>
</trkpt>
<trkpt lat="48.290661" lon="10.464084">
<ele>453.613</ele>
<time>2020-09-10T14:15:52Z</time>
</trkpt>
<trkpt lat="48.290619" lon="10.464119">
<ele>453.613</ele>
<time>2020-09-10T14:15:53Z</time>
</trkpt>
<trkpt lat="48.290581" lon="10.464154">
<ele>453.613</ele>
<time>2020-09-10T14:15:54Z</time>
</trkpt>
<trkpt lat="48.290539" lon="10.464196">
<ele>453.613</ele>
<time>2020-09-10T14:15:55Z</time>
</trkpt>
<trkpt lat="48.290497" lon="10.46424">
<ele>453.613</ele>
<time>2020-09-10T14:15:56Z</time>
</trkpt>
<trkpt lat="48.290459" lon="10.464284">
<ele>453.846</ele>
<time>2020-09-10T14:15:57Z</time>
</trkpt>
<trkpt lat="48.290421" lon="10.464325">
<ele>454.024</ele>
<time>2020-09-10T14:15:58Z</time>
</trkpt>
<trkpt lat="48.290379" lon="10.464368">
<ele>454.161</ele>
<time>2020-09-10T14:15:59Z</time>
</trkpt>
<trkpt lat="48.290344" lon="10.46441">
<ele>454.266</ele>
<time>2020-09-10T14:16:00Z</time>
</trkpt>
<trkpt lat="48.290302" lon="10.464452">
<ele>454.338</ele>
<time>2020-09-10T14:16:01Z</time>
</trkpt>
<trkpt lat="48.29026" lon="10.46449">
<ele>454.412</ele>
<time>2020-09-10T14:16:02Z</time>
</trkpt>
<trkpt lat="48.290218" lon="10.46453">
<ele>454.458</ele>
<time>2020-09-10T14:16:03Z</time>
</trkpt>
<trkpt lat="48.29018" lon="10.46457">
<ele>454.481</ele>
<time>2020-09-10T14:16:04Z</time>
</trkpt>
<trkpt lat="48.290138" lon="10.464608">
<ele>454.481</ele>
<time>2020-09-10T14:16:05Z</time>
</trkpt>
<trkpt lat="48.290096" lon="10.46465">
<ele>454.481</ele>
<time>2020-09-10T14:16:06Z</time>
</trkpt>
<trkpt lat="48.290054" lon="10.46469">
<ele>454.481</ele>
<time>2020-09-10T14:16:07Z</time>
</trkpt>
<trkpt lat="48.290016" lon="10.46473">
<ele>454.481</ele>
<time>2020-09-10T14:16:08Z</time>
</trkpt>
<trkpt lat="48.289974" lon="10.464777">
<ele>454.481</ele>
<time>2020-09-10T14:16:09Z</time>
</trkpt>
<trkpt lat="48.289936" lon="10.464816">
<ele>454.481</ele>
<time>2020-09-10T14:16:10Z</time>
</trkpt>
<trkpt lat="48.289894" lon="10.464853">
<ele>454.481</ele>
<time>2020-09-10T14:16:11Z</time>
</trkpt>
<trkpt lat="48.289856" lon="10.464891">
<ele>454.481</ele>
<time>2020-09-10T14:16:12Z</time>
</trkpt>
<trkpt lat="48.289818" lon="10.46493">
<ele>454.481</ele>
<time>2020-09-10T14:16:13Z</time>
</trkpt>
<trkpt lat="48.289776" lon="10.464967">
<ele>454.481</ele>
<time>2020-09-10T14:16:14Z</time>
</trkpt>
<trkpt lat="48.28973" lon="10.465003">
<ele>454.481</ele>
<time>2020-09-10T14:16:15Z</time>
</trkpt>
<trkpt lat="48.289684" lon="10.46504">
<ele>454.481</ele>
<time>2020-09-10T14:16:16Z</time>
</trkpt>
<trkpt lat="48.289635" lon="10.465074">
<ele>454.481</ele>
<time>2020-09-10T14:16:17Z</time>
</trkpt>
<trkpt lat="48.289593" lon="10.465108">
<ele>454.481</ele>
<time>2020-09-10T14:16:18Z</time>
</trkpt>
<trkpt lat="48.289543" lon="10.465139">
<ele>454.481</ele>
<time>2020-09-10T14:16:19Z</time>
</trkpt>
<trkpt lat="48.289501" lon="10.465168">
<ele>454.481</ele>
<time>2020-09-10T14:16:20Z</time>
</trkpt>
<trkpt lat="48.289463" lon="10.465198">
<ele>454.481</ele>
<time>2020-09-10T14:16:21Z</time>
</trkpt>
<trkpt lat="48.289421" lon="10.465227">
<ele>454.481</ele>
<time>2020-09-10T14:16:22Z</time>
</trkpt>
<trkpt lat="48.289375" lon="10.465252">
<ele>454.481</ele>
<time>2020-09-10T14:16:23Z</time>
</trkpt>
<trkpt lat="48.289333" lon="10.465275">
<ele>454.481</ele>
<time>2020-09-10T14:16:24Z</time>
</trkpt>
<trkpt lat="48.289284" lon="10.465297">
<ele>454.481</ele>
<time>2020-09-10T14:16:25Z</time>
</trkpt>
<trkpt lat="48.289234" lon="10.465319">
<ele>454.481</ele>
<time>2020-09-10T14:16:26Z</time>
</trkpt>
<trkpt lat="48.289192" lon="10.465337">
<ele>454.481</ele>
<time>2020-09-10T14:16:27Z</time>
</trkpt>
<trkpt lat="48.289143" lon="10.465355">
<ele>454.481</ele>
<time>2020-09-10T14:16:28Z</time>
</trkpt>
<trkpt lat="48.289097" lon="10.465373">
<ele>454.481</ele>
<time>2020-09-10T14:16:29Z</time>
</trkpt>
<trkpt lat="48.289047" lon="10.465392">
<ele>454.481</ele>
<time>2020-09-10T14:16:30Z</time>
</trkpt>
<trkpt lat="48.289001" lon="10.465411">
<ele>454.481</ele>
<time>2020-09-10T14:16:31Z</time>
</trkpt>
<trkpt lat="48.288956" lon="10.465432">
<ele>454.481</ele>
<time>2020-09-10T14:16:32Z</time>
</trkpt>
<trkpt lat="48.28891" lon="10.465448">
<ele>454.481</ele>
<time>2020-09-10T14:16:33Z</time>
</trkpt>
<trkpt lat="48.28886" lon="10.465466">
<ele>454.481</ele>
<time>2020-09-10T14:16:34Z</time>
</trkpt>
<trkpt lat="48.288811" lon="10.465482">
<ele>454.481</ele>
<time>2020-09-10T14:16:35Z</time>
</trkpt>
<trkpt lat="48.288765" lon="10.4655">
<ele>454.481</ele>
<time>2020-09-10T14:16:36Z</time>
</trkpt>
<trkpt lat="48.288715" lon="10.465518">
<ele>454.481</ele>
<time>2020-09-10T14:16:37Z</time>
</trkpt>
<trkpt lat="48.288666" lon="10.46554">
<ele>454.481</ele>
<time>2020-09-10T14:16:38Z</time>
</trkpt>
<trkpt lat="48.288616" lon="10.46556">
<ele>454.481</ele>
<time>2020-09-10T14:16:39Z</time>
</trkpt>
<trkpt lat="48.288567" lon="10.465581">
<ele>454.481</ele>
<time>2020-09-10T14:16:40Z</time>
</trkpt>
<trkpt lat="48.288517" lon="10.465602">
<ele>454.481</ele>
<time>2020-09-10T14:16:41Z</time>
</trkpt>
<trkpt lat="48.288464" lon="10.46562">
<ele>454.481</ele>
<time>2020-09-10T14:16:42Z</time>
</trkpt>
<trkpt lat="48.288414" lon="10.465644">
<ele>454.481</ele>
<time>2020-09-10T14:16:43Z</time>
</trkpt>
<trkpt lat="48.288361" lon="10.465669">
<ele>454.481</ele>
<time>2020-09-10T14:16:44Z</time>
</trkpt>
<trkpt lat="48.288315" lon="10.465694">
<ele>454.481</ele>
<time>2020-09-10T14:16:45Z</time>
</trkpt>
<trkpt lat="48.288261" lon="10.465723">
<ele>454.481</ele>
<time>2020-09-10T14:16:46Z</time>
</trkpt>
<trkpt lat="48.288216" lon="10.465755">
<ele>454.481</ele>
<time>2020-09-10T14:16:47Z</time>
</trkpt>
<trkpt lat="48.288162" lon="10.465787">
<ele>454.481</ele>
<time>2020-09-10T14:16:48Z</time>
</trkpt>
<trkpt lat="48.288116" lon="10.465822">
<ele>454.481</ele>
<time>2020-09-10T14:16:49Z</time>
</trkpt>
<trkpt lat="48.288071" lon="10.465858">
<ele>454.481</ele>
<time>2020-09-10T14:16:50Z</time>
</trkpt>
<trkpt lat="48.288025" lon="10.46589">
<ele>454.269</ele>
<time>2020-09-10T14:16:51Z</time>
</trkpt>
<trkpt lat="48.287979" lon="10.465929">
<ele>454.069</ele>
<time>2020-09-10T14:16:52Z</time>
</trkpt>
<trkpt lat="48.287937" lon="10.46597">
<ele>453.906</ele>
<time>2020-09-10T14:16:53Z</time>
</trkpt>
<trkpt lat="48.287895" lon="10.466022">
<ele>453.774</ele>
<time>2020-09-10T14:16:54Z</time>
</trkpt>
<trkpt lat="48.287857" lon="10.466077">
<ele>453.672</ele>
<time>2020-09-10T14:16:55Z</time>
</trkpt>
<trkpt lat="48.287815" lon="10.466134">
<ele>453.597</ele>
<time>2020-09-10T14:16:56Z</time>
</trkpt>
<trkpt lat="48.287777" lon="10.466188">
<ele>453.55</ele>
<time>2020-09-10T14:16:57Z</time>
</trkpt>
<trkpt lat="48.287735" lon="10.466242">
<ele>453.527</ele>
<time>2020-09-10T14:16:58Z</time>
</trkpt>
<trkpt lat="48.287704" lon="10.466293">
<ele>453.527</ele>
<time>2020-09-10T14:16:59Z</time>
</trkpt>
<trkpt lat="48.287666" lon="10.466344">
<ele>453.527</ele>
<time>2020-09-10T14:17:00Z</time>
</trkpt>
<trkpt lat="48.287632" lon="10.466396">
<ele>453.527</ele>
<time>2020-09-10T14:17:01Z</time>
</trkpt>
<trkpt lat="48.287594" lon="10.466452">
<ele>453.527</ele>
<time>2020-09-10T14:17:02Z</time>
</trkpt>
<trkpt lat="48.28756" lon="10.46651">
<ele>453.527</ele>
<time>2020-09-10T14:17:03Z</time>
</trkpt>
<trkpt lat="48.287525" lon="10.466572">
<ele>453.527</ele>
<time>2020-09-10T14:17:04Z</time>
</trkpt>
<trkpt lat="48.287491" lon="10.466635">
<ele>453.527</ele>
<time>2020-09-10T14:17:05Z</time>
</trkpt>
<trkpt lat="48.287453" lon="10.466694">
<ele>453.527</ele>
<time>2020-09-10T14:17:06Z</time>
</trkpt>
<trkpt lat="48.287415" lon="10.466752">
<ele>453.527</ele>
<time>2020-09-10T14:17:07Z</time>
</trkpt>
<trkpt lat="48.287376" lon="10.46681">
<ele>453.278</ele>
<time>2020-09-10T14:17:08Z</time>
</trkpt>
<trkpt lat="48.287338" lon="10.466867">
<ele>453.085</ele>
<time>2020-09-10T14:17:09Z</time>
</trkpt>
<trkpt lat="48.287292" lon="10.466922">
<ele>452.935</ele>
<time>2020-09-10T14:17:10Z</time>
</trkpt>
<trkpt lat="48.287247" lon="10.466972">
<ele>452.835</ele>
<time>2020-09-10T14:17:11Z</time>
</trkpt>
<trkpt lat="48.287209" lon="10.467014">
<ele>452.727</ele>
<time>2020-09-10T14:17:12Z</time>
</trkpt>
<trkpt lat="48.287163" lon="10.467058">
<ele>452.648</ele>
<time>2020-09-10T14:17:13Z</time>
</trkpt>
<trkpt lat="48.287117" lon="10.467096">
<ele>452.597</ele>
<time>2020-09-10T14:17:14Z</time>
</trkpt>
<trkpt lat="48.287071" lon="10.467132">
<ele>452.573</ele>
<time>2020-09-10T14:17:15Z</time>
</trkpt>
<trkpt lat="48.287022" lon="10.467167">
<ele>452.573</ele>
<time>2020-09-10T14:17:16Z</time>
</trkpt>
<trkpt lat="48.286972" lon="10.467198">
<ele>452.573</ele>
<time>2020-09-10T14:17:17Z</time>
</trkpt>
<trkpt lat="48.286926" lon="10.46723">
<ele>452.573</ele>
<time>2020-09-10T14:17:18Z</time>
</trkpt>
<trkpt lat="48.286884" lon="10.467261">
<ele>452.573</ele>
<time>2020-09-10T14:17:19Z</time>
</trkpt>
<trkpt lat="48.286835" lon="10.467297">
<ele>452.573</ele>
<time>2020-09-10T14:17:20Z</time>
</trkpt>
<trkpt lat="48.286793" lon="10.467332">
<ele>452.573</ele>
<time>2020-09-10T14:17:21Z</time>
</trkpt>
<trkpt lat="48.286751" lon="10.467365">
<ele>452.573</ele>
<time>2020-09-10T14:17:22Z</time>
</trkpt>
<trkpt lat="48.286705" lon="10.467395">
<ele>452.573</ele>
<time>2020-09-10T14:17:23Z</time>
</trkpt>
<trkpt lat="48.286667" lon="10.467417">
<ele>452.573</ele>
<time>2020-09-10T14:17:24Z</time>
</trkpt>
<trkpt lat="48.286625" lon="10.467448">
<ele>452.573</ele>
<time>2020-09-10T14:17:25Z</time>
</trkpt>
<trkpt lat="48.286594" lon="10.467487">
<ele>452.573</ele>
<time>2020-09-10T14:17:26Z</time>
</trkpt>
<trkpt lat="48.286552" lon="10.467524">
<ele>452.573</ele>
<time>2020-09-10T14:17:27Z</time>
</trkpt>
<trkpt lat="48.286514" lon="10.467564">
<ele>452.573</ele>
<time>2020-09-10T14:17:28Z</time>
</trkpt>
<trkpt lat="48.286469" lon="10.467608">
<ele>452.573</ele>
<time>2020-09-10T14:17:29Z</time>
</trkpt>
<trkpt lat="48.28643" lon="10.467638">
<ele>452.573</ele>
<time>2020-09-10T14:17:30Z</time>
</trkpt>
<trkpt lat="48.286396" lon="10.467653">
<ele>452.573</ele>
<time>2020-09-10T14:17:31Z</time>
</trkpt>
<trkpt lat="48.286366" lon="10.467655">
<ele>452.573</ele>
<time>2020-09-10T14:17:32Z</time>
</trkpt>
<trkpt lat="48.286343" lon="10.467649">
<ele>452.573</ele>
<time>2020-09-10T14:17:33Z</time>
</trkpt>
<trkpt lat="48.286327" lon="10.467636">
<ele>452.573</ele>
<time>2020-09-10T14:17:34Z</time>
</trkpt>
<trkpt lat="48.286308" lon="10.467622">
<ele>452.573</ele>
<time>2020-09-10T14:17:35Z</time>
</trkpt>
<trkpt lat="48.286297" lon="10.467603">
<ele>452.573</ele>
<time>2020-09-10T14:17:36Z</time>
</trkpt>
<trkpt lat="48.286278" lon="10.467585">
<ele>452.573</ele>
<time>2020-09-10T14:17:37Z</time>
</trkpt>
<trkpt lat="48.28627" lon="10.467575">
<ele>452.573</ele>
<time>2020-09-10T14:17:38Z</time>
</trkpt>
<trkpt lat="48.286266" lon="10.467568">
<ele>452.573</ele>
<time>2020-09-10T14:17:39Z</time>
</trkpt>
<trkpt lat="48.286255" lon="10.467562">
<ele>452.573</ele>
<time>2020-09-10T14:17:40Z</time>
</trkpt>
<trkpt lat="48.286247" lon="10.467561">
<ele>452.573</ele>
<time>2020-09-10T14:17:41Z</time>
</trkpt>
<trkpt lat="48.28624" lon="10.467559">
<ele>452.573</ele>
<time>2020-09-10T14:17:42Z</time>
</trkpt>
<trkpt lat="48.286224" lon="10.467557">
<ele>452.573</ele>
<time>2020-09-10T14:17:43Z</time>
</trkpt>
<trkpt lat="48.286205" lon="10.467559">
<ele>452.573</ele>
<time>2020-09-10T14:17:44Z</time>
</trkpt>
<trkpt lat="48.286201" lon="10.467564">
<ele>452.573</ele>
<time>2020-09-10T14:17:45Z</time>
</trkpt>
<trkpt lat="48.286198" lon="10.467571">
<ele>452.573</ele>
<time>2020-09-10T14:17:46Z</time>
</trkpt>
<trkpt lat="48.286198" lon="10.467578">
<ele>452.573</ele>
<time>2020-09-10T14:17:47Z</time>
</trkpt>
<trkpt lat="48.286198" lon="10.467587">
<ele>452.573</ele>
<time>2020-09-10T14:17:48Z</time>
</trkpt>
<trkpt lat="48.286198" lon="10.467585">
<ele>452.573</ele>
<time>2020-09-10T14:17:49Z</time>
</trkpt>
<trkpt lat="48.286201" lon="10.467578">
<ele>452.556</ele>
<time>2020-09-10T14:20:34Z</time>
</trkpt>
<trkpt lat="48.286194" lon="10.467585">
<ele>452.542</ele>
<time>2020-09-10T14:20:35Z</time>
</trkpt>
<trkpt lat="48.286186" lon="10.467597">
<ele>452.526</ele>
<time>2020-09-10T14:20:36Z</time>
</trkpt>
<trkpt lat="48.286179" lon="10.467611">
<ele>452.508</ele>
<time>2020-09-10T14:20:37Z</time>
</trkpt>
<trkpt lat="48.286167" lon="10.467626">
<ele>452.498</ele>
<time>2020-09-10T14:20:38Z</time>
</trkpt>
<trkpt lat="48.286144" lon="10.467647">
<ele>452.49</ele>
<time>2020-09-10T14:20:39Z</time>
</trkpt>
<trkpt lat="48.286121" lon="10.46769">
<ele>452.487</ele>
<time>2020-09-10T14:20:40Z</time>
</trkpt>
<trkpt lat="48.286114" lon="10.467722">
<ele>452.486</ele>
<time>2020-09-10T14:20:41Z</time>
</trkpt>
<trkpt lat="48.286106" lon="10.467765">
<ele>452.486</ele>
<time>2020-09-10T14:20:42Z</time>
</trkpt>
<trkpt lat="48.286098" lon="10.467792">
<ele>452.486</ele>
<time>2020-09-10T14:20:43Z</time>
</trkpt>
<trkpt lat="48.286087" lon="10.46783">
<ele>452.486</ele>
<time>2020-09-10T14:20:44Z</time>
</trkpt>
<trkpt lat="48.286079" lon="10.46786">
<ele>452.486</ele>
<time>2020-09-10T14:20:45Z</time>
</trkpt>
<trkpt lat="48.286064" lon="10.467895">
<ele>452.486</ele>
<time>2020-09-10T14:20:46Z</time>
</trkpt>
<trkpt lat="48.286041" lon="10.467925">
<ele>452.486</ele>
<time>2020-09-10T14:20:47Z</time>
</trkpt>
<trkpt lat="48.286018" lon="10.467953">
<ele>452.486</ele>
<time>2020-09-10T14:20:48Z</time>
</trkpt>
<trkpt lat="48.285992" lon="10.467977">
<ele>452.486</ele>
<time>2020-09-10T14:20:49Z</time>
</trkpt>
<trkpt lat="48.285957" lon="10.467999">
<ele>452.486</ele>
<time>2020-09-10T14:20:50Z</time>
</trkpt>
<trkpt lat="48.285923" lon="10.468025">
<ele>452.486</ele>
<time>2020-09-10T14:20:51Z</time>
</trkpt>
<trkpt lat="48.285889" lon="10.468057">
<ele>452.486</ele>
<time>2020-09-10T14:20:52Z</time>
</trkpt>
<trkpt lat="48.285854" lon="10.468081">
<ele>452.486</ele>
<time>2020-09-10T14:20:53Z</time>
</trkpt>
<trkpt lat="48.28582" lon="10.468097">
<ele>452.486</ele>
<time>2020-09-10T14:20:54Z</time>
</trkpt>
<trkpt lat="48.285786" lon="10.468115">
<ele>452.486</ele>
<time>2020-09-10T14:20:55Z</time>
</trkpt>
<trkpt lat="48.285751" lon="10.468142">
<ele>452.486</ele>
<time>2020-09-10T14:20:56Z</time>
</trkpt>
<trkpt lat="48.285717" lon="10.468164">
<ele>452.486</ele>
<time>2020-09-10T14:20:57Z</time>
</trkpt>
<trkpt lat="48.285683" lon="10.468187">
<ele>452.486</ele>
<time>2020-09-10T14:20:58Z</time>
</trkpt>
<trkpt lat="48.285645" lon="10.468212">
<ele>452.486</ele>
<time>2020-09-10T14:20:59Z</time>
</trkpt>
<trkpt lat="48.285603" lon="10.468235">
<ele>452.486</ele>
<time>2020-09-10T14:21:00Z</time>
</trkpt>
<trkpt lat="48.285568" lon="10.468255">
<ele>452.486</ele>
<time>2020-09-10T14:21:01Z</time>
</trkpt>
<trkpt lat="48.28553" lon="10.468278">
<ele>452.486</ele>
<time>2020-09-10T14:21:02Z</time>
</trkpt>
<trkpt lat="48.285492" lon="10.468305">
<ele>452.486</ele>
<time>2020-09-10T14:21:03Z</time>
</trkpt>
<trkpt lat="48.285454" lon="10.468322">
<ele>452.486</ele>
<time>2020-09-10T14:21:04Z</time>
</trkpt>
<trkpt lat="48.285412" lon="10.468336">
<ele>452.486</ele>
<time>2020-09-10T14:21:05Z</time>
</trkpt>
<trkpt lat="48.28537" lon="10.468355">
<ele>452.486</ele>
<time>2020-09-10T14:21:06Z</time>
</trkpt>
<trkpt lat="48.285328" lon="10.468389">
<ele>452.486</ele>
<time>2020-09-10T14:21:07Z</time>
</trkpt>
<trkpt lat="48.28529" lon="10.468411">
<ele>452.744</ele>
<time>2020-09-10T14:21:08Z</time>
</trkpt>
<trkpt lat="48.285252" lon="10.468431">
<ele>452.938</ele>
<time>2020-09-10T14:21:09Z</time>
</trkpt>
<trkpt lat="48.285213" lon="10.468457">
<ele>453.084</ele>
<time>2020-09-10T14:21:10Z</time>
</trkpt>
<trkpt lat="48.285175" lon="10.468481">
<ele>453.192</ele>
<time>2020-09-10T14:21:11Z</time>
</trkpt>
<trkpt lat="48.285133" lon="10.468512">
<ele>453.261</ele>
<time>2020-09-10T14:21:12Z</time>
</trkpt>
<trkpt lat="48.285095" lon="10.468538">
<ele>453.307</ele>
<time>2020-09-10T14:21:13Z</time>
</trkpt>
<trkpt lat="48.285061" lon="10.468562">
<ele>453.333</ele>
<time>2020-09-10T14:21:14Z</time>
</trkpt>
<trkpt lat="48.285019" lon="10.468583">
<ele>453.353</ele>
<time>2020-09-10T14:21:15Z</time>
</trkpt>
<trkpt lat="48.284973" lon="10.468613">
<ele>453.354</ele>
<time>2020-09-10T14:21:16Z</time>
</trkpt>
<trkpt lat="48.284931" lon="10.468638">
<ele>453.353</ele>
<time>2020-09-10T14:21:17Z</time>
</trkpt>
<trkpt lat="48.284889" lon="10.46866">
<ele>453.353</ele>
<time>2020-09-10T14:21:18Z</time>
</trkpt>
<trkpt lat="48.284851" lon="10.468685">
<ele>453.353</ele>
<time>2020-09-10T14:21:19Z</time>
</trkpt>
<trkpt lat="48.284809" lon="10.468709">
<ele>453.354</ele>
<time>2020-09-10T14:21:20Z</time>
</trkpt>
<trkpt lat="48.284775" lon="10.468735">
<ele>453.354</ele>
<time>2020-09-10T14:21:21Z</time>
</trkpt>
<trkpt lat="48.284737" lon="10.468757">
<ele>453.354</ele>
<time>2020-09-10T14:21:22Z</time>
</trkpt>
<trkpt lat="48.284698" lon="10.468777">
<ele>453.354</ele>
<time>2020-09-10T14:21:23Z</time>
</trkpt>
<trkpt lat="48.28466" lon="10.4688">
<ele>453.354</ele>
<time>2020-09-10T14:21:24Z</time>
</trkpt>
<trkpt lat="48.284618" lon="10.468822">
<ele>453.354</ele>
<time>2020-09-10T14:21:25Z</time>
</trkpt>
<trkpt lat="48.284584" lon="10.468842">
<ele>453.354</ele>
<time>2020-09-10T14:21:26Z</time>
</trkpt>
<trkpt lat="48.284546" lon="10.468863">
<ele>453.353</ele>
<time>2020-09-10T14:21:27Z</time>
</trkpt>
<trkpt lat="48.284508" lon="10.468885">
<ele>453.354</ele>
<time>2020-09-10T14:21:28Z</time>
</trkpt>
<trkpt lat="48.284466" lon="10.468905">
<ele>453.622</ele>
<time>2020-09-10T14:21:29Z</time>
</trkpt>
<trkpt lat="48.284424" lon="10.468926">
<ele>453.83</ele>
<time>2020-09-10T14:21:30Z</time>
</trkpt>
<trkpt lat="48.284382" lon="10.468952">
<ele>453.989</ele>
<time>2020-09-10T14:21:31Z</time>
</trkpt>
<trkpt lat="48.284344" lon="10.468977">
<ele>454.107</ele>
<time>2020-09-10T14:21:32Z</time>
</trkpt>
<trkpt lat="48.284306" lon="10.469003">
<ele>454.193</ele>
<time>2020-09-10T14:21:33Z</time>
</trkpt>
<trkpt lat="48.284264" lon="10.469028">
<ele>454.244</ele>
<time>2020-09-10T14:21:34Z</time>
</trkpt>
<trkpt lat="48.284229" lon="10.46905">
<ele>454.283</ele>
<time>2020-09-10T14:21:35Z</time>
</trkpt>
<trkpt lat="48.284191" lon="10.469067">
<ele>454.308</ele>
<time>2020-09-10T14:21:36Z</time>
</trkpt>
<trkpt lat="48.284157" lon="10.469089">
<ele>454.308</ele>
<time>2020-09-10T14:21:37Z</time>
</trkpt>
<trkpt lat="48.284119" lon="10.469113">
<ele>454.308</ele>
<time>2020-09-10T14:21:38Z</time>
</trkpt>
<trkpt lat="48.284084" lon="10.46914">
<ele>454.308</ele>
<time>2020-09-10T14:21:39Z</time>
</trkpt>
<trkpt lat="48.28405" lon="10.469168">
<ele>454.308</ele>
<time>2020-09-10T14:21:40Z</time>
</trkpt>
<trkpt lat="48.284016" lon="10.469187">
<ele>454.308</ele>
<time>2020-09-10T14:21:41Z</time>
</trkpt>
<trkpt lat="48.283981" lon="10.469203">
<ele>454.308</ele>
<time>2020-09-10T14:21:42Z</time>
</trkpt>
<trkpt lat="48.283947" lon="10.469229">
<ele>454.308</ele>
<time>2020-09-10T14:21:43Z</time>
</trkpt>
<trkpt lat="48.283913" lon="10.469248">
<ele>454.308</ele>
<time>2020-09-10T14:21:44Z</time>
</trkpt>
<trkpt lat="48.283878" lon="10.469269">
<ele>454.308</ele>
<time>2020-09-10T14:21:45Z</time>
</trkpt>
<trkpt lat="48.283844" lon="10.469287">
<ele>454.308</ele>
<time>2020-09-10T14:21:46Z</time>
</trkpt>
<trkpt lat="48.28381" lon="10.469305">
<ele>454.308</ele>
<time>2020-09-10T14:21:47Z</time>
</trkpt>
<trkpt lat="48.283775" lon="10.469323">
<ele>454.308</ele>
<time>2020-09-10T14:21:48Z</time>
</trkpt>
<trkpt lat="48.283741" lon="10.469343">
<ele>454.308</ele>
<time>2020-09-10T14:21:49Z</time>
</trkpt>
<trkpt lat="48.283703" lon="10.469372">
<ele>454.308</ele>
<time>2020-09-10T14:21:50Z</time>
</trkpt>
<trkpt lat="48.283669" lon="10.469397">
<ele>454.308</ele>
<time>2020-09-10T14:21:51Z</time>
</trkpt>
<trkpt lat="48.28363" lon="10.469419">
<ele>454.578</ele>
<time>2020-09-10T14:21:52Z</time>
</trkpt>
<trkpt lat="48.283596" lon="10.46945">
<ele>454.795</ele>
<time>2020-09-10T14:21:53Z</time>
</trkpt>
<trkpt lat="48.283554" lon="10.469476">
<ele>454.961</ele>
<time>2020-09-10T14:21:54Z</time>
</trkpt>
<trkpt lat="48.283512" lon="10.469501">
<ele>455.071</ele>
<time>2020-09-10T14:21:55Z</time>
</trkpt>
<trkpt lat="48.28347" lon="10.469526">
<ele>455.188</ele>
<time>2020-09-10T14:21:56Z</time>
</trkpt>
<trkpt lat="48.283428" lon="10.469557">
<ele>455.27</ele>
<time>2020-09-10T14:21:57Z</time>
</trkpt>
<trkpt lat="48.283386" lon="10.469582">
<ele>455.322</ele>
<time>2020-09-10T14:21:58Z</time>
</trkpt>
<trkpt lat="48.28334" lon="10.46961">
<ele>455.349</ele>
<time>2020-09-10T14:21:59Z</time>
</trkpt>
<trkpt lat="48.283298" lon="10.469637">
<ele>455.348</ele>
<time>2020-09-10T14:22:00Z</time>
</trkpt>
<trkpt lat="48.283257" lon="10.469664">
<ele>455.348</ele>
<time>2020-09-10T14:22:01Z</time>
</trkpt>
<trkpt lat="48.283207" lon="10.469687">
<ele>455.348</ele>
<time>2020-09-10T14:22:02Z</time>
</trkpt>
<trkpt lat="48.283169" lon="10.469713">
<ele>455.348</ele>
<time>2020-09-10T14:22:03Z</time>
</trkpt>
<trkpt lat="48.283123" lon="10.469731">
<ele>455.349</ele>
<time>2020-09-10T14:22:04Z</time>
</trkpt>
<trkpt lat="48.283081" lon="10.469748">
<ele>455.348</ele>
<time>2020-09-10T14:22:05Z</time>
</trkpt>
<trkpt lat="48.283051" lon="10.469761">
<ele>455.349</ele>
<time>2020-09-10T14:22:06Z</time>
</trkpt>
<trkpt lat="48.283016" lon="10.46978">
<ele>455.348</ele>
<time>2020-09-10T14:22:07Z</time>
</trkpt>
<trkpt lat="48.282986" lon="10.469798">
<ele>455.349</ele>
<time>2020-09-10T14:22:08Z</time>
</trkpt>
<trkpt lat="48.282955" lon="10.469815">
<ele>455.349</ele>
<time>2020-09-10T14:22:09Z</time>
</trkpt>
<trkpt lat="48.282921" lon="10.469833">
<ele>455.349</ele>
<time>2020-09-10T14:22:10Z</time>
</trkpt>
<trkpt lat="48.282887" lon="10.469851">
<ele>455.348</ele>
<time>2020-09-10T14:22:11Z</time>
</trkpt>
<trkpt lat="48.282856" lon="10.469872">
<ele>455.348</ele>
<time>2020-09-10T14:22:12Z</time>
</trkpt>
<trkpt lat="48.282822" lon="10.469882">
<ele>455.349</ele>
<time>2020-09-10T14:22:13Z</time>
</trkpt>
<trkpt lat="48.282787" lon="10.469895">
<ele>455.349</ele>
<time>2020-09-10T14:22:14Z</time>
</trkpt>
<trkpt lat="48.282749" lon="10.469907">
<ele>455.349</ele>
<time>2020-09-10T14:22:15Z</time>
</trkpt>
<trkpt lat="48.282715" lon="10.46992">
<ele>455.349</ele>
<time>2020-09-10T14:22:16Z</time>
</trkpt>
<trkpt lat="48.282681" lon="10.469933">
<ele>455.349</ele>
<time>2020-09-10T14:22:17Z</time>
</trkpt>
<trkpt lat="48.28265" lon="10.469954">
<ele>455.349</ele>
<time>2020-09-10T14:22:18Z</time>
</trkpt>
<trkpt lat="48.282616" lon="10.469973">
<ele>455.349</ele>
<time>2020-09-10T14:22:19Z</time>
</trkpt>
<trkpt lat="48.282585" lon="10.469994">
<ele>455.348</ele>
<time>2020-09-10T14:22:20Z</time>
</trkpt>
<trkpt lat="48.282551" lon="10.470014">
<ele>455.349</ele>
<time>2020-09-10T14:22:21Z</time>
</trkpt>
<trkpt lat="48.282494" lon="10.4701">
<ele>455.083</ele>
<time>2020-09-10T14:22:22Z</time>
</trkpt>
<trkpt lat="48.282459" lon="10.470088">
<ele>454.883</ele>
<time>2020-09-10T14:22:23Z</time>
</trkpt>
<trkpt lat="48.282429" lon="10.470075">
<ele>454.732</ele>
<time>2020-09-10T14:22:24Z</time>
</trkpt>
<trkpt lat="48.282402" lon="10.47005">
<ele>454.636</ele>
<time>2020-09-10T14:22:25Z</time>
</trkpt>
<trkpt lat="48.282383" lon="10.470008">
<ele>454.532</ele>
<time>2020-09-10T14:22:26Z</time>
</trkpt>
<trkpt lat="48.282368" lon="10.469962">
<ele>454.46</ele>
<time>2020-09-10T14:22:27Z</time>
</trkpt>
<trkpt lat="48.282352" lon="10.469912">
<ele>454.415</ele>
<time>2020-09-10T14:22:28Z</time>
</trkpt>
<trkpt lat="48.282337" lon="10.46986">
<ele>454.394</ele>
<time>2020-09-10T14:22:29Z</time>
</trkpt>
<trkpt lat="48.282322" lon="10.469805">
<ele>454.394</ele>
<time>2020-09-10T14:22:30Z</time>
</trkpt>
<trkpt lat="48.282307" lon="10.46975">
<ele>454.394</ele>
<time>2020-09-10T14:22:31Z</time>
</trkpt>
<trkpt lat="48.282291" lon="10.469691">
<ele>454.394</ele>
<time>2020-09-10T14:22:32Z</time>
</trkpt>
<trkpt lat="48.282269" lon="10.469637">
<ele>454.394</ele>
<time>2020-09-10T14:22:33Z</time>
</trkpt>
<trkpt lat="48.282249" lon="10.469581">
<ele>454.394</ele>
<time>2020-09-10T14:22:34Z</time>
</trkpt>
<trkpt lat="48.282227" lon="10.469528">
<ele>454.394</ele>
<time>2020-09-10T14:22:35Z</time>
</trkpt>
<trkpt lat="48.282207" lon="10.469477">
<ele>454.394</ele>
<time>2020-09-10T14:22:36Z</time>
</trkpt>
<trkpt lat="48.282188" lon="10.469427">
<ele>454.394</ele>
<time>2020-09-10T14:22:37Z</time>
</trkpt>
<trkpt lat="48.282166" lon="10.469379">
<ele>454.394</ele>
<time>2020-09-10T14:22:38Z</time>
</trkpt>
<trkpt lat="48.28215" lon="10.469336">
<ele>454.394</ele>
<time>2020-09-10T14:22:39Z</time>
</trkpt>
<trkpt lat="48.282135" lon="10.469287">
<ele>454.394</ele>
<time>2020-09-10T14:22:40Z</time>
</trkpt>
<trkpt lat="48.282127" lon="10.469239">
<ele>454.132</ele>
<time>2020-09-10T14:22:41Z</time>
</trkpt>
<trkpt lat="48.282108" lon="10.4692">
<ele>453.924</ele>
<time>2020-09-10T14:22:42Z</time>
</trkpt>
<trkpt lat="48.282097" lon="10.46916">
<ele>453.76</ele>
<time>2020-09-10T14:22:43Z</time>
</trkpt>
<trkpt lat="48.282085" lon="10.469117">
<ele>453.631</ele>
<time>2020-09-10T14:22:44Z</time>
</trkpt>
<trkpt lat="48.282078" lon="10.469073">
<ele>453.539</ele>
<time>2020-09-10T14:22:45Z</time>
</trkpt>
<trkpt lat="48.282066" lon="10.469029">
<ele>453.445</ele>
<time>2020-09-10T14:22:46Z</time>
</trkpt>
<trkpt lat="48.282059" lon="10.468986">
<ele>453.382</ele>
<time>2020-09-10T14:22:47Z</time>
</trkpt>
<trkpt lat="48.282043" lon="10.468935">
<ele>453.354</ele>
<time>2020-09-10T14:22:48Z</time>
</trkpt>
<trkpt lat="48.282028" lon="10.468885">
<ele>453.354</ele>
<time>2020-09-10T14:22:49Z</time>
</trkpt>
<trkpt lat="48.282013" lon="10.468837">
<ele>453.354</ele>
<time>2020-09-10T14:22:50Z</time>
</trkpt>
<trkpt lat="48.281998" lon="10.468791">
<ele>453.353</ele>
<time>2020-09-10T14:22:51Z</time>
</trkpt>
<trkpt lat="48.281975" lon="10.468743">
<ele>453.354</ele>
<time>2020-09-10T14:22:52Z</time>
</trkpt>
<trkpt lat="48.28196" lon="10.468699">
<ele>453.129</ele>
<time>2020-09-10T14:22:53Z</time>
</trkpt>
<trkpt lat="48.281948" lon="10.468652">
<ele>452.958</ele>
<time>2020-09-10T14:22:54Z</time>
</trkpt>
<trkpt lat="48.281937" lon="10.468607">
<ele>452.843</ele>
<time>2020-09-10T14:22:55Z</time>
</trkpt>
<trkpt lat="48.281929" lon="10.468563">
<ele>452.723</ele>
<time>2020-09-10T14:22:56Z</time>
</trkpt>
<trkpt lat="48.281925" lon="10.468527">
<ele>452.627</ele>
<time>2020-09-10T14:22:57Z</time>
</trkpt>
<trkpt lat="48.281929" lon="10.46849">
<ele>452.556</ele>
<time>2020-09-10T14:22:58Z</time>
</trkpt>
<trkpt lat="48.281937" lon="10.468457">
<ele>452.509</ele>
<time>2020-09-10T14:22:59Z</time>
</trkpt>
<trkpt lat="48.281952" lon="10.468431">
<ele>452.486</ele>
<time>2020-09-10T14:23:00Z</time>
</trkpt>
<trkpt lat="48.281963" lon="10.468403">
<ele>452.486</ele>
<time>2020-09-10T14:23:01Z</time>
</trkpt>
<trkpt lat="48.281986" lon="10.46838">
<ele>452.486</ele>
<time>2020-09-10T14:23:02Z</time>
</trkpt>
<trkpt lat="48.282009" lon="10.468368">
<ele>452.486</ele>
<time>2020-09-10T14:23:03Z</time>
</trkpt>
<trkpt lat="48.282028" lon="10.468362">
<ele>452.486</ele>
<time>2020-09-10T14:23:04Z</time>
</trkpt>
<trkpt lat="48.282055" lon="10.468359">
<ele>452.486</ele>
<time>2020-09-10T14:23:05Z</time>
</trkpt>
<trkpt lat="48.282078" lon="10.468359">
<ele>452.486</ele>
<time>2020-09-10T14:23:06Z</time>
</trkpt>
<trkpt lat="48.282101" lon="10.468357">
<ele>452.486</ele>
<time>2020-09-10T14:23:07Z</time>
</trkpt>
<trkpt lat="48.282127" lon="10.468351">
<ele>452.486</ele>
<time>2020-09-10T14:23:08Z</time>
</trkpt>
<trkpt lat="48.282162" lon="10.468342">
<ele>452.486</ele>
<time>2020-09-10T14:23:09Z</time>
</trkpt>
<trkpt lat="48.282185" lon="10.468333">
<ele>452.486</ele>
<time>2020-09-10T14:23:11Z</time>
</trkpt>
<trkpt lat="48.282265" lon="10.468317">
<ele>452.486</ele>
<time>2020-09-10T14:23:12Z</time>
</trkpt>
<trkpt lat="48.282295" lon="10.468315">
<ele>452.486</ele>
<time>2020-09-10T14:23:13Z</time>
</trkpt>
<trkpt lat="48.282322" lon="10.468315">
<ele>452.486</ele>
<time>2020-09-10T14:23:14Z</time>
</trkpt>
<trkpt lat="48.282345" lon="10.468317">
<ele>452.486</ele>
<time>2020-09-10T14:23:15Z</time>
</trkpt>
<trkpt lat="48.282375" lon="10.468313">
<ele>452.486</ele>
<time>2020-09-10T14:23:16Z</time>
</trkpt>
<trkpt lat="48.282402" lon="10.468311">
<ele>452.486</ele>
<time>2020-09-10T14:23:17Z</time>
</trkpt>
<trkpt lat="48.282433" lon="10.468302">
<ele>452.486</ele>
<time>2020-09-10T14:23:18Z</time>
</trkpt>
<trkpt lat="48.282455" lon="10.46829">
<ele>452.486</ele>
<time>2020-09-10T14:23:19Z</time>
</trkpt>
<trkpt lat="48.282482" lon="10.468282">
<ele>452.486</ele>
<time>2020-09-10T14:23:20Z</time>
</trkpt>
<trkpt lat="48.282513" lon="10.468273">
<ele>452.486</ele>
<time>2020-09-10T14:23:22Z</time>
</trkpt>
<trkpt lat="48.282532" lon="10.468275">
<ele>452.486</ele>
<time>2020-09-10T14:23:23Z</time>
</trkpt>
<trkpt lat="48.282585" lon="10.468263">
<ele>452.486</ele>
<time>2020-09-10T14:23:24Z</time>
</trkpt>
<trkpt lat="48.282608" lon="10.468252">
<ele>452.486</ele>
<time>2020-09-10T14:23:26Z</time>
</trkpt>
<trkpt lat="48.282631" lon="10.468233">
<ele>452.486</ele>
<time>2020-09-10T14:23:27Z</time>
</trkpt>
<trkpt lat="48.282677" lon="10.468212">
<ele>452.486</ele>
<time>2020-09-10T14:23:29Z</time>
</trkpt>
<trkpt lat="48.282715" lon="10.46819">
<ele>452.486</ele>
<time>2020-09-10T14:23:30Z</time>
</trkpt>
<trkpt lat="48.282742" lon="10.468179">
<ele>452.486</ele>
<time>2020-09-10T14:23:32Z</time>
</trkpt>
<trkpt lat="48.282761" lon="10.468172">
<ele>452.486</ele>
<time>2020-09-10T14:23:33Z</time>
</trkpt>
<trkpt lat="48.282787" lon="10.468158">
<ele>452.486</ele>
<time>2020-09-10T14:23:34Z</time>
</trkpt>
<trkpt lat="48.282818" lon="10.468147">
<ele>452.486</ele>
<time>2020-09-10T14:23:35Z</time>
</trkpt>
<trkpt lat="48.282848" lon="10.46814">
<ele>452.486</ele>
<time>2020-09-10T14:23:36Z</time>
</trkpt>
<trkpt lat="48.282879" lon="10.468137">
<ele>452.486</ele>
<time>2020-09-10T14:23:38Z</time>
</trkpt>
<trkpt lat="48.282944" lon="10.46814">
<ele>452.486</ele>
<time>2020-09-10T14:23:39Z</time>
</trkpt>
<trkpt lat="48.282978" lon="10.468147">
<ele>452.486</ele>
<time>2020-09-10T14:23:40Z</time>
</trkpt>
<trkpt lat="48.283009" lon="10.468158">
<ele>452.486</ele>
<time>2020-09-10T14:23:41Z</time>
</trkpt>
<trkpt lat="48.283039" lon="10.468177">
<ele>452.486</ele>
<time>2020-09-10T14:23:42Z</time>
</trkpt>
<trkpt lat="48.28307" lon="10.468191">
<ele>452.486</ele>
<time>2020-09-10T14:23:43Z</time>
</trkpt>
<trkpt lat="48.283096" lon="10.46821">
<ele>452.486</ele>
<time>2020-09-10T14:23:44Z</time>
</trkpt>
<trkpt lat="48.283127" lon="10.468224">
<ele>452.486</ele>
<time>2020-09-10T14:23:45Z</time>
</trkpt>
<trkpt lat="48.283154" lon="10.468235">
<ele>452.486</ele>
<time>2020-09-10T14:23:46Z</time>
</trkpt>
<trkpt lat="48.283188" lon="10.468244">
<ele>452.486</ele>
<time>2020-09-10T14:23:47Z</time>
</trkpt>
<trkpt lat="48.283211" lon="10.468259">
<ele>452.486</ele>
<time>2020-09-10T14:23:49Z</time>
</trkpt>
<trkpt lat="48.283276" lon="10.468275">
<ele>452.486</ele>
<time>2020-09-10T14:23:50Z</time>
</trkpt>
<trkpt lat="48.283302" lon="10.468277">
<ele>452.486</ele>
<time>2020-09-10T14:23:51Z</time>
</trkpt>
<trkpt lat="48.283333" lon="10.468277">
<ele>452.486</ele>
<time>2020-09-10T14:23:52Z</time>
</trkpt>
<trkpt lat="48.28336" lon="10.46828">
<ele>452.486</ele>
<time>2020-09-10T14:23:53Z</time>
</trkpt>
<trkpt lat="48.28339" lon="10.46828">
<ele>452.486</ele>
<time>2020-09-10T14:23:54Z</time>
</trkpt>
<trkpt lat="48.283417" lon="10.468287">
<ele>452.486</ele>
<time>2020-09-10T14:23:55Z</time>
</trkpt>
<trkpt lat="48.283451" lon="10.468295">
<ele>452.697</ele>
<time>2020-09-10T14:23:56Z</time>
</trkpt>
<trkpt lat="48.283478" lon="10.468302">
<ele>452.896</ele>
<time>2020-09-10T14:23:57Z</time>
</trkpt>
<trkpt lat="48.283504" lon="10.468311">
<ele>453.063</ele>
<time>2020-09-10T14:23:58Z</time>
</trkpt>
<trkpt lat="48.283531" lon="10.468308">
<ele>453.2</ele>
<time>2020-09-10T14:23:59Z</time>
</trkpt>
<trkpt lat="48.283562" lon="10.468302">
<ele>453.297</ele>
<time>2020-09-10T14:24:00Z</time>
</trkpt>
<trkpt lat="48.283585" lon="10.4683">
<ele>453.372</ele>
<time>2020-09-10T14:24:01Z</time>
</trkpt>
<trkpt lat="48.283604" lon="10.468296">
<ele>453.418</ele>
<time>2020-09-10T14:24:02Z</time>
</trkpt>
<trkpt lat="48.283627" lon="10.46829">
<ele>453.44</ele>
<time>2020-09-10T14:24:03Z</time>
</trkpt>
<trkpt lat="48.283646" lon="10.468282">
<ele>453.44</ele>
<time>2020-09-10T14:24:04Z</time>
</trkpt>
<trkpt lat="48.283661" lon="10.468284">
<ele>453.44</ele>
<time>2020-09-10T14:24:05Z</time>
</trkpt>
<trkpt lat="48.283676" lon="10.468278">
<ele>453.44</ele>
<time>2020-09-10T14:24:06Z</time>
</trkpt>
<trkpt lat="48.283695" lon="10.468269">
<ele>453.44</ele>
<time>2020-09-10T14:24:07Z</time>
</trkpt>
<trkpt lat="48.283714" lon="10.468265">
<ele>453.44</ele>
<time>2020-09-10T14:24:08Z</time>
</trkpt>
<trkpt lat="48.283733" lon="10.468257">
<ele>453.44</ele>
<time>2020-09-10T14:24:09Z</time>
</trkpt>
<trkpt lat="48.283756" lon="10.468248">
<ele>453.44</ele>
<time>2020-09-10T14:24:10Z</time>
</trkpt>
<trkpt lat="48.283783" lon="10.468246">
<ele>453.44</ele>
<time>2020-09-10T14:24:11Z</time>
</trkpt>
<trkpt lat="48.283821" lon="10.46825">
<ele>453.44</ele>
<time>2020-09-10T14:24:12Z</time>
</trkpt>
<trkpt lat="48.283852" lon="10.46825">
<ele>453.44</ele>
<time>2020-09-10T14:24:13Z</time>
</trkpt>
<trkpt lat="48.283878" lon="10.468246">
<ele>453.44</ele>
<time>2020-09-10T14:24:14Z</time>
</trkpt>
<trkpt lat="48.283909" lon="10.46825">
<ele>453.44</ele>
<time>2020-09-10T14:24:16Z</time>
</trkpt>
<trkpt lat="48.283966" lon="10.468246">
<ele>453.44</ele>
<time>2020-09-10T14:24:17Z</time>
</trkpt>
<trkpt lat="48.284" lon="10.468235">
<ele>453.44</ele>
<time>2020-09-10T14:24:18Z</time>
</trkpt>
<trkpt lat="48.284035" lon="10.468228">
<ele>453.44</ele>
<time>2020-09-10T14:24:19Z</time>
</trkpt>
<trkpt lat="48.284065" lon="10.468221">
<ele>453.44</ele>
<time>2020-09-10T14:24:20Z</time>
</trkpt>
<trkpt lat="48.284092" lon="10.46821">
<ele>453.44</ele>
<time>2020-09-10T14:24:21Z</time>
</trkpt>
<trkpt lat="48.284115" lon="10.46819">
<ele>453.44</ele>
<time>2020-09-10T14:24:22Z</time>
</trkpt>
<trkpt lat="48.284149" lon="10.468173">
<ele>453.44</ele>
<time>2020-09-10T14:24:23Z</time>
</trkpt>
<trkpt lat="48.284176" lon="10.468156">
<ele>453.44</ele>
<time>2020-09-10T14:24:24Z</time>
</trkpt>
<trkpt lat="48.284199" lon="10.468142">
<ele>453.44</ele>
<time>2020-09-10T14:24:25Z</time>
</trkpt>
<trkpt lat="48.284214" lon="10.468142">
<ele>453.44</ele>
<time>2020-09-10T14:24:26Z</time>
</trkpt>
<trkpt lat="48.284222" lon="10.46813">
<ele>453.44</ele>
<time>2020-09-10T14:24:27Z</time>
</trkpt>
<trkpt lat="48.284237" lon="10.46813">
<ele>453.44</ele>
<time>2020-09-10T14:24:28Z</time>
</trkpt>
<trkpt lat="48.284248" lon="10.46813">
<ele>453.44</ele>
<time>2020-09-10T14:24:29Z</time>
</trkpt>
<trkpt lat="48.284264" lon="10.468126">
<ele>453.44</ele>
<time>2020-09-10T14:24:30Z</time>
</trkpt>
<trkpt lat="48.284271" lon="10.468122">
<ele>453.44</ele>
<time>2020-09-10T14:24:31Z</time>
</trkpt>
<trkpt lat="48.284279" lon="10.468122">
<ele>453.44</ele>
<time>2020-09-10T14:24:32Z</time>
</trkpt>
<trkpt lat="48.284313" lon="10.468128">
<ele>453.44</ele>
<time>2020-09-10T14:24:39Z</time>
</trkpt>
<trkpt lat="48.284325" lon="10.468135">
<ele>453.44</ele>
<time>2020-09-10T14:24:40Z</time>
</trkpt>
<trkpt lat="48.284344" lon="10.46814">
<ele>453.44</ele>
<time>2020-09-10T14:24:41Z</time>
</trkpt>
<trkpt lat="48.284348" lon="10.46816">
<ele>453.44</ele>
<time>2020-09-10T14:24:42Z</time>
</trkpt>
<trkpt lat="48.284359" lon="10.468193">
<ele>453.44</ele>
<time>2020-09-10T14:24:43Z</time>
</trkpt>
<trkpt lat="48.284367" lon="10.468224">
<ele>453.44</ele>
<time>2020-09-10T14:24:44Z</time>
</trkpt>
<trkpt lat="48.284386" lon="10.468259">
<ele>453.44</ele>
<time>2020-09-10T14:24:45Z</time>
</trkpt>
<trkpt lat="48.284397" lon="10.468287">
<ele>453.44</ele>
<time>2020-09-10T14:24:46Z</time>
</trkpt>
<trkpt lat="48.284401" lon="10.468318">
<ele>453.44</ele>
<time>2020-09-10T14:24:47Z</time>
</trkpt>
<trkpt lat="48.284409" lon="10.468353">
<ele>453.44</ele>
<time>2020-09-10T14:24:48Z</time>
</trkpt>
<trkpt lat="48.284412" lon="10.468387">
<ele>453.44</ele>
<time>2020-09-10T14:24:49Z</time>
</trkpt>
<trkpt lat="48.28442" lon="10.46842">
<ele>453.44</ele>
<time>2020-09-10T14:24:50Z</time>
</trkpt>
<trkpt lat="48.284424" lon="10.468451">
<ele>453.44</ele>
<time>2020-09-10T14:24:51Z</time>
</trkpt>
<trkpt lat="48.284428" lon="10.468485">
<ele>453.649</ele>
<time>2020-09-10T14:24:52Z</time>
</trkpt>
<trkpt lat="48.284435" lon="10.46852">
<ele>453.842</ele>
<time>2020-09-10T14:24:53Z</time>
</trkpt>
<trkpt lat="48.284443" lon="10.468554">
<ele>454.022</ele>
<time>2020-09-10T14:24:54Z</time>
</trkpt>
<trkpt lat="48.284454" lon="10.468587">
<ele>454.151</ele>
<time>2020-09-10T14:24:55Z</time>
</trkpt>
<trkpt lat="48.284466" lon="10.468618">
<ele>454.249</ele>
<time>2020-09-10T14:24:56Z</time>
</trkpt>
<trkpt lat="48.284473" lon="10.468646">
<ele>454.324</ele>
<time>2020-09-10T14:24:57Z</time>
</trkpt>
<trkpt lat="48.284485" lon="10.468678">
<ele>454.372</ele>
<time>2020-09-10T14:24:58Z</time>
</trkpt>
<trkpt lat="48.284492" lon="10.468705">
<ele>454.394</ele>
<time>2020-09-10T14:24:59Z</time>
</trkpt>
<trkpt lat="48.284504" lon="10.468734">
<ele>454.394</ele>
<time>2020-09-10T14:25:00Z</time>
</trkpt>
<trkpt lat="48.284515" lon="10.468748">
<ele>454.394</ele>
<time>2020-09-10T14:25:01Z</time>
</trkpt>
<trkpt lat="48.284519" lon="10.468767">
<ele>454.394</ele>
<time>2020-09-10T14:25:02Z</time>
</trkpt>
<trkpt lat="48.284515" lon="10.468797">
<ele>454.394</ele>
<time>2020-09-10T14:25:03Z</time>
</trkpt>
<trkpt lat="48.284515" lon="10.468822">
<ele>454.394</ele>
<time>2020-09-10T14:25:04Z</time>
</trkpt>
<trkpt lat="48.284508" lon="10.468852">
<ele>454.394</ele>
<time>2020-09-10T14:25:05Z</time>
</trkpt>
<trkpt lat="48.284496" lon="10.468884">
<ele>454.394</ele>
<time>2020-09-10T14:25:06Z</time>
</trkpt>
<trkpt lat="48.284473" lon="10.468906">
<ele>454.394</ele>
<time>2020-09-10T14:25:07Z</time>
</trkpt>
<trkpt lat="48.284447" lon="10.468925">
<ele>454.394</ele>
<time>2020-09-10T14:25:08Z</time>
</trkpt>
<trkpt lat="48.28442" lon="10.46894">
<ele>454.394</ele>
<time>2020-09-10T14:25:09Z</time>
</trkpt>
<trkpt lat="48.284393" lon="10.468955">
<ele>454.394</ele>
<time>2020-09-10T14:25:10Z</time>
</trkpt>
<trkpt lat="48.284367" lon="10.468971">
<ele>454.394</ele>
<time>2020-09-10T14:25:11Z</time>
</trkpt>
<trkpt lat="48.28434" lon="10.468995">
<ele>454.394</ele>
<time>2020-09-10T14:25:12Z</time>
</trkpt>
<trkpt lat="48.284313" lon="10.46901">
<ele>454.394</ele>
<time>2020-09-10T14:25:13Z</time>
</trkpt>
<trkpt lat="48.284286" lon="10.469028">
<ele>454.394</ele>
<time>2020-09-10T14:25:14Z</time>
</trkpt>
<trkpt lat="48.28426" lon="10.469047">
<ele>454.394</ele>
<time>2020-09-10T14:25:15Z</time>
</trkpt>
<trkpt lat="48.284237" lon="10.469067">
<ele>454.394</ele>
<time>2020-09-10T14:25:16Z</time>
</trkpt>
<trkpt lat="48.28421" lon="10.469082">
<ele>454.394</ele>
<time>2020-09-10T14:25:17Z</time>
</trkpt>
<trkpt lat="48.284184" lon="10.46909">
<ele>454.641</ele>
<time>2020-09-10T14:25:18Z</time>
</trkpt>
<trkpt lat="48.284157" lon="10.469109">
<ele>454.837</ele>
<time>2020-09-10T14:25:19Z</time>
</trkpt>
<trkpt lat="48.284134" lon="10.469129">
<ele>454.987</ele>
<time>2020-09-10T14:25:20Z</time>
</trkpt>
<trkpt lat="48.284115" lon="10.469147">
<ele>455.109</ele>
<time>2020-09-10T14:25:21Z</time>
</trkpt>
<trkpt lat="48.284092" lon="10.469166">
<ele>455.187</ele>
<time>2020-09-10T14:25:22Z</time>
</trkpt>
<trkpt lat="48.284069" lon="10.46918">
<ele>455.269</ele>
<time>2020-09-10T14:25:23Z</time>
</trkpt>
<trkpt lat="48.28405" lon="10.469187">
<ele>455.322</ele>
<time>2020-09-10T14:25:24Z</time>
</trkpt>
<trkpt lat="48.284031" lon="10.469191">
<ele>455.349</ele>
<time>2020-09-10T14:25:25Z</time>
</trkpt>
<trkpt lat="48.284016" lon="10.469192">
<ele>455.349</ele>
<time>2020-09-10T14:25:26Z</time>
</trkpt>
<trkpt lat="48.283997" lon="10.469193">
<ele>455.349</ele>
<time>2020-09-10T14:25:27Z</time>
</trkpt>
<trkpt lat="48.283981" lon="10.4692">
<ele>455.349</ele>
<time>2020-09-10T14:25:28Z</time>
</trkpt>
<trkpt lat="48.28397" lon="10.469205">
<ele>455.349</ele>
<time>2020-09-10T14:25:29Z</time>
</trkpt>
<trkpt lat="48.283955" lon="10.469215">
<ele>455.349</ele>
<time>2020-09-10T14:25:30Z</time>
</trkpt>
<trkpt lat="48.283943" lon="10.469229">
<ele>455.348</ele>
<time>2020-09-10T14:25:31Z</time>
</trkpt>
<trkpt lat="48.283928" lon="10.469243">
<ele>455.349</ele>
<time>2020-09-10T14:25:32Z</time>
</trkpt>
<trkpt lat="48.28392" lon="10.469254">
<ele>455.348</ele>
<time>2020-09-10T14:25:33Z</time>
</trkpt>
<trkpt lat="48.283901" lon="10.469265">
<ele>455.348</ele>
<time>2020-09-10T14:25:34Z</time>
</trkpt>
<trkpt lat="48.283882" lon="10.469273">
<ele>455.349</ele>
<time>2020-09-10T14:25:35Z</time>
</trkpt>
<trkpt lat="48.283859" lon="10.469275">
<ele>455.349</ele>
<time>2020-09-10T14:25:36Z</time>
</trkpt>
<trkpt lat="48.28384" lon="10.469275">
<ele>455.349</ele>
<time>2020-09-10T14:25:37Z</time>
</trkpt>
<trkpt lat="48.283829" lon="10.469276">
<ele>455.349</ele>
<time>2020-09-10T14:25:38Z</time>
</trkpt>
<trkpt lat="48.283825" lon="10.469278">
<ele>455.349</ele>
<time>2020-09-10T14:25:39Z</time>
</trkpt>
<trkpt lat="48.283821" lon="10.469273">
<ele>455.349</ele>
<time>2020-09-10T14:25:41Z</time>
</trkpt>
<trkpt lat="48.28381" lon="10.46931">
<ele>455.349</ele>
<time>2020-09-10T14:26:03Z</time>
</trkpt>
<trkpt lat="48.283798" lon="10.469313">
<ele>455.349</ele>
<time>2020-09-10T14:26:04Z</time>
</trkpt>
<trkpt lat="48.283791" lon="10.469318">
<ele>455.349</ele>
<time>2020-09-10T14:26:05Z</time>
</trkpt>
<trkpt lat="48.283779" lon="10.469323">
<ele>455.349</ele>
<time>2020-09-10T14:26:06Z</time>
</trkpt>
<trkpt lat="48.283768" lon="10.469327">
<ele>455.348</ele>
<time>2020-09-10T14:26:07Z</time>
</trkpt>
<trkpt lat="48.283756" lon="10.46933">
<ele>455.349</ele>
<time>2020-09-10T14:26:08Z</time>
</trkpt>
<trkpt lat="48.283749" lon="10.46933">
<ele>455.348</ele>
<time>2020-09-10T14:26:09Z</time>
</trkpt>
<trkpt lat="48.283737" lon="10.469327">
<ele>455.348</ele>
<time>2020-09-10T14:26:10Z</time>
</trkpt>
<trkpt lat="48.28373" lon="10.469325">
<ele>455.349</ele>
<time>2020-09-10T14:26:11Z</time>
</trkpt>
<trkpt lat="48.28373" lon="10.46933">
<ele>455.349</ele>
<time>2020-09-10T14:26:12Z</time>
</trkpt>
<trkpt lat="48.283726" lon="10.469329">
<ele>455.349</ele>
<time>2020-09-10T14:26:13Z</time>
</trkpt>
<trkpt lat="48.283714" lon="10.469338">
<ele>455.348</ele>
<time>2020-09-10T14:26:32Z</time>
</trkpt>
<trkpt lat="48.283699" lon="10.469352">
<ele>455.349</ele>
<time>2020-09-10T14:26:33Z</time>
</trkpt>
<trkpt lat="48.283688" lon="10.469377">
<ele>455.349</ele>
<time>2020-09-10T14:26:34Z</time>
</trkpt>
<trkpt lat="48.283665" lon="10.469403">
<ele>455.349</ele>
<time>2020-09-10T14:26:35Z</time>
</trkpt>
<trkpt lat="48.283638" lon="10.46943">
<ele>455.349</ele>
<time>2020-09-10T14:26:36Z</time>
</trkpt>
<trkpt lat="48.283611" lon="10.469451">
<ele>455.348</ele>
<time>2020-09-10T14:26:37Z</time>
</trkpt>
<trkpt lat="48.283585" lon="10.469477">
<ele>455.348</ele>
<time>2020-09-10T14:26:38Z</time>
</trkpt>
<trkpt lat="48.283554" lon="10.469501">
<ele>455.348</ele>
<time>2020-09-10T14:26:39Z</time>
</trkpt>
<trkpt lat="48.283516" lon="10.469523">
<ele>455.349</ele>
<time>2020-09-10T14:26:40Z</time>
</trkpt>
<trkpt lat="48.283482" lon="10.469547">
<ele>455.348</ele>
<time>2020-09-10T14:26:41Z</time>
</trkpt>
<trkpt lat="48.283447" lon="10.469568">
<ele>455.349</ele>
<time>2020-09-10T14:26:42Z</time>
</trkpt>
<trkpt lat="48.283409" lon="10.46959">
<ele>455.349</ele>
<time>2020-09-10T14:26:43Z</time>
</trkpt>
<trkpt lat="48.283375" lon="10.46961">
<ele>455.348</ele>
<time>2020-09-10T14:26:44Z</time>
</trkpt>
<trkpt lat="48.283344" lon="10.469626">
<ele>455.348</ele>
<time>2020-09-10T14:26:45Z</time>
</trkpt>
<trkpt lat="48.283306" lon="10.469647">
<ele>455.349</ele>
<time>2020-09-10T14:26:46Z</time>
</trkpt>
<trkpt lat="48.283276" lon="10.469664">
<ele>455.348</ele>
<time>2020-09-10T14:26:47Z</time>
</trkpt>
<trkpt lat="48.283241" lon="10.46968">
<ele>455.349</ele>
<time>2020-09-10T14:26:48Z</time>
</trkpt>
<trkpt lat="48.283207" lon="10.469696">
<ele>455.348</ele>
<time>2020-09-10T14:26:49Z</time>
</trkpt>
<trkpt lat="48.283173" lon="10.469717">
<ele>455.349</ele>
<time>2020-09-10T14:26:50Z</time>
</trkpt>
<trkpt lat="48.283134" lon="10.469735">
<ele>455.349</ele>
<time>2020-09-10T14:26:51Z</time>
</trkpt>
<trkpt lat="48.283092" lon="10.469753">
<ele>455.348</ele>
<time>2020-09-10T14:26:52Z</time>
</trkpt>
<trkpt lat="48.283051" lon="10.469773">
<ele>455.348</ele>
<time>2020-09-10T14:26:53Z</time>
</trkpt>
<trkpt lat="48.283009" lon="10.469796">
<ele>455.349</ele>
<time>2020-09-10T14:26:54Z</time>
</trkpt>
<trkpt lat="48.28297" lon="10.46982">
<ele>455.349</ele>
<time>2020-09-10T14:26:55Z</time>
</trkpt>
<trkpt lat="48.282932" lon="10.46984">
<ele>455.349</ele>
<time>2020-09-10T14:26:56Z</time>
</trkpt>
<trkpt lat="48.28289" lon="10.469863">
<ele>455.349</ele>
<time>2020-09-10T14:26:57Z</time>
</trkpt>
<trkpt lat="48.282856" lon="10.46988">
<ele>455.349</ele>
<time>2020-09-10T14:26:58Z</time>
</trkpt>
<trkpt lat="48.282822" lon="10.469893">
<ele>455.349</ele>
<time>2020-09-10T14:26:59Z</time>
</trkpt>
<trkpt lat="48.282791" lon="10.469905">
<ele>455.349</ele>
<time>2020-09-10T14:27:00Z</time>
</trkpt>
<trkpt lat="48.282753" lon="10.469915">
<ele>455.349</ele>
<time>2020-09-10T14:27:01Z</time>
</trkpt>
<trkpt lat="48.282722" lon="10.469922">
<ele>455.348</ele>
<time>2020-09-10T14:27:02Z</time>
</trkpt>
<trkpt lat="48.282696" lon="10.469927">
<ele>455.348</ele>
<time>2020-09-10T14:27:03Z</time>
</trkpt>
<trkpt lat="48.282661" lon="10.469933">
<ele>455.348</ele>
<time>2020-09-10T14:27:04Z</time>
</trkpt>
<trkpt lat="48.282635" lon="10.469938">
<ele>455.349</ele>
<time>2020-09-10T14:27:05Z</time>
</trkpt>
<trkpt lat="48.282608" lon="10.469952">
<ele>455.349</ele>
<time>2020-09-10T14:27:06Z</time>
</trkpt>
<trkpt lat="48.282585" lon="10.469965">
<ele>455.349</ele>
<time>2020-09-10T14:27:07Z</time>
</trkpt>
<trkpt lat="48.282562" lon="10.46998">
<ele>455.349</ele>
<time>2020-09-10T14:27:08Z</time>
</trkpt>
<trkpt lat="48.282543" lon="10.469994">
<ele>455.348</ele>
<time>2020-09-10T14:27:09Z</time>
</trkpt>
<trkpt lat="48.28252" lon="10.47">
<ele>455.349</ele>
<time>2020-09-10T14:27:10Z</time>
</trkpt>
<trkpt lat="48.282505" lon="10.470014">
<ele>455.348</ele>
<time>2020-09-10T14:27:11Z</time>
</trkpt>
<trkpt lat="48.282486" lon="10.47001">
<ele>455.349</ele>
<time>2020-09-10T14:27:12Z</time>
</trkpt>
<trkpt lat="48.282475" lon="10.469997">
<ele>455.348</ele>
<time>2020-09-10T14:27:13Z</time>
</trkpt>
<trkpt lat="48.282463" lon="10.469975">
<ele>455.349</ele>
<time>2020-09-10T14:27:14Z</time>
</trkpt>
<trkpt lat="48.282459" lon="10.46995">
<ele>455.349</ele>
<time>2020-09-10T14:27:15Z</time>
</trkpt>
<trkpt lat="48.282455" lon="10.469915">
<ele>455.349</ele>
<time>2020-09-10T14:27:16Z</time>
</trkpt>
<trkpt lat="48.28244" lon="10.469892">
<ele>455.348</ele>
<time>2020-09-10T14:27:17Z</time>
</trkpt>
<trkpt lat="48.282425" lon="10.469855">
<ele>455.349</ele>
<time>2020-09-10T14:27:18Z</time>
</trkpt>
<trkpt lat="48.282417" lon="10.469822">
<ele>455.348</ele>
<time>2020-09-10T14:27:19Z</time>
</trkpt>
<trkpt lat="48.28241" lon="10.469794">
<ele>455.349</ele>
<time>2020-09-10T14:27:20Z</time>
</trkpt>
<trkpt lat="48.282398" lon="10.469767">
<ele>455.349</ele>
<time>2020-09-10T14:27:21Z</time>
</trkpt>
<trkpt lat="48.282387" lon="10.469737">
<ele>455.349</ele>
<time>2020-09-10T14:27:22Z</time>
</trkpt>
<trkpt lat="48.282372" lon="10.46972">
<ele>455.349</ele>
<time>2020-09-10T14:27:23Z</time>
</trkpt>
<trkpt lat="48.282356" lon="10.469707">
<ele>455.348</ele>
<time>2020-09-10T14:27:24Z</time>
</trkpt>
<trkpt lat="48.282352" lon="10.469696">
<ele>455.349</ele>
<time>2020-09-10T14:27:25Z</time>
</trkpt>
<trkpt lat="48.282349" lon="10.469687">
<ele>455.349</ele>
<time>2020-09-10T14:27:26Z</time>
</trkpt>
<trkpt lat="48.282349" lon="10.469666">
<ele>455.349</ele>
<time>2020-09-10T14:27:35Z</time>
</trkpt>
<trkpt lat="48.282349" lon="10.46966">
<ele>455.146</ele>
<time>2020-09-10T14:27:36Z</time>
</trkpt>
<trkpt lat="48.282345" lon="10.469658">
<ele>454.987</ele>
<time>2020-09-10T14:27:37Z</time>
</trkpt>
<trkpt lat="48.282345" lon="10.469655">
<ele>454.853</ele>
<time>2020-09-10T14:27:38Z</time>
</trkpt>
<trkpt lat="48.282341" lon="10.46966">
<ele>454.598</ele>
<time>2020-09-10T14:27:40Z</time>
</trkpt>
<trkpt lat="48.282337" lon="10.46966">
<ele>454.486</ele>
<time>2020-09-10T14:27:41Z</time>
</trkpt>
<trkpt lat="48.282337" lon="10.469665">
<ele>454.421</ele>
<time>2020-09-10T14:27:42Z</time>
</trkpt>
<trkpt lat="48.282333" lon="10.469686">
<ele>454.394</ele>
<time>2020-09-10T14:27:54Z</time>
</trkpt>
<trkpt lat="48.282337" lon="10.469704">
<ele>454.394</ele>
<time>2020-09-10T14:27:55Z</time>
</trkpt>
<trkpt lat="48.282345" lon="10.469722">
<ele>454.394</ele>
<time>2020-09-10T14:27:56Z</time>
</trkpt>
<trkpt lat="48.282352" lon="10.469744">
<ele>454.394</ele>
<time>2020-09-10T14:27:57Z</time>
</trkpt>
<trkpt lat="48.282356" lon="10.469761">
<ele>454.394</ele>
<time>2020-09-10T14:27:58Z</time>
</trkpt>
<trkpt lat="48.28236" lon="10.46978">
<ele>454.394</ele>
<time>2020-09-10T14:27:59Z</time>
</trkpt>
<trkpt lat="48.282368" lon="10.469802">
<ele>454.394</ele>
<time>2020-09-10T14:28:00Z</time>
</trkpt>
<trkpt lat="48.282375" lon="10.469833">
<ele>454.394</ele>
<time>2020-09-10T14:28:01Z</time>
</trkpt>
<trkpt lat="48.282387" lon="10.469867">
<ele>454.394</ele>
<time>2020-09-10T14:28:02Z</time>
</trkpt>
<trkpt lat="48.282394" lon="10.469897">
<ele>454.394</ele>
<time>2020-09-10T14:28:03Z</time>
</trkpt>
<trkpt lat="48.282394" lon="10.469924">
<ele>454.394</ele>
<time>2020-09-10T14:28:04Z</time>
</trkpt>
<trkpt lat="48.282391" lon="10.469947">
<ele>454.394</ele>
<time>2020-09-10T14:28:05Z</time>
</trkpt>
<trkpt lat="48.282398" lon="10.46996">
<ele>454.394</ele>
<time>2020-09-10T14:28:06Z</time>
</trkpt>
<trkpt lat="48.282406" lon="10.46997">
<ele>454.394</ele>
<time>2020-09-10T14:28:07Z</time>
</trkpt>
<trkpt lat="48.282413" lon="10.469983">
<ele>454.394</ele>
<time>2020-09-10T14:28:08Z</time>
</trkpt>
<trkpt lat="48.282421" lon="10.470006">
<ele>454.394</ele>
<time>2020-09-10T14:28:09Z</time>
</trkpt>
<trkpt lat="48.282425" lon="10.47002">
<ele>454.394</ele>
<time>2020-09-10T14:28:10Z</time>
</trkpt>
<trkpt lat="48.282429" lon="10.470034">
<ele>454.394</ele>
<time>2020-09-10T14:28:11Z</time>
</trkpt>
<trkpt lat="48.282436" lon="10.470036">
<ele>454.394</ele>
<time>2020-09-10T14:28:12Z</time>
</trkpt>
<trkpt lat="48.28244" lon="10.470034">
<ele>454.394</ele>
<time>2020-09-10T14:28:13Z</time>
</trkpt>
<trkpt lat="48.282444" lon="10.470037">
<ele>454.394</ele>
<time>2020-09-10T14:28:14Z</time>
</trkpt>
<trkpt lat="48.282455" lon="10.470046">
<ele>454.394</ele>
<time>2020-09-10T14:28:17Z</time>
</trkpt>
<trkpt lat="48.282463" lon="10.470043">
<ele>454.394</ele>
<time>2020-09-10T14:28:18Z</time>
</trkpt>
<trkpt lat="48.282482" lon="10.470039">
<ele>454.394</ele>
<time>2020-09-10T14:28:19Z</time>
</trkpt>
<trkpt lat="48.282497" lon="10.470037">
<ele>454.668</ele>
<time>2020-09-10T14:28:20Z</time>
</trkpt>
<trkpt lat="48.282516" lon="10.470034">
<ele>454.913</ele>
<time>2020-09-10T14:28:21Z</time>
</trkpt>
<trkpt lat="48.282532" lon="10.470029">
<ele>455.057</ele>
<time>2020-09-10T14:28:22Z</time>
</trkpt>
<trkpt lat="48.282551" lon="10.470027">
<ele>455.18</ele>
<time>2020-09-10T14:28:23Z</time>
</trkpt>
<trkpt lat="48.282574" lon="10.470018">
<ele>455.245</ele>
<time>2020-09-10T14:28:24Z</time>
</trkpt>
<trkpt lat="48.282593" lon="10.470012">
<ele>455.295</ele>
<time>2020-09-10T14:28:25Z</time>
</trkpt>
<trkpt lat="48.282612" lon="10.470005">
<ele>455.332</ele>
<time>2020-09-10T14:28:26Z</time>
</trkpt>
<trkpt lat="48.282631" lon="10.469998">
<ele>455.349</ele>
<time>2020-09-10T14:28:27Z</time>
</trkpt>
<trkpt lat="48.28265" lon="10.469994">
<ele>455.348</ele>
<time>2020-09-10T14:28:28Z</time>
</trkpt>
<trkpt lat="48.282673" lon="10.469992">
<ele>455.348</ele>
<time>2020-09-10T14:28:29Z</time>
</trkpt>
<trkpt lat="48.2827" lon="10.469981">
<ele>455.348</ele>
<time>2020-09-10T14:28:30Z</time>
</trkpt>
<trkpt lat="48.282722" lon="10.469972">
<ele>455.349</ele>
<time>2020-09-10T14:28:31Z</time>
</trkpt>
<trkpt lat="48.282745" lon="10.469955">
<ele>455.349</ele>
<time>2020-09-10T14:28:32Z</time>
</trkpt>
<trkpt lat="48.282772" lon="10.469934">
<ele>455.348</ele>
<time>2020-09-10T14:28:33Z</time>
</trkpt>
<trkpt lat="48.282799" lon="10.46992">
<ele>455.348</ele>
<time>2020-09-10T14:28:34Z</time>
</trkpt>
<trkpt lat="48.282829" lon="10.469903">
<ele>455.349</ele>
<time>2020-09-10T14:28:35Z</time>
</trkpt>
<trkpt lat="48.282856" lon="10.469885">
<ele>455.349</ele>
<time>2020-09-10T14:28:36Z</time>
</trkpt>
<trkpt lat="48.282879" lon="10.469872">
<ele>455.349</ele>
<time>2020-09-10T14:28:37Z</time>
</trkpt>
<trkpt lat="48.282909" lon="10.469872">
<ele>455.349</ele>
<time>2020-09-10T14:28:38Z</time>
</trkpt>
<trkpt lat="48.282936" lon="10.469863">
<ele>455.349</ele>
<time>2020-09-10T14:28:39Z</time>
</trkpt>
<trkpt lat="48.282959" lon="10.469847">
<ele>455.349</ele>
<time>2020-09-10T14:28:40Z</time>
</trkpt>
<trkpt lat="48.282978" lon="10.469834">
<ele>455.348</ele>
<time>2020-09-10T14:28:41Z</time>
</trkpt>
<trkpt lat="48.282993" lon="10.469836">
<ele>455.348</ele>
<time>2020-09-10T14:28:42Z</time>
</trkpt>
<trkpt lat="48.283005" lon="10.469834">
<ele>455.348</ele>
<time>2020-09-10T14:28:43Z</time>
</trkpt>
<trkpt lat="48.283009" lon="10.469831">
<ele>455.349</ele>
<time>2020-09-10T14:28:44Z</time>
</trkpt>
<trkpt lat="48.283009" lon="10.469834">
<ele>455.349</ele>
<time>2020-09-10T14:28:45Z</time>
</trkpt>
<trkpt lat="48.283009" lon="10.469838">
<ele>455.348</ele>
<time>2020-09-10T14:28:46Z</time>
</trkpt>
<trkpt lat="48.283031" lon="10.469853">
<ele>455.349</ele>
<time>2020-09-10T14:28:48Z</time>
</trkpt>
<trkpt lat="48.283047" lon="10.469859">
<ele>455.349</ele>
<time>2020-09-10T14:28:49Z</time>
</trkpt>
<trkpt lat="48.283062" lon="10.46986">
<ele>455.349</ele>
<time>2020-09-10T14:28:50Z</time>
</trkpt>
<trkpt lat="48.283073" lon="10.469862">
<ele>455.348</ele>
<time>2020-09-10T14:28:51Z</time>
</trkpt>
<trkpt lat="48.283081" lon="10.46987">
<ele>455.348</ele>
<time>2020-09-10T14:28:52Z</time>
</trkpt>
<trkpt lat="48.283096" lon="10.469882">
<ele>455.349</ele>
<time>2020-09-10T14:28:53Z</time>
</trkpt>
<trkpt lat="48.283104" lon="10.469891">
<ele>455.349</ele>
<time>2020-09-10T14:28:54Z</time>
</trkpt>
<trkpt lat="48.283104" lon="10.469895">
<ele>455.349</ele>
<time>2020-09-10T14:28:56Z</time>
</trkpt>
<trkpt lat="48.2831" lon="10.469916">
<ele>455.348</ele>
<time>2020-09-10T14:28:59Z</time>
</trkpt>
<trkpt lat="48.283096" lon="10.469927">
<ele>455.349</ele>
<time>2020-09-10T14:29:00Z</time>
</trkpt>
<trkpt lat="48.283092" lon="10.46994">
<ele>455.349</ele>
<time>2020-09-10T14:29:01Z</time>
</trkpt>
<trkpt lat="48.283092" lon="10.469952">
<ele>455.349</ele>
<time>2020-09-10T14:29:02Z</time>
</trkpt>
<trkpt lat="48.283092" lon="10.469965">
<ele>455.349</ele>
<time>2020-09-10T14:29:03Z</time>
</trkpt>
<trkpt lat="48.283089" lon="10.469972">
<ele>455.348</ele>
<time>2020-09-10T14:29:04Z</time>
</trkpt>
<trkpt lat="48.283089" lon="10.469985">
<ele>455.349</ele>
<time>2020-09-10T14:29:05Z</time>
</trkpt>
<trkpt lat="48.283089" lon="10.469995">
<ele>455.349</ele>
<time>2020-09-10T14:29:06Z</time>
</trkpt>
<trkpt lat="48.283092" lon="10.470003">
<ele>455.349</ele>
<time>2020-09-10T14:29:07Z</time>
</trkpt>
<trkpt lat="48.283096" lon="10.47001">
<ele>455.349</ele>
<time>2020-09-10T14:29:08Z</time>
</trkpt>
<trkpt lat="48.283096" lon="10.470015">
<ele>455.349</ele>
<time>2020-09-10T14:29:10Z</time>
</trkpt>
<trkpt lat="48.283096" lon="10.470015">
<ele>455.349</ele>
</trkpt>
</trkseg>
</trk>
</gpx>